<?xml version='1.0' encoding='UTF-8'?><gpx version="1.1" creator="JPX - https://github.com/jenetics/jpx" xmlns="http://www.topografix.com/GPX/1/1"><trk><trkseg><trkpt lat="43.2098652" lon="13.296006"><ele>194.0</ele><time>2026-03-22T07:07:15.318Z</time></trkpt><trkpt lat="43.2099239" lon="13.2959644"><ele>194.0</ele><time>2026-03-22T07:17:23.318Z</time></trkpt><trkpt lat="43.2099639" lon="13.2960454"><ele>194.0</ele><time>2026-03-22T07:17:29.318Z</time></trkpt><trkpt lat="43.2100105" lon="13.2961156"><ele>194.0</ele><time>2026-03-22T07:17:35.318Z</time></trkpt><trkpt lat="43.2100501" lon="13.2961855"><ele>194.0</ele><time>2026-03-22T07:17:42.317Z</time></trkpt><trkpt lat="43.2101147" lon="13.296194"><ele>194.0</ele><time>2026-03-22T07:17:49.317Z</time></trkpt><trkpt lat="43.2101605" lon="13.2962655"><ele>194.0</ele><time>2026-03-22T07:18:01.318Z</time></trkpt><trkpt lat="43.2100975" lon="13.2962626"><ele>194.0</ele><time>2026-03-22T07:18:50.318Z</time></trkpt><trkpt lat="43.2100446" lon="13.2962151"><ele>194.0</ele><time>2026-03-22T07:23:33.318Z</time></trkpt><trkpt lat="43.2099986" lon="13.2961356"><ele>194.0</ele><time>2026-03-22T07:25:58.316Z</time></trkpt><trkpt lat="43.209973" lon="13.2960521"><ele>194.0</ele><time>2026-03-22T07:26:04.296Z</time></trkpt><trkpt lat="43.209947" lon="13.2959619"><ele>194.0</ele><time>2026-03-22T07:26:15.319Z</time></trkpt><trkpt lat="43.2099364" lon="13.2958752"><ele>194.0</ele><time>2026-03-22T07:30:21.317Z</time></trkpt><trkpt lat="43.2098703" lon="13.2959103"><ele>194.0</ele><time>2026-03-22T07:48:50.314Z</time></trkpt><trkpt lat="43.209919" lon="13.295967"><ele>194.0</ele><time>2026-03-22T07:49:25.314Z</time></trkpt><trkpt lat="43.2099827" lon="13.2959808"><ele>194.0</ele><time>2026-03-22T07:49:29.314Z</time></trkpt><trkpt lat="43.2100387" lon="13.2959184"><ele>194.0</ele><time>2026-03-22T07:49:33.314Z</time></trkpt><trkpt lat="43.2101035" lon="13.2958922"><ele>194.0</ele><time>2026-03-22T07:49:37.314Z</time></trkpt><trkpt lat="43.2100329" lon="13.2958388"><ele>194.0</ele><time>2026-03-22T08:03:30.314Z</time></trkpt><trkpt lat="43.209948" lon="13.2958043"><ele>194.0</ele><time>2026-03-22T08:03:33.314Z</time></trkpt><trkpt lat="43.2098892" lon="13.2957713"><ele>194.0</ele><time>2026-03-22T08:03:37.314Z</time></trkpt><trkpt lat="43.2098421" lon="13.2958291"><ele>194.00000000000003</ele><time>2026-03-22T08:04:15.314Z</time></trkpt><trkpt lat="43.2097552" lon="13.2958186"><ele>194.0</ele><time>2026-03-22T08:04:29.314Z</time></trkpt><trkpt lat="43.2096757" lon="13.2958197"><ele>194.0</ele><time>2026-03-22T08:04:38.314Z</time></trkpt><trkpt lat="43.2095986" lon="13.2957894"><ele>194.0</ele><time>2026-03-22T08:04:41.314Z</time></trkpt><trkpt lat="43.2095442" lon="13.2956863"><ele>194.00000000000003</ele><time>2026-03-22T08:05:46.314Z</time></trkpt><trkpt lat="43.2095079" lon="13.2955979"><ele>194.0</ele><time>2026-03-22T08:05:48.314Z</time></trkpt><trkpt lat="43.2094849" lon="13.2954783"><ele>194.0</ele><time>2026-03-22T08:05:50.314Z</time></trkpt><trkpt lat="43.2094728" lon="13.2953605"><ele>194.0</ele><time>2026-03-22T08:05:52.314Z</time></trkpt><trkpt lat="43.2094728" lon="13.2952605"><ele>194.0</ele><time>2026-03-22T08:05:54.314Z</time></trkpt><trkpt lat="43.209483" lon="13.295167"><ele>194.0</ele><time>2026-03-22T08:05:57.314Z</time></trkpt><trkpt lat="43.2095111" lon="13.2950724"><ele>194.0</ele><time>2026-03-22T08:06:00.314Z</time></trkpt><trkpt lat="43.2095278" lon="13.2949688"><ele>194.0</ele><time>2026-03-22T08:06:03.314Z</time></trkpt><trkpt lat="43.2094784" lon="13.2949059"><ele>194.0</ele><time>2026-03-22T08:06:07.314Z</time></trkpt><trkpt lat="43.2093663" lon="13.2949051"><ele>194.00000000000003</ele><time>2026-03-22T08:06:09.314Z</time></trkpt><trkpt lat="43.2092959" lon="13.2948851"><ele>194.0</ele><time>2026-03-22T08:06:10.314Z</time></trkpt><trkpt lat="43.2092257" lon="13.2948512"><ele>194.0</ele><time>2026-03-22T08:06:11.314Z</time></trkpt><trkpt lat="43.2091588" lon="13.2948036"><ele>194.0</ele><time>2026-03-22T08:06:12.314Z</time></trkpt><trkpt lat="43.2090978" lon="13.2947411"><ele>194.00000000000003</ele><time>2026-03-22T08:06:13.313Z</time></trkpt><trkpt lat="43.2090431" lon="13.2946634"><ele>194.0</ele><time>2026-03-22T08:06:14.314Z</time></trkpt><trkpt lat="43.208998" lon="13.2945724"><ele>193.50000000000003</ele><time>2026-03-22T08:06:15.314Z</time></trkpt><trkpt lat="43.2089543" lon="13.2944724"><ele>193.0</ele><time>2026-03-22T08:06:16.314Z</time></trkpt><trkpt lat="43.2089102" lon="13.2943669"><ele>192.5</ele><time>2026-03-22T08:06:17.314Z</time></trkpt><trkpt lat="43.2088647" lon="13.294259"><ele>192.0</ele><time>2026-03-22T08:06:18.314Z</time></trkpt><trkpt lat="43.2088181" lon="13.2941499"><ele>191.5</ele><time>2026-03-22T08:06:19.314Z</time></trkpt><trkpt lat="43.2087705" lon="13.2940434"><ele>191.0</ele><time>2026-03-22T08:06:20.314Z</time></trkpt><trkpt lat="43.2087223" lon="13.2939408"><ele>191.0</ele><time>2026-03-22T08:06:21.314Z</time></trkpt><trkpt lat="43.2086777" lon="13.2938391"><ele>191.0</ele><time>2026-03-22T08:06:22.313Z</time></trkpt><trkpt lat="43.2086346" lon="13.2937394"><ele>191.0</ele><time>2026-03-22T08:06:23.314Z</time></trkpt><trkpt lat="43.208592" lon="13.2936445"><ele>191.0</ele><time>2026-03-22T08:06:24.314Z</time></trkpt><trkpt lat="43.2085472" lon="13.2935451"><ele>191.0</ele><time>2026-03-22T08:06:25.314Z</time></trkpt><trkpt lat="43.2084978" lon="13.2934418"><ele>191.0</ele><time>2026-03-22T08:06:26.314Z</time></trkpt><trkpt lat="43.208449" lon="13.2933403"><ele>191.0</ele><time>2026-03-22T08:06:27.314Z</time></trkpt><trkpt lat="43.208403" lon="13.293243"><ele>191.0</ele><time>2026-03-22T08:06:28.314Z</time></trkpt><trkpt lat="43.2083602" lon="13.2931482"><ele>191.0</ele><time>2026-03-22T08:06:29.314Z</time></trkpt><trkpt lat="43.208322" lon="13.2930597"><ele>191.0</ele><time>2026-03-22T08:06:30.314Z</time></trkpt><trkpt lat="43.2082853" lon="13.2929748"><ele>191.0</ele><time>2026-03-22T08:06:31.314Z</time></trkpt><trkpt lat="43.2082517" lon="13.2928921"><ele>191.0</ele><time>2026-03-22T08:06:32.314Z</time></trkpt><trkpt lat="43.20821" lon="13.2927455"><ele>191.4</ele><time>2026-03-22T08:06:34.314Z</time></trkpt><trkpt lat="43.2082543" lon="13.2925879"><ele>191.8</ele><time>2026-03-22T08:06:36.313Z</time></trkpt><trkpt lat="43.2082979" lon="13.292502"><ele>192.20000000000002</ele><time>2026-03-22T08:06:37.314Z</time></trkpt><trkpt lat="43.2083528" lon="13.2924088"><ele>192.60000000000002</ele><time>2026-03-22T08:06:38.314Z</time></trkpt><trkpt lat="43.2084236" lon="13.2923222"><ele>193.0</ele><time>2026-03-22T08:06:39.314Z</time></trkpt><trkpt lat="43.2085055" lon="13.2922479"><ele>193.4</ele><time>2026-03-22T08:06:40.314Z</time></trkpt><trkpt lat="43.208595" lon="13.2921811"><ele>193.8</ele><time>2026-03-22T08:06:41.314Z</time></trkpt><trkpt lat="43.2086825" lon="13.2921238"><ele>194.2</ele><time>2026-03-22T08:06:42.314Z</time></trkpt><trkpt lat="43.2087721" lon="13.2920718"><ele>194.6</ele><time>2026-03-22T08:06:43.314Z</time></trkpt><trkpt lat="43.2088589" lon="13.2920175"><ele>195.0</ele><time>2026-03-22T08:06:44.314Z</time></trkpt><trkpt lat="43.2089444" lon="13.2919605"><ele>195.0</ele><time>2026-03-22T08:06:45.314Z</time></trkpt><trkpt lat="43.2090301" lon="13.291902"><ele>195.0</ele><time>2026-03-22T08:06:46.314Z</time></trkpt><trkpt lat="43.2091105" lon="13.2918506"><ele>195.0</ele><time>2026-03-22T08:06:47.314Z</time></trkpt><trkpt lat="43.2091859" lon="13.2918006"><ele>195.0</ele><time>2026-03-22T08:06:48.314Z</time></trkpt><trkpt lat="43.2092596" lon="13.2917578"><ele>195.0</ele><time>2026-03-22T08:06:49.314Z</time></trkpt><trkpt lat="43.209323" lon="13.291714"><ele>195.0</ele><time>2026-03-22T08:06:50.314Z</time></trkpt><trkpt lat="43.2093726" lon="13.2916599"><ele>195.0</ele><time>2026-03-22T08:06:51.314Z</time></trkpt><trkpt lat="43.2093968" lon="13.2915786"><ele>195.0</ele><time>2026-03-22T08:06:52.314Z</time></trkpt><trkpt lat="43.2093755" lon="13.2914036"><ele>195.0</ele><time>2026-03-22T08:06:54.314Z</time></trkpt><trkpt lat="43.2093455" lon="13.2913162"><ele>195.0</ele><time>2026-03-22T08:06:55.314Z</time></trkpt><trkpt lat="43.2093152" lon="13.2912328"><ele>195.0</ele><time>2026-03-22T08:06:56.314Z</time></trkpt><trkpt lat="43.209284" lon="13.2911561"><ele>195.0</ele><time>2026-03-22T08:06:57.314Z</time></trkpt><trkpt lat="43.209235" lon="13.2910095"><ele>195.4</ele><time>2026-03-22T08:06:59.314Z</time></trkpt><trkpt lat="43.2091966" lon="13.2908831"><ele>195.8</ele><time>2026-03-22T08:07:01.314Z</time></trkpt><trkpt lat="43.2092057" lon="13.2907764"><ele>196.2</ele><time>2026-03-22T08:07:03.314Z</time></trkpt><trkpt lat="43.2092847" lon="13.2906729"><ele>196.6</ele><time>2026-03-22T08:07:05.314Z</time></trkpt><trkpt lat="43.2093535" lon="13.2906162"><ele>197.0</ele><time>2026-03-22T08:07:06.314Z</time></trkpt><trkpt lat="43.2094375" lon="13.2905019"><ele>197.66666666666669</ele><time>2026-03-22T08:07:08.314Z</time></trkpt><trkpt lat="43.2094697" lon="13.2903752"><ele>198.33333333333334</ele><time>2026-03-22T08:07:10.314Z</time></trkpt><trkpt lat="43.2094343" lon="13.2902358"><ele>199.0</ele><time>2026-03-22T08:07:12.314Z</time></trkpt><trkpt lat="43.2094011" lon="13.2901504"><ele>199.66666666666669</ele><time>2026-03-22T08:07:13.314Z</time></trkpt><trkpt lat="43.2093656" lon="13.2900603"><ele>200.33333333333334</ele><time>2026-03-22T08:07:14.314Z</time></trkpt><trkpt lat="43.2093403" lon="13.28997"><ele>201.0</ele><time>2026-03-22T08:07:15.314Z</time></trkpt><trkpt lat="43.2093114" lon="13.2898842"><ele>201.0</ele><time>2026-03-22T08:07:16.314Z</time></trkpt><trkpt lat="43.2092868" lon="13.2897993"><ele>201.0</ele><time>2026-03-22T08:07:17.314Z</time></trkpt><trkpt lat="43.209246" lon="13.2896612"><ele>201.0</ele><time>2026-03-22T08:07:19.314Z</time></trkpt><trkpt lat="43.2092128" lon="13.2895559"><ele>201.0</ele><time>2026-03-22T08:07:21.314Z</time></trkpt><trkpt lat="43.2091968" lon="13.2894377"><ele>201.0</ele><time>2026-03-22T08:07:23.314Z</time></trkpt><trkpt lat="43.2091997" lon="13.2893381"><ele>201.0</ele><time>2026-03-22T08:07:25.314Z</time></trkpt><trkpt lat="43.2091472" lon="13.2892408"><ele>201.0</ele><time>2026-03-22T08:07:27.314Z</time></trkpt><trkpt lat="43.2090064" lon="13.2891205"><ele>201.0</ele><time>2026-03-22T08:07:29.314Z</time></trkpt><trkpt lat="43.2089275" lon="13.2890351"><ele>201.0</ele><time>2026-03-22T08:07:30.314Z</time></trkpt><trkpt lat="43.2088441" lon="13.2889384"><ele>201.0</ele><time>2026-03-22T08:07:31.314Z</time></trkpt><trkpt lat="43.2087701" lon="13.2888481"><ele>201.20000000000002</ele><time>2026-03-22T08:07:32.314Z</time></trkpt><trkpt lat="43.2086887" lon="13.2887717"><ele>201.4</ele><time>2026-03-22T08:07:33.314Z</time></trkpt><trkpt lat="43.2085976" lon="13.2886913"><ele>201.6</ele><time>2026-03-22T08:07:34.314Z</time></trkpt><trkpt lat="43.208515" lon="13.2886001"><ele>201.8</ele><time>2026-03-22T08:07:35.314Z</time></trkpt><trkpt lat="43.2084356" lon="13.2885112"><ele>202.0</ele><time>2026-03-22T08:07:36.314Z</time></trkpt><trkpt lat="43.2083654" lon="13.2884114"><ele>202.0</ele><time>2026-03-22T08:07:37.314Z</time></trkpt><trkpt lat="43.2082932" lon="13.2883215"><ele>202.0</ele><time>2026-03-22T08:07:38.314Z</time></trkpt><trkpt lat="43.2082181" lon="13.2882336"><ele>202.0</ele><time>2026-03-22T08:07:39.314Z</time></trkpt><trkpt lat="43.2081452" lon="13.2881473"><ele>202.0</ele><time>2026-03-22T08:07:40.314Z</time></trkpt><trkpt lat="43.2080737" lon="13.2880626"><ele>202.0</ele><time>2026-03-22T08:07:41.314Z</time></trkpt><trkpt lat="43.2079988" lon="13.2879781"><ele>202.39999999999998</ele><time>2026-03-22T08:07:42.314Z</time></trkpt><trkpt lat="43.2079269" lon="13.287895"><ele>202.79999999999998</ele><time>2026-03-22T08:07:43.314Z</time></trkpt><trkpt lat="43.2078484" lon="13.2878072"><ele>203.2</ele><time>2026-03-22T08:07:44.313Z</time></trkpt><trkpt lat="43.2077729" lon="13.2877199"><ele>203.6</ele><time>2026-03-22T08:07:45.314Z</time></trkpt><trkpt lat="43.2076876" lon="13.2876268"><ele>204.0</ele><time>2026-03-22T08:07:46.314Z</time></trkpt><trkpt lat="43.2076026" lon="13.2875398"><ele>204.0</ele><time>2026-03-22T08:07:47.314Z</time></trkpt><trkpt lat="43.2075223" lon="13.2874486"><ele>204.0</ele><time>2026-03-22T08:07:48.314Z</time></trkpt><trkpt lat="43.2074466" lon="13.287362"><ele>204.0</ele><time>2026-03-22T08:07:49.314Z</time></trkpt><trkpt lat="43.2073692" lon="13.2872803"><ele>204.0</ele><time>2026-03-22T08:07:50.314Z</time></trkpt><trkpt lat="43.2073011" lon="13.2871998"><ele>204.0</ele><time>2026-03-22T08:07:51.314Z</time></trkpt><trkpt lat="43.2072297" lon="13.2871198"><ele>203.79999999999998</ele><time>2026-03-22T08:07:52.314Z</time></trkpt><trkpt lat="43.207153" lon="13.2870394"><ele>203.6</ele><time>2026-03-22T08:07:53.314Z</time></trkpt><trkpt lat="43.2070818" lon="13.2869575"><ele>203.4</ele><time>2026-03-22T08:07:54.313Z</time></trkpt><trkpt lat="43.2070052" lon="13.2868781"><ele>203.2</ele><time>2026-03-22T08:07:55.314Z</time></trkpt><trkpt lat="43.2069318" lon="13.2867999"><ele>203.0</ele><time>2026-03-22T08:07:56.314Z</time></trkpt><trkpt lat="43.2068537" lon="13.2867218"><ele>203.00000000000003</ele><time>2026-03-22T08:07:57.314Z</time></trkpt><trkpt lat="43.2067875" lon="13.2866426"><ele>203.0</ele><time>2026-03-22T08:07:58.314Z</time></trkpt><trkpt lat="43.206735" lon="13.2865536"><ele>203.0</ele><time>2026-03-22T08:07:59.314Z</time></trkpt><trkpt lat="43.2066956" lon="13.2864684"><ele>203.0</ele><time>2026-03-22T08:08:00.314Z</time></trkpt><trkpt lat="43.2066708" lon="13.2863763"><ele>203.00000000000003</ele><time>2026-03-22T08:08:01.314Z</time></trkpt><trkpt lat="43.2066578" lon="13.2862887"><ele>203.0</ele><time>2026-03-22T08:08:02.314Z</time></trkpt><trkpt lat="43.2066655" lon="13.2861761"><ele>203.60000000000002</ele><time>2026-03-22T08:08:04.314Z</time></trkpt><trkpt lat="43.2066904" lon="13.2860611"><ele>204.20000000000002</ele><time>2026-03-22T08:08:06.314Z</time></trkpt><trkpt lat="43.2066754" lon="13.2859723"><ele>204.8</ele><time>2026-03-22T08:08:08.314Z</time></trkpt><trkpt lat="43.2065866" lon="13.2859668"><ele>205.4</ele><time>2026-03-22T08:08:10.314Z</time></trkpt><trkpt lat="43.2064688" lon="13.286012"><ele>206.0</ele><time>2026-03-22T08:08:12.314Z</time></trkpt><trkpt lat="43.2063395" lon="13.2860524"><ele>204.4</ele><time>2026-03-22T08:08:14.314Z</time></trkpt><trkpt lat="43.2062724" lon="13.286078"><ele>202.8</ele><time>2026-03-22T08:08:15.314Z</time></trkpt><trkpt lat="43.2062038" lon="13.2860961"><ele>201.20000000000002</ele><time>2026-03-22T08:08:16.314Z</time></trkpt><trkpt lat="43.2060907" lon="13.2861323"><ele>199.60000000000002</ele><time>2026-03-22T08:08:18.314Z</time></trkpt><trkpt lat="43.2059783" lon="13.286177"><ele>198.0</ele><time>2026-03-22T08:08:20.314Z</time></trkpt><trkpt lat="43.2058609" lon="13.286216"><ele>198.0</ele><time>2026-03-22T08:08:22.314Z</time></trkpt><trkpt lat="43.2057976" lon="13.2862273"><ele>198.0</ele><time>2026-03-22T08:08:23.314Z</time></trkpt><trkpt lat="43.2057262" lon="13.2862468"><ele>198.0</ele><time>2026-03-22T08:08:24.314Z</time></trkpt><trkpt lat="43.2056011" lon="13.2862774"><ele>198.0</ele><time>2026-03-22T08:08:26.314Z</time></trkpt><trkpt lat="43.2055371" lon="13.2862927"><ele>198.0</ele><time>2026-03-22T08:08:27.314Z</time></trkpt><trkpt lat="43.2054725" lon="13.2863158"><ele>198.0</ele><time>2026-03-22T08:08:28.314Z</time></trkpt><trkpt lat="43.2054086" lon="13.2863396"><ele>198.60000000000002</ele><time>2026-03-22T08:08:29.314Z</time></trkpt><trkpt lat="43.2053453" lon="13.2863661"><ele>199.20000000000002</ele><time>2026-03-22T08:08:30.314Z</time></trkpt><trkpt lat="43.2052432" lon="13.2864021"><ele>199.8</ele><time>2026-03-22T08:08:32.314Z</time></trkpt><trkpt lat="43.2051318" lon="13.2864328"><ele>200.4</ele><time>2026-03-22T08:08:34.314Z</time></trkpt><trkpt lat="43.2050238" lon="13.2863642"><ele>201.0</ele><time>2026-03-22T08:08:36.314Z</time></trkpt><trkpt lat="43.204962" lon="13.2862714"><ele>201.0</ele><time>2026-03-22T08:08:37.314Z</time></trkpt><trkpt lat="43.204907" lon="13.2861462"><ele>201.0</ele><time>2026-03-22T08:08:38.314Z</time></trkpt><trkpt lat="43.204851" lon="13.2860055"><ele>201.0</ele><time>2026-03-22T08:08:39.314Z</time></trkpt><trkpt lat="43.2047897" lon="13.285839"><ele>201.0</ele><time>2026-03-22T08:08:40.314Z</time></trkpt><trkpt lat="43.2047337" lon="13.2856746"><ele>203.0</ele><time>2026-03-22T08:08:41.314Z</time></trkpt><trkpt lat="43.2046827" lon="13.2855096"><ele>205.0</ele><time>2026-03-22T08:08:42.314Z</time></trkpt><trkpt lat="43.2046349" lon="13.2853503"><ele>207.0</ele><time>2026-03-22T08:08:43.314Z</time></trkpt><trkpt lat="43.2045952" lon="13.2851987"><ele>209.0</ele><time>2026-03-22T08:08:44.314Z</time></trkpt><trkpt lat="43.2045619" lon="13.2850435"><ele>209.0</ele><time>2026-03-22T08:08:45.314Z</time></trkpt><trkpt lat="43.2045335" lon="13.2848968"><ele>209.0</ele><time>2026-03-22T08:08:46.314Z</time></trkpt><trkpt lat="43.2045173" lon="13.2847402"><ele>209.0</ele><time>2026-03-22T08:08:47.314Z</time></trkpt><trkpt lat="43.2045075" lon="13.2845875"><ele>209.0</ele><time>2026-03-22T08:08:48.314Z</time></trkpt><trkpt lat="43.2045155" lon="13.2844392"><ele>209.0</ele><time>2026-03-22T08:08:49.314Z</time></trkpt><trkpt lat="43.2045348" lon="13.284294"><ele>208.75</ele><time>2026-03-22T08:08:50.314Z</time></trkpt><trkpt lat="43.2045571" lon="13.2841454"><ele>208.5</ele><time>2026-03-22T08:08:51.314Z</time></trkpt><trkpt lat="43.204587" lon="13.2839966"><ele>208.25</ele><time>2026-03-22T08:08:52.314Z</time></trkpt><trkpt lat="43.2046247" lon="13.2838461"><ele>208.0</ele><time>2026-03-22T08:08:53.314Z</time></trkpt><trkpt lat="43.2046692" lon="13.2836994"><ele>207.5</ele><time>2026-03-22T08:08:54.314Z</time></trkpt><trkpt lat="43.2047183" lon="13.2835472"><ele>207.0</ele><time>2026-03-22T08:08:55.314Z</time></trkpt><trkpt lat="43.2047692" lon="13.2834015"><ele>206.5</ele><time>2026-03-22T08:08:56.313Z</time></trkpt><trkpt lat="43.2048202" lon="13.2832501"><ele>206.0</ele><time>2026-03-22T08:08:57.313Z</time></trkpt><trkpt lat="43.2048747" lon="13.2831025"><ele>205.0</ele><time>2026-03-22T08:08:58.314Z</time></trkpt><trkpt lat="43.2049304" lon="13.282954"><ele>204.0</ele><time>2026-03-22T08:08:59.314Z</time></trkpt><trkpt lat="43.204977" lon="13.2828068"><ele>203.0</ele><time>2026-03-22T08:09:00.314Z</time></trkpt><trkpt lat="43.2050232" lon="13.2826613"><ele>202.0</ele><time>2026-03-22T08:09:01.314Z</time></trkpt><trkpt lat="43.2050724" lon="13.2825207"><ele>202.0</ele><time>2026-03-22T08:09:02.314Z</time></trkpt><trkpt lat="43.2051187" lon="13.2823814"><ele>202.0</ele><time>2026-03-22T08:09:03.313Z</time></trkpt><trkpt lat="43.2051636" lon="13.2822397"><ele>202.0</ele><time>2026-03-22T08:09:04.314Z</time></trkpt><trkpt lat="43.2052123" lon="13.2820966"><ele>202.0</ele><time>2026-03-22T08:09:05.314Z</time></trkpt><trkpt lat="43.2052442" lon="13.2819511"><ele>202.0</ele><time>2026-03-22T08:09:06.314Z</time></trkpt><trkpt lat="43.2052762" lon="13.2818002"><ele>202.0</ele><time>2026-03-22T08:09:07.314Z</time></trkpt><trkpt lat="43.2053026" lon="13.2816442"><ele>202.0</ele><time>2026-03-22T08:09:08.314Z</time></trkpt><trkpt lat="43.2053205" lon="13.281486"><ele>202.0</ele><time>2026-03-22T08:09:09.314Z</time></trkpt><trkpt lat="43.2053385" lon="13.2813293"><ele>201.75</ele><time>2026-03-22T08:09:10.314Z</time></trkpt><trkpt lat="43.2053504" lon="13.2811705"><ele>201.5</ele><time>2026-03-22T08:09:11.313Z</time></trkpt><trkpt lat="43.2053612" lon="13.281"><ele>201.25</ele><time>2026-03-22T08:09:12.314Z</time></trkpt><trkpt lat="43.2053706" lon="13.2808274"><ele>201.0</ele><time>2026-03-22T08:09:13.314Z</time></trkpt><trkpt lat="43.2053792" lon="13.2806556"><ele>201.25</ele><time>2026-03-22T08:09:14.314Z</time></trkpt><trkpt lat="43.2053928" lon="13.2804882"><ele>201.5</ele><time>2026-03-22T08:09:15.314Z</time></trkpt><trkpt lat="43.2054031" lon="13.2803148"><ele>201.75</ele><time>2026-03-22T08:09:16.314Z</time></trkpt><trkpt lat="43.2054163" lon="13.2801491"><ele>202.0</ele><time>2026-03-22T08:09:17.314Z</time></trkpt><trkpt lat="43.2054201" lon="13.2799803"><ele>202.0</ele><time>2026-03-22T08:09:18.314Z</time></trkpt><trkpt lat="43.2054285" lon="13.2798184"><ele>202.0</ele><time>2026-03-22T08:09:19.314Z</time></trkpt><trkpt lat="43.2054349" lon="13.2796579"><ele>202.0</ele><time>2026-03-22T08:09:20.314Z</time></trkpt><trkpt lat="43.2054465" lon="13.2794929"><ele>202.0</ele><time>2026-03-22T08:09:21.314Z</time></trkpt><trkpt lat="43.2054532" lon="13.2793247"><ele>202.0</ele><time>2026-03-22T08:09:22.314Z</time></trkpt><trkpt lat="43.2054604" lon="13.2791564"><ele>202.0</ele><time>2026-03-22T08:09:23.314Z</time></trkpt><trkpt lat="43.2054551" lon="13.2789886"><ele>202.0</ele><time>2026-03-22T08:09:24.314Z</time></trkpt><trkpt lat="43.2054334" lon="13.278818"><ele>202.0</ele><time>2026-03-22T08:09:25.314Z</time></trkpt><trkpt lat="43.2054012" lon="13.2786514"><ele>202.25</ele><time>2026-03-22T08:09:26.314Z</time></trkpt><trkpt lat="43.2053605" lon="13.2784835"><ele>202.5</ele><time>2026-03-22T08:09:27.314Z</time></trkpt><trkpt lat="43.205303" lon="13.2783156"><ele>202.75</ele><time>2026-03-22T08:09:28.314Z</time></trkpt><trkpt lat="43.2052403" lon="13.2781477"><ele>203.0</ele><time>2026-03-22T08:09:29.314Z</time></trkpt><trkpt lat="43.2051625" lon="13.2779821"><ele>203.0</ele><time>2026-03-22T08:09:30.314Z</time></trkpt><trkpt lat="43.2050782" lon="13.2778192"><ele>203.0</ele><time>2026-03-22T08:09:31.314Z</time></trkpt><trkpt lat="43.2049894" lon="13.2776685"><ele>203.0</ele><time>2026-03-22T08:09:32.314Z</time></trkpt><trkpt lat="43.204887" lon="13.2775331"><ele>203.0</ele><time>2026-03-22T08:09:33.314Z</time></trkpt><trkpt lat="43.2047827" lon="13.2774137"><ele>203.25</ele><time>2026-03-22T08:09:34.314Z</time></trkpt><trkpt lat="43.2046701" lon="13.2773024"><ele>203.5</ele><time>2026-03-22T08:09:35.314Z</time></trkpt><trkpt lat="43.2045569" lon="13.2771961"><ele>203.75</ele><time>2026-03-22T08:09:36.314Z</time></trkpt><trkpt lat="43.2044389" lon="13.2770907"><ele>204.0</ele><time>2026-03-22T08:09:37.314Z</time></trkpt><trkpt lat="43.2043255" lon="13.2769879"><ele>204.0</ele><time>2026-03-22T08:09:38.314Z</time></trkpt><trkpt lat="43.2042154" lon="13.2769009"><ele>204.0</ele><time>2026-03-22T08:09:39.314Z</time></trkpt><trkpt lat="43.2041075" lon="13.2768162"><ele>204.0</ele><time>2026-03-22T08:09:40.314Z</time></trkpt><trkpt lat="43.2040003" lon="13.2767413"><ele>204.0</ele><time>2026-03-22T08:09:41.314Z</time></trkpt><trkpt lat="43.2038957" lon="13.2766712"><ele>204.25</ele><time>2026-03-22T08:09:42.314Z</time></trkpt><trkpt lat="43.20379" lon="13.2765983"><ele>204.5</ele><time>2026-03-22T08:09:43.314Z</time></trkpt><trkpt lat="43.2036824" lon="13.2765251"><ele>204.75</ele><time>2026-03-22T08:09:44.314Z</time></trkpt><trkpt lat="43.2035761" lon="13.2764453"><ele>205.0</ele><time>2026-03-22T08:09:45.314Z</time></trkpt><trkpt lat="43.2034718" lon="13.2763668"><ele>205.0</ele><time>2026-03-22T08:09:46.314Z</time></trkpt><trkpt lat="43.2033707" lon="13.2762605"><ele>205.0</ele><time>2026-03-22T08:09:47.314Z</time></trkpt><trkpt lat="43.2032739" lon="13.2761452"><ele>205.0</ele><time>2026-03-22T08:09:48.314Z</time></trkpt><trkpt lat="43.2031798" lon="13.2760224"><ele>205.0</ele><time>2026-03-22T08:09:49.314Z</time></trkpt><trkpt lat="43.2030824" lon="13.2759037"><ele>205.5</ele><time>2026-03-22T08:09:50.314Z</time></trkpt><trkpt lat="43.2029781" lon="13.2758053"><ele>206.0</ele><time>2026-03-22T08:09:51.314Z</time></trkpt><trkpt lat="43.2028713" lon="13.275745"><ele>206.5</ele><time>2026-03-22T08:09:52.314Z</time></trkpt><trkpt lat="43.202767" lon="13.2757134"><ele>207.0</ele><time>2026-03-22T08:09:53.313Z</time></trkpt><trkpt lat="43.2026621" lon="13.2757056"><ele>207.0</ele><time>2026-03-22T08:09:54.314Z</time></trkpt><trkpt lat="43.202553" lon="13.2757201"><ele>207.0</ele><time>2026-03-22T08:09:55.314Z</time></trkpt><trkpt lat="43.2024489" lon="13.2757605"><ele>207.0</ele><time>2026-03-22T08:09:56.314Z</time></trkpt><trkpt lat="43.2023416" lon="13.2758203"><ele>207.0</ele><time>2026-03-22T08:09:57.314Z</time></trkpt><trkpt lat="43.2022408" lon="13.275892"><ele>207.0</ele><time>2026-03-22T08:09:58.314Z</time></trkpt><trkpt lat="43.2021272" lon="13.2759865"><ele>207.0</ele><time>2026-03-22T08:09:59.314Z</time></trkpt><trkpt lat="43.2018797" lon="13.2760914"><ele>207.0</ele><time>2026-03-22T08:10:01.314Z</time></trkpt><trkpt lat="43.2017578" lon="13.2761066"><ele>207.0</ele><time>2026-03-22T08:10:02.314Z</time></trkpt><trkpt lat="43.2016349" lon="13.276077"><ele>207.0</ele><time>2026-03-22T08:10:03.314Z</time></trkpt><trkpt lat="43.2015226" lon="13.2760079"><ele>207.0</ele><time>2026-03-22T08:10:04.314Z</time></trkpt><trkpt lat="43.2014174" lon="13.2759059"><ele>207.0</ele><time>2026-03-22T08:10:05.314Z</time></trkpt><trkpt lat="43.2013163" lon="13.2757923"><ele>207.0</ele><time>2026-03-22T08:10:06.314Z</time></trkpt><trkpt lat="43.2012228" lon="13.2756731"><ele>208.5</ele><time>2026-03-22T08:10:07.314Z</time></trkpt><trkpt lat="43.2011274" lon="13.2755606"><ele>210.0</ele><time>2026-03-22T08:10:08.314Z</time></trkpt><trkpt lat="43.2010372" lon="13.2754465"><ele>211.5</ele><time>2026-03-22T08:10:09.314Z</time></trkpt><trkpt lat="43.2009415" lon="13.2753381"><ele>213.0</ele><time>2026-03-22T08:10:10.314Z</time></trkpt><trkpt lat="43.2008431" lon="13.2752291"><ele>213.0</ele><time>2026-03-22T08:10:11.314Z</time></trkpt><trkpt lat="43.2007409" lon="13.2751262"><ele>213.0</ele><time>2026-03-22T08:10:12.314Z</time></trkpt><trkpt lat="43.2006264" lon="13.2750385"><ele>213.0</ele><time>2026-03-22T08:10:13.314Z</time></trkpt><trkpt lat="43.2005098" lon="13.2749591"><ele>213.0</ele><time>2026-03-22T08:10:14.314Z</time></trkpt><trkpt lat="43.200387" lon="13.2748804"><ele>214.0</ele><time>2026-03-22T08:10:15.314Z</time></trkpt><trkpt lat="43.200264" lon="13.2748184"><ele>215.0</ele><time>2026-03-22T08:10:16.314Z</time></trkpt><trkpt lat="43.2001383" lon="13.2747456"><ele>216.0</ele><time>2026-03-22T08:10:17.314Z</time></trkpt><trkpt lat="43.2000149" lon="13.2746817"><ele>217.0</ele><time>2026-03-22T08:10:18.314Z</time></trkpt><trkpt lat="43.1998886" lon="13.2746095"><ele>217.75</ele><time>2026-03-22T08:10:19.313Z</time></trkpt><trkpt lat="43.1997569" lon="13.2745324"><ele>218.5</ele><time>2026-03-22T08:10:20.314Z</time></trkpt><trkpt lat="43.1996206" lon="13.2744488"><ele>219.25</ele><time>2026-03-22T08:10:21.314Z</time></trkpt><trkpt lat="43.1994807" lon="13.2743713"><ele>220.0</ele><time>2026-03-22T08:10:22.314Z</time></trkpt><trkpt lat="43.1993364" lon="13.2742943"><ele>220.0</ele><time>2026-03-22T08:10:23.314Z</time></trkpt><trkpt lat="43.1991922" lon="13.2742146"><ele>220.0</ele><time>2026-03-22T08:10:24.314Z</time></trkpt><trkpt lat="43.1990457" lon="13.2741341"><ele>220.0</ele><time>2026-03-22T08:10:25.314Z</time></trkpt><trkpt lat="43.1988998" lon="13.2740529"><ele>221.0</ele><time>2026-03-22T08:10:26.314Z</time></trkpt><trkpt lat="43.1987519" lon="13.2739726"><ele>222.0</ele><time>2026-03-22T08:10:27.314Z</time></trkpt><trkpt lat="43.1986096" lon="13.2738976"><ele>223.0</ele><time>2026-03-22T08:10:28.314Z</time></trkpt><trkpt lat="43.1984715" lon="13.2738234"><ele>221.0</ele><time>2026-03-22T08:10:29.314Z</time></trkpt><trkpt lat="43.1983416" lon="13.2737426"><ele>219.0</ele><time>2026-03-22T08:10:30.314Z</time></trkpt><trkpt lat="43.1982235" lon="13.2736653"><ele>217.0</ele><time>2026-03-22T08:10:31.314Z</time></trkpt><trkpt lat="43.1980974" lon="13.2735888"><ele>215.0</ele><time>2026-03-22T08:10:32.314Z</time></trkpt><trkpt lat="43.1979699" lon="13.2735174"><ele>215.0</ele><time>2026-03-22T08:10:33.314Z</time></trkpt><trkpt lat="43.197842" lon="13.273448"><ele>215.0</ele><time>2026-03-22T08:10:34.314Z</time></trkpt><trkpt lat="43.1977046" lon="13.2733843"><ele>215.0</ele><time>2026-03-22T08:10:35.314Z</time></trkpt><trkpt lat="43.1975686" lon="13.2733339"><ele>215.0</ele><time>2026-03-22T08:10:36.314Z</time></trkpt><trkpt lat="43.1974273" lon="13.2732925"><ele>214.25</ele><time>2026-03-22T08:10:37.314Z</time></trkpt><trkpt lat="43.1972814" lon="13.2732616"><ele>213.5</ele><time>2026-03-22T08:10:38.314Z</time></trkpt><trkpt lat="43.1971342" lon="13.2732438"><ele>212.75</ele><time>2026-03-22T08:10:39.314Z</time></trkpt><trkpt lat="43.1969851" lon="13.2732486"><ele>212.0</ele><time>2026-03-22T08:10:40.314Z</time></trkpt><trkpt lat="43.1968368" lon="13.2732656"><ele>212.0</ele><time>2026-03-22T08:10:41.314Z</time></trkpt><trkpt lat="43.1966818" lon="13.2733035"><ele>212.0</ele><time>2026-03-22T08:10:42.314Z</time></trkpt><trkpt lat="43.1965318" lon="13.2733543"><ele>212.0</ele><time>2026-03-22T08:10:43.314Z</time></trkpt><trkpt lat="43.1963827" lon="13.2734058"><ele>211.33333333333334</ele><time>2026-03-22T08:10:44.314Z</time></trkpt><trkpt lat="43.1962354" lon="13.2734613"><ele>210.66666666666669</ele><time>2026-03-22T08:10:45.314Z</time></trkpt><trkpt lat="43.1960827" lon="13.273517"><ele>210.0</ele><time>2026-03-22T08:10:46.314Z</time></trkpt><trkpt lat="43.1959292" lon="13.2735706"><ele>210.0</ele><time>2026-03-22T08:10:47.314Z</time></trkpt><trkpt lat="43.1957806" lon="13.2736131"><ele>210.0</ele><time>2026-03-22T08:10:48.314Z</time></trkpt><trkpt lat="43.1956353" lon="13.2736399"><ele>210.0</ele><time>2026-03-22T08:10:49.314Z</time></trkpt><trkpt lat="43.1954795" lon="13.2736508"><ele>211.0</ele><time>2026-03-22T08:10:50.314Z</time></trkpt><trkpt lat="43.1953238" lon="13.2736458"><ele>212.0</ele><time>2026-03-22T08:10:51.314Z</time></trkpt><trkpt lat="43.1951685" lon="13.2736316"><ele>213.0</ele><time>2026-03-22T08:10:52.314Z</time></trkpt><trkpt lat="43.1950149" lon="13.2736094"><ele>213.0</ele><time>2026-03-22T08:10:53.314Z</time></trkpt><trkpt lat="43.1948564" lon="13.2735879"><ele>213.0</ele><time>2026-03-22T08:10:54.314Z</time></trkpt><trkpt lat="43.1947035" lon="13.2735728"><ele>213.0</ele><time>2026-03-22T08:10:55.314Z</time></trkpt><trkpt lat="43.1945559" lon="13.2735462"><ele>213.25</ele><time>2026-03-22T08:10:56.313Z</time></trkpt><trkpt lat="43.1944073" lon="13.2735292"><ele>213.5</ele><time>2026-03-22T08:10:57.314Z</time></trkpt><trkpt lat="43.1942538" lon="13.2735093"><ele>213.75</ele><time>2026-03-22T08:10:58.314Z</time></trkpt><trkpt lat="43.1941087" lon="13.2734922"><ele>214.0</ele><time>2026-03-22T08:10:59.314Z</time></trkpt><trkpt lat="43.1939738" lon="13.2734786"><ele>214.5</ele><time>2026-03-22T08:11:00.314Z</time></trkpt><trkpt lat="43.1938473" lon="13.2734607"><ele>215.0</ele><time>2026-03-22T08:11:01.314Z</time></trkpt><trkpt lat="43.1937249" lon="13.2734509"><ele>215.5</ele><time>2026-03-22T08:11:02.313Z</time></trkpt><trkpt lat="43.193602" lon="13.2734356"><ele>216.0</ele><time>2026-03-22T08:11:03.314Z</time></trkpt><trkpt lat="43.1934746" lon="13.2734253"><ele>216.0</ele><time>2026-03-22T08:11:04.314Z</time></trkpt><trkpt lat="43.1933484" lon="13.2734126"><ele>216.0</ele><time>2026-03-22T08:11:05.314Z</time></trkpt><trkpt lat="43.1932221" lon="13.2734054"><ele>216.0</ele><time>2026-03-22T08:11:06.314Z</time></trkpt><trkpt lat="43.1930912" lon="13.2734051"><ele>216.0</ele><time>2026-03-22T08:11:07.314Z</time></trkpt><trkpt lat="43.1929631" lon="13.2734147"><ele>216.5</ele><time>2026-03-22T08:11:08.314Z</time></trkpt><trkpt lat="43.1928303" lon="13.2734351"><ele>217.0</ele><time>2026-03-22T08:11:09.314Z</time></trkpt><trkpt lat="43.192698" lon="13.2734697"><ele>217.5</ele><time>2026-03-22T08:11:10.314Z</time></trkpt><trkpt lat="43.1925625" lon="13.273509"><ele>218.0</ele><time>2026-03-22T08:11:11.313Z</time></trkpt><trkpt lat="43.1924257" lon="13.2735471"><ele>219.0</ele><time>2026-03-22T08:11:12.314Z</time></trkpt><trkpt lat="43.1922935" lon="13.2735915"><ele>220.0</ele><time>2026-03-22T08:11:13.314Z</time></trkpt><trkpt lat="43.1921639" lon="13.2736318"><ele>221.0</ele><time>2026-03-22T08:11:14.313Z</time></trkpt><trkpt lat="43.19204" lon="13.2736813"><ele>222.0</ele><time>2026-03-22T08:11:15.314Z</time></trkpt><trkpt lat="43.1919092" lon="13.2737271"><ele>222.0</ele><time>2026-03-22T08:11:16.314Z</time></trkpt><trkpt lat="43.191779" lon="13.273775"><ele>222.0</ele><time>2026-03-22T08:11:17.314Z</time></trkpt><trkpt lat="43.1916496" lon="13.2738212"><ele>222.0</ele><time>2026-03-22T08:11:18.314Z</time></trkpt><trkpt lat="43.1915194" lon="13.2738661"><ele>222.0</ele><time>2026-03-22T08:11:19.314Z</time></trkpt><trkpt lat="43.191388" lon="13.2739089"><ele>224.75</ele><time>2026-03-22T08:11:20.314Z</time></trkpt><trkpt lat="43.191255" lon="13.2739601"><ele>227.5</ele><time>2026-03-22T08:11:21.314Z</time></trkpt><trkpt lat="43.1911196" lon="13.2740079"><ele>230.25</ele><time>2026-03-22T08:11:22.314Z</time></trkpt><trkpt lat="43.1909792" lon="13.2740597"><ele>233.0</ele><time>2026-03-22T08:11:23.314Z</time></trkpt><trkpt lat="43.190838" lon="13.274111"><ele>233.0</ele><time>2026-03-22T08:11:24.314Z</time></trkpt><trkpt lat="43.1906976" lon="13.274157"><ele>233.0</ele><time>2026-03-22T08:11:25.314Z</time></trkpt><trkpt lat="43.1905613" lon="13.2742113"><ele>233.0</ele><time>2026-03-22T08:11:26.314Z</time></trkpt><trkpt lat="43.1904369" lon="13.2742592"><ele>233.0</ele><time>2026-03-22T08:11:27.314Z</time></trkpt><trkpt lat="43.1903118" lon="13.2743043"><ele>232.25</ele><time>2026-03-22T08:11:28.314Z</time></trkpt><trkpt lat="43.1901815" lon="13.2743489"><ele>231.5</ele><time>2026-03-22T08:11:29.314Z</time></trkpt><trkpt lat="43.1900529" lon="13.2743935"><ele>230.75</ele><time>2026-03-22T08:11:30.314Z</time></trkpt><trkpt lat="43.1899154" lon="13.2744255"><ele>230.0</ele><time>2026-03-22T08:11:31.314Z</time></trkpt><trkpt lat="43.1897734" lon="13.2744633"><ele>229.25</ele><time>2026-03-22T08:11:32.313Z</time></trkpt><trkpt lat="43.1896371" lon="13.2745001"><ele>228.5</ele><time>2026-03-22T08:11:33.314Z</time></trkpt><trkpt lat="43.1895031" lon="13.2745564"><ele>227.75</ele><time>2026-03-22T08:11:34.313Z</time></trkpt><trkpt lat="43.1893787" lon="13.2746181"><ele>227.0</ele><time>2026-03-22T08:11:35.314Z</time></trkpt><trkpt lat="43.189261" lon="13.2746801"><ele>227.0</ele><time>2026-03-22T08:11:36.314Z</time></trkpt><trkpt lat="43.1891391" lon="13.2747421"><ele>227.0</ele><time>2026-03-22T08:11:37.314Z</time></trkpt><trkpt lat="43.189027" lon="13.274799"><ele>227.0</ele><time>2026-03-22T08:11:38.313Z</time></trkpt><trkpt lat="43.1889051" lon="13.2748448"><ele>227.0</ele><time>2026-03-22T08:11:39.314Z</time></trkpt><trkpt lat="43.1887756" lon="13.2748749"><ele>229.75</ele><time>2026-03-22T08:11:40.314Z</time></trkpt><trkpt lat="43.1886469" lon="13.2748946"><ele>232.5</ele><time>2026-03-22T08:11:41.314Z</time></trkpt><trkpt lat="43.1885207" lon="13.2749019"><ele>235.25</ele><time>2026-03-22T08:11:42.314Z</time></trkpt><trkpt lat="43.1883999" lon="13.2749032"><ele>238.0</ele><time>2026-03-22T08:11:43.313Z</time></trkpt><trkpt lat="43.188288" lon="13.2749031"><ele>237.99999999999997</ele><time>2026-03-22T08:11:44.314Z</time></trkpt><trkpt lat="43.1881927" lon="13.2748968"><ele>238.0</ele><time>2026-03-22T08:11:45.314Z</time></trkpt><trkpt lat="43.18811" lon="13.2748837"><ele>238.0</ele><time>2026-03-22T08:11:46.314Z</time></trkpt><trkpt lat="43.1880326" lon="13.2748657"><ele>238.0</ele><time>2026-03-22T08:11:47.314Z</time></trkpt><trkpt lat="43.1879536" lon="13.2748372"><ele>237.99999999999997</ele><time>2026-03-22T08:11:48.314Z</time></trkpt><trkpt lat="43.187874" lon="13.274796"><ele>238.0</ele><time>2026-03-22T08:11:49.314Z</time></trkpt><trkpt lat="43.1877765" lon="13.2747484"><ele>234.25</ele><time>2026-03-22T08:11:50.314Z</time></trkpt><trkpt lat="43.1876705" lon="13.2746911"><ele>230.5</ele><time>2026-03-22T08:11:51.314Z</time></trkpt><trkpt lat="43.1875653" lon="13.2746252"><ele>226.75</ele><time>2026-03-22T08:11:52.314Z</time></trkpt><trkpt lat="43.1874597" lon="13.2745586"><ele>223.0</ele><time>2026-03-22T08:11:53.314Z</time></trkpt><trkpt lat="43.1873625" lon="13.2744966"><ele>223.8</ele><time>2026-03-22T08:11:54.314Z</time></trkpt><trkpt lat="43.1872687" lon="13.2744453"><ele>224.60000000000002</ele><time>2026-03-22T08:11:55.314Z</time></trkpt><trkpt lat="43.1871716" lon="13.274402"><ele>225.39999999999998</ele><time>2026-03-22T08:11:56.313Z</time></trkpt><trkpt lat="43.1870785" lon="13.2743703"><ele>226.2</ele><time>2026-03-22T08:11:57.314Z</time></trkpt><trkpt lat="43.1869803" lon="13.274336"><ele>227.0</ele><time>2026-03-22T08:11:58.314Z</time></trkpt><trkpt lat="43.1868843" lon="13.2743043"><ele>227.0</ele><time>2026-03-22T08:11:59.314Z</time></trkpt><trkpt lat="43.1867903" lon="13.2742748"><ele>227.0</ele><time>2026-03-22T08:12:00.314Z</time></trkpt><trkpt lat="43.1866977" lon="13.2742542"><ele>227.0</ele><time>2026-03-22T08:12:01.314Z</time></trkpt><trkpt lat="43.1866097" lon="13.2742256"><ele>227.0</ele><time>2026-03-22T08:12:02.314Z</time></trkpt><trkpt lat="43.1865138" lon="13.2741938"><ele>227.0</ele><time>2026-03-22T08:12:03.314Z</time></trkpt><trkpt lat="43.1864289" lon="13.2741524"><ele>227.39999999999998</ele><time>2026-03-22T08:12:04.314Z</time></trkpt><trkpt lat="43.1863415" lon="13.2741149"><ele>227.79999999999998</ele><time>2026-03-22T08:12:05.314Z</time></trkpt><trkpt lat="43.1862524" lon="13.2740713"><ele>228.2</ele><time>2026-03-22T08:12:06.314Z</time></trkpt><trkpt lat="43.1861645" lon="13.274033"><ele>228.6</ele><time>2026-03-22T08:12:07.314Z</time></trkpt><trkpt lat="43.1860737" lon="13.2739826"><ele>229.0</ele><time>2026-03-22T08:12:08.314Z</time></trkpt><trkpt lat="43.1859844" lon="13.2739317"><ele>229.79999999999998</ele><time>2026-03-22T08:12:09.314Z</time></trkpt><trkpt lat="43.185888" lon="13.2738782"><ele>230.59999999999997</ele><time>2026-03-22T08:12:10.314Z</time></trkpt><trkpt lat="43.1857959" lon="13.2738352"><ele>231.4</ele><time>2026-03-22T08:12:11.314Z</time></trkpt><trkpt lat="43.1856873" lon="13.2737607"><ele>232.2</ele><time>2026-03-22T08:12:12.314Z</time></trkpt><trkpt lat="43.1856234" lon="13.2736919"><ele>233.0</ele><time>2026-03-22T08:12:13.314Z</time></trkpt><trkpt lat="43.1855462" lon="13.2736282"><ele>233.00000000000003</ele><time>2026-03-22T08:12:14.314Z</time></trkpt><trkpt lat="43.1854807" lon="13.2735674"><ele>233.0</ele><time>2026-03-22T08:12:15.314Z</time></trkpt><trkpt lat="43.1854037" lon="13.2735243"><ele>233.0</ele><time>2026-03-22T08:12:16.314Z</time></trkpt><trkpt lat="43.1853288" lon="13.2735103"><ele>233.0</ele><time>2026-03-22T08:12:17.314Z</time></trkpt><trkpt lat="43.1852507" lon="13.2735311"><ele>233.00000000000003</ele><time>2026-03-22T08:12:18.314Z</time></trkpt><trkpt lat="43.1851725" lon="13.2735827"><ele>233.0</ele><time>2026-03-22T08:12:19.314Z</time></trkpt><trkpt lat="43.1851021" lon="13.2736588"><ele>233.0</ele><time>2026-03-22T08:12:20.313Z</time></trkpt><trkpt lat="43.1850261" lon="13.2737481"><ele>233.0</ele><time>2026-03-22T08:12:21.314Z</time></trkpt><trkpt lat="43.1849395" lon="13.2738523"><ele>233.0</ele><time>2026-03-22T08:12:22.314Z</time></trkpt><trkpt lat="43.1848297" lon="13.2739568"><ele>233.0</ele><time>2026-03-22T08:12:23.314Z</time></trkpt><trkpt lat="43.1847248" lon="13.2740667"><ele>235.0</ele><time>2026-03-22T08:12:24.314Z</time></trkpt><trkpt lat="43.1845974" lon="13.2741669"><ele>237.0</ele><time>2026-03-22T08:12:25.314Z</time></trkpt><trkpt lat="43.1844755" lon="13.2742789"><ele>239.0</ele><time>2026-03-22T08:12:26.314Z</time></trkpt><trkpt lat="43.1843665" lon="13.274404"><ele>241.0</ele><time>2026-03-22T08:12:27.314Z</time></trkpt><trkpt lat="43.1842759" lon="13.2745329"><ele>241.0</ele><time>2026-03-22T08:12:28.314Z</time></trkpt><trkpt lat="43.1841995" lon="13.274636"><ele>241.00000000000003</ele><time>2026-03-22T08:12:29.314Z</time></trkpt><trkpt lat="43.1841154" lon="13.2747299"><ele>241.00000000000003</ele><time>2026-03-22T08:12:30.314Z</time></trkpt><trkpt lat="43.1840241" lon="13.2748038"><ele>241.0</ele><time>2026-03-22T08:12:31.314Z</time></trkpt><trkpt lat="43.1839216" lon="13.2748562"><ele>241.0</ele><time>2026-03-22T08:12:32.314Z</time></trkpt><trkpt lat="43.1838047" lon="13.274881"><ele>240.25</ele><time>2026-03-22T08:12:33.314Z</time></trkpt><trkpt lat="43.1836868" lon="13.2748822"><ele>239.5</ele><time>2026-03-22T08:12:34.314Z</time></trkpt><trkpt lat="43.1835727" lon="13.2748797"><ele>238.75</ele><time>2026-03-22T08:12:35.314Z</time></trkpt><trkpt lat="43.183454" lon="13.2748811"><ele>238.0</ele><time>2026-03-22T08:12:36.314Z</time></trkpt><trkpt lat="43.1833474" lon="13.2748978"><ele>238.0</ele><time>2026-03-22T08:12:37.314Z</time></trkpt><trkpt lat="43.183242" lon="13.2749408"><ele>238.0</ele><time>2026-03-22T08:12:38.314Z</time></trkpt><trkpt lat="43.1831359" lon="13.275012"><ele>238.0</ele><time>2026-03-22T08:12:39.314Z</time></trkpt><trkpt lat="43.1830234" lon="13.2751105"><ele>238.0</ele><time>2026-03-22T08:12:40.314Z</time></trkpt><trkpt lat="43.1829061" lon="13.2752173"><ele>241.0</ele><time>2026-03-22T08:12:41.313Z</time></trkpt><trkpt lat="43.1827827" lon="13.275337"><ele>244.0</ele><time>2026-03-22T08:12:42.314Z</time></trkpt><trkpt lat="43.1826521" lon="13.275455"><ele>247.0</ele><time>2026-03-22T08:12:43.313Z</time></trkpt><trkpt lat="43.1825174" lon="13.2755692"><ele>245.75</ele><time>2026-03-22T08:12:44.314Z</time></trkpt><trkpt lat="43.1823855" lon="13.275673"><ele>244.5</ele><time>2026-03-22T08:12:45.314Z</time></trkpt><trkpt lat="43.1822582" lon="13.2757717"><ele>243.25</ele><time>2026-03-22T08:12:46.314Z</time></trkpt><trkpt lat="43.1821364" lon="13.2758745"><ele>242.0</ele><time>2026-03-22T08:12:47.314Z</time></trkpt><trkpt lat="43.182017" lon="13.2759706"><ele>242.0</ele><time>2026-03-22T08:12:48.314Z</time></trkpt><trkpt lat="43.1819039" lon="13.2760692"><ele>242.0</ele><time>2026-03-22T08:12:49.314Z</time></trkpt><trkpt lat="43.1817908" lon="13.2761648"><ele>242.0</ele><time>2026-03-22T08:12:50.314Z</time></trkpt><trkpt lat="43.1816762" lon="13.27625"><ele>242.0</ele><time>2026-03-22T08:12:51.314Z</time></trkpt><trkpt lat="43.1815661" lon="13.276332"><ele>243.0</ele><time>2026-03-22T08:12:52.314Z</time></trkpt><trkpt lat="43.181456" lon="13.2764125"><ele>244.0</ele><time>2026-03-22T08:12:53.314Z</time></trkpt><trkpt lat="43.1813427" lon="13.2764955"><ele>245.0</ele><time>2026-03-22T08:12:54.314Z</time></trkpt><trkpt lat="43.181242" lon="13.2765799"><ele>246.0</ele><time>2026-03-22T08:12:55.314Z</time></trkpt><trkpt lat="43.1811517" lon="13.2766855"><ele>246.0</ele><time>2026-03-22T08:12:56.314Z</time></trkpt><trkpt lat="43.1810913" lon="13.2768155"><ele>246.0</ele><time>2026-03-22T08:12:57.314Z</time></trkpt><trkpt lat="43.1810436" lon="13.2769615"><ele>246.0</ele><time>2026-03-22T08:12:58.314Z</time></trkpt><trkpt lat="43.1809941" lon="13.2771149"><ele>246.0</ele><time>2026-03-22T08:12:59.314Z</time></trkpt><trkpt lat="43.1809346" lon="13.2772727"><ele>244.25</ele><time>2026-03-22T08:13:00.314Z</time></trkpt><trkpt lat="43.1808668" lon="13.2774263"><ele>242.5</ele><time>2026-03-22T08:13:01.314Z</time></trkpt><trkpt lat="43.1807943" lon="13.2775658"><ele>240.75</ele><time>2026-03-22T08:13:02.314Z</time></trkpt><trkpt lat="43.1807228" lon="13.2777033"><ele>239.0</ele><time>2026-03-22T08:13:03.314Z</time></trkpt><trkpt lat="43.1806493" lon="13.2778461"><ele>239.0</ele><time>2026-03-22T08:13:04.314Z</time></trkpt><trkpt lat="43.1805647" lon="13.277992"><ele>239.0</ele><time>2026-03-22T08:13:05.313Z</time></trkpt><trkpt lat="43.1804759" lon="13.2781366"><ele>239.0</ele><time>2026-03-22T08:13:06.314Z</time></trkpt><trkpt lat="43.1803851" lon="13.2782779"><ele>239.0</ele><time>2026-03-22T08:13:07.314Z</time></trkpt><trkpt lat="43.1802835" lon="13.2784143"><ele>239.0</ele><time>2026-03-22T08:13:08.314Z</time></trkpt><trkpt lat="43.1801777" lon="13.2785534"><ele>239.0</ele><time>2026-03-22T08:13:09.314Z</time></trkpt><trkpt lat="43.180073" lon="13.2787023"><ele>239.0</ele><time>2026-03-22T08:13:10.314Z</time></trkpt><trkpt lat="43.1799677" lon="13.2788533"><ele>240.0</ele><time>2026-03-22T08:13:11.314Z</time></trkpt><trkpt lat="43.1798635" lon="13.279001"><ele>241.0</ele><time>2026-03-22T08:13:12.314Z</time></trkpt><trkpt lat="43.1797585" lon="13.2791575"><ele>242.0</ele><time>2026-03-22T08:13:13.313Z</time></trkpt><trkpt lat="43.1796532" lon="13.2793131"><ele>242.0</ele><time>2026-03-22T08:13:14.314Z</time></trkpt><trkpt lat="43.1795425" lon="13.2794815"><ele>242.0</ele><time>2026-03-22T08:13:15.314Z</time></trkpt><trkpt lat="43.1794339" lon="13.2796497"><ele>242.0</ele><time>2026-03-22T08:13:16.314Z</time></trkpt><trkpt lat="43.1793342" lon="13.2798263"><ele>239.33333333333334</ele><time>2026-03-22T08:13:17.314Z</time></trkpt><trkpt lat="43.1792298" lon="13.2800029"><ele>236.66666666666669</ele><time>2026-03-22T08:13:18.314Z</time></trkpt><trkpt lat="43.1791288" lon="13.2801734"><ele>234.0</ele><time>2026-03-22T08:13:19.314Z</time></trkpt><trkpt lat="43.1790386" lon="13.2803181"><ele>236.0</ele><time>2026-03-22T08:13:20.314Z</time></trkpt><trkpt lat="43.1789667" lon="13.2804348"><ele>237.99999999999997</ele><time>2026-03-22T08:13:21.313Z</time></trkpt><trkpt lat="43.1789077" lon="13.2805277"><ele>239.99999999999997</ele><time>2026-03-22T08:13:22.314Z</time></trkpt><trkpt lat="43.1788435" lon="13.2806171"><ele>242.0</ele><time>2026-03-22T08:13:23.314Z</time></trkpt><trkpt lat="43.178764" lon="13.2806913"><ele>244.0</ele><time>2026-03-22T08:13:24.314Z</time></trkpt><trkpt lat="43.1786776" lon="13.2807561"><ele>244.0</ele><time>2026-03-22T08:13:25.314Z</time></trkpt><trkpt lat="43.1785905" lon="13.2808168"><ele>243.99999999999997</ele><time>2026-03-22T08:13:26.314Z</time></trkpt><trkpt lat="43.1785046" lon="13.2808805"><ele>243.99999999999997</ele><time>2026-03-22T08:13:27.314Z</time></trkpt><trkpt lat="43.1784189" lon="13.2809564"><ele>244.0</ele><time>2026-03-22T08:13:28.313Z</time></trkpt><trkpt lat="43.1783528" lon="13.2810552"><ele>244.0</ele><time>2026-03-22T08:13:29.313Z</time></trkpt><trkpt lat="43.1782882" lon="13.2811644"><ele>244.0</ele><time>2026-03-22T08:13:30.314Z</time></trkpt><trkpt lat="43.178222" lon="13.2812729"><ele>243.99999999999997</ele><time>2026-03-22T08:13:31.314Z</time></trkpt><trkpt lat="43.1781549" lon="13.2813835"><ele>243.99999999999997</ele><time>2026-03-22T08:13:32.314Z</time></trkpt><trkpt lat="43.1780847" lon="13.2814718"><ele>244.0</ele><time>2026-03-22T08:13:33.314Z</time></trkpt><trkpt lat="43.1779936" lon="13.2815388"><ele>244.0</ele><time>2026-03-22T08:13:34.314Z</time></trkpt><trkpt lat="43.1778953" lon="13.2815798"><ele>244.49999999999997</ele><time>2026-03-22T08:13:35.314Z</time></trkpt><trkpt lat="43.1778014" lon="13.2816019"><ele>245.0</ele><time>2026-03-22T08:13:36.314Z</time></trkpt><trkpt lat="43.1777239" lon="13.2816044"><ele>245.5</ele><time>2026-03-22T08:13:37.314Z</time></trkpt><trkpt lat="43.1776361" lon="13.2816033"><ele>246.0</ele><time>2026-03-22T08:13:38.313Z</time></trkpt><trkpt lat="43.1775566" lon="13.2816272"><ele>246.49999999999997</ele><time>2026-03-22T08:13:39.314Z</time></trkpt><trkpt lat="43.1774775" lon="13.2816733"><ele>247.0</ele><time>2026-03-22T08:13:40.314Z</time></trkpt><trkpt lat="43.1774076" lon="13.2817479"><ele>251.0</ele><time>2026-03-22T08:13:41.314Z</time></trkpt><trkpt lat="43.1773403" lon="13.2818338"><ele>255.0</ele><time>2026-03-22T08:13:42.314Z</time></trkpt><trkpt lat="43.1772679" lon="13.2819321"><ele>259.0</ele><time>2026-03-22T08:13:43.314Z</time></trkpt><trkpt lat="43.1771966" lon="13.2820354"><ele>263.0</ele><time>2026-03-22T08:13:44.314Z</time></trkpt><trkpt lat="43.1771335" lon="13.2821368"><ele>267.0</ele><time>2026-03-22T08:13:45.314Z</time></trkpt><trkpt lat="43.1770663" lon="13.2822308"><ele>264.8333333333333</ele><time>2026-03-22T08:13:46.314Z</time></trkpt><trkpt lat="43.1770014" lon="13.2823314"><ele>262.6666666666667</ele><time>2026-03-22T08:13:47.314Z</time></trkpt><trkpt lat="43.1769403" lon="13.2824187"><ele>260.5</ele><time>2026-03-22T08:13:48.314Z</time></trkpt><trkpt lat="43.1768783" lon="13.2824887"><ele>258.33333333333337</ele><time>2026-03-22T08:13:49.314Z</time></trkpt><trkpt lat="43.1768168" lon="13.2825422"><ele>256.1666666666667</ele><time>2026-03-22T08:13:50.314Z</time></trkpt><trkpt lat="43.1767395" lon="13.282559"><ele>254.0</ele><time>2026-03-22T08:13:51.314Z</time></trkpt><trkpt lat="43.1766561" lon="13.28255"><ele>254.0</ele><time>2026-03-22T08:13:52.314Z</time></trkpt><trkpt lat="43.1765654" lon="13.2825059"><ele>253.99999999999997</ele><time>2026-03-22T08:13:53.314Z</time></trkpt><trkpt lat="43.1764677" lon="13.2824614"><ele>253.99999999999997</ele><time>2026-03-22T08:13:54.314Z</time></trkpt><trkpt lat="43.176371" lon="13.2824158"><ele>254.0</ele><time>2026-03-22T08:13:55.314Z</time></trkpt><trkpt lat="43.1762702" lon="13.2823702"><ele>254.0</ele><time>2026-03-22T08:13:56.314Z</time></trkpt><trkpt lat="43.176171" lon="13.282339"><ele>254.2</ele><time>2026-03-22T08:13:57.314Z</time></trkpt><trkpt lat="43.1760646" lon="13.2823233"><ele>254.39999999999998</ele><time>2026-03-22T08:13:58.314Z</time></trkpt><trkpt lat="43.1759578" lon="13.2823285"><ele>254.6</ele><time>2026-03-22T08:13:59.314Z</time></trkpt><trkpt lat="43.1758503" lon="13.2823518"><ele>254.8</ele><time>2026-03-22T08:14:00.314Z</time></trkpt><trkpt lat="43.1757442" lon="13.2823939"><ele>255.0</ele><time>2026-03-22T08:14:01.314Z</time></trkpt><trkpt lat="43.175638" lon="13.2824462"><ele>258.25</ele><time>2026-03-22T08:14:02.314Z</time></trkpt><trkpt lat="43.1755297" lon="13.2825121"><ele>261.5</ele><time>2026-03-22T08:14:03.314Z</time></trkpt><trkpt lat="43.1754236" lon="13.2825859"><ele>264.75</ele><time>2026-03-22T08:14:04.314Z</time></trkpt><trkpt lat="43.1753194" lon="13.282668"><ele>268.0</ele><time>2026-03-22T08:14:05.314Z</time></trkpt><trkpt lat="43.175224" lon="13.2827599"><ele>268.0</ele><time>2026-03-22T08:14:06.314Z</time></trkpt><trkpt lat="43.1751307" lon="13.2828609"><ele>268.0</ele><time>2026-03-22T08:14:07.314Z</time></trkpt><trkpt lat="43.1750582" lon="13.2829527"><ele>268.0</ele><time>2026-03-22T08:14:08.314Z</time></trkpt><trkpt lat="43.1749779" lon="13.2830142"><ele>268.0</ele><time>2026-03-22T08:14:09.314Z</time></trkpt><trkpt lat="43.1748902" lon="13.2830546"><ele>268.0</ele><time>2026-03-22T08:14:10.314Z</time></trkpt><trkpt lat="43.1747845" lon="13.2830719"><ele>267.2</ele><time>2026-03-22T08:14:11.314Z</time></trkpt><trkpt lat="43.1746785" lon="13.2830523"><ele>266.4</ele><time>2026-03-22T08:14:12.314Z</time></trkpt><trkpt lat="43.1745617" lon="13.2830789"><ele>265.59999999999997</ele><time>2026-03-22T08:14:13.314Z</time></trkpt><trkpt lat="43.1744546" lon="13.2831071"><ele>264.8</ele><time>2026-03-22T08:14:14.314Z</time></trkpt><trkpt lat="43.1743733" lon="13.2831863"><ele>264.0</ele><time>2026-03-22T08:14:15.314Z</time></trkpt><trkpt lat="43.1742936" lon="13.2832694"><ele>264.0</ele><time>2026-03-22T08:14:16.314Z</time></trkpt><trkpt lat="43.1742146" lon="13.2833534"><ele>264.0</ele><time>2026-03-22T08:14:17.314Z</time></trkpt><trkpt lat="43.1741251" lon="13.2833971"><ele>264.0</ele><time>2026-03-22T08:14:18.313Z</time></trkpt><trkpt lat="43.1740262" lon="13.2834245"><ele>264.0</ele><time>2026-03-22T08:14:19.313Z</time></trkpt><trkpt lat="43.1739189" lon="13.2834167"><ele>264.0</ele><time>2026-03-22T08:14:20.314Z</time></trkpt><trkpt lat="43.1738182" lon="13.2833794"><ele>265.8</ele><time>2026-03-22T08:14:21.314Z</time></trkpt><trkpt lat="43.1737273" lon="13.2833216"><ele>267.59999999999997</ele><time>2026-03-22T08:14:22.314Z</time></trkpt><trkpt lat="43.1736249" lon="13.2832792"><ele>269.4</ele><time>2026-03-22T08:14:23.314Z</time></trkpt><trkpt lat="43.1735315" lon="13.2832656"><ele>271.2</ele><time>2026-03-22T08:14:24.314Z</time></trkpt><trkpt lat="43.1734372" lon="13.2832705"><ele>273.0</ele><time>2026-03-22T08:14:25.313Z</time></trkpt><trkpt lat="43.1733338" lon="13.283287"><ele>273.0</ele><time>2026-03-22T08:14:26.314Z</time></trkpt><trkpt lat="43.1732369" lon="13.2833047"><ele>273.0</ele><time>2026-03-22T08:14:27.314Z</time></trkpt><trkpt lat="43.1731403" lon="13.2833342"><ele>273.0</ele><time>2026-03-22T08:14:28.314Z</time></trkpt><trkpt lat="43.1730517" lon="13.2833843"><ele>273.0</ele><time>2026-03-22T08:14:29.314Z</time></trkpt><trkpt lat="43.1729737" lon="13.2834575"><ele>273.0</ele><time>2026-03-22T08:14:30.314Z</time></trkpt><trkpt lat="43.1729207" lon="13.2835593"><ele>272.5</ele><time>2026-03-22T08:14:31.314Z</time></trkpt><trkpt lat="43.1728832" lon="13.2836602"><ele>272.0</ele><time>2026-03-22T08:14:32.314Z</time></trkpt><trkpt lat="43.1728508" lon="13.283777"><ele>271.5</ele><time>2026-03-22T08:14:33.314Z</time></trkpt><trkpt lat="43.1728143" lon="13.2838835"><ele>271.0</ele><time>2026-03-22T08:14:34.314Z</time></trkpt><trkpt lat="43.1727723" lon="13.2839662"><ele>270.5</ele><time>2026-03-22T08:14:35.314Z</time></trkpt><trkpt lat="43.172711" lon="13.2840286"><ele>270.0</ele><time>2026-03-22T08:14:36.314Z</time></trkpt><trkpt lat="43.1726388" lon="13.2840832"><ele>270.0</ele><time>2026-03-22T08:14:37.314Z</time></trkpt><trkpt lat="43.1725326" lon="13.2841031"><ele>270.0</ele><time>2026-03-22T08:14:38.314Z</time></trkpt><trkpt lat="43.172436" lon="13.2841182"><ele>270.0</ele><time>2026-03-22T08:14:39.314Z</time></trkpt><trkpt lat="43.1723374" lon="13.2841528"><ele>270.0</ele><time>2026-03-22T08:14:40.314Z</time></trkpt><trkpt lat="43.1722395" lon="13.2842241"><ele>270.0</ele><time>2026-03-22T08:14:41.314Z</time></trkpt><trkpt lat="43.1721452" lon="13.2843107"><ele>271.4</ele><time>2026-03-22T08:14:42.314Z</time></trkpt><trkpt lat="43.1720577" lon="13.284413"><ele>272.8</ele><time>2026-03-22T08:14:43.314Z</time></trkpt><trkpt lat="43.1719704" lon="13.2845131"><ele>274.2</ele><time>2026-03-22T08:14:44.314Z</time></trkpt><trkpt lat="43.1718683" lon="13.284581"><ele>275.6</ele><time>2026-03-22T08:14:45.313Z</time></trkpt><trkpt lat="43.1717744" lon="13.2846448"><ele>277.0</ele><time>2026-03-22T08:14:46.314Z</time></trkpt><trkpt lat="43.1716943" lon="13.2847312"><ele>276.0</ele><time>2026-03-22T08:14:47.314Z</time></trkpt><trkpt lat="43.171633" lon="13.2848386"><ele>275.0</ele><time>2026-03-22T08:14:48.314Z</time></trkpt><trkpt lat="43.1715737" lon="13.2849614"><ele>274.0</ele><time>2026-03-22T08:14:49.314Z</time></trkpt><trkpt lat="43.1715217" lon="13.2850812"><ele>273.0</ele><time>2026-03-22T08:14:50.314Z</time></trkpt><trkpt lat="43.1714736" lon="13.2851996"><ele>272.0</ele><time>2026-03-22T08:14:51.314Z</time></trkpt><trkpt lat="43.1714185" lon="13.285319"><ele>272.0</ele><time>2026-03-22T08:14:52.314Z</time></trkpt><trkpt lat="43.1713631" lon="13.2854228"><ele>272.0</ele><time>2026-03-22T08:14:53.314Z</time></trkpt><trkpt lat="43.1713001" lon="13.2855052"><ele>272.0</ele><time>2026-03-22T08:14:54.314Z</time></trkpt><trkpt lat="43.1712213" lon="13.2855672"><ele>272.0</ele><time>2026-03-22T08:14:55.314Z</time></trkpt><trkpt lat="43.1711333" lon="13.2855903"><ele>272.0</ele><time>2026-03-22T08:14:56.314Z</time></trkpt><trkpt lat="43.1710322" lon="13.2855892"><ele>272.0</ele><time>2026-03-22T08:14:57.314Z</time></trkpt><trkpt lat="43.1709235" lon="13.2855722"><ele>272.0</ele><time>2026-03-22T08:14:58.314Z</time></trkpt><trkpt lat="43.1708044" lon="13.2855505"><ele>272.0</ele><time>2026-03-22T08:14:59.314Z</time></trkpt><trkpt lat="43.1706952" lon="13.2855037"><ele>272.0</ele><time>2026-03-22T08:15:00.314Z</time></trkpt><trkpt lat="43.1705823" lon="13.2854676"><ele>272.25</ele><time>2026-03-22T08:15:01.314Z</time></trkpt><trkpt lat="43.1704626" lon="13.2854324"><ele>272.5</ele><time>2026-03-22T08:15:02.314Z</time></trkpt><trkpt lat="43.1703452" lon="13.2853965"><ele>272.75</ele><time>2026-03-22T08:15:03.314Z</time></trkpt><trkpt lat="43.1702252" lon="13.2853675"><ele>273.0</ele><time>2026-03-22T08:15:04.314Z</time></trkpt><trkpt lat="43.1701047" lon="13.2853391"><ele>273.0</ele><time>2026-03-22T08:15:05.314Z</time></trkpt><trkpt lat="43.1699874" lon="13.2853105"><ele>273.0</ele><time>2026-03-22T08:15:06.314Z</time></trkpt><trkpt lat="43.1698855" lon="13.2852748"><ele>273.0</ele><time>2026-03-22T08:15:07.314Z</time></trkpt><trkpt lat="43.1697844" lon="13.2852369"><ele>273.0</ele><time>2026-03-22T08:15:08.314Z</time></trkpt><trkpt lat="43.1696859" lon="13.2852069"><ele>273.0</ele><time>2026-03-22T08:15:09.314Z</time></trkpt><trkpt lat="43.1695863" lon="13.2851833"><ele>271.8</ele><time>2026-03-22T08:15:10.314Z</time></trkpt><trkpt lat="43.169489" lon="13.2851814"><ele>270.6</ele><time>2026-03-22T08:15:11.314Z</time></trkpt><trkpt lat="43.1693881" lon="13.2852053"><ele>269.4</ele><time>2026-03-22T08:15:12.314Z</time></trkpt><trkpt lat="43.1692867" lon="13.2852585"><ele>268.2</ele><time>2026-03-22T08:15:13.314Z</time></trkpt><trkpt lat="43.1691892" lon="13.2853172"><ele>267.0</ele><time>2026-03-22T08:15:14.313Z</time></trkpt><trkpt lat="43.1691072" lon="13.2853806"><ele>267.0</ele><time>2026-03-22T08:15:15.314Z</time></trkpt><trkpt lat="43.1690429" lon="13.2854284"><ele>267.0</ele><time>2026-03-22T08:15:16.314Z</time></trkpt><trkpt lat="43.1689412" lon="13.2855109"><ele>267.0</ele><time>2026-03-22T08:15:18.314Z</time></trkpt><trkpt lat="43.1688101" lon="13.2855508"><ele>267.0</ele><time>2026-03-22T08:15:20.314Z</time></trkpt><trkpt lat="43.1687383" lon="13.2855443"><ele>267.0</ele><time>2026-03-22T08:15:21.314Z</time></trkpt><trkpt lat="43.1686539" lon="13.2854831"><ele>266.5</ele><time>2026-03-22T08:15:22.314Z</time></trkpt><trkpt lat="43.1685729" lon="13.2854375"><ele>266.0</ele><time>2026-03-22T08:15:23.314Z</time></trkpt><trkpt lat="43.16849" lon="13.2853817"><ele>265.5</ele><time>2026-03-22T08:15:24.314Z</time></trkpt><trkpt lat="43.1684079" lon="13.2853585"><ele>265.0</ele><time>2026-03-22T08:15:25.313Z</time></trkpt><trkpt lat="43.168328" lon="13.2853482"><ele>264.5</ele><time>2026-03-22T08:15:26.314Z</time></trkpt><trkpt lat="43.1682591" lon="13.2853836"><ele>264.0</ele><time>2026-03-22T08:15:27.314Z</time></trkpt><trkpt lat="43.1681927" lon="13.2854145"><ele>263.59999999999997</ele><time>2026-03-22T08:15:28.314Z</time></trkpt><trkpt lat="43.1681739" lon="13.2855038"><ele>263.2</ele><time>2026-03-22T08:15:29.314Z</time></trkpt><trkpt lat="43.1681551" lon="13.2855877"><ele>262.79999999999995</ele><time>2026-03-22T08:15:30.314Z</time></trkpt><trkpt lat="43.1681836" lon="13.2857282"><ele>262.4</ele><time>2026-03-22T08:15:31.314Z</time></trkpt><trkpt lat="43.1682019" lon="13.2858774"><ele>262.0</ele><time>2026-03-22T08:15:32.314Z</time></trkpt><trkpt lat="43.1682183" lon="13.2860271"><ele>261.5</ele><time>2026-03-22T08:15:33.314Z</time></trkpt><trkpt lat="43.1682469" lon="13.2861708"><ele>261.0</ele><time>2026-03-22T08:15:34.314Z</time></trkpt><trkpt lat="43.1682666" lon="13.2863228"><ele>260.5</ele><time>2026-03-22T08:15:35.314Z</time></trkpt><trkpt lat="43.1683047" lon="13.2864817"><ele>260.0</ele><time>2026-03-22T08:15:36.314Z</time></trkpt><trkpt lat="43.1683541" lon="13.2866169"><ele>260.6666666666667</ele><time>2026-03-22T08:15:37.314Z</time></trkpt><trkpt lat="43.1684028" lon="13.2867203"><ele>261.33333333333337</ele><time>2026-03-22T08:15:38.313Z</time></trkpt><trkpt lat="43.1684372" lon="13.2868102"><ele>262.0</ele><time>2026-03-22T08:15:39.314Z</time></trkpt><trkpt lat="43.1684517" lon="13.2869004"><ele>262.6666666666667</ele><time>2026-03-22T08:15:40.314Z</time></trkpt><trkpt lat="43.1684446" lon="13.2870083"><ele>263.3333333333333</ele><time>2026-03-22T08:15:41.313Z</time></trkpt><trkpt lat="43.1684248" lon="13.2871395"><ele>264.0</ele><time>2026-03-22T08:15:42.314Z</time></trkpt><trkpt lat="43.1684022" lon="13.2872738"><ele>264.2</ele><time>2026-03-22T08:15:43.314Z</time></trkpt><trkpt lat="43.1683884" lon="13.2873981"><ele>264.4</ele><time>2026-03-22T08:15:44.314Z</time></trkpt><trkpt lat="43.168358" lon="13.2875337"><ele>264.6</ele><time>2026-03-22T08:15:45.314Z</time></trkpt><trkpt lat="43.168319" lon="13.2876685"><ele>264.8</ele><time>2026-03-22T08:15:46.313Z</time></trkpt><trkpt lat="43.1682774" lon="13.2877854"><ele>265.0</ele><time>2026-03-22T08:15:47.314Z</time></trkpt><trkpt lat="43.1682304" lon="13.2878947"><ele>266.66666666666663</ele><time>2026-03-22T08:15:48.314Z</time></trkpt><trkpt lat="43.1681896" lon="13.287987"><ele>268.3333333333333</ele><time>2026-03-22T08:15:49.314Z</time></trkpt><trkpt lat="43.1681564" lon="13.288066"><ele>270.0</ele><time>2026-03-22T08:15:50.314Z</time></trkpt><trkpt lat="43.1681275" lon="13.2881445"><ele>271.6666666666667</ele><time>2026-03-22T08:15:51.314Z</time></trkpt><trkpt lat="43.1680235" lon="13.2882189"><ele>273.33333333333337</ele><time>2026-03-22T08:15:53.313Z</time></trkpt><trkpt lat="43.1679369" lon="13.2881346"><ele>275.0</ele><time>2026-03-22T08:15:55.314Z</time></trkpt><trkpt lat="43.1678918" lon="13.288063"><ele>276.1666666666667</ele><time>2026-03-22T08:15:56.314Z</time></trkpt><trkpt lat="43.1678381" lon="13.2879678"><ele>277.33333333333337</ele><time>2026-03-22T08:15:57.314Z</time></trkpt><trkpt lat="43.1677902" lon="13.2878806"><ele>278.5</ele><time>2026-03-22T08:15:58.314Z</time></trkpt><trkpt lat="43.1677406" lon="13.2877782"><ele>279.6666666666667</ele><time>2026-03-22T08:15:59.314Z</time></trkpt><trkpt lat="43.1676877" lon="13.2876721"><ele>280.8333333333333</ele><time>2026-03-22T08:16:00.314Z</time></trkpt><trkpt lat="43.1676383" lon="13.2875738"><ele>282.0</ele><time>2026-03-22T08:16:01.314Z</time></trkpt><trkpt lat="43.1675931" lon="13.2874863"><ele>282.0</ele><time>2026-03-22T08:16:02.314Z</time></trkpt><trkpt lat="43.1675557" lon="13.2874085"><ele>282.0</ele><time>2026-03-22T08:16:03.314Z</time></trkpt><trkpt lat="43.1675265" lon="13.2872336"><ele>282.0</ele><time>2026-03-22T08:16:05.314Z</time></trkpt><trkpt lat="43.1675361" lon="13.2871384"><ele>282.0</ele><time>2026-03-22T08:16:06.314Z</time></trkpt><trkpt lat="43.1675738" lon="13.2870071"><ele>282.0</ele><time>2026-03-22T08:16:08.313Z</time></trkpt><trkpt lat="43.1676063" lon="13.2868764"><ele>282.5</ele><time>2026-03-22T08:16:10.314Z</time></trkpt><trkpt lat="43.1675471" lon="13.2868146"><ele>283.0</ele><time>2026-03-22T08:16:12.314Z</time></trkpt><trkpt lat="43.1674517" lon="13.2868752"><ele>283.5</ele><time>2026-03-22T08:16:14.314Z</time></trkpt><trkpt lat="43.1673981" lon="13.2869455"><ele>284.0</ele><time>2026-03-22T08:16:15.314Z</time></trkpt><trkpt lat="43.1673302" lon="13.2870461"><ele>284.5</ele><time>2026-03-22T08:16:16.314Z</time></trkpt><trkpt lat="43.1672686" lon="13.2871411"><ele>285.0</ele><time>2026-03-22T08:16:17.313Z</time></trkpt><trkpt lat="43.167208" lon="13.2872243"><ele>287.6</ele><time>2026-03-22T08:16:18.313Z</time></trkpt><trkpt lat="43.1671444" lon="13.2873046"><ele>290.2</ele><time>2026-03-22T08:16:19.314Z</time></trkpt><trkpt lat="43.1670715" lon="13.2873837"><ele>292.8</ele><time>2026-03-22T08:16:20.314Z</time></trkpt><trkpt lat="43.1670008" lon="13.2874629"><ele>295.4</ele><time>2026-03-22T08:16:21.314Z</time></trkpt><trkpt lat="43.1669168" lon="13.28753"><ele>298.0</ele><time>2026-03-22T08:16:22.314Z</time></trkpt><trkpt lat="43.1668219" lon="13.2875952"><ele>298.0</ele><time>2026-03-22T08:16:23.314Z</time></trkpt><trkpt lat="43.1667244" lon="13.2876542"><ele>298.0</ele><time>2026-03-22T08:16:24.314Z</time></trkpt><trkpt lat="43.1666265" lon="13.2876992"><ele>298.0</ele><time>2026-03-22T08:16:25.314Z</time></trkpt><trkpt lat="43.1665401" lon="13.2877338"><ele>298.0</ele><time>2026-03-22T08:16:26.314Z</time></trkpt><trkpt lat="43.1664497" lon="13.2877542"><ele>298.0</ele><time>2026-03-22T08:16:27.314Z</time></trkpt><trkpt lat="43.1663638" lon="13.2877523"><ele>299.75</ele><time>2026-03-22T08:16:28.314Z</time></trkpt><trkpt lat="43.1662642" lon="13.2877249"><ele>301.5</ele><time>2026-03-22T08:16:29.314Z</time></trkpt><trkpt lat="43.1661574" lon="13.2876854"><ele>303.25</ele><time>2026-03-22T08:16:30.314Z</time></trkpt><trkpt lat="43.1660463" lon="13.2876422"><ele>305.0</ele><time>2026-03-22T08:16:31.314Z</time></trkpt><trkpt lat="43.1659212" lon="13.2875943"><ele>305.0</ele><time>2026-03-22T08:16:32.314Z</time></trkpt><trkpt lat="43.1657961" lon="13.2875398"><ele>305.0</ele><time>2026-03-22T08:16:33.314Z</time></trkpt><trkpt lat="43.1656532" lon="13.2875158"><ele>305.0</ele><time>2026-03-22T08:16:34.314Z</time></trkpt><trkpt lat="43.1655144" lon="13.2874991"><ele>305.0</ele><time>2026-03-22T08:16:35.313Z</time></trkpt><trkpt lat="43.165378" lon="13.2874932"><ele>306.25</ele><time>2026-03-22T08:16:36.314Z</time></trkpt><trkpt lat="43.165254" lon="13.2874879"><ele>307.5</ele><time>2026-03-22T08:16:37.314Z</time></trkpt><trkpt lat="43.1651216" lon="13.2874842"><ele>308.75</ele><time>2026-03-22T08:16:38.314Z</time></trkpt><trkpt lat="43.1650029" lon="13.2874778"><ele>310.0</ele><time>2026-03-22T08:16:39.314Z</time></trkpt><trkpt lat="43.164893" lon="13.2874817"><ele>309.8333333333333</ele><time>2026-03-22T08:16:40.314Z</time></trkpt><trkpt lat="43.164803" lon="13.2874666"><ele>309.66666666666663</ele><time>2026-03-22T08:16:41.313Z</time></trkpt><trkpt lat="43.1647205" lon="13.2874725"><ele>309.5</ele><time>2026-03-22T08:16:42.314Z</time></trkpt><trkpt lat="43.1646364" lon="13.2874976"><ele>309.3333333333333</ele><time>2026-03-22T08:16:43.314Z</time></trkpt><trkpt lat="43.1645626" lon="13.2875667"><ele>309.1666666666667</ele><time>2026-03-22T08:16:44.314Z</time></trkpt><trkpt lat="43.16449" lon="13.2876487"><ele>309.0</ele><time>2026-03-22T08:16:45.314Z</time></trkpt><trkpt lat="43.1644111" lon="13.2877645"><ele>309.0</ele><time>2026-03-22T08:16:46.314Z</time></trkpt><trkpt lat="43.1643329" lon="13.2878561"><ele>309.0</ele><time>2026-03-22T08:16:47.314Z</time></trkpt><trkpt lat="43.1642462" lon="13.2879345"><ele>309.0</ele><time>2026-03-22T08:16:48.314Z</time></trkpt><trkpt lat="43.1641445" lon="13.2879956"><ele>309.0</ele><time>2026-03-22T08:16:49.314Z</time></trkpt><trkpt lat="43.1640402" lon="13.2880415"><ele>309.0</ele><time>2026-03-22T08:16:50.314Z</time></trkpt><trkpt lat="43.1639296" lon="13.2880746"><ele>312.75</ele><time>2026-03-22T08:16:51.314Z</time></trkpt><trkpt lat="43.1638107" lon="13.2881194"><ele>316.5</ele><time>2026-03-22T08:16:52.314Z</time></trkpt><trkpt lat="43.1636929" lon="13.2881793"><ele>320.25</ele><time>2026-03-22T08:16:53.314Z</time></trkpt><trkpt lat="43.1635732" lon="13.2882585"><ele>324.0</ele><time>2026-03-22T08:16:54.313Z</time></trkpt><trkpt lat="43.1634705" lon="13.2883294"><ele>324.0</ele><time>2026-03-22T08:16:55.314Z</time></trkpt><trkpt lat="43.1633696" lon="13.2883872"><ele>324.0</ele><time>2026-03-22T08:16:56.313Z</time></trkpt><trkpt lat="43.1632789" lon="13.288418"><ele>324.0</ele><time>2026-03-22T08:16:57.314Z</time></trkpt><trkpt lat="43.1631971" lon="13.2884026"><ele>324.0</ele><time>2026-03-22T08:16:58.314Z</time></trkpt><trkpt lat="43.1631165" lon="13.28835"><ele>324.0</ele><time>2026-03-22T08:16:59.314Z</time></trkpt><trkpt lat="43.1630483" lon="13.2882818"><ele>325.6</ele><time>2026-03-22T08:17:00.314Z</time></trkpt><trkpt lat="43.1629834" lon="13.2882193"><ele>327.2</ele><time>2026-03-22T08:17:01.314Z</time></trkpt><trkpt lat="43.1629265" lon="13.2881822"><ele>328.8</ele><time>2026-03-22T08:17:02.314Z</time></trkpt><trkpt lat="43.1628084" lon="13.2881321"><ele>330.40000000000003</ele><time>2026-03-22T08:17:04.313Z</time></trkpt><trkpt lat="43.1627223" lon="13.2881321"><ele>332.0</ele><time>2026-03-22T08:17:05.314Z</time></trkpt><trkpt lat="43.1626134" lon="13.2881495"><ele>332.0</ele><time>2026-03-22T08:17:06.314Z</time></trkpt><trkpt lat="43.1625013" lon="13.2881581"><ele>332.0</ele><time>2026-03-22T08:17:07.314Z</time></trkpt><trkpt lat="43.1623856" lon="13.2881654"><ele>332.0</ele><time>2026-03-22T08:17:08.313Z</time></trkpt><trkpt lat="43.1622582" lon="13.288161"><ele>332.0</ele><time>2026-03-22T08:17:09.314Z</time></trkpt><trkpt lat="43.162129" lon="13.2881618"><ele>334.5</ele><time>2026-03-22T08:17:10.314Z</time></trkpt><trkpt lat="43.1620088" lon="13.2881724"><ele>337.0</ele><time>2026-03-22T08:17:11.314Z</time></trkpt><trkpt lat="43.1618891" lon="13.2881835"><ele>339.5</ele><time>2026-03-22T08:17:12.314Z</time></trkpt><trkpt lat="43.1617756" lon="13.2881857"><ele>342.0</ele><time>2026-03-22T08:17:13.314Z</time></trkpt><trkpt lat="43.1616635" lon="13.288183"><ele>342.0</ele><time>2026-03-22T08:17:14.314Z</time></trkpt><trkpt lat="43.1615541" lon="13.2881609"><ele>342.0</ele><time>2026-03-22T08:17:15.314Z</time></trkpt><trkpt lat="43.1614428" lon="13.2881367"><ele>342.0</ele><time>2026-03-22T08:17:16.314Z</time></trkpt><trkpt lat="43.1613264" lon="13.2881056"><ele>342.0</ele><time>2026-03-22T08:17:17.314Z</time></trkpt><trkpt lat="43.1612084" lon="13.2880692"><ele>342.0</ele><time>2026-03-22T08:17:18.314Z</time></trkpt><trkpt lat="43.1610857" lon="13.2880445"><ele>342.0</ele><time>2026-03-22T08:17:19.314Z</time></trkpt><trkpt lat="43.1609724" lon="13.2880229"><ele>342.0</ele><time>2026-03-22T08:17:20.314Z</time></trkpt><trkpt lat="43.1608651" lon="13.2880039"><ele>342.0</ele><time>2026-03-22T08:17:21.313Z</time></trkpt><trkpt lat="43.1607638" lon="13.2879826"><ele>342.0</ele><time>2026-03-22T08:17:22.314Z</time></trkpt><trkpt lat="43.160661" lon="13.28796"><ele>342.8</ele><time>2026-03-22T08:17:23.314Z</time></trkpt><trkpt lat="43.1605566" lon="13.2879352"><ele>343.6</ele><time>2026-03-22T08:17:24.313Z</time></trkpt><trkpt lat="43.1604604" lon="13.2879203"><ele>344.40000000000003</ele><time>2026-03-22T08:17:25.314Z</time></trkpt><trkpt lat="43.1603602" lon="13.2878949"><ele>345.20000000000005</ele><time>2026-03-22T08:17:26.314Z</time></trkpt><trkpt lat="43.1602603" lon="13.2878649"><ele>346.0</ele><time>2026-03-22T08:17:27.314Z</time></trkpt><trkpt lat="43.1601584" lon="13.2878344"><ele>346.0</ele><time>2026-03-22T08:17:28.314Z</time></trkpt><trkpt lat="43.1600587" lon="13.2877994"><ele>346.0</ele><time>2026-03-22T08:17:29.314Z</time></trkpt><trkpt lat="43.1599525" lon="13.2877584"><ele>346.0</ele><time>2026-03-22T08:17:30.314Z</time></trkpt><trkpt lat="43.1598472" lon="13.2877097"><ele>346.0</ele><time>2026-03-22T08:17:31.313Z</time></trkpt><trkpt lat="43.1597307" lon="13.2876495"><ele>346.0</ele><time>2026-03-22T08:17:32.314Z</time></trkpt><trkpt lat="43.1596154" lon="13.2875776"><ele>345.25</ele><time>2026-03-22T08:17:33.313Z</time></trkpt><trkpt lat="43.1595015" lon="13.2875048"><ele>344.5</ele><time>2026-03-22T08:17:34.314Z</time></trkpt><trkpt lat="43.1593849" lon="13.2874323"><ele>343.75</ele><time>2026-03-22T08:17:35.314Z</time></trkpt><trkpt lat="43.1592787" lon="13.2873646"><ele>343.0</ele><time>2026-03-22T08:17:36.314Z</time></trkpt><trkpt lat="43.1591715" lon="13.2872997"><ele>343.59999999999997</ele><time>2026-03-22T08:17:37.314Z</time></trkpt><trkpt lat="43.1590742" lon="13.287238"><ele>344.2</ele><time>2026-03-22T08:17:38.314Z</time></trkpt><trkpt lat="43.1589867" lon="13.2871727"><ele>344.8</ele><time>2026-03-22T08:17:39.314Z</time></trkpt><trkpt lat="43.1589093" lon="13.2871198"><ele>345.4</ele><time>2026-03-22T08:17:40.314Z</time></trkpt><trkpt lat="43.1588396" lon="13.287068"><ele>346.0</ele><time>2026-03-22T08:17:41.314Z</time></trkpt><trkpt lat="43.1587713" lon="13.2870065"><ele>347.7142857142857</ele><time>2026-03-22T08:17:42.314Z</time></trkpt><trkpt lat="43.158705" lon="13.286947"><ele>349.42857142857144</ele><time>2026-03-22T08:17:43.314Z</time></trkpt><trkpt lat="43.1586533" lon="13.2868879"><ele>351.14285714285717</ele><time>2026-03-22T08:17:44.314Z</time></trkpt><trkpt lat="43.1586159" lon="13.2868141"><ele>352.8571428571429</ele><time>2026-03-22T08:17:45.314Z</time></trkpt><trkpt lat="43.1585928" lon="13.2867328"><ele>354.57142857142856</ele><time>2026-03-22T08:17:46.314Z</time></trkpt><trkpt lat="43.1585887" lon="13.2866352"><ele>356.28571428571433</ele><time>2026-03-22T08:17:47.314Z</time></trkpt><trkpt lat="43.1585876" lon="13.2865423"><ele>358.0</ele><time>2026-03-22T08:17:48.314Z</time></trkpt><trkpt lat="43.1586042" lon="13.2864506"><ele>360.66666666666663</ele><time>2026-03-22T08:17:49.314Z</time></trkpt><trkpt lat="43.1586045" lon="13.2863486"><ele>363.3333333333333</ele><time>2026-03-22T08:17:50.313Z</time></trkpt><trkpt lat="43.1586048" lon="13.2862429"><ele>366.0</ele><time>2026-03-22T08:17:51.314Z</time></trkpt><trkpt lat="43.1585885" lon="13.2861432"><ele>368.6666666666667</ele><time>2026-03-22T08:17:52.314Z</time></trkpt><trkpt lat="43.1585632" lon="13.2860106"><ele>371.33333333333337</ele><time>2026-03-22T08:17:54.314Z</time></trkpt><trkpt lat="43.1584975" lon="13.2859234"><ele>374.0</ele><time>2026-03-22T08:17:56.314Z</time></trkpt><trkpt lat="43.158411" lon="13.2859832"><ele>374.0</ele><time>2026-03-22T08:17:58.314Z</time></trkpt><trkpt lat="43.1583653" lon="13.2860439"><ele>374.0</ele><time>2026-03-22T08:17:59.314Z</time></trkpt><trkpt lat="43.1583276" lon="13.2861157"><ele>374.0</ele><time>2026-03-22T08:18:00.314Z</time></trkpt><trkpt lat="43.1582328" lon="13.2862049"><ele>374.0</ele><time>2026-03-22T08:18:02.314Z</time></trkpt><trkpt lat="43.1581145" lon="13.2861803"><ele>374.0</ele><time>2026-03-22T08:18:04.314Z</time></trkpt><trkpt lat="43.1580487" lon="13.2861167"><ele>374.0</ele><time>2026-03-22T08:18:05.314Z</time></trkpt><trkpt lat="43.1579673" lon="13.2860167"><ele>374.2</ele><time>2026-03-22T08:18:06.314Z</time></trkpt><trkpt lat="43.1578938" lon="13.2859421"><ele>374.4</ele><time>2026-03-22T08:18:07.314Z</time></trkpt><trkpt lat="43.1578232" lon="13.2858589"><ele>374.6</ele><time>2026-03-22T08:18:08.314Z</time></trkpt><trkpt lat="43.1577492" lon="13.285772"><ele>374.8</ele><time>2026-03-22T08:18:09.314Z</time></trkpt><trkpt lat="43.1576798" lon="13.2856708"><ele>375.0</ele><time>2026-03-22T08:18:10.314Z</time></trkpt><trkpt lat="43.1576088" lon="13.2855605"><ele>375.2</ele><time>2026-03-22T08:18:11.314Z</time></trkpt><trkpt lat="43.1575388" lon="13.2854451"><ele>375.4</ele><time>2026-03-22T08:18:12.314Z</time></trkpt><trkpt lat="43.1574652" lon="13.2853276"><ele>375.6</ele><time>2026-03-22T08:18:13.313Z</time></trkpt><trkpt lat="43.1573916" lon="13.2852187"><ele>375.8</ele><time>2026-03-22T08:18:14.314Z</time></trkpt><trkpt lat="43.1573209" lon="13.2851233"><ele>376.0</ele><time>2026-03-22T08:18:15.314Z</time></trkpt><trkpt lat="43.1572471" lon="13.2850316"><ele>375.5</ele><time>2026-03-22T08:18:16.314Z</time></trkpt><trkpt lat="43.1571984" lon="13.2849586"><ele>375.0</ele><time>2026-03-22T08:18:17.314Z</time></trkpt><trkpt lat="43.1571391" lon="13.2848787"><ele>374.5</ele><time>2026-03-22T08:18:18.313Z</time></trkpt><trkpt lat="43.1570866" lon="13.2848098"><ele>374.0</ele><time>2026-03-22T08:18:19.314Z</time></trkpt><trkpt lat="43.1570215" lon="13.2847471"><ele>373.5</ele><time>2026-03-22T08:18:20.314Z</time></trkpt><trkpt lat="43.1569633" lon="13.2846737"><ele>373.0</ele><time>2026-03-22T08:18:21.314Z</time></trkpt><trkpt lat="43.1569053" lon="13.2846039"><ele>374.8333333333333</ele><time>2026-03-22T08:18:22.314Z</time></trkpt><trkpt lat="43.1568453" lon="13.2845402"><ele>376.66666666666663</ele><time>2026-03-22T08:18:23.314Z</time></trkpt><trkpt lat="43.156774" lon="13.2844878"><ele>378.5</ele><time>2026-03-22T08:18:24.314Z</time></trkpt><trkpt lat="43.1567001" lon="13.2844532"><ele>380.3333333333333</ele><time>2026-03-22T08:18:25.314Z</time></trkpt><trkpt lat="43.1566207" lon="13.2844286"><ele>382.1666666666667</ele><time>2026-03-22T08:18:26.314Z</time></trkpt><trkpt lat="43.1565499" lon="13.2844182"><ele>384.0</ele><time>2026-03-22T08:18:27.314Z</time></trkpt><trkpt lat="43.1564754" lon="13.2844091"><ele>384.5</ele><time>2026-03-22T08:18:28.314Z</time></trkpt><trkpt lat="43.1564046" lon="13.2844009"><ele>385.0</ele><time>2026-03-22T08:18:29.314Z</time></trkpt><trkpt lat="43.1563326" lon="13.2843769"><ele>385.5</ele><time>2026-03-22T08:18:30.314Z</time></trkpt><trkpt lat="43.1562527" lon="13.284378"><ele>386.0</ele><time>2026-03-22T08:18:31.314Z</time></trkpt><trkpt lat="43.1561818" lon="13.2843878"><ele>386.5</ele><time>2026-03-22T08:18:32.314Z</time></trkpt><trkpt lat="43.1560984" lon="13.2844139"><ele>387.0</ele><time>2026-03-22T08:18:33.314Z</time></trkpt><trkpt lat="43.1560232" lon="13.2844643"><ele>387.0</ele><time>2026-03-22T08:18:34.314Z</time></trkpt><trkpt lat="43.1559514" lon="13.2845302"><ele>387.0</ele><time>2026-03-22T08:18:35.314Z</time></trkpt><trkpt lat="43.1558836" lon="13.2845907"><ele>387.0</ele><time>2026-03-22T08:18:36.313Z</time></trkpt><trkpt lat="43.1558101" lon="13.2846306"><ele>387.0</ele><time>2026-03-22T08:18:37.314Z</time></trkpt><trkpt lat="43.1557303" lon="13.2846532"><ele>387.0</ele><time>2026-03-22T08:18:38.314Z</time></trkpt><trkpt lat="43.1556571" lon="13.2846723"><ele>387.0</ele><time>2026-03-22T08:18:39.314Z</time></trkpt><trkpt lat="43.155584" lon="13.2846869"><ele>388.0</ele><time>2026-03-22T08:18:40.314Z</time></trkpt><trkpt lat="43.1555199" lon="13.2846973"><ele>389.0</ele><time>2026-03-22T08:18:41.314Z</time></trkpt><trkpt lat="43.1554153" lon="13.2847458"><ele>390.0</ele><time>2026-03-22T08:18:43.314Z</time></trkpt><trkpt lat="43.1553453" lon="13.284848"><ele>391.0</ele><time>2026-03-22T08:18:45.313Z</time></trkpt><trkpt lat="43.1553199" lon="13.2849303"><ele>392.0</ele><time>2026-03-22T08:18:46.314Z</time></trkpt><trkpt lat="43.1552925" lon="13.285016"><ele>393.0</ele><time>2026-03-22T08:18:47.314Z</time></trkpt><trkpt lat="43.1552566" lon="13.2850955"><ele>393.1666666666667</ele><time>2026-03-22T08:18:48.314Z</time></trkpt><trkpt lat="43.1552301" lon="13.2851766"><ele>393.33333333333337</ele><time>2026-03-22T08:18:49.314Z</time></trkpt><trkpt lat="43.1552385" lon="13.2853467"><ele>393.5</ele><time>2026-03-22T08:18:51.314Z</time></trkpt><trkpt lat="43.1552812" lon="13.2854246"><ele>393.6666666666667</ele><time>2026-03-22T08:18:52.314Z</time></trkpt><trkpt lat="43.1553229" lon="13.2854959"><ele>393.83333333333337</ele><time>2026-03-22T08:18:53.314Z</time></trkpt><trkpt lat="43.1553861" lon="13.2855601"><ele>394.0</ele><time>2026-03-22T08:18:54.314Z</time></trkpt><trkpt lat="43.1554364" lon="13.2856213"><ele>395.50000000000006</ele><time>2026-03-22T08:18:55.314Z</time></trkpt><trkpt lat="43.1554844" lon="13.285682"><ele>397.0</ele><time>2026-03-22T08:18:56.314Z</time></trkpt><trkpt lat="43.1555155" lon="13.2858447"><ele>398.5</ele><time>2026-03-22T08:18:58.314Z</time></trkpt><trkpt lat="43.1555079" lon="13.285937"><ele>400.0</ele><time>2026-03-22T08:18:59.314Z</time></trkpt><trkpt lat="43.155497" lon="13.2860455"><ele>401.50000000000006</ele><time>2026-03-22T08:19:00.314Z</time></trkpt><trkpt lat="43.1554881" lon="13.286158"><ele>403.0</ele><time>2026-03-22T08:19:01.314Z</time></trkpt><trkpt lat="43.1555279" lon="13.2862812"><ele>403.00000000000006</ele><time>2026-03-22T08:19:02.314Z</time></trkpt><trkpt lat="43.1555611" lon="13.2863886"><ele>403.0</ele><time>2026-03-22T08:19:03.314Z</time></trkpt><trkpt lat="43.155614" lon="13.2865009"><ele>403.0</ele><time>2026-03-22T08:19:04.314Z</time></trkpt><trkpt lat="43.155655" lon="13.2865889"><ele>403.0</ele><time>2026-03-22T08:19:05.314Z</time></trkpt><trkpt lat="43.1557" lon="13.2866624"><ele>403.00000000000006</ele><time>2026-03-22T08:19:06.314Z</time></trkpt><trkpt lat="43.1557327" lon="13.2867425"><ele>403.0</ele><time>2026-03-22T08:19:07.314Z</time></trkpt><trkpt lat="43.1557387" lon="13.2868302"><ele>398.50000000000006</ele><time>2026-03-22T08:19:08.314Z</time></trkpt><trkpt lat="43.1557339" lon="13.2869449"><ele>394.0</ele><time>2026-03-22T08:19:09.314Z</time></trkpt><trkpt lat="43.1557277" lon="13.2870635"><ele>389.5</ele><time>2026-03-22T08:19:10.314Z</time></trkpt><trkpt lat="43.1557291" lon="13.2871779"><ele>385.0</ele><time>2026-03-22T08:19:11.314Z</time></trkpt><trkpt lat="43.1557342" lon="13.2873042"><ele>380.5</ele><time>2026-03-22T08:19:12.314Z</time></trkpt><trkpt lat="43.1557521" lon="13.2874398"><ele>376.0</ele><time>2026-03-22T08:19:13.314Z</time></trkpt><trkpt lat="43.155758" lon="13.2875823"><ele>376.0</ele><time>2026-03-22T08:19:14.314Z</time></trkpt><trkpt lat="43.1557642" lon="13.2877477"><ele>376.0</ele><time>2026-03-22T08:19:15.314Z</time></trkpt><trkpt lat="43.155785" lon="13.2879055"><ele>376.0</ele><time>2026-03-22T08:19:16.314Z</time></trkpt><trkpt lat="43.1558248" lon="13.2880582"><ele>376.0</ele><time>2026-03-22T08:19:17.314Z</time></trkpt><trkpt lat="43.155875" lon="13.2882027"><ele>377.4</ele><time>2026-03-22T08:19:18.314Z</time></trkpt><trkpt lat="43.1559292" lon="13.2883435"><ele>378.8</ele><time>2026-03-22T08:19:19.314Z</time></trkpt><trkpt lat="43.1559838" lon="13.2884753"><ele>380.2</ele><time>2026-03-22T08:19:20.314Z</time></trkpt><trkpt lat="43.156037" lon="13.2885876"><ele>381.59999999999997</ele><time>2026-03-22T08:19:21.314Z</time></trkpt><trkpt lat="43.1560916" lon="13.2886857"><ele>383.0</ele><time>2026-03-22T08:19:22.314Z</time></trkpt><trkpt lat="43.1561546" lon="13.2888034"><ele>383.0</ele><time>2026-03-22T08:19:23.314Z</time></trkpt><trkpt lat="43.1562104" lon="13.2889135"><ele>383.0</ele><time>2026-03-22T08:19:24.314Z</time></trkpt><trkpt lat="43.1562624" lon="13.2890363"><ele>383.0</ele><time>2026-03-22T08:19:25.314Z</time></trkpt><trkpt lat="43.1563087" lon="13.2891382"><ele>383.0</ele><time>2026-03-22T08:19:26.314Z</time></trkpt><trkpt lat="43.1563515" lon="13.2892477"><ele>383.0</ele><time>2026-03-22T08:19:27.314Z</time></trkpt><trkpt lat="43.1563846" lon="13.2893657"><ele>382.0</ele><time>2026-03-22T08:19:28.314Z</time></trkpt><trkpt lat="43.1564293" lon="13.2895026"><ele>381.0</ele><time>2026-03-22T08:19:29.314Z</time></trkpt><trkpt lat="43.1564711" lon="13.2896501"><ele>380.0</ele><time>2026-03-22T08:19:30.314Z</time></trkpt><trkpt lat="43.1565159" lon="13.2897979"><ele>379.0</ele><time>2026-03-22T08:19:31.314Z</time></trkpt><trkpt lat="43.1565637" lon="13.2899426"><ele>379.0</ele><time>2026-03-22T08:19:32.314Z</time></trkpt><trkpt lat="43.156626" lon="13.2900759"><ele>379.0</ele><time>2026-03-22T08:19:33.314Z</time></trkpt><trkpt lat="43.1566923" lon="13.2901958"><ele>379.0</ele><time>2026-03-22T08:19:34.314Z</time></trkpt><trkpt lat="43.1567653" lon="13.2902951"><ele>379.0</ele><time>2026-03-22T08:19:35.314Z</time></trkpt><trkpt lat="43.1568384" lon="13.2903841"><ele>379.0</ele><time>2026-03-22T08:19:36.314Z</time></trkpt><trkpt lat="43.1568984" lon="13.2904694"><ele>379.0</ele><time>2026-03-22T08:19:37.314Z</time></trkpt><trkpt lat="43.1569305" lon="13.2905552"><ele>379.0</ele><time>2026-03-22T08:19:38.314Z</time></trkpt><trkpt lat="43.1569503" lon="13.290651"><ele>379.0</ele><time>2026-03-22T08:19:39.314Z</time></trkpt><trkpt lat="43.156953" lon="13.2907458"><ele>379.0</ele><time>2026-03-22T08:19:40.314Z</time></trkpt><trkpt lat="43.1569271" lon="13.2909143"><ele>379.0</ele><time>2026-03-22T08:19:42.314Z</time></trkpt><trkpt lat="43.1569055" lon="13.2909987"><ele>379.0</ele><time>2026-03-22T08:19:43.314Z</time></trkpt><trkpt lat="43.1568815" lon="13.2910797"><ele>379.0</ele><time>2026-03-22T08:19:44.314Z</time></trkpt><trkpt lat="43.1568425" lon="13.2912058"><ele>379.0</ele><time>2026-03-22T08:19:46.314Z</time></trkpt><trkpt lat="43.1568146" lon="13.2913113"><ele>379.0</ele><time>2026-03-22T08:19:48.314Z</time></trkpt><trkpt lat="43.156776" lon="13.2913984"><ele>379.0</ele><time>2026-03-22T08:19:50.314Z</time></trkpt><trkpt lat="43.1567279" lon="13.291455"><ele>379.0</ele><time>2026-03-22T08:19:52.314Z</time></trkpt><trkpt lat="43.1566633" lon="13.2914709"><ele>379.0</ele><time>2026-03-22T08:19:54.314Z</time></trkpt><trkpt lat="43.1566058" lon="13.2914311"><ele>379.0</ele><time>2026-03-22T08:19:56.314Z</time></trkpt><trkpt lat="43.1565627" lon="13.2913443"><ele>379.0</ele><time>2026-03-22T08:19:58.314Z</time></trkpt><trkpt lat="43.1565282" lon="13.2912299"><ele>379.0</ele><time>2026-03-22T08:20:00.314Z</time></trkpt><trkpt lat="43.1564871" lon="13.2911239"><ele>379.0</ele><time>2026-03-22T08:20:02.314Z</time></trkpt><trkpt lat="43.1564421" lon="13.2910138"><ele>379.0</ele><time>2026-03-22T08:20:04.313Z</time></trkpt><trkpt lat="43.1563644" lon="13.2909128"><ele>382.25</ele><time>2026-03-22T08:20:06.314Z</time></trkpt><trkpt lat="43.1562621" lon="13.2908485"><ele>385.5</ele><time>2026-03-22T08:20:08.314Z</time></trkpt><trkpt lat="43.1561428" lon="13.2908022"><ele>388.75</ele><time>2026-03-22T08:20:10.314Z</time></trkpt><trkpt lat="43.1560277" lon="13.2907701"><ele>392.0</ele><time>2026-03-22T08:20:12.314Z</time></trkpt><trkpt lat="43.1559002" lon="13.2907689"><ele>391.99999999999994</ele><time>2026-03-22T08:20:14.314Z</time></trkpt><trkpt lat="43.1558024" lon="13.29076"><ele>392.0</ele><time>2026-03-22T08:20:16.314Z</time></trkpt><trkpt lat="43.1556787" lon="13.2907648"><ele>392.0</ele><time>2026-03-22T08:20:18.313Z</time></trkpt><trkpt lat="43.155612" lon="13.2907683"><ele>392.0</ele><time>2026-03-22T08:20:19.314Z</time></trkpt><trkpt lat="43.1555476" lon="13.2907603"><ele>391.99999999999994</ele><time>2026-03-22T08:20:20.314Z</time></trkpt><trkpt lat="43.1554772" lon="13.2907443"><ele>392.0</ele><time>2026-03-22T08:20:21.314Z</time></trkpt><trkpt lat="43.1553983" lon="13.2907305"><ele>393.66666666666663</ele><time>2026-03-22T08:20:22.314Z</time></trkpt><trkpt lat="43.1553147" lon="13.2907223"><ele>395.3333333333333</ele><time>2026-03-22T08:20:23.314Z</time></trkpt><trkpt lat="43.1552321" lon="13.2907195"><ele>397.0</ele><time>2026-03-22T08:20:24.314Z</time></trkpt><trkpt lat="43.1551478" lon="13.2907186"><ele>398.66666666666663</ele><time>2026-03-22T08:20:25.314Z</time></trkpt><trkpt lat="43.1550779" lon="13.2907217"><ele>400.3333333333333</ele><time>2026-03-22T08:20:26.314Z</time></trkpt><trkpt lat="43.1549616" lon="13.2907439"><ele>402.0</ele><time>2026-03-22T08:20:28.314Z</time></trkpt><trkpt lat="43.154861" lon="13.2907485"><ele>402.0</ele><time>2026-03-22T08:20:30.313Z</time></trkpt><trkpt lat="43.1547625" lon="13.2907044"><ele>402.0</ele><time>2026-03-22T08:20:32.314Z</time></trkpt><trkpt lat="43.1546715" lon="13.2906123"><ele>402.0</ele><time>2026-03-22T08:20:34.314Z</time></trkpt><trkpt lat="43.1546042" lon="13.2904783"><ele>402.0</ele><time>2026-03-22T08:20:36.314Z</time></trkpt><trkpt lat="43.1545643" lon="13.2903796"><ele>402.0</ele><time>2026-03-22T08:20:37.314Z</time></trkpt><trkpt lat="43.1545345" lon="13.2902911"><ele>404.8333333333333</ele><time>2026-03-22T08:20:38.314Z</time></trkpt><trkpt lat="43.154509" lon="13.2901948"><ele>407.66666666666663</ele><time>2026-03-22T08:20:39.314Z</time></trkpt><trkpt lat="43.1544912" lon="13.2900994"><ele>410.5</ele><time>2026-03-22T08:20:40.314Z</time></trkpt><trkpt lat="43.1544787" lon="13.2899905"><ele>413.3333333333333</ele><time>2026-03-22T08:20:41.314Z</time></trkpt><trkpt lat="43.1544623" lon="13.2898869"><ele>416.16666666666663</ele><time>2026-03-22T08:20:42.314Z</time></trkpt><trkpt lat="43.1544415" lon="13.2897773"><ele>419.0</ele><time>2026-03-22T08:20:43.313Z</time></trkpt><trkpt lat="43.1544222" lon="13.2896703"><ele>420.66666666666663</ele><time>2026-03-22T08:20:44.314Z</time></trkpt><trkpt lat="43.1543897" lon="13.2895646"><ele>422.3333333333333</ele><time>2026-03-22T08:20:45.314Z</time></trkpt><trkpt lat="43.1543558" lon="13.2894567"><ele>424.0</ele><time>2026-03-22T08:20:46.314Z</time></trkpt><trkpt lat="43.1543267" lon="13.2893424"><ele>425.66666666666663</ele><time>2026-03-22T08:20:47.314Z</time></trkpt><trkpt lat="43.1542885" lon="13.2892278"><ele>427.3333333333333</ele><time>2026-03-22T08:20:48.314Z</time></trkpt><trkpt lat="43.1542477" lon="13.2891108"><ele>429.0</ele><time>2026-03-22T08:20:49.314Z</time></trkpt><trkpt lat="43.154199" lon="13.288996"><ele>428.6</ele><time>2026-03-22T08:20:50.314Z</time></trkpt><trkpt lat="43.1541433" lon="13.2889012"><ele>428.2</ele><time>2026-03-22T08:20:51.314Z</time></trkpt><trkpt lat="43.1540772" lon="13.28882"><ele>427.80000000000007</ele><time>2026-03-22T08:20:52.314Z</time></trkpt><trkpt lat="43.1539943" lon="13.2887765"><ele>427.40000000000003</ele><time>2026-03-22T08:20:53.314Z</time></trkpt><trkpt lat="43.1539056" lon="13.2887387"><ele>427.0</ele><time>2026-03-22T08:20:54.314Z</time></trkpt><trkpt lat="43.1538161" lon="13.2887152"><ele>429.6</ele><time>2026-03-22T08:20:55.313Z</time></trkpt><trkpt lat="43.1537257" lon="13.2887085"><ele>432.20000000000005</ele><time>2026-03-22T08:20:56.314Z</time></trkpt><trkpt lat="43.1536207" lon="13.2887118"><ele>434.8</ele><time>2026-03-22T08:20:57.314Z</time></trkpt><trkpt lat="43.1535069" lon="13.2887148"><ele>437.4</ele><time>2026-03-22T08:20:58.314Z</time></trkpt><trkpt lat="43.1533948" lon="13.2887169"><ele>440.0</ele><time>2026-03-22T08:20:59.314Z</time></trkpt><trkpt lat="43.1532887" lon="13.2887171"><ele>440.2</ele><time>2026-03-22T08:21:00.314Z</time></trkpt><trkpt lat="43.153184" lon="13.288722"><ele>440.4</ele><time>2026-03-22T08:21:01.314Z</time></trkpt><trkpt lat="43.1530755" lon="13.2887281"><ele>440.6</ele><time>2026-03-22T08:21:02.314Z</time></trkpt><trkpt lat="43.152979" lon="13.2887343"><ele>440.8</ele><time>2026-03-22T08:21:03.314Z</time></trkpt><trkpt lat="43.1528858" lon="13.2887514"><ele>441.0</ele><time>2026-03-22T08:21:04.314Z</time></trkpt><trkpt lat="43.1527942" lon="13.2887712"><ele>441.0</ele><time>2026-03-22T08:21:05.314Z</time></trkpt><trkpt lat="43.1526943" lon="13.2887908"><ele>441.0</ele><time>2026-03-22T08:21:06.314Z</time></trkpt><trkpt lat="43.1525987" lon="13.2887988"><ele>441.0</ele><time>2026-03-22T08:21:07.313Z</time></trkpt><trkpt lat="43.1525018" lon="13.2888009"><ele>441.0</ele><time>2026-03-22T08:21:08.314Z</time></trkpt><trkpt lat="43.1524045" lon="13.2887892"><ele>441.0</ele><time>2026-03-22T08:21:09.314Z</time></trkpt><trkpt lat="43.1522894" lon="13.2887715"><ele>440.0</ele><time>2026-03-22T08:21:10.314Z</time></trkpt><trkpt lat="43.1521778" lon="13.288746"><ele>439.0</ele><time>2026-03-22T08:21:11.314Z</time></trkpt><trkpt lat="43.1520712" lon="13.2887148"><ele>438.0</ele><time>2026-03-22T08:21:12.314Z</time></trkpt><trkpt lat="43.1519653" lon="13.2886805"><ele>437.0</ele><time>2026-03-22T08:21:13.314Z</time></trkpt><trkpt lat="43.151868" lon="13.2886358"><ele>436.0</ele><time>2026-03-22T08:21:14.314Z</time></trkpt><trkpt lat="43.1517704" lon="13.2886023"><ele>436.0</ele><time>2026-03-22T08:21:15.314Z</time></trkpt><trkpt lat="43.1516739" lon="13.2885855"><ele>436.0</ele><time>2026-03-22T08:21:16.313Z</time></trkpt><trkpt lat="43.1515763" lon="13.2885944"><ele>436.0</ele><time>2026-03-22T08:21:17.314Z</time></trkpt><trkpt lat="43.1514732" lon="13.2886205"><ele>436.0</ele><time>2026-03-22T08:21:18.313Z</time></trkpt><trkpt lat="43.1513813" lon="13.2886498"><ele>436.0</ele><time>2026-03-22T08:21:19.314Z</time></trkpt><trkpt lat="43.1512911" lon="13.2886643"><ele>435.8</ele><time>2026-03-22T08:21:20.314Z</time></trkpt><trkpt lat="43.1512039" lon="13.2886747"><ele>435.6</ele><time>2026-03-22T08:21:21.314Z</time></trkpt><trkpt lat="43.151117" lon="13.288681"><ele>435.4</ele><time>2026-03-22T08:21:22.314Z</time></trkpt><trkpt lat="43.1510252" lon="13.2886713"><ele>435.2</ele><time>2026-03-22T08:21:23.314Z</time></trkpt><trkpt lat="43.1509282" lon="13.2886487"><ele>435.0</ele><time>2026-03-22T08:21:24.314Z</time></trkpt><trkpt lat="43.1508308" lon="13.2886304"><ele>435.0</ele><time>2026-03-22T08:21:25.314Z</time></trkpt><trkpt lat="43.1507342" lon="13.2886034"><ele>435.0</ele><time>2026-03-22T08:21:26.314Z</time></trkpt><trkpt lat="43.1506413" lon="13.288584"><ele>435.0</ele><time>2026-03-22T08:21:27.314Z</time></trkpt><trkpt lat="43.1505501" lon="13.2885725"><ele>435.0</ele><time>2026-03-22T08:21:28.314Z</time></trkpt><trkpt lat="43.1504594" lon="13.288571"><ele>435.0</ele><time>2026-03-22T08:21:29.314Z</time></trkpt><trkpt lat="43.1503689" lon="13.2885751"><ele>433.0</ele><time>2026-03-22T08:21:30.314Z</time></trkpt><trkpt lat="43.1502836" lon="13.2885857"><ele>431.0</ele><time>2026-03-22T08:21:31.314Z</time></trkpt><trkpt lat="43.150208" lon="13.2886044"><ele>429.0</ele><time>2026-03-22T08:21:32.314Z</time></trkpt><trkpt lat="43.1501376" lon="13.2886261"><ele>427.0</ele><time>2026-03-22T08:21:33.314Z</time></trkpt><trkpt lat="43.1500716" lon="13.2886488"><ele>425.0</ele><time>2026-03-22T08:21:34.314Z</time></trkpt><trkpt lat="43.1499608" lon="13.2886865"><ele>423.0</ele><time>2026-03-22T08:21:36.314Z</time></trkpt><trkpt lat="43.1498612" lon="13.288725"><ele>421.2</ele><time>2026-03-22T08:21:38.314Z</time></trkpt><trkpt lat="43.1497763" lon="13.2887829"><ele>419.4</ele><time>2026-03-22T08:21:40.314Z</time></trkpt><trkpt lat="43.1497207" lon="13.2889016"><ele>417.59999999999997</ele><time>2026-03-22T08:21:42.314Z</time></trkpt><trkpt lat="43.1496906" lon="13.2890047"><ele>415.79999999999995</ele><time>2026-03-22T08:21:43.314Z</time></trkpt><trkpt lat="43.1496612" lon="13.2891205"><ele>414.0</ele><time>2026-03-22T08:21:44.314Z</time></trkpt><trkpt lat="43.1496327" lon="13.2892553"><ele>413.0</ele><time>2026-03-22T08:21:45.314Z</time></trkpt><trkpt lat="43.1496023" lon="13.2893984"><ele>412.0</ele><time>2026-03-22T08:21:46.314Z</time></trkpt><trkpt lat="43.1495666" lon="13.2895496"><ele>411.0</ele><time>2026-03-22T08:21:47.314Z</time></trkpt><trkpt lat="43.1495301" lon="13.289711"><ele>410.0</ele><time>2026-03-22T08:21:48.314Z</time></trkpt><trkpt lat="43.1494944" lon="13.2898622"><ele>410.0</ele><time>2026-03-22T08:21:49.314Z</time></trkpt><trkpt lat="43.1494544" lon="13.2900049"><ele>410.0</ele><time>2026-03-22T08:21:50.314Z</time></trkpt><trkpt lat="43.1494184" lon="13.2901447"><ele>410.0</ele><time>2026-03-22T08:21:51.314Z</time></trkpt><trkpt lat="43.1493802" lon="13.2902755"><ele>410.0</ele><time>2026-03-22T08:21:52.314Z</time></trkpt><trkpt lat="43.1493364" lon="13.2904143"><ele>410.0</ele><time>2026-03-22T08:21:53.314Z</time></trkpt><trkpt lat="43.1492878" lon="13.2905578"><ele>411.0</ele><time>2026-03-22T08:21:54.314Z</time></trkpt><trkpt lat="43.1492212" lon="13.2907033"><ele>412.0</ele><time>2026-03-22T08:21:55.314Z</time></trkpt><trkpt lat="43.1491483" lon="13.2908513"><ele>413.0</ele><time>2026-03-22T08:21:56.314Z</time></trkpt><trkpt lat="43.1490695" lon="13.2910013"><ele>414.0</ele><time>2026-03-22T08:21:57.314Z</time></trkpt><trkpt lat="43.1489853" lon="13.2911597"><ele>411.0</ele><time>2026-03-22T08:21:58.314Z</time></trkpt><trkpt lat="43.1488931" lon="13.2913271"><ele>408.0</ele><time>2026-03-22T08:21:59.314Z</time></trkpt><trkpt lat="43.1488022" lon="13.2914992"><ele>405.0</ele><time>2026-03-22T08:22:00.314Z</time></trkpt><trkpt lat="43.1487071" lon="13.2916685"><ele>405.0</ele><time>2026-03-22T08:22:01.314Z</time></trkpt><trkpt lat="43.1486102" lon="13.2918377"><ele>405.0</ele><time>2026-03-22T08:22:02.314Z</time></trkpt><trkpt lat="43.1485197" lon="13.292002"><ele>405.0</ele><time>2026-03-22T08:22:03.314Z</time></trkpt><trkpt lat="43.1484289" lon="13.2921707"><ele>405.33333333333337</ele><time>2026-03-22T08:22:04.314Z</time></trkpt><trkpt lat="43.148338" lon="13.2923329"><ele>405.6666666666667</ele><time>2026-03-22T08:22:05.314Z</time></trkpt><trkpt lat="43.1482475" lon="13.2924967"><ele>406.0</ele><time>2026-03-22T08:22:06.314Z</time></trkpt><trkpt lat="43.1481567" lon="13.2926636"><ele>406.0</ele><time>2026-03-22T08:22:07.314Z</time></trkpt><trkpt lat="43.148064" lon="13.2928206"><ele>406.0</ele><time>2026-03-22T08:22:08.314Z</time></trkpt><trkpt lat="43.1479706" lon="13.2929843"><ele>406.0</ele><time>2026-03-22T08:22:09.314Z</time></trkpt><trkpt lat="43.1478823" lon="13.2931366"><ele>406.0</ele><time>2026-03-22T08:22:10.314Z</time></trkpt><trkpt lat="43.1477982" lon="13.2932754"><ele>406.25</ele><time>2026-03-22T08:22:11.313Z</time></trkpt><trkpt lat="43.1477132" lon="13.2934081"><ele>406.5</ele><time>2026-03-22T08:22:12.314Z</time></trkpt><trkpt lat="43.1476283" lon="13.2935385"><ele>406.75</ele><time>2026-03-22T08:22:13.314Z</time></trkpt><trkpt lat="43.1475435" lon="13.2936635"><ele>407.0</ele><time>2026-03-22T08:22:14.314Z</time></trkpt><trkpt lat="43.1474514" lon="13.2937891"><ele>407.0</ele><time>2026-03-22T08:22:15.314Z</time></trkpt><trkpt lat="43.1473582" lon="13.2939039"><ele>407.0</ele><time>2026-03-22T08:22:16.314Z</time></trkpt><trkpt lat="43.1472588" lon="13.2940147"><ele>407.0</ele><time>2026-03-22T08:22:17.314Z</time></trkpt><trkpt lat="43.147159" lon="13.2941196"><ele>407.0</ele><time>2026-03-22T08:22:18.314Z</time></trkpt><trkpt lat="43.1470535" lon="13.2942232"><ele>407.0</ele><time>2026-03-22T08:22:19.314Z</time></trkpt><trkpt lat="43.1469408" lon="13.2943151"><ele>407.0</ele><time>2026-03-22T08:22:20.314Z</time></trkpt><trkpt lat="43.146824" lon="13.2944021"><ele>407.0</ele><time>2026-03-22T08:22:21.314Z</time></trkpt><trkpt lat="43.1467028" lon="13.2944806"><ele>407.0</ele><time>2026-03-22T08:22:22.314Z</time></trkpt><trkpt lat="43.1465798" lon="13.2945608"><ele>407.0</ele><time>2026-03-22T08:22:23.314Z</time></trkpt><trkpt lat="43.1464568" lon="13.2946452"><ele>407.0</ele><time>2026-03-22T08:22:24.314Z</time></trkpt><trkpt lat="43.1463376" lon="13.2947286"><ele>407.0</ele><time>2026-03-22T08:22:25.313Z</time></trkpt><trkpt lat="43.1462288" lon="13.2948231"><ele>407.0</ele><time>2026-03-22T08:22:26.313Z</time></trkpt><trkpt lat="43.1461308" lon="13.2949278"><ele>407.0</ele><time>2026-03-22T08:22:27.314Z</time></trkpt><trkpt lat="43.1460422" lon="13.2950398"><ele>407.0</ele><time>2026-03-22T08:22:28.314Z</time></trkpt><trkpt lat="43.1459576" lon="13.2951576"><ele>407.0</ele><time>2026-03-22T08:22:29.313Z</time></trkpt><trkpt lat="43.1458788" lon="13.2952978"><ele>407.0</ele><time>2026-03-22T08:22:30.314Z</time></trkpt><trkpt lat="43.145804" lon="13.2954492"><ele>406.25</ele><time>2026-03-22T08:22:31.314Z</time></trkpt><trkpt lat="43.1457336" lon="13.2956109"><ele>405.5</ele><time>2026-03-22T08:22:32.314Z</time></trkpt><trkpt lat="43.1456656" lon="13.2957656"><ele>404.75</ele><time>2026-03-22T08:22:33.314Z</time></trkpt><trkpt lat="43.1456023" lon="13.2959127"><ele>404.0</ele><time>2026-03-22T08:22:34.314Z</time></trkpt><trkpt lat="43.1455449" lon="13.2960552"><ele>406.0</ele><time>2026-03-22T08:22:35.314Z</time></trkpt><trkpt lat="43.1454895" lon="13.2962066"><ele>408.0</ele><time>2026-03-22T08:22:36.314Z</time></trkpt><trkpt lat="43.1454381" lon="13.2963607"><ele>410.0</ele><time>2026-03-22T08:22:37.314Z</time></trkpt><trkpt lat="43.1453947" lon="13.2965217"><ele>412.0</ele><time>2026-03-22T08:22:38.314Z</time></trkpt><trkpt lat="43.1453611" lon="13.2966929"><ele>412.0</ele><time>2026-03-22T08:22:39.314Z</time></trkpt><trkpt lat="43.1453442" lon="13.2968848"><ele>412.0</ele><time>2026-03-22T08:22:40.314Z</time></trkpt><trkpt lat="43.1453364" lon="13.2970816"><ele>412.0</ele><time>2026-03-22T08:22:41.314Z</time></trkpt><trkpt lat="43.1453327" lon="13.2972899"><ele>412.0</ele><time>2026-03-22T08:22:42.314Z</time></trkpt><trkpt lat="43.1453269" lon="13.2974938"><ele>412.75</ele><time>2026-03-22T08:22:43.314Z</time></trkpt><trkpt lat="43.1453225" lon="13.2976953"><ele>413.5</ele><time>2026-03-22T08:22:44.314Z</time></trkpt><trkpt lat="43.1453162" lon="13.2978916"><ele>414.25</ele><time>2026-03-22T08:22:45.314Z</time></trkpt><trkpt lat="43.145312" lon="13.298075"><ele>415.0</ele><time>2026-03-22T08:22:46.314Z</time></trkpt><trkpt lat="43.1453073" lon="13.2982502"><ele>415.8</ele><time>2026-03-22T08:22:47.314Z</time></trkpt><trkpt lat="43.1453011" lon="13.2984124"><ele>416.6</ele><time>2026-03-22T08:22:48.314Z</time></trkpt><trkpt lat="43.1452963" lon="13.2985685"><ele>417.4</ele><time>2026-03-22T08:22:49.314Z</time></trkpt><trkpt lat="43.1452807" lon="13.2987066"><ele>418.2</ele><time>2026-03-22T08:22:50.314Z</time></trkpt><trkpt lat="43.1452454" lon="13.2988406"><ele>419.0</ele><time>2026-03-22T08:22:51.314Z</time></trkpt><trkpt lat="43.145213" lon="13.2989706"><ele>419.0</ele><time>2026-03-22T08:22:52.314Z</time></trkpt><trkpt lat="43.1451769" lon="13.2990943"><ele>419.0</ele><time>2026-03-22T08:22:53.314Z</time></trkpt><trkpt lat="43.1451382" lon="13.2992204"><ele>419.0</ele><time>2026-03-22T08:22:54.314Z</time></trkpt><trkpt lat="43.1450984" lon="13.2993517"><ele>419.0</ele><time>2026-03-22T08:22:55.314Z</time></trkpt><trkpt lat="43.1450661" lon="13.2994871"><ele>419.0</ele><time>2026-03-22T08:22:56.314Z</time></trkpt><trkpt lat="43.1450406" lon="13.2996273"><ele>418.4</ele><time>2026-03-22T08:22:57.314Z</time></trkpt><trkpt lat="43.1450308" lon="13.2997738"><ele>417.79999999999995</ele><time>2026-03-22T08:22:58.314Z</time></trkpt><trkpt lat="43.14503" lon="13.2999293"><ele>417.20000000000005</ele><time>2026-03-22T08:22:59.314Z</time></trkpt><trkpt lat="43.1450402" lon="13.3000811"><ele>416.6</ele><time>2026-03-22T08:23:00.313Z</time></trkpt><trkpt lat="43.1450491" lon="13.3002278"><ele>416.0</ele><time>2026-03-22T08:23:01.314Z</time></trkpt><trkpt lat="43.1450564" lon="13.3003682"><ele>415.99999999999994</ele><time>2026-03-22T08:23:02.314Z</time></trkpt><trkpt lat="43.1450577" lon="13.3005041"><ele>416.0</ele><time>2026-03-22T08:23:03.314Z</time></trkpt><trkpt lat="43.1450523" lon="13.300632"><ele>416.0</ele><time>2026-03-22T08:23:04.314Z</time></trkpt><trkpt lat="43.1450368" lon="13.3007471"><ele>416.0</ele><time>2026-03-22T08:23:05.314Z</time></trkpt><trkpt lat="43.1450214" lon="13.3008653"><ele>415.99999999999994</ele><time>2026-03-22T08:23:06.314Z</time></trkpt><trkpt lat="43.1450152" lon="13.3009784"><ele>416.0</ele><time>2026-03-22T08:23:07.314Z</time></trkpt><trkpt lat="43.1450147" lon="13.3010926"><ele>415.8333333333333</ele><time>2026-03-22T08:23:08.314Z</time></trkpt><trkpt lat="43.1450151" lon="13.3012057"><ele>415.66666666666663</ele><time>2026-03-22T08:23:09.314Z</time></trkpt><trkpt lat="43.1450056" lon="13.3013146"><ele>415.5</ele><time>2026-03-22T08:23:10.314Z</time></trkpt><trkpt lat="43.1449887" lon="13.3014255"><ele>415.33333333333337</ele><time>2026-03-22T08:23:11.314Z</time></trkpt><trkpt lat="43.1449448" lon="13.301516"><ele>415.1666666666667</ele><time>2026-03-22T08:23:12.314Z</time></trkpt><trkpt lat="43.1449032" lon="13.3016196"><ele>415.0</ele><time>2026-03-22T08:23:13.314Z</time></trkpt><trkpt lat="43.1448696" lon="13.3017294"><ele>411.50000000000006</ele><time>2026-03-22T08:23:14.314Z</time></trkpt><trkpt lat="43.1448567" lon="13.3018454"><ele>408.0</ele><time>2026-03-22T08:23:15.314Z</time></trkpt><trkpt lat="43.1448497" lon="13.3019661"><ele>404.5</ele><time>2026-03-22T08:23:16.314Z</time></trkpt><trkpt lat="43.1448413" lon="13.3020844"><ele>401.0</ele><time>2026-03-22T08:23:17.314Z</time></trkpt><trkpt lat="43.1448033" lon="13.3021928"><ele>397.50000000000006</ele><time>2026-03-22T08:23:18.314Z</time></trkpt><trkpt lat="43.1447687" lon="13.3023019"><ele>394.0</ele><time>2026-03-22T08:23:19.314Z</time></trkpt><trkpt lat="43.1447402" lon="13.3024238"><ele>394.0</ele><time>2026-03-22T08:23:20.314Z</time></trkpt><trkpt lat="43.1447137" lon="13.302544"><ele>394.0</ele><time>2026-03-22T08:23:21.314Z</time></trkpt><trkpt lat="43.1446876" lon="13.3026868"><ele>394.0</ele><time>2026-03-22T08:23:22.314Z</time></trkpt><trkpt lat="43.1446574" lon="13.3028154"><ele>394.0</ele><time>2026-03-22T08:23:23.314Z</time></trkpt><trkpt lat="43.1446054" lon="13.3029443"><ele>394.0</ele><time>2026-03-22T08:23:24.314Z</time></trkpt><trkpt lat="43.1445539" lon="13.3030696"><ele>394.5</ele><time>2026-03-22T08:23:25.314Z</time></trkpt><trkpt lat="43.1444959" lon="13.3031983"><ele>395.0</ele><time>2026-03-22T08:23:26.314Z</time></trkpt><trkpt lat="43.1444294" lon="13.3033291"><ele>395.5</ele><time>2026-03-22T08:23:27.314Z</time></trkpt><trkpt lat="43.1443567" lon="13.3034657"><ele>396.0</ele><time>2026-03-22T08:23:28.314Z</time></trkpt><trkpt lat="43.144291" lon="13.3035857"><ele>396.0</ele><time>2026-03-22T08:23:29.314Z</time></trkpt><trkpt lat="43.1442314" lon="13.3037055"><ele>396.0</ele><time>2026-03-22T08:23:30.314Z</time></trkpt><trkpt lat="43.1441782" lon="13.3038223"><ele>396.0</ele><time>2026-03-22T08:23:31.313Z</time></trkpt><trkpt lat="43.1441304" lon="13.3039356"><ele>396.0</ele><time>2026-03-22T08:23:32.314Z</time></trkpt><trkpt lat="43.1441011" lon="13.3040631"><ele>396.0</ele><time>2026-03-22T08:23:33.314Z</time></trkpt><trkpt lat="43.1440761" lon="13.3041914"><ele>396.20000000000005</ele><time>2026-03-22T08:23:34.314Z</time></trkpt><trkpt lat="43.1440547" lon="13.3043232"><ele>396.40000000000003</ele><time>2026-03-22T08:23:35.314Z</time></trkpt><trkpt lat="43.1440286" lon="13.3044565"><ele>396.6</ele><time>2026-03-22T08:23:36.314Z</time></trkpt><trkpt lat="43.1439953" lon="13.3045968"><ele>396.8</ele><time>2026-03-22T08:23:37.314Z</time></trkpt><trkpt lat="43.1439569" lon="13.3047382"><ele>397.0</ele><time>2026-03-22T08:23:38.314Z</time></trkpt><trkpt lat="43.1439235" lon="13.3048723"><ele>394.33333333333337</ele><time>2026-03-22T08:23:39.314Z</time></trkpt><trkpt lat="43.1438952" lon="13.3049851"><ele>391.6666666666667</ele><time>2026-03-22T08:23:40.314Z</time></trkpt><trkpt lat="43.143874" lon="13.3050794"><ele>389.0</ele><time>2026-03-22T08:23:41.314Z</time></trkpt><trkpt lat="43.1438369" lon="13.3052275"><ele>386.33333333333337</ele><time>2026-03-22T08:23:43.314Z</time></trkpt><trkpt lat="43.1438218" lon="13.30533"><ele>383.6666666666667</ele><time>2026-03-22T08:23:45.314Z</time></trkpt><trkpt lat="43.1437676" lon="13.3054192"><ele>381.0</ele><time>2026-03-22T08:23:48.314Z</time></trkpt><trkpt lat="43.1437027" lon="13.3054224"><ele>381.0</ele><time>2026-03-22T08:23:50.314Z</time></trkpt><trkpt lat="43.1436555" lon="13.3053514"><ele>381.0</ele><time>2026-03-22T08:23:51.314Z</time></trkpt><trkpt lat="43.1436044" lon="13.3052715"><ele>381.0</ele><time>2026-03-22T08:23:52.314Z</time></trkpt><trkpt lat="43.1435157" lon="13.3051344"><ele>381.0</ele><time>2026-03-22T08:23:53.314Z</time></trkpt><trkpt lat="43.1434285" lon="13.3050065"><ele>381.0</ele><time>2026-03-22T08:23:54.313Z</time></trkpt><trkpt lat="43.1433175" lon="13.3049081"><ele>380.5</ele><time>2026-03-22T08:23:55.314Z</time></trkpt><trkpt lat="43.1432046" lon="13.3048355"><ele>380.0</ele><time>2026-03-22T08:23:56.314Z</time></trkpt><trkpt lat="43.1430851" lon="13.3047944"><ele>379.5</ele><time>2026-03-22T08:23:57.314Z</time></trkpt><trkpt lat="43.1429712" lon="13.3047752"><ele>379.0</ele><time>2026-03-22T08:23:58.314Z</time></trkpt><trkpt lat="43.1428561" lon="13.3047832"><ele>379.0</ele><time>2026-03-22T08:23:59.314Z</time></trkpt><trkpt lat="43.1427369" lon="13.304801"><ele>379.0</ele><time>2026-03-22T08:24:00.314Z</time></trkpt><trkpt lat="43.1426148" lon="13.304824"><ele>379.0</ele><time>2026-03-22T08:24:01.314Z</time></trkpt><trkpt lat="43.1424952" lon="13.3048476"><ele>379.0</ele><time>2026-03-22T08:24:02.314Z</time></trkpt><trkpt lat="43.1423773" lon="13.304877"><ele>380.25</ele><time>2026-03-22T08:24:03.314Z</time></trkpt><trkpt lat="43.1422661" lon="13.3049321"><ele>381.5</ele><time>2026-03-22T08:24:04.314Z</time></trkpt><trkpt lat="43.1421705" lon="13.3050195"><ele>382.75</ele><time>2026-03-22T08:24:05.314Z</time></trkpt><trkpt lat="43.1420984" lon="13.305135"><ele>384.0</ele><time>2026-03-22T08:24:06.314Z</time></trkpt><trkpt lat="43.142052" lon="13.3052713"><ele>384.0</ele><time>2026-03-22T08:24:07.314Z</time></trkpt><trkpt lat="43.1420338" lon="13.3054396"><ele>384.0</ele><time>2026-03-22T08:24:08.314Z</time></trkpt><trkpt lat="43.1420398" lon="13.3056511"><ele>384.0</ele><time>2026-03-22T08:24:09.314Z</time></trkpt><trkpt lat="43.1420471" lon="13.3058951"><ele>385.33333333333337</ele><time>2026-03-22T08:24:10.314Z</time></trkpt><trkpt lat="43.142054" lon="13.3061569"><ele>386.6666666666667</ele><time>2026-03-22T08:24:11.313Z</time></trkpt><trkpt lat="43.1420575" lon="13.306443"><ele>388.0</ele><time>2026-03-22T08:24:12.314Z</time></trkpt><trkpt lat="43.1420557" lon="13.3067329"><ele>389.0</ele><time>2026-03-22T08:24:13.314Z</time></trkpt><trkpt lat="43.1420551" lon="13.3070066"><ele>390.0</ele><time>2026-03-22T08:24:14.314Z</time></trkpt><trkpt lat="43.1420542" lon="13.3072654"><ele>391.0</ele><time>2026-03-22T08:24:15.314Z</time></trkpt><trkpt lat="43.142059" lon="13.3075049"><ele>391.0</ele><time>2026-03-22T08:24:16.314Z</time></trkpt><trkpt lat="43.1420552" lon="13.3077325"><ele>391.0</ele><time>2026-03-22T08:24:17.314Z</time></trkpt><trkpt lat="43.1420428" lon="13.3079587"><ele>391.0</ele><time>2026-03-22T08:24:18.314Z</time></trkpt><trkpt lat="43.142019" lon="13.3081667"><ele>391.0</ele><time>2026-03-22T08:24:19.314Z</time></trkpt><trkpt lat="43.14199" lon="13.3083768"><ele>391.0</ele><time>2026-03-22T08:24:20.314Z</time></trkpt><trkpt lat="43.1419247" lon="13.3085849"><ele>391.0</ele><time>2026-03-22T08:24:21.314Z</time></trkpt><trkpt lat="43.1418601" lon="13.3088035"><ele>389.6666666666667</ele><time>2026-03-22T08:24:22.314Z</time></trkpt><trkpt lat="43.1417914" lon="13.3090213"><ele>388.33333333333337</ele><time>2026-03-22T08:24:23.314Z</time></trkpt><trkpt lat="43.1417184" lon="13.3092453"><ele>387.0</ele><time>2026-03-22T08:24:24.314Z</time></trkpt><trkpt lat="43.1416339" lon="13.3094716"><ele>387.0</ele><time>2026-03-22T08:24:25.314Z</time></trkpt><trkpt lat="43.1415496" lon="13.3096979"><ele>387.0</ele><time>2026-03-22T08:24:26.313Z</time></trkpt><trkpt lat="43.1414658" lon="13.3099246"><ele>387.0</ele><time>2026-03-22T08:24:27.314Z</time></trkpt><trkpt lat="43.1413913" lon="13.3101444"><ele>387.66666666666663</ele><time>2026-03-22T08:24:28.314Z</time></trkpt><trkpt lat="43.1413234" lon="13.3103519"><ele>388.3333333333333</ele><time>2026-03-22T08:24:29.314Z</time></trkpt><trkpt lat="43.1412638" lon="13.3105475"><ele>389.0</ele><time>2026-03-22T08:24:30.314Z</time></trkpt><trkpt lat="43.141215" lon="13.3107259"><ele>389.0</ele><time>2026-03-22T08:24:31.314Z</time></trkpt><trkpt lat="43.1411629" lon="13.3108782"><ele>389.0</ele><time>2026-03-22T08:24:32.314Z</time></trkpt><trkpt lat="43.1411108" lon="13.3110138"><ele>389.0</ele><time>2026-03-22T08:24:33.314Z</time></trkpt><trkpt lat="43.141056" lon="13.3111231"><ele>389.0</ele><time>2026-03-22T08:24:34.314Z</time></trkpt><trkpt lat="43.1409936" lon="13.3112106"><ele>389.0</ele><time>2026-03-22T08:24:35.314Z</time></trkpt><trkpt lat="43.1409297" lon="13.311268"><ele>389.0</ele><time>2026-03-22T08:24:36.314Z</time></trkpt><trkpt lat="43.1408242" lon="13.3113219"><ele>389.0</ele><time>2026-03-22T08:24:38.314Z</time></trkpt><trkpt lat="43.1408306" lon="13.311439"><ele>389.0</ele><time>2026-03-22T08:24:41.314Z</time></trkpt><trkpt lat="43.1408835" lon="13.3115268"><ele>389.0</ele><time>2026-03-22T08:24:44.314Z</time></trkpt><trkpt lat="43.140957" lon="13.3116307"><ele>389.0</ele><time>2026-03-22T08:24:46.314Z</time></trkpt><trkpt lat="43.1410044" lon="13.3117034"><ele>388.16666666666663</ele><time>2026-03-22T08:24:47.314Z</time></trkpt><trkpt lat="43.1410534" lon="13.3117825"><ele>387.3333333333333</ele><time>2026-03-22T08:24:48.314Z</time></trkpt><trkpt lat="43.1411046" lon="13.3118687"><ele>386.5</ele><time>2026-03-22T08:24:49.314Z</time></trkpt><trkpt lat="43.141152" lon="13.3119526"><ele>385.66666666666663</ele><time>2026-03-22T08:24:50.314Z</time></trkpt><trkpt lat="43.1411988" lon="13.3120418"><ele>384.8333333333333</ele><time>2026-03-22T08:24:51.314Z</time></trkpt><trkpt lat="43.1412496" lon="13.3121308"><ele>384.0</ele><time>2026-03-22T08:24:52.313Z</time></trkpt><trkpt lat="43.1413006" lon="13.3122258"><ele>382.2</ele><time>2026-03-22T08:24:53.314Z</time></trkpt><trkpt lat="43.1413623" lon="13.3123342"><ele>380.4</ele><time>2026-03-22T08:24:54.314Z</time></trkpt><trkpt lat="43.1414224" lon="13.3124469"><ele>378.6</ele><time>2026-03-22T08:24:55.313Z</time></trkpt><trkpt lat="43.1414814" lon="13.3125651"><ele>376.8</ele><time>2026-03-22T08:24:56.313Z</time></trkpt><trkpt lat="43.14154" lon="13.3126903"><ele>375.0</ele><time>2026-03-22T08:24:57.314Z</time></trkpt><trkpt lat="43.1415983" lon="13.3128096"><ele>375.0</ele><time>2026-03-22T08:24:58.314Z</time></trkpt><trkpt lat="43.1416534" lon="13.3129338"><ele>375.0</ele><time>2026-03-22T08:24:59.313Z</time></trkpt><trkpt lat="43.1417097" lon="13.3130563"><ele>375.0</ele><time>2026-03-22T08:25:00.314Z</time></trkpt><trkpt lat="43.1417608" lon="13.313181"><ele>375.0</ele><time>2026-03-22T08:25:01.314Z</time></trkpt><trkpt lat="43.1418139" lon="13.3132944"><ele>375.0</ele><time>2026-03-22T08:25:02.314Z</time></trkpt><trkpt lat="43.1418668" lon="13.3134064"><ele>375.0</ele><time>2026-03-22T08:25:03.314Z</time></trkpt><trkpt lat="43.1419196" lon="13.3135145"><ele>375.0</ele><time>2026-03-22T08:25:04.314Z</time></trkpt><trkpt lat="43.1419735" lon="13.3136291"><ele>375.0</ele><time>2026-03-22T08:25:05.314Z</time></trkpt><trkpt lat="43.142025" lon="13.3137591"><ele>375.0</ele><time>2026-03-22T08:25:06.314Z</time></trkpt><trkpt lat="43.1420669" lon="13.3139116"><ele>375.0</ele><time>2026-03-22T08:25:07.314Z</time></trkpt><trkpt lat="43.1421016" lon="13.3140736"><ele>374.4</ele><time>2026-03-22T08:25:08.314Z</time></trkpt><trkpt lat="43.1421355" lon="13.3142255"><ele>373.8</ele><time>2026-03-22T08:25:09.314Z</time></trkpt><trkpt lat="43.1421656" lon="13.3143772"><ele>373.20000000000005</ele><time>2026-03-22T08:25:10.314Z</time></trkpt><trkpt lat="43.1421934" lon="13.3145208"><ele>372.6</ele><time>2026-03-22T08:25:11.314Z</time></trkpt><trkpt lat="43.142223" lon="13.3146628"><ele>372.0</ele><time>2026-03-22T08:25:12.314Z</time></trkpt><trkpt lat="43.1422528" lon="13.3147982"><ele>371.20000000000005</ele><time>2026-03-22T08:25:13.314Z</time></trkpt><trkpt lat="43.1422812" lon="13.3149343"><ele>370.4</ele><time>2026-03-22T08:25:14.313Z</time></trkpt><trkpt lat="43.1423102" lon="13.315067"><ele>369.6</ele><time>2026-03-22T08:25:15.314Z</time></trkpt><trkpt lat="43.1423389" lon="13.3151968"><ele>368.79999999999995</ele><time>2026-03-22T08:25:16.314Z</time></trkpt><trkpt lat="43.1423666" lon="13.31533"><ele>368.0</ele><time>2026-03-22T08:25:17.314Z</time></trkpt><trkpt lat="43.1423919" lon="13.3154617"><ele>368.59999999999997</ele><time>2026-03-22T08:25:18.314Z</time></trkpt><trkpt lat="43.1424181" lon="13.3155947"><ele>369.2</ele><time>2026-03-22T08:25:19.314Z</time></trkpt><trkpt lat="43.1424348" lon="13.3157354"><ele>369.8</ele><time>2026-03-22T08:25:20.314Z</time></trkpt><trkpt lat="43.142441" lon="13.3158785"><ele>370.4</ele><time>2026-03-22T08:25:21.313Z</time></trkpt><trkpt lat="43.1424434" lon="13.3160269"><ele>371.0</ele><time>2026-03-22T08:25:22.314Z</time></trkpt><trkpt lat="43.1424428" lon="13.3161707"><ele>371.0</ele><time>2026-03-22T08:25:23.314Z</time></trkpt><trkpt lat="43.1424408" lon="13.3163093"><ele>371.0</ele><time>2026-03-22T08:25:24.314Z</time></trkpt><trkpt lat="43.1424444" lon="13.3164505"><ele>371.0</ele><time>2026-03-22T08:25:25.314Z</time></trkpt><trkpt lat="43.1424469" lon="13.3165885"><ele>371.0</ele><time>2026-03-22T08:25:26.314Z</time></trkpt><trkpt lat="43.1424511" lon="13.3167245"><ele>371.0</ele><time>2026-03-22T08:25:27.314Z</time></trkpt><trkpt lat="43.1424549" lon="13.3168615"><ele>370.4</ele><time>2026-03-22T08:25:28.314Z</time></trkpt><trkpt lat="43.1424567" lon="13.3170019"><ele>369.8</ele><time>2026-03-22T08:25:29.314Z</time></trkpt><trkpt lat="43.1424557" lon="13.3171494"><ele>369.2</ele><time>2026-03-22T08:25:30.314Z</time></trkpt><trkpt lat="43.1424543" lon="13.3173001"><ele>368.59999999999997</ele><time>2026-03-22T08:25:31.314Z</time></trkpt><trkpt lat="43.1424585" lon="13.3174519"><ele>368.0</ele><time>2026-03-22T08:25:32.314Z</time></trkpt><trkpt lat="43.1424615" lon="13.3176008"><ele>367.0</ele><time>2026-03-22T08:25:33.313Z</time></trkpt><trkpt lat="43.1424612" lon="13.3177497"><ele>366.0</ele><time>2026-03-22T08:25:34.314Z</time></trkpt><trkpt lat="43.1424634" lon="13.3178972"><ele>365.0</ele><time>2026-03-22T08:25:35.314Z</time></trkpt><trkpt lat="43.1424645" lon="13.3180398"><ele>364.0</ele><time>2026-03-22T08:25:36.314Z</time></trkpt><trkpt lat="43.1424643" lon="13.31818"><ele>363.0</ele><time>2026-03-22T08:25:37.314Z</time></trkpt><trkpt lat="43.1424636" lon="13.3183201"><ele>363.0</ele><time>2026-03-22T08:25:38.314Z</time></trkpt><trkpt lat="43.1424646" lon="13.3184566"><ele>363.0</ele><time>2026-03-22T08:25:39.313Z</time></trkpt><trkpt lat="43.1424592" lon="13.3185935"><ele>363.0</ele><time>2026-03-22T08:25:40.314Z</time></trkpt><trkpt lat="43.1424421" lon="13.3187257"><ele>363.0</ele><time>2026-03-22T08:25:41.314Z</time></trkpt><trkpt lat="43.142408" lon="13.3188498"><ele>363.0</ele><time>2026-03-22T08:25:42.314Z</time></trkpt><trkpt lat="43.1423716" lon="13.3189634"><ele>362.6666666666667</ele><time>2026-03-22T08:25:43.314Z</time></trkpt><trkpt lat="43.1423431" lon="13.3190753"><ele>362.3333333333333</ele><time>2026-03-22T08:25:44.314Z</time></trkpt><trkpt lat="43.1423279" lon="13.319191"><ele>362.0</ele><time>2026-03-22T08:25:45.314Z</time></trkpt><trkpt lat="43.1423336" lon="13.3193162"><ele>361.66666666666663</ele><time>2026-03-22T08:25:46.314Z</time></trkpt><trkpt lat="43.1423479" lon="13.3194382"><ele>361.3333333333333</ele><time>2026-03-22T08:25:47.314Z</time></trkpt><trkpt lat="43.1423684" lon="13.3195635"><ele>361.0</ele><time>2026-03-22T08:25:48.314Z</time></trkpt><trkpt lat="43.1423902" lon="13.3196917"><ele>359.8</ele><time>2026-03-22T08:25:49.314Z</time></trkpt><trkpt lat="43.1424177" lon="13.3198226"><ele>358.6</ele><time>2026-03-22T08:25:50.314Z</time></trkpt><trkpt lat="43.1424432" lon="13.3199441"><ele>357.4</ele><time>2026-03-22T08:25:51.314Z</time></trkpt><trkpt lat="43.1424609" lon="13.3200616"><ele>356.2</ele><time>2026-03-22T08:25:52.314Z</time></trkpt><trkpt lat="43.1424742" lon="13.3201832"><ele>355.0</ele><time>2026-03-22T08:25:53.314Z</time></trkpt><trkpt lat="43.1424824" lon="13.3203131"><ele>355.0</ele><time>2026-03-22T08:25:54.314Z</time></trkpt><trkpt lat="43.1424831" lon="13.3204489"><ele>355.0</ele><time>2026-03-22T08:25:55.314Z</time></trkpt><trkpt lat="43.1424735" lon="13.3205936"><ele>355.0</ele><time>2026-03-22T08:25:56.314Z</time></trkpt><trkpt lat="43.1424538" lon="13.3207459"><ele>355.0</ele><time>2026-03-22T08:25:57.313Z</time></trkpt><trkpt lat="43.1424277" lon="13.3208978"><ele>355.0</ele><time>2026-03-22T08:25:58.314Z</time></trkpt><trkpt lat="43.1424047" lon="13.3210484"><ele>350.8</ele><time>2026-03-22T08:25:59.314Z</time></trkpt><trkpt lat="43.1423809" lon="13.3212042"><ele>346.6</ele><time>2026-03-22T08:26:00.314Z</time></trkpt><trkpt lat="43.1423569" lon="13.3213516"><ele>342.4</ele><time>2026-03-22T08:26:01.314Z</time></trkpt><trkpt lat="43.1423337" lon="13.3214992"><ele>338.2</ele><time>2026-03-22T08:26:02.314Z</time></trkpt><trkpt lat="43.1423116" lon="13.321643"><ele>334.0</ele><time>2026-03-22T08:26:03.314Z</time></trkpt><trkpt lat="43.1422904" lon="13.3217823"><ele>334.0</ele><time>2026-03-22T08:26:04.314Z</time></trkpt><trkpt lat="43.1422708" lon="13.3219214"><ele>334.0</ele><time>2026-03-22T08:26:05.314Z</time></trkpt><trkpt lat="43.1422594" lon="13.3220589"><ele>334.0</ele><time>2026-03-22T08:26:06.314Z</time></trkpt><trkpt lat="43.1422521" lon="13.3221867"><ele>334.0</ele><time>2026-03-22T08:26:07.314Z</time></trkpt><trkpt lat="43.1422475" lon="13.3223184"><ele>334.0</ele><time>2026-03-22T08:26:08.314Z</time></trkpt><trkpt lat="43.142242" lon="13.3224471"><ele>333.66666666666663</ele><time>2026-03-22T08:26:09.314Z</time></trkpt><trkpt lat="43.1422365" lon="13.3225615"><ele>333.3333333333333</ele><time>2026-03-22T08:26:10.314Z</time></trkpt><trkpt lat="43.1422299" lon="13.3226669"><ele>333.0</ele><time>2026-03-22T08:26:11.314Z</time></trkpt><trkpt lat="43.1422326" lon="13.3228191"><ele>332.6666666666667</ele><time>2026-03-22T08:26:13.314Z</time></trkpt><trkpt lat="43.1422312" lon="13.3229071"><ele>332.33333333333337</ele><time>2026-03-22T08:26:15.314Z</time></trkpt><trkpt lat="43.1422446" lon="13.3229971"><ele>332.0</ele><time>2026-03-22T08:26:23.314Z</time></trkpt><trkpt lat="43.1422757" lon="13.3230855"><ele>332.0</ele><time>2026-03-22T08:26:37.314Z</time></trkpt><trkpt lat="43.1423403" lon="13.323216"><ele>332.0</ele><time>2026-03-22T08:26:39.313Z</time></trkpt><trkpt lat="43.1423736" lon="13.3233046"><ele>332.0</ele><time>2026-03-22T08:26:40.314Z</time></trkpt><trkpt lat="43.1423979" lon="13.3234027"><ele>332.0</ele><time>2026-03-22T08:26:41.314Z</time></trkpt><trkpt lat="43.1424107" lon="13.3234977"><ele>332.0</ele><time>2026-03-22T08:26:42.314Z</time></trkpt><trkpt lat="43.1424126" lon="13.3235856"><ele>332.0</ele><time>2026-03-22T08:26:43.314Z</time></trkpt><trkpt lat="43.1424129" lon="13.3236719"><ele>332.0</ele><time>2026-03-22T08:26:44.314Z</time></trkpt><trkpt lat="43.1424006" lon="13.3238268"><ele>332.0</ele><time>2026-03-22T08:26:46.314Z</time></trkpt><trkpt lat="43.1423909" lon="13.3240016"><ele>332.0</ele><time>2026-03-22T08:26:48.314Z</time></trkpt><trkpt lat="43.1423887" lon="13.3240899"><ele>332.0</ele><time>2026-03-22T08:26:49.314Z</time></trkpt><trkpt lat="43.1423839" lon="13.3241839"><ele>332.0</ele><time>2026-03-22T08:26:50.314Z</time></trkpt><trkpt lat="43.142381" lon="13.3242876"><ele>331.0</ele><time>2026-03-22T08:26:51.314Z</time></trkpt><trkpt lat="43.142383" lon="13.3243954"><ele>330.0</ele><time>2026-03-22T08:26:52.314Z</time></trkpt><trkpt lat="43.1423856" lon="13.3245028"><ele>329.0</ele><time>2026-03-22T08:26:53.314Z</time></trkpt><trkpt lat="43.1423912" lon="13.3246111"><ele>328.0</ele><time>2026-03-22T08:26:54.314Z</time></trkpt><trkpt lat="43.1423868" lon="13.3247236"><ele>327.0</ele><time>2026-03-22T08:26:55.314Z</time></trkpt><trkpt lat="43.1423704" lon="13.324829"><ele>326.0</ele><time>2026-03-22T08:26:56.314Z</time></trkpt><trkpt lat="43.14234" lon="13.3249237"><ele>322.83333333333337</ele><time>2026-03-22T08:26:57.314Z</time></trkpt><trkpt lat="43.1422987" lon="13.3250151"><ele>319.6666666666667</ele><time>2026-03-22T08:26:58.314Z</time></trkpt><trkpt lat="43.1422536" lon="13.3251062"><ele>316.5</ele><time>2026-03-22T08:26:59.314Z</time></trkpt><trkpt lat="43.1422097" lon="13.3252034"><ele>313.3333333333333</ele><time>2026-03-22T08:27:00.314Z</time></trkpt><trkpt lat="43.1421736" lon="13.3252997"><ele>310.16666666666663</ele><time>2026-03-22T08:27:01.314Z</time></trkpt><trkpt lat="43.1421443" lon="13.3253947"><ele>307.0</ele><time>2026-03-22T08:27:02.314Z</time></trkpt><trkpt lat="43.1421221" lon="13.32549"><ele>306.3333333333333</ele><time>2026-03-22T08:27:03.314Z</time></trkpt><trkpt lat="43.1420975" lon="13.3255984"><ele>305.66666666666663</ele><time>2026-03-22T08:27:04.314Z</time></trkpt><trkpt lat="43.1420776" lon="13.3257032"><ele>305.0</ele><time>2026-03-22T08:27:05.314Z</time></trkpt><trkpt lat="43.1420639" lon="13.3258121"><ele>304.3333333333333</ele><time>2026-03-22T08:27:06.314Z</time></trkpt><trkpt lat="43.1420569" lon="13.3259247"><ele>303.6666666666667</ele><time>2026-03-22T08:27:07.314Z</time></trkpt><trkpt lat="43.1420566" lon="13.3260302"><ele>303.0</ele><time>2026-03-22T08:27:08.314Z</time></trkpt><trkpt lat="43.1420636" lon="13.3261326"><ele>303.0</ele><time>2026-03-22T08:27:09.314Z</time></trkpt><trkpt lat="43.1420826" lon="13.3262369"><ele>303.0</ele><time>2026-03-22T08:27:10.314Z</time></trkpt><trkpt lat="43.1421065" lon="13.3263324"><ele>303.0</ele><time>2026-03-22T08:27:11.314Z</time></trkpt><trkpt lat="43.1421397" lon="13.3264251"><ele>303.0</ele><time>2026-03-22T08:27:12.314Z</time></trkpt><trkpt lat="43.1421807" lon="13.3265123"><ele>303.0</ele><time>2026-03-22T08:27:13.314Z</time></trkpt><trkpt lat="43.1422269" lon="13.326597"><ele>303.0</ele><time>2026-03-22T08:27:14.314Z</time></trkpt><trkpt lat="43.1422784" lon="13.3266831"><ele>303.1666666666667</ele><time>2026-03-22T08:27:15.314Z</time></trkpt><trkpt lat="43.1423268" lon="13.3267715"><ele>303.3333333333333</ele><time>2026-03-22T08:27:16.314Z</time></trkpt><trkpt lat="43.1423775" lon="13.3268633"><ele>303.5</ele><time>2026-03-22T08:27:17.313Z</time></trkpt><trkpt lat="43.1424209" lon="13.3269562"><ele>303.66666666666663</ele><time>2026-03-22T08:27:18.314Z</time></trkpt><trkpt lat="43.1424436" lon="13.3270698"><ele>303.8333333333333</ele><time>2026-03-22T08:27:19.313Z</time></trkpt><trkpt lat="43.1424435" lon="13.3271993"><ele>304.0</ele><time>2026-03-22T08:27:20.314Z</time></trkpt><trkpt lat="43.1424263" lon="13.3273397"><ele>301.0</ele><time>2026-03-22T08:27:21.314Z</time></trkpt><trkpt lat="43.142403" lon="13.3275028"><ele>298.0</ele><time>2026-03-22T08:27:22.314Z</time></trkpt><trkpt lat="43.142382" lon="13.3276654"><ele>295.0</ele><time>2026-03-22T08:27:23.314Z</time></trkpt><trkpt lat="43.1423596" lon="13.3278297"><ele>292.0</ele><time>2026-03-22T08:27:24.314Z</time></trkpt><trkpt lat="43.1423457" lon="13.3279935"><ele>288.8</ele><time>2026-03-22T08:27:25.314Z</time></trkpt><trkpt lat="43.1423344" lon="13.3281452"><ele>285.6</ele><time>2026-03-22T08:27:26.314Z</time></trkpt><trkpt lat="43.142325" lon="13.3282931"><ele>282.40000000000003</ele><time>2026-03-22T08:27:27.314Z</time></trkpt><trkpt lat="43.1423241" lon="13.3284288"><ele>279.2</ele><time>2026-03-22T08:27:28.313Z</time></trkpt><trkpt lat="43.1423335" lon="13.328571"><ele>276.0</ele><time>2026-03-22T08:27:29.314Z</time></trkpt><trkpt lat="43.1423499" lon="13.3287145"><ele>276.0</ele><time>2026-03-22T08:27:30.314Z</time></trkpt><trkpt lat="43.1423689" lon="13.3288568"><ele>276.0</ele><time>2026-03-22T08:27:31.314Z</time></trkpt><trkpt lat="43.1423863" lon="13.3289922"><ele>276.0</ele><time>2026-03-22T08:27:32.314Z</time></trkpt><trkpt lat="43.1423984" lon="13.3291169"><ele>276.0</ele><time>2026-03-22T08:27:33.314Z</time></trkpt><trkpt lat="43.1424091" lon="13.3292435"><ele>276.0</ele><time>2026-03-22T08:27:34.314Z</time></trkpt><trkpt lat="43.1424101" lon="13.3293722"><ele>277.3333333333333</ele><time>2026-03-22T08:27:35.314Z</time></trkpt><trkpt lat="43.142411" lon="13.3294995"><ele>278.6666666666667</ele><time>2026-03-22T08:27:36.314Z</time></trkpt><trkpt lat="43.1424079" lon="13.3296221"><ele>280.0</ele><time>2026-03-22T08:27:37.314Z</time></trkpt><trkpt lat="43.1424049" lon="13.3297422"><ele>281.33333333333337</ele><time>2026-03-22T08:27:38.314Z</time></trkpt><trkpt lat="43.1424106" lon="13.3298605"><ele>282.6666666666667</ele><time>2026-03-22T08:27:39.314Z</time></trkpt><trkpt lat="43.1424174" lon="13.3299875"><ele>284.0</ele><time>2026-03-22T08:27:40.314Z</time></trkpt><trkpt lat="43.1424249" lon="13.3301193"><ele>284.0</ele><time>2026-03-22T08:27:41.314Z</time></trkpt><trkpt lat="43.1424353" lon="13.3302574"><ele>284.0</ele><time>2026-03-22T08:27:42.314Z</time></trkpt><trkpt lat="43.1424475" lon="13.3304022"><ele>284.0</ele><time>2026-03-22T08:27:43.313Z</time></trkpt><trkpt lat="43.1424597" lon="13.3305514"><ele>284.0</ele><time>2026-03-22T08:27:44.314Z</time></trkpt><trkpt lat="43.1424691" lon="13.3306889"><ele>284.0</ele><time>2026-03-22T08:27:45.314Z</time></trkpt><trkpt lat="43.1424776" lon="13.3308124"><ele>283.1428571428571</ele><time>2026-03-22T08:27:46.314Z</time></trkpt><trkpt lat="43.1424967" lon="13.3309238"><ele>282.2857142857143</ele><time>2026-03-22T08:27:47.314Z</time></trkpt><trkpt lat="43.1425202" lon="13.3310093"><ele>281.42857142857144</ele><time>2026-03-22T08:27:48.314Z</time></trkpt><trkpt lat="43.1425514" lon="13.3310889"><ele>280.57142857142856</ele><time>2026-03-22T08:27:49.314Z</time></trkpt><trkpt lat="43.142592" lon="13.3311559"><ele>279.7142857142857</ele><time>2026-03-22T08:27:50.314Z</time></trkpt><trkpt lat="43.1426433" lon="13.3312164"><ele>278.85714285714283</ele><time>2026-03-22T08:27:51.314Z</time></trkpt><trkpt lat="43.1427038" lon="13.3312675"><ele>278.0</ele><time>2026-03-22T08:27:52.314Z</time></trkpt><trkpt lat="43.1427697" lon="13.3313266"><ele>278.0</ele><time>2026-03-22T08:27:53.314Z</time></trkpt><trkpt lat="43.1428341" lon="13.3313791"><ele>278.0</ele><time>2026-03-22T08:27:54.314Z</time></trkpt><trkpt lat="43.1428932" lon="13.331429"><ele>278.0</ele><time>2026-03-22T08:27:55.314Z</time></trkpt><trkpt lat="43.142958" lon="13.3314764"><ele>278.0</ele><time>2026-03-22T08:27:56.314Z</time></trkpt><trkpt lat="43.1430171" lon="13.3315256"><ele>278.0</ele><time>2026-03-22T08:27:57.314Z</time></trkpt><trkpt lat="43.1430739" lon="13.3315796"><ele>278.0</ele><time>2026-03-22T08:27:58.314Z</time></trkpt><trkpt lat="43.1431265" lon="13.3316409"><ele>278.0</ele><time>2026-03-22T08:27:59.314Z</time></trkpt><trkpt lat="43.1431722" lon="13.3317181"><ele>276.2857142857143</ele><time>2026-03-22T08:28:00.314Z</time></trkpt><trkpt lat="43.1432083" lon="13.3317972"><ele>274.57142857142856</ele><time>2026-03-22T08:28:01.314Z</time></trkpt><trkpt lat="43.1432378" lon="13.331884"><ele>272.8571428571429</ele><time>2026-03-22T08:28:02.314Z</time></trkpt><trkpt lat="43.1432593" lon="13.3319801"><ele>271.1428571428571</ele><time>2026-03-22T08:28:03.314Z</time></trkpt><trkpt lat="43.1432741" lon="13.3320806"><ele>269.42857142857144</ele><time>2026-03-22T08:28:04.314Z</time></trkpt><trkpt lat="43.1432848" lon="13.3321842"><ele>267.7142857142857</ele><time>2026-03-22T08:28:05.314Z</time></trkpt><trkpt lat="43.1432881" lon="13.3322921"><ele>266.0</ele><time>2026-03-22T08:28:06.314Z</time></trkpt><trkpt lat="43.1432852" lon="13.3324119"><ele>263.6666666666667</ele><time>2026-03-22T08:28:07.314Z</time></trkpt><trkpt lat="43.1432737" lon="13.3325318"><ele>261.33333333333337</ele><time>2026-03-22T08:28:08.314Z</time></trkpt><trkpt lat="43.1432618" lon="13.3326509"><ele>259.0</ele><time>2026-03-22T08:28:09.314Z</time></trkpt><trkpt lat="43.143243" lon="13.3327761"><ele>256.6666666666667</ele><time>2026-03-22T08:28:10.314Z</time></trkpt><trkpt lat="43.1432202" lon="13.3328966"><ele>254.33333333333334</ele><time>2026-03-22T08:28:11.314Z</time></trkpt><trkpt lat="43.1431956" lon="13.3330113"><ele>252.0</ele><time>2026-03-22T08:28:12.314Z</time></trkpt><trkpt lat="43.1431694" lon="13.3330899"><ele>251.16666666666666</ele><time>2026-03-22T08:28:13.314Z</time></trkpt><trkpt lat="43.1431047" lon="13.333205"><ele>250.33333333333331</ele><time>2026-03-22T08:28:15.314Z</time></trkpt><trkpt lat="43.1430249" lon="13.3332338"><ele>249.5</ele><time>2026-03-22T08:28:17.314Z</time></trkpt><trkpt lat="43.1429502" lon="13.3332137"><ele>248.66666666666666</ele><time>2026-03-22T08:28:47.314Z</time></trkpt><trkpt lat="43.1428704" lon="13.3332071"><ele>247.83333333333331</ele><time>2026-03-22T08:29:30.314Z</time></trkpt><trkpt lat="43.1427864" lon="13.3331993"><ele>247.0</ele><time>2026-03-22T08:29:33.314Z</time></trkpt><trkpt lat="43.1427117" lon="13.3331933"><ele>247.0</ele><time>2026-03-22T08:29:35.314Z</time></trkpt><trkpt lat="43.1426113" lon="13.3331947"><ele>247.0</ele><time>2026-03-22T08:29:37.314Z</time></trkpt><trkpt lat="43.142482" lon="13.3332014"><ele>247.0</ele><time>2026-03-22T08:29:39.314Z</time></trkpt><trkpt lat="43.1424108" lon="13.3332028"><ele>247.0</ele><time>2026-03-22T08:29:40.314Z</time></trkpt><trkpt lat="43.1423359" lon="13.3331964"><ele>247.0</ele><time>2026-03-22T08:29:41.314Z</time></trkpt><trkpt lat="43.1422516" lon="13.3331886"><ele>247.2</ele><time>2026-03-22T08:29:42.314Z</time></trkpt><trkpt lat="43.1421587" lon="13.3331785"><ele>247.39999999999998</ele><time>2026-03-22T08:29:43.314Z</time></trkpt><trkpt lat="43.1420614" lon="13.3331717"><ele>247.60000000000002</ele><time>2026-03-22T08:29:44.314Z</time></trkpt><trkpt lat="43.141963" lon="13.3331685"><ele>247.8</ele><time>2026-03-22T08:29:45.314Z</time></trkpt><trkpt lat="43.1418664" lon="13.3331616"><ele>248.0</ele><time>2026-03-22T08:29:46.314Z</time></trkpt><trkpt lat="43.1417716" lon="13.3331583"><ele>248.0</ele><time>2026-03-22T08:29:47.314Z</time></trkpt><trkpt lat="43.1416716" lon="13.3331495"><ele>248.0</ele><time>2026-03-22T08:29:48.314Z</time></trkpt><trkpt lat="43.1415689" lon="13.3331404"><ele>248.0</ele><time>2026-03-22T08:29:49.314Z</time></trkpt><trkpt lat="43.1414661" lon="13.3331347"><ele>248.0</ele><time>2026-03-22T08:29:50.314Z</time></trkpt><trkpt lat="43.14136" lon="13.3331264"><ele>248.0</ele><time>2026-03-22T08:29:51.314Z</time></trkpt><trkpt lat="43.1412557" lon="13.3331184"><ele>248.60000000000002</ele><time>2026-03-22T08:29:52.314Z</time></trkpt><trkpt lat="43.1411445" lon="13.3331079"><ele>249.20000000000002</ele><time>2026-03-22T08:29:53.314Z</time></trkpt><trkpt lat="43.141043" lon="13.3330955"><ele>249.8</ele><time>2026-03-22T08:29:54.314Z</time></trkpt><trkpt lat="43.1409352" lon="13.3330875"><ele>250.4</ele><time>2026-03-22T08:29:55.314Z</time></trkpt><trkpt lat="43.1408274" lon="13.3330837"><ele>251.0</ele><time>2026-03-22T08:29:56.314Z</time></trkpt><trkpt lat="43.1407202" lon="13.3330797"><ele>251.20000000000002</ele><time>2026-03-22T08:29:57.314Z</time></trkpt><trkpt lat="43.1406133" lon="13.3330716"><ele>251.40000000000003</ele><time>2026-03-22T08:29:58.314Z</time></trkpt><trkpt lat="43.1405135" lon="13.3330628"><ele>251.6</ele><time>2026-03-22T08:29:59.314Z</time></trkpt><trkpt lat="43.1404106" lon="13.3330577"><ele>251.8</ele><time>2026-03-22T08:30:00.314Z</time></trkpt><trkpt lat="43.1403067" lon="13.3330516"><ele>252.0</ele><time>2026-03-22T08:30:01.314Z</time></trkpt><trkpt lat="43.1402057" lon="13.3330506"><ele>252.8</ele><time>2026-03-22T08:30:02.314Z</time></trkpt><trkpt lat="43.1400966" lon="13.3330505"><ele>253.6</ele><time>2026-03-22T08:30:03.314Z</time></trkpt><trkpt lat="43.139986" lon="13.3330487"><ele>254.40000000000003</ele><time>2026-03-22T08:30:04.314Z</time></trkpt><trkpt lat="43.1398739" lon="13.333062"><ele>255.20000000000002</ele><time>2026-03-22T08:30:05.314Z</time></trkpt><trkpt lat="43.1397675" lon="13.3330845"><ele>256.0</ele><time>2026-03-22T08:30:06.314Z</time></trkpt><trkpt lat="43.1396683" lon="13.333115"><ele>256.0</ele><time>2026-03-22T08:30:07.314Z</time></trkpt><trkpt lat="43.1395796" lon="13.3331506"><ele>256.0</ele><time>2026-03-22T08:30:08.314Z</time></trkpt><trkpt lat="43.1394956" lon="13.3332086"><ele>256.0</ele><time>2026-03-22T08:30:09.314Z</time></trkpt><trkpt lat="43.1394132" lon="13.3332793"><ele>256.0</ele><time>2026-03-22T08:30:10.314Z</time></trkpt><trkpt lat="43.1393314" lon="13.3333554"><ele>256.0</ele><time>2026-03-22T08:30:11.314Z</time></trkpt><trkpt lat="43.1392538" lon="13.3334388"><ele>256.0</ele><time>2026-03-22T08:30:12.314Z</time></trkpt><trkpt lat="43.1391793" lon="13.3335189"><ele>256.0</ele><time>2026-03-22T08:30:13.314Z</time></trkpt><trkpt lat="43.1391075" lon="13.3336044"><ele>256.0</ele><time>2026-03-22T08:30:14.314Z</time></trkpt><trkpt lat="43.1390351" lon="13.3336946"><ele>256.0</ele><time>2026-03-22T08:30:15.314Z</time></trkpt><trkpt lat="43.1389628" lon="13.3337859"><ele>256.0</ele><time>2026-03-22T08:30:16.314Z</time></trkpt><trkpt lat="43.1388729" lon="13.3338638"><ele>256.8</ele><time>2026-03-22T08:30:17.314Z</time></trkpt><trkpt lat="43.138784" lon="13.3339325"><ele>257.6</ele><time>2026-03-22T08:30:18.314Z</time></trkpt><trkpt lat="43.1386856" lon="13.3339782"><ele>258.4</ele><time>2026-03-22T08:30:19.313Z</time></trkpt><trkpt lat="43.1385862" lon="13.3340088"><ele>259.2</ele><time>2026-03-22T08:30:20.314Z</time></trkpt><trkpt lat="43.1384832" lon="13.3340223"><ele>260.0</ele><time>2026-03-22T08:30:21.314Z</time></trkpt><trkpt lat="43.1383773" lon="13.3340122"><ele>260.0</ele><time>2026-03-22T08:30:22.314Z</time></trkpt><trkpt lat="43.1382727" lon="13.3339964"><ele>260.0</ele><time>2026-03-22T08:30:23.314Z</time></trkpt><trkpt lat="43.1381717" lon="13.33397"><ele>260.0</ele><time>2026-03-22T08:30:24.314Z</time></trkpt><trkpt lat="43.1380714" lon="13.3339381"><ele>260.0</ele><time>2026-03-22T08:30:25.314Z</time></trkpt><trkpt lat="43.1379771" lon="13.3339063"><ele>260.0</ele><time>2026-03-22T08:30:26.314Z</time></trkpt><trkpt lat="43.1378859" lon="13.3338908"><ele>260.0</ele><time>2026-03-22T08:30:27.314Z</time></trkpt><trkpt lat="43.1377937" lon="13.3338877"><ele>260.0</ele><time>2026-03-22T08:30:28.314Z</time></trkpt><trkpt lat="43.1377024" lon="13.3338907"><ele>260.0</ele><time>2026-03-22T08:30:29.314Z</time></trkpt><trkpt lat="43.1376113" lon="13.3339109"><ele>260.0</ele><time>2026-03-22T08:30:30.314Z</time></trkpt><trkpt lat="43.137521" lon="13.3339347"><ele>260.0</ele><time>2026-03-22T08:30:31.314Z</time></trkpt><trkpt lat="43.1374315" lon="13.3339527"><ele>260.6</ele><time>2026-03-22T08:30:32.314Z</time></trkpt><trkpt lat="43.1373388" lon="13.3339587"><ele>261.2</ele><time>2026-03-22T08:30:33.314Z</time></trkpt><trkpt lat="43.1372451" lon="13.3339427"><ele>261.8</ele><time>2026-03-22T08:30:34.314Z</time></trkpt><trkpt lat="43.1371521" lon="13.3339133"><ele>262.4</ele><time>2026-03-22T08:30:35.314Z</time></trkpt><trkpt lat="43.1370677" lon="13.3338742"><ele>263.0</ele><time>2026-03-22T08:30:36.313Z</time></trkpt><trkpt lat="43.1369839" lon="13.3338424"><ele>263.1666666666667</ele><time>2026-03-22T08:30:37.314Z</time></trkpt><trkpt lat="43.136905" lon="13.3338165"><ele>263.33333333333337</ele><time>2026-03-22T08:30:38.314Z</time></trkpt><trkpt lat="43.1368263" lon="13.333798"><ele>263.5</ele><time>2026-03-22T08:30:39.314Z</time></trkpt><trkpt lat="43.1367545" lon="13.3337874"><ele>263.6666666666667</ele><time>2026-03-22T08:30:40.314Z</time></trkpt><trkpt lat="43.1366893" lon="13.3337903"><ele>263.8333333333333</ele><time>2026-03-22T08:30:41.314Z</time></trkpt><trkpt lat="43.1365768" lon="13.3337982"><ele>264.0</ele><time>2026-03-22T08:30:43.314Z</time></trkpt><trkpt lat="43.1364777" lon="13.3338173"><ele>264.6666666666667</ele><time>2026-03-22T08:30:45.314Z</time></trkpt><trkpt lat="43.1364055" lon="13.3338479"><ele>265.3333333333333</ele><time>2026-03-22T08:30:47.314Z</time></trkpt><trkpt lat="43.1363004" lon="13.3338898"><ele>266.0</ele><time>2026-03-22T08:30:49.314Z</time></trkpt><trkpt lat="43.1362243" lon="13.3339213"><ele>266.66666666666663</ele><time>2026-03-22T08:30:50.314Z</time></trkpt><trkpt lat="43.1361515" lon="13.3339544"><ele>267.3333333333333</ele><time>2026-03-22T08:30:51.314Z</time></trkpt><trkpt lat="43.1360758" lon="13.3339857"><ele>268.0</ele><time>2026-03-22T08:30:52.314Z</time></trkpt><trkpt lat="43.1359863" lon="13.3340255"><ele>268.0</ele><time>2026-03-22T08:30:53.314Z</time></trkpt><trkpt lat="43.1358831" lon="13.3340709"><ele>268.0</ele><time>2026-03-22T08:30:54.314Z</time></trkpt><trkpt lat="43.1357897" lon="13.3341209"><ele>268.0</ele><time>2026-03-22T08:30:55.314Z</time></trkpt><trkpt lat="43.1356988" lon="13.334165"><ele>268.0</ele><time>2026-03-22T08:30:56.314Z</time></trkpt><trkpt lat="43.1356049" lon="13.3342122"><ele>268.0</ele><time>2026-03-22T08:30:57.314Z</time></trkpt><trkpt lat="43.1355122" lon="13.3342649"><ele>268.5</ele><time>2026-03-22T08:30:58.314Z</time></trkpt><trkpt lat="43.1354193" lon="13.3343153"><ele>269.0</ele><time>2026-03-22T08:30:59.314Z</time></trkpt><trkpt lat="43.1353344" lon="13.3343633"><ele>269.5</ele><time>2026-03-22T08:31:00.314Z</time></trkpt><trkpt lat="43.1352498" lon="13.3343933"><ele>270.0</ele><time>2026-03-22T08:31:01.314Z</time></trkpt><trkpt lat="43.13517" lon="13.3344058"><ele>270.5</ele><time>2026-03-22T08:31:02.314Z</time></trkpt><trkpt lat="43.1350879" lon="13.3344013"><ele>271.0</ele><time>2026-03-22T08:31:03.314Z</time></trkpt><trkpt lat="43.1350094" lon="13.3343641"><ele>271.0</ele><time>2026-03-22T08:31:04.314Z</time></trkpt><trkpt lat="43.1349307" lon="13.3343211"><ele>271.0</ele><time>2026-03-22T08:31:05.314Z</time></trkpt><trkpt lat="43.1348526" lon="13.3342678"><ele>271.0</ele><time>2026-03-22T08:31:06.314Z</time></trkpt><trkpt lat="43.1347729" lon="13.3342095"><ele>271.0</ele><time>2026-03-22T08:31:07.314Z</time></trkpt><trkpt lat="43.1346933" lon="13.3341496"><ele>271.0</ele><time>2026-03-22T08:31:08.314Z</time></trkpt><trkpt lat="43.13461" lon="13.3340884"><ele>271.0</ele><time>2026-03-22T08:31:09.314Z</time></trkpt><trkpt lat="43.1345326" lon="13.3340203"><ele>270.6</ele><time>2026-03-22T08:31:10.314Z</time></trkpt><trkpt lat="43.1344491" lon="13.3339523"><ele>270.20000000000005</ele><time>2026-03-22T08:31:11.313Z</time></trkpt><trkpt lat="43.1343607" lon="13.3338947"><ele>269.79999999999995</ele><time>2026-03-22T08:31:12.314Z</time></trkpt><trkpt lat="43.1342815" lon="13.3338264"><ele>269.4</ele><time>2026-03-22T08:31:13.314Z</time></trkpt><trkpt lat="43.1342014" lon="13.3337588"><ele>269.0</ele><time>2026-03-22T08:31:14.314Z</time></trkpt><trkpt lat="43.1341339" lon="13.333691"><ele>269.0</ele><time>2026-03-22T08:31:15.314Z</time></trkpt><trkpt lat="43.1340668" lon="13.3336172"><ele>269.0</ele><time>2026-03-22T08:31:16.314Z</time></trkpt><trkpt lat="43.1339928" lon="13.3335583"><ele>269.0</ele><time>2026-03-22T08:31:17.314Z</time></trkpt><trkpt lat="43.1339211" lon="13.3335003"><ele>269.0</ele><time>2026-03-22T08:31:18.314Z</time></trkpt><trkpt lat="43.1338447" lon="13.333454"><ele>269.0</ele><time>2026-03-22T08:31:19.313Z</time></trkpt><trkpt lat="43.1337597" lon="13.3334236"><ele>269.0</ele><time>2026-03-22T08:31:20.314Z</time></trkpt><trkpt lat="43.1336705" lon="13.3334327"><ele>269.8571428571429</ele><time>2026-03-22T08:31:21.314Z</time></trkpt><trkpt lat="43.1335872" lon="13.3334393"><ele>270.7142857142857</ele><time>2026-03-22T08:31:22.314Z</time></trkpt><trkpt lat="43.1335186" lon="13.3334907"><ele>271.57142857142856</ele><time>2026-03-22T08:31:23.314Z</time></trkpt><trkpt lat="43.1334585" lon="13.333541"><ele>272.42857142857144</ele><time>2026-03-22T08:31:24.314Z</time></trkpt><trkpt lat="43.1334037" lon="13.3335948"><ele>273.2857142857143</ele><time>2026-03-22T08:31:25.314Z</time></trkpt><trkpt lat="43.1333513" lon="13.3336521"><ele>274.14285714285717</ele><time>2026-03-22T08:31:26.314Z</time></trkpt><trkpt lat="43.1332994" lon="13.3337163"><ele>275.0</ele><time>2026-03-22T08:31:27.314Z</time></trkpt><trkpt lat="43.1332472" lon="13.3337767"><ele>275.83333333333337</ele><time>2026-03-22T08:31:28.314Z</time></trkpt><trkpt lat="43.1331864" lon="13.3338387"><ele>276.6666666666667</ele><time>2026-03-22T08:31:29.314Z</time></trkpt><trkpt lat="43.1331172" lon="13.3338971"><ele>277.5</ele><time>2026-03-22T08:31:30.314Z</time></trkpt><trkpt lat="43.133047" lon="13.333968"><ele>278.3333333333333</ele><time>2026-03-22T08:31:31.314Z</time></trkpt><trkpt lat="43.1329723" lon="13.3340334"><ele>279.16666666666663</ele><time>2026-03-22T08:31:32.314Z</time></trkpt><trkpt lat="43.1329094" lon="13.334105"><ele>280.0</ele><time>2026-03-22T08:31:33.314Z</time></trkpt><trkpt lat="43.1328452" lon="13.3341762"><ele>280.0</ele><time>2026-03-22T08:31:34.314Z</time></trkpt><trkpt lat="43.1327821" lon="13.3342438"><ele>280.0</ele><time>2026-03-22T08:31:35.314Z</time></trkpt><trkpt lat="43.1327152" lon="13.3343165"><ele>280.0</ele><time>2026-03-22T08:31:36.314Z</time></trkpt><trkpt lat="43.1326532" lon="13.3343837"><ele>280.0</ele><time>2026-03-22T08:31:37.314Z</time></trkpt><trkpt lat="43.1325922" lon="13.334453"><ele>280.0</ele><time>2026-03-22T08:31:38.314Z</time></trkpt><trkpt lat="43.1325336" lon="13.3345335"><ele>280.0</ele><time>2026-03-22T08:31:39.314Z</time></trkpt><trkpt lat="43.1324648" lon="13.3346024"><ele>280.0</ele><time>2026-03-22T08:31:40.314Z</time></trkpt><trkpt lat="43.1324036" lon="13.3346789"><ele>280.0</ele><time>2026-03-22T08:31:41.314Z</time></trkpt><trkpt lat="43.1323269" lon="13.3347575"><ele>280.0</ele><time>2026-03-22T08:31:42.314Z</time></trkpt><trkpt lat="43.1322574" lon="13.3348397"><ele>280.0</ele><time>2026-03-22T08:31:43.314Z</time></trkpt><trkpt lat="43.1321757" lon="13.3349137"><ele>280.0</ele><time>2026-03-22T08:31:44.314Z</time></trkpt><trkpt lat="43.1320979" lon="13.3349892"><ele>281.0</ele><time>2026-03-22T08:31:45.314Z</time></trkpt><trkpt lat="43.1320236" lon="13.3350638"><ele>282.0</ele><time>2026-03-22T08:31:46.314Z</time></trkpt><trkpt lat="43.1319478" lon="13.3351301"><ele>283.0</ele><time>2026-03-22T08:31:47.314Z</time></trkpt><trkpt lat="43.131857" lon="13.3352207"><ele>284.0</ele><time>2026-03-22T08:31:48.314Z</time></trkpt><trkpt lat="43.1317772" lon="13.3353074"><ele>285.0</ele><time>2026-03-22T08:31:49.314Z</time></trkpt><trkpt lat="43.131703" lon="13.3353945"><ele>285.0</ele><time>2026-03-22T08:31:50.314Z</time></trkpt><trkpt lat="43.1316251" lon="13.3354851"><ele>285.0</ele><time>2026-03-22T08:31:51.314Z</time></trkpt><trkpt lat="43.131548" lon="13.3355651"><ele>285.0</ele><time>2026-03-22T08:31:52.314Z</time></trkpt><trkpt lat="43.1314682" lon="13.3356454"><ele>285.0</ele><time>2026-03-22T08:31:53.314Z</time></trkpt><trkpt lat="43.1314005" lon="13.3357192"><ele>285.0</ele><time>2026-03-22T08:31:54.314Z</time></trkpt><trkpt lat="43.1313325" lon="13.3357907"><ele>284.6666666666667</ele><time>2026-03-22T08:31:55.314Z</time></trkpt><trkpt lat="43.1312597" lon="13.3358539"><ele>284.3333333333333</ele><time>2026-03-22T08:31:56.314Z</time></trkpt><trkpt lat="43.1311772" lon="13.3359045"><ele>284.0</ele><time>2026-03-22T08:31:57.314Z</time></trkpt><trkpt lat="43.1310942" lon="13.3359478"><ele>283.66666666666663</ele><time>2026-03-22T08:31:58.314Z</time></trkpt><trkpt lat="43.1310102" lon="13.3359992"><ele>283.3333333333333</ele><time>2026-03-22T08:31:59.314Z</time></trkpt><trkpt lat="43.1309279" lon="13.3360472"><ele>283.0</ele><time>2026-03-22T08:32:00.314Z</time></trkpt><trkpt lat="43.1308416" lon="13.3361035"><ele>283.0</ele><time>2026-03-22T08:32:01.314Z</time></trkpt><trkpt lat="43.1307513" lon="13.3361641"><ele>283.0</ele><time>2026-03-22T08:32:02.314Z</time></trkpt><trkpt lat="43.130663" lon="13.3362218"><ele>283.0</ele><time>2026-03-22T08:32:03.314Z</time></trkpt><trkpt lat="43.1305755" lon="13.3362779"><ele>283.0</ele><time>2026-03-22T08:32:04.314Z</time></trkpt><trkpt lat="43.1304862" lon="13.3363262"><ele>283.0</ele><time>2026-03-22T08:32:05.314Z</time></trkpt><trkpt lat="43.1303964" lon="13.3363669"><ele>283.0</ele><time>2026-03-22T08:32:06.314Z</time></trkpt><trkpt lat="43.1303017" lon="13.3363903"><ele>283.0</ele><time>2026-03-22T08:32:07.314Z</time></trkpt><trkpt lat="43.1302179" lon="13.3364044"><ele>283.0</ele><time>2026-03-22T08:32:08.314Z</time></trkpt><trkpt lat="43.1301388" lon="13.3364159"><ele>283.0</ele><time>2026-03-22T08:32:09.314Z</time></trkpt><trkpt lat="43.1300543" lon="13.3364265"><ele>283.0</ele><time>2026-03-22T08:32:10.314Z</time></trkpt><trkpt lat="43.1299709" lon="13.3364371"><ele>283.0</ele><time>2026-03-22T08:32:11.314Z</time></trkpt><trkpt lat="43.1298828" lon="13.3364535"><ele>283.0</ele><time>2026-03-22T08:32:12.314Z</time></trkpt><trkpt lat="43.1297971" lon="13.33646"><ele>283.0</ele><time>2026-03-22T08:32:13.314Z</time></trkpt><trkpt lat="43.1297063" lon="13.3364738"><ele>283.0</ele><time>2026-03-22T08:32:14.314Z</time></trkpt><trkpt lat="43.1296168" lon="13.3364858"><ele>283.0</ele><time>2026-03-22T08:32:15.314Z</time></trkpt><trkpt lat="43.1295235" lon="13.3364954"><ele>283.0</ele><time>2026-03-22T08:32:16.314Z</time></trkpt><trkpt lat="43.1294345" lon="13.3365064"><ele>283.0</ele><time>2026-03-22T08:32:17.314Z</time></trkpt><trkpt lat="43.1293424" lon="13.3365193"><ele>283.0</ele><time>2026-03-22T08:32:18.314Z</time></trkpt><trkpt lat="43.129252" lon="13.3365356"><ele>283.0</ele><time>2026-03-22T08:32:19.314Z</time></trkpt><trkpt lat="43.1291608" lon="13.3365574"><ele>283.0</ele><time>2026-03-22T08:32:20.314Z</time></trkpt><trkpt lat="43.1290694" lon="13.3365735"><ele>283.0</ele><time>2026-03-22T08:32:21.313Z</time></trkpt><trkpt lat="43.1289811" lon="13.3365873"><ele>284.0</ele><time>2026-03-22T08:32:22.314Z</time></trkpt><trkpt lat="43.1288965" lon="13.336605"><ele>285.0</ele><time>2026-03-22T08:32:23.314Z</time></trkpt><trkpt lat="43.1288018" lon="13.3366146"><ele>286.0</ele><time>2026-03-22T08:32:24.314Z</time></trkpt><trkpt lat="43.1287072" lon="13.3366291"><ele>287.0</ele><time>2026-03-22T08:32:25.314Z</time></trkpt><trkpt lat="43.1286204" lon="13.3366431"><ele>288.0</ele><time>2026-03-22T08:32:26.314Z</time></trkpt><trkpt lat="43.1285302" lon="13.3366543"><ele>288.0</ele><time>2026-03-22T08:32:27.314Z</time></trkpt><trkpt lat="43.1284359" lon="13.3366642"><ele>288.0</ele><time>2026-03-22T08:32:28.313Z</time></trkpt><trkpt lat="43.1283399" lon="13.3366726"><ele>288.0</ele><time>2026-03-22T08:32:29.314Z</time></trkpt><trkpt lat="43.1282445" lon="13.3366781"><ele>288.0</ele><time>2026-03-22T08:32:30.314Z</time></trkpt><trkpt lat="43.1281511" lon="13.3366914"><ele>288.0</ele><time>2026-03-22T08:32:31.314Z</time></trkpt><trkpt lat="43.1280637" lon="13.3366969"><ele>288.8333333333333</ele><time>2026-03-22T08:32:32.314Z</time></trkpt><trkpt lat="43.1279753" lon="13.3367102"><ele>289.6666666666667</ele><time>2026-03-22T08:32:33.313Z</time></trkpt><trkpt lat="43.1278882" lon="13.3367172"><ele>290.5</ele><time>2026-03-22T08:32:34.314Z</time></trkpt><trkpt lat="43.1278026" lon="13.3367231"><ele>291.33333333333337</ele><time>2026-03-22T08:32:35.314Z</time></trkpt><trkpt lat="43.1277164" lon="13.3367179"><ele>292.1666666666667</ele><time>2026-03-22T08:32:36.314Z</time></trkpt><trkpt lat="43.1276333" lon="13.3367347"><ele>293.0</ele><time>2026-03-22T08:32:37.313Z</time></trkpt><trkpt lat="43.1275415" lon="13.3367655"><ele>293.0</ele><time>2026-03-22T08:32:38.314Z</time></trkpt><trkpt lat="43.1274554" lon="13.3368015"><ele>293.0</ele><time>2026-03-22T08:32:39.314Z</time></trkpt><trkpt lat="43.1273717" lon="13.3368566"><ele>293.0</ele><time>2026-03-22T08:32:40.314Z</time></trkpt><trkpt lat="43.1272938" lon="13.3369091"><ele>293.0</ele><time>2026-03-22T08:32:41.314Z</time></trkpt><trkpt lat="43.1272128" lon="13.3369588"><ele>293.0</ele><time>2026-03-22T08:32:42.314Z</time></trkpt><trkpt lat="43.1271352" lon="13.3370153"><ele>293.0</ele><time>2026-03-22T08:32:43.314Z</time></trkpt><trkpt lat="43.1270526" lon="13.3370711"><ele>293.6</ele><time>2026-03-22T08:32:44.314Z</time></trkpt><trkpt lat="43.1269716" lon="13.3371269"><ele>294.20000000000005</ele><time>2026-03-22T08:32:45.314Z</time></trkpt><trkpt lat="43.1268869" lon="13.337184"><ele>294.8</ele><time>2026-03-22T08:32:46.314Z</time></trkpt><trkpt lat="43.1268018" lon="13.3372485"><ele>295.40000000000003</ele><time>2026-03-22T08:32:47.314Z</time></trkpt><trkpt lat="43.1267163" lon="13.3373192"><ele>296.0</ele><time>2026-03-22T08:32:48.314Z</time></trkpt><trkpt lat="43.1266339" lon="13.3373911"><ele>296.6</ele><time>2026-03-22T08:32:49.314Z</time></trkpt><trkpt lat="43.1265506" lon="13.3374588"><ele>297.20000000000005</ele><time>2026-03-22T08:32:50.313Z</time></trkpt><trkpt lat="43.1264653" lon="13.3375302"><ele>297.79999999999995</ele><time>2026-03-22T08:32:51.314Z</time></trkpt><trkpt lat="43.1263804" lon="13.3375986"><ele>298.4</ele><time>2026-03-22T08:32:52.314Z</time></trkpt><trkpt lat="43.1262947" lon="13.3376662"><ele>299.0</ele><time>2026-03-22T08:32:53.314Z</time></trkpt><trkpt lat="43.1262113" lon="13.3377353"><ele>299.0</ele><time>2026-03-22T08:32:54.314Z</time></trkpt><trkpt lat="43.1261261" lon="13.3378065"><ele>299.0</ele><time>2026-03-22T08:32:55.314Z</time></trkpt><trkpt lat="43.1260395" lon="13.3378762"><ele>299.0</ele><time>2026-03-22T08:32:56.314Z</time></trkpt><trkpt lat="43.1259532" lon="13.3379485"><ele>299.0</ele><time>2026-03-22T08:32:57.314Z</time></trkpt><trkpt lat="43.1258716" lon="13.3380165"><ele>299.0</ele><time>2026-03-22T08:32:58.314Z</time></trkpt><trkpt lat="43.1257998" lon="13.3380806"><ele>299.57142857142856</ele><time>2026-03-22T08:32:59.314Z</time></trkpt><trkpt lat="43.1257304" lon="13.3381389"><ele>300.14285714285717</ele><time>2026-03-22T08:33:00.314Z</time></trkpt><trkpt lat="43.1256624" lon="13.3381964"><ele>300.7142857142857</ele><time>2026-03-22T08:33:01.314Z</time></trkpt><trkpt lat="43.1255968" lon="13.338252"><ele>301.2857142857143</ele><time>2026-03-22T08:33:02.314Z</time></trkpt><trkpt lat="43.1255436" lon="13.3382997"><ele>301.85714285714283</ele><time>2026-03-22T08:33:03.314Z</time></trkpt><trkpt lat="43.1254854" lon="13.3383515"><ele>302.42857142857144</ele><time>2026-03-22T08:33:04.314Z</time></trkpt><trkpt lat="43.1254238" lon="13.3384081"><ele>303.0</ele><time>2026-03-22T08:33:05.314Z</time></trkpt><trkpt lat="43.1253601" lon="13.3384663"><ele>303.1666666666667</ele><time>2026-03-22T08:33:06.314Z</time></trkpt><trkpt lat="43.1252948" lon="13.3385287"><ele>303.3333333333333</ele><time>2026-03-22T08:33:07.314Z</time></trkpt><trkpt lat="43.1252237" lon="13.3385905"><ele>303.5</ele><time>2026-03-22T08:33:08.314Z</time></trkpt><trkpt lat="43.1251553" lon="13.3386525"><ele>303.66666666666663</ele><time>2026-03-22T08:33:09.314Z</time></trkpt><trkpt lat="43.1250868" lon="13.3387177"><ele>303.8333333333333</ele><time>2026-03-22T08:33:10.313Z</time></trkpt><trkpt lat="43.125017" lon="13.3387778"><ele>304.0</ele><time>2026-03-22T08:33:11.314Z</time></trkpt><trkpt lat="43.1249517" lon="13.3388338"><ele>305.0</ele><time>2026-03-22T08:33:12.314Z</time></trkpt><trkpt lat="43.1248824" lon="13.3388878"><ele>306.0</ele><time>2026-03-22T08:33:13.314Z</time></trkpt><trkpt lat="43.1248029" lon="13.3389541"><ele>307.0</ele><time>2026-03-22T08:33:14.314Z</time></trkpt><trkpt lat="43.1247224" lon="13.3390205"><ele>308.0</ele><time>2026-03-22T08:33:15.314Z</time></trkpt><trkpt lat="43.1246414" lon="13.3390925"><ele>309.0</ele><time>2026-03-22T08:33:16.314Z</time></trkpt><trkpt lat="43.1245636" lon="13.3391586"><ele>309.0</ele><time>2026-03-22T08:33:17.314Z</time></trkpt><trkpt lat="43.1244872" lon="13.3392214"><ele>309.0</ele><time>2026-03-22T08:33:18.314Z</time></trkpt><trkpt lat="43.1244073" lon="13.3392875"><ele>309.0</ele><time>2026-03-22T08:33:19.314Z</time></trkpt><trkpt lat="43.1243222" lon="13.3393575"><ele>309.0</ele><time>2026-03-22T08:33:20.314Z</time></trkpt><trkpt lat="43.1242313" lon="13.3394358"><ele>309.0</ele><time>2026-03-22T08:33:21.313Z</time></trkpt><trkpt lat="43.1241447" lon="13.3395071"><ele>309.8</ele><time>2026-03-22T08:33:22.314Z</time></trkpt><trkpt lat="43.1240596" lon="13.3395799"><ele>310.59999999999997</ele><time>2026-03-22T08:33:23.314Z</time></trkpt><trkpt lat="43.1239808" lon="13.3396444"><ele>311.4</ele><time>2026-03-22T08:33:24.314Z</time></trkpt><trkpt lat="43.1239104" lon="13.3396968"><ele>312.2</ele><time>2026-03-22T08:33:25.314Z</time></trkpt><trkpt lat="43.1238466" lon="13.3397377"><ele>313.0</ele><time>2026-03-22T08:33:26.314Z</time></trkpt><trkpt lat="43.1237245" lon="13.3398006"><ele>313.16666666666663</ele><time>2026-03-22T08:33:28.314Z</time></trkpt><trkpt lat="43.1236071" lon="13.3398211"><ele>313.3333333333333</ele><time>2026-03-22T08:33:30.314Z</time></trkpt><trkpt lat="43.1235143" lon="13.3398159"><ele>313.5</ele><time>2026-03-22T08:33:32.313Z</time></trkpt><trkpt lat="43.1234492" lon="13.3397909"><ele>313.6666666666667</ele><time>2026-03-22T08:33:34.314Z</time></trkpt><trkpt lat="43.1233773" lon="13.3397803"><ele>313.83333333333337</ele><time>2026-03-22T08:33:42.314Z</time></trkpt><trkpt lat="43.1232817" lon="13.3397516"><ele>314.0</ele><time>2026-03-22T08:33:44.314Z</time></trkpt><trkpt lat="43.1231603" lon="13.3397308"><ele>314.83333333333337</ele><time>2026-03-22T08:33:46.314Z</time></trkpt><trkpt lat="43.1230339" lon="13.3397078"><ele>315.6666666666667</ele><time>2026-03-22T08:33:48.314Z</time></trkpt><trkpt lat="43.1229661" lon="13.3397014"><ele>316.5</ele><time>2026-03-22T08:33:49.314Z</time></trkpt><trkpt lat="43.1228926" lon="13.3396952"><ele>317.3333333333333</ele><time>2026-03-22T08:33:50.314Z</time></trkpt><trkpt lat="43.1228147" lon="13.3396818"><ele>318.16666666666663</ele><time>2026-03-22T08:33:51.314Z</time></trkpt><trkpt lat="43.1227353" lon="13.3396729"><ele>319.0</ele><time>2026-03-22T08:33:52.314Z</time></trkpt><trkpt lat="43.1226557" lon="13.3396565"><ele>319.0</ele><time>2026-03-22T08:33:53.314Z</time></trkpt><trkpt lat="43.1225693" lon="13.339638"><ele>319.0</ele><time>2026-03-22T08:33:54.314Z</time></trkpt><trkpt lat="43.122479" lon="13.3396212"><ele>319.0</ele><time>2026-03-22T08:33:55.314Z</time></trkpt><trkpt lat="43.1223895" lon="13.339602"><ele>319.0</ele><time>2026-03-22T08:33:56.314Z</time></trkpt><trkpt lat="43.122298" lon="13.3395772"><ele>319.0</ele><time>2026-03-22T08:33:57.314Z</time></trkpt><trkpt lat="43.1222084" lon="13.3395513"><ele>320.4</ele><time>2026-03-22T08:33:58.314Z</time></trkpt><trkpt lat="43.1221092" lon="13.3395265"><ele>321.79999999999995</ele><time>2026-03-22T08:33:59.314Z</time></trkpt><trkpt lat="43.1220211" lon="13.3395076"><ele>323.20000000000005</ele><time>2026-03-22T08:34:00.313Z</time></trkpt><trkpt lat="43.1219311" lon="13.339493"><ele>324.6</ele><time>2026-03-22T08:34:01.314Z</time></trkpt><trkpt lat="43.1218418" lon="13.3394735"><ele>326.0</ele><time>2026-03-22T08:34:02.314Z</time></trkpt><trkpt lat="43.1217542" lon="13.3394471"><ele>326.0</ele><time>2026-03-22T08:34:03.314Z</time></trkpt><trkpt lat="43.1216646" lon="13.3394139"><ele>326.0</ele><time>2026-03-22T08:34:04.314Z</time></trkpt><trkpt lat="43.1215771" lon="13.3393828"><ele>326.0</ele><time>2026-03-22T08:34:05.313Z</time></trkpt><trkpt lat="43.121494" lon="13.3393483"><ele>326.0</ele><time>2026-03-22T08:34:06.314Z</time></trkpt><trkpt lat="43.1214053" lon="13.3393128"><ele>326.0</ele><time>2026-03-22T08:34:07.314Z</time></trkpt><trkpt lat="43.1213135" lon="13.3392921"><ele>327.6</ele><time>2026-03-22T08:34:08.314Z</time></trkpt><trkpt lat="43.1212205" lon="13.3392653"><ele>329.20000000000005</ele><time>2026-03-22T08:34:09.314Z</time></trkpt><trkpt lat="43.1211323" lon="13.3392402"><ele>330.79999999999995</ele><time>2026-03-22T08:34:10.314Z</time></trkpt><trkpt lat="43.1210483" lon="13.3392126"><ele>332.4</ele><time>2026-03-22T08:34:11.314Z</time></trkpt><trkpt lat="43.1209639" lon="13.3391864"><ele>334.0</ele><time>2026-03-22T08:34:12.313Z</time></trkpt><trkpt lat="43.1208719" lon="13.3391668"><ele>334.0</ele><time>2026-03-22T08:34:13.314Z</time></trkpt><trkpt lat="43.1207772" lon="13.339143"><ele>334.0</ele><time>2026-03-22T08:34:14.314Z</time></trkpt><trkpt lat="43.120685" lon="13.33911"><ele>334.0</ele><time>2026-03-22T08:34:15.314Z</time></trkpt><trkpt lat="43.1205929" lon="13.339082"><ele>334.0</ele><time>2026-03-22T08:34:16.314Z</time></trkpt><trkpt lat="43.1205059" lon="13.339061"><ele>334.0</ele><time>2026-03-22T08:34:17.314Z</time></trkpt><trkpt lat="43.1204205" lon="13.3390355"><ele>335.6</ele><time>2026-03-22T08:34:18.314Z</time></trkpt><trkpt lat="43.1203369" lon="13.339012"><ele>337.2</ele><time>2026-03-22T08:34:19.314Z</time></trkpt><trkpt lat="43.1202478" lon="13.3389914"><ele>338.8</ele><time>2026-03-22T08:34:20.314Z</time></trkpt><trkpt lat="43.1201577" lon="13.3389714"><ele>340.40000000000003</ele><time>2026-03-22T08:34:21.314Z</time></trkpt><trkpt lat="43.1200619" lon="13.3389417"><ele>342.0</ele><time>2026-03-22T08:34:22.314Z</time></trkpt><trkpt lat="43.1199633" lon="13.3389135"><ele>343.20000000000005</ele><time>2026-03-22T08:34:23.314Z</time></trkpt><trkpt lat="43.1198636" lon="13.3388863"><ele>344.4</ele><time>2026-03-22T08:34:24.314Z</time></trkpt><trkpt lat="43.1197747" lon="13.3388637"><ele>345.6</ele><time>2026-03-22T08:34:25.314Z</time></trkpt><trkpt lat="43.1196755" lon="13.3388368"><ele>346.79999999999995</ele><time>2026-03-22T08:34:26.314Z</time></trkpt><trkpt lat="43.1195889" lon="13.3388227"><ele>348.0</ele><time>2026-03-22T08:34:27.314Z</time></trkpt><trkpt lat="43.1195006" lon="13.3388019"><ele>348.0</ele><time>2026-03-22T08:34:28.314Z</time></trkpt><trkpt lat="43.1194147" lon="13.3387776"><ele>348.0</ele><time>2026-03-22T08:34:29.313Z</time></trkpt><trkpt lat="43.1193296" lon="13.3387485"><ele>348.0</ele><time>2026-03-22T08:34:30.314Z</time></trkpt><trkpt lat="43.1192507" lon="13.3387085"><ele>348.0</ele><time>2026-03-22T08:34:31.314Z</time></trkpt><trkpt lat="43.1191702" lon="13.3386561"><ele>348.0</ele><time>2026-03-22T08:34:32.314Z</time></trkpt><trkpt lat="43.1190957" lon="13.3385885"><ele>348.0</ele><time>2026-03-22T08:34:33.314Z</time></trkpt><trkpt lat="43.1190248" lon="13.3384985"><ele>349.5</ele><time>2026-03-22T08:34:34.314Z</time></trkpt><trkpt lat="43.1189619" lon="13.3384071"><ele>351.0</ele><time>2026-03-22T08:34:35.314Z</time></trkpt><trkpt lat="43.1189085" lon="13.3383144"><ele>352.5</ele><time>2026-03-22T08:34:36.313Z</time></trkpt><trkpt lat="43.1188574" lon="13.3382196"><ele>354.0</ele><time>2026-03-22T08:34:37.314Z</time></trkpt><trkpt lat="43.1188142" lon="13.3381189"><ele>355.5</ele><time>2026-03-22T08:34:38.314Z</time></trkpt><trkpt lat="43.1187735" lon="13.3380131"><ele>357.0</ele><time>2026-03-22T08:34:39.314Z</time></trkpt><trkpt lat="43.118747" lon="13.3379067"><ele>357.0</ele><time>2026-03-22T08:34:40.314Z</time></trkpt><trkpt lat="43.1187294" lon="13.3377908"><ele>357.0</ele><time>2026-03-22T08:34:41.314Z</time></trkpt><trkpt lat="43.1187343" lon="13.3376747"><ele>357.0</ele><time>2026-03-22T08:34:42.314Z</time></trkpt><trkpt lat="43.1187627" lon="13.3375689"><ele>357.0</ele><time>2026-03-22T08:34:43.314Z</time></trkpt><trkpt lat="43.1188137" lon="13.337484"><ele>357.0</ele><time>2026-03-22T08:34:44.314Z</time></trkpt><trkpt lat="43.1188883" lon="13.3374121"><ele>357.0</ele><time>2026-03-22T08:34:45.314Z</time></trkpt><trkpt lat="43.1189708" lon="13.3373506"><ele>357.0</ele><time>2026-03-22T08:34:46.314Z</time></trkpt><trkpt lat="43.1190625" lon="13.337304"><ele>357.0</ele><time>2026-03-22T08:34:47.314Z</time></trkpt><trkpt lat="43.1191521" lon="13.3372624"><ele>357.0</ele><time>2026-03-22T08:34:48.314Z</time></trkpt><trkpt lat="43.1192366" lon="13.3372159"><ele>357.0</ele><time>2026-03-22T08:34:49.314Z</time></trkpt><trkpt lat="43.1193156" lon="13.3371536"><ele>357.0</ele><time>2026-03-22T08:34:50.314Z</time></trkpt><trkpt lat="43.119392" lon="13.3370895"><ele>357.3333333333333</ele><time>2026-03-22T08:34:51.314Z</time></trkpt><trkpt lat="43.1194571" lon="13.3370281"><ele>357.6666666666667</ele><time>2026-03-22T08:34:52.314Z</time></trkpt><trkpt lat="43.119505" lon="13.3369629"><ele>358.0</ele><time>2026-03-22T08:34:53.314Z</time></trkpt><trkpt lat="43.119553" lon="13.3368889"><ele>358.33333333333337</ele><time>2026-03-22T08:34:54.313Z</time></trkpt><trkpt lat="43.1195946" lon="13.3367955"><ele>358.6666666666667</ele><time>2026-03-22T08:34:55.314Z</time></trkpt><trkpt lat="43.1196362" lon="13.336683"><ele>359.0</ele><time>2026-03-22T08:34:56.313Z</time></trkpt><trkpt lat="43.1196794" lon="13.336559"><ele>359.0</ele><time>2026-03-22T08:34:57.314Z</time></trkpt><trkpt lat="43.1197243" lon="13.3364436"><ele>359.0</ele><time>2026-03-22T08:34:58.313Z</time></trkpt><trkpt lat="43.1197625" lon="13.3363225"><ele>359.0</ele><time>2026-03-22T08:34:59.314Z</time></trkpt><trkpt lat="43.1198045" lon="13.3362091"><ele>359.0</ele><time>2026-03-22T08:35:00.314Z</time></trkpt><trkpt lat="43.1198407" lon="13.3360912"><ele>359.0</ele><time>2026-03-22T08:35:01.314Z</time></trkpt><trkpt lat="43.1198885" lon="13.3359707"><ele>358.5</ele><time>2026-03-22T08:35:02.314Z</time></trkpt><trkpt lat="43.1199271" lon="13.3358537"><ele>358.0</ele><time>2026-03-22T08:35:03.314Z</time></trkpt><trkpt lat="43.1199529" lon="13.3357479"><ele>357.5</ele><time>2026-03-22T08:35:04.314Z</time></trkpt><trkpt lat="43.1199594" lon="13.3356395"><ele>357.0</ele><time>2026-03-22T08:35:05.314Z</time></trkpt><trkpt lat="43.1199454" lon="13.3355291"><ele>356.5</ele><time>2026-03-22T08:35:06.314Z</time></trkpt><trkpt lat="43.1199087" lon="13.3354299"><ele>356.0</ele><time>2026-03-22T08:35:07.314Z</time></trkpt><trkpt lat="43.1198602" lon="13.3353438"><ele>359.8</ele><time>2026-03-22T08:35:08.314Z</time></trkpt><trkpt lat="43.1197994" lon="13.3352904"><ele>363.6</ele><time>2026-03-22T08:35:09.313Z</time></trkpt><trkpt lat="43.1197213" lon="13.3352515"><ele>367.4</ele><time>2026-03-22T08:35:10.313Z</time></trkpt><trkpt lat="43.1196214" lon="13.3352296"><ele>371.2</ele><time>2026-03-22T08:35:11.313Z</time></trkpt><trkpt lat="43.1195109" lon="13.3352185"><ele>375.0</ele><time>2026-03-22T08:35:12.314Z</time></trkpt><trkpt lat="43.1194029" lon="13.3352182"><ele>375.0</ele><time>2026-03-22T08:35:13.314Z</time></trkpt><trkpt lat="43.1193006" lon="13.3352106"><ele>375.0</ele><time>2026-03-22T08:35:14.314Z</time></trkpt><trkpt lat="43.1191978" lon="13.3352114"><ele>375.0</ele><time>2026-03-22T08:35:15.314Z</time></trkpt><trkpt lat="43.119097" lon="13.3352143"><ele>375.0</ele><time>2026-03-22T08:35:16.314Z</time></trkpt><trkpt lat="43.1189981" lon="13.3352132"><ele>375.0</ele><time>2026-03-22T08:35:17.314Z</time></trkpt><trkpt lat="43.1189019" lon="13.3352136"><ele>377.0</ele><time>2026-03-22T08:35:18.314Z</time></trkpt><trkpt lat="43.1188081" lon="13.3352098"><ele>379.0</ele><time>2026-03-22T08:35:19.314Z</time></trkpt><trkpt lat="43.1187138" lon="13.3352084"><ele>381.0</ele><time>2026-03-22T08:35:20.314Z</time></trkpt><trkpt lat="43.1186208" lon="13.3352113"><ele>383.0</ele><time>2026-03-22T08:35:21.314Z</time></trkpt><trkpt lat="43.1185286" lon="13.3352191"><ele>385.0</ele><time>2026-03-22T08:35:22.314Z</time></trkpt><trkpt lat="43.1184301" lon="13.3352341"><ele>385.00000000000006</ele><time>2026-03-22T08:35:23.314Z</time></trkpt><trkpt lat="43.1183315" lon="13.3352462"><ele>385.0</ele><time>2026-03-22T08:35:24.314Z</time></trkpt><trkpt lat="43.1182408" lon="13.3352601"><ele>385.0</ele><time>2026-03-22T08:35:25.314Z</time></trkpt><trkpt lat="43.1181749" lon="13.3352798"><ele>385.0</ele><time>2026-03-22T08:35:26.314Z</time></trkpt><trkpt lat="43.1181028" lon="13.3352983"><ele>385.00000000000006</ele><time>2026-03-22T08:35:27.314Z</time></trkpt><trkpt lat="43.1180265" lon="13.3353206"><ele>385.0</ele><time>2026-03-22T08:35:28.314Z</time></trkpt><trkpt lat="43.1179446" lon="13.3353432"><ele>385.83333333333337</ele><time>2026-03-22T08:35:29.314Z</time></trkpt><trkpt lat="43.1178552" lon="13.3353635"><ele>386.6666666666667</ele><time>2026-03-22T08:35:30.314Z</time></trkpt><trkpt lat="43.1177657" lon="13.3353766"><ele>387.5</ele><time>2026-03-22T08:35:31.314Z</time></trkpt><trkpt lat="43.1176885" lon="13.3353894"><ele>388.33333333333337</ele><time>2026-03-22T08:35:32.314Z</time></trkpt><trkpt lat="43.1176142" lon="13.33539"><ele>389.1666666666667</ele><time>2026-03-22T08:35:33.314Z</time></trkpt><trkpt lat="43.1175462" lon="13.3353879"><ele>390.0</ele><time>2026-03-22T08:35:34.314Z</time></trkpt><trkpt lat="43.1174818" lon="13.335354"><ele>390.0</ele><time>2026-03-22T08:35:35.314Z</time></trkpt><trkpt lat="43.1174188" lon="13.3353244"><ele>390.0</ele><time>2026-03-22T08:35:36.314Z</time></trkpt><trkpt lat="43.1173285" lon="13.3352011"><ele>390.0</ele><time>2026-03-22T08:35:38.314Z</time></trkpt><trkpt lat="43.117278" lon="13.3351222"><ele>390.0</ele><time>2026-03-22T08:35:39.314Z</time></trkpt><trkpt lat="43.1172256" lon="13.3350319"><ele>390.0</ele><time>2026-03-22T08:35:40.314Z</time></trkpt><trkpt lat="43.1171819" lon="13.3349366"><ele>390.0</ele><time>2026-03-22T08:35:41.314Z</time></trkpt><trkpt lat="43.117135" lon="13.3348439"><ele>389.1666666666667</ele><time>2026-03-22T08:35:42.314Z</time></trkpt><trkpt lat="43.1170919" lon="13.3347454"><ele>388.33333333333337</ele><time>2026-03-22T08:35:43.314Z</time></trkpt><trkpt lat="43.117048" lon="13.334645"><ele>387.5</ele><time>2026-03-22T08:35:44.314Z</time></trkpt><trkpt lat="43.1170036" lon="13.334545"><ele>386.6666666666667</ele><time>2026-03-22T08:35:45.314Z</time></trkpt><trkpt lat="43.1169587" lon="13.3344437"><ele>385.83333333333337</ele><time>2026-03-22T08:35:46.314Z</time></trkpt><trkpt lat="43.1169115" lon="13.3343452"><ele>385.0</ele><time>2026-03-22T08:35:47.314Z</time></trkpt><trkpt lat="43.1168644" lon="13.334243"><ele>386.6666666666667</ele><time>2026-03-22T08:35:48.314Z</time></trkpt><trkpt lat="43.1168166" lon="13.3341416"><ele>388.33333333333337</ele><time>2026-03-22T08:35:49.314Z</time></trkpt><trkpt lat="43.1167668" lon="13.3340353"><ele>390.0</ele><time>2026-03-22T08:35:50.314Z</time></trkpt><trkpt lat="43.1167261" lon="13.333931"><ele>391.66666666666663</ele><time>2026-03-22T08:35:51.314Z</time></trkpt><trkpt lat="43.1166854" lon="13.3338308"><ele>393.3333333333333</ele><time>2026-03-22T08:35:52.314Z</time></trkpt><trkpt lat="43.1166469" lon="13.3337477"><ele>395.0</ele><time>2026-03-22T08:35:53.314Z</time></trkpt><trkpt lat="43.1166077" lon="13.3336659"><ele>397.8</ele><time>2026-03-22T08:35:54.313Z</time></trkpt><trkpt lat="43.1165332" lon="13.3335239"><ele>400.6</ele><time>2026-03-22T08:35:56.313Z</time></trkpt><trkpt lat="43.1164811" lon="13.3334157"><ele>403.4</ele><time>2026-03-22T08:35:58.314Z</time></trkpt><trkpt lat="43.1164233" lon="13.3333313"><ele>406.2</ele><time>2026-03-22T08:36:00.314Z</time></trkpt><trkpt lat="43.1163556" lon="13.3332702"><ele>409.0</ele><time>2026-03-22T08:36:02.314Z</time></trkpt><trkpt lat="43.116295" lon="13.3332244"><ele>409.00000000000006</ele><time>2026-03-22T08:36:06.314Z</time></trkpt><trkpt lat="43.1161781" lon="13.3331639"><ele>409.0</ele><time>2026-03-22T08:36:23.314Z</time></trkpt><trkpt lat="43.1161004" lon="13.3331544"><ele>409.0</ele><time>2026-03-22T08:36:24.314Z</time></trkpt><trkpt lat="43.1160211" lon="13.3331759"><ele>409.0</ele><time>2026-03-22T08:36:25.314Z</time></trkpt><trkpt lat="43.1159455" lon="13.3332126"><ele>409.00000000000006</ele><time>2026-03-22T08:36:26.314Z</time></trkpt><trkpt lat="43.1158752" lon="13.3332473"><ele>409.0</ele><time>2026-03-22T08:36:27.314Z</time></trkpt><trkpt lat="43.1157579" lon="13.3332971"><ele>410.79999999999995</ele><time>2026-03-22T08:36:29.313Z</time></trkpt><trkpt lat="43.1156641" lon="13.3333322"><ele>412.59999999999997</ele><time>2026-03-22T08:36:31.314Z</time></trkpt><trkpt lat="43.1155657" lon="13.3333607"><ele>414.4</ele><time>2026-03-22T08:36:33.314Z</time></trkpt><trkpt lat="43.115494" lon="13.3333714"><ele>416.2</ele><time>2026-03-22T08:36:36.314Z</time></trkpt><trkpt lat="43.1154091" lon="13.3333895"><ele>418.0</ele><time>2026-03-22T08:36:50.314Z</time></trkpt><trkpt lat="43.1152869" lon="13.3334128"><ele>418.00000000000006</ele><time>2026-03-22T08:36:52.314Z</time></trkpt><trkpt lat="43.115213" lon="13.3334066"><ele>418.0</ele><time>2026-03-22T08:36:53.314Z</time></trkpt><trkpt lat="43.1151434" lon="13.333385"><ele>418.0</ele><time>2026-03-22T08:36:54.314Z</time></trkpt><trkpt lat="43.1150785" lon="13.3333663"><ele>418.0</ele><time>2026-03-22T08:36:55.313Z</time></trkpt><trkpt lat="43.1149623" lon="13.3333529"><ele>418.00000000000006</ele><time>2026-03-22T08:36:57.314Z</time></trkpt><trkpt lat="43.1148863" lon="13.3333565"><ele>418.0</ele><time>2026-03-22T08:36:59.314Z</time></trkpt><trkpt lat="43.1148049" lon="13.3333576"><ele>420.0</ele><time>2026-03-22T08:37:01.314Z</time></trkpt><trkpt lat="43.1147116" lon="13.3333577"><ele>422.0</ele><time>2026-03-22T08:37:03.314Z</time></trkpt><trkpt lat="43.1146153" lon="13.3333457"><ele>423.99999999999994</ele><time>2026-03-22T08:37:05.314Z</time></trkpt><trkpt lat="43.114502" lon="13.3333547"><ele>426.0</ele><time>2026-03-22T08:37:07.314Z</time></trkpt><trkpt lat="43.1143884" lon="13.3333463"><ele>428.0</ele><time>2026-03-22T08:37:09.314Z</time></trkpt><trkpt lat="43.1142746" lon="13.3333464"><ele>428.0</ele><time>2026-03-22T08:37:11.314Z</time></trkpt><trkpt lat="43.1141468" lon="13.3333396"><ele>427.99999999999994</ele><time>2026-03-22T08:37:13.313Z</time></trkpt><trkpt lat="43.1140133" lon="13.3333267"><ele>427.99999999999994</ele><time>2026-03-22T08:37:15.314Z</time></trkpt><trkpt lat="43.1139491" lon="13.3333209"><ele>428.0</ele><time>2026-03-22T08:37:16.314Z</time></trkpt><trkpt lat="43.1138805" lon="13.3333209"><ele>428.0</ele><time>2026-03-22T08:37:17.314Z</time></trkpt><trkpt lat="43.113807" lon="13.3333166"><ele>428.8333333333333</ele><time>2026-03-22T08:37:18.314Z</time></trkpt><trkpt lat="43.113731" lon="13.3333178"><ele>429.66666666666663</ele><time>2026-03-22T08:37:19.314Z</time></trkpt><trkpt lat="43.1136531" lon="13.333335"><ele>430.5</ele><time>2026-03-22T08:37:20.314Z</time></trkpt><trkpt lat="43.1135779" lon="13.3333643"><ele>431.33333333333337</ele><time>2026-03-22T08:37:21.314Z</time></trkpt><trkpt lat="43.1135154" lon="13.3334236"><ele>432.1666666666667</ele><time>2026-03-22T08:37:22.314Z</time></trkpt><trkpt lat="43.1134593" lon="13.3334978"><ele>433.0</ele><time>2026-03-22T08:37:23.314Z</time></trkpt><trkpt lat="43.1134161" lon="13.3335826"><ele>433.00000000000006</ele><time>2026-03-22T08:37:24.314Z</time></trkpt><trkpt lat="43.1133745" lon="13.3336712"><ele>433.0</ele><time>2026-03-22T08:37:25.314Z</time></trkpt><trkpt lat="43.1133359" lon="13.3337537"><ele>433.0</ele><time>2026-03-22T08:37:26.314Z</time></trkpt><trkpt lat="43.1132791" lon="13.3338665"><ele>433.0</ele><time>2026-03-22T08:37:28.314Z</time></trkpt><trkpt lat="43.1132376" lon="13.3339444"><ele>433.00000000000006</ele><time>2026-03-22T08:37:30.314Z</time></trkpt><trkpt lat="43.1131671" lon="13.334014"><ele>433.0</ele><time>2026-03-22T08:37:32.314Z</time></trkpt><trkpt lat="43.1130983" lon="13.3340447"><ele>435.1666666666667</ele><time>2026-03-22T08:37:34.314Z</time></trkpt><trkpt lat="43.1130297" lon="13.3340361"><ele>437.33333333333337</ele><time>2026-03-22T08:37:36.313Z</time></trkpt><trkpt lat="43.1129686" lon="13.3339591"><ele>439.5</ele><time>2026-03-22T08:37:38.313Z</time></trkpt><trkpt lat="43.1129328" lon="13.3338335"><ele>441.66666666666663</ele><time>2026-03-22T08:37:40.314Z</time></trkpt><trkpt lat="43.1129191" lon="13.3336604"><ele>443.8333333333333</ele><time>2026-03-22T08:37:42.314Z</time></trkpt><trkpt lat="43.1129211" lon="13.3335626"><ele>446.0</ele><time>2026-03-22T08:37:43.314Z</time></trkpt><trkpt lat="43.1129208" lon="13.3334597"><ele>447.66666666666663</ele><time>2026-03-22T08:37:44.314Z</time></trkpt><trkpt lat="43.1129279" lon="13.3333558"><ele>449.3333333333333</ele><time>2026-03-22T08:37:45.314Z</time></trkpt><trkpt lat="43.112931" lon="13.3332499"><ele>451.0</ele><time>2026-03-22T08:37:46.314Z</time></trkpt><trkpt lat="43.1129322" lon="13.3331351"><ele>452.66666666666663</ele><time>2026-03-22T08:37:47.314Z</time></trkpt><trkpt lat="43.1129342" lon="13.3330162"><ele>454.3333333333333</ele><time>2026-03-22T08:37:48.314Z</time></trkpt><trkpt lat="43.1129409" lon="13.3329011"><ele>456.0</ele><time>2026-03-22T08:37:49.314Z</time></trkpt><trkpt lat="43.1129428" lon="13.3327779"><ele>458.8</ele><time>2026-03-22T08:37:50.314Z</time></trkpt><trkpt lat="43.1129458" lon="13.332653"><ele>461.6</ele><time>2026-03-22T08:37:51.314Z</time></trkpt><trkpt lat="43.1129379" lon="13.3325165"><ele>464.4</ele><time>2026-03-22T08:37:52.314Z</time></trkpt><trkpt lat="43.1129314" lon="13.332384"><ele>467.2</ele><time>2026-03-22T08:37:53.314Z</time></trkpt><trkpt lat="43.1129203" lon="13.3322518"><ele>470.0</ele><time>2026-03-22T08:37:54.314Z</time></trkpt><trkpt lat="43.1128993" lon="13.3321119"><ele>471.4</ele><time>2026-03-22T08:37:55.314Z</time></trkpt><trkpt lat="43.1128762" lon="13.3319703"><ele>472.8</ele><time>2026-03-22T08:37:56.314Z</time></trkpt><trkpt lat="43.1128515" lon="13.3318363"><ele>474.20000000000005</ele><time>2026-03-22T08:37:57.314Z</time></trkpt><trkpt lat="43.1128246" lon="13.3316933"><ele>475.6</ele><time>2026-03-22T08:37:58.314Z</time></trkpt><trkpt lat="43.1127983" lon="13.3315512"><ele>477.0</ele><time>2026-03-22T08:37:59.314Z</time></trkpt><trkpt lat="43.1127838" lon="13.3314027"><ele>477.0</ele><time>2026-03-22T08:38:00.314Z</time></trkpt><trkpt lat="43.1127659" lon="13.3312542"><ele>477.0</ele><time>2026-03-22T08:38:01.314Z</time></trkpt><trkpt lat="43.1127654" lon="13.3310911"><ele>477.0</ele><time>2026-03-22T08:38:02.314Z</time></trkpt><trkpt lat="43.1127694" lon="13.3309411"><ele>477.0</ele><time>2026-03-22T08:38:03.314Z</time></trkpt><trkpt lat="43.11279" lon="13.3307861"><ele>477.0</ele><time>2026-03-22T08:38:04.314Z</time></trkpt><trkpt lat="43.1128171" lon="13.3306369"><ele>477.00000000000006</ele><time>2026-03-22T08:38:05.314Z</time></trkpt><trkpt lat="43.1128404" lon="13.3304924"><ele>477.00000000000006</ele><time>2026-03-22T08:38:06.313Z</time></trkpt><trkpt lat="43.1128669" lon="13.3303494"><ele>477.0</ele><time>2026-03-22T08:38:07.314Z</time></trkpt><trkpt lat="43.11289" lon="13.33024"><ele>477.0</ele><time>2026-03-22T08:38:08.314Z</time></trkpt><trkpt lat="43.1129157" lon="13.330157"><ele>478.0</ele><time>2026-03-22T08:38:09.314Z</time></trkpt><trkpt lat="43.1129254" lon="13.3300615"><ele>479.0</ele><time>2026-03-22T08:38:56.314Z</time></trkpt><trkpt lat="43.1129391" lon="13.3299762"><ele>480.0</ele><time>2026-03-22T08:39:03.314Z</time></trkpt><trkpt lat="43.1129854" lon="13.3298017"><ele>481.0</ele><time>2026-03-22T08:39:05.314Z</time></trkpt><trkpt lat="43.1130079" lon="13.329704"><ele>482.0</ele><time>2026-03-22T08:39:06.314Z</time></trkpt><trkpt lat="43.1130271" lon="13.329599"><ele>483.0</ele><time>2026-03-22T08:39:07.314Z</time></trkpt><trkpt lat="43.1130362" lon="13.3295026"><ele>483.4</ele><time>2026-03-22T08:39:08.314Z</time></trkpt><trkpt lat="43.1129988" lon="13.3293522"><ele>483.79999999999995</ele><time>2026-03-22T08:39:10.314Z</time></trkpt><trkpt lat="43.112907" lon="13.3293094"><ele>484.2</ele><time>2026-03-22T08:39:12.314Z</time></trkpt><trkpt lat="43.1127848" lon="13.3293874"><ele>484.6</ele><time>2026-03-22T08:39:14.314Z</time></trkpt><trkpt lat="43.112725" lon="13.329468"><ele>485.0</ele><time>2026-03-22T08:39:15.314Z</time></trkpt><trkpt lat="43.1126702" lon="13.3295828"><ele>485.0</ele><time>2026-03-22T08:39:16.314Z</time></trkpt><trkpt lat="43.1126154" lon="13.329719"><ele>485.0</ele><time>2026-03-22T08:39:17.314Z</time></trkpt><trkpt lat="43.1125513" lon="13.3298782"><ele>485.0</ele><time>2026-03-22T08:39:18.314Z</time></trkpt><trkpt lat="43.1124844" lon="13.3300061"><ele>485.0</ele><time>2026-03-22T08:39:19.314Z</time></trkpt><trkpt lat="43.1124258" lon="13.3301203"><ele>489.0</ele><time>2026-03-22T08:39:20.314Z</time></trkpt><trkpt lat="43.1123728" lon="13.330232"><ele>493.0</ele><time>2026-03-22T08:39:21.314Z</time></trkpt><trkpt lat="43.1123433" lon="13.3303492"><ele>497.0</ele><time>2026-03-22T08:39:22.314Z</time></trkpt><trkpt lat="43.1123088" lon="13.3304767"><ele>501.0</ele><time>2026-03-22T08:39:23.314Z</time></trkpt><trkpt lat="43.1122757" lon="13.3306105"><ele>505.0</ele><time>2026-03-22T08:39:24.314Z</time></trkpt><trkpt lat="43.1122528" lon="13.3307592"><ele>505.0</ele><time>2026-03-22T08:39:25.314Z</time></trkpt><trkpt lat="43.1122326" lon="13.3309055"><ele>505.0</ele><time>2026-03-22T08:39:26.313Z</time></trkpt><trkpt lat="43.1122115" lon="13.3310493"><ele>505.0</ele><time>2026-03-22T08:39:27.314Z</time></trkpt><trkpt lat="43.1122049" lon="13.331207"><ele>505.0</ele><time>2026-03-22T08:39:28.314Z</time></trkpt><trkpt lat="43.1121934" lon="13.3313567"><ele>505.0</ele><time>2026-03-22T08:39:29.313Z</time></trkpt><trkpt lat="43.1121777" lon="13.3315002"><ele>504.8</ele><time>2026-03-22T08:39:30.314Z</time></trkpt><trkpt lat="43.1121731" lon="13.3316489"><ele>504.6</ele><time>2026-03-22T08:39:31.314Z</time></trkpt><trkpt lat="43.1121654" lon="13.3317796"><ele>504.4</ele><time>2026-03-22T08:39:32.314Z</time></trkpt><trkpt lat="43.1121545" lon="13.3319122"><ele>504.2</ele><time>2026-03-22T08:39:33.314Z</time></trkpt><trkpt lat="43.1121455" lon="13.3320473"><ele>504.0</ele><time>2026-03-22T08:39:34.314Z</time></trkpt><trkpt lat="43.1121312" lon="13.3321804"><ele>502.4</ele><time>2026-03-22T08:39:35.314Z</time></trkpt><trkpt lat="43.1120928" lon="13.3323004"><ele>500.79999999999995</ele><time>2026-03-22T08:39:36.314Z</time></trkpt><trkpt lat="43.1120429" lon="13.332409"><ele>499.20000000000005</ele><time>2026-03-22T08:39:37.314Z</time></trkpt><trkpt lat="43.111951" lon="13.3324685"><ele>497.6</ele><time>2026-03-22T08:39:38.314Z</time></trkpt><trkpt lat="43.1118699" lon="13.3325114"><ele>496.0</ele><time>2026-03-22T08:39:39.314Z</time></trkpt><trkpt lat="43.111785" lon="13.3325387"><ele>496.0</ele><time>2026-03-22T08:39:40.314Z</time></trkpt><trkpt lat="43.1116968" lon="13.3325095"><ele>496.0</ele><time>2026-03-22T08:39:41.314Z</time></trkpt><trkpt lat="43.1116067" lon="13.3324869"><ele>496.0</ele><time>2026-03-22T08:39:42.314Z</time></trkpt><trkpt lat="43.1115005" lon="13.332402"><ele>496.0</ele><time>2026-03-22T08:39:43.313Z</time></trkpt><trkpt lat="43.1113935" lon="13.3323068"><ele>496.0</ele><time>2026-03-22T08:39:44.314Z</time></trkpt><trkpt lat="43.1112818" lon="13.3322132"><ele>499.25</ele><time>2026-03-22T08:39:45.314Z</time></trkpt><trkpt lat="43.1111659" lon="13.332112"><ele>502.5</ele><time>2026-03-22T08:39:46.314Z</time></trkpt><trkpt lat="43.111057" lon="13.3320129"><ele>505.75</ele><time>2026-03-22T08:39:47.314Z</time></trkpt><trkpt lat="43.1109508" lon="13.3319208"><ele>509.0</ele><time>2026-03-22T08:39:48.314Z</time></trkpt><trkpt lat="43.110844" lon="13.3318389"><ele>512.75</ele><time>2026-03-22T08:39:49.314Z</time></trkpt><trkpt lat="43.1107296" lon="13.331778"><ele>516.5</ele><time>2026-03-22T08:39:50.314Z</time></trkpt><trkpt lat="43.1106112" lon="13.3317378"><ele>520.25</ele><time>2026-03-22T08:39:51.314Z</time></trkpt><trkpt lat="43.1104894" lon="13.3317164"><ele>524.0</ele><time>2026-03-22T08:39:52.314Z</time></trkpt><trkpt lat="43.1103826" lon="13.3317117"><ele>524.0</ele><time>2026-03-22T08:39:53.314Z</time></trkpt><trkpt lat="43.1102824" lon="13.3317262"><ele>524.0</ele><time>2026-03-22T08:39:54.313Z</time></trkpt><trkpt lat="43.1101896" lon="13.3317744"><ele>524.0</ele><time>2026-03-22T08:39:55.313Z</time></trkpt><trkpt lat="43.1101032" lon="13.3318474"><ele>524.0</ele><time>2026-03-22T08:39:56.314Z</time></trkpt><trkpt lat="43.1100238" lon="13.3319479"><ele>524.0</ele><time>2026-03-22T08:39:57.314Z</time></trkpt><trkpt lat="43.1099499" lon="13.3320622"><ele>529.5</ele><time>2026-03-22T08:39:58.314Z</time></trkpt><trkpt lat="43.1098778" lon="13.332187"><ele>535.0</ele><time>2026-03-22T08:39:59.313Z</time></trkpt><trkpt lat="43.10982" lon="13.33232"><ele>540.5</ele><time>2026-03-22T08:40:00.313Z</time></trkpt><trkpt lat="43.1097823" lon="13.3324534"><ele>546.0</ele><time>2026-03-22T08:40:01.314Z</time></trkpt><trkpt lat="43.1097517" lon="13.3326077"><ele>546.0</ele><time>2026-03-22T08:40:02.314Z</time></trkpt><trkpt lat="43.1097295" lon="13.3327674"><ele>546.0</ele><time>2026-03-22T08:40:03.314Z</time></trkpt><trkpt lat="43.109711" lon="13.3329264"><ele>546.0</ele><time>2026-03-22T08:40:04.313Z</time></trkpt><trkpt lat="43.1097068" lon="13.3330881"><ele>546.0</ele><time>2026-03-22T08:40:05.314Z</time></trkpt><trkpt lat="43.1097176" lon="13.3332508"><ele>546.0</ele><time>2026-03-22T08:40:06.314Z</time></trkpt><trkpt lat="43.1097402" lon="13.3334121"><ele>546.0</ele><time>2026-03-22T08:40:07.314Z</time></trkpt><trkpt lat="43.109766" lon="13.3335597"><ele>546.0</ele><time>2026-03-22T08:40:08.314Z</time></trkpt><trkpt lat="43.1097998" lon="13.3336987"><ele>546.0</ele><time>2026-03-22T08:40:09.314Z</time></trkpt><trkpt lat="43.1098252" lon="13.3338426"><ele>546.0</ele><time>2026-03-22T08:40:10.314Z</time></trkpt><trkpt lat="43.1098399" lon="13.3340017"><ele>546.0</ele><time>2026-03-22T08:40:11.314Z</time></trkpt><trkpt lat="43.1098507" lon="13.3341604"><ele>546.0</ele><time>2026-03-22T08:40:12.314Z</time></trkpt><trkpt lat="43.1098464" lon="13.3343109"><ele>546.0</ele><time>2026-03-22T08:40:13.314Z</time></trkpt><trkpt lat="43.1098428" lon="13.3344534"><ele>546.0</ele><time>2026-03-22T08:40:14.314Z</time></trkpt><trkpt lat="43.1098435" lon="13.3345913"><ele>546.0</ele><time>2026-03-22T08:40:15.314Z</time></trkpt><trkpt lat="43.1098403" lon="13.3347269"><ele>545.0</ele><time>2026-03-22T08:40:16.314Z</time></trkpt><trkpt lat="43.1098262" lon="13.3348587"><ele>544.0</ele><time>2026-03-22T08:40:17.314Z</time></trkpt><trkpt lat="43.1098159" lon="13.3349952"><ele>543.0</ele><time>2026-03-22T08:40:18.314Z</time></trkpt><trkpt lat="43.1098028" lon="13.3351325"><ele>542.0</ele><time>2026-03-22T08:40:19.314Z</time></trkpt><trkpt lat="43.1097945" lon="13.3352741"><ele>541.0</ele><time>2026-03-22T08:40:20.314Z</time></trkpt><trkpt lat="43.1097829" lon="13.3354162"><ele>541.0</ele><time>2026-03-22T08:40:21.314Z</time></trkpt><trkpt lat="43.1097693" lon="13.3355533"><ele>541.0</ele><time>2026-03-22T08:40:22.314Z</time></trkpt><trkpt lat="43.1097663" lon="13.3356865"><ele>541.0</ele><time>2026-03-22T08:40:23.314Z</time></trkpt><trkpt lat="43.1097768" lon="13.3358191"><ele>541.0</ele><time>2026-03-22T08:40:24.314Z</time></trkpt><trkpt lat="43.1097973" lon="13.3359456"><ele>541.0</ele><time>2026-03-22T08:40:25.314Z</time></trkpt><trkpt lat="43.1098634" lon="13.3360531"><ele>540.4</ele><time>2026-03-22T08:40:26.314Z</time></trkpt><trkpt lat="43.1099367" lon="13.3361499"><ele>539.8</ele><time>2026-03-22T08:40:27.314Z</time></trkpt><trkpt lat="43.1100145" lon="13.3362353"><ele>539.1999999999999</ele><time>2026-03-22T08:40:28.314Z</time></trkpt><trkpt lat="43.1100967" lon="13.3363119"><ele>538.6</ele><time>2026-03-22T08:40:29.314Z</time></trkpt><trkpt lat="43.11017" lon="13.3363825"><ele>538.0</ele><time>2026-03-22T08:40:30.314Z</time></trkpt><trkpt lat="43.1102284" lon="13.3364536"><ele>538.0</ele><time>2026-03-22T08:40:31.314Z</time></trkpt><trkpt lat="43.1102773" lon="13.3365147"><ele>538.0</ele><time>2026-03-22T08:40:32.314Z</time></trkpt><trkpt lat="43.1103194" lon="13.3365878"><ele>538.0</ele><time>2026-03-22T08:40:33.314Z</time></trkpt><trkpt lat="43.1103564" lon="13.336751"><ele>538.0</ele><time>2026-03-22T08:40:35.314Z</time></trkpt><trkpt lat="43.1103242" lon="13.336833"><ele>538.0</ele><time>2026-03-22T08:40:36.314Z</time></trkpt><trkpt lat="43.1102533" lon="13.3369659"><ele>538.0</ele><time>2026-03-22T08:40:38.314Z</time></trkpt><trkpt lat="43.1101979" lon="13.3370416"><ele>538.0</ele><time>2026-03-22T08:40:40.314Z</time></trkpt><trkpt lat="43.1101237" lon="13.3370298"><ele>538.0</ele><time>2026-03-22T08:41:18.314Z</time></trkpt><trkpt lat="43.1100385" lon="13.3369543"><ele>538.0</ele><time>2026-03-22T08:41:29.313Z</time></trkpt><trkpt lat="43.1099411" lon="13.3368888"><ele>538.0</ele><time>2026-03-22T08:41:31.314Z</time></trkpt><trkpt lat="43.1098187" lon="13.3368113"><ele>538.0</ele><time>2026-03-22T08:41:33.314Z</time></trkpt><trkpt lat="43.1097443" lon="13.3367545"><ele>541.0</ele><time>2026-03-22T08:41:34.314Z</time></trkpt><trkpt lat="43.1096613" lon="13.336697"><ele>544.0</ele><time>2026-03-22T08:41:35.314Z</time></trkpt><trkpt lat="43.1095756" lon="13.3366353"><ele>547.0</ele><time>2026-03-22T08:41:36.314Z</time></trkpt><trkpt lat="43.1094848" lon="13.3365788"><ele>550.0</ele><time>2026-03-22T08:41:37.314Z</time></trkpt><trkpt lat="43.1093888" lon="13.3365247"><ele>553.0</ele><time>2026-03-22T08:41:38.314Z</time></trkpt><trkpt lat="43.1092883" lon="13.3364645"><ele>553.0</ele><time>2026-03-22T08:41:39.314Z</time></trkpt><trkpt lat="43.1091845" lon="13.336408"><ele>553.0</ele><time>2026-03-22T08:41:40.313Z</time></trkpt><trkpt lat="43.1090745" lon="13.3363544"><ele>553.0</ele><time>2026-03-22T08:41:41.314Z</time></trkpt><trkpt lat="43.1089606" lon="13.3363058"><ele>553.0</ele><time>2026-03-22T08:41:42.314Z</time></trkpt><trkpt lat="43.1088458" lon="13.336264"><ele>554.0</ele><time>2026-03-22T08:41:43.314Z</time></trkpt><trkpt lat="43.1087277" lon="13.3362189"><ele>555.0</ele><time>2026-03-22T08:41:44.314Z</time></trkpt><trkpt lat="43.1086012" lon="13.3361713"><ele>556.0</ele><time>2026-03-22T08:41:45.314Z</time></trkpt><trkpt lat="43.1084737" lon="13.3361143"><ele>557.0</ele><time>2026-03-22T08:41:46.313Z</time></trkpt><trkpt lat="43.1083411" lon="13.3360536"><ele>557.75</ele><time>2026-03-22T08:41:47.314Z</time></trkpt><trkpt lat="43.1082111" lon="13.3359864"><ele>558.5</ele><time>2026-03-22T08:41:48.313Z</time></trkpt><trkpt lat="43.108081" lon="13.3359342"><ele>559.25</ele><time>2026-03-22T08:41:49.314Z</time></trkpt><trkpt lat="43.1079476" lon="13.3358819"><ele>560.0</ele><time>2026-03-22T08:41:50.314Z</time></trkpt><trkpt lat="43.107814" lon="13.3358254"><ele>560.0</ele><time>2026-03-22T08:41:51.314Z</time></trkpt><trkpt lat="43.1076776" lon="13.3357719"><ele>560.0</ele><time>2026-03-22T08:41:52.314Z</time></trkpt><trkpt lat="43.107546" lon="13.335718"><ele>560.0</ele><time>2026-03-22T08:41:53.314Z</time></trkpt><trkpt lat="43.1074116" lon="13.3356617"><ele>560.0</ele><time>2026-03-22T08:41:54.314Z</time></trkpt><trkpt lat="43.1072779" lon="13.3356121"><ele>561.25</ele><time>2026-03-22T08:41:55.314Z</time></trkpt><trkpt lat="43.107145" lon="13.3355553"><ele>562.5</ele><time>2026-03-22T08:41:56.314Z</time></trkpt><trkpt lat="43.1070156" lon="13.3354993"><ele>563.75</ele><time>2026-03-22T08:41:57.314Z</time></trkpt><trkpt lat="43.1068882" lon="13.3354402"><ele>565.0</ele><time>2026-03-22T08:41:58.314Z</time></trkpt><trkpt lat="43.106775" lon="13.3353888"><ele>565.2</ele><time>2026-03-22T08:41:59.314Z</time></trkpt><trkpt lat="43.1066716" lon="13.3353341"><ele>565.4</ele><time>2026-03-22T08:42:00.314Z</time></trkpt><trkpt lat="43.1065921" lon="13.335265"><ele>565.6</ele><time>2026-03-22T08:42:01.314Z</time></trkpt><trkpt lat="43.106541" lon="13.3351761"><ele>565.8</ele><time>2026-03-22T08:42:02.314Z</time></trkpt><trkpt lat="43.1065099" lon="13.3350711"><ele>566.0</ele><time>2026-03-22T08:42:03.314Z</time></trkpt><trkpt lat="43.1064995" lon="13.3349507"><ele>566.0</ele><time>2026-03-22T08:42:04.314Z</time></trkpt><trkpt lat="43.106506" lon="13.3348064"><ele>566.0</ele><time>2026-03-22T08:42:05.314Z</time></trkpt><trkpt lat="43.1065262" lon="13.3346561"><ele>566.0</ele><time>2026-03-22T08:42:06.314Z</time></trkpt><trkpt lat="43.1065588" lon="13.334502"><ele>566.0</ele><time>2026-03-22T08:42:07.313Z</time></trkpt><trkpt lat="43.1066009" lon="13.3343479"><ele>570.0</ele><time>2026-03-22T08:42:08.314Z</time></trkpt><trkpt lat="43.106652" lon="13.3341957"><ele>574.0</ele><time>2026-03-22T08:42:09.314Z</time></trkpt><trkpt lat="43.1067075" lon="13.3340495"><ele>578.0</ele><time>2026-03-22T08:42:10.314Z</time></trkpt><trkpt lat="43.1067724" lon="13.3339045"><ele>582.0</ele><time>2026-03-22T08:42:11.314Z</time></trkpt><trkpt lat="43.1068241" lon="13.3337542"><ele>582.0</ele><time>2026-03-22T08:42:12.313Z</time></trkpt><trkpt lat="43.1068773" lon="13.3335974"><ele>582.0</ele><time>2026-03-22T08:42:13.314Z</time></trkpt><trkpt lat="43.1069313" lon="13.3334395"><ele>582.0</ele><time>2026-03-22T08:42:14.314Z</time></trkpt><trkpt lat="43.1069913" lon="13.333275"><ele>582.0</ele><time>2026-03-22T08:42:15.314Z</time></trkpt><trkpt lat="43.1070478" lon="13.3331139"><ele>582.25</ele><time>2026-03-22T08:42:16.314Z</time></trkpt><trkpt lat="43.1071004" lon="13.3329459"><ele>582.5</ele><time>2026-03-22T08:42:17.314Z</time></trkpt><trkpt lat="43.1071526" lon="13.3327812"><ele>582.75</ele><time>2026-03-22T08:42:18.314Z</time></trkpt><trkpt lat="43.1071952" lon="13.3326208"><ele>583.0</ele><time>2026-03-22T08:42:19.314Z</time></trkpt><trkpt lat="43.1072263" lon="13.3324515"><ele>583.0</ele><time>2026-03-22T08:42:20.314Z</time></trkpt><trkpt lat="43.1072493" lon="13.3322758"><ele>583.0</ele><time>2026-03-22T08:42:21.314Z</time></trkpt><trkpt lat="43.1072688" lon="13.3320957"><ele>583.0</ele><time>2026-03-22T08:42:22.314Z</time></trkpt><trkpt lat="43.1072876" lon="13.3319173"><ele>583.0</ele><time>2026-03-22T08:42:23.314Z</time></trkpt><trkpt lat="43.1073057" lon="13.3317359"><ele>583.0</ele><time>2026-03-22T08:42:24.314Z</time></trkpt><trkpt lat="43.1073185" lon="13.3315505"><ele>583.0</ele><time>2026-03-22T08:42:25.314Z</time></trkpt><trkpt lat="43.1073275" lon="13.3313625"><ele>583.0</ele><time>2026-03-22T08:42:26.314Z</time></trkpt><trkpt lat="43.1073333" lon="13.3311762"><ele>583.0</ele><time>2026-03-22T08:42:27.314Z</time></trkpt><trkpt lat="43.1073378" lon="13.3309867"><ele>583.75</ele><time>2026-03-22T08:42:28.314Z</time></trkpt><trkpt lat="43.107337" lon="13.3307983"><ele>584.5</ele><time>2026-03-22T08:42:29.314Z</time></trkpt><trkpt lat="43.107333" lon="13.3306037"><ele>585.25</ele><time>2026-03-22T08:42:30.314Z</time></trkpt><trkpt lat="43.1073297" lon="13.330407"><ele>586.0</ele><time>2026-03-22T08:42:31.314Z</time></trkpt><trkpt lat="43.1073224" lon="13.3302114"><ele>587.25</ele><time>2026-03-22T08:42:32.314Z</time></trkpt><trkpt lat="43.1073192" lon="13.3300176"><ele>588.5</ele><time>2026-03-22T08:42:33.314Z</time></trkpt><trkpt lat="43.1073161" lon="13.3298262"><ele>589.75</ele><time>2026-03-22T08:42:34.314Z</time></trkpt><trkpt lat="43.1073165" lon="13.3296395"><ele>591.0</ele><time>2026-03-22T08:42:35.314Z</time></trkpt><trkpt lat="43.1073144" lon="13.3294513"><ele>592.25</ele><time>2026-03-22T08:42:36.314Z</time></trkpt><trkpt lat="43.1073134" lon="13.3292662"><ele>593.5</ele><time>2026-03-22T08:42:37.314Z</time></trkpt><trkpt lat="43.1073135" lon="13.3290848"><ele>594.75</ele><time>2026-03-22T08:42:38.314Z</time></trkpt><trkpt lat="43.1073104" lon="13.328911"><ele>596.0</ele><time>2026-03-22T08:42:39.314Z</time></trkpt><trkpt lat="43.1073246" lon="13.3287402"><ele>598.0</ele><time>2026-03-22T08:42:40.314Z</time></trkpt><trkpt lat="43.1073437" lon="13.3285809"><ele>600.0</ele><time>2026-03-22T08:42:41.314Z</time></trkpt><trkpt lat="43.1073675" lon="13.3284258"><ele>602.0</ele><time>2026-03-22T08:42:42.314Z</time></trkpt><trkpt lat="43.1073998" lon="13.3282816"><ele>604.0</ele><time>2026-03-22T08:42:43.314Z</time></trkpt><trkpt lat="43.1074289" lon="13.3281394"><ele>606.2</ele><time>2026-03-22T08:42:44.314Z</time></trkpt><trkpt lat="43.1074512" lon="13.3280131"><ele>608.4</ele><time>2026-03-22T08:42:45.314Z</time></trkpt><trkpt lat="43.1074558" lon="13.3279044"><ele>610.6</ele><time>2026-03-22T08:42:46.314Z</time></trkpt><trkpt lat="43.1074188" lon="13.3277451"><ele>612.8</ele><time>2026-03-22T08:42:48.314Z</time></trkpt><trkpt lat="43.107382" lon="13.3276647"><ele>615.0</ele><time>2026-03-22T08:42:49.314Z</time></trkpt><trkpt lat="43.1073495" lon="13.3275547"><ele>615.0</ele><time>2026-03-22T08:42:50.313Z</time></trkpt><trkpt lat="43.1073189" lon="13.3274083"><ele>615.0</ele><time>2026-03-22T08:42:51.314Z</time></trkpt><trkpt lat="43.1072904" lon="13.327255"><ele>615.0</ele><time>2026-03-22T08:42:52.314Z</time></trkpt><trkpt lat="43.1072606" lon="13.3271066"><ele>615.0</ele><time>2026-03-22T08:42:53.313Z</time></trkpt><trkpt lat="43.1072278" lon="13.3269554"><ele>617.5</ele><time>2026-03-22T08:42:54.314Z</time></trkpt><trkpt lat="43.1071968" lon="13.3267964"><ele>620.0</ele><time>2026-03-22T08:42:55.314Z</time></trkpt><trkpt lat="43.1071652" lon="13.3266489"><ele>622.5</ele><time>2026-03-22T08:42:56.314Z</time></trkpt><trkpt lat="43.1071365" lon="13.3265033"><ele>625.0</ele><time>2026-03-22T08:42:57.314Z</time></trkpt><trkpt lat="43.1071055" lon="13.3263568"><ele>626.5</ele><time>2026-03-22T08:42:58.314Z</time></trkpt><trkpt lat="43.1070738" lon="13.3261994"><ele>628.0</ele><time>2026-03-22T08:42:59.314Z</time></trkpt><trkpt lat="43.1070437" lon="13.3260377"><ele>629.5</ele><time>2026-03-22T08:43:00.314Z</time></trkpt><trkpt lat="43.1070102" lon="13.3258793"><ele>631.0</ele><time>2026-03-22T08:43:01.314Z</time></trkpt><trkpt lat="43.1069789" lon="13.3257169"><ele>632.0</ele><time>2026-03-22T08:43:02.314Z</time></trkpt><trkpt lat="43.106946" lon="13.3255568"><ele>633.0</ele><time>2026-03-22T08:43:03.314Z</time></trkpt><trkpt lat="43.106914" lon="13.3253937"><ele>634.0</ele><time>2026-03-22T08:43:04.314Z</time></trkpt><trkpt lat="43.1068773" lon="13.3252337"><ele>635.0</ele><time>2026-03-22T08:43:05.314Z</time></trkpt><trkpt lat="43.1068475" lon="13.3250695"><ele>635.0</ele><time>2026-03-22T08:43:06.314Z</time></trkpt><trkpt lat="43.106818" lon="13.3249102"><ele>635.0</ele><time>2026-03-22T08:43:07.314Z</time></trkpt><trkpt lat="43.1067827" lon="13.3247524"><ele>635.0</ele><time>2026-03-22T08:43:08.314Z</time></trkpt><trkpt lat="43.1067462" lon="13.3246022"><ele>635.0</ele><time>2026-03-22T08:43:09.314Z</time></trkpt><trkpt lat="43.1067034" lon="13.3244541"><ele>635.6</ele><time>2026-03-22T08:43:10.314Z</time></trkpt><trkpt lat="43.1066569" lon="13.3243138"><ele>636.2</ele><time>2026-03-22T08:43:11.314Z</time></trkpt><trkpt lat="43.1065931" lon="13.3241954"><ele>636.8</ele><time>2026-03-22T08:43:12.314Z</time></trkpt><trkpt lat="43.1065175" lon="13.3241082"><ele>637.4</ele><time>2026-03-22T08:43:13.313Z</time></trkpt><trkpt lat="43.106427" lon="13.3240565"><ele>638.0</ele><time>2026-03-22T08:43:14.313Z</time></trkpt><trkpt lat="43.1063316" lon="13.3240155"><ele>636.6</ele><time>2026-03-22T08:43:15.314Z</time></trkpt><trkpt lat="43.106238" lon="13.3239699"><ele>635.1999999999999</ele><time>2026-03-22T08:43:16.314Z</time></trkpt><trkpt lat="43.1061416" lon="13.323918"><ele>633.8</ele><time>2026-03-22T08:43:17.314Z</time></trkpt><trkpt lat="43.1060522" lon="13.3238493"><ele>632.4</ele><time>2026-03-22T08:43:18.314Z</time></trkpt><trkpt lat="43.1059744" lon="13.3237614"><ele>631.0</ele><time>2026-03-22T08:43:19.314Z</time></trkpt><trkpt lat="43.1059103" lon="13.3236494"><ele>631.0</ele><time>2026-03-22T08:43:20.314Z</time></trkpt><trkpt lat="43.105851" lon="13.323532"><ele>631.0</ele><time>2026-03-22T08:43:21.314Z</time></trkpt><trkpt lat="43.1058369" lon="13.3233755"><ele>631.0</ele><time>2026-03-22T08:43:22.314Z</time></trkpt><trkpt lat="43.1058137" lon="13.3232224"><ele>631.0</ele><time>2026-03-22T08:43:23.314Z</time></trkpt><trkpt lat="43.1057927" lon="13.3230657"><ele>632.5</ele><time>2026-03-22T08:43:24.314Z</time></trkpt><trkpt lat="43.1057763" lon="13.3229042"><ele>634.0</ele><time>2026-03-22T08:43:25.314Z</time></trkpt><trkpt lat="43.1057606" lon="13.3227384"><ele>635.5</ele><time>2026-03-22T08:43:26.314Z</time></trkpt><trkpt lat="43.1057428" lon="13.3225786"><ele>637.0</ele><time>2026-03-22T08:43:27.314Z</time></trkpt><trkpt lat="43.1057304" lon="13.3224182"><ele>634.5</ele><time>2026-03-22T08:43:28.314Z</time></trkpt><trkpt lat="43.105745" lon="13.3222653"><ele>632.0</ele><time>2026-03-22T08:43:29.314Z</time></trkpt><trkpt lat="43.1057823" lon="13.322117"><ele>629.5</ele><time>2026-03-22T08:43:30.314Z</time></trkpt><trkpt lat="43.1058371" lon="13.321974"><ele>627.0</ele><time>2026-03-22T08:43:31.314Z</time></trkpt><trkpt lat="43.1059" lon="13.3218432"><ele>627.0</ele><time>2026-03-22T08:43:32.314Z</time></trkpt><trkpt lat="43.1059723" lon="13.3217157"><ele>627.0</ele><time>2026-03-22T08:43:33.314Z</time></trkpt><trkpt lat="43.1060458" lon="13.3215885"><ele>627.0</ele><time>2026-03-22T08:43:34.314Z</time></trkpt><trkpt lat="43.1061259" lon="13.3214664"><ele>627.0</ele><time>2026-03-22T08:43:35.314Z</time></trkpt><trkpt lat="43.1062064" lon="13.3213443"><ele>624.25</ele><time>2026-03-22T08:43:36.314Z</time></trkpt><trkpt lat="43.1062854" lon="13.3212188"><ele>621.5</ele><time>2026-03-22T08:43:37.313Z</time></trkpt><trkpt lat="43.1063594" lon="13.3210908"><ele>618.75</ele><time>2026-03-22T08:43:38.314Z</time></trkpt><trkpt lat="43.1064228" lon="13.3209623"><ele>616.0</ele><time>2026-03-22T08:43:39.314Z</time></trkpt><trkpt lat="43.1064619" lon="13.320826"><ele>616.0</ele><time>2026-03-22T08:43:40.314Z</time></trkpt><trkpt lat="43.1064831" lon="13.3206929"><ele>616.0</ele><time>2026-03-22T08:43:41.314Z</time></trkpt><trkpt lat="43.1064868" lon="13.3205528"><ele>616.0</ele><time>2026-03-22T08:43:42.314Z</time></trkpt><trkpt lat="43.1064685" lon="13.3204145"><ele>616.0</ele><time>2026-03-22T08:43:43.314Z</time></trkpt><trkpt lat="43.1064294" lon="13.3202835"><ele>616.0</ele><time>2026-03-22T08:43:44.313Z</time></trkpt><trkpt lat="43.1063675" lon="13.3201587"><ele>616.5</ele><time>2026-03-22T08:43:45.314Z</time></trkpt><trkpt lat="43.1063062" lon="13.320033"><ele>617.0</ele><time>2026-03-22T08:43:46.314Z</time></trkpt><trkpt lat="43.1062419" lon="13.3199047"><ele>617.5</ele><time>2026-03-22T08:43:47.314Z</time></trkpt><trkpt lat="43.1061786" lon="13.3197698"><ele>618.0</ele><time>2026-03-22T08:43:48.314Z</time></trkpt><trkpt lat="43.1061203" lon="13.3196314"><ele>618.75</ele><time>2026-03-22T08:43:49.314Z</time></trkpt><trkpt lat="43.1061005" lon="13.3194632"><ele>619.5</ele><time>2026-03-22T08:43:50.314Z</time></trkpt><trkpt lat="43.1060928" lon="13.3192894"><ele>620.25</ele><time>2026-03-22T08:43:51.314Z</time></trkpt><trkpt lat="43.1060965" lon="13.3191165"><ele>621.0</ele><time>2026-03-22T08:43:52.314Z</time></trkpt><trkpt lat="43.1061362" lon="13.3189465"><ele>621.5</ele><time>2026-03-22T08:43:53.314Z</time></trkpt><trkpt lat="43.1061642" lon="13.3187834"><ele>622.0</ele><time>2026-03-22T08:43:54.314Z</time></trkpt><trkpt lat="43.1061984" lon="13.3186206"><ele>622.5</ele><time>2026-03-22T08:43:55.314Z</time></trkpt><trkpt lat="43.1062159" lon="13.318458"><ele>623.0</ele><time>2026-03-22T08:43:56.314Z</time></trkpt><trkpt lat="43.1062031" lon="13.3182935"><ele>623.0</ele><time>2026-03-22T08:43:57.314Z</time></trkpt><trkpt lat="43.1061526" lon="13.3181387"><ele>623.0</ele><time>2026-03-22T08:43:58.314Z</time></trkpt><trkpt lat="43.1060906" lon="13.3179856"><ele>623.0</ele><time>2026-03-22T08:43:59.314Z</time></trkpt><trkpt lat="43.1060204" lon="13.3178313"><ele>623.0</ele><time>2026-03-22T08:44:00.314Z</time></trkpt><trkpt lat="43.1059536" lon="13.3176759"><ele>625.75</ele><time>2026-03-22T08:44:01.314Z</time></trkpt><trkpt lat="43.105894" lon="13.3175229"><ele>628.5</ele><time>2026-03-22T08:44:02.314Z</time></trkpt><trkpt lat="43.1058415" lon="13.3173673"><ele>631.25</ele><time>2026-03-22T08:44:03.314Z</time></trkpt><trkpt lat="43.1057874" lon="13.3172108"><ele>634.0</ele><time>2026-03-22T08:44:04.314Z</time></trkpt><trkpt lat="43.1057428" lon="13.3170469"><ele>630.5</ele><time>2026-03-22T08:44:05.314Z</time></trkpt><trkpt lat="43.1057077" lon="13.3168768"><ele>627.0</ele><time>2026-03-22T08:44:06.314Z</time></trkpt><trkpt lat="43.1056938" lon="13.3166767"><ele>623.5</ele><time>2026-03-22T08:44:07.314Z</time></trkpt><trkpt lat="43.1056914" lon="13.3164718"><ele>620.0</ele><time>2026-03-22T08:44:08.314Z</time></trkpt><trkpt lat="43.1057039" lon="13.3162811"><ele>620.0</ele><time>2026-03-22T08:44:09.313Z</time></trkpt><trkpt lat="43.1057132" lon="13.3160914"><ele>620.0</ele><time>2026-03-22T08:44:10.314Z</time></trkpt><trkpt lat="43.1057217" lon="13.3159183"><ele>620.0</ele><time>2026-03-22T08:44:11.314Z</time></trkpt><trkpt lat="43.1057275" lon="13.3157522"><ele>620.0</ele><time>2026-03-22T08:44:12.314Z</time></trkpt><trkpt lat="43.105735" lon="13.3155893"><ele>620.6</ele><time>2026-03-22T08:44:13.314Z</time></trkpt><trkpt lat="43.105713" lon="13.3154423"><ele>621.2</ele><time>2026-03-22T08:44:14.314Z</time></trkpt><trkpt lat="43.1056858" lon="13.3153057"><ele>621.8</ele><time>2026-03-22T08:44:15.314Z</time></trkpt><trkpt lat="43.1056493" lon="13.3151813"><ele>622.4</ele><time>2026-03-22T08:44:16.314Z</time></trkpt><trkpt lat="43.1056104" lon="13.3150676"><ele>623.0</ele><time>2026-03-22T08:44:17.314Z</time></trkpt><trkpt lat="43.1055754" lon="13.3149746"><ele>623.0</ele><time>2026-03-22T08:44:18.314Z</time></trkpt><trkpt lat="43.1055202" lon="13.3148547"><ele>623.0</ele><time>2026-03-22T08:44:20.314Z</time></trkpt><trkpt lat="43.105425" lon="13.3148322"><ele>623.0</ele><time>2026-03-22T08:44:22.314Z</time></trkpt><trkpt lat="43.1053552" lon="13.3148386"><ele>623.0</ele><time>2026-03-22T08:44:23.314Z</time></trkpt><trkpt lat="43.1052866" lon="13.3148469"><ele>623.0</ele><time>2026-03-22T08:44:24.314Z</time></trkpt><trkpt lat="43.1052163" lon="13.3148609"><ele>623.0</ele><time>2026-03-22T08:44:25.314Z</time></trkpt><trkpt lat="43.1051423" lon="13.3148746"><ele>623.0</ele><time>2026-03-22T08:44:26.314Z</time></trkpt><trkpt lat="43.105073" lon="13.3149158"><ele>623.0</ele><time>2026-03-22T08:44:27.314Z</time></trkpt><trkpt lat="43.1050114" lon="13.3149709"><ele>623.0</ele><time>2026-03-22T08:44:28.314Z</time></trkpt><trkpt lat="43.1049529" lon="13.315044"><ele>623.0</ele><time>2026-03-22T08:44:29.314Z</time></trkpt><trkpt lat="43.1049012" lon="13.315124"><ele>623.0</ele><time>2026-03-22T08:44:30.314Z</time></trkpt><trkpt lat="43.104857" lon="13.3152108"><ele>623.0</ele><time>2026-03-22T08:44:31.314Z</time></trkpt><trkpt lat="43.1048137" lon="13.3152935"><ele>622.8333333333333</ele><time>2026-03-22T08:44:32.314Z</time></trkpt><trkpt lat="43.1047742" lon="13.3153691"><ele>622.6666666666666</ele><time>2026-03-22T08:44:33.314Z</time></trkpt><trkpt lat="43.1047382" lon="13.3154586"><ele>622.5</ele><time>2026-03-22T08:44:34.314Z</time></trkpt><trkpt lat="43.1047049" lon="13.3155486"><ele>622.3333333333334</ele><time>2026-03-22T08:44:35.313Z</time></trkpt><trkpt lat="43.1046717" lon="13.3156372"><ele>622.1666666666667</ele><time>2026-03-22T08:44:36.313Z</time></trkpt><trkpt lat="43.1046372" lon="13.3157385"><ele>622.0</ele><time>2026-03-22T08:44:37.314Z</time></trkpt><trkpt lat="43.1045999" lon="13.3158403"><ele>620.0</ele><time>2026-03-22T08:44:38.314Z</time></trkpt><trkpt lat="43.1045566" lon="13.3159567"><ele>618.0</ele><time>2026-03-22T08:44:39.314Z</time></trkpt><trkpt lat="43.104509" lon="13.3160734"><ele>616.0</ele><time>2026-03-22T08:44:40.314Z</time></trkpt><trkpt lat="43.1044572" lon="13.3161878"><ele>614.0</ele><time>2026-03-22T08:44:41.314Z</time></trkpt><trkpt lat="43.104403" lon="13.316294"><ele>612.0</ele><time>2026-03-22T08:44:42.314Z</time></trkpt><trkpt lat="43.1043433" lon="13.3163825"><ele>610.8333333333334</ele><time>2026-03-22T08:44:43.314Z</time></trkpt><trkpt lat="43.1042683" lon="13.3164614"><ele>609.6666666666666</ele><time>2026-03-22T08:44:44.313Z</time></trkpt><trkpt lat="43.1041843" lon="13.3165171"><ele>608.5</ele><time>2026-03-22T08:44:45.314Z</time></trkpt><trkpt lat="43.1041036" lon="13.316564"><ele>607.3333333333333</ele><time>2026-03-22T08:44:46.314Z</time></trkpt><trkpt lat="43.1040375" lon="13.3166188"><ele>606.1666666666666</ele><time>2026-03-22T08:44:47.314Z</time></trkpt><trkpt lat="43.1039849" lon="13.3166924"><ele>605.0</ele><time>2026-03-22T08:44:48.314Z</time></trkpt><trkpt lat="43.1039487" lon="13.3167797"><ele>602.8333333333333</ele><time>2026-03-22T08:44:49.314Z</time></trkpt><trkpt lat="43.1039339" lon="13.3168677"><ele>600.6666666666666</ele><time>2026-03-22T08:44:50.314Z</time></trkpt><trkpt lat="43.1038696" lon="13.3169858"><ele>598.5</ele><time>2026-03-22T08:44:52.314Z</time></trkpt><trkpt lat="43.1038016" lon="13.3170048"><ele>596.3333333333334</ele><time>2026-03-22T08:44:53.314Z</time></trkpt><trkpt lat="43.1037192" lon="13.3170015"><ele>594.1666666666667</ele><time>2026-03-22T08:44:54.314Z</time></trkpt><trkpt lat="43.1036281" lon="13.3169846"><ele>592.0</ele><time>2026-03-22T08:44:55.314Z</time></trkpt><trkpt lat="43.103527" lon="13.3169598"><ele>592.0</ele><time>2026-03-22T08:44:56.314Z</time></trkpt><trkpt lat="43.1034284" lon="13.3169267"><ele>592.0</ele><time>2026-03-22T08:44:57.314Z</time></trkpt><trkpt lat="43.1033376" lon="13.3168771"><ele>592.0</ele><time>2026-03-22T08:44:58.314Z</time></trkpt><trkpt lat="43.1032478" lon="13.3168177"><ele>592.0</ele><time>2026-03-22T08:44:59.313Z</time></trkpt><trkpt lat="43.1031723" lon="13.3167425"><ele>592.0</ele><time>2026-03-22T08:45:00.314Z</time></trkpt><trkpt lat="43.1030917" lon="13.3166681"><ele>591.6</ele><time>2026-03-22T08:45:01.314Z</time></trkpt><trkpt lat="43.1030112" lon="13.3165949"><ele>591.2</ele><time>2026-03-22T08:45:02.314Z</time></trkpt><trkpt lat="43.1029309" lon="13.3165263"><ele>590.8</ele><time>2026-03-22T08:45:03.314Z</time></trkpt><trkpt lat="43.1028502" lon="13.3164693"><ele>590.4</ele><time>2026-03-22T08:45:04.314Z</time></trkpt><trkpt lat="43.1027598" lon="13.3164306"><ele>590.0</ele><time>2026-03-22T08:45:05.314Z</time></trkpt><trkpt lat="43.1026691" lon="13.3163943"><ele>590.0</ele><time>2026-03-22T08:45:06.314Z</time></trkpt><trkpt lat="43.1025796" lon="13.31635"><ele>590.0</ele><time>2026-03-22T08:45:07.314Z</time></trkpt><trkpt lat="43.1024904" lon="13.3163016"><ele>590.0</ele><time>2026-03-22T08:45:08.314Z</time></trkpt><trkpt lat="43.102399" lon="13.3162491"><ele>590.0</ele><time>2026-03-22T08:45:09.314Z</time></trkpt><trkpt lat="43.1023103" lon="13.3161891"><ele>590.0</ele><time>2026-03-22T08:45:10.313Z</time></trkpt><trkpt lat="43.1022261" lon="13.3161231"><ele>587.8</ele><time>2026-03-22T08:45:11.314Z</time></trkpt><trkpt lat="43.1021449" lon="13.3160494"><ele>585.6</ele><time>2026-03-22T08:45:12.314Z</time></trkpt><trkpt lat="43.102061" lon="13.3159744"><ele>583.4</ele><time>2026-03-22T08:45:13.314Z</time></trkpt><trkpt lat="43.101973" lon="13.3159042"><ele>581.2</ele><time>2026-03-22T08:45:14.314Z</time></trkpt><trkpt lat="43.1018904" lon="13.3158429"><ele>579.0</ele><time>2026-03-22T08:45:15.314Z</time></trkpt><trkpt lat="43.1018016" lon="13.3157801"><ele>579.0</ele><time>2026-03-22T08:45:16.314Z</time></trkpt><trkpt lat="43.1017286" lon="13.315737"><ele>579.0</ele><time>2026-03-22T08:45:17.314Z</time></trkpt><trkpt lat="43.1016658" lon="13.3156944"><ele>579.0</ele><time>2026-03-22T08:45:18.313Z</time></trkpt><trkpt lat="43.101562" lon="13.3156424"><ele>579.0</ele><time>2026-03-22T08:45:20.314Z</time></trkpt><trkpt lat="43.1014589" lon="13.3156874"><ele>579.0</ele><time>2026-03-22T08:45:22.313Z</time></trkpt><trkpt lat="43.1014083" lon="13.3157487"><ele>579.0</ele><time>2026-03-22T08:45:23.314Z</time></trkpt><trkpt lat="43.1013551" lon="13.3158239"><ele>575.8333333333334</ele><time>2026-03-22T08:45:24.314Z</time></trkpt><trkpt lat="43.1013004" lon="13.3158952"><ele>572.6666666666666</ele><time>2026-03-22T08:45:25.314Z</time></trkpt><trkpt lat="43.1012561" lon="13.3159662"><ele>569.5</ele><time>2026-03-22T08:45:26.314Z</time></trkpt><trkpt lat="43.1012152" lon="13.3160338"><ele>566.3333333333333</ele><time>2026-03-22T08:45:27.314Z</time></trkpt><trkpt lat="43.1011388" lon="13.3161295"><ele>563.1666666666666</ele><time>2026-03-22T08:45:29.314Z</time></trkpt><trkpt lat="43.101078" lon="13.3160481"><ele>560.0</ele><time>2026-03-22T08:45:31.314Z</time></trkpt><trkpt lat="43.1010786" lon="13.3158873"><ele>560.0</ele><time>2026-03-22T08:45:33.314Z</time></trkpt><trkpt lat="43.1010913" lon="13.3157886"><ele>560.0</ele><time>2026-03-22T08:45:34.314Z</time></trkpt><trkpt lat="43.101091" lon="13.3156856"><ele>560.0</ele><time>2026-03-22T08:45:35.314Z</time></trkpt><trkpt lat="43.1010706" lon="13.3155904"><ele>560.0</ele><time>2026-03-22T08:45:36.314Z</time></trkpt><trkpt lat="43.1010249" lon="13.3155138"><ele>560.0</ele><time>2026-03-22T08:45:37.314Z</time></trkpt><trkpt lat="43.1009677" lon="13.3154448"><ele>560.0</ele><time>2026-03-22T08:45:38.314Z</time></trkpt><trkpt lat="43.1009026" lon="13.3153657"><ele>559.3333333333333</ele><time>2026-03-22T08:45:39.314Z</time></trkpt><trkpt lat="43.1008415" lon="13.3152802"><ele>558.6666666666666</ele><time>2026-03-22T08:45:40.314Z</time></trkpt><trkpt lat="43.1007831" lon="13.3152018"><ele>558.0</ele><time>2026-03-22T08:45:41.314Z</time></trkpt><trkpt lat="43.1007263" lon="13.3151286"><ele>557.3333333333334</ele><time>2026-03-22T08:45:42.314Z</time></trkpt><trkpt lat="43.1006646" lon="13.3150582"><ele>556.6666666666667</ele><time>2026-03-22T08:45:43.314Z</time></trkpt><trkpt lat="43.1005948" lon="13.314999"><ele>556.0</ele><time>2026-03-22T08:45:44.314Z</time></trkpt><trkpt lat="43.1005156" lon="13.3149661"><ele>553.0</ele><time>2026-03-22T08:45:45.314Z</time></trkpt><trkpt lat="43.1004317" lon="13.3149459"><ele>550.0</ele><time>2026-03-22T08:45:46.314Z</time></trkpt><trkpt lat="43.1003438" lon="13.3149375"><ele>547.0</ele><time>2026-03-22T08:45:47.314Z</time></trkpt><trkpt lat="43.1002514" lon="13.3149396"><ele>544.0</ele><time>2026-03-22T08:45:48.314Z</time></trkpt><trkpt lat="43.1001555" lon="13.3149402"><ele>541.0</ele><time>2026-03-22T08:45:49.314Z</time></trkpt><trkpt lat="43.1000628" lon="13.3149403"><ele>541.0</ele><time>2026-03-22T08:45:50.314Z</time></trkpt><trkpt lat="43.0999705" lon="13.3149444"><ele>541.0</ele><time>2026-03-22T08:45:51.314Z</time></trkpt><trkpt lat="43.0998774" lon="13.3149554"><ele>541.0</ele><time>2026-03-22T08:45:52.314Z</time></trkpt><trkpt lat="43.0997816" lon="13.314968"><ele>541.0</ele><time>2026-03-22T08:45:53.314Z</time></trkpt><trkpt lat="43.0996957" lon="13.3149747"><ele>541.0</ele><time>2026-03-22T08:45:54.314Z</time></trkpt><trkpt lat="43.0996216" lon="13.3149663"><ele>541.0</ele><time>2026-03-22T08:45:55.314Z</time></trkpt><trkpt lat="43.0995498" lon="13.3149469"><ele>538.6666666666667</ele><time>2026-03-22T08:45:56.314Z</time></trkpt><trkpt lat="43.099515" lon="13.3148705"><ele>536.3333333333334</ele><time>2026-03-22T08:45:57.314Z</time></trkpt><trkpt lat="43.0994944" lon="13.3147867"><ele>534.0</ele><time>2026-03-22T08:45:58.314Z</time></trkpt><trkpt lat="43.0994762" lon="13.3146919"><ele>531.6666666666666</ele><time>2026-03-22T08:45:59.314Z</time></trkpt><trkpt lat="43.0994445" lon="13.3146005"><ele>529.3333333333333</ele><time>2026-03-22T08:46:00.314Z</time></trkpt><trkpt lat="43.0994111" lon="13.3144994"><ele>527.0</ele><time>2026-03-22T08:46:01.314Z</time></trkpt><trkpt lat="43.0993486" lon="13.3143969"><ele>525.1666666666666</ele><time>2026-03-22T08:46:02.314Z</time></trkpt><trkpt lat="43.0992915" lon="13.3143058"><ele>523.3333333333333</ele><time>2026-03-22T08:46:03.314Z</time></trkpt><trkpt lat="43.0992278" lon="13.3142154"><ele>521.5</ele><time>2026-03-22T08:46:04.314Z</time></trkpt><trkpt lat="43.0991587" lon="13.3141322"><ele>519.6666666666666</ele><time>2026-03-22T08:46:05.314Z</time></trkpt><trkpt lat="43.0990967" lon="13.3140519"><ele>517.8333333333334</ele><time>2026-03-22T08:46:06.314Z</time></trkpt><trkpt lat="43.0990183" lon="13.3139843"><ele>516.0</ele><time>2026-03-22T08:46:07.314Z</time></trkpt><trkpt lat="43.0989375" lon="13.3139144"><ele>512.6</ele><time>2026-03-22T08:46:08.314Z</time></trkpt><trkpt lat="43.098851" lon="13.3138564"><ele>509.20000000000005</ele><time>2026-03-22T08:46:09.314Z</time></trkpt><trkpt lat="43.0987651" lon="13.3137976"><ele>505.79999999999995</ele><time>2026-03-22T08:46:10.314Z</time></trkpt><trkpt lat="43.0986747" lon="13.3137468"><ele>502.4</ele><time>2026-03-22T08:46:11.314Z</time></trkpt><trkpt lat="43.0985839" lon="13.3136883"><ele>499.0</ele><time>2026-03-22T08:46:12.314Z</time></trkpt><trkpt lat="43.0984904" lon="13.3136419"><ele>499.0</ele><time>2026-03-22T08:46:13.314Z</time></trkpt><trkpt lat="43.0983823" lon="13.3135891"><ele>499.0</ele><time>2026-03-22T08:46:14.314Z</time></trkpt><trkpt lat="43.0982724" lon="13.3135415"><ele>499.0</ele><time>2026-03-22T08:46:15.314Z</time></trkpt><trkpt lat="43.0981829" lon="13.3134875"><ele>499.0</ele><time>2026-03-22T08:46:16.313Z</time></trkpt><trkpt lat="43.0980953" lon="13.3134401"><ele>499.0</ele><time>2026-03-22T08:46:17.314Z</time></trkpt><trkpt lat="43.0980262" lon="13.3134065"><ele>497.0</ele><time>2026-03-22T08:46:18.314Z</time></trkpt><trkpt lat="43.0979593" lon="13.3133657"><ele>495.0</ele><time>2026-03-22T08:46:19.314Z</time></trkpt><trkpt lat="43.0979002" lon="13.3133331"><ele>493.0</ele><time>2026-03-22T08:46:20.314Z</time></trkpt><trkpt lat="43.0978037" lon="13.3133212"><ele>491.0</ele><time>2026-03-22T08:46:22.314Z</time></trkpt><trkpt lat="43.0977224" lon="13.3133905"><ele>489.0</ele><time>2026-03-22T08:46:24.314Z</time></trkpt><trkpt lat="43.0976591" lon="13.313535"><ele>489.0</ele><time>2026-03-22T08:46:26.314Z</time></trkpt><trkpt lat="43.0976231" lon="13.3136261"><ele>489.0</ele><time>2026-03-22T08:46:27.314Z</time></trkpt><trkpt lat="43.0975794" lon="13.313718"><ele>489.0</ele><time>2026-03-22T08:46:28.314Z</time></trkpt><trkpt lat="43.0975251" lon="13.3138141"><ele>489.0</ele><time>2026-03-22T08:46:29.313Z</time></trkpt><trkpt lat="43.097469" lon="13.3139143"><ele>489.0</ele><time>2026-03-22T08:46:30.314Z</time></trkpt><trkpt lat="43.0974096" lon="13.314013"><ele>489.0</ele><time>2026-03-22T08:46:31.314Z</time></trkpt><trkpt lat="43.0973454" lon="13.3141078"><ele>485.0</ele><time>2026-03-22T08:46:32.314Z</time></trkpt><trkpt lat="43.0972735" lon="13.314198"><ele>481.0</ele><time>2026-03-22T08:46:33.314Z</time></trkpt><trkpt lat="43.0971939" lon="13.3142801"><ele>477.0</ele><time>2026-03-22T08:46:34.314Z</time></trkpt><trkpt lat="43.0971124" lon="13.3143572"><ele>473.0</ele><time>2026-03-22T08:46:35.314Z</time></trkpt><trkpt lat="43.0970326" lon="13.3144222"><ele>469.0</ele><time>2026-03-22T08:46:36.314Z</time></trkpt><trkpt lat="43.0969563" lon="13.3144768"><ele>469.00000000000006</ele><time>2026-03-22T08:46:37.314Z</time></trkpt><trkpt lat="43.0968792" lon="13.3145175"><ele>469.0</ele><time>2026-03-22T08:46:38.314Z</time></trkpt><trkpt lat="43.096808" lon="13.3145399"><ele>469.0</ele><time>2026-03-22T08:46:39.314Z</time></trkpt><trkpt lat="43.0967311" lon="13.3145636"><ele>469.0</ele><time>2026-03-22T08:46:40.314Z</time></trkpt><trkpt lat="43.0966563" lon="13.3145679"><ele>469.00000000000006</ele><time>2026-03-22T08:46:41.313Z</time></trkpt><trkpt lat="43.0965743" lon="13.3145406"><ele>469.0</ele><time>2026-03-22T08:46:42.314Z</time></trkpt><trkpt lat="43.0965021" lon="13.3144896"><ele>467.4</ele><time>2026-03-22T08:46:43.314Z</time></trkpt><trkpt lat="43.0964293" lon="13.314429"><ele>465.79999999999995</ele><time>2026-03-22T08:46:44.314Z</time></trkpt><trkpt lat="43.0963566" lon="13.3143634"><ele>464.20000000000005</ele><time>2026-03-22T08:46:45.314Z</time></trkpt><trkpt lat="43.0962856" lon="13.3142844"><ele>462.6</ele><time>2026-03-22T08:46:46.314Z</time></trkpt><trkpt lat="43.0962159" lon="13.3141827"><ele>461.0</ele><time>2026-03-22T08:46:47.314Z</time></trkpt><trkpt lat="43.0961506" lon="13.3140735"><ele>461.0</ele><time>2026-03-22T08:46:48.314Z</time></trkpt><trkpt lat="43.096082" lon="13.3139413"><ele>461.0</ele><time>2026-03-22T08:46:49.314Z</time></trkpt><trkpt lat="43.0960289" lon="13.3138162"><ele>461.0</ele><time>2026-03-22T08:46:50.314Z</time></trkpt><trkpt lat="43.0959726" lon="13.3136883"><ele>461.0</ele><time>2026-03-22T08:46:51.314Z</time></trkpt><trkpt lat="43.0959257" lon="13.3135661"><ele>461.0</ele><time>2026-03-22T08:46:52.314Z</time></trkpt><trkpt lat="43.0958836" lon="13.3134439"><ele>458.20000000000005</ele><time>2026-03-22T08:46:53.314Z</time></trkpt><trkpt lat="43.0958466" lon="13.3133259"><ele>455.40000000000003</ele><time>2026-03-22T08:46:54.314Z</time></trkpt><trkpt lat="43.0958063" lon="13.3132063"><ele>452.6</ele><time>2026-03-22T08:46:55.314Z</time></trkpt><trkpt lat="43.0957665" lon="13.3130851"><ele>449.8</ele><time>2026-03-22T08:46:56.314Z</time></trkpt><trkpt lat="43.0957287" lon="13.3129617"><ele>447.0</ele><time>2026-03-22T08:46:57.314Z</time></trkpt><trkpt lat="43.095686" lon="13.3128413"><ele>442.8</ele><time>2026-03-22T08:46:58.314Z</time></trkpt><trkpt lat="43.0956462" lon="13.3127207"><ele>438.6</ele><time>2026-03-22T08:46:59.314Z</time></trkpt><trkpt lat="43.0956038" lon="13.3125986"><ele>434.40000000000003</ele><time>2026-03-22T08:47:00.314Z</time></trkpt><trkpt lat="43.0955647" lon="13.3124787"><ele>430.20000000000005</ele><time>2026-03-22T08:47:01.314Z</time></trkpt><trkpt lat="43.0955259" lon="13.3123651"><ele>426.0</ele><time>2026-03-22T08:47:02.314Z</time></trkpt><trkpt lat="43.0954865" lon="13.3122617"><ele>425.8333333333333</ele><time>2026-03-22T08:47:03.314Z</time></trkpt><trkpt lat="43.0954334" lon="13.3121741"><ele>425.66666666666663</ele><time>2026-03-22T08:47:04.314Z</time></trkpt><trkpt lat="43.0953733" lon="13.3120975"><ele>425.5</ele><time>2026-03-22T08:47:05.313Z</time></trkpt><trkpt lat="43.0952876" lon="13.3120628"><ele>425.3333333333333</ele><time>2026-03-22T08:47:06.314Z</time></trkpt><trkpt lat="43.0952014" lon="13.3120428"><ele>425.16666666666663</ele><time>2026-03-22T08:47:07.314Z</time></trkpt><trkpt lat="43.0951019" lon="13.3120403"><ele>425.0</ele><time>2026-03-22T08:47:08.314Z</time></trkpt><trkpt lat="43.0949937" lon="13.3120508"><ele>426.0</ele><time>2026-03-22T08:47:09.314Z</time></trkpt><trkpt lat="43.0948776" lon="13.3120642"><ele>427.0</ele><time>2026-03-22T08:47:10.314Z</time></trkpt><trkpt lat="43.0947641" lon="13.3120718"><ele>428.0</ele><time>2026-03-22T08:47:11.314Z</time></trkpt><trkpt lat="43.0946515" lon="13.3120715"><ele>429.0</ele><time>2026-03-22T08:47:12.314Z</time></trkpt><trkpt lat="43.0945456" lon="13.3120675"><ele>430.0</ele><time>2026-03-22T08:47:13.314Z</time></trkpt><trkpt lat="43.0944381" lon="13.3120701"><ele>430.0</ele><time>2026-03-22T08:47:14.314Z</time></trkpt><trkpt lat="43.0943216" lon="13.3120698"><ele>430.0</ele><time>2026-03-22T08:47:15.314Z</time></trkpt><trkpt lat="43.0942103" lon="13.3120695"><ele>430.0</ele><time>2026-03-22T08:47:16.314Z</time></trkpt><trkpt lat="43.0941207" lon="13.3120802"><ele>430.0</ele><time>2026-03-22T08:47:17.314Z</time></trkpt><trkpt lat="43.0940297" lon="13.3120794"><ele>430.0</ele><time>2026-03-22T08:47:18.314Z</time></trkpt><trkpt lat="43.0939356" lon="13.3120724"><ele>429.8</ele><time>2026-03-22T08:47:19.314Z</time></trkpt><trkpt lat="43.0938302" lon="13.3120354"><ele>429.6</ele><time>2026-03-22T08:47:20.313Z</time></trkpt><trkpt lat="43.0937247" lon="13.3119925"><ele>429.4</ele><time>2026-03-22T08:47:21.314Z</time></trkpt><trkpt lat="43.0936145" lon="13.3119408"><ele>429.2</ele><time>2026-03-22T08:47:22.313Z</time></trkpt><trkpt lat="43.0935093" lon="13.3118938"><ele>429.0</ele><time>2026-03-22T08:47:23.314Z</time></trkpt><trkpt lat="43.0934072" lon="13.3118467"><ele>429.0</ele><time>2026-03-22T08:47:24.314Z</time></trkpt><trkpt lat="43.0933035" lon="13.3117969"><ele>429.0</ele><time>2026-03-22T08:47:25.314Z</time></trkpt><trkpt lat="43.0931983" lon="13.3117443"><ele>429.0</ele><time>2026-03-22T08:47:26.314Z</time></trkpt><trkpt lat="43.0930892" lon="13.3116905"><ele>429.0</ele><time>2026-03-22T08:47:27.314Z</time></trkpt><trkpt lat="43.0929789" lon="13.3116361"><ele>428.2</ele><time>2026-03-22T08:47:28.314Z</time></trkpt><trkpt lat="43.0928856" lon="13.3115623"><ele>427.4</ele><time>2026-03-22T08:47:29.314Z</time></trkpt><trkpt lat="43.0927947" lon="13.3115071"><ele>426.6</ele><time>2026-03-22T08:47:30.314Z</time></trkpt><trkpt lat="43.0926978" lon="13.3114788"><ele>425.8</ele><time>2026-03-22T08:47:31.314Z</time></trkpt><trkpt lat="43.0925918" lon="13.3114784"><ele>425.0</ele><time>2026-03-22T08:47:32.314Z</time></trkpt><trkpt lat="43.092475" lon="13.3114968"><ele>425.0</ele><time>2026-03-22T08:47:33.314Z</time></trkpt><trkpt lat="43.0923584" lon="13.3115304"><ele>425.0</ele><time>2026-03-22T08:47:34.314Z</time></trkpt><trkpt lat="43.0922458" lon="13.3115692"><ele>425.0</ele><time>2026-03-22T08:47:35.314Z</time></trkpt><trkpt lat="43.0921437" lon="13.3116039"><ele>425.0</ele><time>2026-03-22T08:47:36.314Z</time></trkpt><trkpt lat="43.0920445" lon="13.3116365"><ele>425.0</ele><time>2026-03-22T08:47:37.313Z</time></trkpt><trkpt lat="43.0919468" lon="13.3116617"><ele>424.99999999999994</ele><time>2026-03-22T08:47:38.314Z</time></trkpt><trkpt lat="43.0918529" lon="13.311662"><ele>425.0</ele><time>2026-03-22T08:47:39.314Z</time></trkpt><trkpt lat="43.0917605" lon="13.3116606"><ele>425.0</ele><time>2026-03-22T08:47:40.314Z</time></trkpt><trkpt lat="43.0916836" lon="13.3116839"><ele>425.0</ele><time>2026-03-22T08:47:41.314Z</time></trkpt><trkpt lat="43.0916147" lon="13.3117048"><ele>424.99999999999994</ele><time>2026-03-22T08:47:42.314Z</time></trkpt><trkpt lat="43.0915372" lon="13.3117226"><ele>425.0</ele><time>2026-03-22T08:47:43.314Z</time></trkpt><trkpt lat="43.0914442" lon="13.3117295"><ele>424.0</ele><time>2026-03-22T08:47:44.314Z</time></trkpt><trkpt lat="43.0913435" lon="13.311722"><ele>423.0</ele><time>2026-03-22T08:47:45.314Z</time></trkpt><trkpt lat="43.0912343" lon="13.3117128"><ele>422.0</ele><time>2026-03-22T08:47:46.314Z</time></trkpt><trkpt lat="43.0911309" lon="13.311697"><ele>421.0</ele><time>2026-03-22T08:47:47.314Z</time></trkpt><trkpt lat="43.0910257" lon="13.3116671"><ele>420.0</ele><time>2026-03-22T08:47:48.314Z</time></trkpt><trkpt lat="43.0909286" lon="13.3116301"><ele>420.0</ele><time>2026-03-22T08:47:49.313Z</time></trkpt><trkpt lat="43.0908314" lon="13.3115992"><ele>420.0</ele><time>2026-03-22T08:47:50.314Z</time></trkpt><trkpt lat="43.0907391" lon="13.3116009"><ele>420.0</ele><time>2026-03-22T08:47:51.313Z</time></trkpt><trkpt lat="43.090631" lon="13.3116012"><ele>420.0</ele><time>2026-03-22T08:47:52.314Z</time></trkpt><trkpt lat="43.0905109" lon="13.3116126"><ele>420.0</ele><time>2026-03-22T08:47:53.314Z</time></trkpt><trkpt lat="43.0903878" lon="13.3116082"><ele>419.75</ele><time>2026-03-22T08:47:54.314Z</time></trkpt><trkpt lat="43.0902663" lon="13.3116022"><ele>419.5</ele><time>2026-03-22T08:47:55.314Z</time></trkpt><trkpt lat="43.0901508" lon="13.3115892"><ele>419.25</ele><time>2026-03-22T08:47:56.314Z</time></trkpt><trkpt lat="43.0900423" lon="13.311572"><ele>419.0</ele><time>2026-03-22T08:47:57.314Z</time></trkpt><trkpt lat="43.0899394" lon="13.3115579"><ele>418.6</ele><time>2026-03-22T08:47:58.314Z</time></trkpt><trkpt lat="43.089845" lon="13.3115472"><ele>418.2</ele><time>2026-03-22T08:47:59.314Z</time></trkpt><trkpt lat="43.0897648" lon="13.311548"><ele>417.8</ele><time>2026-03-22T08:48:00.314Z</time></trkpt><trkpt lat="43.0896588" lon="13.3115599"><ele>417.40000000000003</ele><time>2026-03-22T08:48:02.314Z</time></trkpt><trkpt lat="43.0895821" lon="13.3115795"><ele>417.0</ele><time>2026-03-22T08:48:05.314Z</time></trkpt><trkpt lat="43.0894843" lon="13.3116676"><ele>417.0</ele><time>2026-03-22T08:48:07.314Z</time></trkpt><trkpt lat="43.089409" lon="13.3117702"><ele>417.0</ele><time>2026-03-22T08:48:08.314Z</time></trkpt><trkpt lat="43.0893427" lon="13.3118741"><ele>417.0</ele><time>2026-03-22T08:48:09.314Z</time></trkpt><trkpt lat="43.08928" lon="13.3119802"><ele>417.0</ele><time>2026-03-22T08:48:10.314Z</time></trkpt><trkpt lat="43.089218" lon="13.3120822"><ele>417.0</ele><time>2026-03-22T08:48:11.314Z</time></trkpt><trkpt lat="43.0891612" lon="13.3121786"><ele>416.5</ele><time>2026-03-22T08:48:12.314Z</time></trkpt><trkpt lat="43.0891137" lon="13.3122673"><ele>416.0</ele><time>2026-03-22T08:48:13.313Z</time></trkpt><trkpt lat="43.0890671" lon="13.3123454"><ele>415.5</ele><time>2026-03-22T08:48:14.314Z</time></trkpt><trkpt lat="43.0890031" lon="13.3124461"><ele>415.0</ele><time>2026-03-22T08:48:16.314Z</time></trkpt><trkpt lat="43.0889459" lon="13.3125172"><ele>414.5</ele><time>2026-03-22T08:48:19.314Z</time></trkpt><trkpt lat="43.0888689" lon="13.3125834"><ele>414.0</ele><time>2026-03-22T08:48:21.314Z</time></trkpt><trkpt lat="43.0887871" lon="13.3126382"><ele>414.0</ele><time>2026-03-22T08:48:22.314Z</time></trkpt><trkpt lat="43.0886857" lon="13.3126876"><ele>414.0</ele><time>2026-03-22T08:48:23.314Z</time></trkpt><trkpt lat="43.088574" lon="13.3127271"><ele>414.0</ele><time>2026-03-22T08:48:24.314Z</time></trkpt><trkpt lat="43.0884685" lon="13.3127709"><ele>414.0</ele><time>2026-03-22T08:48:25.314Z</time></trkpt><trkpt lat="43.0883599" lon="13.3128072"><ele>414.0</ele><time>2026-03-22T08:48:26.314Z</time></trkpt><trkpt lat="43.0882584" lon="13.3128398"><ele>413.79999999999995</ele><time>2026-03-22T08:48:27.314Z</time></trkpt><trkpt lat="43.0881585" lon="13.3128759"><ele>413.59999999999997</ele><time>2026-03-22T08:48:28.314Z</time></trkpt><trkpt lat="43.0880525" lon="13.31291"><ele>413.4</ele><time>2026-03-22T08:48:29.314Z</time></trkpt><trkpt lat="43.0879385" lon="13.312949"><ele>413.2</ele><time>2026-03-22T08:48:30.314Z</time></trkpt><trkpt lat="43.0878241" lon="13.3129897"><ele>413.0</ele><time>2026-03-22T08:48:31.314Z</time></trkpt><trkpt lat="43.0877164" lon="13.3130284"><ele>413.0</ele><time>2026-03-22T08:48:32.314Z</time></trkpt><trkpt lat="43.0876075" lon="13.3130527"><ele>413.0</ele><time>2026-03-22T08:48:33.314Z</time></trkpt><trkpt lat="43.0874928" lon="13.313059"><ele>413.0</ele><time>2026-03-22T08:48:34.314Z</time></trkpt><trkpt lat="43.0873744" lon="13.3130442"><ele>413.0</ele><time>2026-03-22T08:48:35.314Z</time></trkpt><trkpt lat="43.0872484" lon="13.3130086"><ele>414.0</ele><time>2026-03-22T08:48:36.314Z</time></trkpt><trkpt lat="43.0871272" lon="13.3129601"><ele>415.0</ele><time>2026-03-22T08:48:37.314Z</time></trkpt><trkpt lat="43.0870082" lon="13.3129039"><ele>416.0</ele><time>2026-03-22T08:48:38.314Z</time></trkpt><trkpt lat="43.0868918" lon="13.3128561"><ele>417.0</ele><time>2026-03-22T08:48:39.314Z</time></trkpt><trkpt lat="43.0867753" lon="13.312815"><ele>417.0</ele><time>2026-03-22T08:48:40.314Z</time></trkpt><trkpt lat="43.0866496" lon="13.3127904"><ele>417.0</ele><time>2026-03-22T08:48:41.314Z</time></trkpt><trkpt lat="43.0865247" lon="13.3127979"><ele>417.0</ele><time>2026-03-22T08:48:42.314Z</time></trkpt><trkpt lat="43.086396" lon="13.3128396"><ele>417.0</ele><time>2026-03-22T08:48:43.314Z</time></trkpt><trkpt lat="43.0862733" lon="13.3128973"><ele>418.25</ele><time>2026-03-22T08:48:44.314Z</time></trkpt><trkpt lat="43.0861547" lon="13.3129543"><ele>419.5</ele><time>2026-03-22T08:48:45.314Z</time></trkpt><trkpt lat="43.0860354" lon="13.3130101"><ele>420.75</ele><time>2026-03-22T08:48:46.313Z</time></trkpt><trkpt lat="43.0859156" lon="13.3130709"><ele>422.0</ele><time>2026-03-22T08:48:47.314Z</time></trkpt><trkpt lat="43.0857998" lon="13.3131291"><ele>422.75</ele><time>2026-03-22T08:48:48.314Z</time></trkpt><trkpt lat="43.0856814" lon="13.3131895"><ele>423.5</ele><time>2026-03-22T08:48:49.314Z</time></trkpt><trkpt lat="43.0855675" lon="13.3132458"><ele>424.25</ele><time>2026-03-22T08:48:50.314Z</time></trkpt><trkpt lat="43.0854481" lon="13.3132959"><ele>425.0</ele><time>2026-03-22T08:48:51.314Z</time></trkpt><trkpt lat="43.0853288" lon="13.3133383"><ele>425.0</ele><time>2026-03-22T08:48:52.314Z</time></trkpt><trkpt lat="43.085209" lon="13.3133668"><ele>425.0</ele><time>2026-03-22T08:48:53.314Z</time></trkpt><trkpt lat="43.0850762" lon="13.3133448"><ele>425.0</ele><time>2026-03-22T08:48:54.314Z</time></trkpt><trkpt lat="43.0849429" lon="13.3133191"><ele>425.0</ele><time>2026-03-22T08:48:55.314Z</time></trkpt><trkpt lat="43.0848161" lon="13.3132664"><ele>425.75</ele><time>2026-03-22T08:48:56.314Z</time></trkpt><trkpt lat="43.0846982" lon="13.3131853"><ele>426.5</ele><time>2026-03-22T08:48:57.314Z</time></trkpt><trkpt lat="43.0845927" lon="13.3130801"><ele>427.25</ele><time>2026-03-22T08:48:58.314Z</time></trkpt><trkpt lat="43.0845" lon="13.3129474"><ele>428.0</ele><time>2026-03-22T08:48:59.313Z</time></trkpt><trkpt lat="43.0844272" lon="13.3127941"><ele>429.0</ele><time>2026-03-22T08:49:00.314Z</time></trkpt><trkpt lat="43.0843659" lon="13.3126273"><ele>430.0</ele><time>2026-03-22T08:49:01.313Z</time></trkpt><trkpt lat="43.0843062" lon="13.3124583"><ele>431.0</ele><time>2026-03-22T08:49:02.314Z</time></trkpt><trkpt lat="43.0842457" lon="13.3122809"><ele>432.0</ele><time>2026-03-22T08:49:03.314Z</time></trkpt><trkpt lat="43.0841894" lon="13.3121008"><ele>433.0</ele><time>2026-03-22T08:49:04.314Z</time></trkpt><trkpt lat="43.084126" lon="13.3119261"><ele>434.0</ele><time>2026-03-22T08:49:05.314Z</time></trkpt><trkpt lat="43.0840644" lon="13.3117471"><ele>435.0</ele><time>2026-03-22T08:49:06.314Z</time></trkpt><trkpt lat="43.0840005" lon="13.3115727"><ele>436.0</ele><time>2026-03-22T08:49:07.314Z</time></trkpt><trkpt lat="43.0839385" lon="13.311397"><ele>441.25</ele><time>2026-03-22T08:49:08.314Z</time></trkpt><trkpt lat="43.0838785" lon="13.3112213"><ele>446.5</ele><time>2026-03-22T08:49:09.314Z</time></trkpt><trkpt lat="43.0838166" lon="13.3110528"><ele>451.75</ele><time>2026-03-22T08:49:10.314Z</time></trkpt><trkpt lat="43.083747" lon="13.3108887"><ele>457.0</ele><time>2026-03-22T08:49:11.314Z</time></trkpt><trkpt lat="43.0836619" lon="13.3107359"><ele>457.0</ele><time>2026-03-22T08:49:12.314Z</time></trkpt><trkpt lat="43.0835641" lon="13.3105918"><ele>457.0</ele><time>2026-03-22T08:49:13.314Z</time></trkpt><trkpt lat="43.0834619" lon="13.3104501"><ele>457.0</ele><time>2026-03-22T08:49:14.314Z</time></trkpt><trkpt lat="43.0833568" lon="13.3103127"><ele>457.0</ele><time>2026-03-22T08:49:15.314Z</time></trkpt><trkpt lat="43.0832497" lon="13.3101744"><ele>459.75</ele><time>2026-03-22T08:49:16.314Z</time></trkpt><trkpt lat="43.0831429" lon="13.3100426"><ele>462.5</ele><time>2026-03-22T08:49:17.314Z</time></trkpt><trkpt lat="43.0830392" lon="13.309911"><ele>465.25</ele><time>2026-03-22T08:49:18.314Z</time></trkpt><trkpt lat="43.0829439" lon="13.3097795"><ele>468.0</ele><time>2026-03-22T08:49:19.314Z</time></trkpt><trkpt lat="43.0828679" lon="13.3096321"><ele>468.0</ele><time>2026-03-22T08:49:20.314Z</time></trkpt><trkpt lat="43.082797" lon="13.3094833"><ele>468.0</ele><time>2026-03-22T08:49:21.314Z</time></trkpt><trkpt lat="43.0827625" lon="13.3093117"><ele>468.0</ele><time>2026-03-22T08:49:22.314Z</time></trkpt><trkpt lat="43.0827345" lon="13.3091444"><ele>468.0</ele><time>2026-03-22T08:49:23.314Z</time></trkpt><trkpt lat="43.0827077" lon="13.3089994"><ele>467.79999999999995</ele><time>2026-03-22T08:49:24.314Z</time></trkpt><trkpt lat="43.0826637" lon="13.3088646"><ele>467.59999999999997</ele><time>2026-03-22T08:49:25.314Z</time></trkpt><trkpt lat="43.0826079" lon="13.3087554"><ele>467.40000000000003</ele><time>2026-03-22T08:49:26.314Z</time></trkpt><trkpt lat="43.0825325" lon="13.3086788"><ele>467.20000000000005</ele><time>2026-03-22T08:49:27.314Z</time></trkpt><trkpt lat="43.0824389" lon="13.3086403"><ele>467.0</ele><time>2026-03-22T08:49:28.314Z</time></trkpt><trkpt lat="43.0823388" lon="13.3086502"><ele>471.25</ele><time>2026-03-22T08:49:29.314Z</time></trkpt><trkpt lat="43.0822392" lon="13.3087037"><ele>475.5</ele><time>2026-03-22T08:49:30.314Z</time></trkpt><trkpt lat="43.0821647" lon="13.308806"><ele>479.75</ele><time>2026-03-22T08:49:31.314Z</time></trkpt><trkpt lat="43.0820869" lon="13.308923"><ele>484.0</ele><time>2026-03-22T08:49:32.313Z</time></trkpt><trkpt lat="43.0820546" lon="13.3090834"><ele>484.83333333333337</ele><time>2026-03-22T08:49:33.314Z</time></trkpt><trkpt lat="43.0820087" lon="13.3092168"><ele>485.6666666666667</ele><time>2026-03-22T08:49:34.314Z</time></trkpt><trkpt lat="43.0819614" lon="13.3093218"><ele>486.5</ele><time>2026-03-22T08:49:35.314Z</time></trkpt><trkpt lat="43.0818969" lon="13.3093878"><ele>487.33333333333337</ele><time>2026-03-22T08:49:36.314Z</time></trkpt><trkpt lat="43.0818269" lon="13.309402"><ele>488.1666666666667</ele><time>2026-03-22T08:49:37.314Z</time></trkpt><trkpt lat="43.0817544" lon="13.3093667"><ele>489.0</ele><time>2026-03-22T08:49:38.314Z</time></trkpt><trkpt lat="43.0816969" lon="13.3092861"><ele>489.0</ele><time>2026-03-22T08:49:39.314Z</time></trkpt><trkpt lat="43.0816383" lon="13.3091909"><ele>489.0</ele><time>2026-03-22T08:49:40.313Z</time></trkpt><trkpt lat="43.081619" lon="13.3090481"><ele>489.0</ele><time>2026-03-22T08:49:41.314Z</time></trkpt><trkpt lat="43.0816039" lon="13.3088983"><ele>489.0</ele><time>2026-03-22T08:49:42.314Z</time></trkpt><trkpt lat="43.0815892" lon="13.3087415"><ele>489.0</ele><time>2026-03-22T08:49:43.314Z</time></trkpt><trkpt lat="43.0815728" lon="13.3085854"><ele>491.5</ele><time>2026-03-22T08:49:44.314Z</time></trkpt><trkpt lat="43.08154" lon="13.3084522"><ele>494.0</ele><time>2026-03-22T08:49:45.314Z</time></trkpt><trkpt lat="43.0814927" lon="13.3083598"><ele>496.5</ele><time>2026-03-22T08:49:46.314Z</time></trkpt><trkpt lat="43.0814282" lon="13.3083367"><ele>499.0</ele><time>2026-03-22T08:49:47.314Z</time></trkpt><trkpt lat="43.0813563" lon="13.3083568"><ele>501.5</ele><time>2026-03-22T08:49:48.314Z</time></trkpt><trkpt lat="43.0812817" lon="13.3084241"><ele>504.0</ele><time>2026-03-22T08:49:49.314Z</time></trkpt><trkpt lat="43.0812091" lon="13.3085594"><ele>504.0</ele><time>2026-03-22T08:49:50.314Z</time></trkpt><trkpt lat="43.0811523" lon="13.308701"><ele>504.0</ele><time>2026-03-22T08:49:51.314Z</time></trkpt><trkpt lat="43.0811191" lon="13.3088574"><ele>504.0</ele><time>2026-03-22T08:49:52.314Z</time></trkpt><trkpt lat="43.0810997" lon="13.3090244"><ele>504.0</ele><time>2026-03-22T08:49:53.314Z</time></trkpt><trkpt lat="43.0810874" lon="13.309187"><ele>504.2</ele><time>2026-03-22T08:49:54.313Z</time></trkpt><trkpt lat="43.081066" lon="13.3093278"><ele>504.4</ele><time>2026-03-22T08:49:55.314Z</time></trkpt><trkpt lat="43.0810243" lon="13.309439"><ele>504.6</ele><time>2026-03-22T08:49:56.314Z</time></trkpt><trkpt lat="43.0809617" lon="13.3095082"><ele>504.8</ele><time>2026-03-22T08:49:57.314Z</time></trkpt><trkpt lat="43.0808759" lon="13.3095511"><ele>505.0</ele><time>2026-03-22T08:49:58.314Z</time></trkpt><trkpt lat="43.080762" lon="13.3095639"><ele>505.5</ele><time>2026-03-22T08:49:59.314Z</time></trkpt><trkpt lat="43.080645" lon="13.3095787"><ele>506.0</ele><time>2026-03-22T08:50:00.314Z</time></trkpt><trkpt lat="43.0805158" lon="13.3096161"><ele>506.5</ele><time>2026-03-22T08:50:01.314Z</time></trkpt><trkpt lat="43.0803964" lon="13.3096816"><ele>507.0</ele><time>2026-03-22T08:50:02.314Z</time></trkpt><trkpt lat="43.0802815" lon="13.3097801"><ele>507.0</ele><time>2026-03-22T08:50:03.313Z</time></trkpt><trkpt lat="43.0801674" lon="13.3099014"><ele>507.0</ele><time>2026-03-22T08:50:04.314Z</time></trkpt><trkpt lat="43.0800539" lon="13.3100278"><ele>507.0</ele><time>2026-03-22T08:50:05.314Z</time></trkpt><trkpt lat="43.079932" lon="13.3101593"><ele>507.0</ele><time>2026-03-22T08:50:06.314Z</time></trkpt><trkpt lat="43.0798164" lon="13.3102997"><ele>510.25</ele><time>2026-03-22T08:50:07.314Z</time></trkpt><trkpt lat="43.0797011" lon="13.3104384"><ele>513.5</ele><time>2026-03-22T08:50:08.314Z</time></trkpt><trkpt lat="43.0795924" lon="13.3105676"><ele>516.75</ele><time>2026-03-22T08:50:09.314Z</time></trkpt><trkpt lat="43.0794905" lon="13.3106872"><ele>520.0</ele><time>2026-03-22T08:50:10.314Z</time></trkpt><trkpt lat="43.0793859" lon="13.3108048"><ele>520.0</ele><time>2026-03-22T08:50:11.313Z</time></trkpt><trkpt lat="43.0792828" lon="13.3109182"><ele>520.0</ele><time>2026-03-22T08:50:12.314Z</time></trkpt><trkpt lat="43.079177" lon="13.3110293"><ele>520.0</ele><time>2026-03-22T08:50:13.314Z</time></trkpt><trkpt lat="43.0790679" lon="13.3111169"><ele>520.0</ele><time>2026-03-22T08:50:14.314Z</time></trkpt><trkpt lat="43.0789529" lon="13.3111694"><ele>522.0</ele><time>2026-03-22T08:50:15.314Z</time></trkpt><trkpt lat="43.0788262" lon="13.3111946"><ele>524.0</ele><time>2026-03-22T08:50:16.313Z</time></trkpt><trkpt lat="43.0786957" lon="13.3111985"><ele>526.0</ele><time>2026-03-22T08:50:17.314Z</time></trkpt><trkpt lat="43.0785634" lon="13.3112014"><ele>528.0</ele><time>2026-03-22T08:50:18.314Z</time></trkpt><trkpt lat="43.0784419" lon="13.311204"><ele>528.0</ele><time>2026-03-22T08:50:19.314Z</time></trkpt><trkpt lat="43.0783354" lon="13.311241"><ele>528.0</ele><time>2026-03-22T08:50:20.314Z</time></trkpt><trkpt lat="43.0782438" lon="13.3112922"><ele>528.0</ele><time>2026-03-22T08:50:21.314Z</time></trkpt><trkpt lat="43.0781726" lon="13.3113894"><ele>528.0</ele><time>2026-03-22T08:50:22.314Z</time></trkpt><trkpt lat="43.078117" lon="13.3115357"><ele>528.0</ele><time>2026-03-22T08:50:23.314Z</time></trkpt><trkpt lat="43.0780717" lon="13.3117102"><ele>530.25</ele><time>2026-03-22T08:50:24.314Z</time></trkpt><trkpt lat="43.0780234" lon="13.3118984"><ele>532.5</ele><time>2026-03-22T08:50:25.314Z</time></trkpt><trkpt lat="43.0779746" lon="13.3120858"><ele>534.75</ele><time>2026-03-22T08:50:26.314Z</time></trkpt><trkpt lat="43.0779261" lon="13.3122718"><ele>537.0</ele><time>2026-03-22T08:50:27.314Z</time></trkpt><trkpt lat="43.0778809" lon="13.3124485"><ele>537.0</ele><time>2026-03-22T08:50:28.314Z</time></trkpt><trkpt lat="43.077838" lon="13.3126188"><ele>537.0</ele><time>2026-03-22T08:50:29.314Z</time></trkpt><trkpt lat="43.077796" lon="13.3127727"><ele>537.0</ele><time>2026-03-22T08:50:30.313Z</time></trkpt><trkpt lat="43.0777552" lon="13.3129113"><ele>537.0</ele><time>2026-03-22T08:50:31.314Z</time></trkpt><trkpt lat="43.0777225" lon="13.3130187"><ele>537.0</ele><time>2026-03-22T08:50:32.314Z</time></trkpt><trkpt lat="43.0776905" lon="13.3131212"><ele>536.0</ele><time>2026-03-22T08:50:33.314Z</time></trkpt><trkpt lat="43.0776698" lon="13.3132106"><ele>535.0</ele><time>2026-03-22T08:50:34.314Z</time></trkpt><trkpt lat="43.0776677" lon="13.3133155"><ele>534.0</ele><time>2026-03-22T08:50:35.314Z</time></trkpt><trkpt lat="43.0776842" lon="13.3134279"><ele>533.0</ele><time>2026-03-22T08:50:36.314Z</time></trkpt><trkpt lat="43.0777546" lon="13.3135666"><ele>532.0</ele><time>2026-03-22T08:50:37.314Z</time></trkpt><trkpt lat="43.0778252" lon="13.3137102"><ele>532.0</ele><time>2026-03-22T08:50:38.314Z</time></trkpt><trkpt lat="43.0778995" lon="13.3138595"><ele>532.0</ele><time>2026-03-22T08:50:39.314Z</time></trkpt><trkpt lat="43.0779777" lon="13.3140133"><ele>532.0</ele><time>2026-03-22T08:50:40.314Z</time></trkpt><trkpt lat="43.0780558" lon="13.3141717"><ele>532.0</ele><time>2026-03-22T08:50:41.314Z</time></trkpt><trkpt lat="43.0781354" lon="13.3143359"><ele>531.6666666666667</ele><time>2026-03-22T08:50:42.314Z</time></trkpt><trkpt lat="43.0782195" lon="13.3145068"><ele>531.3333333333334</ele><time>2026-03-22T08:50:43.314Z</time></trkpt><trkpt lat="43.0782994" lon="13.314677"><ele>531.0</ele><time>2026-03-22T08:50:44.314Z</time></trkpt><trkpt lat="43.0783832" lon="13.3148517"><ele>533.6666666666666</ele><time>2026-03-22T08:50:45.314Z</time></trkpt><trkpt lat="43.0784843" lon="13.3150072"><ele>536.3333333333333</ele><time>2026-03-22T08:50:46.314Z</time></trkpt><trkpt lat="43.0786098" lon="13.3151393"><ele>539.0</ele><time>2026-03-22T08:50:47.314Z</time></trkpt><trkpt lat="43.0787286" lon="13.315266"><ele>539.0</ele><time>2026-03-22T08:50:48.314Z</time></trkpt><trkpt lat="43.0788391" lon="13.3153823"><ele>539.0</ele><time>2026-03-22T08:50:49.314Z</time></trkpt><trkpt lat="43.0789411" lon="13.3154938"><ele>539.0</ele><time>2026-03-22T08:50:50.314Z</time></trkpt><trkpt lat="43.0790394" lon="13.3156108"><ele>539.0</ele><time>2026-03-22T08:50:51.314Z</time></trkpt><trkpt lat="43.0791418" lon="13.3157275"><ele>538.75</ele><time>2026-03-22T08:50:52.314Z</time></trkpt><trkpt lat="43.0792508" lon="13.3158416"><ele>538.5</ele><time>2026-03-22T08:50:53.314Z</time></trkpt><trkpt lat="43.0793728" lon="13.3159563"><ele>538.25</ele><time>2026-03-22T08:50:54.314Z</time></trkpt><trkpt lat="43.0795022" lon="13.3160724"><ele>538.0</ele><time>2026-03-22T08:50:55.314Z</time></trkpt><trkpt lat="43.0796308" lon="13.316182"><ele>538.0</ele><time>2026-03-22T08:50:56.314Z</time></trkpt><trkpt lat="43.0797574" lon="13.3162892"><ele>538.0</ele><time>2026-03-22T08:50:57.314Z</time></trkpt><trkpt lat="43.0798738" lon="13.3163848"><ele>538.0</ele><time>2026-03-22T08:50:58.314Z</time></trkpt><trkpt lat="43.0799732" lon="13.3164783"><ele>538.0</ele><time>2026-03-22T08:50:59.314Z</time></trkpt><trkpt lat="43.0800457" lon="13.3165662"><ele>536.8</ele><time>2026-03-22T08:51:00.314Z</time></trkpt><trkpt lat="43.0800885" lon="13.3166327"><ele>535.5999999999999</ele><time>2026-03-22T08:51:01.314Z</time></trkpt><trkpt lat="43.0801565" lon="13.3167354"><ele>534.4000000000001</ele><time>2026-03-22T08:51:03.314Z</time></trkpt><trkpt lat="43.080274" lon="13.3168133"><ele>533.2</ele><time>2026-03-22T08:51:05.314Z</time></trkpt><trkpt lat="43.0803665" lon="13.3168596"><ele>532.0</ele><time>2026-03-22T08:51:06.314Z</time></trkpt><trkpt lat="43.0804595" lon="13.3169181"><ele>532.0</ele><time>2026-03-22T08:51:07.314Z</time></trkpt><trkpt lat="43.0805542" lon="13.316996"><ele>532.0</ele><time>2026-03-22T08:51:08.314Z</time></trkpt><trkpt lat="43.0806394" lon="13.3170978"><ele>532.0</ele><time>2026-03-22T08:51:09.314Z</time></trkpt><trkpt lat="43.0807192" lon="13.3172236"><ele>532.0</ele><time>2026-03-22T08:51:10.314Z</time></trkpt><trkpt lat="43.080801" lon="13.3173722"><ele>530.0</ele><time>2026-03-22T08:51:11.314Z</time></trkpt><trkpt lat="43.0808817" lon="13.3175258"><ele>528.0</ele><time>2026-03-22T08:51:12.314Z</time></trkpt><trkpt lat="43.0809709" lon="13.3176838"><ele>526.0</ele><time>2026-03-22T08:51:13.314Z</time></trkpt><trkpt lat="43.0810589" lon="13.3178496"><ele>524.0</ele><time>2026-03-22T08:51:14.314Z</time></trkpt><trkpt lat="43.0811486" lon="13.3180099"><ele>523.75</ele><time>2026-03-22T08:51:15.314Z</time></trkpt><trkpt lat="43.0812401" lon="13.3181671"><ele>523.5</ele><time>2026-03-22T08:51:16.314Z</time></trkpt><trkpt lat="43.0813318" lon="13.3183194"><ele>523.25</ele><time>2026-03-22T08:51:17.314Z</time></trkpt><trkpt lat="43.0814323" lon="13.318465"><ele>523.0</ele><time>2026-03-22T08:51:18.314Z</time></trkpt><trkpt lat="43.0815387" lon="13.3185964"><ele>522.5</ele><time>2026-03-22T08:51:19.314Z</time></trkpt><trkpt lat="43.0816417" lon="13.3187153"><ele>522.0</ele><time>2026-03-22T08:51:20.314Z</time></trkpt><trkpt lat="43.0817404" lon="13.3188262"><ele>521.5</ele><time>2026-03-22T08:51:21.314Z</time></trkpt><trkpt lat="43.0818398" lon="13.3189386"><ele>521.0</ele><time>2026-03-22T08:51:22.314Z</time></trkpt><trkpt lat="43.0819337" lon="13.319054"><ele>521.0</ele><time>2026-03-22T08:51:23.314Z</time></trkpt><trkpt lat="43.0820212" lon="13.3191755"><ele>521.0</ele><time>2026-03-22T08:51:24.314Z</time></trkpt><trkpt lat="43.0820952" lon="13.3193202"><ele>521.0</ele><time>2026-03-22T08:51:25.314Z</time></trkpt><trkpt lat="43.0821622" lon="13.3194606"><ele>521.0</ele><time>2026-03-22T08:51:26.313Z</time></trkpt><trkpt lat="43.0822454" lon="13.3196057"><ele>520.25</ele><time>2026-03-22T08:51:27.314Z</time></trkpt><trkpt lat="43.0823492" lon="13.3197456"><ele>519.5</ele><time>2026-03-22T08:51:28.314Z</time></trkpt><trkpt lat="43.0824607" lon="13.31988"><ele>518.75</ele><time>2026-03-22T08:51:29.314Z</time></trkpt><trkpt lat="43.0825709" lon="13.3200011"><ele>518.0</ele><time>2026-03-22T08:51:30.314Z</time></trkpt><trkpt lat="43.0826839" lon="13.3201092"><ele>518.0</ele><time>2026-03-22T08:51:31.314Z</time></trkpt><trkpt lat="43.0827904" lon="13.3202137"><ele>518.0</ele><time>2026-03-22T08:51:32.314Z</time></trkpt><trkpt lat="43.0828957" lon="13.3203125"><ele>518.0</ele><time>2026-03-22T08:51:33.314Z</time></trkpt><trkpt lat="43.0829948" lon="13.3204086"><ele>518.0</ele><time>2026-03-22T08:51:34.314Z</time></trkpt><trkpt lat="43.083095" lon="13.3205068"><ele>518.0</ele><time>2026-03-22T08:51:35.314Z</time></trkpt><trkpt lat="43.0831954" lon="13.3206096"><ele>518.0</ele><time>2026-03-22T08:51:36.314Z</time></trkpt><trkpt lat="43.083294" lon="13.3207001"><ele>518.0</ele><time>2026-03-22T08:51:37.314Z</time></trkpt><trkpt lat="43.0833868" lon="13.3207656"><ele>518.0</ele><time>2026-03-22T08:51:38.314Z</time></trkpt><trkpt lat="43.0834813" lon="13.3208008"><ele>518.0</ele><time>2026-03-22T08:51:39.314Z</time></trkpt><trkpt lat="43.0835804" lon="13.3208209"><ele>519.6</ele><time>2026-03-22T08:51:40.314Z</time></trkpt><trkpt lat="43.0836805" lon="13.3208486"><ele>521.1999999999999</ele><time>2026-03-22T08:51:41.314Z</time></trkpt><trkpt lat="43.0837787" lon="13.3208898"><ele>522.8</ele><time>2026-03-22T08:51:42.314Z</time></trkpt><trkpt lat="43.0838651" lon="13.3209533"><ele>524.4</ele><time>2026-03-22T08:51:43.314Z</time></trkpt><trkpt lat="43.0839532" lon="13.3210314"><ele>526.0</ele><time>2026-03-22T08:51:44.314Z</time></trkpt><trkpt lat="43.0840226" lon="13.3211269"><ele>526.0</ele><time>2026-03-22T08:51:45.314Z</time></trkpt><trkpt lat="43.0840917" lon="13.3212306"><ele>526.0</ele><time>2026-03-22T08:51:46.314Z</time></trkpt><trkpt lat="43.0841557" lon="13.3213372"><ele>526.0</ele><time>2026-03-22T08:51:47.314Z</time></trkpt><trkpt lat="43.0842287" lon="13.3214406"><ele>526.0</ele><time>2026-03-22T08:51:48.314Z</time></trkpt><trkpt lat="43.0843112" lon="13.321537"><ele>526.0</ele><time>2026-03-22T08:51:49.314Z</time></trkpt><trkpt lat="43.0843855" lon="13.321635"><ele>530.0</ele><time>2026-03-22T08:51:50.314Z</time></trkpt><trkpt lat="43.0844428" lon="13.3217447"><ele>534.0</ele><time>2026-03-22T08:51:51.314Z</time></trkpt><trkpt lat="43.08449" lon="13.3218752"><ele>538.0</ele><time>2026-03-22T08:51:52.314Z</time></trkpt><trkpt lat="43.0845344" lon="13.3220333"><ele>542.0</ele><time>2026-03-22T08:51:53.314Z</time></trkpt><trkpt lat="43.084564" lon="13.3222291"><ele>544.25</ele><time>2026-03-22T08:51:54.314Z</time></trkpt><trkpt lat="43.0845972" lon="13.3224181"><ele>546.5</ele><time>2026-03-22T08:51:55.314Z</time></trkpt><trkpt lat="43.084634" lon="13.3225988"><ele>548.75</ele><time>2026-03-22T08:51:56.314Z</time></trkpt><trkpt lat="43.0846777" lon="13.3227676"><ele>551.0</ele><time>2026-03-22T08:51:57.314Z</time></trkpt><trkpt lat="43.0847245" lon="13.3229227"><ele>549.0</ele><time>2026-03-22T08:51:58.314Z</time></trkpt><trkpt lat="43.0847635" lon="13.3230768"><ele>547.0</ele><time>2026-03-22T08:51:59.314Z</time></trkpt><trkpt lat="43.0848024" lon="13.3232244"><ele>545.0</ele><time>2026-03-22T08:52:00.314Z</time></trkpt><trkpt lat="43.0848372" lon="13.3233759"><ele>543.0</ele><time>2026-03-22T08:52:01.314Z</time></trkpt><trkpt lat="43.0848531" lon="13.3235294"><ele>543.0</ele><time>2026-03-22T08:52:02.314Z</time></trkpt><trkpt lat="43.0848708" lon="13.3236907"><ele>543.0</ele><time>2026-03-22T08:52:03.314Z</time></trkpt><trkpt lat="43.0848971" lon="13.323851"><ele>543.0</ele><time>2026-03-22T08:52:04.314Z</time></trkpt><trkpt lat="43.0849448" lon="13.323993"><ele>543.0</ele><time>2026-03-22T08:52:05.313Z</time></trkpt><trkpt lat="43.0850034" lon="13.3241229"><ele>542.0</ele><time>2026-03-22T08:52:06.314Z</time></trkpt><trkpt lat="43.0850855" lon="13.3242358"><ele>541.0</ele><time>2026-03-22T08:52:07.314Z</time></trkpt><trkpt lat="43.085184" lon="13.3243326"><ele>540.0</ele><time>2026-03-22T08:52:08.314Z</time></trkpt><trkpt lat="43.0852914" lon="13.3244102"><ele>539.0</ele><time>2026-03-22T08:52:09.314Z</time></trkpt><trkpt lat="43.0853864" lon="13.324488"><ele>539.0</ele><time>2026-03-22T08:52:10.314Z</time></trkpt><trkpt lat="43.0854649" lon="13.3245703"><ele>539.0</ele><time>2026-03-22T08:52:11.314Z</time></trkpt><trkpt lat="43.0855329" lon="13.3246656"><ele>539.0</ele><time>2026-03-22T08:52:12.314Z</time></trkpt><trkpt lat="43.0855827" lon="13.3247802"><ele>539.0</ele><time>2026-03-22T08:52:13.314Z</time></trkpt><trkpt lat="43.0856075" lon="13.3249084"><ele>539.0</ele><time>2026-03-22T08:52:14.313Z</time></trkpt><trkpt lat="43.08561" lon="13.3250443"><ele>538.6</ele><time>2026-03-22T08:52:15.314Z</time></trkpt><trkpt lat="43.0855968" lon="13.3251819"><ele>538.2</ele><time>2026-03-22T08:52:16.314Z</time></trkpt><trkpt lat="43.0855833" lon="13.3253236"><ele>537.8000000000001</ele><time>2026-03-22T08:52:17.314Z</time></trkpt><trkpt lat="43.0855781" lon="13.3254728"><ele>537.4</ele><time>2026-03-22T08:52:18.314Z</time></trkpt><trkpt lat="43.0855821" lon="13.3256278"><ele>537.0</ele><time>2026-03-22T08:52:19.314Z</time></trkpt><trkpt lat="43.0855932" lon="13.3258098"><ele>536.5</ele><time>2026-03-22T08:52:20.314Z</time></trkpt><trkpt lat="43.0856091" lon="13.3259909"><ele>536.0</ele><time>2026-03-22T08:52:21.313Z</time></trkpt><trkpt lat="43.0856257" lon="13.3261689"><ele>535.5</ele><time>2026-03-22T08:52:22.314Z</time></trkpt><trkpt lat="43.0856448" lon="13.3263513"><ele>535.0</ele><time>2026-03-22T08:52:23.314Z</time></trkpt><trkpt lat="43.0856591" lon="13.3265209"><ele>534.25</ele><time>2026-03-22T08:52:24.314Z</time></trkpt><trkpt lat="43.0856755" lon="13.3266817"><ele>533.5</ele><time>2026-03-22T08:52:25.313Z</time></trkpt><trkpt lat="43.0856904" lon="13.3268423"><ele>532.75</ele><time>2026-03-22T08:52:26.314Z</time></trkpt><trkpt lat="43.085721" lon="13.3270104"><ele>532.0</ele><time>2026-03-22T08:52:27.314Z</time></trkpt><trkpt lat="43.0857517" lon="13.3271724"><ele>536.2</ele><time>2026-03-22T08:52:28.314Z</time></trkpt><trkpt lat="43.0857839" lon="13.3273223"><ele>540.4000000000001</ele><time>2026-03-22T08:52:29.313Z</time></trkpt><trkpt lat="43.0858169" lon="13.3274549"><ele>544.5999999999999</ele><time>2026-03-22T08:52:30.314Z</time></trkpt><trkpt lat="43.0858576" lon="13.327577"><ele>548.8</ele><time>2026-03-22T08:52:31.314Z</time></trkpt><trkpt lat="43.0859098" lon="13.3276832"><ele>553.0</ele><time>2026-03-22T08:52:32.314Z</time></trkpt><trkpt lat="43.0859799" lon="13.3277758"><ele>553.0</ele><time>2026-03-22T08:52:33.314Z</time></trkpt><trkpt lat="43.086063" lon="13.3278638"><ele>553.0</ele><time>2026-03-22T08:52:34.314Z</time></trkpt><trkpt lat="43.086164" lon="13.327952"><ele>553.0</ele><time>2026-03-22T08:52:35.314Z</time></trkpt><trkpt lat="43.0862661" lon="13.3280482"><ele>553.0</ele><time>2026-03-22T08:52:36.314Z</time></trkpt><trkpt lat="43.0863601" lon="13.3281622"><ele>553.25</ele><time>2026-03-22T08:52:37.314Z</time></trkpt><trkpt lat="43.0864475" lon="13.3282967"><ele>553.5</ele><time>2026-03-22T08:52:38.314Z</time></trkpt><trkpt lat="43.0865352" lon="13.3284459"><ele>553.75</ele><time>2026-03-22T08:52:39.314Z</time></trkpt><trkpt lat="43.0866247" lon="13.3285883"><ele>554.0</ele><time>2026-03-22T08:52:40.314Z</time></trkpt><trkpt lat="43.0867165" lon="13.3287244"><ele>554.0</ele><time>2026-03-22T08:52:41.314Z</time></trkpt><trkpt lat="43.0867989" lon="13.3288597"><ele>554.0</ele><time>2026-03-22T08:52:42.314Z</time></trkpt><trkpt lat="43.0868864" lon="13.3289943"><ele>554.0</ele><time>2026-03-22T08:52:43.314Z</time></trkpt><trkpt lat="43.086972" lon="13.3291366"><ele>554.0</ele><time>2026-03-22T08:52:44.314Z</time></trkpt><trkpt lat="43.0870602" lon="13.3292786"><ele>555.0</ele><time>2026-03-22T08:52:45.314Z</time></trkpt><trkpt lat="43.0871362" lon="13.3294254"><ele>556.0</ele><time>2026-03-22T08:52:46.314Z</time></trkpt><trkpt lat="43.0872114" lon="13.3295756"><ele>557.0</ele><time>2026-03-22T08:52:47.313Z</time></trkpt><trkpt lat="43.0872893" lon="13.3297266"><ele>558.0</ele><time>2026-03-22T08:52:48.314Z</time></trkpt><trkpt lat="43.0873668" lon="13.3298784"><ele>558.5</ele><time>2026-03-22T08:52:49.314Z</time></trkpt><trkpt lat="43.0874472" lon="13.3300282"><ele>559.0</ele><time>2026-03-22T08:52:50.314Z</time></trkpt><trkpt lat="43.0875291" lon="13.3301785"><ele>559.5</ele><time>2026-03-22T08:52:51.314Z</time></trkpt><trkpt lat="43.0876163" lon="13.3303195"><ele>560.0</ele><time>2026-03-22T08:52:52.314Z</time></trkpt><trkpt lat="43.0876957" lon="13.3304628"><ele>559.5</ele><time>2026-03-22T08:52:53.314Z</time></trkpt><trkpt lat="43.0877914" lon="13.3306066"><ele>559.0</ele><time>2026-03-22T08:52:54.314Z</time></trkpt><trkpt lat="43.0878851" lon="13.3307516"><ele>558.5</ele><time>2026-03-22T08:52:55.314Z</time></trkpt><trkpt lat="43.0879676" lon="13.3309011"><ele>558.0</ele><time>2026-03-22T08:52:56.314Z</time></trkpt><trkpt lat="43.0880408" lon="13.3310419"><ele>558.0</ele><time>2026-03-22T08:52:57.314Z</time></trkpt><trkpt lat="43.0881111" lon="13.3311763"><ele>558.0</ele><time>2026-03-22T08:52:58.314Z</time></trkpt><trkpt lat="43.0881755" lon="13.3313126"><ele>558.0</ele><time>2026-03-22T08:52:59.314Z</time></trkpt><trkpt lat="43.0882315" lon="13.3314459"><ele>558.0</ele><time>2026-03-22T08:53:00.314Z</time></trkpt><trkpt lat="43.0882691" lon="13.3315724"><ele>560.0</ele><time>2026-03-22T08:53:01.314Z</time></trkpt><trkpt lat="43.0882959" lon="13.3317107"><ele>562.0</ele><time>2026-03-22T08:53:02.314Z</time></trkpt><trkpt lat="43.0883164" lon="13.3318475"><ele>564.0</ele><time>2026-03-22T08:53:03.314Z</time></trkpt><trkpt lat="43.0883349" lon="13.3319901"><ele>566.0</ele><time>2026-03-22T08:53:04.313Z</time></trkpt><trkpt lat="43.0883511" lon="13.332129"><ele>568.0</ele><time>2026-03-22T08:53:05.314Z</time></trkpt><trkpt lat="43.0883876" lon="13.3322524"><ele>568.0</ele><time>2026-03-22T08:53:06.314Z</time></trkpt><trkpt lat="43.0884249" lon="13.3323726"><ele>568.0</ele><time>2026-03-22T08:53:07.314Z</time></trkpt><trkpt lat="43.0884628" lon="13.3324815"><ele>568.0</ele><time>2026-03-22T08:53:08.314Z</time></trkpt><trkpt lat="43.0885085" lon="13.3325826"><ele>568.0</ele><time>2026-03-22T08:53:09.314Z</time></trkpt><trkpt lat="43.0885612" lon="13.3326769"><ele>568.0</ele><time>2026-03-22T08:53:10.314Z</time></trkpt><trkpt lat="43.0886144" lon="13.332764"><ele>568.0</ele><time>2026-03-22T08:53:11.314Z</time></trkpt><trkpt lat="43.0886719" lon="13.3328555"><ele>568.0</ele><time>2026-03-22T08:53:12.313Z</time></trkpt><trkpt lat="43.0887299" lon="13.3329466"><ele>568.0</ele><time>2026-03-22T08:53:13.314Z</time></trkpt><trkpt lat="43.0887857" lon="13.3330327"><ele>568.0</ele><time>2026-03-22T08:53:14.314Z</time></trkpt><trkpt lat="43.0888384" lon="13.3331082"><ele>568.0</ele><time>2026-03-22T08:53:15.314Z</time></trkpt><trkpt lat="43.0888892" lon="13.3331843"><ele>568.0</ele><time>2026-03-22T08:53:16.314Z</time></trkpt><trkpt lat="43.0889423" lon="13.333269"><ele>568.0</ele><time>2026-03-22T08:53:17.314Z</time></trkpt><trkpt lat="43.088999" lon="13.3333573"><ele>566.6</ele><time>2026-03-22T08:53:18.314Z</time></trkpt><trkpt lat="43.0890525" lon="13.3334512"><ele>565.1999999999999</ele><time>2026-03-22T08:53:19.314Z</time></trkpt><trkpt lat="43.0890986" lon="13.3335668"><ele>563.8</ele><time>2026-03-22T08:53:20.314Z</time></trkpt><trkpt lat="43.0891352" lon="13.3336958"><ele>562.4</ele><time>2026-03-22T08:53:21.314Z</time></trkpt><trkpt lat="43.0891675" lon="13.3338271"><ele>561.0</ele><time>2026-03-22T08:53:22.314Z</time></trkpt><trkpt lat="43.0891968" lon="13.3339495"><ele>560.4</ele><time>2026-03-22T08:53:23.313Z</time></trkpt><trkpt lat="43.0892336" lon="13.3340654"><ele>559.8</ele><time>2026-03-22T08:53:24.314Z</time></trkpt><trkpt lat="43.089263" lon="13.3341899"><ele>559.1999999999999</ele><time>2026-03-22T08:53:25.314Z</time></trkpt><trkpt lat="43.0892906" lon="13.3343171"><ele>558.6</ele><time>2026-03-22T08:53:26.314Z</time></trkpt><trkpt lat="43.0893123" lon="13.3344497"><ele>558.0</ele><time>2026-03-22T08:53:27.314Z</time></trkpt><trkpt lat="43.0893316" lon="13.3345918"><ele>557.8</ele><time>2026-03-22T08:53:28.314Z</time></trkpt><trkpt lat="43.0893396" lon="13.3347329"><ele>557.5999999999999</ele><time>2026-03-22T08:53:29.314Z</time></trkpt><trkpt lat="43.0893446" lon="13.3348733"><ele>557.4000000000001</ele><time>2026-03-22T08:53:30.314Z</time></trkpt><trkpt lat="43.0893382" lon="13.3350117"><ele>557.2</ele><time>2026-03-22T08:53:31.314Z</time></trkpt><trkpt lat="43.0893326" lon="13.33515"><ele>557.0</ele><time>2026-03-22T08:53:32.314Z</time></trkpt><trkpt lat="43.0893251" lon="13.3352849"><ele>557.0</ele><time>2026-03-22T08:53:33.314Z</time></trkpt><trkpt lat="43.089319" lon="13.3354133"><ele>557.0</ele><time>2026-03-22T08:53:34.314Z</time></trkpt><trkpt lat="43.0893171" lon="13.3355441"><ele>557.0</ele><time>2026-03-22T08:53:35.314Z</time></trkpt><trkpt lat="43.0893217" lon="13.335669"><ele>557.0</ele><time>2026-03-22T08:53:36.314Z</time></trkpt><trkpt lat="43.0893377" lon="13.335795"><ele>557.0</ele><time>2026-03-22T08:53:37.314Z</time></trkpt><trkpt lat="43.0893588" lon="13.3359358"><ele>556.4</ele><time>2026-03-22T08:53:38.314Z</time></trkpt><trkpt lat="43.0893827" lon="13.3360758"><ele>555.8000000000001</ele><time>2026-03-22T08:53:39.314Z</time></trkpt><trkpt lat="43.0894007" lon="13.3362168"><ele>555.2</ele><time>2026-03-22T08:53:40.314Z</time></trkpt><trkpt lat="43.0894163" lon="13.3363577"><ele>554.6</ele><time>2026-03-22T08:53:41.314Z</time></trkpt><trkpt lat="43.0894334" lon="13.336505"><ele>554.0</ele><time>2026-03-22T08:53:42.314Z</time></trkpt><trkpt lat="43.0894508" lon="13.3366589"><ele>552.0</ele><time>2026-03-22T08:53:43.314Z</time></trkpt><trkpt lat="43.0894618" lon="13.3368225"><ele>550.0</ele><time>2026-03-22T08:53:44.314Z</time></trkpt><trkpt lat="43.0894669" lon="13.3369857"><ele>548.0</ele><time>2026-03-22T08:53:45.314Z</time></trkpt><trkpt lat="43.0894658" lon="13.337151"><ele>546.0</ele><time>2026-03-22T08:53:46.314Z</time></trkpt><trkpt lat="43.0894681" lon="13.3373253"><ele>544.75</ele><time>2026-03-22T08:53:47.314Z</time></trkpt><trkpt lat="43.089474" lon="13.337501"><ele>543.5</ele><time>2026-03-22T08:53:48.314Z</time></trkpt><trkpt lat="43.0894847" lon="13.3376778"><ele>542.25</ele><time>2026-03-22T08:53:49.314Z</time></trkpt><trkpt lat="43.0894888" lon="13.3378529"><ele>541.0</ele><time>2026-03-22T08:53:50.314Z</time></trkpt><trkpt lat="43.0894975" lon="13.3380246"><ele>540.0</ele><time>2026-03-22T08:53:51.314Z</time></trkpt><trkpt lat="43.0895087" lon="13.3381957"><ele>539.0</ele><time>2026-03-22T08:53:52.314Z</time></trkpt><trkpt lat="43.0895235" lon="13.3383593"><ele>538.0</ele><time>2026-03-22T08:53:53.314Z</time></trkpt><trkpt lat="43.0895437" lon="13.3385184"><ele>537.0</ele><time>2026-03-22T08:53:54.314Z</time></trkpt><trkpt lat="43.0895749" lon="13.3386799"><ele>537.0</ele><time>2026-03-22T08:53:55.314Z</time></trkpt><trkpt lat="43.0896253" lon="13.3388156"><ele>537.0</ele><time>2026-03-22T08:53:56.314Z</time></trkpt><trkpt lat="43.0896848" lon="13.3389378"><ele>537.0</ele><time>2026-03-22T08:53:57.314Z</time></trkpt><trkpt lat="43.0897551" lon="13.3390423"><ele>537.0</ele><time>2026-03-22T08:53:58.314Z</time></trkpt><trkpt lat="43.0898243" lon="13.3391356"><ele>537.0</ele><time>2026-03-22T08:53:59.314Z</time></trkpt><trkpt lat="43.0899068" lon="13.3392201"><ele>537.4</ele><time>2026-03-22T08:54:00.314Z</time></trkpt><trkpt lat="43.0899947" lon="13.339299"><ele>537.8000000000001</ele><time>2026-03-22T08:54:01.314Z</time></trkpt><trkpt lat="43.0900889" lon="13.3393765"><ele>538.2</ele><time>2026-03-22T08:54:02.314Z</time></trkpt><trkpt lat="43.0901863" lon="13.3394506"><ele>538.6</ele><time>2026-03-22T08:54:03.314Z</time></trkpt><trkpt lat="43.0902864" lon="13.3395291"><ele>539.0</ele><time>2026-03-22T08:54:04.314Z</time></trkpt><trkpt lat="43.0903757" lon="13.33961"><ele>539.0</ele><time>2026-03-22T08:54:05.313Z</time></trkpt><trkpt lat="43.0904543" lon="13.3396986"><ele>539.0</ele><time>2026-03-22T08:54:06.314Z</time></trkpt><trkpt lat="43.0905257" lon="13.3398186"><ele>539.0</ele><time>2026-03-22T08:54:07.314Z</time></trkpt><trkpt lat="43.090591" lon="13.3399545"><ele>539.0</ele><time>2026-03-22T08:54:08.314Z</time></trkpt><trkpt lat="43.0906586" lon="13.340094"><ele>539.25</ele><time>2026-03-22T08:54:09.314Z</time></trkpt><trkpt lat="43.0907293" lon="13.3402343"><ele>539.5</ele><time>2026-03-22T08:54:10.314Z</time></trkpt><trkpt lat="43.0907941" lon="13.3403769"><ele>539.75</ele><time>2026-03-22T08:54:11.314Z</time></trkpt><trkpt lat="43.0908588" lon="13.3405158"><ele>540.0</ele><time>2026-03-22T08:54:12.313Z</time></trkpt><trkpt lat="43.0909226" lon="13.3406643"><ele>539.0</ele><time>2026-03-22T08:54:13.314Z</time></trkpt><trkpt lat="43.0909837" lon="13.3408034"><ele>538.0</ele><time>2026-03-22T08:54:14.314Z</time></trkpt><trkpt lat="43.091054" lon="13.3409388"><ele>537.0</ele><time>2026-03-22T08:54:15.314Z</time></trkpt><trkpt lat="43.0911242" lon="13.3410881"><ele>536.0</ele><time>2026-03-22T08:54:16.314Z</time></trkpt><trkpt lat="43.0911957" lon="13.3412229"><ele>536.0</ele><time>2026-03-22T08:54:17.314Z</time></trkpt><trkpt lat="43.0912559" lon="13.3413625"><ele>536.0</ele><time>2026-03-22T08:54:18.314Z</time></trkpt><trkpt lat="43.0913039" lon="13.3415103"><ele>536.0</ele><time>2026-03-22T08:54:19.314Z</time></trkpt><trkpt lat="43.0913333" lon="13.3416674"><ele>536.0</ele><time>2026-03-22T08:54:20.314Z</time></trkpt><trkpt lat="43.091351" lon="13.3418365"><ele>535.25</ele><time>2026-03-22T08:54:21.314Z</time></trkpt><trkpt lat="43.0913582" lon="13.3420124"><ele>534.5</ele><time>2026-03-22T08:54:22.314Z</time></trkpt><trkpt lat="43.0913541" lon="13.3421825"><ele>533.75</ele><time>2026-03-22T08:54:23.314Z</time></trkpt><trkpt lat="43.0913467" lon="13.3423543"><ele>533.0</ele><time>2026-03-22T08:54:24.314Z</time></trkpt><trkpt lat="43.091342" lon="13.3425316"><ele>531.75</ele><time>2026-03-22T08:54:25.314Z</time></trkpt><trkpt lat="43.0913407" lon="13.3426984"><ele>530.5</ele><time>2026-03-22T08:54:26.314Z</time></trkpt><trkpt lat="43.0913409" lon="13.3428621"><ele>529.25</ele><time>2026-03-22T08:54:27.314Z</time></trkpt><trkpt lat="43.091341" lon="13.3430262"><ele>528.0</ele><time>2026-03-22T08:54:28.314Z</time></trkpt><trkpt lat="43.0913459" lon="13.3431905"><ele>526.5</ele><time>2026-03-22T08:54:29.313Z</time></trkpt><trkpt lat="43.0913545" lon="13.3433572"><ele>525.0</ele><time>2026-03-22T08:54:30.314Z</time></trkpt><trkpt lat="43.0913639" lon="13.3435258"><ele>523.5</ele><time>2026-03-22T08:54:31.314Z</time></trkpt><trkpt lat="43.0913769" lon="13.3436963"><ele>522.0</ele><time>2026-03-22T08:54:32.314Z</time></trkpt><trkpt lat="43.0913897" lon="13.3438664"><ele>520.5</ele><time>2026-03-22T08:54:33.314Z</time></trkpt><trkpt lat="43.0914003" lon="13.3440373"><ele>519.0</ele><time>2026-03-22T08:54:34.313Z</time></trkpt><trkpt lat="43.091412" lon="13.3442089"><ele>517.5</ele><time>2026-03-22T08:54:35.313Z</time></trkpt><trkpt lat="43.0914253" lon="13.3443783"><ele>516.0</ele><time>2026-03-22T08:54:36.314Z</time></trkpt><trkpt lat="43.0914365" lon="13.344537"><ele>516.0</ele><time>2026-03-22T08:54:37.314Z</time></trkpt><trkpt lat="43.0914439" lon="13.3446887"><ele>516.0</ele><time>2026-03-22T08:54:38.314Z</time></trkpt><trkpt lat="43.0914545" lon="13.3448314"><ele>516.0</ele><time>2026-03-22T08:54:39.314Z</time></trkpt><trkpt lat="43.0914624" lon="13.3449809"><ele>516.0</ele><time>2026-03-22T08:54:40.314Z</time></trkpt><trkpt lat="43.0914676" lon="13.345138"><ele>516.0</ele><time>2026-03-22T08:54:41.313Z</time></trkpt><trkpt lat="43.0914601" lon="13.3452957"><ele>513.75</ele><time>2026-03-22T08:54:42.314Z</time></trkpt><trkpt lat="43.0914496" lon="13.3454571"><ele>511.5</ele><time>2026-03-22T08:54:43.314Z</time></trkpt><trkpt lat="43.0914354" lon="13.3456194"><ele>509.25</ele><time>2026-03-22T08:54:44.314Z</time></trkpt><trkpt lat="43.0914197" lon="13.3457729"><ele>507.0</ele><time>2026-03-22T08:54:45.314Z</time></trkpt><trkpt lat="43.0914024" lon="13.345926"><ele>505.25</ele><time>2026-03-22T08:54:46.314Z</time></trkpt><trkpt lat="43.0913864" lon="13.3460835"><ele>503.5</ele><time>2026-03-22T08:54:47.314Z</time></trkpt><trkpt lat="43.0913693" lon="13.3462377"><ele>501.75</ele><time>2026-03-22T08:54:48.314Z</time></trkpt><trkpt lat="43.0913594" lon="13.346397"><ele>500.0</ele><time>2026-03-22T08:54:49.314Z</time></trkpt><trkpt lat="43.0913621" lon="13.3465542"><ele>498.6</ele><time>2026-03-22T08:54:50.314Z</time></trkpt><trkpt lat="43.0913808" lon="13.3467077"><ele>497.2</ele><time>2026-03-22T08:54:51.314Z</time></trkpt><trkpt lat="43.0914083" lon="13.3468401"><ele>495.79999999999995</ele><time>2026-03-22T08:54:52.314Z</time></trkpt><trkpt lat="43.0914475" lon="13.3469671"><ele>494.4</ele><time>2026-03-22T08:54:53.314Z</time></trkpt><trkpt lat="43.0914856" lon="13.3470916"><ele>493.0</ele><time>2026-03-22T08:54:54.314Z</time></trkpt><trkpt lat="43.0915096" lon="13.347195"><ele>492.59999999999997</ele><time>2026-03-22T08:54:55.314Z</time></trkpt><trkpt lat="43.091549" lon="13.3473476"><ele>492.19999999999993</ele><time>2026-03-22T08:54:57.314Z</time></trkpt><trkpt lat="43.0915738" lon="13.3474391"><ele>491.8</ele><time>2026-03-22T08:54:59.314Z</time></trkpt><trkpt lat="43.0916096" lon="13.3475729"><ele>491.4</ele><time>2026-03-22T08:55:24.314Z</time></trkpt><trkpt lat="43.0916392" lon="13.3476732"><ele>491.0</ele><time>2026-03-22T08:55:25.313Z</time></trkpt><trkpt lat="43.0916685" lon="13.3477841"><ele>491.0</ele><time>2026-03-22T08:55:26.314Z</time></trkpt><trkpt lat="43.0916994" lon="13.3479032"><ele>491.0</ele><time>2026-03-22T08:55:27.314Z</time></trkpt><trkpt lat="43.0917326" lon="13.3480271"><ele>491.0</ele><time>2026-03-22T08:55:28.314Z</time></trkpt><trkpt lat="43.0917738" lon="13.3481615"><ele>491.0</ele><time>2026-03-22T08:55:29.314Z</time></trkpt><trkpt lat="43.0918108" lon="13.3482973"><ele>491.0</ele><time>2026-03-22T08:55:30.314Z</time></trkpt><trkpt lat="43.0918538" lon="13.3484387"><ele>490.25</ele><time>2026-03-22T08:55:31.314Z</time></trkpt><trkpt lat="43.0919017" lon="13.3485828"><ele>489.5</ele><time>2026-03-22T08:55:32.314Z</time></trkpt><trkpt lat="43.0919527" lon="13.3487393"><ele>488.75</ele><time>2026-03-22T08:55:33.314Z</time></trkpt><trkpt lat="43.0919955" lon="13.3489029"><ele>488.0</ele><time>2026-03-22T08:55:34.314Z</time></trkpt><trkpt lat="43.0920339" lon="13.3490671"><ele>486.25</ele><time>2026-03-22T08:55:35.314Z</time></trkpt><trkpt lat="43.0920637" lon="13.3492328"><ele>484.5</ele><time>2026-03-22T08:55:36.314Z</time></trkpt><trkpt lat="43.0920913" lon="13.349402"><ele>482.75</ele><time>2026-03-22T08:55:37.314Z</time></trkpt><trkpt lat="43.0921142" lon="13.3495718"><ele>481.0</ele><time>2026-03-22T08:55:38.313Z</time></trkpt><trkpt lat="43.0921328" lon="13.3497413"><ele>480.0</ele><time>2026-03-22T08:55:39.314Z</time></trkpt><trkpt lat="43.0921528" lon="13.3499191"><ele>479.0</ele><time>2026-03-22T08:55:40.314Z</time></trkpt><trkpt lat="43.0921744" lon="13.3501072"><ele>478.0</ele><time>2026-03-22T08:55:41.314Z</time></trkpt><trkpt lat="43.0921963" lon="13.3503141"><ele>477.0</ele><time>2026-03-22T08:55:42.314Z</time></trkpt><trkpt lat="43.0922155" lon="13.3505369"><ele>475.66666666666663</ele><time>2026-03-22T08:55:43.314Z</time></trkpt><trkpt lat="43.0922359" lon="13.3507729"><ele>474.3333333333333</ele><time>2026-03-22T08:55:44.314Z</time></trkpt><trkpt lat="43.0922562" lon="13.3510042"><ele>473.0</ele><time>2026-03-22T08:55:45.314Z</time></trkpt><trkpt lat="43.0922733" lon="13.3512277"><ele>472.66666666666663</ele><time>2026-03-22T08:55:46.314Z</time></trkpt><trkpt lat="43.0922932" lon="13.3514398"><ele>472.33333333333337</ele><time>2026-03-22T08:55:47.313Z</time></trkpt><trkpt lat="43.0923192" lon="13.3516462"><ele>472.0</ele><time>2026-03-22T08:55:48.314Z</time></trkpt><trkpt lat="43.0923536" lon="13.3518532"><ele>472.0</ele><time>2026-03-22T08:55:49.314Z</time></trkpt><trkpt lat="43.0923961" lon="13.3520537"><ele>472.0</ele><time>2026-03-22T08:55:50.314Z</time></trkpt><trkpt lat="43.0924446" lon="13.3522456"><ele>472.0</ele><time>2026-03-22T08:55:51.314Z</time></trkpt><trkpt lat="43.0924966" lon="13.3524318"><ele>472.0</ele><time>2026-03-22T08:55:52.314Z</time></trkpt><trkpt lat="43.0925489" lon="13.3526163"><ele>476.5</ele><time>2026-03-22T08:55:53.314Z</time></trkpt><trkpt lat="43.0925982" lon="13.3527979"><ele>481.0</ele><time>2026-03-22T08:55:54.314Z</time></trkpt><trkpt lat="43.092653" lon="13.3529852"><ele>485.5</ele><time>2026-03-22T08:55:55.314Z</time></trkpt><trkpt lat="43.0927191" lon="13.3531562"><ele>490.0</ele><time>2026-03-22T08:55:56.314Z</time></trkpt><trkpt lat="43.0927947" lon="13.3533013"><ele>491.6</ele><time>2026-03-22T08:55:57.313Z</time></trkpt><trkpt lat="43.0928681" lon="13.353433"><ele>493.2</ele><time>2026-03-22T08:55:58.314Z</time></trkpt><trkpt lat="43.0929266" lon="13.3535645"><ele>494.79999999999995</ele><time>2026-03-22T08:55:59.314Z</time></trkpt><trkpt lat="43.0929577" lon="13.3536845"><ele>496.4</ele><time>2026-03-22T08:56:00.314Z</time></trkpt><trkpt lat="43.0929409" lon="13.3537799"><ele>498.0</ele><time>2026-03-22T08:56:01.314Z</time></trkpt><trkpt lat="43.0928931" lon="13.3538509"><ele>497.79999999999995</ele><time>2026-03-22T08:56:02.314Z</time></trkpt><trkpt lat="43.0928144" lon="13.3538974"><ele>497.59999999999997</ele><time>2026-03-22T08:56:03.314Z</time></trkpt><trkpt lat="43.0927161" lon="13.3539363"><ele>497.40000000000003</ele><time>2026-03-22T08:56:04.314Z</time></trkpt><trkpt lat="43.0926174" lon="13.3539881"><ele>497.20000000000005</ele><time>2026-03-22T08:56:05.314Z</time></trkpt><trkpt lat="43.092507" lon="13.3540757"><ele>497.0</ele><time>2026-03-22T08:56:06.314Z</time></trkpt><trkpt lat="43.0924037" lon="13.3541768"><ele>497.0</ele><time>2026-03-22T08:56:07.314Z</time></trkpt><trkpt lat="43.0923101" lon="13.3542998"><ele>497.0</ele><time>2026-03-22T08:56:08.314Z</time></trkpt><trkpt lat="43.0922348" lon="13.3544391"><ele>497.0</ele><time>2026-03-22T08:56:09.314Z</time></trkpt><trkpt lat="43.0921677" lon="13.3545814"><ele>497.0</ele><time>2026-03-22T08:56:10.314Z</time></trkpt><trkpt lat="43.0921049" lon="13.3547175"><ele>500.0</ele><time>2026-03-22T08:56:11.314Z</time></trkpt><trkpt lat="43.0920471" lon="13.3548469"><ele>503.00000000000006</ele><time>2026-03-22T08:56:12.314Z</time></trkpt><trkpt lat="43.0919834" lon="13.3549747"><ele>506.00000000000006</ele><time>2026-03-22T08:56:13.314Z</time></trkpt><trkpt lat="43.091918" lon="13.3550965"><ele>509.0</ele><time>2026-03-22T08:56:14.314Z</time></trkpt><trkpt lat="43.0918482" lon="13.3552115"><ele>512.0</ele><time>2026-03-22T08:56:15.314Z</time></trkpt><trkpt lat="43.0917684" lon="13.3553027"><ele>512.0</ele><time>2026-03-22T08:56:16.314Z</time></trkpt><trkpt lat="43.0916851" lon="13.3553817"><ele>512.0</ele><time>2026-03-22T08:56:17.314Z</time></trkpt><trkpt lat="43.0916257" lon="13.3554757"><ele>512.0</ele><time>2026-03-22T08:56:18.314Z</time></trkpt><trkpt lat="43.0915694" lon="13.3555657"><ele>512.0</ele><time>2026-03-22T08:56:19.314Z</time></trkpt><trkpt lat="43.0915507" lon="13.3556897"><ele>512.0</ele><time>2026-03-22T08:56:20.314Z</time></trkpt><trkpt lat="43.0915335" lon="13.3558244"><ele>509.75</ele><time>2026-03-22T08:56:21.314Z</time></trkpt><trkpt lat="43.0915368" lon="13.3559703"><ele>507.5</ele><time>2026-03-22T08:56:22.314Z</time></trkpt><trkpt lat="43.0915464" lon="13.3561182"><ele>505.25</ele><time>2026-03-22T08:56:23.314Z</time></trkpt><trkpt lat="43.0915715" lon="13.356277"><ele>503.0</ele><time>2026-03-22T08:56:24.314Z</time></trkpt><trkpt lat="43.0916025" lon="13.356434"><ele>508.25</ele><time>2026-03-22T08:56:25.314Z</time></trkpt><trkpt lat="43.0916437" lon="13.3565907"><ele>513.5</ele><time>2026-03-22T08:56:26.314Z</time></trkpt><trkpt lat="43.0916933" lon="13.3567473"><ele>518.75</ele><time>2026-03-22T08:56:27.313Z</time></trkpt><trkpt lat="43.0917575" lon="13.3569123"><ele>524.0</ele><time>2026-03-22T08:56:28.314Z</time></trkpt><trkpt lat="43.0918244" lon="13.3570759"><ele>521.75</ele><time>2026-03-22T08:56:29.314Z</time></trkpt><trkpt lat="43.0918952" lon="13.3572349"><ele>519.5</ele><time>2026-03-22T08:56:30.314Z</time></trkpt><trkpt lat="43.0919666" lon="13.3573887"><ele>517.25</ele><time>2026-03-22T08:56:31.314Z</time></trkpt><trkpt lat="43.092037" lon="13.3575434"><ele>515.0</ele><time>2026-03-22T08:56:32.314Z</time></trkpt><trkpt lat="43.0921067" lon="13.3577028"><ele>515.0</ele><time>2026-03-22T08:56:33.314Z</time></trkpt><trkpt lat="43.0921779" lon="13.3578657"><ele>515.0</ele><time>2026-03-22T08:56:34.313Z</time></trkpt><trkpt lat="43.0922463" lon="13.3580205"><ele>515.0</ele><time>2026-03-22T08:56:35.314Z</time></trkpt><trkpt lat="43.0923177" lon="13.3581637"><ele>515.0</ele><time>2026-03-22T08:56:36.314Z</time></trkpt><trkpt lat="43.0923905" lon="13.3582963"><ele>517.25</ele><time>2026-03-22T08:56:37.313Z</time></trkpt><trkpt lat="43.0924658" lon="13.3584294"><ele>519.5</ele><time>2026-03-22T08:56:38.314Z</time></trkpt><trkpt lat="43.0925447" lon="13.3585643"><ele>521.75</ele><time>2026-03-22T08:56:39.314Z</time></trkpt><trkpt lat="43.0926166" lon="13.3586979"><ele>524.0</ele><time>2026-03-22T08:56:40.314Z</time></trkpt><trkpt lat="43.0926953" lon="13.3588357"><ele>521.5</ele><time>2026-03-22T08:56:41.314Z</time></trkpt><trkpt lat="43.0927689" lon="13.3589766"><ele>519.0</ele><time>2026-03-22T08:56:42.314Z</time></trkpt><trkpt lat="43.0928313" lon="13.3591193"><ele>516.5</ele><time>2026-03-22T08:56:43.314Z</time></trkpt><trkpt lat="43.092885" lon="13.3592781"><ele>514.0</ele><time>2026-03-22T08:56:44.314Z</time></trkpt><trkpt lat="43.092924" lon="13.359452"><ele>514.0</ele><time>2026-03-22T08:56:45.314Z</time></trkpt><trkpt lat="43.0929609" lon="13.3596247"><ele>514.0</ele><time>2026-03-22T08:56:46.313Z</time></trkpt><trkpt lat="43.0929975" lon="13.3598006"><ele>514.0</ele><time>2026-03-22T08:56:47.314Z</time></trkpt><trkpt lat="43.0930421" lon="13.3599792"><ele>514.0</ele><time>2026-03-22T08:56:48.314Z</time></trkpt><trkpt lat="43.0930907" lon="13.3601546"><ele>514.0</ele><time>2026-03-22T08:56:49.314Z</time></trkpt><trkpt lat="43.0931508" lon="13.3603227"><ele>514.0</ele><time>2026-03-22T08:56:50.314Z</time></trkpt><trkpt lat="43.0932041" lon="13.3604949"><ele>514.0</ele><time>2026-03-22T08:56:51.314Z</time></trkpt><trkpt lat="43.0932433" lon="13.3606581"><ele>514.0</ele><time>2026-03-22T08:56:52.313Z</time></trkpt><trkpt lat="43.0932716" lon="13.360814"><ele>514.0</ele><time>2026-03-22T08:56:53.314Z</time></trkpt><trkpt lat="43.0932972" lon="13.3609713"><ele>514.0</ele><time>2026-03-22T08:56:54.314Z</time></trkpt><trkpt lat="43.0933216" lon="13.3611419"><ele>514.0</ele><time>2026-03-22T08:56:55.314Z</time></trkpt><trkpt lat="43.0933481" lon="13.3613198"><ele>514.0</ele><time>2026-03-22T08:56:56.314Z</time></trkpt><trkpt lat="43.093373" lon="13.361502"><ele>515.25</ele><time>2026-03-22T08:56:57.314Z</time></trkpt><trkpt lat="43.0933985" lon="13.3616903"><ele>516.5</ele><time>2026-03-22T08:56:58.314Z</time></trkpt><trkpt lat="43.0934238" lon="13.3618826"><ele>517.75</ele><time>2026-03-22T08:56:59.313Z</time></trkpt><trkpt lat="43.093447" lon="13.3620784"><ele>519.0</ele><time>2026-03-22T08:57:00.314Z</time></trkpt><trkpt lat="43.0934634" lon="13.3622709"><ele>520.25</ele><time>2026-03-22T08:57:01.314Z</time></trkpt><trkpt lat="43.0934769" lon="13.362476"><ele>521.5</ele><time>2026-03-22T08:57:02.314Z</time></trkpt><trkpt lat="43.0934842" lon="13.3626739"><ele>522.75</ele><time>2026-03-22T08:57:03.314Z</time></trkpt><trkpt lat="43.0934999" lon="13.3628684"><ele>524.0</ele><time>2026-03-22T08:57:04.314Z</time></trkpt><trkpt lat="43.0935246" lon="13.3630619"><ele>524.25</ele><time>2026-03-22T08:57:05.314Z</time></trkpt><trkpt lat="43.0935604" lon="13.363251"><ele>524.5</ele><time>2026-03-22T08:57:06.314Z</time></trkpt><trkpt lat="43.0936018" lon="13.3634131"><ele>524.75</ele><time>2026-03-22T08:57:07.314Z</time></trkpt><trkpt lat="43.0936452" lon="13.3635611"><ele>525.0</ele><time>2026-03-22T08:57:08.314Z</time></trkpt><trkpt lat="43.0936921" lon="13.3637234"><ele>524.25</ele><time>2026-03-22T08:57:09.313Z</time></trkpt><trkpt lat="43.0937333" lon="13.363881"><ele>523.5</ele><time>2026-03-22T08:57:10.314Z</time></trkpt><trkpt lat="43.0937733" lon="13.3640385"><ele>522.75</ele><time>2026-03-22T08:57:11.314Z</time></trkpt><trkpt lat="43.093803" lon="13.3641862"><ele>522.0</ele><time>2026-03-22T08:57:12.314Z</time></trkpt><trkpt lat="43.0938369" lon="13.3643342"><ele>522.0</ele><time>2026-03-22T08:57:13.314Z</time></trkpt><trkpt lat="43.0938659" lon="13.364485"><ele>522.0</ele><time>2026-03-22T08:57:14.314Z</time></trkpt><trkpt lat="43.0938894" lon="13.3646477"><ele>522.0</ele><time>2026-03-22T08:57:15.314Z</time></trkpt><trkpt lat="43.0939088" lon="13.3648201"><ele>522.0</ele><time>2026-03-22T08:57:16.314Z</time></trkpt><trkpt lat="43.0939232" lon="13.3649978"><ele>519.25</ele><time>2026-03-22T08:57:17.314Z</time></trkpt><trkpt lat="43.0939035" lon="13.365175"><ele>516.5</ele><time>2026-03-22T08:57:18.314Z</time></trkpt><trkpt lat="43.0938893" lon="13.3653489"><ele>513.75</ele><time>2026-03-22T08:57:19.314Z</time></trkpt><trkpt lat="43.0938765" lon="13.3655102"><ele>511.0</ele><time>2026-03-22T08:57:20.314Z</time></trkpt><trkpt lat="43.0938781" lon="13.3656697"><ele>509.5</ele><time>2026-03-22T08:57:21.314Z</time></trkpt><trkpt lat="43.0938833" lon="13.3658335"><ele>508.0</ele><time>2026-03-22T08:57:22.314Z</time></trkpt><trkpt lat="43.09389" lon="13.3660016"><ele>506.5</ele><time>2026-03-22T08:57:23.314Z</time></trkpt><trkpt lat="43.0938965" lon="13.366172"><ele>505.0</ele><time>2026-03-22T08:57:24.314Z</time></trkpt><trkpt lat="43.0938898" lon="13.3663524"><ele>505.75</ele><time>2026-03-22T08:57:25.314Z</time></trkpt><trkpt lat="43.0938637" lon="13.3665336"><ele>506.5</ele><time>2026-03-22T08:57:26.314Z</time></trkpt><trkpt lat="43.0938148" lon="13.3667144"><ele>507.25</ele><time>2026-03-22T08:57:27.314Z</time></trkpt><trkpt lat="43.0937588" lon="13.366878"><ele>508.0</ele><time>2026-03-22T08:57:28.314Z</time></trkpt><trkpt lat="43.0937089" lon="13.3670321"><ele>508.0</ele><time>2026-03-22T08:57:29.314Z</time></trkpt><trkpt lat="43.093677" lon="13.36719"><ele>508.0</ele><time>2026-03-22T08:57:30.313Z</time></trkpt><trkpt lat="43.093648" lon="13.3673597"><ele>508.0</ele><time>2026-03-22T08:57:31.313Z</time></trkpt><trkpt lat="43.0936181" lon="13.3675335"><ele>508.0</ele><time>2026-03-22T08:57:32.314Z</time></trkpt><trkpt lat="43.0935854" lon="13.3677133"><ele>509.0</ele><time>2026-03-22T08:57:33.313Z</time></trkpt><trkpt lat="43.0935427" lon="13.3679024"><ele>510.0</ele><time>2026-03-22T08:57:34.314Z</time></trkpt><trkpt lat="43.0934979" lon="13.3680949"><ele>511.0</ele><time>2026-03-22T08:57:35.314Z</time></trkpt><trkpt lat="43.0934493" lon="13.3682661"><ele>512.0</ele><time>2026-03-22T08:57:36.314Z</time></trkpt><trkpt lat="43.0934139" lon="13.3684396"><ele>512.25</ele><time>2026-03-22T08:57:37.314Z</time></trkpt><trkpt lat="43.0933851" lon="13.368615"><ele>512.5</ele><time>2026-03-22T08:57:38.314Z</time></trkpt><trkpt lat="43.0933394" lon="13.3687984"><ele>512.75</ele><time>2026-03-22T08:57:39.314Z</time></trkpt><trkpt lat="43.0932896" lon="13.3689884"><ele>513.0</ele><time>2026-03-22T08:57:40.314Z</time></trkpt><trkpt lat="43.093235" lon="13.3691794"><ele>513.5</ele><time>2026-03-22T08:57:41.314Z</time></trkpt><trkpt lat="43.0931838" lon="13.3693655"><ele>514.0</ele><time>2026-03-22T08:57:42.314Z</time></trkpt><trkpt lat="43.0931317" lon="13.369554"><ele>514.5</ele><time>2026-03-22T08:57:43.314Z</time></trkpt><trkpt lat="43.0930814" lon="13.3697405"><ele>515.0</ele><time>2026-03-22T08:57:44.314Z</time></trkpt><trkpt lat="43.093034" lon="13.3699206"><ele>515.0</ele><time>2026-03-22T08:57:45.314Z</time></trkpt><trkpt lat="43.0929895" lon="13.3700938"><ele>515.0</ele><time>2026-03-22T08:57:46.314Z</time></trkpt><trkpt lat="43.0929431" lon="13.3702696"><ele>515.0</ele><time>2026-03-22T08:57:47.314Z</time></trkpt><trkpt lat="43.0928914" lon="13.3704466"><ele>515.0</ele><time>2026-03-22T08:57:48.314Z</time></trkpt><trkpt lat="43.0928243" lon="13.3706228"><ele>516.75</ele><time>2026-03-22T08:57:49.314Z</time></trkpt><trkpt lat="43.092742" lon="13.3707774"><ele>518.5</ele><time>2026-03-22T08:57:50.314Z</time></trkpt><trkpt lat="43.0926491" lon="13.3709069"><ele>520.25</ele><time>2026-03-22T08:57:51.314Z</time></trkpt><trkpt lat="43.09256" lon="13.3710484"><ele>522.0</ele><time>2026-03-22T08:57:52.314Z</time></trkpt><trkpt lat="43.0924815" lon="13.3712082"><ele>522.25</ele><time>2026-03-22T08:57:53.314Z</time></trkpt><trkpt lat="43.092413" lon="13.3713839"><ele>522.5</ele><time>2026-03-22T08:57:54.314Z</time></trkpt><trkpt lat="43.0923506" lon="13.3715581"><ele>522.75</ele><time>2026-03-22T08:57:55.314Z</time></trkpt><trkpt lat="43.0922918" lon="13.3717296"><ele>523.0</ele><time>2026-03-22T08:57:56.314Z</time></trkpt><trkpt lat="43.0922295" lon="13.3718877"><ele>523.0</ele><time>2026-03-22T08:57:57.314Z</time></trkpt><trkpt lat="43.092173" lon="13.3720264"><ele>523.0</ele><time>2026-03-22T08:57:58.314Z</time></trkpt><trkpt lat="43.0921274" lon="13.3721484"><ele>523.0</ele><time>2026-03-22T08:57:59.314Z</time></trkpt><trkpt lat="43.0920997" lon="13.3722479"><ele>523.0</ele><time>2026-03-22T08:58:00.313Z</time></trkpt><trkpt lat="43.0920937" lon="13.3723478"><ele>523.0</ele><time>2026-03-22T08:58:01.314Z</time></trkpt><trkpt lat="43.0921105" lon="13.3724463"><ele>523.0</ele><time>2026-03-22T08:58:02.314Z</time></trkpt><trkpt lat="43.0921307" lon="13.3725466"><ele>525.4</ele><time>2026-03-22T08:58:03.314Z</time></trkpt><trkpt lat="43.0921659" lon="13.3726675"><ele>527.8</ele><time>2026-03-22T08:58:04.313Z</time></trkpt><trkpt lat="43.092199" lon="13.3727901"><ele>530.2</ele><time>2026-03-22T08:58:05.314Z</time></trkpt><trkpt lat="43.0922197" lon="13.3729183"><ele>532.6</ele><time>2026-03-22T08:58:06.314Z</time></trkpt><trkpt lat="43.0922288" lon="13.3730521"><ele>535.0</ele><time>2026-03-22T08:58:07.314Z</time></trkpt><trkpt lat="43.0922053" lon="13.3731926"><ele>537.4</ele><time>2026-03-22T08:58:08.314Z</time></trkpt><trkpt lat="43.0921831" lon="13.3733324"><ele>539.8</ele><time>2026-03-22T08:58:09.314Z</time></trkpt><trkpt lat="43.092157" lon="13.373474"><ele>542.2</ele><time>2026-03-22T08:58:10.314Z</time></trkpt><trkpt lat="43.092129" lon="13.3736288"><ele>544.6</ele><time>2026-03-22T08:58:11.314Z</time></trkpt><trkpt lat="43.0920974" lon="13.373785"><ele>547.0</ele><time>2026-03-22T08:58:12.314Z</time></trkpt><trkpt lat="43.0920576" lon="13.3739543"><ele>549.75</ele><time>2026-03-22T08:58:13.314Z</time></trkpt><trkpt lat="43.092023" lon="13.374113"><ele>552.5</ele><time>2026-03-22T08:58:14.314Z</time></trkpt><trkpt lat="43.091995" lon="13.3742653"><ele>555.25</ele><time>2026-03-22T08:58:15.314Z</time></trkpt><trkpt lat="43.0919731" lon="13.3744197"><ele>558.0</ele><time>2026-03-22T08:58:16.314Z</time></trkpt><trkpt lat="43.0919681" lon="13.3745752"><ele>559.75</ele><time>2026-03-22T08:58:17.314Z</time></trkpt><trkpt lat="43.091958" lon="13.3747291"><ele>561.5</ele><time>2026-03-22T08:58:18.314Z</time></trkpt><trkpt lat="43.0919602" lon="13.3748885"><ele>563.25</ele><time>2026-03-22T08:58:19.314Z</time></trkpt><trkpt lat="43.09197" lon="13.3750497"><ele>565.0</ele><time>2026-03-22T08:58:20.314Z</time></trkpt><trkpt lat="43.0919952" lon="13.3752108"><ele>565.0</ele><time>2026-03-22T08:58:21.314Z</time></trkpt><trkpt lat="43.0920386" lon="13.3753584"><ele>565.0</ele><time>2026-03-22T08:58:22.314Z</time></trkpt><trkpt lat="43.0920911" lon="13.3754876"><ele>565.0</ele><time>2026-03-22T08:58:23.314Z</time></trkpt><trkpt lat="43.0921531" lon="13.375601"><ele>565.0</ele><time>2026-03-22T08:58:24.314Z</time></trkpt><trkpt lat="43.0922161" lon="13.3757218"><ele>565.0</ele><time>2026-03-22T08:58:25.314Z</time></trkpt><trkpt lat="43.0922789" lon="13.3758397"><ele>565.0</ele><time>2026-03-22T08:58:26.313Z</time></trkpt><trkpt lat="43.0923457" lon="13.3759615"><ele>565.0</ele><time>2026-03-22T08:58:27.314Z</time></trkpt><trkpt lat="43.092411" lon="13.3760852"><ele>565.0</ele><time>2026-03-22T08:58:28.314Z</time></trkpt><trkpt lat="43.0924642" lon="13.3762161"><ele>565.0</ele><time>2026-03-22T08:58:29.314Z</time></trkpt><trkpt lat="43.0925022" lon="13.3763621"><ele>565.0</ele><time>2026-03-22T08:58:30.314Z</time></trkpt><trkpt lat="43.0925282" lon="13.3765018"><ele>567.5</ele><time>2026-03-22T08:58:31.314Z</time></trkpt><trkpt lat="43.0925521" lon="13.376647"><ele>570.0</ele><time>2026-03-22T08:58:32.313Z</time></trkpt><trkpt lat="43.0925566" lon="13.3768062"><ele>572.5</ele><time>2026-03-22T08:58:33.314Z</time></trkpt><trkpt lat="43.0925539" lon="13.3769663"><ele>575.0</ele><time>2026-03-22T08:58:34.313Z</time></trkpt><trkpt lat="43.0925421" lon="13.3771271"><ele>575.25</ele><time>2026-03-22T08:58:35.314Z</time></trkpt><trkpt lat="43.0925324" lon="13.3772881"><ele>575.5</ele><time>2026-03-22T08:58:36.314Z</time></trkpt><trkpt lat="43.0925171" lon="13.3774443"><ele>575.75</ele><time>2026-03-22T08:58:37.314Z</time></trkpt><trkpt lat="43.092505" lon="13.3776016"><ele>576.0</ele><time>2026-03-22T08:58:38.314Z</time></trkpt><trkpt lat="43.0925012" lon="13.3777503"><ele>576.0</ele><time>2026-03-22T08:58:39.314Z</time></trkpt><trkpt lat="43.0925113" lon="13.3778904"><ele>576.0</ele><time>2026-03-22T08:58:40.313Z</time></trkpt><trkpt lat="43.0925394" lon="13.3780186"><ele>576.0</ele><time>2026-03-22T08:58:41.313Z</time></trkpt><trkpt lat="43.0925838" lon="13.3781435"><ele>576.0</ele><time>2026-03-22T08:58:42.314Z</time></trkpt><trkpt lat="43.0926221" lon="13.3782696"><ele>576.0</ele><time>2026-03-22T08:58:43.313Z</time></trkpt><trkpt lat="43.092648" lon="13.3783963"><ele>575.2</ele><time>2026-03-22T08:58:44.313Z</time></trkpt><trkpt lat="43.0926563" lon="13.3785321"><ele>574.4000000000001</ele><time>2026-03-22T08:58:45.314Z</time></trkpt><trkpt lat="43.0926446" lon="13.3786712"><ele>573.6</ele><time>2026-03-22T08:58:46.314Z</time></trkpt><trkpt lat="43.0926075" lon="13.378808"><ele>572.8000000000001</ele><time>2026-03-22T08:58:47.314Z</time></trkpt><trkpt lat="43.0925632" lon="13.3789522"><ele>572.0</ele><time>2026-03-22T08:58:48.314Z</time></trkpt><trkpt lat="43.0925221" lon="13.3790789"><ele>571.0</ele><time>2026-03-22T08:58:49.313Z</time></trkpt><trkpt lat="43.0924878" lon="13.37918"><ele>570.0</ele><time>2026-03-22T08:58:50.314Z</time></trkpt><trkpt lat="43.0924547" lon="13.3792706"><ele>569.0</ele><time>2026-03-22T08:58:51.314Z</time></trkpt><trkpt lat="43.0923918" lon="13.3793691"><ele>568.0</ele><time>2026-03-22T08:58:53.314Z</time></trkpt><trkpt lat="43.0923218" lon="13.3794228"><ele>567.0</ele><time>2026-03-22T08:58:55.314Z</time></trkpt><trkpt lat="43.092248" lon="13.37947"><ele>566.0</ele><time>2026-03-22T08:58:58.314Z</time></trkpt><trkpt lat="43.0921849" lon="13.3794922"><ele>565.4</ele><time>2026-03-22T09:06:45.314Z</time></trkpt><trkpt lat="43.0921262" lon="13.379538"><ele>564.8</ele><time>2026-03-22T09:06:47.313Z</time></trkpt><trkpt lat="43.0920697" lon="13.3795897"><ele>564.1999999999999</ele><time>2026-03-22T09:06:50.314Z</time></trkpt><trkpt lat="43.0919862" lon="13.3796391"><ele>563.6</ele><time>2026-03-22T09:06:52.314Z</time></trkpt><trkpt lat="43.0918735" lon="13.3796756"><ele>563.0</ele><time>2026-03-22T09:06:54.314Z</time></trkpt><trkpt lat="43.0917579" lon="13.3796951"><ele>563.0</ele><time>2026-03-22T09:06:56.314Z</time></trkpt><trkpt lat="43.0916438" lon="13.3797133"><ele>563.0</ele><time>2026-03-22T09:06:58.314Z</time></trkpt><trkpt lat="43.0915556" lon="13.3796683"><ele>563.0</ele><time>2026-03-22T09:07:00.314Z</time></trkpt><trkpt lat="43.0915161" lon="13.3795183"><ele>563.0</ele><time>2026-03-22T09:07:02.314Z</time></trkpt><trkpt lat="43.0915169" lon="13.379417"><ele>563.0</ele><time>2026-03-22T09:07:03.314Z</time></trkpt><trkpt lat="43.0915097" lon="13.3793078"><ele>558.5</ele><time>2026-03-22T09:07:04.314Z</time></trkpt><trkpt lat="43.0915042" lon="13.3792059"><ele>554.0</ele><time>2026-03-22T09:07:05.314Z</time></trkpt><trkpt lat="43.0914879" lon="13.3791181"><ele>549.5</ele><time>2026-03-22T09:07:06.314Z</time></trkpt><trkpt lat="43.0914068" lon="13.3790174"><ele>545.0</ele><time>2026-03-22T09:07:08.314Z</time></trkpt><trkpt lat="43.0913315" lon="13.3790121"><ele>540.5</ele><time>2026-03-22T09:07:09.314Z</time></trkpt><trkpt lat="43.0912549" lon="13.3790237"><ele>536.0</ele><time>2026-03-22T09:07:10.314Z</time></trkpt><trkpt lat="43.0911678" lon="13.3790423"><ele>536.0</ele><time>2026-03-22T09:07:11.314Z</time></trkpt><trkpt lat="43.0910752" lon="13.3790701"><ele>536.0</ele><time>2026-03-22T09:07:12.314Z</time></trkpt><trkpt lat="43.0909761" lon="13.3791076"><ele>536.0</ele><time>2026-03-22T09:07:13.314Z</time></trkpt><trkpt lat="43.0908774" lon="13.3791416"><ele>536.0</ele><time>2026-03-22T09:07:14.314Z</time></trkpt><trkpt lat="43.0907817" lon="13.3791783"><ele>536.0</ele><time>2026-03-22T09:07:15.314Z</time></trkpt><trkpt lat="43.0906841" lon="13.3792187"><ele>533.1666666666666</ele><time>2026-03-22T09:07:16.314Z</time></trkpt><trkpt lat="43.0905935" lon="13.3792514"><ele>530.3333333333333</ele><time>2026-03-22T09:07:17.314Z</time></trkpt><trkpt lat="43.0905103" lon="13.3792838"><ele>527.5</ele><time>2026-03-22T09:07:18.314Z</time></trkpt><trkpt lat="43.0904321" lon="13.3793161"><ele>524.6666666666666</ele><time>2026-03-22T09:07:19.314Z</time></trkpt><trkpt lat="43.0903572" lon="13.3793514"><ele>521.8333333333334</ele><time>2026-03-22T09:07:20.314Z</time></trkpt><trkpt lat="43.0902955" lon="13.3793779"><ele>519.0</ele><time>2026-03-22T09:07:21.314Z</time></trkpt><trkpt lat="43.0901919" lon="13.3793983"><ele>519.0</ele><time>2026-03-22T09:07:23.313Z</time></trkpt><trkpt lat="43.0901151" lon="13.3793985"><ele>519.0</ele><time>2026-03-22T09:07:25.314Z</time></trkpt><trkpt lat="43.090074" lon="13.3793295"><ele>519.0</ele><time>2026-03-22T09:07:27.314Z</time></trkpt><trkpt lat="43.0900573" lon="13.3791707"><ele>519.0</ele><time>2026-03-22T09:07:29.314Z</time></trkpt><trkpt lat="43.090059" lon="13.3790469"><ele>519.0</ele><time>2026-03-22T09:07:30.314Z</time></trkpt><trkpt lat="43.0900598" lon="13.3789274"><ele>519.0</ele><time>2026-03-22T09:07:31.314Z</time></trkpt><trkpt lat="43.0900624" lon="13.378813"><ele>518.0</ele><time>2026-03-22T09:07:32.314Z</time></trkpt><trkpt lat="43.0900736" lon="13.3787016"><ele>517.0</ele><time>2026-03-22T09:07:33.314Z</time></trkpt><trkpt lat="43.0900812" lon="13.3785913"><ele>516.0</ele><time>2026-03-22T09:07:34.314Z</time></trkpt><trkpt lat="43.0901083" lon="13.3784525"><ele>515.0</ele><time>2026-03-22T09:07:35.314Z</time></trkpt><trkpt lat="43.0901361" lon="13.378308"><ele>514.0</ele><time>2026-03-22T09:07:36.313Z</time></trkpt><trkpt lat="43.0901631" lon="13.3781557"><ele>513.75</ele><time>2026-03-22T09:07:37.314Z</time></trkpt><trkpt lat="43.090192" lon="13.3779938"><ele>513.5</ele><time>2026-03-22T09:07:38.314Z</time></trkpt><trkpt lat="43.0902219" lon="13.3778334"><ele>513.25</ele><time>2026-03-22T09:07:39.314Z</time></trkpt><trkpt lat="43.09025" lon="13.3776807"><ele>513.0</ele><time>2026-03-22T09:07:40.314Z</time></trkpt><trkpt lat="43.0902767" lon="13.3775341"><ele>513.0</ele><time>2026-03-22T09:07:41.314Z</time></trkpt><trkpt lat="43.0902905" lon="13.3773935"><ele>513.0</ele><time>2026-03-22T09:07:42.314Z</time></trkpt><trkpt lat="43.0902693" lon="13.3772599"><ele>513.0</ele><time>2026-03-22T09:07:43.314Z</time></trkpt><trkpt lat="43.0902142" lon="13.3771495"><ele>513.0</ele><time>2026-03-22T09:07:44.314Z</time></trkpt><trkpt lat="43.0901284" lon="13.3770505"><ele>513.0</ele><time>2026-03-22T09:07:45.314Z</time></trkpt><trkpt lat="43.0900261" lon="13.3769689"><ele>510.75</ele><time>2026-03-22T09:07:46.314Z</time></trkpt><trkpt lat="43.0899143" lon="13.3768873"><ele>508.5</ele><time>2026-03-22T09:07:47.314Z</time></trkpt><trkpt lat="43.0898018" lon="13.3768085"><ele>506.25</ele><time>2026-03-22T09:07:48.314Z</time></trkpt><trkpt lat="43.089696" lon="13.3767308"><ele>504.0</ele><time>2026-03-22T09:07:49.314Z</time></trkpt><trkpt lat="43.0895939" lon="13.3766539"><ele>504.0</ele><time>2026-03-22T09:07:50.314Z</time></trkpt><trkpt lat="43.0894949" lon="13.3765796"><ele>504.0</ele><time>2026-03-22T09:07:51.314Z</time></trkpt><trkpt lat="43.0893985" lon="13.3765066"><ele>504.0</ele><time>2026-03-22T09:07:52.314Z</time></trkpt><trkpt lat="43.0893061" lon="13.3764323"><ele>504.0</ele><time>2026-03-22T09:07:53.314Z</time></trkpt><trkpt lat="43.0892186" lon="13.3763524"><ele>504.0</ele><time>2026-03-22T09:07:54.314Z</time></trkpt><trkpt lat="43.089143" lon="13.3762591"><ele>503.4</ele><time>2026-03-22T09:07:55.314Z</time></trkpt><trkpt lat="43.089079" lon="13.3761551"><ele>502.79999999999995</ele><time>2026-03-22T09:07:56.314Z</time></trkpt><trkpt lat="43.0890222" lon="13.3760489"><ele>502.20000000000005</ele><time>2026-03-22T09:07:57.314Z</time></trkpt><trkpt lat="43.0889624" lon="13.3759464"><ele>501.6</ele><time>2026-03-22T09:07:58.314Z</time></trkpt><trkpt lat="43.088885" lon="13.3758501"><ele>501.0</ele><time>2026-03-22T09:07:59.314Z</time></trkpt><trkpt lat="43.0887899" lon="13.3757654"><ele>501.0</ele><time>2026-03-22T09:08:00.314Z</time></trkpt><trkpt lat="43.088674" lon="13.3756976"><ele>501.0</ele><time>2026-03-22T09:08:01.314Z</time></trkpt><trkpt lat="43.0885431" lon="13.3756634"><ele>501.0</ele><time>2026-03-22T09:08:02.314Z</time></trkpt><trkpt lat="43.0884086" lon="13.3756491"><ele>501.0</ele><time>2026-03-22T09:08:03.314Z</time></trkpt><trkpt lat="43.088281" lon="13.3756335"><ele>500.25</ele><time>2026-03-22T09:08:04.314Z</time></trkpt><trkpt lat="43.0881598" lon="13.3756095"><ele>499.5</ele><time>2026-03-22T09:08:05.314Z</time></trkpt><trkpt lat="43.0880415" lon="13.3755776"><ele>498.75</ele><time>2026-03-22T09:08:06.314Z</time></trkpt><trkpt lat="43.0879274" lon="13.3755357"><ele>498.0</ele><time>2026-03-22T09:08:07.314Z</time></trkpt><trkpt lat="43.0878188" lon="13.3754831"><ele>498.0</ele><time>2026-03-22T09:08:08.314Z</time></trkpt><trkpt lat="43.0877139" lon="13.375424"><ele>498.0</ele><time>2026-03-22T09:08:09.314Z</time></trkpt><trkpt lat="43.0876133" lon="13.3753572"><ele>498.0</ele><time>2026-03-22T09:08:10.314Z</time></trkpt><trkpt lat="43.0875151" lon="13.3752851"><ele>498.0</ele><time>2026-03-22T09:08:11.314Z</time></trkpt><trkpt lat="43.0874128" lon="13.3752176"><ele>496.2</ele><time>2026-03-22T09:08:12.314Z</time></trkpt><trkpt lat="43.0873093" lon="13.3751548"><ele>494.4</ele><time>2026-03-22T09:08:13.314Z</time></trkpt><trkpt lat="43.0872094" lon="13.3750881"><ele>492.59999999999997</ele><time>2026-03-22T09:08:14.314Z</time></trkpt><trkpt lat="43.0871129" lon="13.3750199"><ele>490.79999999999995</ele><time>2026-03-22T09:08:15.314Z</time></trkpt><trkpt lat="43.0870193" lon="13.3749454"><ele>489.0</ele><time>2026-03-22T09:08:16.314Z</time></trkpt><trkpt lat="43.0869307" lon="13.3748597"><ele>489.0</ele><time>2026-03-22T09:08:17.314Z</time></trkpt><trkpt lat="43.0868517" lon="13.3747401"><ele>489.0</ele><time>2026-03-22T09:08:18.314Z</time></trkpt><trkpt lat="43.0867761" lon="13.3746121"><ele>489.0</ele><time>2026-03-22T09:08:19.314Z</time></trkpt><trkpt lat="43.0867063" lon="13.3744746"><ele>489.0</ele><time>2026-03-22T09:08:20.314Z</time></trkpt><trkpt lat="43.0866429" lon="13.3743375"><ele>483.5</ele><time>2026-03-22T09:08:21.314Z</time></trkpt><trkpt lat="43.0865812" lon="13.3741981"><ele>478.0</ele><time>2026-03-22T09:08:22.314Z</time></trkpt><trkpt lat="43.0865276" lon="13.3740529"><ele>472.5</ele><time>2026-03-22T09:08:23.313Z</time></trkpt><trkpt lat="43.0864851" lon="13.3739018"><ele>467.0</ele><time>2026-03-22T09:08:24.314Z</time></trkpt><trkpt lat="43.0864535" lon="13.3737499"><ele>466.40000000000003</ele><time>2026-03-22T09:08:25.314Z</time></trkpt><trkpt lat="43.0864268" lon="13.3735984"><ele>465.80000000000007</ele><time>2026-03-22T09:08:26.314Z</time></trkpt><trkpt lat="43.0864049" lon="13.3734476"><ele>465.2</ele><time>2026-03-22T09:08:27.314Z</time></trkpt><trkpt lat="43.0863887" lon="13.3733023"><ele>464.6</ele><time>2026-03-22T09:08:28.314Z</time></trkpt><trkpt lat="43.0863838" lon="13.3731618"><ele>464.0</ele><time>2026-03-22T09:08:29.314Z</time></trkpt><trkpt lat="43.0864012" lon="13.373012"><ele>464.0</ele><time>2026-03-22T09:08:30.314Z</time></trkpt><trkpt lat="43.0864355" lon="13.3728586"><ele>464.0</ele><time>2026-03-22T09:08:31.314Z</time></trkpt><trkpt lat="43.0864782" lon="13.3727032"><ele>464.0</ele><time>2026-03-22T09:08:32.314Z</time></trkpt><trkpt lat="43.08652" lon="13.3725446"><ele>464.0</ele><time>2026-03-22T09:08:33.314Z</time></trkpt><trkpt lat="43.0865571" lon="13.3723813"><ele>466.5</ele><time>2026-03-22T09:08:34.314Z</time></trkpt><trkpt lat="43.0865974" lon="13.3722173"><ele>469.0</ele><time>2026-03-22T09:08:35.314Z</time></trkpt><trkpt lat="43.0866398" lon="13.3720535"><ele>471.5</ele><time>2026-03-22T09:08:36.314Z</time></trkpt><trkpt lat="43.0866794" lon="13.3718935"><ele>474.0</ele><time>2026-03-22T09:08:37.314Z</time></trkpt><trkpt lat="43.0867192" lon="13.3717391"><ele>474.0</ele><time>2026-03-22T09:08:38.314Z</time></trkpt><trkpt lat="43.0867607" lon="13.3715887"><ele>474.0</ele><time>2026-03-22T09:08:39.314Z</time></trkpt><trkpt lat="43.0868083" lon="13.3714419"><ele>474.0</ele><time>2026-03-22T09:08:40.314Z</time></trkpt><trkpt lat="43.086864" lon="13.3712962"><ele>474.0</ele><time>2026-03-22T09:08:41.314Z</time></trkpt><trkpt lat="43.0869317" lon="13.3711626"><ele>472.0</ele><time>2026-03-22T09:08:42.314Z</time></trkpt><trkpt lat="43.0870079" lon="13.3710453"><ele>470.0</ele><time>2026-03-22T09:08:43.314Z</time></trkpt><trkpt lat="43.0870761" lon="13.3709372"><ele>468.0</ele><time>2026-03-22T09:08:44.314Z</time></trkpt><trkpt lat="43.0871275" lon="13.3708344"><ele>466.0</ele><time>2026-03-22T09:08:45.314Z</time></trkpt><trkpt lat="43.0871621" lon="13.3707284"><ele>464.0</ele><time>2026-03-22T09:08:46.314Z</time></trkpt><trkpt lat="43.0871656" lon="13.3706278"><ele>463.99999999999994</ele><time>2026-03-22T09:08:47.314Z</time></trkpt><trkpt lat="43.0871314" lon="13.3705463"><ele>464.0</ele><time>2026-03-22T09:08:48.314Z</time></trkpt><trkpt lat="43.087069" lon="13.3704949"><ele>464.0</ele><time>2026-03-22T09:08:49.314Z</time></trkpt><trkpt lat="43.0869887" lon="13.3704964"><ele>464.0</ele><time>2026-03-22T09:08:50.314Z</time></trkpt><trkpt lat="43.0869074" lon="13.3705452"><ele>463.99999999999994</ele><time>2026-03-22T09:08:51.314Z</time></trkpt><trkpt lat="43.0868317" lon="13.3706356"><ele>464.0</ele><time>2026-03-22T09:08:52.313Z</time></trkpt><trkpt lat="43.086764" lon="13.3707435"><ele>464.0</ele><time>2026-03-22T09:08:53.314Z</time></trkpt><trkpt lat="43.0867038" lon="13.3708575"><ele>464.0</ele><time>2026-03-22T09:08:54.314Z</time></trkpt><trkpt lat="43.08665" lon="13.3709774"><ele>464.0</ele><time>2026-03-22T09:08:55.314Z</time></trkpt><trkpt lat="43.086601" lon="13.3710997"><ele>464.0</ele><time>2026-03-22T09:08:56.314Z</time></trkpt><trkpt lat="43.0865529" lon="13.3712212"><ele>464.0</ele><time>2026-03-22T09:08:57.314Z</time></trkpt><trkpt lat="43.0865038" lon="13.3713322"><ele>463.49999999999994</ele><time>2026-03-22T09:08:58.314Z</time></trkpt><trkpt lat="43.0864424" lon="13.3714241"><ele>463.0</ele><time>2026-03-22T09:08:59.314Z</time></trkpt><trkpt lat="43.0863642" lon="13.3714824"><ele>462.5</ele><time>2026-03-22T09:09:00.314Z</time></trkpt><trkpt lat="43.0862776" lon="13.3714938"><ele>462.0</ele><time>2026-03-22T09:09:01.314Z</time></trkpt><trkpt lat="43.0862042" lon="13.3714397"><ele>461.49999999999994</ele><time>2026-03-22T09:09:02.314Z</time></trkpt><trkpt lat="43.0861392" lon="13.3713505"><ele>461.0</ele><time>2026-03-22T09:09:03.314Z</time></trkpt><trkpt lat="43.0860852" lon="13.3712309"><ele>459.6</ele><time>2026-03-22T09:09:04.314Z</time></trkpt><trkpt lat="43.0860306" lon="13.3711034"><ele>458.20000000000005</ele><time>2026-03-22T09:09:05.313Z</time></trkpt><trkpt lat="43.0859702" lon="13.3709802"><ele>456.79999999999995</ele><time>2026-03-22T09:09:06.314Z</time></trkpt><trkpt lat="43.0859003" lon="13.3708724"><ele>455.4</ele><time>2026-03-22T09:09:07.314Z</time></trkpt><trkpt lat="43.0858136" lon="13.3707826"><ele>454.0</ele><time>2026-03-22T09:09:08.314Z</time></trkpt><trkpt lat="43.0857117" lon="13.3707254"><ele>450.79999999999995</ele><time>2026-03-22T09:09:09.314Z</time></trkpt><trkpt lat="43.0856019" lon="13.3707085"><ele>447.59999999999997</ele><time>2026-03-22T09:09:10.314Z</time></trkpt><trkpt lat="43.0854959" lon="13.370734"><ele>444.4</ele><time>2026-03-22T09:09:11.314Z</time></trkpt><trkpt lat="43.0853968" lon="13.3707967"><ele>441.2</ele><time>2026-03-22T09:09:12.314Z</time></trkpt><trkpt lat="43.0853134" lon="13.3708944"><ele>438.0</ele><time>2026-03-22T09:09:13.314Z</time></trkpt><trkpt lat="43.0852582" lon="13.3710238"><ele>438.0</ele><time>2026-03-22T09:09:14.314Z</time></trkpt><trkpt lat="43.085223" lon="13.3711785"><ele>438.0</ele><time>2026-03-22T09:09:15.314Z</time></trkpt><trkpt lat="43.0852018" lon="13.3713472"><ele>438.0</ele><time>2026-03-22T09:09:16.314Z</time></trkpt><trkpt lat="43.085185" lon="13.3715204"><ele>438.0</ele><time>2026-03-22T09:09:17.314Z</time></trkpt><trkpt lat="43.0851697" lon="13.3716892"><ele>438.25</ele><time>2026-03-22T09:09:18.314Z</time></trkpt><trkpt lat="43.0851569" lon="13.3718577"><ele>438.5</ele><time>2026-03-22T09:09:19.314Z</time></trkpt><trkpt lat="43.0851373" lon="13.3720277"><ele>438.75</ele><time>2026-03-22T09:09:20.314Z</time></trkpt><trkpt lat="43.0851098" lon="13.3721981"><ele>439.0</ele><time>2026-03-22T09:09:21.314Z</time></trkpt><trkpt lat="43.0850743" lon="13.3723674"><ele>439.0</ele><time>2026-03-22T09:09:22.314Z</time></trkpt><trkpt lat="43.0850372" lon="13.3725377"><ele>439.0</ele><time>2026-03-22T09:09:23.314Z</time></trkpt><trkpt lat="43.0849986" lon="13.3727065"><ele>439.0</ele><time>2026-03-22T09:09:24.314Z</time></trkpt><trkpt lat="43.0849576" lon="13.3728726"><ele>439.0</ele><time>2026-03-22T09:09:25.314Z</time></trkpt><trkpt lat="43.0849064" lon="13.3730302"><ele>437.0</ele><time>2026-03-22T09:09:26.314Z</time></trkpt><trkpt lat="43.0848487" lon="13.3731793"><ele>435.0</ele><time>2026-03-22T09:09:27.314Z</time></trkpt><trkpt lat="43.0847856" lon="13.3733209"><ele>433.0</ele><time>2026-03-22T09:09:28.314Z</time></trkpt><trkpt lat="43.0847164" lon="13.3734529"><ele>431.0</ele><time>2026-03-22T09:09:29.314Z</time></trkpt><trkpt lat="43.0846404" lon="13.3735759"><ele>431.0</ele><time>2026-03-22T09:09:30.314Z</time></trkpt><trkpt lat="43.0845589" lon="13.3737"><ele>431.0</ele><time>2026-03-22T09:09:31.314Z</time></trkpt><trkpt lat="43.0844804" lon="13.3738213"><ele>431.0</ele><time>2026-03-22T09:09:32.314Z</time></trkpt><trkpt lat="43.0844022" lon="13.3739434"><ele>431.0</ele><time>2026-03-22T09:09:33.314Z</time></trkpt><trkpt lat="43.0843234" lon="13.3740631"><ele>431.4</ele><time>2026-03-22T09:09:34.314Z</time></trkpt><trkpt lat="43.0842441" lon="13.374178"><ele>431.8</ele><time>2026-03-22T09:09:35.314Z</time></trkpt><trkpt lat="43.0841607" lon="13.3742786"><ele>432.19999999999993</ele><time>2026-03-22T09:09:36.314Z</time></trkpt><trkpt lat="43.0840672" lon="13.3743456"><ele>432.59999999999997</ele><time>2026-03-22T09:09:37.314Z</time></trkpt><trkpt lat="43.0839651" lon="13.3743643"><ele>433.0</ele><time>2026-03-22T09:09:38.314Z</time></trkpt><trkpt lat="43.0838653" lon="13.3743347"><ele>430.75</ele><time>2026-03-22T09:09:39.314Z</time></trkpt><trkpt lat="43.0837717" lon="13.374261"><ele>428.5</ele><time>2026-03-22T09:09:40.313Z</time></trkpt><trkpt lat="43.0836831" lon="13.3741545"><ele>426.25</ele><time>2026-03-22T09:09:41.314Z</time></trkpt><trkpt lat="43.083601" lon="13.3740343"><ele>424.0</ele><time>2026-03-22T09:09:42.314Z</time></trkpt><trkpt lat="43.0835178" lon="13.3739218"><ele>424.4</ele><time>2026-03-22T09:09:43.314Z</time></trkpt><trkpt lat="43.0834355" lon="13.3738135"><ele>424.79999999999995</ele><time>2026-03-22T09:09:44.314Z</time></trkpt><trkpt lat="43.0833656" lon="13.3737016"><ele>425.20000000000005</ele><time>2026-03-22T09:09:45.314Z</time></trkpt><trkpt lat="43.0833051" lon="13.3735794"><ele>425.6</ele><time>2026-03-22T09:09:46.314Z</time></trkpt><trkpt lat="43.0832561" lon="13.373448"><ele>426.0</ele><time>2026-03-22T09:09:47.314Z</time></trkpt><trkpt lat="43.0832246" lon="13.3733026"><ele>422.0</ele><time>2026-03-22T09:09:48.314Z</time></trkpt><trkpt lat="43.0832088" lon="13.373151"><ele>418.0</ele><time>2026-03-22T09:09:49.314Z</time></trkpt><trkpt lat="43.0832014" lon="13.3729985"><ele>414.0</ele><time>2026-03-22T09:09:50.314Z</time></trkpt><trkpt lat="43.0832002" lon="13.3728444"><ele>410.0</ele><time>2026-03-22T09:09:51.314Z</time></trkpt><trkpt lat="43.0832013" lon="13.37269"><ele>406.0</ele><time>2026-03-22T09:09:52.314Z</time></trkpt><trkpt lat="43.0832091" lon="13.3725362"><ele>406.0</ele><time>2026-03-22T09:09:53.314Z</time></trkpt><trkpt lat="43.08324" lon="13.3723893"><ele>406.0</ele><time>2026-03-22T09:09:54.314Z</time></trkpt><trkpt lat="43.0833057" lon="13.372264"><ele>406.0</ele><time>2026-03-22T09:09:55.314Z</time></trkpt><trkpt lat="43.0833952" lon="13.3721659"><ele>406.0</ele><time>2026-03-22T09:09:56.314Z</time></trkpt><trkpt lat="43.0835027" lon="13.3721042"><ele>405.8</ele><time>2026-03-22T09:09:57.314Z</time></trkpt><trkpt lat="43.0836223" lon="13.3720866"><ele>405.6</ele><time>2026-03-22T09:09:58.314Z</time></trkpt><trkpt lat="43.0837367" lon="13.3721052"><ele>405.4</ele><time>2026-03-22T09:09:59.314Z</time></trkpt><trkpt lat="43.0838456" lon="13.3721326"><ele>405.2</ele><time>2026-03-22T09:10:00.314Z</time></trkpt><trkpt lat="43.0839418" lon="13.3721502"><ele>405.0</ele><time>2026-03-22T09:10:01.313Z</time></trkpt><trkpt lat="43.0840379" lon="13.3721549"><ele>407.0</ele><time>2026-03-22T09:10:02.314Z</time></trkpt><trkpt lat="43.0841266" lon="13.3721201"><ele>409.0</ele><time>2026-03-22T09:10:03.314Z</time></trkpt><trkpt lat="43.0841932" lon="13.3720326"><ele>411.0</ele><time>2026-03-22T09:10:04.314Z</time></trkpt><trkpt lat="43.0842255" lon="13.3719176"><ele>413.0</ele><time>2026-03-22T09:10:05.314Z</time></trkpt><trkpt lat="43.0842336" lon="13.3717818"><ele>415.0</ele><time>2026-03-22T09:10:06.314Z</time></trkpt><trkpt lat="43.0842255" lon="13.371634"><ele>415.0</ele><time>2026-03-22T09:10:07.314Z</time></trkpt><trkpt lat="43.0842126" lon="13.3714759"><ele>415.0</ele><time>2026-03-22T09:10:08.314Z</time></trkpt><trkpt lat="43.0841899" lon="13.3713075"><ele>415.0</ele><time>2026-03-22T09:10:09.314Z</time></trkpt><trkpt lat="43.0841618" lon="13.3711328"><ele>415.0</ele><time>2026-03-22T09:10:10.314Z</time></trkpt><trkpt lat="43.0841362" lon="13.3709569"><ele>413.5</ele><time>2026-03-22T09:10:11.314Z</time></trkpt><trkpt lat="43.0841134" lon="13.3707826"><ele>412.0</ele><time>2026-03-22T09:10:12.314Z</time></trkpt><trkpt lat="43.084088" lon="13.3706066"><ele>410.5</ele><time>2026-03-22T09:10:13.314Z</time></trkpt><trkpt lat="43.084058" lon="13.3704327"><ele>409.0</ele><time>2026-03-22T09:10:14.314Z</time></trkpt><trkpt lat="43.0840196" lon="13.3702625"><ele>402.75</ele><time>2026-03-22T09:10:15.314Z</time></trkpt><trkpt lat="43.0839703" lon="13.3701009"><ele>396.5</ele><time>2026-03-22T09:10:16.314Z</time></trkpt><trkpt lat="43.0839141" lon="13.369947"><ele>390.25</ele><time>2026-03-22T09:10:17.314Z</time></trkpt><trkpt lat="43.0838565" lon="13.3698036"><ele>384.0</ele><time>2026-03-22T09:10:18.314Z</time></trkpt><trkpt lat="43.0838038" lon="13.3696668"><ele>383.75</ele><time>2026-03-22T09:10:19.314Z</time></trkpt><trkpt lat="43.083764" lon="13.3695244"><ele>383.5</ele><time>2026-03-22T09:10:20.314Z</time></trkpt><trkpt lat="43.083752" lon="13.3693742"><ele>383.25</ele><time>2026-03-22T09:10:21.314Z</time></trkpt><trkpt lat="43.0837784" lon="13.3692243"><ele>383.0</ele><time>2026-03-22T09:10:22.314Z</time></trkpt><trkpt lat="43.0838432" lon="13.3690807"><ele>383.0</ele><time>2026-03-22T09:10:23.314Z</time></trkpt><trkpt lat="43.0839346" lon="13.3689533"><ele>383.0</ele><time>2026-03-22T09:10:24.313Z</time></trkpt><trkpt lat="43.0840346" lon="13.3688348"><ele>383.0</ele><time>2026-03-22T09:10:25.314Z</time></trkpt><trkpt lat="43.0841319" lon="13.3687155"><ele>383.0</ele><time>2026-03-22T09:10:26.314Z</time></trkpt><trkpt lat="43.0842261" lon="13.3685978"><ele>384.5</ele><time>2026-03-22T09:10:27.314Z</time></trkpt><trkpt lat="43.0843185" lon="13.3684831"><ele>386.0</ele><time>2026-03-22T09:10:28.314Z</time></trkpt><trkpt lat="43.0844118" lon="13.3683731"><ele>387.5</ele><time>2026-03-22T09:10:29.314Z</time></trkpt><trkpt lat="43.0845051" lon="13.368263"><ele>389.0</ele><time>2026-03-22T09:10:30.314Z</time></trkpt><trkpt lat="43.0846022" lon="13.3681525"><ele>389.0</ele><time>2026-03-22T09:10:31.314Z</time></trkpt><trkpt lat="43.0847024" lon="13.3680424"><ele>389.0</ele><time>2026-03-22T09:10:32.314Z</time></trkpt><trkpt lat="43.084803" lon="13.3679327"><ele>389.0</ele><time>2026-03-22T09:10:33.314Z</time></trkpt><trkpt lat="43.0849052" lon="13.367824"><ele>389.0</ele><time>2026-03-22T09:10:34.314Z</time></trkpt><trkpt lat="43.0850079" lon="13.3677151"><ele>388.75</ele><time>2026-03-22T09:10:35.314Z</time></trkpt><trkpt lat="43.08511" lon="13.3676046"><ele>388.5</ele><time>2026-03-22T09:10:36.314Z</time></trkpt><trkpt lat="43.0852081" lon="13.3674857"><ele>388.25</ele><time>2026-03-22T09:10:37.314Z</time></trkpt><trkpt lat="43.0853043" lon="13.3673574"><ele>388.0</ele><time>2026-03-22T09:10:38.314Z</time></trkpt><trkpt lat="43.0853998" lon="13.3672222"><ele>387.0</ele><time>2026-03-22T09:10:39.314Z</time></trkpt><trkpt lat="43.0854913" lon="13.3670766"><ele>386.0</ele><time>2026-03-22T09:10:40.314Z</time></trkpt><trkpt lat="43.0855835" lon="13.366929"><ele>385.0</ele><time>2026-03-22T09:10:41.314Z</time></trkpt><trkpt lat="43.0856734" lon="13.3667812"><ele>384.0</ele><time>2026-03-22T09:10:42.313Z</time></trkpt><trkpt lat="43.0857631" lon="13.3666336"><ele>384.0</ele><time>2026-03-22T09:10:43.314Z</time></trkpt><trkpt lat="43.0858491" lon="13.3664867"><ele>384.0</ele><time>2026-03-22T09:10:44.314Z</time></trkpt><trkpt lat="43.085933" lon="13.3663448"><ele>384.0</ele><time>2026-03-22T09:10:45.314Z</time></trkpt><trkpt lat="43.0860181" lon="13.3662119"><ele>384.0</ele><time>2026-03-22T09:10:46.314Z</time></trkpt><trkpt lat="43.0861082" lon="13.3660799"><ele>382.0</ele><time>2026-03-22T09:10:47.314Z</time></trkpt><trkpt lat="43.0862014" lon="13.3659475"><ele>380.0</ele><time>2026-03-22T09:10:48.314Z</time></trkpt><trkpt lat="43.0862998" lon="13.3658229"><ele>378.0</ele><time>2026-03-22T09:10:49.314Z</time></trkpt><trkpt lat="43.0864007" lon="13.3657048"><ele>376.0</ele><time>2026-03-22T09:10:50.314Z</time></trkpt><trkpt lat="43.0864998" lon="13.3655933"><ele>374.75</ele><time>2026-03-22T09:10:51.313Z</time></trkpt><trkpt lat="43.0865964" lon="13.3654854"><ele>373.5</ele><time>2026-03-22T09:10:52.314Z</time></trkpt><trkpt lat="43.0866925" lon="13.3653825"><ele>372.25</ele><time>2026-03-22T09:10:53.314Z</time></trkpt><trkpt lat="43.0867851" lon="13.365282"><ele>371.0</ele><time>2026-03-22T09:10:54.314Z</time></trkpt><trkpt lat="43.0868802" lon="13.3651919"><ele>371.0</ele><time>2026-03-22T09:10:55.314Z</time></trkpt><trkpt lat="43.0869762" lon="13.365118"><ele>371.0</ele><time>2026-03-22T09:10:56.314Z</time></trkpt><trkpt lat="43.0870762" lon="13.3650653"><ele>371.0</ele><time>2026-03-22T09:10:57.314Z</time></trkpt><trkpt lat="43.0871803" lon="13.3650322"><ele>371.0</ele><time>2026-03-22T09:10:58.314Z</time></trkpt><trkpt lat="43.0872866" lon="13.3650263"><ele>371.0</ele><time>2026-03-22T09:10:59.314Z</time></trkpt><trkpt lat="43.0873907" lon="13.3650417"><ele>370.8</ele><time>2026-03-22T09:11:00.314Z</time></trkpt><trkpt lat="43.0874923" lon="13.3650786"><ele>370.6</ele><time>2026-03-22T09:11:01.314Z</time></trkpt><trkpt lat="43.0875951" lon="13.3651307"><ele>370.4</ele><time>2026-03-22T09:11:02.314Z</time></trkpt><trkpt lat="43.0876975" lon="13.3651897"><ele>370.2</ele><time>2026-03-22T09:11:03.314Z</time></trkpt><trkpt lat="43.0877917" lon="13.3652465"><ele>370.0</ele><time>2026-03-22T09:11:04.314Z</time></trkpt><trkpt lat="43.0878837" lon="13.3652773"><ele>370.0</ele><time>2026-03-22T09:11:05.314Z</time></trkpt><trkpt lat="43.0879696" lon="13.3652664"><ele>370.0</ele><time>2026-03-22T09:11:06.314Z</time></trkpt><trkpt lat="43.0880301" lon="13.3652088"><ele>370.0</ele><time>2026-03-22T09:11:07.314Z</time></trkpt><trkpt lat="43.0880577" lon="13.3651213"><ele>370.0</ele><time>2026-03-22T09:11:08.314Z</time></trkpt><trkpt lat="43.08805" lon="13.3650121"><ele>370.0</ele><time>2026-03-22T09:11:09.314Z</time></trkpt><trkpt lat="43.0880084" lon="13.3649049"><ele>370.0</ele><time>2026-03-22T09:11:10.314Z</time></trkpt><trkpt lat="43.0879393" lon="13.3648092"><ele>370.0</ele><time>2026-03-22T09:11:11.314Z</time></trkpt><trkpt lat="43.0878581" lon="13.3647212"><ele>370.0</ele><time>2026-03-22T09:11:12.314Z</time></trkpt><trkpt lat="43.0877734" lon="13.3646286"><ele>370.0</ele><time>2026-03-22T09:11:13.314Z</time></trkpt><trkpt lat="43.087687" lon="13.3645278"><ele>370.0</ele><time>2026-03-22T09:11:14.313Z</time></trkpt><trkpt lat="43.0875953" lon="13.3644338"><ele>370.0</ele><time>2026-03-22T09:11:15.314Z</time></trkpt><trkpt lat="43.0874921" lon="13.3643426"><ele>366.5</ele><time>2026-03-22T09:11:16.314Z</time></trkpt><trkpt lat="43.0873731" lon="13.3642591"><ele>363.0</ele><time>2026-03-22T09:11:17.314Z</time></trkpt><trkpt lat="43.0872442" lon="13.3641751"><ele>359.5</ele><time>2026-03-22T09:11:18.314Z</time></trkpt><trkpt lat="43.0871123" lon="13.3640914"><ele>356.0</ele><time>2026-03-22T09:11:19.314Z</time></trkpt><trkpt lat="43.0869794" lon="13.364014"><ele>356.0</ele><time>2026-03-22T09:11:20.314Z</time></trkpt><trkpt lat="43.086849" lon="13.3639297"><ele>356.0</ele><time>2026-03-22T09:11:21.313Z</time></trkpt><trkpt lat="43.0867239" lon="13.3638433"><ele>356.0</ele><time>2026-03-22T09:11:22.314Z</time></trkpt><trkpt lat="43.0866012" lon="13.3637541"><ele>356.0</ele><time>2026-03-22T09:11:23.314Z</time></trkpt><trkpt lat="43.0864842" lon="13.3636556"><ele>353.5</ele><time>2026-03-22T09:11:24.314Z</time></trkpt><trkpt lat="43.0863727" lon="13.3635531"><ele>351.0</ele><time>2026-03-22T09:11:25.314Z</time></trkpt><trkpt lat="43.0862599" lon="13.3634566"><ele>348.5</ele><time>2026-03-22T09:11:26.314Z</time></trkpt><trkpt lat="43.0861498" lon="13.3633609"><ele>346.0</ele><time>2026-03-22T09:11:27.314Z</time></trkpt><trkpt lat="43.0860417" lon="13.3632639"><ele>346.0</ele><time>2026-03-22T09:11:28.314Z</time></trkpt><trkpt lat="43.0859399" lon="13.3631625"><ele>346.0</ele><time>2026-03-22T09:11:29.314Z</time></trkpt><trkpt lat="43.085854" lon="13.3630451"><ele>346.0</ele><time>2026-03-22T09:11:30.313Z</time></trkpt><trkpt lat="43.0857986" lon="13.3629063"><ele>346.0</ele><time>2026-03-22T09:11:31.314Z</time></trkpt><trkpt lat="43.0857717" lon="13.3627548"><ele>346.0</ele><time>2026-03-22T09:11:32.314Z</time></trkpt><trkpt lat="43.0857726" lon="13.3625799"><ele>346.0</ele><time>2026-03-22T09:11:33.314Z</time></trkpt><trkpt lat="43.0857875" lon="13.3623912"><ele>346.0</ele><time>2026-03-22T09:11:34.314Z</time></trkpt><trkpt lat="43.0858076" lon="13.3621992"><ele>346.0</ele><time>2026-03-22T09:11:35.314Z</time></trkpt><trkpt lat="43.0858245" lon="13.3620073"><ele>346.5</ele><time>2026-03-22T09:11:36.314Z</time></trkpt><trkpt lat="43.085817" lon="13.3618221"><ele>347.0</ele><time>2026-03-22T09:11:37.314Z</time></trkpt><trkpt lat="43.0857917" lon="13.36164"><ele>347.5</ele><time>2026-03-22T09:11:38.314Z</time></trkpt><trkpt lat="43.0857463" lon="13.3614715"><ele>348.0</ele><time>2026-03-22T09:11:39.314Z</time></trkpt><trkpt lat="43.0856777" lon="13.3613198"><ele>345.5</ele><time>2026-03-22T09:11:40.314Z</time></trkpt><trkpt lat="43.0855987" lon="13.3611832"><ele>343.0</ele><time>2026-03-22T09:11:41.314Z</time></trkpt><trkpt lat="43.0855041" lon="13.361061"><ele>340.5</ele><time>2026-03-22T09:11:42.314Z</time></trkpt><trkpt lat="43.0853826" lon="13.3609657"><ele>338.0</ele><time>2026-03-22T09:11:43.314Z</time></trkpt><trkpt lat="43.085245" lon="13.3608912"><ele>338.0</ele><time>2026-03-22T09:11:44.314Z</time></trkpt><trkpt lat="43.085107" lon="13.3608357"><ele>338.0</ele><time>2026-03-22T09:11:45.314Z</time></trkpt><trkpt lat="43.084977" lon="13.3607852"><ele>338.0</ele><time>2026-03-22T09:11:46.314Z</time></trkpt><trkpt lat="43.0848536" lon="13.3607379"><ele>338.0</ele><time>2026-03-22T09:11:47.314Z</time></trkpt><trkpt lat="43.0847357" lon="13.3606914"><ele>341.4</ele><time>2026-03-22T09:11:48.314Z</time></trkpt><trkpt lat="43.0846207" lon="13.3606503"><ele>344.79999999999995</ele><time>2026-03-22T09:11:49.314Z</time></trkpt><trkpt lat="43.0845183" lon="13.3606364"><ele>348.2</ele><time>2026-03-22T09:11:50.314Z</time></trkpt><trkpt lat="43.0844271" lon="13.3606565"><ele>351.6</ele><time>2026-03-22T09:11:51.314Z</time></trkpt><trkpt lat="43.0843489" lon="13.3607168"><ele>355.0</ele><time>2026-03-22T09:11:52.314Z</time></trkpt><trkpt lat="43.0843029" lon="13.3608213"><ele>355.0</ele><time>2026-03-22T09:11:53.314Z</time></trkpt><trkpt lat="43.0842581" lon="13.360956"><ele>355.0</ele><time>2026-03-22T09:11:54.314Z</time></trkpt><trkpt lat="43.0842476" lon="13.3611178"><ele>355.0</ele><time>2026-03-22T09:11:55.314Z</time></trkpt><trkpt lat="43.0842055" lon="13.3612656"><ele>355.0</ele><time>2026-03-22T09:11:56.314Z</time></trkpt><trkpt lat="43.084142" lon="13.3613959"><ele>358.5</ele><time>2026-03-22T09:11:57.314Z</time></trkpt><trkpt lat="43.0840466" lon="13.3614914"><ele>362.0</ele><time>2026-03-22T09:11:58.314Z</time></trkpt><trkpt lat="43.0839317" lon="13.3615663"><ele>365.5</ele><time>2026-03-22T09:11:59.314Z</time></trkpt><trkpt lat="43.08382" lon="13.36163"><ele>369.0</ele><time>2026-03-22T09:12:00.314Z</time></trkpt><trkpt lat="43.0837082" lon="13.3616958"><ele>369.0</ele><time>2026-03-22T09:12:01.314Z</time></trkpt><trkpt lat="43.0835963" lon="13.3617651"><ele>369.0</ele><time>2026-03-22T09:12:02.314Z</time></trkpt><trkpt lat="43.0834782" lon="13.3618323"><ele>369.0</ele><time>2026-03-22T09:12:03.314Z</time></trkpt><trkpt lat="43.0833569" lon="13.3618986"><ele>369.0</ele><time>2026-03-22T09:12:04.314Z</time></trkpt><trkpt lat="43.083234" lon="13.3619666"><ele>369.0</ele><time>2026-03-22T09:12:05.314Z</time></trkpt><trkpt lat="43.083114" lon="13.3620395"><ele>369.0</ele><time>2026-03-22T09:12:06.314Z</time></trkpt><trkpt lat="43.0829871" lon="13.3621007"><ele>369.0</ele><time>2026-03-22T09:12:07.314Z</time></trkpt><trkpt lat="43.0828504" lon="13.3621334"><ele>369.0</ele><time>2026-03-22T09:12:08.314Z</time></trkpt><trkpt lat="43.0827133" lon="13.3621203"><ele>369.0</ele><time>2026-03-22T09:12:09.313Z</time></trkpt><trkpt lat="43.0826027" lon="13.3620612"><ele>369.0</ele><time>2026-03-22T09:12:10.314Z</time></trkpt><trkpt lat="43.0825513" lon="13.3619739"><ele>369.0</ele><time>2026-03-22T09:12:11.314Z</time></trkpt><trkpt lat="43.0825329" lon="13.3618557"><ele>369.0</ele><time>2026-03-22T09:12:12.314Z</time></trkpt><trkpt lat="43.0825566" lon="13.3617179"><ele>369.0</ele><time>2026-03-22T09:12:13.314Z</time></trkpt><trkpt lat="43.0826058" lon="13.3615741"><ele>369.0</ele><time>2026-03-22T09:12:14.314Z</time></trkpt><trkpt lat="43.0826499" lon="13.3614314"><ele>369.0</ele><time>2026-03-22T09:12:15.314Z</time></trkpt><trkpt lat="43.0826905" lon="13.3612896"><ele>369.0</ele><time>2026-03-22T09:12:16.314Z</time></trkpt><trkpt lat="43.0827296" lon="13.3611509"><ele>369.0</ele><time>2026-03-22T09:12:17.314Z</time></trkpt><trkpt lat="43.0827408" lon="13.3610263"><ele>369.0</ele><time>2026-03-22T09:12:18.314Z</time></trkpt><trkpt lat="43.0827092" lon="13.360911"><ele>370.0</ele><time>2026-03-22T09:12:19.314Z</time></trkpt><trkpt lat="43.0826428" lon="13.3608247"><ele>371.0</ele><time>2026-03-22T09:12:20.314Z</time></trkpt><trkpt lat="43.0825553" lon="13.3607816"><ele>372.0</ele><time>2026-03-22T09:12:21.314Z</time></trkpt><trkpt lat="43.0824467" lon="13.3607807"><ele>373.0</ele><time>2026-03-22T09:12:22.314Z</time></trkpt><trkpt lat="43.0823238" lon="13.3608014"><ele>374.0</ele><time>2026-03-22T09:12:23.313Z</time></trkpt><trkpt lat="43.0822029" lon="13.3608315"><ele>377.0</ele><time>2026-03-22T09:12:24.314Z</time></trkpt><trkpt lat="43.0820814" lon="13.3608792"><ele>380.0</ele><time>2026-03-22T09:12:25.314Z</time></trkpt><trkpt lat="43.0819558" lon="13.3609401"><ele>383.0</ele><time>2026-03-22T09:12:26.314Z</time></trkpt><trkpt lat="43.0818192" lon="13.3610135"><ele>386.0</ele><time>2026-03-22T09:12:27.314Z</time></trkpt><trkpt lat="43.0816778" lon="13.361096"><ele>392.0</ele><time>2026-03-22T09:12:28.314Z</time></trkpt><trkpt lat="43.0815372" lon="13.3611808"><ele>398.0</ele><time>2026-03-22T09:12:29.314Z</time></trkpt><trkpt lat="43.0814011" lon="13.3612677"><ele>404.0</ele><time>2026-03-22T09:12:30.314Z</time></trkpt><trkpt lat="43.0812659" lon="13.3613585"><ele>399.3333333333333</ele><time>2026-03-22T09:12:31.314Z</time></trkpt><trkpt lat="43.0811302" lon="13.3614488"><ele>394.66666666666663</ele><time>2026-03-22T09:12:32.314Z</time></trkpt><trkpt lat="43.080993" lon="13.3615381"><ele>390.0</ele><time>2026-03-22T09:12:33.314Z</time></trkpt><trkpt lat="43.080856" lon="13.3616286"><ele>395.33333333333337</ele><time>2026-03-22T09:12:34.314Z</time></trkpt><trkpt lat="43.0807193" lon="13.3617212"><ele>400.6666666666667</ele><time>2026-03-22T09:12:35.314Z</time></trkpt><trkpt lat="43.0805789" lon="13.3618221"><ele>406.0</ele><time>2026-03-22T09:12:36.314Z</time></trkpt><trkpt lat="43.0804404" lon="13.3619288"><ele>406.0</ele><time>2026-03-22T09:12:37.314Z</time></trkpt><trkpt lat="43.0803047" lon="13.3620446"><ele>406.0</ele><time>2026-03-22T09:12:38.314Z</time></trkpt><trkpt lat="43.0801676" lon="13.3621628"><ele>406.0</ele><time>2026-03-22T09:12:39.314Z</time></trkpt><trkpt lat="43.080031" lon="13.3622854"><ele>409.0</ele><time>2026-03-22T09:12:40.314Z</time></trkpt><trkpt lat="43.0798984" lon="13.3624012"><ele>412.0</ele><time>2026-03-22T09:12:41.314Z</time></trkpt><trkpt lat="43.0797661" lon="13.3625173"><ele>415.0</ele><time>2026-03-22T09:12:42.313Z</time></trkpt><trkpt lat="43.0796362" lon="13.3626321"><ele>415.0</ele><time>2026-03-22T09:12:43.314Z</time></trkpt><trkpt lat="43.0795053" lon="13.3627488"><ele>415.0</ele><time>2026-03-22T09:12:44.314Z</time></trkpt><trkpt lat="43.0793758" lon="13.3628664"><ele>415.0</ele><time>2026-03-22T09:12:45.313Z</time></trkpt><trkpt lat="43.0792505" lon="13.3629799"><ele>414.6666666666667</ele><time>2026-03-22T09:12:46.314Z</time></trkpt><trkpt lat="43.0791147" lon="13.363084"><ele>414.33333333333337</ele><time>2026-03-22T09:12:47.314Z</time></trkpt><trkpt lat="43.0789657" lon="13.3631558"><ele>414.0</ele><time>2026-03-22T09:12:48.314Z</time></trkpt><trkpt lat="43.0788013" lon="13.3632031"><ele>414.0</ele><time>2026-03-22T09:12:49.314Z</time></trkpt><trkpt lat="43.078632" lon="13.3632487"><ele>414.0</ele><time>2026-03-22T09:12:50.314Z</time></trkpt><trkpt lat="43.07846" lon="13.3633106"><ele>414.0</ele><time>2026-03-22T09:12:51.314Z</time></trkpt><trkpt lat="43.0782948" lon="13.3633921"><ele>418.66666666666663</ele><time>2026-03-22T09:12:52.314Z</time></trkpt><trkpt lat="43.0781371" lon="13.3634794"><ele>423.3333333333333</ele><time>2026-03-22T09:12:53.313Z</time></trkpt><trkpt lat="43.0779839" lon="13.3635634"><ele>428.0</ele><time>2026-03-22T09:12:54.314Z</time></trkpt><trkpt lat="43.0778431" lon="13.3636442"><ele>428.0</ele><time>2026-03-22T09:12:55.314Z</time></trkpt><trkpt lat="43.0777057" lon="13.3637216"><ele>428.0</ele><time>2026-03-22T09:12:56.314Z</time></trkpt><trkpt lat="43.0775722" lon="13.3637942"><ele>428.0</ele><time>2026-03-22T09:12:57.314Z</time></trkpt><trkpt lat="43.0774439" lon="13.3638665"><ele>428.0</ele><time>2026-03-22T09:12:58.314Z</time></trkpt><trkpt lat="43.0773241" lon="13.3639365"><ele>427.4</ele><time>2026-03-22T09:12:59.313Z</time></trkpt><trkpt lat="43.0772215" lon="13.3639967"><ele>426.79999999999995</ele><time>2026-03-22T09:13:00.313Z</time></trkpt><trkpt lat="43.0771308" lon="13.3640441"><ele>426.2</ele><time>2026-03-22T09:13:01.314Z</time></trkpt><trkpt lat="43.0770419" lon="13.3640695"><ele>425.6</ele><time>2026-03-22T09:13:02.314Z</time></trkpt><trkpt lat="43.0769557" lon="13.3640674"><ele>425.0</ele><time>2026-03-22T09:13:03.314Z</time></trkpt><trkpt lat="43.0768796" lon="13.3640338"><ele>424.99999999999994</ele><time>2026-03-22T09:13:04.314Z</time></trkpt><trkpt lat="43.076826" lon="13.3639821"><ele>425.0</ele><time>2026-03-22T09:13:05.314Z</time></trkpt><trkpt lat="43.0767555" lon="13.3639179"><ele>425.0</ele><time>2026-03-22T09:13:07.314Z</time></trkpt><trkpt lat="43.0767119" lon="13.363988"><ele>425.0</ele><time>2026-03-22T09:13:11.314Z</time></trkpt><trkpt lat="43.0767311" lon="13.3640979"><ele>424.99999999999994</ele><time>2026-03-22T09:13:14.314Z</time></trkpt><trkpt lat="43.0767292" lon="13.3642087"><ele>425.0</ele><time>2026-03-22T09:13:16.314Z</time></trkpt><trkpt lat="43.0766772" lon="13.3642965"><ele>422.66666666666663</ele><time>2026-03-22T09:13:18.314Z</time></trkpt><trkpt lat="43.0765699" lon="13.3643091"><ele>420.3333333333333</ele><time>2026-03-22T09:13:20.314Z</time></trkpt><trkpt lat="43.0765004" lon="13.3643041"><ele>418.0</ele><time>2026-03-22T09:13:21.314Z</time></trkpt><trkpt lat="43.0764287" lon="13.3642985"><ele>415.66666666666663</ele><time>2026-03-22T09:13:22.314Z</time></trkpt><trkpt lat="43.0763558" lon="13.364285"><ele>413.3333333333333</ele><time>2026-03-22T09:13:23.314Z</time></trkpt><trkpt lat="43.0762455" lon="13.3642611"><ele>411.0</ele><time>2026-03-22T09:13:25.314Z</time></trkpt><trkpt lat="43.0761663" lon="13.3642999"><ele>411.0</ele><time>2026-03-22T09:13:27.314Z</time></trkpt><trkpt lat="43.0761638" lon="13.3644271"><ele>411.0</ele><time>2026-03-22T09:13:29.314Z</time></trkpt><trkpt lat="43.0761929" lon="13.3645229"><ele>411.0</ele><time>2026-03-22T09:13:30.314Z</time></trkpt><trkpt lat="43.0762297" lon="13.3646144"><ele>411.0</ele><time>2026-03-22T09:13:31.314Z</time></trkpt><trkpt lat="43.0762585" lon="13.3647154"><ele>411.0</ele><time>2026-03-22T09:13:32.314Z</time></trkpt><trkpt lat="43.0762819" lon="13.3648274"><ele>411.0</ele><time>2026-03-22T09:13:33.314Z</time></trkpt><trkpt lat="43.076297" lon="13.3649416"><ele>409.57142857142856</ele><time>2026-03-22T09:13:34.314Z</time></trkpt><trkpt lat="43.0763107" lon="13.3650478"><ele>408.1428571428571</ele><time>2026-03-22T09:13:35.314Z</time></trkpt><trkpt lat="43.0763366" lon="13.3651381"><ele>406.7142857142857</ele><time>2026-03-22T09:13:36.314Z</time></trkpt><trkpt lat="43.0763744" lon="13.3652141"><ele>405.2857142857143</ele><time>2026-03-22T09:13:37.314Z</time></trkpt><trkpt lat="43.0764188" lon="13.3652811"><ele>403.8571428571429</ele><time>2026-03-22T09:13:38.314Z</time></trkpt><trkpt lat="43.0764729" lon="13.3653493"><ele>402.42857142857144</ele><time>2026-03-22T09:13:39.314Z</time></trkpt><trkpt lat="43.076532" lon="13.3654172"><ele>401.0</ele><time>2026-03-22T09:13:40.314Z</time></trkpt><trkpt lat="43.0765948" lon="13.3654894"><ele>399.66666666666663</ele><time>2026-03-22T09:13:41.314Z</time></trkpt><trkpt lat="43.0766461" lon="13.3655724"><ele>398.3333333333333</ele><time>2026-03-22T09:13:42.314Z</time></trkpt><trkpt lat="43.0766755" lon="13.3656725"><ele>397.0</ele><time>2026-03-22T09:13:43.313Z</time></trkpt><trkpt lat="43.0766907" lon="13.3657862"><ele>395.66666666666663</ele><time>2026-03-22T09:13:44.314Z</time></trkpt><trkpt lat="43.0767012" lon="13.3659062"><ele>394.3333333333333</ele><time>2026-03-22T09:13:45.314Z</time></trkpt><trkpt lat="43.0767074" lon="13.3660129"><ele>393.0</ele><time>2026-03-22T09:13:46.314Z</time></trkpt><trkpt lat="43.076711" lon="13.366126"><ele>393.0</ele><time>2026-03-22T09:13:47.313Z</time></trkpt><trkpt lat="43.076707" lon="13.3662391"><ele>393.0</ele><time>2026-03-22T09:13:48.314Z</time></trkpt><trkpt lat="43.0766976" lon="13.366347"><ele>393.0</ele><time>2026-03-22T09:13:49.314Z</time></trkpt><trkpt lat="43.0766804" lon="13.3664536"><ele>393.0</ele><time>2026-03-22T09:13:50.314Z</time></trkpt><trkpt lat="43.0766571" lon="13.3665593"><ele>393.0</ele><time>2026-03-22T09:13:51.314Z</time></trkpt><trkpt lat="43.0766358" lon="13.3666674"><ele>393.0</ele><time>2026-03-22T09:13:52.314Z</time></trkpt><trkpt lat="43.0766152" lon="13.3667763"><ele>391.0</ele><time>2026-03-22T09:13:53.314Z</time></trkpt><trkpt lat="43.0765994" lon="13.3668896"><ele>389.0</ele><time>2026-03-22T09:13:54.314Z</time></trkpt><trkpt lat="43.0765899" lon="13.3670055"><ele>387.0</ele><time>2026-03-22T09:13:55.314Z</time></trkpt><trkpt lat="43.076589" lon="13.3671193"><ele>385.0</ele><time>2026-03-22T09:13:56.314Z</time></trkpt><trkpt lat="43.076594" lon="13.3672317"><ele>383.0</ele><time>2026-03-22T09:13:57.314Z</time></trkpt><trkpt lat="43.0766079" lon="13.3673364"><ele>381.0</ele><time>2026-03-22T09:13:58.314Z</time></trkpt><trkpt lat="43.0766304" lon="13.3674376"><ele>378.6666666666667</ele><time>2026-03-22T09:13:59.314Z</time></trkpt><trkpt lat="43.0766595" lon="13.3675377"><ele>376.3333333333333</ele><time>2026-03-22T09:14:00.313Z</time></trkpt><trkpt lat="43.076693" lon="13.3676367"><ele>374.0</ele><time>2026-03-22T09:14:01.314Z</time></trkpt><trkpt lat="43.0767267" lon="13.3677256"><ele>371.66666666666663</ele><time>2026-03-22T09:14:02.314Z</time></trkpt><trkpt lat="43.0767778" lon="13.3678566"><ele>369.3333333333333</ele><time>2026-03-22T09:14:04.314Z</time></trkpt><trkpt lat="43.0767991" lon="13.3679581"><ele>367.0</ele><time>2026-03-22T09:14:06.314Z</time></trkpt><trkpt lat="43.0767748" lon="13.3680409"><ele>365.57142857142856</ele><time>2026-03-22T09:14:08.314Z</time></trkpt><trkpt lat="43.0767212" lon="13.3681066"><ele>364.14285714285717</ele><time>2026-03-22T09:14:11.314Z</time></trkpt><trkpt lat="43.0766716" lon="13.3681666"><ele>362.7142857142857</ele><time>2026-03-22T09:14:14.314Z</time></trkpt><trkpt lat="43.076617" lon="13.3682129"><ele>361.2857142857143</ele><time>2026-03-22T09:14:18.314Z</time></trkpt><trkpt lat="43.0765612" lon="13.3682584"><ele>359.8571428571429</ele><time>2026-03-22T09:14:22.314Z</time></trkpt><trkpt lat="43.0764982" lon="13.3682907"><ele>358.42857142857144</ele><time>2026-03-22T09:14:26.313Z</time></trkpt><trkpt lat="43.0764364" lon="13.368316"><ele>357.0</ele><time>2026-03-22T09:14:30.314Z</time></trkpt><trkpt lat="43.0763628" lon="13.3683371"><ele>356.20000000000005</ele><time>2026-03-22T09:14:35.314Z</time></trkpt><trkpt lat="43.0762858" lon="13.3683456"><ele>355.4</ele><time>2026-03-22T09:14:40.314Z</time></trkpt><trkpt lat="43.0762169" lon="13.36835"><ele>354.6</ele><time>2026-03-22T09:14:44.314Z</time></trkpt><trkpt lat="43.0761084" lon="13.3683705"><ele>353.79999999999995</ele><time>2026-03-22T09:14:48.314Z</time></trkpt><trkpt lat="43.0760453" lon="13.3684052"><ele>353.0</ele><time>2026-03-22T09:14:49.313Z</time></trkpt><trkpt lat="43.0759363" lon="13.3684965"><ele>353.0</ele><time>2026-03-22T09:14:51.314Z</time></trkpt><trkpt lat="43.0758797" lon="13.3685474"><ele>353.0</ele><time>2026-03-22T09:14:52.314Z</time></trkpt><trkpt lat="43.0758196" lon="13.3685972"><ele>353.0</ele><time>2026-03-22T09:14:53.314Z</time></trkpt><trkpt lat="43.075759" lon="13.3686442"><ele>353.0</ele><time>2026-03-22T09:14:54.314Z</time></trkpt><trkpt lat="43.075699" lon="13.3686902"><ele>353.0</ele><time>2026-03-22T09:14:55.314Z</time></trkpt><trkpt lat="43.0756365" lon="13.3687319"><ele>353.0</ele><time>2026-03-22T09:14:56.314Z</time></trkpt><trkpt lat="43.0755227" lon="13.3687679"><ele>352.33333333333337</ele><time>2026-03-22T09:14:58.314Z</time></trkpt><trkpt lat="43.0754029" lon="13.3687193"><ele>351.6666666666667</ele><time>2026-03-22T09:15:00.314Z</time></trkpt><trkpt lat="43.0753344" lon="13.3686839"><ele>351.0</ele><time>2026-03-22T09:15:01.314Z</time></trkpt><trkpt lat="43.075262" lon="13.3686461"><ele>350.3333333333333</ele><time>2026-03-22T09:15:02.314Z</time></trkpt><trkpt lat="43.07519" lon="13.3686134"><ele>349.66666666666663</ele><time>2026-03-22T09:15:03.314Z</time></trkpt><trkpt lat="43.075115" lon="13.3686073"><ele>349.0</ele><time>2026-03-22T09:15:04.314Z</time></trkpt><trkpt lat="43.0750484" lon="13.3686127"><ele>349.0</ele><time>2026-03-22T09:15:05.314Z</time></trkpt><trkpt lat="43.0749794" lon="13.36863"><ele>349.0</ele><time>2026-03-22T09:15:06.314Z</time></trkpt><trkpt lat="43.0749168" lon="13.3686707"><ele>349.0</ele><time>2026-03-22T09:15:07.314Z</time></trkpt><trkpt lat="43.0748486" lon="13.3688144"><ele>349.0</ele><time>2026-03-22T09:15:09.314Z</time></trkpt><trkpt lat="43.0748096" lon="13.3689043"><ele>349.0</ele><time>2026-03-22T09:15:10.314Z</time></trkpt><trkpt lat="43.0747452" lon="13.3689841"><ele>349.0</ele><time>2026-03-22T09:15:11.314Z</time></trkpt><trkpt lat="43.0746764" lon="13.3690777"><ele>349.5</ele><time>2026-03-22T09:15:12.314Z</time></trkpt><trkpt lat="43.0746129" lon="13.3691652"><ele>350.0</ele><time>2026-03-22T09:15:13.314Z</time></trkpt><trkpt lat="43.0745582" lon="13.3692423"><ele>350.5</ele><time>2026-03-22T09:15:14.314Z</time></trkpt><trkpt lat="43.074508" lon="13.3693148"><ele>351.0</ele><time>2026-03-22T09:15:15.314Z</time></trkpt><trkpt lat="43.0744598" lon="13.369389"><ele>351.5</ele><time>2026-03-22T09:15:16.314Z</time></trkpt><trkpt lat="43.0744074" lon="13.3694483"><ele>352.0</ele><time>2026-03-22T09:15:17.314Z</time></trkpt><trkpt lat="43.0743127" lon="13.3694473"><ele>352.0</ele><time>2026-03-22T09:15:19.314Z</time></trkpt><trkpt lat="43.0742873" lon="13.3693543"><ele>352.0</ele><time>2026-03-22T09:15:21.314Z</time></trkpt><trkpt lat="43.0743113" lon="13.3691881"><ele>352.0</ele><time>2026-03-22T09:15:23.314Z</time></trkpt><trkpt lat="43.0743207" lon="13.3690801"><ele>352.0</ele><time>2026-03-22T09:15:24.314Z</time></trkpt><trkpt lat="43.0743153" lon="13.3689616"><ele>352.0</ele><time>2026-03-22T09:15:25.314Z</time></trkpt><trkpt lat="43.0742977" lon="13.3688544"><ele>352.0</ele><time>2026-03-22T09:15:26.314Z</time></trkpt><trkpt lat="43.0742729" lon="13.3687582"><ele>352.3333333333333</ele><time>2026-03-22T09:15:27.314Z</time></trkpt><trkpt lat="43.0742347" lon="13.368671"><ele>352.66666666666663</ele><time>2026-03-22T09:15:28.314Z</time></trkpt><trkpt lat="43.0741831" lon="13.3685892"><ele>353.0</ele><time>2026-03-22T09:15:29.314Z</time></trkpt><trkpt lat="43.074119" lon="13.3685183"><ele>353.3333333333333</ele><time>2026-03-22T09:15:30.314Z</time></trkpt><trkpt lat="43.0740369" lon="13.3684516"><ele>353.6666666666667</ele><time>2026-03-22T09:15:31.314Z</time></trkpt><trkpt lat="43.0739616" lon="13.3683825"><ele>354.0</ele><time>2026-03-22T09:15:32.313Z</time></trkpt><trkpt lat="43.0738953" lon="13.3683246"><ele>357.5</ele><time>2026-03-22T09:15:33.314Z</time></trkpt><trkpt lat="43.0738238" lon="13.3682814"><ele>361.0</ele><time>2026-03-22T09:15:34.314Z</time></trkpt><trkpt lat="43.0737452" lon="13.3682537"><ele>364.5</ele><time>2026-03-22T09:15:35.314Z</time></trkpt><trkpt lat="43.0736612" lon="13.3682318"><ele>368.0</ele><time>2026-03-22T09:15:36.314Z</time></trkpt><trkpt lat="43.0735789" lon="13.3682286"><ele>371.5</ele><time>2026-03-22T09:15:37.314Z</time></trkpt><trkpt lat="43.0734985" lon="13.3682396"><ele>375.0</ele><time>2026-03-22T09:15:38.314Z</time></trkpt><trkpt lat="43.0734117" lon="13.368264"><ele>375.0</ele><time>2026-03-22T09:15:39.314Z</time></trkpt><trkpt lat="43.0733251" lon="13.3682983"><ele>375.0</ele><time>2026-03-22T09:15:40.314Z</time></trkpt><trkpt lat="43.0732248" lon="13.3683472"><ele>375.0</ele><time>2026-03-22T09:15:41.314Z</time></trkpt><trkpt lat="43.0731346" lon="13.368391"><ele>375.0</ele><time>2026-03-22T09:15:42.314Z</time></trkpt><trkpt lat="43.0730544" lon="13.368429"><ele>375.0</ele><time>2026-03-22T09:15:43.314Z</time></trkpt><trkpt lat="43.0729723" lon="13.3684703"><ele>377.0</ele><time>2026-03-22T09:15:44.314Z</time></trkpt><trkpt lat="43.0728927" lon="13.368515"><ele>379.0</ele><time>2026-03-22T09:15:45.314Z</time></trkpt><trkpt lat="43.0728152" lon="13.3685679"><ele>381.0</ele><time>2026-03-22T09:15:46.314Z</time></trkpt><trkpt lat="43.0727417" lon="13.3686267"><ele>383.0</ele><time>2026-03-22T09:15:47.314Z</time></trkpt><trkpt lat="43.0726773" lon="13.3686837"><ele>385.0</ele><time>2026-03-22T09:15:48.314Z</time></trkpt><trkpt lat="43.0726178" lon="13.3687432"><ele>387.0</ele><time>2026-03-22T09:15:49.314Z</time></trkpt><trkpt lat="43.072535" lon="13.3688124"><ele>388.0</ele><time>2026-03-22T09:15:50.314Z</time></trkpt><trkpt lat="43.0724697" lon="13.3688923"><ele>389.0</ele><time>2026-03-22T09:15:51.314Z</time></trkpt><trkpt lat="43.0724209" lon="13.3689648"><ele>390.0</ele><time>2026-03-22T09:15:52.314Z</time></trkpt><trkpt lat="43.0723651" lon="13.3690398"><ele>391.0</ele><time>2026-03-22T09:15:53.314Z</time></trkpt><trkpt lat="43.0723015" lon="13.3691084"><ele>392.0</ele><time>2026-03-22T09:15:54.314Z</time></trkpt><trkpt lat="43.0722343" lon="13.3691781"><ele>393.0</ele><time>2026-03-22T09:15:55.314Z</time></trkpt><trkpt lat="43.0721626" lon="13.3692413"><ele>394.8333333333333</ele><time>2026-03-22T09:15:56.314Z</time></trkpt><trkpt lat="43.0720855" lon="13.3692999"><ele>396.66666666666663</ele><time>2026-03-22T09:15:57.314Z</time></trkpt><trkpt lat="43.0720077" lon="13.3693531"><ele>398.5</ele><time>2026-03-22T09:15:58.314Z</time></trkpt><trkpt lat="43.0719306" lon="13.3693951"><ele>400.3333333333333</ele><time>2026-03-22T09:15:59.314Z</time></trkpt><trkpt lat="43.0718569" lon="13.3694095"><ele>402.16666666666663</ele><time>2026-03-22T09:16:00.314Z</time></trkpt><trkpt lat="43.0717803" lon="13.369422"><ele>404.0</ele><time>2026-03-22T09:16:01.314Z</time></trkpt><trkpt lat="43.0717045" lon="13.3694419"><ele>404.0</ele><time>2026-03-22T09:16:02.314Z</time></trkpt><trkpt lat="43.0716396" lon="13.3694628"><ele>404.0</ele><time>2026-03-22T09:16:03.314Z</time></trkpt><trkpt lat="43.0715305" lon="13.3695162"><ele>404.0</ele><time>2026-03-22T09:16:05.314Z</time></trkpt><trkpt lat="43.0714599" lon="13.3696132"><ele>404.0</ele><time>2026-03-22T09:16:07.314Z</time></trkpt><trkpt lat="43.0714685" lon="13.3697298"><ele>404.0</ele><time>2026-03-22T09:16:09.314Z</time></trkpt><trkpt lat="43.0714885" lon="13.3698477"><ele>407.79999999999995</ele><time>2026-03-22T09:16:11.314Z</time></trkpt><trkpt lat="43.0714376" lon="13.3699715"><ele>411.59999999999997</ele><time>2026-03-22T09:16:13.314Z</time></trkpt><trkpt lat="43.0713282" lon="13.370018"><ele>415.4</ele><time>2026-03-22T09:16:15.314Z</time></trkpt><trkpt lat="43.0712469" lon="13.3700383"><ele>419.2</ele><time>2026-03-22T09:16:16.314Z</time></trkpt><trkpt lat="43.071142" lon="13.3700696"><ele>423.0</ele><time>2026-03-22T09:16:17.314Z</time></trkpt><trkpt lat="43.0710579" lon="13.3700912"><ele>423.0</ele><time>2026-03-22T09:16:18.314Z</time></trkpt><trkpt lat="43.0709753" lon="13.370112"><ele>423.0</ele><time>2026-03-22T09:16:19.314Z</time></trkpt><trkpt lat="43.0708919" lon="13.3701335"><ele>423.0</ele><time>2026-03-22T09:16:20.314Z</time></trkpt><trkpt lat="43.0707981" lon="13.3701654"><ele>423.0</ele><time>2026-03-22T09:16:21.314Z</time></trkpt><trkpt lat="43.0706889" lon="13.3702024"><ele>423.0</ele><time>2026-03-22T09:16:22.314Z</time></trkpt><trkpt lat="43.0705863" lon="13.3702349"><ele>426.2</ele><time>2026-03-22T09:16:23.314Z</time></trkpt><trkpt lat="43.0704847" lon="13.3702673"><ele>429.4</ele><time>2026-03-22T09:16:24.314Z</time></trkpt><trkpt lat="43.0703766" lon="13.370311"><ele>432.59999999999997</ele><time>2026-03-22T09:16:25.314Z</time></trkpt><trkpt lat="43.0702676" lon="13.3703722"><ele>435.79999999999995</ele><time>2026-03-22T09:16:26.314Z</time></trkpt><trkpt lat="43.0701666" lon="13.3704287"><ele>439.0</ele><time>2026-03-22T09:16:27.314Z</time></trkpt><trkpt lat="43.0700706" lon="13.3704652"><ele>439.0</ele><time>2026-03-22T09:16:28.314Z</time></trkpt><trkpt lat="43.0699673" lon="13.3704864"><ele>439.0</ele><time>2026-03-22T09:16:29.314Z</time></trkpt><trkpt lat="43.0698613" lon="13.3704966"><ele>439.0</ele><time>2026-03-22T09:16:30.314Z</time></trkpt><trkpt lat="43.0697596" lon="13.3704988"><ele>439.0</ele><time>2026-03-22T09:16:31.314Z</time></trkpt><trkpt lat="43.0696647" lon="13.3705033"><ele>439.0</ele><time>2026-03-22T09:16:32.314Z</time></trkpt><trkpt lat="43.0695657" lon="13.3705142"><ele>440.5</ele><time>2026-03-22T09:16:33.314Z</time></trkpt><trkpt lat="43.0694572" lon="13.3705283"><ele>442.0</ele><time>2026-03-22T09:16:34.314Z</time></trkpt><trkpt lat="43.0693343" lon="13.370543"><ele>443.5</ele><time>2026-03-22T09:16:35.314Z</time></trkpt><trkpt lat="43.0692173" lon="13.3705553"><ele>445.0</ele><time>2026-03-22T09:16:36.314Z</time></trkpt><trkpt lat="43.069103" lon="13.3705673"><ele>448.50000000000006</ele><time>2026-03-22T09:16:37.314Z</time></trkpt><trkpt lat="43.069002" lon="13.3705828"><ele>452.0</ele><time>2026-03-22T09:16:38.314Z</time></trkpt><trkpt lat="43.0689094" lon="13.370598"><ele>455.5</ele><time>2026-03-22T09:16:39.314Z</time></trkpt><trkpt lat="43.0688277" lon="13.3706089"><ele>459.0</ele><time>2026-03-22T09:16:40.313Z</time></trkpt><trkpt lat="43.0687372" lon="13.3706146"><ele>462.50000000000006</ele><time>2026-03-22T09:16:41.313Z</time></trkpt><trkpt lat="43.0686721" lon="13.3705952"><ele>466.0</ele><time>2026-03-22T09:16:42.314Z</time></trkpt><trkpt lat="43.0685917" lon="13.3704802"><ele>466.6</ele><time>2026-03-22T09:16:44.314Z</time></trkpt><trkpt lat="43.0684932" lon="13.3703777"><ele>467.20000000000005</ele><time>2026-03-22T09:16:46.314Z</time></trkpt><trkpt lat="43.0684259" lon="13.3703438"><ele>467.79999999999995</ele><time>2026-03-22T09:16:47.314Z</time></trkpt><trkpt lat="43.0683386" lon="13.3703049"><ele>468.4</ele><time>2026-03-22T09:16:48.314Z</time></trkpt><trkpt lat="43.0682296" lon="13.3702635"><ele>469.0</ele><time>2026-03-22T09:16:49.314Z</time></trkpt><trkpt lat="43.0681221" lon="13.3702248"><ele>472.79999999999995</ele><time>2026-03-22T09:16:50.314Z</time></trkpt><trkpt lat="43.0680281" lon="13.3702061"><ele>476.59999999999997</ele><time>2026-03-22T09:16:51.314Z</time></trkpt><trkpt lat="43.0679341" lon="13.3702066"><ele>480.4</ele><time>2026-03-22T09:16:52.314Z</time></trkpt><trkpt lat="43.0678358" lon="13.3702179"><ele>484.2</ele><time>2026-03-22T09:16:53.314Z</time></trkpt><trkpt lat="43.0677473" lon="13.370228"><ele>488.0</ele><time>2026-03-22T09:16:54.314Z</time></trkpt><trkpt lat="43.067662" lon="13.3702376"><ele>488.0</ele><time>2026-03-22T09:16:55.314Z</time></trkpt><trkpt lat="43.0675724" lon="13.3702416"><ele>487.99999999999994</ele><time>2026-03-22T09:16:56.314Z</time></trkpt><trkpt lat="43.0674846" lon="13.3702302"><ele>487.99999999999994</ele><time>2026-03-22T09:16:57.314Z</time></trkpt><trkpt lat="43.0673974" lon="13.3701916"><ele>488.0</ele><time>2026-03-22T09:16:58.314Z</time></trkpt><trkpt lat="43.0673135" lon="13.3701247"><ele>488.0</ele><time>2026-03-22T09:16:59.314Z</time></trkpt><trkpt lat="43.0672529" lon="13.3700322"><ele>492.4</ele><time>2026-03-22T09:17:00.314Z</time></trkpt><trkpt lat="43.0671977" lon="13.3699145"><ele>496.79999999999995</ele><time>2026-03-22T09:17:01.314Z</time></trkpt><trkpt lat="43.0671489" lon="13.3697841"><ele>501.2</ele><time>2026-03-22T09:17:02.314Z</time></trkpt><trkpt lat="43.0670995" lon="13.3696552"><ele>505.6</ele><time>2026-03-22T09:17:03.314Z</time></trkpt><trkpt lat="43.067058" lon="13.369517"><ele>510.0</ele><time>2026-03-22T09:17:04.314Z</time></trkpt><trkpt lat="43.0670317" lon="13.3693747"><ele>510.0</ele><time>2026-03-22T09:17:05.314Z</time></trkpt><trkpt lat="43.0670093" lon="13.3692462"><ele>510.0</ele><time>2026-03-22T09:17:06.314Z</time></trkpt><trkpt lat="43.0670268" lon="13.3691289"><ele>510.0</ele><time>2026-03-22T09:17:07.314Z</time></trkpt><trkpt lat="43.0670563" lon="13.3690361"><ele>510.0</ele><time>2026-03-22T09:17:08.314Z</time></trkpt><trkpt lat="43.0670733" lon="13.3689424"><ele>510.0</ele><time>2026-03-22T09:17:09.314Z</time></trkpt><trkpt lat="43.0670534" lon="13.3688062"><ele>510.0</ele><time>2026-03-22T09:17:11.313Z</time></trkpt><trkpt lat="43.0669822" lon="13.3687689"><ele>510.0</ele><time>2026-03-22T09:17:13.314Z</time></trkpt><trkpt lat="43.0669033" lon="13.368833"><ele>510.0</ele><time>2026-03-22T09:17:15.314Z</time></trkpt><trkpt lat="43.0668449" lon="13.3689077"><ele>510.0</ele><time>2026-03-22T09:17:16.314Z</time></trkpt><trkpt lat="43.0667887" lon="13.3689741"><ele>510.0</ele><time>2026-03-22T09:17:17.314Z</time></trkpt><trkpt lat="43.0667288" lon="13.3690592"><ele>510.0</ele><time>2026-03-22T09:17:18.314Z</time></trkpt><trkpt lat="43.0666658" lon="13.3691421"><ele>510.0</ele><time>2026-03-22T09:17:19.314Z</time></trkpt><trkpt lat="43.0666063" lon="13.3691993"><ele>511.6666666666667</ele><time>2026-03-22T09:17:20.314Z</time></trkpt><trkpt lat="43.0665319" lon="13.3692448"><ele>513.3333333333334</ele><time>2026-03-22T09:17:21.314Z</time></trkpt><trkpt lat="43.0664534" lon="13.3692789"><ele>515.0</ele><time>2026-03-22T09:17:22.314Z</time></trkpt><trkpt lat="43.0663718" lon="13.3693121"><ele>516.6666666666667</ele><time>2026-03-22T09:17:23.314Z</time></trkpt><trkpt lat="43.0662868" lon="13.3693452"><ele>518.3333333333334</ele><time>2026-03-22T09:17:24.314Z</time></trkpt><trkpt lat="43.066205" lon="13.3693749"><ele>520.0</ele><time>2026-03-22T09:17:25.314Z</time></trkpt><trkpt lat="43.0661186" lon="13.3693929"><ele>520.0</ele><time>2026-03-22T09:17:26.313Z</time></trkpt><trkpt lat="43.0660176" lon="13.369412"><ele>520.0</ele><time>2026-03-22T09:17:27.314Z</time></trkpt><trkpt lat="43.0659123" lon="13.3694317"><ele>520.0</ele><time>2026-03-22T09:17:28.314Z</time></trkpt><trkpt lat="43.065807" lon="13.3694492"><ele>520.0</ele><time>2026-03-22T09:17:29.314Z</time></trkpt><trkpt lat="43.0657029" lon="13.3694633"><ele>520.0</ele><time>2026-03-22T09:17:30.314Z</time></trkpt><trkpt lat="43.0656054" lon="13.3694764"><ele>521.2</ele><time>2026-03-22T09:17:31.313Z</time></trkpt><trkpt lat="43.0655148" lon="13.3694888"><ele>522.4</ele><time>2026-03-22T09:17:32.314Z</time></trkpt><trkpt lat="43.0654263" lon="13.3695109"><ele>523.6</ele><time>2026-03-22T09:17:33.314Z</time></trkpt><trkpt lat="43.0653349" lon="13.3695434"><ele>524.8</ele><time>2026-03-22T09:17:34.313Z</time></trkpt><trkpt lat="43.06524" lon="13.3695857"><ele>526.0</ele><time>2026-03-22T09:17:35.314Z</time></trkpt><trkpt lat="43.0651353" lon="13.3696333"><ele>526.0</ele><time>2026-03-22T09:17:36.314Z</time></trkpt><trkpt lat="43.0650321" lon="13.3696825"><ele>526.0</ele><time>2026-03-22T09:17:37.314Z</time></trkpt><trkpt lat="43.0649312" lon="13.3697387"><ele>526.0</ele><time>2026-03-22T09:17:38.314Z</time></trkpt><trkpt lat="43.0648294" lon="13.3697944"><ele>526.0</ele><time>2026-03-22T09:17:39.313Z</time></trkpt><trkpt lat="43.0647298" lon="13.3698471"><ele>526.0</ele><time>2026-03-22T09:17:40.314Z</time></trkpt><trkpt lat="43.064633" lon="13.369895"><ele>531.8</ele><time>2026-03-22T09:17:41.314Z</time></trkpt><trkpt lat="43.0645389" lon="13.3699413"><ele>537.6</ele><time>2026-03-22T09:17:42.314Z</time></trkpt><trkpt lat="43.0644438" lon="13.3699958"><ele>543.4</ele><time>2026-03-22T09:17:43.314Z</time></trkpt><trkpt lat="43.0643511" lon="13.3700655"><ele>549.2</ele><time>2026-03-22T09:17:44.314Z</time></trkpt><trkpt lat="43.0642653" lon="13.3701534"><ele>555.0</ele><time>2026-03-22T09:17:45.314Z</time></trkpt><trkpt lat="43.064183" lon="13.3702594"><ele>559.0</ele><time>2026-03-22T09:17:46.313Z</time></trkpt><trkpt lat="43.0640886" lon="13.3703768"><ele>563.0</ele><time>2026-03-22T09:17:47.314Z</time></trkpt><trkpt lat="43.0639979" lon="13.3704799"><ele>567.0</ele><time>2026-03-22T09:17:48.314Z</time></trkpt><trkpt lat="43.0639024" lon="13.3705844"><ele>571.0</ele><time>2026-03-22T09:17:49.314Z</time></trkpt><trkpt lat="43.0638049" lon="13.3706923"><ele>572.2</ele><time>2026-03-22T09:17:50.314Z</time></trkpt><trkpt lat="43.0637193" lon="13.3707919"><ele>573.4000000000001</ele><time>2026-03-22T09:17:51.314Z</time></trkpt><trkpt lat="43.0636463" lon="13.3708811"><ele>574.6</ele><time>2026-03-22T09:17:52.314Z</time></trkpt><trkpt lat="43.0635805" lon="13.3709651"><ele>575.8000000000001</ele><time>2026-03-22T09:17:53.314Z</time></trkpt><trkpt lat="43.06352" lon="13.3710428"><ele>577.0</ele><time>2026-03-22T09:17:54.314Z</time></trkpt><trkpt lat="43.0634558" lon="13.3711236"><ele>577.0</ele><time>2026-03-22T09:17:55.313Z</time></trkpt><trkpt lat="43.0633835" lon="13.3711999"><ele>577.0</ele><time>2026-03-22T09:17:56.314Z</time></trkpt><trkpt lat="43.0633015" lon="13.371257"><ele>577.0</ele><time>2026-03-22T09:17:57.314Z</time></trkpt><trkpt lat="43.0632074" lon="13.3712898"><ele>577.0</ele><time>2026-03-22T09:17:58.314Z</time></trkpt><trkpt lat="43.0631109" lon="13.3713009"><ele>577.0</ele><time>2026-03-22T09:17:59.313Z</time></trkpt><trkpt lat="43.0630186" lon="13.3713044"><ele>578.6666666666667</ele><time>2026-03-22T09:18:00.314Z</time></trkpt><trkpt lat="43.0629302" lon="13.3713008"><ele>580.3333333333334</ele><time>2026-03-22T09:18:01.314Z</time></trkpt><trkpt lat="43.0628435" lon="13.3713011"><ele>582.0</ele><time>2026-03-22T09:18:02.314Z</time></trkpt><trkpt lat="43.0627578" lon="13.3713055"><ele>583.6666666666666</ele><time>2026-03-22T09:18:03.314Z</time></trkpt><trkpt lat="43.0626742" lon="13.3713124"><ele>585.3333333333333</ele><time>2026-03-22T09:18:04.314Z</time></trkpt><trkpt lat="43.0625912" lon="13.3713196"><ele>587.0</ele><time>2026-03-22T09:18:05.314Z</time></trkpt><trkpt lat="43.0625096" lon="13.3713246"><ele>589.8000000000001</ele><time>2026-03-22T09:18:06.314Z</time></trkpt><trkpt lat="43.0624265" lon="13.3713309"><ele>592.6</ele><time>2026-03-22T09:18:07.314Z</time></trkpt><trkpt lat="43.062335" lon="13.371342"><ele>595.4000000000001</ele><time>2026-03-22T09:18:08.314Z</time></trkpt><trkpt lat="43.06224" lon="13.3713546"><ele>598.2</ele><time>2026-03-22T09:18:09.314Z</time></trkpt><trkpt lat="43.062149" lon="13.371367"><ele>601.0</ele><time>2026-03-22T09:18:10.314Z</time></trkpt><trkpt lat="43.0620597" lon="13.3713839"><ele>601.2</ele><time>2026-03-22T09:18:11.314Z</time></trkpt><trkpt lat="43.0619682" lon="13.3714022"><ele>601.4000000000001</ele><time>2026-03-22T09:18:12.314Z</time></trkpt><trkpt lat="43.0618695" lon="13.3714164"><ele>601.6</ele><time>2026-03-22T09:18:13.314Z</time></trkpt><trkpt lat="43.0617667" lon="13.3714403"><ele>601.8000000000001</ele><time>2026-03-22T09:18:14.314Z</time></trkpt><trkpt lat="43.061665" lon="13.3714737"><ele>602.0</ele><time>2026-03-22T09:18:15.314Z</time></trkpt><trkpt lat="43.0615633" lon="13.3715056"><ele>605.0</ele><time>2026-03-22T09:18:16.314Z</time></trkpt><trkpt lat="43.0614603" lon="13.3715388"><ele>608.0</ele><time>2026-03-22T09:18:17.314Z</time></trkpt><trkpt lat="43.0613565" lon="13.371575"><ele>611.0</ele><time>2026-03-22T09:18:18.314Z</time></trkpt><trkpt lat="43.0612545" lon="13.3716108"><ele>614.0</ele><time>2026-03-22T09:18:19.313Z</time></trkpt><trkpt lat="43.0611542" lon="13.3716457"><ele>617.0</ele><time>2026-03-22T09:18:20.314Z</time></trkpt><trkpt lat="43.061057" lon="13.3716807"><ele>617.0</ele><time>2026-03-22T09:18:21.314Z</time></trkpt><trkpt lat="43.0609633" lon="13.371714"><ele>617.0</ele><time>2026-03-22T09:18:22.314Z</time></trkpt><trkpt lat="43.0608783" lon="13.371736"><ele>617.0</ele><time>2026-03-22T09:18:23.314Z</time></trkpt><trkpt lat="43.0608112" lon="13.3717495"><ele>617.0</ele><time>2026-03-22T09:18:24.313Z</time></trkpt><trkpt lat="43.0607341" lon="13.3717628"><ele>617.0</ele><time>2026-03-22T09:18:26.314Z</time></trkpt><trkpt lat="43.0606548" lon="13.3718072"><ele>617.0</ele><time>2026-03-22T09:18:29.314Z</time></trkpt><trkpt lat="43.0605992" lon="13.3719662"><ele>618.6666666666666</ele><time>2026-03-22T09:18:31.314Z</time></trkpt><trkpt lat="43.0605677" lon="13.3720756"><ele>620.3333333333333</ele><time>2026-03-22T09:18:33.314Z</time></trkpt><trkpt lat="43.0605334" lon="13.372189"><ele>622.0</ele><time>2026-03-22T09:18:35.314Z</time></trkpt><trkpt lat="43.0605058" lon="13.3723043"><ele>623.6666666666666</ele><time>2026-03-22T09:18:37.314Z</time></trkpt><trkpt lat="43.0604832" lon="13.3723953"><ele>625.3333333333334</ele><time>2026-03-22T09:18:39.314Z</time></trkpt><trkpt lat="43.060462" lon="13.372487"><ele>627.0</ele><time>2026-03-22T09:19:15.314Z</time></trkpt><trkpt lat="43.0604378" lon="13.372626"><ele>627.0</ele><time>2026-03-22T09:19:17.314Z</time></trkpt><trkpt lat="43.060403" lon="13.3727961"><ele>627.0</ele><time>2026-03-22T09:19:19.314Z</time></trkpt><trkpt lat="43.0603793" lon="13.3728869"><ele>627.0</ele><time>2026-03-22T09:19:20.314Z</time></trkpt><trkpt lat="43.0603541" lon="13.3729782"><ele>627.0</ele><time>2026-03-22T09:19:21.314Z</time></trkpt><trkpt lat="43.0603239" lon="13.3730675"><ele>627.0</ele><time>2026-03-22T09:19:22.314Z</time></trkpt><trkpt lat="43.0602861" lon="13.3731661"><ele>627.0</ele><time>2026-03-22T09:19:23.314Z</time></trkpt><trkpt lat="43.0602338" lon="13.3732672"><ele>627.75</ele><time>2026-03-22T09:19:24.313Z</time></trkpt><trkpt lat="43.0601681" lon="13.373378"><ele>628.5</ele><time>2026-03-22T09:19:25.314Z</time></trkpt><trkpt lat="43.0600941" lon="13.3734932"><ele>629.25</ele><time>2026-03-22T09:19:26.314Z</time></trkpt><trkpt lat="43.0600124" lon="13.3736136"><ele>630.0</ele><time>2026-03-22T09:19:27.313Z</time></trkpt><trkpt lat="43.0599277" lon="13.3737408"><ele>626.5</ele><time>2026-03-22T09:19:28.314Z</time></trkpt><trkpt lat="43.0598416" lon="13.3738829"><ele>623.0</ele><time>2026-03-22T09:19:29.307Z</time></trkpt><trkpt lat="43.0597508" lon="13.3740256"><ele>619.5</ele><time>2026-03-22T09:19:30.294Z</time></trkpt><trkpt lat="43.0596552" lon="13.3741686"><ele>616.0</ele><time>2026-03-22T09:19:31.295Z</time></trkpt><trkpt lat="43.0595598" lon="13.3743136"><ele>616.0</ele><time>2026-03-22T09:19:32.294Z</time></trkpt><trkpt lat="43.0594629" lon="13.3744553"><ele>616.0</ele><time>2026-03-22T09:19:33.296Z</time></trkpt><trkpt lat="43.0593657" lon="13.3745909"><ele>616.0</ele><time>2026-03-22T09:19:34.296Z</time></trkpt><trkpt lat="43.0592669" lon="13.3747209"><ele>616.0</ele><time>2026-03-22T09:19:35.296Z</time></trkpt><trkpt lat="43.0591713" lon="13.3748494"><ele>617.25</ele><time>2026-03-22T09:19:36.296Z</time></trkpt><trkpt lat="43.0590862" lon="13.3749871"><ele>618.5</ele><time>2026-03-22T09:19:37.296Z</time></trkpt><trkpt lat="43.0590162" lon="13.3751347"><ele>619.75</ele><time>2026-03-22T09:19:38.296Z</time></trkpt><trkpt lat="43.0589552" lon="13.3752884"><ele>621.0</ele><time>2026-03-22T09:19:39.296Z</time></trkpt><trkpt lat="43.0588963" lon="13.3754501"><ele>618.25</ele><time>2026-03-22T09:19:40.296Z</time></trkpt><trkpt lat="43.0588431" lon="13.3756189"><ele>615.5</ele><time>2026-03-22T09:19:41.296Z</time></trkpt><trkpt lat="43.0587963" lon="13.3757959"><ele>612.75</ele><time>2026-03-22T09:19:42.296Z</time></trkpt><trkpt lat="43.0587586" lon="13.3759796"><ele>610.0</ele><time>2026-03-22T09:19:43.296Z</time></trkpt><trkpt lat="43.0587289" lon="13.3761697"><ele>607.75</ele><time>2026-03-22T09:19:44.296Z</time></trkpt><trkpt lat="43.0587119" lon="13.3763636"><ele>605.5</ele><time>2026-03-22T09:19:45.296Z</time></trkpt><trkpt lat="43.0587096" lon="13.376558"><ele>603.25</ele><time>2026-03-22T09:19:46.295Z</time></trkpt><trkpt lat="43.0587174" lon="13.3767499"><ele>601.0</ele><time>2026-03-22T09:19:47.296Z</time></trkpt><trkpt lat="43.0587343" lon="13.3769398"><ele>601.0</ele><time>2026-03-22T09:19:48.296Z</time></trkpt><trkpt lat="43.0587604" lon="13.3771338"><ele>601.0</ele><time>2026-03-22T09:19:49.295Z</time></trkpt><trkpt lat="43.0587931" lon="13.3773256"><ele>601.0</ele><time>2026-03-22T09:19:50.296Z</time></trkpt><trkpt lat="43.0588283" lon="13.3775179"><ele>601.0</ele><time>2026-03-22T09:19:51.296Z</time></trkpt><trkpt lat="43.0588637" lon="13.3777103"><ele>599.5</ele><time>2026-03-22T09:19:52.296Z</time></trkpt><trkpt lat="43.0589002" lon="13.3779045"><ele>598.0</ele><time>2026-03-22T09:19:53.296Z</time></trkpt><trkpt lat="43.0589382" lon="13.3780987"><ele>596.5</ele><time>2026-03-22T09:19:54.296Z</time></trkpt><trkpt lat="43.0589761" lon="13.378294"><ele>595.0</ele><time>2026-03-22T09:19:55.296Z</time></trkpt><trkpt lat="43.0590127" lon="13.3784874"><ele>594.0</ele><time>2026-03-22T09:19:56.296Z</time></trkpt><trkpt lat="43.05905" lon="13.3786795"><ele>593.0</ele><time>2026-03-22T09:19:57.296Z</time></trkpt><trkpt lat="43.0590877" lon="13.3788691"><ele>592.0</ele><time>2026-03-22T09:19:58.296Z</time></trkpt><trkpt lat="43.0591257" lon="13.3790577"><ele>591.0</ele><time>2026-03-22T09:19:59.296Z</time></trkpt><trkpt lat="43.0591626" lon="13.3792483"><ele>587.25</ele><time>2026-03-22T09:20:00.295Z</time></trkpt><trkpt lat="43.0591974" lon="13.379443"><ele>583.5</ele><time>2026-03-22T09:20:01.296Z</time></trkpt><trkpt lat="43.0592286" lon="13.3796357"><ele>579.75</ele><time>2026-03-22T09:20:02.296Z</time></trkpt><trkpt lat="43.0592507" lon="13.3798296"><ele>576.0</ele><time>2026-03-22T09:20:03.296Z</time></trkpt><trkpt lat="43.0592544" lon="13.3800304"><ele>575.25</ele><time>2026-03-22T09:20:04.296Z</time></trkpt><trkpt lat="43.0592315" lon="13.3802326"><ele>574.5</ele><time>2026-03-22T09:20:05.296Z</time></trkpt><trkpt lat="43.0591838" lon="13.380424"><ele>573.75</ele><time>2026-03-22T09:20:06.296Z</time></trkpt><trkpt lat="43.059118" lon="13.3806073"><ele>573.0</ele><time>2026-03-22T09:20:07.296Z</time></trkpt><trkpt lat="43.0590413" lon="13.3807865"><ele>575.3333333333334</ele><time>2026-03-22T09:20:08.296Z</time></trkpt><trkpt lat="43.0589556" lon="13.380962"><ele>577.6666666666667</ele><time>2026-03-22T09:20:09.296Z</time></trkpt><trkpt lat="43.0588648" lon="13.3811365"><ele>580.0</ele><time>2026-03-22T09:20:10.295Z</time></trkpt><trkpt lat="43.0587721" lon="13.3813096"><ele>576.3333333333334</ele><time>2026-03-22T09:20:11.296Z</time></trkpt><trkpt lat="43.0586779" lon="13.3814836"><ele>572.6666666666666</ele><time>2026-03-22T09:20:12.296Z</time></trkpt><trkpt lat="43.0585842" lon="13.3816555"><ele>569.0</ele><time>2026-03-22T09:20:13.296Z</time></trkpt><trkpt lat="43.0584903" lon="13.3818261"><ele>569.0</ele><time>2026-03-22T09:20:14.296Z</time></trkpt><trkpt lat="43.0583979" lon="13.381996"><ele>569.0</ele><time>2026-03-22T09:20:15.296Z</time></trkpt><trkpt lat="43.0583087" lon="13.3821631"><ele>569.0</ele><time>2026-03-22T09:20:16.296Z</time></trkpt><trkpt lat="43.0582247" lon="13.3823368"><ele>567.3333333333333</ele><time>2026-03-22T09:20:17.296Z</time></trkpt><trkpt lat="43.0581507" lon="13.3825164"><ele>565.6666666666666</ele><time>2026-03-22T09:20:18.296Z</time></trkpt><trkpt lat="43.0580875" lon="13.3827025"><ele>564.0</ele><time>2026-03-22T09:20:19.296Z</time></trkpt><trkpt lat="43.0580361" lon="13.3828978"><ele>561.3333333333334</ele><time>2026-03-22T09:20:20.296Z</time></trkpt><trkpt lat="43.0579973" lon="13.383101"><ele>558.6666666666667</ele><time>2026-03-22T09:20:21.296Z</time></trkpt><trkpt lat="43.0579698" lon="13.3833111"><ele>556.0</ele><time>2026-03-22T09:20:22.296Z</time></trkpt><trkpt lat="43.0579503" lon="13.3835267"><ele>556.0</ele><time>2026-03-22T09:20:23.296Z</time></trkpt><trkpt lat="43.057936" lon="13.3837447"><ele>556.0</ele><time>2026-03-22T09:20:24.296Z</time></trkpt><trkpt lat="43.0579208" lon="13.3839609"><ele>556.0</ele><time>2026-03-22T09:20:25.296Z</time></trkpt><trkpt lat="43.0579047" lon="13.3841773"><ele>553.6666666666667</ele><time>2026-03-22T09:20:26.295Z</time></trkpt><trkpt lat="43.057891" lon="13.384395"><ele>551.3333333333334</ele><time>2026-03-22T09:20:27.296Z</time></trkpt><trkpt lat="43.0578808" lon="13.3846097"><ele>549.0</ele><time>2026-03-22T09:20:28.296Z</time></trkpt><trkpt lat="43.0578704" lon="13.3848226"><ele>546.3333333333334</ele><time>2026-03-22T09:20:29.296Z</time></trkpt><trkpt lat="43.0578589" lon="13.3850313"><ele>543.6666666666667</ele><time>2026-03-22T09:20:30.296Z</time></trkpt><trkpt lat="43.0578475" lon="13.3852363"><ele>541.0</ele><time>2026-03-22T09:20:31.296Z</time></trkpt><trkpt lat="43.0578386" lon="13.3854383"><ele>539.75</ele><time>2026-03-22T09:20:32.296Z</time></trkpt><trkpt lat="43.0578337" lon="13.3856377"><ele>538.5</ele><time>2026-03-22T09:20:33.296Z</time></trkpt><trkpt lat="43.0578362" lon="13.3858367"><ele>537.25</ele><time>2026-03-22T09:20:34.296Z</time></trkpt><trkpt lat="43.0578502" lon="13.3860367"><ele>536.0</ele><time>2026-03-22T09:20:35.296Z</time></trkpt><trkpt lat="43.0578771" lon="13.3862375"><ele>534.3333333333333</ele><time>2026-03-22T09:20:36.296Z</time></trkpt><trkpt lat="43.0579127" lon="13.3864363"><ele>532.6666666666666</ele><time>2026-03-22T09:20:37.296Z</time></trkpt><trkpt lat="43.0579539" lon="13.3866344"><ele>531.0</ele><time>2026-03-22T09:20:38.296Z</time></trkpt><trkpt lat="43.0579994" lon="13.3868308"><ele>531.0</ele><time>2026-03-22T09:20:39.296Z</time></trkpt><trkpt lat="43.0580515" lon="13.387025"><ele>531.0</ele><time>2026-03-22T09:20:40.296Z</time></trkpt><trkpt lat="43.0581125" lon="13.3872149"><ele>531.0</ele><time>2026-03-22T09:20:41.296Z</time></trkpt><trkpt lat="43.0581808" lon="13.3874022"><ele>531.25</ele><time>2026-03-22T09:20:42.296Z</time></trkpt><trkpt lat="43.0582508" lon="13.3875878"><ele>531.5</ele><time>2026-03-22T09:20:43.296Z</time></trkpt><trkpt lat="43.0583175" lon="13.3877681"><ele>531.75</ele><time>2026-03-22T09:20:44.296Z</time></trkpt><trkpt lat="43.0583821" lon="13.387943"><ele>532.0</ele><time>2026-03-22T09:20:45.296Z</time></trkpt><trkpt lat="43.0584462" lon="13.3881087"><ele>532.0</ele><time>2026-03-22T09:20:46.296Z</time></trkpt><trkpt lat="43.0585127" lon="13.3882722"><ele>532.0</ele><time>2026-03-22T09:20:47.296Z</time></trkpt><trkpt lat="43.0585787" lon="13.38844"><ele>532.0</ele><time>2026-03-22T09:20:48.296Z</time></trkpt><trkpt lat="43.0586408" lon="13.3886166"><ele>532.0</ele><time>2026-03-22T09:20:49.296Z</time></trkpt><trkpt lat="43.0586949" lon="13.3888021"><ele>531.0</ele><time>2026-03-22T09:20:50.296Z</time></trkpt><trkpt lat="43.0587377" lon="13.3889962"><ele>530.0</ele><time>2026-03-22T09:20:51.296Z</time></trkpt><trkpt lat="43.0587632" lon="13.3891972"><ele>529.0</ele><time>2026-03-22T09:20:52.296Z</time></trkpt><trkpt lat="43.0587724" lon="13.3894019"><ele>528.0</ele><time>2026-03-22T09:20:53.296Z</time></trkpt><trkpt lat="43.0587749" lon="13.3896032"><ele>526.75</ele><time>2026-03-22T09:20:54.296Z</time></trkpt><trkpt lat="43.0587772" lon="13.3897993"><ele>525.5</ele><time>2026-03-22T09:20:55.295Z</time></trkpt><trkpt lat="43.0587801" lon="13.389995"><ele>524.25</ele><time>2026-03-22T09:20:56.296Z</time></trkpt><trkpt lat="43.0587839" lon="13.3901931"><ele>523.0</ele><time>2026-03-22T09:20:57.296Z</time></trkpt><trkpt lat="43.058788" lon="13.390394"><ele>521.6666666666667</ele><time>2026-03-22T09:20:58.295Z</time></trkpt><trkpt lat="43.0587912" lon="13.3905976"><ele>520.3333333333334</ele><time>2026-03-22T09:20:59.296Z</time></trkpt><trkpt lat="43.0587942" lon="13.3908024"><ele>519.0</ele><time>2026-03-22T09:21:00.296Z</time></trkpt><trkpt lat="43.0587966" lon="13.3910092"><ele>519.0</ele><time>2026-03-22T09:21:01.296Z</time></trkpt><trkpt lat="43.058796" lon="13.391212"><ele>519.0</ele><time>2026-03-22T09:21:02.296Z</time></trkpt><trkpt lat="43.0587905" lon="13.3914127"><ele>519.0</ele><time>2026-03-22T09:21:03.296Z</time></trkpt><trkpt lat="43.0587762" lon="13.3916129"><ele>519.0</ele><time>2026-03-22T09:21:04.296Z</time></trkpt><trkpt lat="43.0587506" lon="13.3918129"><ele>519.0</ele><time>2026-03-22T09:21:05.295Z</time></trkpt><trkpt lat="43.0587126" lon="13.3920083"><ele>519.0</ele><time>2026-03-22T09:21:06.296Z</time></trkpt><trkpt lat="43.0586639" lon="13.3921999"><ele>519.0</ele><time>2026-03-22T09:21:07.296Z</time></trkpt><trkpt lat="43.0586081" lon="13.3923929"><ele>519.0</ele><time>2026-03-22T09:21:08.296Z</time></trkpt><trkpt lat="43.0585523" lon="13.3925864"><ele>519.0</ele><time>2026-03-22T09:21:09.296Z</time></trkpt><trkpt lat="43.0584985" lon="13.3927767"><ele>519.0</ele><time>2026-03-22T09:21:10.296Z</time></trkpt><trkpt lat="43.0584473" lon="13.3929626"><ele>519.0</ele><time>2026-03-22T09:21:11.296Z</time></trkpt><trkpt lat="43.0584032" lon="13.3931526"><ele>519.0</ele><time>2026-03-22T09:21:12.296Z</time></trkpt><trkpt lat="43.05837" lon="13.393351"><ele>518.6666666666666</ele><time>2026-03-22T09:21:13.296Z</time></trkpt><trkpt lat="43.0583473" lon="13.3935564"><ele>518.3333333333333</ele><time>2026-03-22T09:21:14.296Z</time></trkpt><trkpt lat="43.0583307" lon="13.3937666"><ele>518.0</ele><time>2026-03-22T09:21:15.296Z</time></trkpt><trkpt lat="43.0583166" lon="13.3939782"><ele>517.0</ele><time>2026-03-22T09:21:16.296Z</time></trkpt><trkpt lat="43.0583021" lon="13.3941902"><ele>516.0</ele><time>2026-03-22T09:21:17.296Z</time></trkpt><trkpt lat="43.0582874" lon="13.3944032"><ele>515.0</ele><time>2026-03-22T09:21:18.296Z</time></trkpt><trkpt lat="43.0582726" lon="13.394616"><ele>511.3333333333333</ele><time>2026-03-22T09:21:19.296Z</time></trkpt><trkpt lat="43.0582579" lon="13.394828"><ele>507.66666666666663</ele><time>2026-03-22T09:21:20.296Z</time></trkpt><trkpt lat="43.0582436" lon="13.3950375"><ele>504.0</ele><time>2026-03-22T09:21:21.296Z</time></trkpt><trkpt lat="43.0582294" lon="13.3952426"><ele>504.0</ele><time>2026-03-22T09:21:22.296Z</time></trkpt><trkpt lat="43.0582164" lon="13.3954395"><ele>504.0</ele><time>2026-03-22T09:21:23.296Z</time></trkpt><trkpt lat="43.058204" lon="13.395631"><ele>504.0</ele><time>2026-03-22T09:21:24.296Z</time></trkpt><trkpt lat="43.0581934" lon="13.3958177"><ele>504.0</ele><time>2026-03-22T09:21:25.296Z</time></trkpt><trkpt lat="43.0581844" lon="13.3960037"><ele>504.25</ele><time>2026-03-22T09:21:26.296Z</time></trkpt><trkpt lat="43.0581753" lon="13.3961929"><ele>504.5</ele><time>2026-03-22T09:21:27.296Z</time></trkpt><trkpt lat="43.0581652" lon="13.3963876"><ele>504.75</ele><time>2026-03-22T09:21:28.296Z</time></trkpt><trkpt lat="43.0581545" lon="13.3965861"><ele>505.0</ele><time>2026-03-22T09:21:29.296Z</time></trkpt><trkpt lat="43.0581426" lon="13.3967886"><ele>503.25</ele><time>2026-03-22T09:21:30.296Z</time></trkpt><trkpt lat="43.0581293" lon="13.3969945"><ele>501.5</ele><time>2026-03-22T09:21:31.296Z</time></trkpt><trkpt lat="43.0581135" lon="13.3971964"><ele>499.75</ele><time>2026-03-22T09:21:32.296Z</time></trkpt><trkpt lat="43.0580956" lon="13.3973949"><ele>498.0</ele><time>2026-03-22T09:21:33.296Z</time></trkpt><trkpt lat="43.0580781" lon="13.3975959"><ele>496.66666666666663</ele><time>2026-03-22T09:21:34.296Z</time></trkpt><trkpt lat="43.0580638" lon="13.3978012"><ele>495.3333333333333</ele><time>2026-03-22T09:21:35.296Z</time></trkpt><trkpt lat="43.0580511" lon="13.3980117"><ele>494.0</ele><time>2026-03-22T09:21:36.296Z</time></trkpt><trkpt lat="43.0580375" lon="13.398227"><ele>493.3333333333333</ele><time>2026-03-22T09:21:37.296Z</time></trkpt><trkpt lat="43.058022" lon="13.3984454"><ele>492.66666666666663</ele><time>2026-03-22T09:21:38.296Z</time></trkpt><trkpt lat="43.0580029" lon="13.3986652"><ele>492.0</ele><time>2026-03-22T09:21:39.296Z</time></trkpt><trkpt lat="43.0579797" lon="13.3988788"><ele>492.0</ele><time>2026-03-22T09:21:40.296Z</time></trkpt><trkpt lat="43.057948" lon="13.3990844"><ele>492.0</ele><time>2026-03-22T09:21:41.296Z</time></trkpt><trkpt lat="43.0579057" lon="13.3992818"><ele>492.0</ele><time>2026-03-22T09:21:42.296Z</time></trkpt><trkpt lat="43.0578521" lon="13.3994775"><ele>493.25</ele><time>2026-03-22T09:21:43.296Z</time></trkpt><trkpt lat="43.0577878" lon="13.3996677"><ele>494.5</ele><time>2026-03-22T09:21:44.296Z</time></trkpt><trkpt lat="43.057715" lon="13.3998479"><ele>495.75</ele><time>2026-03-22T09:21:45.295Z</time></trkpt><trkpt lat="43.0576495" lon="13.400005"><ele>497.0</ele><time>2026-03-22T09:21:46.296Z</time></trkpt><trkpt lat="43.0575963" lon="13.4001166"><ele>497.0</ele><time>2026-03-22T09:21:47.296Z</time></trkpt><trkpt lat="43.0575462" lon="13.4002027"><ele>497.00000000000006</ele><time>2026-03-22T09:21:49.295Z</time></trkpt><trkpt lat="43.057476" lon="13.4003048"><ele>497.00000000000006</ele><time>2026-03-22T09:21:51.296Z</time></trkpt><trkpt lat="43.0574164" lon="13.4003801"><ele>497.0</ele><time>2026-03-22T09:21:52.296Z</time></trkpt><trkpt lat="43.0573446" lon="13.4004635"><ele>497.0</ele><time>2026-03-22T09:21:53.296Z</time></trkpt><trkpt lat="43.057268" lon="13.4005488"><ele>494.75</ele><time>2026-03-22T09:21:54.296Z</time></trkpt><trkpt lat="43.0571739" lon="13.4006608"><ele>492.5</ele><time>2026-03-22T09:21:55.296Z</time></trkpt><trkpt lat="43.0570981" lon="13.4007884"><ele>490.25</ele><time>2026-03-22T09:21:56.296Z</time></trkpt><trkpt lat="43.0570293" lon="13.400929"><ele>488.0</ele><time>2026-03-22T09:21:57.296Z</time></trkpt><trkpt lat="43.0569731" lon="13.4010825"><ele>488.0</ele><time>2026-03-22T09:21:58.296Z</time></trkpt><trkpt lat="43.0569273" lon="13.401244"><ele>488.0</ele><time>2026-03-22T09:21:59.296Z</time></trkpt><trkpt lat="43.0568742" lon="13.4014193"><ele>488.0</ele><time>2026-03-22T09:22:00.296Z</time></trkpt><trkpt lat="43.0568233" lon="13.4016078"><ele>488.0</ele><time>2026-03-22T09:22:01.296Z</time></trkpt><trkpt lat="43.0567712" lon="13.4018071"><ele>488.3333333333333</ele><time>2026-03-22T09:22:02.296Z</time></trkpt><trkpt lat="43.0567169" lon="13.4020155"><ele>488.66666666666663</ele><time>2026-03-22T09:22:03.296Z</time></trkpt><trkpt lat="43.0566596" lon="13.4022236"><ele>489.0</ele><time>2026-03-22T09:22:04.296Z</time></trkpt><trkpt lat="43.0565981" lon="13.4024263"><ele>490.0</ele><time>2026-03-22T09:22:05.296Z</time></trkpt><trkpt lat="43.0565297" lon="13.4026215"><ele>491.0</ele><time>2026-03-22T09:22:06.296Z</time></trkpt><trkpt lat="43.0564544" lon="13.4028127"><ele>492.0</ele><time>2026-03-22T09:22:07.296Z</time></trkpt><trkpt lat="43.0563752" lon="13.4029994"><ele>492.0</ele><time>2026-03-22T09:22:08.296Z</time></trkpt><trkpt lat="43.0562958" lon="13.4031794"><ele>492.0</ele><time>2026-03-22T09:22:09.296Z</time></trkpt><trkpt lat="43.0562152" lon="13.4033535"><ele>492.0</ele><time>2026-03-22T09:22:10.296Z</time></trkpt><trkpt lat="43.0561323" lon="13.4035254"><ele>492.0</ele><time>2026-03-22T09:22:11.296Z</time></trkpt><trkpt lat="43.0560495" lon="13.4036961"><ele>492.0</ele><time>2026-03-22T09:22:12.296Z</time></trkpt><trkpt lat="43.055969" lon="13.4038649"><ele>492.0</ele><time>2026-03-22T09:22:13.296Z</time></trkpt><trkpt lat="43.0558897" lon="13.4040308"><ele>492.0</ele><time>2026-03-22T09:22:14.295Z</time></trkpt><trkpt lat="43.0558108" lon="13.4041946"><ele>491.0</ele><time>2026-03-22T09:22:15.295Z</time></trkpt><trkpt lat="43.055732" lon="13.4043566"><ele>490.0</ele><time>2026-03-22T09:22:16.295Z</time></trkpt><trkpt lat="43.0556597" lon="13.4045168"><ele>489.0</ele><time>2026-03-22T09:22:17.296Z</time></trkpt><trkpt lat="43.0556048" lon="13.4046839"><ele>488.0</ele><time>2026-03-22T09:22:18.296Z</time></trkpt><trkpt lat="43.0555774" lon="13.4048598"><ele>488.0</ele><time>2026-03-22T09:22:19.296Z</time></trkpt><trkpt lat="43.0555805" lon="13.4050379"><ele>488.0</ele><time>2026-03-22T09:22:20.296Z</time></trkpt><trkpt lat="43.0556066" lon="13.4052414"><ele>488.0</ele><time>2026-03-22T09:22:21.296Z</time></trkpt><trkpt lat="43.0556568" lon="13.4053898"><ele>488.0</ele><time>2026-03-22T09:22:22.314Z</time></trkpt><trkpt lat="43.0556916" lon="13.405576"><ele>488.0</ele><time>2026-03-22T09:22:23.314Z</time></trkpt><trkpt lat="43.05573" lon="13.4057633"><ele>488.0</ele><time>2026-03-22T09:22:24.314Z</time></trkpt><trkpt lat="43.0557733" lon="13.4059581"><ele>488.0</ele><time>2026-03-22T09:22:25.314Z</time></trkpt><trkpt lat="43.0558211" lon="13.4061512"><ele>488.0</ele><time>2026-03-22T09:22:26.314Z</time></trkpt><trkpt lat="43.0558709" lon="13.4063446"><ele>493.75</ele><time>2026-03-22T09:22:27.314Z</time></trkpt><trkpt lat="43.0559228" lon="13.4065373"><ele>499.5</ele><time>2026-03-22T09:22:28.314Z</time></trkpt><trkpt lat="43.0559813" lon="13.4067277"><ele>505.25</ele><time>2026-03-22T09:22:29.313Z</time></trkpt><trkpt lat="43.0560506" lon="13.4069062"><ele>511.0</ele><time>2026-03-22T09:22:30.314Z</time></trkpt><trkpt lat="43.056122" lon="13.4070783"><ele>510.75</ele><time>2026-03-22T09:22:31.314Z</time></trkpt><trkpt lat="43.0561758" lon="13.4072501"><ele>510.5</ele><time>2026-03-22T09:22:32.314Z</time></trkpt><trkpt lat="43.0561916" lon="13.407428"><ele>510.25</ele><time>2026-03-22T09:22:33.314Z</time></trkpt><trkpt lat="43.0561975" lon="13.4076231"><ele>510.0</ele><time>2026-03-22T09:22:34.314Z</time></trkpt><trkpt lat="43.0561974" lon="13.4078215"><ele>513.3333333333334</ele><time>2026-03-22T09:22:35.314Z</time></trkpt><trkpt lat="43.0561942" lon="13.4080277"><ele>516.6666666666667</ele><time>2026-03-22T09:22:36.314Z</time></trkpt><trkpt lat="43.0561869" lon="13.4082357"><ele>520.0</ele><time>2026-03-22T09:22:37.314Z</time></trkpt><trkpt lat="43.0561774" lon="13.4084499"><ele>520.0</ele><time>2026-03-22T09:22:38.314Z</time></trkpt><trkpt lat="43.0561659" lon="13.4086633"><ele>520.0</ele><time>2026-03-22T09:22:39.314Z</time></trkpt><trkpt lat="43.0561547" lon="13.4088811"><ele>520.0</ele><time>2026-03-22T09:22:40.314Z</time></trkpt><trkpt lat="43.0561451" lon="13.4090981"><ele>521.6666666666667</ele><time>2026-03-22T09:22:41.314Z</time></trkpt><trkpt lat="43.0561338" lon="13.4093103"><ele>523.3333333333334</ele><time>2026-03-22T09:22:42.314Z</time></trkpt><trkpt lat="43.0561197" lon="13.4095167"><ele>525.0</ele><time>2026-03-22T09:22:43.314Z</time></trkpt><trkpt lat="43.0561053" lon="13.4097174"><ele>525.0</ele><time>2026-03-22T09:22:44.314Z</time></trkpt><trkpt lat="43.056095" lon="13.4099106"><ele>525.0</ele><time>2026-03-22T09:22:45.313Z</time></trkpt><trkpt lat="43.0560963" lon="13.4100864"><ele>525.0</ele><time>2026-03-22T09:22:46.314Z</time></trkpt><trkpt lat="43.0561177" lon="13.4102531"><ele>525.0</ele><time>2026-03-22T09:22:47.314Z</time></trkpt><trkpt lat="43.056167" lon="13.4104106"><ele>522.25</ele><time>2026-03-22T09:22:48.314Z</time></trkpt><trkpt lat="43.0562436" lon="13.4105622"><ele>519.5</ele><time>2026-03-22T09:22:49.314Z</time></trkpt><trkpt lat="43.0563303" lon="13.4107225"><ele>516.75</ele><time>2026-03-22T09:22:50.313Z</time></trkpt><trkpt lat="43.0564127" lon="13.4108926"><ele>514.0</ele><time>2026-03-22T09:22:51.314Z</time></trkpt><trkpt lat="43.0564811" lon="13.4110737"><ele>514.0</ele><time>2026-03-22T09:22:52.314Z</time></trkpt><trkpt lat="43.0565318" lon="13.4112664"><ele>514.0</ele><time>2026-03-22T09:22:53.314Z</time></trkpt><trkpt lat="43.0565737" lon="13.4114625"><ele>514.0</ele><time>2026-03-22T09:22:54.314Z</time></trkpt><trkpt lat="43.0566124" lon="13.4116583"><ele>514.0</ele><time>2026-03-22T09:22:55.314Z</time></trkpt><trkpt lat="43.0566375" lon="13.4118609"><ele>514.3333333333334</ele><time>2026-03-22T09:22:56.314Z</time></trkpt><trkpt lat="43.0566266" lon="13.4120755"><ele>514.6666666666666</ele><time>2026-03-22T09:22:57.314Z</time></trkpt><trkpt lat="43.0565937" lon="13.4122891"><ele>515.0</ele><time>2026-03-22T09:22:58.314Z</time></trkpt><trkpt lat="43.0565598" lon="13.4125033"><ele>515.0</ele><time>2026-03-22T09:22:59.314Z</time></trkpt><trkpt lat="43.0565257" lon="13.4127203"><ele>515.0</ele><time>2026-03-22T09:23:00.313Z</time></trkpt><trkpt lat="43.0564893" lon="13.412939"><ele>515.0</ele><time>2026-03-22T09:23:01.314Z</time></trkpt><trkpt lat="43.0564535" lon="13.4131584"><ele>518.0</ele><time>2026-03-22T09:23:02.313Z</time></trkpt><trkpt lat="43.0564164" lon="13.4133762"><ele>521.0</ele><time>2026-03-22T09:23:03.314Z</time></trkpt><trkpt lat="43.0563715" lon="13.4135888"><ele>524.0</ele><time>2026-03-22T09:23:04.313Z</time></trkpt><trkpt lat="43.0563031" lon="13.4137831"><ele>530.3333333333333</ele><time>2026-03-22T09:23:05.314Z</time></trkpt><trkpt lat="43.0562042" lon="13.4139543"><ele>536.6666666666666</ele><time>2026-03-22T09:23:06.314Z</time></trkpt><trkpt lat="43.0560861" lon="13.4140896"><ele>543.0</ele><time>2026-03-22T09:23:07.314Z</time></trkpt><trkpt lat="43.0559538" lon="13.4141941"><ele>543.0</ele><time>2026-03-22T09:23:08.314Z</time></trkpt><trkpt lat="43.0558186" lon="13.4142851"><ele>543.0</ele><time>2026-03-22T09:23:09.314Z</time></trkpt><trkpt lat="43.0557044" lon="13.4143677"><ele>543.0</ele><time>2026-03-22T09:23:10.314Z</time></trkpt><trkpt lat="43.0556064" lon="13.4144485"><ele>543.0</ele><time>2026-03-22T09:23:11.314Z</time></trkpt><trkpt lat="43.0555265" lon="13.4145559"><ele>542.75</ele><time>2026-03-22T09:23:12.314Z</time></trkpt><trkpt lat="43.0554784" lon="13.4146946"><ele>542.5</ele><time>2026-03-22T09:23:13.313Z</time></trkpt><trkpt lat="43.0554639" lon="13.4148562"><ele>542.25</ele><time>2026-03-22T09:23:14.314Z</time></trkpt><trkpt lat="43.0554678" lon="13.4150387"><ele>542.0</ele><time>2026-03-22T09:23:15.314Z</time></trkpt><trkpt lat="43.0554689" lon="13.4152171"><ele>542.0</ele><time>2026-03-22T09:23:16.314Z</time></trkpt><trkpt lat="43.0554606" lon="13.4153927"><ele>542.0</ele><time>2026-03-22T09:23:17.314Z</time></trkpt><trkpt lat="43.0554439" lon="13.4155652"><ele>542.0</ele><time>2026-03-22T09:23:18.314Z</time></trkpt><trkpt lat="43.0554198" lon="13.4157329"><ele>542.0</ele><time>2026-03-22T09:23:19.313Z</time></trkpt><trkpt lat="43.0554009" lon="13.4159006"><ele>544.0</ele><time>2026-03-22T09:23:20.314Z</time></trkpt><trkpt lat="43.0554006" lon="13.4160741"><ele>546.0</ele><time>2026-03-22T09:23:21.314Z</time></trkpt><trkpt lat="43.0554191" lon="13.4162507"><ele>548.0</ele><time>2026-03-22T09:23:22.314Z</time></trkpt><trkpt lat="43.0554536" lon="13.4164245"><ele>550.0</ele><time>2026-03-22T09:23:23.314Z</time></trkpt><trkpt lat="43.0555007" lon="13.4166002"><ele>550.5</ele><time>2026-03-22T09:23:24.313Z</time></trkpt><trkpt lat="43.0555462" lon="13.4167755"><ele>551.0</ele><time>2026-03-22T09:23:25.314Z</time></trkpt><trkpt lat="43.0555856" lon="13.4169532"><ele>551.5</ele><time>2026-03-22T09:23:26.314Z</time></trkpt><trkpt lat="43.0556157" lon="13.4171335"><ele>552.0</ele><time>2026-03-22T09:23:27.314Z</time></trkpt><trkpt lat="43.0556403" lon="13.4173135"><ele>552.25</ele><time>2026-03-22T09:23:28.314Z</time></trkpt><trkpt lat="43.0556596" lon="13.4174905"><ele>552.5</ele><time>2026-03-22T09:23:29.314Z</time></trkpt><trkpt lat="43.0556686" lon="13.4176697"><ele>552.75</ele><time>2026-03-22T09:23:30.314Z</time></trkpt><trkpt lat="43.0556679" lon="13.4178438"><ele>553.0</ele><time>2026-03-22T09:23:31.314Z</time></trkpt><trkpt lat="43.0556614" lon="13.4179855"><ele>552.6666666666667</ele><time>2026-03-22T09:23:32.314Z</time></trkpt><trkpt lat="43.0556493" lon="13.4180976"><ele>552.3333333333334</ele><time>2026-03-22T09:23:33.314Z</time></trkpt><trkpt lat="43.0556362" lon="13.4181908"><ele>552.0</ele><time>2026-03-22T09:23:34.314Z</time></trkpt><trkpt lat="43.0555835" lon="13.4183034"><ele>551.6666666666666</ele><time>2026-03-22T09:23:36.314Z</time></trkpt><trkpt lat="43.05549" lon="13.4183757"><ele>551.3333333333333</ele><time>2026-03-22T09:23:38.314Z</time></trkpt><trkpt lat="43.0554334" lon="13.4184288"><ele>551.0</ele><time>2026-03-22T09:23:39.314Z</time></trkpt><trkpt lat="43.0553685" lon="13.4184943"><ele>551.0</ele><time>2026-03-22T09:23:40.314Z</time></trkpt><trkpt lat="43.0552903" lon="13.4185681"><ele>551.0</ele><time>2026-03-22T09:23:41.314Z</time></trkpt><trkpt lat="43.0552012" lon="13.4186411"><ele>551.0</ele><time>2026-03-22T09:23:42.314Z</time></trkpt><trkpt lat="43.0551007" lon="13.4187056"><ele>551.0</ele><time>2026-03-22T09:23:43.314Z</time></trkpt><trkpt lat="43.0549894" lon="13.4187416"><ele>551.0</ele><time>2026-03-22T09:23:44.314Z</time></trkpt><trkpt lat="43.0548722" lon="13.4187491"><ele>547.0</ele><time>2026-03-22T09:23:45.314Z</time></trkpt><trkpt lat="43.0547518" lon="13.4187394"><ele>543.0</ele><time>2026-03-22T09:23:46.314Z</time></trkpt><trkpt lat="43.0546304" lon="13.4187213"><ele>539.0</ele><time>2026-03-22T09:23:47.314Z</time></trkpt><trkpt lat="43.054517" lon="13.4186952"><ele>535.0</ele><time>2026-03-22T09:23:48.314Z</time></trkpt><trkpt lat="43.0544136" lon="13.4186305"><ele>535.0</ele><time>2026-03-22T09:23:49.314Z</time></trkpt><trkpt lat="43.0543261" lon="13.418526"><ele>535.0</ele><time>2026-03-22T09:23:50.314Z</time></trkpt><trkpt lat="43.0542532" lon="13.4184118"><ele>535.0</ele><time>2026-03-22T09:23:51.314Z</time></trkpt><trkpt lat="43.0541837" lon="13.4183008"><ele>535.0</ele><time>2026-03-22T09:23:52.314Z</time></trkpt><trkpt lat="43.0541186" lon="13.4181874"><ele>535.0</ele><time>2026-03-22T09:23:53.314Z</time></trkpt><trkpt lat="43.0540495" lon="13.4180811"><ele>532.6</ele><time>2026-03-22T09:23:54.314Z</time></trkpt><trkpt lat="43.053972" lon="13.4179875"><ele>530.2</ele><time>2026-03-22T09:23:55.314Z</time></trkpt><trkpt lat="43.0538917" lon="13.4178974"><ele>527.8</ele><time>2026-03-22T09:23:56.313Z</time></trkpt><trkpt lat="43.0538141" lon="13.4178006"><ele>525.4</ele><time>2026-03-22T09:23:57.314Z</time></trkpt><trkpt lat="43.0537503" lon="13.4176838"><ele>523.0</ele><time>2026-03-22T09:23:58.314Z</time></trkpt><trkpt lat="43.0537126" lon="13.4175458"><ele>523.0</ele><time>2026-03-22T09:23:59.314Z</time></trkpt><trkpt lat="43.0537038" lon="13.4173975"><ele>523.0</ele><time>2026-03-22T09:24:00.314Z</time></trkpt><trkpt lat="43.0537141" lon="13.4172443"><ele>523.0</ele><time>2026-03-22T09:24:01.314Z</time></trkpt><trkpt lat="43.0537246" lon="13.4170903"><ele>523.0</ele><time>2026-03-22T09:24:02.314Z</time></trkpt><trkpt lat="43.0537349" lon="13.4169352"><ele>523.0</ele><time>2026-03-22T09:24:03.314Z</time></trkpt><trkpt lat="43.0537525" lon="13.4167764"><ele>520.5</ele><time>2026-03-22T09:24:04.314Z</time></trkpt><trkpt lat="43.0537751" lon="13.4166094"><ele>518.0</ele><time>2026-03-22T09:24:05.314Z</time></trkpt><trkpt lat="43.0537984" lon="13.4164337"><ele>515.5</ele><time>2026-03-22T09:24:06.314Z</time></trkpt><trkpt lat="43.0538223" lon="13.4162563"><ele>513.0</ele><time>2026-03-22T09:24:07.314Z</time></trkpt><trkpt lat="43.0538454" lon="13.4160793"><ele>511.25</ele><time>2026-03-22T09:24:08.314Z</time></trkpt><trkpt lat="43.0538639" lon="13.415895"><ele>509.5</ele><time>2026-03-22T09:24:09.314Z</time></trkpt><trkpt lat="43.053877" lon="13.4157117"><ele>507.75</ele><time>2026-03-22T09:24:10.313Z</time></trkpt><trkpt lat="43.0538871" lon="13.4155346"><ele>506.0</ele><time>2026-03-22T09:24:11.314Z</time></trkpt><trkpt lat="43.0538946" lon="13.4153634"><ele>504.25</ele><time>2026-03-22T09:24:12.314Z</time></trkpt><trkpt lat="43.0539" lon="13.415195"><ele>502.5</ele><time>2026-03-22T09:24:13.313Z</time></trkpt><trkpt lat="43.053901" lon="13.4150326"><ele>500.75</ele><time>2026-03-22T09:24:14.314Z</time></trkpt><trkpt lat="43.0538951" lon="13.4148787"><ele>499.0</ele><time>2026-03-22T09:24:15.313Z</time></trkpt><trkpt lat="43.0538683" lon="13.41473"><ele>498.4</ele><time>2026-03-22T09:24:16.314Z</time></trkpt><trkpt lat="43.0538262" lon="13.4146028"><ele>497.79999999999995</ele><time>2026-03-22T09:24:17.314Z</time></trkpt><trkpt lat="43.0537798" lon="13.4144949"><ele>497.20000000000005</ele><time>2026-03-22T09:24:18.314Z</time></trkpt><trkpt lat="43.0537242" lon="13.4143909"><ele>496.6</ele><time>2026-03-22T09:24:19.314Z</time></trkpt><trkpt lat="43.0536584" lon="13.4142863"><ele>496.0</ele><time>2026-03-22T09:24:20.314Z</time></trkpt><trkpt lat="43.0535804" lon="13.4141883"><ele>496.0</ele><time>2026-03-22T09:24:21.314Z</time></trkpt><trkpt lat="43.0534904" lon="13.4140973"><ele>496.0</ele><time>2026-03-22T09:24:22.314Z</time></trkpt><trkpt lat="43.0534004" lon="13.4140222"><ele>496.0</ele><time>2026-03-22T09:24:23.314Z</time></trkpt><trkpt lat="43.053305" lon="13.4139517"><ele>496.0</ele><time>2026-03-22T09:24:24.314Z</time></trkpt><trkpt lat="43.0532051" lon="13.4138781"><ele>496.0</ele><time>2026-03-22T09:24:25.314Z</time></trkpt><trkpt lat="43.0531073" lon="13.4138064"><ele>491.8</ele><time>2026-03-22T09:24:26.314Z</time></trkpt><trkpt lat="43.0530173" lon="13.4137375"><ele>487.6</ele><time>2026-03-22T09:24:27.314Z</time></trkpt><trkpt lat="43.0529315" lon="13.413665"><ele>483.4</ele><time>2026-03-22T09:24:28.314Z</time></trkpt><trkpt lat="43.0528438" lon="13.4136052"><ele>479.2</ele><time>2026-03-22T09:24:29.314Z</time></trkpt><trkpt lat="43.052752" lon="13.4135549"><ele>475.0</ele><time>2026-03-22T09:24:30.314Z</time></trkpt><trkpt lat="43.0526637" lon="13.4134898"><ele>475.0</ele><time>2026-03-22T09:24:31.314Z</time></trkpt><trkpt lat="43.0525865" lon="13.4133946"><ele>475.0</ele><time>2026-03-22T09:24:32.314Z</time></trkpt><trkpt lat="43.0525298" lon="13.4132686"><ele>475.0</ele><time>2026-03-22T09:24:33.314Z</time></trkpt><trkpt lat="43.0524867" lon="13.4131392"><ele>475.0</ele><time>2026-03-22T09:24:34.314Z</time></trkpt><trkpt lat="43.052425" lon="13.413014"><ele>475.0</ele><time>2026-03-22T09:24:35.314Z</time></trkpt><trkpt lat="43.0523454" lon="13.4128977"><ele>472.25</ele><time>2026-03-22T09:24:36.314Z</time></trkpt><trkpt lat="43.0522498" lon="13.4127987"><ele>469.5</ele><time>2026-03-22T09:24:37.314Z</time></trkpt><trkpt lat="43.0521469" lon="13.4127163"><ele>466.75</ele><time>2026-03-22T09:24:38.314Z</time></trkpt><trkpt lat="43.052041" lon="13.4126524"><ele>464.0</ele><time>2026-03-22T09:24:39.314Z</time></trkpt><trkpt lat="43.0519387" lon="13.412594"><ele>464.0</ele><time>2026-03-22T09:24:40.313Z</time></trkpt><trkpt lat="43.0518364" lon="13.4125529"><ele>464.0</ele><time>2026-03-22T09:24:41.314Z</time></trkpt><trkpt lat="43.0517383" lon="13.4125236"><ele>464.0</ele><time>2026-03-22T09:24:42.314Z</time></trkpt><trkpt lat="43.0516369" lon="13.4125025"><ele>464.0</ele><time>2026-03-22T09:24:43.314Z</time></trkpt><trkpt lat="43.0515362" lon="13.4124998"><ele>464.0</ele><time>2026-03-22T09:24:44.314Z</time></trkpt><trkpt lat="43.0514333" lon="13.4125134"><ele>462.0</ele><time>2026-03-22T09:24:45.314Z</time></trkpt><trkpt lat="43.0513251" lon="13.4125423"><ele>460.0</ele><time>2026-03-22T09:24:46.314Z</time></trkpt><trkpt lat="43.0512133" lon="13.4125746"><ele>458.0</ele><time>2026-03-22T09:24:47.314Z</time></trkpt><trkpt lat="43.0510975" lon="13.4126065"><ele>456.0</ele><time>2026-03-22T09:24:48.314Z</time></trkpt><trkpt lat="43.0509778" lon="13.4126378"><ele>456.0</ele><time>2026-03-22T09:24:49.314Z</time></trkpt><trkpt lat="43.0508673" lon="13.4126656"><ele>456.0</ele><time>2026-03-22T09:24:50.314Z</time></trkpt><trkpt lat="43.050762" lon="13.4126926"><ele>456.0</ele><time>2026-03-22T09:24:51.314Z</time></trkpt><trkpt lat="43.0506654" lon="13.4127137"><ele>456.0</ele><time>2026-03-22T09:24:52.314Z</time></trkpt><trkpt lat="43.0505743" lon="13.4127248"><ele>456.0</ele><time>2026-03-22T09:24:53.314Z</time></trkpt><trkpt lat="43.0504764" lon="13.4127228"><ele>453.3333333333333</ele><time>2026-03-22T09:24:54.314Z</time></trkpt><trkpt lat="43.0503739" lon="13.4127016"><ele>450.66666666666663</ele><time>2026-03-22T09:24:55.314Z</time></trkpt><trkpt lat="43.0502827" lon="13.4126601"><ele>448.0</ele><time>2026-03-22T09:24:56.314Z</time></trkpt><trkpt lat="43.0502023" lon="13.4126063"><ele>445.3333333333333</ele><time>2026-03-22T09:24:57.313Z</time></trkpt><trkpt lat="43.0501322" lon="13.4125583"><ele>442.66666666666663</ele><time>2026-03-22T09:24:58.314Z</time></trkpt><trkpt lat="43.0500639" lon="13.4125424"><ele>440.0</ele><time>2026-03-22T09:24:59.313Z</time></trkpt><trkpt lat="43.049986" lon="13.4125625"><ele>437.8</ele><time>2026-03-22T09:25:00.314Z</time></trkpt><trkpt lat="43.0498967" lon="13.4126293"><ele>435.6</ele><time>2026-03-22T09:25:01.314Z</time></trkpt><trkpt lat="43.0498025" lon="13.4127115"><ele>433.4</ele><time>2026-03-22T09:25:02.314Z</time></trkpt><trkpt lat="43.0497034" lon="13.4127916"><ele>431.2</ele><time>2026-03-22T09:25:03.314Z</time></trkpt><trkpt lat="43.0495988" lon="13.4128726"><ele>429.0</ele><time>2026-03-22T09:25:04.314Z</time></trkpt><trkpt lat="43.0494906" lon="13.4129478"><ele>428.79999999999995</ele><time>2026-03-22T09:25:05.314Z</time></trkpt><trkpt lat="43.0493965" lon="13.4130109"><ele>428.59999999999997</ele><time>2026-03-22T09:25:06.314Z</time></trkpt><trkpt lat="43.0493025" lon="13.4130697"><ele>428.4</ele><time>2026-03-22T09:25:07.314Z</time></trkpt><trkpt lat="43.0492017" lon="13.4131149"><ele>428.2</ele><time>2026-03-22T09:25:08.314Z</time></trkpt><trkpt lat="43.0490987" lon="13.4131476"><ele>428.0</ele><time>2026-03-22T09:25:09.314Z</time></trkpt><trkpt lat="43.0489944" lon="13.4131784"><ele>425.2</ele><time>2026-03-22T09:25:10.314Z</time></trkpt><trkpt lat="43.0488868" lon="13.4131926"><ele>422.4</ele><time>2026-03-22T09:25:11.314Z</time></trkpt><trkpt lat="43.0487785" lon="13.4131934"><ele>419.59999999999997</ele><time>2026-03-22T09:25:12.314Z</time></trkpt><trkpt lat="43.0486707" lon="13.4131947"><ele>416.79999999999995</ele><time>2026-03-22T09:25:13.314Z</time></trkpt><trkpt lat="43.0485661" lon="13.4131967"><ele>414.0</ele><time>2026-03-22T09:25:14.314Z</time></trkpt><trkpt lat="43.0484598" lon="13.413195"><ele>414.0</ele><time>2026-03-22T09:25:15.314Z</time></trkpt><trkpt lat="43.0483688" lon="13.4131913"><ele>414.0</ele><time>2026-03-22T09:25:16.314Z</time></trkpt><trkpt lat="43.0482817" lon="13.4131895"><ele>414.0</ele><time>2026-03-22T09:25:17.314Z</time></trkpt><trkpt lat="43.0481926" lon="13.413181"><ele>414.0</ele><time>2026-03-22T09:25:18.313Z</time></trkpt><trkpt lat="43.0481108" lon="13.4131469"><ele>414.0</ele><time>2026-03-22T09:25:19.314Z</time></trkpt><trkpt lat="43.0480452" lon="13.4130884"><ele>414.0</ele><time>2026-03-22T09:25:20.314Z</time></trkpt><trkpt lat="43.0480038" lon="13.4130106"><ele>412.8333333333333</ele><time>2026-03-22T09:25:21.314Z</time></trkpt><trkpt lat="43.0479824" lon="13.4129164"><ele>411.66666666666663</ele><time>2026-03-22T09:25:22.314Z</time></trkpt><trkpt lat="43.0479739" lon="13.412807"><ele>410.5</ele><time>2026-03-22T09:25:23.314Z</time></trkpt><trkpt lat="43.0479838" lon="13.4126835"><ele>409.3333333333333</ele><time>2026-03-22T09:25:24.314Z</time></trkpt><trkpt lat="43.0480101" lon="13.4125649"><ele>408.16666666666663</ele><time>2026-03-22T09:25:25.313Z</time></trkpt><trkpt lat="43.0480326" lon="13.4124514"><ele>407.0</ele><time>2026-03-22T09:25:26.314Z</time></trkpt><trkpt lat="43.0480481" lon="13.4123527"><ele>406.99999999999994</ele><time>2026-03-22T09:25:27.314Z</time></trkpt><trkpt lat="43.048044" lon="13.4122578"><ele>407.0</ele><time>2026-03-22T09:25:28.314Z</time></trkpt><trkpt lat="43.0480212" lon="13.4121732"><ele>407.0</ele><time>2026-03-22T09:25:29.314Z</time></trkpt><trkpt lat="43.0479729" lon="13.4120888"><ele>407.0</ele><time>2026-03-22T09:25:30.314Z</time></trkpt><trkpt lat="43.047906" lon="13.4120014"><ele>406.99999999999994</ele><time>2026-03-22T09:25:31.314Z</time></trkpt><trkpt lat="43.0478343" lon="13.4119197"><ele>407.0</ele><time>2026-03-22T09:25:32.314Z</time></trkpt><trkpt lat="43.0477586" lon="13.4118337"><ele>405.8</ele><time>2026-03-22T09:25:33.314Z</time></trkpt><trkpt lat="43.0476864" lon="13.4117442"><ele>404.6</ele><time>2026-03-22T09:25:34.314Z</time></trkpt><trkpt lat="43.0476145" lon="13.411656"><ele>403.40000000000003</ele><time>2026-03-22T09:25:35.314Z</time></trkpt><trkpt lat="43.0475444" lon="13.41157"><ele>402.20000000000005</ele><time>2026-03-22T09:25:36.314Z</time></trkpt><trkpt lat="43.0474735" lon="13.4114819"><ele>401.0</ele><time>2026-03-22T09:25:37.314Z</time></trkpt><trkpt lat="43.0474033" lon="13.4113922"><ele>396.6</ele><time>2026-03-22T09:25:38.314Z</time></trkpt><trkpt lat="43.0473328" lon="13.4112972"><ele>392.20000000000005</ele><time>2026-03-22T09:25:39.314Z</time></trkpt><trkpt lat="43.0472724" lon="13.4111845"><ele>387.79999999999995</ele><time>2026-03-22T09:25:40.314Z</time></trkpt><trkpt lat="43.0472356" lon="13.4110463"><ele>383.4</ele><time>2026-03-22T09:25:41.314Z</time></trkpt><trkpt lat="43.0472124" lon="13.4108994"><ele>379.0</ele><time>2026-03-22T09:25:42.314Z</time></trkpt><trkpt lat="43.0471879" lon="13.4107494"><ele>379.0</ele><time>2026-03-22T09:25:43.314Z</time></trkpt><trkpt lat="43.0471629" lon="13.4105981"><ele>379.0</ele><time>2026-03-22T09:25:44.314Z</time></trkpt><trkpt lat="43.0471367" lon="13.4104575"><ele>379.0</ele><time>2026-03-22T09:25:45.314Z</time></trkpt><trkpt lat="43.0471165" lon="13.4103307"><ele>379.0</ele><time>2026-03-22T09:25:46.313Z</time></trkpt><trkpt lat="43.0470962" lon="13.4102145"><ele>379.0</ele><time>2026-03-22T09:25:47.314Z</time></trkpt><trkpt lat="43.0470725" lon="13.4101059"><ele>377.66666666666663</ele><time>2026-03-22T09:25:48.314Z</time></trkpt><trkpt lat="43.0470503" lon="13.4100089"><ele>376.3333333333333</ele><time>2026-03-22T09:25:49.314Z</time></trkpt><trkpt lat="43.0470008" lon="13.4098619"><ele>375.0</ele><time>2026-03-22T09:25:51.314Z</time></trkpt><trkpt lat="43.0469485" lon="13.4097944"><ele>373.6666666666667</ele><time>2026-03-22T09:25:52.314Z</time></trkpt><trkpt lat="43.0468765" lon="13.4097494"><ele>372.33333333333337</ele><time>2026-03-22T09:25:53.314Z</time></trkpt><trkpt lat="43.0467924" lon="13.4097103"><ele>371.0</ele><time>2026-03-22T09:25:54.314Z</time></trkpt><trkpt lat="43.0467082" lon="13.4096532"><ele>369.83333333333337</ele><time>2026-03-22T09:25:55.314Z</time></trkpt><trkpt lat="43.0466439" lon="13.4095728"><ele>368.6666666666667</ele><time>2026-03-22T09:25:56.314Z</time></trkpt><trkpt lat="43.0466016" lon="13.4094644"><ele>367.5</ele><time>2026-03-22T09:25:57.314Z</time></trkpt><trkpt lat="43.0465906" lon="13.4093468"><ele>366.3333333333333</ele><time>2026-03-22T09:25:58.314Z</time></trkpt><trkpt lat="43.0465868" lon="13.4092219"><ele>365.16666666666663</ele><time>2026-03-22T09:25:59.314Z</time></trkpt><trkpt lat="43.0465764" lon="13.4091011"><ele>364.0</ele><time>2026-03-22T09:26:00.313Z</time></trkpt><trkpt lat="43.0465493" lon="13.4090031"><ele>361.4</ele><time>2026-03-22T09:26:01.314Z</time></trkpt><trkpt lat="43.0465023" lon="13.4089146"><ele>358.79999999999995</ele><time>2026-03-22T09:26:02.314Z</time></trkpt><trkpt lat="43.0464239" lon="13.4088491"><ele>356.20000000000005</ele><time>2026-03-22T09:26:03.313Z</time></trkpt><trkpt lat="43.0463287" lon="13.4087935"><ele>353.6</ele><time>2026-03-22T09:26:04.314Z</time></trkpt><trkpt lat="43.0462309" lon="13.4087315"><ele>351.0</ele><time>2026-03-22T09:26:05.314Z</time></trkpt><trkpt lat="43.0461282" lon="13.4086697"><ele>349.0</ele><time>2026-03-22T09:26:06.314Z</time></trkpt><trkpt lat="43.0460262" lon="13.4086134"><ele>347.0</ele><time>2026-03-22T09:26:07.314Z</time></trkpt><trkpt lat="43.0459224" lon="13.4085549"><ele>345.0</ele><time>2026-03-22T09:26:08.314Z</time></trkpt><trkpt lat="43.0458289" lon="13.4085007"><ele>343.0</ele><time>2026-03-22T09:26:09.314Z</time></trkpt><trkpt lat="43.0457362" lon="13.4084528"><ele>341.0</ele><time>2026-03-22T09:26:10.314Z</time></trkpt><trkpt lat="43.0456438" lon="13.408426"><ele>339.20000000000005</ele><time>2026-03-22T09:26:11.314Z</time></trkpt><trkpt lat="43.045549" lon="13.4084164"><ele>337.40000000000003</ele><time>2026-03-22T09:26:12.314Z</time></trkpt><trkpt lat="43.0454615" lon="13.4084103"><ele>335.6</ele><time>2026-03-22T09:26:13.314Z</time></trkpt><trkpt lat="43.0453741" lon="13.4084077"><ele>333.8</ele><time>2026-03-22T09:26:14.314Z</time></trkpt><trkpt lat="43.0452841" lon="13.4084074"><ele>332.0</ele><time>2026-03-22T09:26:15.314Z</time></trkpt><trkpt lat="43.0451939" lon="13.408405"><ele>332.0</ele><time>2026-03-22T09:26:16.314Z</time></trkpt><trkpt lat="43.0451065" lon="13.4084046"><ele>332.0</ele><time>2026-03-22T09:26:17.314Z</time></trkpt><trkpt lat="43.0450177" lon="13.4084063"><ele>332.0</ele><time>2026-03-22T09:26:18.314Z</time></trkpt><trkpt lat="43.0449284" lon="13.4084174"><ele>332.0</ele><time>2026-03-22T09:26:19.314Z</time></trkpt><trkpt lat="43.0448398" lon="13.4084395"><ele>332.0</ele><time>2026-03-22T09:26:20.314Z</time></trkpt><trkpt lat="43.0447485" lon="13.4084723"><ele>331.40000000000003</ele><time>2026-03-22T09:26:21.314Z</time></trkpt><trkpt lat="43.0446574" lon="13.4085121"><ele>330.8</ele><time>2026-03-22T09:26:22.314Z</time></trkpt><trkpt lat="43.0445648" lon="13.4085424"><ele>330.2</ele><time>2026-03-22T09:26:23.314Z</time></trkpt><trkpt lat="43.0444729" lon="13.4085606"><ele>329.6</ele><time>2026-03-22T09:26:24.314Z</time></trkpt><trkpt lat="43.044382" lon="13.4085707"><ele>329.0</ele><time>2026-03-22T09:26:25.314Z</time></trkpt><trkpt lat="43.0442891" lon="13.4085781"><ele>329.0</ele><time>2026-03-22T09:26:26.314Z</time></trkpt><trkpt lat="43.0441952" lon="13.4085897"><ele>329.0</ele><time>2026-03-22T09:26:27.314Z</time></trkpt><trkpt lat="43.0441012" lon="13.4086033"><ele>329.0</ele><time>2026-03-22T09:26:28.314Z</time></trkpt><trkpt lat="43.0440079" lon="13.4086128"><ele>329.0</ele><time>2026-03-22T09:26:29.314Z</time></trkpt><trkpt lat="43.0439149" lon="13.4086178"><ele>329.0</ele><time>2026-03-22T09:26:30.314Z</time></trkpt><trkpt lat="43.0438203" lon="13.4086182"><ele>327.0</ele><time>2026-03-22T09:26:31.314Z</time></trkpt><trkpt lat="43.0437241" lon="13.4086195"><ele>325.0</ele><time>2026-03-22T09:26:32.314Z</time></trkpt><trkpt lat="43.043627" lon="13.4086198"><ele>323.0</ele><time>2026-03-22T09:26:33.314Z</time></trkpt><trkpt lat="43.0435265" lon="13.4086167"><ele>321.0</ele><time>2026-03-22T09:26:34.314Z</time></trkpt><trkpt lat="43.0434326" lon="13.4086092"><ele>319.0</ele><time>2026-03-22T09:26:35.314Z</time></trkpt><trkpt lat="43.0433464" lon="13.4085832"><ele>315.8571428571429</ele><time>2026-03-22T09:26:36.314Z</time></trkpt><trkpt lat="43.0432782" lon="13.4085236"><ele>312.71428571428567</ele><time>2026-03-22T09:26:37.314Z</time></trkpt><trkpt lat="43.043218" lon="13.4084616"><ele>309.57142857142856</ele><time>2026-03-22T09:26:38.314Z</time></trkpt><trkpt lat="43.0431521" lon="13.4084262"><ele>306.42857142857144</ele><time>2026-03-22T09:26:39.314Z</time></trkpt><trkpt lat="43.0430854" lon="13.4084425"><ele>303.28571428571433</ele><time>2026-03-22T09:26:40.314Z</time></trkpt><trkpt lat="43.0430325" lon="13.4085016"><ele>300.14285714285717</ele><time>2026-03-22T09:26:41.314Z</time></trkpt><trkpt lat="43.0430002" lon="13.4085989"><ele>297.0</ele><time>2026-03-22T09:26:42.314Z</time></trkpt><trkpt lat="43.0429879" lon="13.4087336"><ele>297.5</ele><time>2026-03-22T09:26:43.314Z</time></trkpt><trkpt lat="43.0429857" lon="13.4089079"><ele>298.0</ele><time>2026-03-22T09:26:44.314Z</time></trkpt><trkpt lat="43.0429834" lon="13.4090798"><ele>298.5</ele><time>2026-03-22T09:26:45.314Z</time></trkpt><trkpt lat="43.0429784" lon="13.4092342"><ele>299.0</ele><time>2026-03-22T09:26:46.314Z</time></trkpt><trkpt lat="43.0429698" lon="13.4093681"><ele>299.0</ele><time>2026-03-22T09:26:47.313Z</time></trkpt><trkpt lat="43.0429489" lon="13.4094831"><ele>299.0</ele><time>2026-03-22T09:26:48.314Z</time></trkpt><trkpt lat="43.0429021" lon="13.4095703"><ele>299.0</ele><time>2026-03-22T09:26:49.314Z</time></trkpt><trkpt lat="43.0428337" lon="13.4096228"><ele>299.0</ele><time>2026-03-22T09:26:50.314Z</time></trkpt><trkpt lat="43.0427538" lon="13.4096308"><ele>299.0</ele><time>2026-03-22T09:26:51.314Z</time></trkpt><trkpt lat="43.0426715" lon="13.4095985"><ele>299.0</ele><time>2026-03-22T09:26:52.314Z</time></trkpt><trkpt lat="43.0425853" lon="13.4095525"><ele>299.0</ele><time>2026-03-22T09:26:53.314Z</time></trkpt><trkpt lat="43.0424905" lon="13.4095172"><ele>299.0</ele><time>2026-03-22T09:26:54.314Z</time></trkpt><trkpt lat="43.0424074" lon="13.4094747"><ele>299.0</ele><time>2026-03-22T09:26:55.314Z</time></trkpt><trkpt lat="43.0423383" lon="13.4094199"><ele>299.0</ele><time>2026-03-22T09:26:56.313Z</time></trkpt><trkpt lat="43.0422873" lon="13.4093398"><ele>299.0</ele><time>2026-03-22T09:26:57.314Z</time></trkpt><trkpt lat="43.0422723" lon="13.4092345"><ele>299.0</ele><time>2026-03-22T09:26:58.313Z</time></trkpt><trkpt lat="43.04229" lon="13.4091157"><ele>294.8</ele><time>2026-03-22T09:26:59.314Z</time></trkpt><trkpt lat="43.0423148" lon="13.4089795"><ele>290.59999999999997</ele><time>2026-03-22T09:27:00.314Z</time></trkpt><trkpt lat="43.0423177" lon="13.4088286"><ele>286.4</ele><time>2026-03-22T09:27:01.314Z</time></trkpt><trkpt lat="43.0423185" lon="13.4086747"><ele>282.2</ele><time>2026-03-22T09:27:02.314Z</time></trkpt><trkpt lat="43.0423252" lon="13.4085204"><ele>278.0</ele><time>2026-03-22T09:27:03.314Z</time></trkpt><trkpt lat="43.0423325" lon="13.4083663"><ele>278.0</ele><time>2026-03-22T09:27:04.314Z</time></trkpt><trkpt lat="43.0423365" lon="13.40821"><ele>278.0</ele><time>2026-03-22T09:27:05.314Z</time></trkpt><trkpt lat="43.0423419" lon="13.4080532"><ele>278.0</ele><time>2026-03-22T09:27:06.314Z</time></trkpt><trkpt lat="43.0423456" lon="13.4078962"><ele>278.0</ele><time>2026-03-22T09:27:07.314Z</time></trkpt><trkpt lat="43.0423492" lon="13.4077401"><ele>278.0</ele><time>2026-03-22T09:27:08.314Z</time></trkpt><trkpt lat="43.0423441" lon="13.4075853"><ele>278.0</ele><time>2026-03-22T09:27:09.314Z</time></trkpt><trkpt lat="43.0423198" lon="13.4074374"><ele>278.0</ele><time>2026-03-22T09:27:10.314Z</time></trkpt><trkpt lat="43.0422903" lon="13.4072955"><ele>278.0</ele><time>2026-03-22T09:27:11.314Z</time></trkpt><trkpt lat="43.0422596" lon="13.4071569"><ele>278.0</ele><time>2026-03-22T09:27:12.314Z</time></trkpt><trkpt lat="43.0422291" lon="13.4070216"><ele>278.6</ele><time>2026-03-22T09:27:13.314Z</time></trkpt><trkpt lat="43.0421974" lon="13.4068877"><ele>279.20000000000005</ele><time>2026-03-22T09:27:14.314Z</time></trkpt><trkpt lat="43.0421621" lon="13.4067513"><ele>279.8</ele><time>2026-03-22T09:27:15.314Z</time></trkpt><trkpt lat="43.0421264" lon="13.4066147"><ele>280.40000000000003</ele><time>2026-03-22T09:27:16.314Z</time></trkpt><trkpt lat="43.0420941" lon="13.4064781"><ele>281.0</ele><time>2026-03-22T09:27:17.314Z</time></trkpt><trkpt lat="43.0420885" lon="13.406383"><ele>281.0</ele><time>2026-03-22T09:27:18.314Z</time></trkpt><trkpt lat="43.0421703" lon="13.4062673"><ele>281.0</ele><time>2026-03-22T09:27:20.314Z</time></trkpt><trkpt lat="43.0422575" lon="13.4062339"><ele>281.0</ele><time>2026-03-22T09:27:21.314Z</time></trkpt><trkpt lat="43.0423612" lon="13.4062141"><ele>281.0</ele><time>2026-03-22T09:27:22.314Z</time></trkpt><trkpt lat="43.0424648" lon="13.4061792"><ele>281.0</ele><time>2026-03-22T09:27:23.314Z</time></trkpt><trkpt lat="43.0425545" lon="13.4060844"><ele>281.0</ele><time>2026-03-22T09:27:24.314Z</time></trkpt><trkpt lat="43.0426412" lon="13.4059838"><ele>281.0</ele><time>2026-03-22T09:27:25.313Z</time></trkpt><trkpt lat="43.0427074" lon="13.4058623"><ele>281.0</ele><time>2026-03-22T09:27:26.314Z</time></trkpt><trkpt lat="43.0427518" lon="13.405733"><ele>281.0</ele><time>2026-03-22T09:27:27.314Z</time></trkpt><trkpt lat="43.0427748" lon="13.405602"><ele>281.0</ele><time>2026-03-22T09:27:28.314Z</time></trkpt><trkpt lat="43.0427698" lon="13.4054721"><ele>280.8</ele><time>2026-03-22T09:27:29.314Z</time></trkpt><trkpt lat="43.0427296" lon="13.4053595"><ele>280.6</ele><time>2026-03-22T09:27:30.314Z</time></trkpt><trkpt lat="43.0426637" lon="13.4052821"><ele>280.4</ele><time>2026-03-22T09:27:31.314Z</time></trkpt><trkpt lat="43.0425848" lon="13.405231"><ele>280.2</ele><time>2026-03-22T09:27:32.314Z</time></trkpt><trkpt lat="43.0425083" lon="13.4051613"><ele>280.0</ele><time>2026-03-22T09:27:33.313Z</time></trkpt><trkpt lat="43.042437" lon="13.4050707"><ele>280.6</ele><time>2026-03-22T09:27:34.314Z</time></trkpt><trkpt lat="43.0423716" lon="13.4049579"><ele>281.2</ele><time>2026-03-22T09:27:35.314Z</time></trkpt><trkpt lat="43.0423121" lon="13.4048236"><ele>281.8</ele><time>2026-03-22T09:27:36.314Z</time></trkpt><trkpt lat="43.0422564" lon="13.4046961"><ele>282.4</ele><time>2026-03-22T09:27:37.314Z</time></trkpt><trkpt lat="43.042197" lon="13.4045728"><ele>283.0</ele><time>2026-03-22T09:27:38.314Z</time></trkpt><trkpt lat="43.0421295" lon="13.4044438"><ele>283.4</ele><time>2026-03-22T09:27:39.314Z</time></trkpt><trkpt lat="43.0420636" lon="13.4043334"><ele>283.8</ele><time>2026-03-22T09:27:40.314Z</time></trkpt><trkpt lat="43.0419961" lon="13.4042286"><ele>284.2</ele><time>2026-03-22T09:27:41.314Z</time></trkpt><trkpt lat="43.0419362" lon="13.4041346"><ele>284.6</ele><time>2026-03-22T09:27:42.314Z</time></trkpt><trkpt lat="43.0418734" lon="13.4040373"><ele>285.0</ele><time>2026-03-22T09:27:43.314Z</time></trkpt><trkpt lat="43.0418096" lon="13.4039371"><ele>285.0</ele><time>2026-03-22T09:27:44.314Z</time></trkpt><trkpt lat="43.0417449" lon="13.4038315"><ele>285.0</ele><time>2026-03-22T09:27:45.314Z</time></trkpt><trkpt lat="43.0416805" lon="13.4037226"><ele>285.0</ele><time>2026-03-22T09:27:46.314Z</time></trkpt><trkpt lat="43.041628" lon="13.40361"><ele>285.0</ele><time>2026-03-22T09:27:47.314Z</time></trkpt><trkpt lat="43.0415912" lon="13.4034872"><ele>285.0</ele><time>2026-03-22T09:27:48.314Z</time></trkpt><trkpt lat="43.0415923" lon="13.4033552"><ele>284.8</ele><time>2026-03-22T09:27:49.314Z</time></trkpt><trkpt lat="43.0416289" lon="13.403236"><ele>284.6</ele><time>2026-03-22T09:27:50.314Z</time></trkpt><trkpt lat="43.0416887" lon="13.4031265"><ele>284.4</ele><time>2026-03-22T09:27:51.314Z</time></trkpt><trkpt lat="43.0417487" lon="13.4030134"><ele>284.2</ele><time>2026-03-22T09:27:52.314Z</time></trkpt><trkpt lat="43.0418024" lon="13.4029062"><ele>284.0</ele><time>2026-03-22T09:27:53.314Z</time></trkpt><trkpt lat="43.0418302" lon="13.4027962"><ele>284.0</ele><time>2026-03-22T09:27:54.314Z</time></trkpt><trkpt lat="43.0418243" lon="13.4027073"><ele>284.0</ele><time>2026-03-22T09:27:55.314Z</time></trkpt><trkpt lat="43.0417888" lon="13.4026209"><ele>284.0</ele><time>2026-03-22T09:27:56.314Z</time></trkpt><trkpt lat="43.0417179" lon="13.4025149"><ele>284.0</ele><time>2026-03-22T09:27:57.314Z</time></trkpt><trkpt lat="43.0416477" lon="13.4024031"><ele>284.0</ele><time>2026-03-22T09:27:58.314Z</time></trkpt><trkpt lat="43.0415836" lon="13.4022854"><ele>285.4</ele><time>2026-03-22T09:27:59.314Z</time></trkpt><trkpt lat="43.04152" lon="13.4021702"><ele>286.79999999999995</ele><time>2026-03-22T09:28:00.314Z</time></trkpt><trkpt lat="43.0414549" lon="13.4020548"><ele>288.20000000000005</ele><time>2026-03-22T09:28:01.314Z</time></trkpt><trkpt lat="43.041385" lon="13.4019472"><ele>289.6</ele><time>2026-03-22T09:28:02.314Z</time></trkpt><trkpt lat="43.0412992" lon="13.4018672"><ele>291.0</ele><time>2026-03-22T09:28:03.314Z</time></trkpt><trkpt lat="43.0411981" lon="13.4018273"><ele>293.2</ele><time>2026-03-22T09:28:04.314Z</time></trkpt><trkpt lat="43.0410915" lon="13.4018054"><ele>295.40000000000003</ele><time>2026-03-22T09:28:05.314Z</time></trkpt><trkpt lat="43.0409884" lon="13.4017871"><ele>297.6</ele><time>2026-03-22T09:28:06.314Z</time></trkpt><trkpt lat="43.0408997" lon="13.4017602"><ele>299.8</ele><time>2026-03-22T09:28:07.314Z</time></trkpt><trkpt lat="43.0408337" lon="13.4017132"><ele>302.0</ele><time>2026-03-22T09:28:08.314Z</time></trkpt><trkpt lat="43.0407737" lon="13.4016202"><ele>306.2</ele><time>2026-03-22T09:28:09.314Z</time></trkpt><trkpt lat="43.0407138" lon="13.4014877"><ele>310.4</ele><time>2026-03-22T09:28:10.313Z</time></trkpt><trkpt lat="43.0406734" lon="13.4013745"><ele>314.59999999999997</ele><time>2026-03-22T09:28:11.314Z</time></trkpt><trkpt lat="43.0406275" lon="13.4012899"><ele>318.79999999999995</ele><time>2026-03-22T09:28:12.314Z</time></trkpt><trkpt lat="43.0405146" lon="13.401226"><ele>323.0</ele><time>2026-03-22T09:28:14.314Z</time></trkpt><trkpt lat="43.0403981" lon="13.4012967"><ele>323.33333333333337</ele><time>2026-03-22T09:28:16.314Z</time></trkpt><trkpt lat="43.0403446" lon="13.401387"><ele>323.6666666666667</ele><time>2026-03-22T09:28:17.314Z</time></trkpt><trkpt lat="43.0402922" lon="13.401499"><ele>324.0</ele><time>2026-03-22T09:28:18.314Z</time></trkpt><trkpt lat="43.0402464" lon="13.4015708"><ele>324.3333333333333</ele><time>2026-03-22T09:28:19.314Z</time></trkpt><trkpt lat="43.0401887" lon="13.4016238"><ele>324.66666666666663</ele><time>2026-03-22T09:28:20.314Z</time></trkpt><trkpt lat="43.0401231" lon="13.4016451"><ele>325.0</ele><time>2026-03-22T09:28:21.314Z</time></trkpt><trkpt lat="43.0400369" lon="13.4016382"><ele>329.0</ele><time>2026-03-22T09:28:22.314Z</time></trkpt><trkpt lat="43.0399489" lon="13.4016135"><ele>333.0</ele><time>2026-03-22T09:28:23.314Z</time></trkpt><trkpt lat="43.0398528" lon="13.4016037"><ele>337.0</ele><time>2026-03-22T09:28:24.314Z</time></trkpt><trkpt lat="43.0397672" lon="13.4016098"><ele>341.0</ele><time>2026-03-22T09:28:25.314Z</time></trkpt><trkpt lat="43.0396784" lon="13.4016325"><ele>345.0</ele><time>2026-03-22T09:28:26.314Z</time></trkpt><trkpt lat="43.0395846" lon="13.4016234"><ele>345.0</ele><time>2026-03-22T09:28:27.314Z</time></trkpt><trkpt lat="43.0394902" lon="13.4016076"><ele>345.0</ele><time>2026-03-22T09:28:28.314Z</time></trkpt><trkpt lat="43.0393791" lon="13.4015892"><ele>345.0</ele><time>2026-03-22T09:28:29.314Z</time></trkpt><trkpt lat="43.0392808" lon="13.4015634"><ele>345.0</ele><time>2026-03-22T09:28:30.314Z</time></trkpt><trkpt lat="43.0391826" lon="13.4015281"><ele>345.0</ele><time>2026-03-22T09:28:31.313Z</time></trkpt><trkpt lat="43.0390819" lon="13.4014816"><ele>347.8</ele><time>2026-03-22T09:28:32.314Z</time></trkpt><trkpt lat="43.0389872" lon="13.4014378"><ele>350.6</ele><time>2026-03-22T09:28:33.314Z</time></trkpt><trkpt lat="43.0388903" lon="13.401403"><ele>353.4</ele><time>2026-03-22T09:28:34.313Z</time></trkpt><trkpt lat="43.0387959" lon="13.4013627"><ele>356.2</ele><time>2026-03-22T09:28:35.314Z</time></trkpt><trkpt lat="43.0387033" lon="13.4013238"><ele>359.0</ele><time>2026-03-22T09:28:36.314Z</time></trkpt><trkpt lat="43.0386053" lon="13.4012798"><ele>359.6</ele><time>2026-03-22T09:28:37.314Z</time></trkpt><trkpt lat="43.038508" lon="13.4012275"><ele>360.2</ele><time>2026-03-22T09:28:38.314Z</time></trkpt><trkpt lat="43.0384065" lon="13.401188"><ele>360.8</ele><time>2026-03-22T09:28:39.314Z</time></trkpt><trkpt lat="43.0383038" lon="13.4011519"><ele>361.40000000000003</ele><time>2026-03-22T09:28:40.314Z</time></trkpt><trkpt lat="43.0382068" lon="13.4011096"><ele>362.0</ele><time>2026-03-22T09:28:41.314Z</time></trkpt><trkpt lat="43.0381095" lon="13.4010695"><ele>366.6</ele><time>2026-03-22T09:28:42.314Z</time></trkpt><trkpt lat="43.0380033" lon="13.401024"><ele>371.20000000000005</ele><time>2026-03-22T09:28:43.314Z</time></trkpt><trkpt lat="43.0378883" lon="13.4009897"><ele>375.8</ele><time>2026-03-22T09:28:44.314Z</time></trkpt><trkpt lat="43.0377852" lon="13.400948"><ele>380.4</ele><time>2026-03-22T09:28:45.314Z</time></trkpt><trkpt lat="43.0376859" lon="13.4009028"><ele>385.0</ele><time>2026-03-22T09:28:46.314Z</time></trkpt><trkpt lat="43.0375905" lon="13.4008613"><ele>385.0</ele><time>2026-03-22T09:28:47.314Z</time></trkpt><trkpt lat="43.0374851" lon="13.4008228"><ele>385.0</ele><time>2026-03-22T09:28:48.314Z</time></trkpt><trkpt lat="43.037381" lon="13.4007825"><ele>385.0</ele><time>2026-03-22T09:28:49.314Z</time></trkpt><trkpt lat="43.037289" lon="13.4007447"><ele>385.0</ele><time>2026-03-22T09:28:50.314Z</time></trkpt><trkpt lat="43.0372097" lon="13.4007481"><ele>385.0</ele><time>2026-03-22T09:28:51.314Z</time></trkpt><trkpt lat="43.0371361" lon="13.4007837"><ele>387.33333333333337</ele><time>2026-03-22T09:28:52.314Z</time></trkpt><trkpt lat="43.0370601" lon="13.4008204"><ele>389.6666666666667</ele><time>2026-03-22T09:28:53.314Z</time></trkpt><trkpt lat="43.0369855" lon="13.4008287"><ele>392.0</ele><time>2026-03-22T09:28:54.314Z</time></trkpt><trkpt lat="43.036915" lon="13.4007991"><ele>394.33333333333337</ele><time>2026-03-22T09:28:55.314Z</time></trkpt><trkpt lat="43.0368468" lon="13.4007425"><ele>396.6666666666667</ele><time>2026-03-22T09:28:56.314Z</time></trkpt><trkpt lat="43.0367868" lon="13.4006666"><ele>399.0</ele><time>2026-03-22T09:28:57.314Z</time></trkpt><trkpt lat="43.0367343" lon="13.4005732"><ele>400.6666666666667</ele><time>2026-03-22T09:28:58.314Z</time></trkpt><trkpt lat="43.0367046" lon="13.4004727"><ele>402.33333333333337</ele><time>2026-03-22T09:28:59.313Z</time></trkpt><trkpt lat="43.0366851" lon="13.4003653"><ele>404.0</ele><time>2026-03-22T09:29:00.314Z</time></trkpt><trkpt lat="43.036662" lon="13.4002411"><ele>405.6666666666667</ele><time>2026-03-22T09:29:01.314Z</time></trkpt><trkpt lat="43.0366439" lon="13.4001198"><ele>407.33333333333337</ele><time>2026-03-22T09:29:02.314Z</time></trkpt><trkpt lat="43.0366322" lon="13.399998"><ele>409.0</ele><time>2026-03-22T09:29:03.314Z</time></trkpt><trkpt lat="43.0366191" lon="13.3998765"><ele>412.6</ele><time>2026-03-22T09:29:04.314Z</time></trkpt><trkpt lat="43.0365984" lon="13.3997519"><ele>416.2</ele><time>2026-03-22T09:29:05.314Z</time></trkpt><trkpt lat="43.0365726" lon="13.3996244"><ele>419.80000000000007</ele><time>2026-03-22T09:29:06.314Z</time></trkpt><trkpt lat="43.0365463" lon="13.3994948"><ele>423.40000000000003</ele><time>2026-03-22T09:29:07.314Z</time></trkpt><trkpt lat="43.0365221" lon="13.399362"><ele>427.0</ele><time>2026-03-22T09:29:08.314Z</time></trkpt><trkpt lat="43.0364958" lon="13.399223"><ele>429.40000000000003</ele><time>2026-03-22T09:29:09.314Z</time></trkpt><trkpt lat="43.0364738" lon="13.3990797"><ele>431.80000000000007</ele><time>2026-03-22T09:29:10.314Z</time></trkpt><trkpt lat="43.0364605" lon="13.3989422"><ele>434.2</ele><time>2026-03-22T09:29:11.314Z</time></trkpt><trkpt lat="43.0364622" lon="13.3988039"><ele>436.6</ele><time>2026-03-22T09:29:12.314Z</time></trkpt><trkpt lat="43.0364836" lon="13.3986603"><ele>439.0</ele><time>2026-03-22T09:29:13.314Z</time></trkpt><trkpt lat="43.0365216" lon="13.3985216"><ele>439.6</ele><time>2026-03-22T09:29:14.314Z</time></trkpt><trkpt lat="43.0365581" lon="13.3983776"><ele>440.2</ele><time>2026-03-22T09:29:15.314Z</time></trkpt><trkpt lat="43.036593" lon="13.3982558"><ele>440.80000000000007</ele><time>2026-03-22T09:29:16.314Z</time></trkpt><trkpt lat="43.0366101" lon="13.3981554"><ele>441.40000000000003</ele><time>2026-03-22T09:29:17.314Z</time></trkpt><trkpt lat="43.036611" lon="13.3980574"><ele>442.0</ele><time>2026-03-22T09:29:18.314Z</time></trkpt><trkpt lat="43.0365634" lon="13.397917"><ele>442.0</ele><time>2026-03-22T09:29:20.314Z</time></trkpt><trkpt lat="43.0364639" lon="13.397879"><ele>442.00000000000006</ele><time>2026-03-22T09:29:21.314Z</time></trkpt><trkpt lat="43.0363666" lon="13.3978623"><ele>442.00000000000006</ele><time>2026-03-22T09:29:22.314Z</time></trkpt><trkpt lat="43.0362683" lon="13.3978336"><ele>442.0</ele><time>2026-03-22T09:29:23.314Z</time></trkpt><trkpt lat="43.0361665" lon="13.3978123"><ele>442.0</ele><time>2026-03-22T09:29:24.314Z</time></trkpt><trkpt lat="43.0360672" lon="13.3978029"><ele>442.0</ele><time>2026-03-22T09:29:25.314Z</time></trkpt><trkpt lat="43.0359644" lon="13.3977982"><ele>442.00000000000006</ele><time>2026-03-22T09:29:26.314Z</time></trkpt><trkpt lat="43.0358645" lon="13.3978065"><ele>442.00000000000006</ele><time>2026-03-22T09:29:27.314Z</time></trkpt><trkpt lat="43.0357711" lon="13.397827"><ele>442.0</ele><time>2026-03-22T09:29:28.314Z</time></trkpt><trkpt lat="43.0356726" lon="13.3978326"><ele>442.0</ele><time>2026-03-22T09:29:29.314Z</time></trkpt><trkpt lat="43.0355727" lon="13.39782"><ele>446.25</ele><time>2026-03-22T09:29:30.314Z</time></trkpt><trkpt lat="43.0354644" lon="13.397807"><ele>450.5</ele><time>2026-03-22T09:29:31.314Z</time></trkpt><trkpt lat="43.0353289" lon="13.3977922"><ele>454.75</ele><time>2026-03-22T09:29:32.314Z</time></trkpt><trkpt lat="43.0351953" lon="13.3977666"><ele>459.0</ele><time>2026-03-22T09:29:33.314Z</time></trkpt><trkpt lat="43.0350594" lon="13.3977452"><ele>462.75</ele><time>2026-03-22T09:29:34.314Z</time></trkpt><trkpt lat="43.0349278" lon="13.3977257"><ele>466.5</ele><time>2026-03-22T09:29:35.314Z</time></trkpt><trkpt lat="43.0348004" lon="13.397699"><ele>470.25</ele><time>2026-03-22T09:29:36.314Z</time></trkpt><trkpt lat="43.0346752" lon="13.3976686"><ele>474.0</ele><time>2026-03-22T09:29:37.314Z</time></trkpt><trkpt lat="43.034548" lon="13.3976296"><ele>474.0</ele><time>2026-03-22T09:29:38.314Z</time></trkpt><trkpt lat="43.0344318" lon="13.39758"><ele>474.0</ele><time>2026-03-22T09:29:39.314Z</time></trkpt><trkpt lat="43.0343249" lon="13.3975368"><ele>474.0</ele><time>2026-03-22T09:29:40.314Z</time></trkpt><trkpt lat="43.034213" lon="13.397503"><ele>474.0</ele><time>2026-03-22T09:29:41.314Z</time></trkpt><trkpt lat="43.0340984" lon="13.397494"><ele>476.75</ele><time>2026-03-22T09:29:42.314Z</time></trkpt><trkpt lat="43.033973" lon="13.3974818"><ele>479.5</ele><time>2026-03-22T09:29:43.314Z</time></trkpt><trkpt lat="43.0338423" lon="13.397497"><ele>482.25</ele><time>2026-03-22T09:29:44.314Z</time></trkpt><trkpt lat="43.0337161" lon="13.3974982"><ele>485.0</ele><time>2026-03-22T09:29:45.314Z</time></trkpt><trkpt lat="43.0335952" lon="13.3974972"><ele>485.0</ele><time>2026-03-22T09:29:46.314Z</time></trkpt><trkpt lat="43.0334689" lon="13.3974928"><ele>485.0</ele><time>2026-03-22T09:29:47.314Z</time></trkpt><trkpt lat="43.0333392" lon="13.3974877"><ele>485.0</ele><time>2026-03-22T09:29:48.314Z</time></trkpt><trkpt lat="43.0332098" lon="13.3974811"><ele>485.0</ele><time>2026-03-22T09:29:49.313Z</time></trkpt><trkpt lat="43.0330822" lon="13.3974741"><ele>489.25</ele><time>2026-03-22T09:29:50.314Z</time></trkpt><trkpt lat="43.032955" lon="13.397469"><ele>493.5</ele><time>2026-03-22T09:29:51.314Z</time></trkpt><trkpt lat="43.0328303" lon="13.3974656"><ele>497.75</ele><time>2026-03-22T09:29:52.314Z</time></trkpt><trkpt lat="43.0327022" lon="13.3974688"><ele>502.0</ele><time>2026-03-22T09:29:53.314Z</time></trkpt><trkpt lat="43.0325707" lon="13.397471"><ele>505.5</ele><time>2026-03-22T09:29:54.314Z</time></trkpt><trkpt lat="43.0324374" lon="13.3974706"><ele>509.0</ele><time>2026-03-22T09:29:55.314Z</time></trkpt><trkpt lat="43.0323048" lon="13.3974677"><ele>512.5</ele><time>2026-03-22T09:29:56.314Z</time></trkpt><trkpt lat="43.0321736" lon="13.3974624"><ele>516.0</ele><time>2026-03-22T09:29:57.314Z</time></trkpt><trkpt lat="43.0320471" lon="13.3974546"><ele>516.0</ele><time>2026-03-22T09:29:58.314Z</time></trkpt><trkpt lat="43.0319291" lon="13.3974452"><ele>516.0</ele><time>2026-03-22T09:29:59.314Z</time></trkpt><trkpt lat="43.0318232" lon="13.3974186"><ele>516.0</ele><time>2026-03-22T09:30:00.314Z</time></trkpt><trkpt lat="43.0317185" lon="13.3973564"><ele>516.0</ele><time>2026-03-22T09:30:01.314Z</time></trkpt><trkpt lat="43.0316271" lon="13.3972689"><ele>520.8</ele><time>2026-03-22T09:30:02.314Z</time></trkpt><trkpt lat="43.0315477" lon="13.3971633"><ele>525.6</ele><time>2026-03-22T09:30:03.314Z</time></trkpt><trkpt lat="43.0314819" lon="13.3970415"><ele>530.4</ele><time>2026-03-22T09:30:04.314Z</time></trkpt><trkpt lat="43.0314238" lon="13.3969149"><ele>535.2</ele><time>2026-03-22T09:30:05.314Z</time></trkpt><trkpt lat="43.0313652" lon="13.3967913"><ele>540.0</ele><time>2026-03-22T09:30:06.314Z</time></trkpt><trkpt lat="43.031307" lon="13.3966652"><ele>540.0</ele><time>2026-03-22T09:30:07.314Z</time></trkpt><trkpt lat="43.0312449" lon="13.3965392"><ele>540.0</ele><time>2026-03-22T09:30:08.314Z</time></trkpt><trkpt lat="43.03118" lon="13.3964103"><ele>540.0</ele><time>2026-03-22T09:30:09.314Z</time></trkpt><trkpt lat="43.0311099" lon="13.3962821"><ele>540.0</ele><time>2026-03-22T09:30:10.314Z</time></trkpt><trkpt lat="43.0310325" lon="13.3961608"><ele>539.4</ele><time>2026-03-22T09:30:11.313Z</time></trkpt><trkpt lat="43.0309546" lon="13.3960594"><ele>538.8</ele><time>2026-03-22T09:30:12.314Z</time></trkpt><trkpt lat="43.03088" lon="13.3959896"><ele>538.2</ele><time>2026-03-22T09:30:13.314Z</time></trkpt><trkpt lat="43.0307936" lon="13.3959513"><ele>537.6</ele><time>2026-03-22T09:30:14.314Z</time></trkpt><trkpt lat="43.0307081" lon="13.3959233"><ele>537.0</ele><time>2026-03-22T09:30:15.313Z</time></trkpt><trkpt lat="43.0306132" lon="13.395975"><ele>538.6666666666666</ele><time>2026-03-22T09:30:16.314Z</time></trkpt><trkpt lat="43.0305096" lon="13.3959965"><ele>540.3333333333334</ele><time>2026-03-22T09:30:17.314Z</time></trkpt><trkpt lat="43.0304131" lon="13.3960138"><ele>542.0</ele><time>2026-03-22T09:30:18.314Z</time></trkpt><trkpt lat="43.030329" lon="13.3960178"><ele>543.6666666666667</ele><time>2026-03-22T09:30:19.314Z</time></trkpt><trkpt lat="43.0302544" lon="13.3960371"><ele>545.3333333333334</ele><time>2026-03-22T09:30:20.314Z</time></trkpt><trkpt lat="43.0301982" lon="13.396093"><ele>547.0</ele><time>2026-03-22T09:30:21.314Z</time></trkpt><trkpt lat="43.0301515" lon="13.3961867"><ele>547.0</ele><time>2026-03-22T09:30:22.314Z</time></trkpt><trkpt lat="43.0301093" lon="13.3963069"><ele>547.0</ele><time>2026-03-22T09:30:23.314Z</time></trkpt><trkpt lat="43.0300622" lon="13.3964127"><ele>547.0</ele><time>2026-03-22T09:30:24.314Z</time></trkpt><trkpt lat="43.0300032" lon="13.3965001"><ele>547.0</ele><time>2026-03-22T09:30:25.314Z</time></trkpt><trkpt lat="43.0299444" lon="13.3965515"><ele>547.0</ele><time>2026-03-22T09:30:26.314Z</time></trkpt><trkpt lat="43.0298444" lon="13.3965407"><ele>547.0</ele><time>2026-03-22T09:30:28.314Z</time></trkpt><trkpt lat="43.0297762" lon="13.3964854"><ele>547.8333333333334</ele><time>2026-03-22T09:30:29.314Z</time></trkpt><trkpt lat="43.0297082" lon="13.3964079"><ele>548.6666666666667</ele><time>2026-03-22T09:30:30.314Z</time></trkpt><trkpt lat="43.0296408" lon="13.3963358"><ele>549.5</ele><time>2026-03-22T09:30:31.314Z</time></trkpt><trkpt lat="43.0295786" lon="13.3962637"><ele>550.3333333333334</ele><time>2026-03-22T09:30:32.314Z</time></trkpt><trkpt lat="43.0295222" lon="13.3961809"><ele>551.1666666666666</ele><time>2026-03-22T09:30:33.314Z</time></trkpt><trkpt lat="43.0294783" lon="13.3960926"><ele>552.0</ele><time>2026-03-22T09:30:34.313Z</time></trkpt><trkpt lat="43.0294417" lon="13.396002"><ele>552.0</ele><time>2026-03-22T09:30:35.314Z</time></trkpt><trkpt lat="43.02939" lon="13.3959247"><ele>552.0</ele><time>2026-03-22T09:30:36.314Z</time></trkpt><trkpt lat="43.0293275" lon="13.3958728"><ele>552.0</ele><time>2026-03-22T09:30:37.314Z</time></trkpt><trkpt lat="43.0292613" lon="13.3958526"><ele>552.0</ele><time>2026-03-22T09:30:38.314Z</time></trkpt><trkpt lat="43.0291888" lon="13.3958609"><ele>552.0</ele><time>2026-03-22T09:30:39.313Z</time></trkpt><trkpt lat="43.0291143" lon="13.3958913"><ele>552.0</ele><time>2026-03-22T09:30:40.314Z</time></trkpt><trkpt lat="43.0290361" lon="13.3959322"><ele>551.8333333333334</ele><time>2026-03-22T09:30:41.314Z</time></trkpt><trkpt lat="43.0289544" lon="13.3959879"><ele>551.6666666666666</ele><time>2026-03-22T09:30:42.314Z</time></trkpt><trkpt lat="43.0288768" lon="13.3960473"><ele>551.5</ele><time>2026-03-22T09:30:43.314Z</time></trkpt><trkpt lat="43.0288138" lon="13.3960988"><ele>551.3333333333333</ele><time>2026-03-22T09:30:44.314Z</time></trkpt><trkpt lat="43.028752" lon="13.3961474"><ele>551.1666666666666</ele><time>2026-03-22T09:30:45.314Z</time></trkpt><trkpt lat="43.028691" lon="13.3961875"><ele>551.0</ele><time>2026-03-22T09:30:46.314Z</time></trkpt><trkpt lat="43.0286382" lon="13.3962501"><ele>552.5714285714286</ele><time>2026-03-22T09:30:49.314Z</time></trkpt><trkpt lat="43.0286622" lon="13.3963467"><ele>554.1428571428571</ele><time>2026-03-22T09:31:33.314Z</time></trkpt><trkpt lat="43.0286548" lon="13.3964369"><ele>555.7142857142858</ele><time>2026-03-22T09:31:36.314Z</time></trkpt><trkpt lat="43.0286079" lon="13.3965106"><ele>557.2857142857142</ele><time>2026-03-22T09:31:48.314Z</time></trkpt><trkpt lat="43.0285493" lon="13.3965554"><ele>558.8571428571429</ele><time>2026-03-22T09:36:02.314Z</time></trkpt><trkpt lat="43.0285037" lon="13.396652"><ele>560.4285714285714</ele><time>2026-03-22T09:36:04.314Z</time></trkpt><trkpt lat="43.0284587" lon="13.3967239"><ele>562.0</ele><time>2026-03-22T09:36:05.314Z</time></trkpt><trkpt lat="43.0283886" lon="13.3967906"><ele>562.2</ele><time>2026-03-22T09:36:06.314Z</time></trkpt><trkpt lat="43.02829" lon="13.3968693"><ele>562.4000000000001</ele><time>2026-03-22T09:36:07.314Z</time></trkpt><trkpt lat="43.0281912" lon="13.396945"><ele>562.5999999999999</ele><time>2026-03-22T09:36:08.314Z</time></trkpt><trkpt lat="43.0280955" lon="13.3970105"><ele>562.8</ele><time>2026-03-22T09:36:09.314Z</time></trkpt><trkpt lat="43.0279953" lon="13.3970681"><ele>563.0</ele><time>2026-03-22T09:36:10.314Z</time></trkpt><trkpt lat="43.0278882" lon="13.3971135"><ele>563.0</ele><time>2026-03-22T09:36:11.314Z</time></trkpt><trkpt lat="43.0277785" lon="13.3971474"><ele>563.0</ele><time>2026-03-22T09:36:12.314Z</time></trkpt><trkpt lat="43.0276672" lon="13.3971641"><ele>563.0</ele><time>2026-03-22T09:36:13.314Z</time></trkpt><trkpt lat="43.0275503" lon="13.3971788"><ele>563.0</ele><time>2026-03-22T09:36:14.314Z</time></trkpt><trkpt lat="43.0274182" lon="13.3972048"><ele>568.0</ele><time>2026-03-22T09:36:15.314Z</time></trkpt><trkpt lat="43.0272942" lon="13.3972233"><ele>573.0</ele><time>2026-03-22T09:36:16.313Z</time></trkpt><trkpt lat="43.0271676" lon="13.3972291"><ele>578.0</ele><time>2026-03-22T09:36:17.314Z</time></trkpt><trkpt lat="43.0270286" lon="13.3972316"><ele>583.0</ele><time>2026-03-22T09:36:18.313Z</time></trkpt><trkpt lat="43.0268884" lon="13.3972391"><ele>583.0</ele><time>2026-03-22T09:36:19.314Z</time></trkpt><trkpt lat="43.0267393" lon="13.3972773"><ele>583.0</ele><time>2026-03-22T09:36:20.313Z</time></trkpt><trkpt lat="43.0265886" lon="13.3973242"><ele>583.0</ele><time>2026-03-22T09:36:21.314Z</time></trkpt><trkpt lat="43.0264365" lon="13.3973918"><ele>585.25</ele><time>2026-03-22T09:36:22.314Z</time></trkpt><trkpt lat="43.0262906" lon="13.3974465"><ele>587.5</ele><time>2026-03-22T09:36:23.314Z</time></trkpt><trkpt lat="43.0261551" lon="13.3975049"><ele>589.75</ele><time>2026-03-22T09:36:24.314Z</time></trkpt><trkpt lat="43.0260231" lon="13.3975735"><ele>592.0</ele><time>2026-03-22T09:36:25.313Z</time></trkpt><trkpt lat="43.0258967" lon="13.3976461"><ele>594.0</ele><time>2026-03-22T09:36:26.313Z</time></trkpt><trkpt lat="43.0257698" lon="13.3977152"><ele>596.0</ele><time>2026-03-22T09:36:27.314Z</time></trkpt><trkpt lat="43.0256412" lon="13.3977839"><ele>598.0</ele><time>2026-03-22T09:36:28.314Z</time></trkpt><trkpt lat="43.0255288" lon="13.3978258"><ele>600.0</ele><time>2026-03-22T09:36:29.314Z</time></trkpt><trkpt lat="43.0254221" lon="13.3978352"><ele>600.0</ele><time>2026-03-22T09:36:30.314Z</time></trkpt><trkpt lat="43.0253085" lon="13.3978264"><ele>600.0</ele><time>2026-03-22T09:36:31.314Z</time></trkpt><trkpt lat="43.0251905" lon="13.3977853"><ele>600.0</ele><time>2026-03-22T09:36:32.314Z</time></trkpt><trkpt lat="43.025052" lon="13.3977431"><ele>600.0</ele><time>2026-03-22T09:36:33.314Z</time></trkpt><trkpt lat="43.0249021" lon="13.3976872"><ele>601.0</ele><time>2026-03-22T09:36:34.314Z</time></trkpt><trkpt lat="43.0247564" lon="13.3976285"><ele>602.0</ele><time>2026-03-22T09:36:35.314Z</time></trkpt><trkpt lat="43.0246192" lon="13.3975734"><ele>603.0</ele><time>2026-03-22T09:36:36.314Z</time></trkpt><trkpt lat="43.0244876" lon="13.3975276"><ele>604.0</ele><time>2026-03-22T09:36:37.314Z</time></trkpt><trkpt lat="43.0243572" lon="13.397495"><ele>604.0</ele><time>2026-03-22T09:36:38.314Z</time></trkpt><trkpt lat="43.0242247" lon="13.3974784"><ele>604.0</ele><time>2026-03-22T09:36:39.314Z</time></trkpt><trkpt lat="43.024095" lon="13.3974587"><ele>604.0</ele><time>2026-03-22T09:36:40.314Z</time></trkpt><trkpt lat="43.0239724" lon="13.3974444"><ele>604.0</ele><time>2026-03-22T09:36:41.314Z</time></trkpt><trkpt lat="43.0238622" lon="13.3974294"><ele>602.2</ele><time>2026-03-22T09:36:42.314Z</time></trkpt><trkpt lat="43.0237601" lon="13.3974157"><ele>600.4</ele><time>2026-03-22T09:36:43.314Z</time></trkpt><trkpt lat="43.0236648" lon="13.3974027"><ele>598.6</ele><time>2026-03-22T09:36:44.313Z</time></trkpt><trkpt lat="43.023578" lon="13.3973923"><ele>596.8</ele><time>2026-03-22T09:36:45.314Z</time></trkpt><trkpt lat="43.0234823" lon="13.3973941"><ele>595.0</ele><time>2026-03-22T09:36:46.314Z</time></trkpt><trkpt lat="43.0233747" lon="13.3974177"><ele>591.25</ele><time>2026-03-22T09:36:47.314Z</time></trkpt><trkpt lat="43.0232641" lon="13.3974536"><ele>587.5</ele><time>2026-03-22T09:36:48.314Z</time></trkpt><trkpt lat="43.0231456" lon="13.3974991"><ele>583.75</ele><time>2026-03-22T09:36:49.314Z</time></trkpt><trkpt lat="43.0230259" lon="13.3975444"><ele>580.0</ele><time>2026-03-22T09:36:50.314Z</time></trkpt><trkpt lat="43.0229426" lon="13.3976017"><ele>580.0</ele><time>2026-03-22T09:36:51.314Z</time></trkpt><trkpt lat="43.0228787" lon="13.3976742"><ele>580.0</ele><time>2026-03-22T09:36:52.314Z</time></trkpt><trkpt lat="43.0228441" lon="13.3977698"><ele>580.0</ele><time>2026-03-22T09:36:53.314Z</time></trkpt><trkpt lat="43.0228398" lon="13.3978822"><ele>580.0</ele><time>2026-03-22T09:36:54.314Z</time></trkpt><trkpt lat="43.0228716" lon="13.3980213"><ele>580.0</ele><time>2026-03-22T09:36:55.314Z</time></trkpt><trkpt lat="43.0229321" lon="13.3981899"><ele>579.6666666666667</ele><time>2026-03-22T09:36:56.314Z</time></trkpt><trkpt lat="43.0230099" lon="13.398389"><ele>579.3333333333334</ele><time>2026-03-22T09:36:57.314Z</time></trkpt><trkpt lat="43.0230926" lon="13.3985892"><ele>579.0</ele><time>2026-03-22T09:36:58.314Z</time></trkpt><trkpt lat="43.0231669" lon="13.3987699"><ele>577.4</ele><time>2026-03-22T09:36:59.314Z</time></trkpt><trkpt lat="43.0232311" lon="13.3989385"><ele>575.8</ele><time>2026-03-22T09:37:00.314Z</time></trkpt><trkpt lat="43.0232694" lon="13.3990849"><ele>574.2</ele><time>2026-03-22T09:37:01.314Z</time></trkpt><trkpt lat="43.0232937" lon="13.3992102"><ele>572.6</ele><time>2026-03-22T09:37:02.314Z</time></trkpt><trkpt lat="43.0232839" lon="13.3993129"><ele>571.0</ele><time>2026-03-22T09:37:03.313Z</time></trkpt><trkpt lat="43.0232244" lon="13.3993759"><ele>571.0</ele><time>2026-03-22T09:37:05.314Z</time></trkpt><trkpt lat="43.0231735" lon="13.399273"><ele>571.0</ele><time>2026-03-22T09:37:07.314Z</time></trkpt><trkpt lat="43.0231444" lon="13.3991526"><ele>571.0</ele><time>2026-03-22T09:37:08.314Z</time></trkpt><trkpt lat="43.0231098" lon="13.3990148"><ele>571.0</ele><time>2026-03-22T09:37:09.314Z</time></trkpt><trkpt lat="43.0230422" lon="13.3989033"><ele>571.0</ele><time>2026-03-22T09:37:10.314Z</time></trkpt><trkpt lat="43.0229626" lon="13.3988041"><ele>571.0</ele><time>2026-03-22T09:37:11.314Z</time></trkpt><trkpt lat="43.0228013" lon="13.3987702"><ele>571.0</ele><time>2026-03-22T09:37:12.314Z</time></trkpt><trkpt lat="43.022645" lon="13.3987274"><ele>571.0</ele><time>2026-03-22T09:37:13.314Z</time></trkpt><trkpt lat="43.0224584" lon="13.3986829"><ele>571.0</ele><time>2026-03-22T09:37:14.314Z</time></trkpt><trkpt lat="43.0222566" lon="13.3986375"><ele>571.0</ele><time>2026-03-22T09:37:15.314Z</time></trkpt><trkpt lat="43.0220687" lon="13.3985976"><ele>571.0</ele><time>2026-03-22T09:37:16.314Z</time></trkpt><trkpt lat="43.0218939" lon="13.398567"><ele>571.0</ele><time>2026-03-22T09:37:17.314Z</time></trkpt><trkpt lat="43.0217375" lon="13.3985395"><ele>571.0</ele><time>2026-03-22T09:37:18.314Z</time></trkpt><trkpt lat="43.021604" lon="13.3985"><ele>571.0</ele><time>2026-03-22T09:37:19.314Z</time></trkpt><trkpt lat="43.0215011" lon="13.3984315"><ele>571.0</ele><time>2026-03-22T09:37:20.314Z</time></trkpt><trkpt lat="43.0214328" lon="13.3983304"><ele>568.75</ele><time>2026-03-22T09:37:21.314Z</time></trkpt><trkpt lat="43.0214096" lon="13.3982202"><ele>566.5</ele><time>2026-03-22T09:37:22.314Z</time></trkpt><trkpt lat="43.0214222" lon="13.3980917"><ele>564.25</ele><time>2026-03-22T09:37:23.314Z</time></trkpt><trkpt lat="43.021464" lon="13.3979323"><ele>562.0</ele><time>2026-03-22T09:37:24.314Z</time></trkpt><trkpt lat="43.0215266" lon="13.3977414"><ele>562.0</ele><time>2026-03-22T09:37:25.313Z</time></trkpt><trkpt lat="43.0216004" lon="13.3975269"><ele>562.0</ele><time>2026-03-22T09:37:26.314Z</time></trkpt><trkpt lat="43.0216771" lon="13.3972883"><ele>562.0</ele><time>2026-03-22T09:37:27.314Z</time></trkpt><trkpt lat="43.0217551" lon="13.3970651"><ele>562.0</ele><time>2026-03-22T09:37:28.314Z</time></trkpt><trkpt lat="43.0218314" lon="13.3968538"><ele>562.0</ele><time>2026-03-22T09:37:29.314Z</time></trkpt><trkpt lat="43.0218954" lon="13.3966573"><ele>562.0</ele><time>2026-03-22T09:37:30.314Z</time></trkpt><trkpt lat="43.0219379" lon="13.396461"><ele>559.3333333333334</ele><time>2026-03-22T09:37:31.314Z</time></trkpt><trkpt lat="43.0219504" lon="13.396246"><ele>556.6666666666666</ele><time>2026-03-22T09:37:32.314Z</time></trkpt><trkpt lat="43.0219303" lon="13.3960008"><ele>554.0</ele><time>2026-03-22T09:37:33.314Z</time></trkpt><trkpt lat="43.0219062" lon="13.3957731"><ele>554.0</ele><time>2026-03-22T09:37:34.314Z</time></trkpt><trkpt lat="43.0218839" lon="13.3955718"><ele>554.0</ele><time>2026-03-22T09:37:35.314Z</time></trkpt><trkpt lat="43.0218769" lon="13.3953962"><ele>554.0</ele><time>2026-03-22T09:37:36.314Z</time></trkpt><trkpt lat="43.0218898" lon="13.3952564"><ele>554.0</ele><time>2026-03-22T09:37:37.314Z</time></trkpt><trkpt lat="43.0219162" lon="13.3951605"><ele>553.8</ele><time>2026-03-22T09:37:38.314Z</time></trkpt><trkpt lat="43.0220048" lon="13.3950457"><ele>553.5999999999999</ele><time>2026-03-22T09:37:40.314Z</time></trkpt><trkpt lat="43.022077" lon="13.3950059"><ele>553.4</ele><time>2026-03-22T09:37:41.314Z</time></trkpt><trkpt lat="43.0221729" lon="13.3949643"><ele>553.1999999999999</ele><time>2026-03-22T09:37:42.314Z</time></trkpt><trkpt lat="43.022286" lon="13.3949075"><ele>553.0</ele><time>2026-03-22T09:37:43.314Z</time></trkpt><trkpt lat="43.0224131" lon="13.3948361"><ele>551.3333333333334</ele><time>2026-03-22T09:37:44.314Z</time></trkpt><trkpt lat="43.0225392" lon="13.3947364"><ele>549.6666666666666</ele><time>2026-03-22T09:37:45.314Z</time></trkpt><trkpt lat="43.0226693" lon="13.3946093"><ele>548.0</ele><time>2026-03-22T09:37:46.314Z</time></trkpt><trkpt lat="43.0228063" lon="13.3944647"><ele>548.0</ele><time>2026-03-22T09:37:47.314Z</time></trkpt><trkpt lat="43.0229419" lon="13.3943009"><ele>548.0</ele><time>2026-03-22T09:37:48.314Z</time></trkpt><trkpt lat="43.0230845" lon="13.3941202"><ele>548.0</ele><time>2026-03-22T09:37:49.314Z</time></trkpt><trkpt lat="43.0232147" lon="13.3938946"><ele>548.0</ele><time>2026-03-22T09:37:50.314Z</time></trkpt><trkpt lat="43.0233506" lon="13.3936586"><ele>548.0</ele><time>2026-03-22T09:37:51.314Z</time></trkpt><trkpt lat="43.0234901" lon="13.3934191"><ele>548.0</ele><time>2026-03-22T09:37:52.314Z</time></trkpt><trkpt lat="43.0236171" lon="13.3931836"><ele>544.0</ele><time>2026-03-22T09:37:53.314Z</time></trkpt><trkpt lat="43.0237334" lon="13.3929623"><ele>540.0</ele><time>2026-03-22T09:37:54.314Z</time></trkpt><trkpt lat="43.0238368" lon="13.3927495"><ele>536.0</ele><time>2026-03-22T09:37:55.314Z</time></trkpt><trkpt lat="43.0239243" lon="13.3925504"><ele>536.0</ele><time>2026-03-22T09:37:56.314Z</time></trkpt><trkpt lat="43.0239924" lon="13.3923604"><ele>536.0</ele><time>2026-03-22T09:37:57.314Z</time></trkpt><trkpt lat="43.024039" lon="13.3921673"><ele>536.0</ele><time>2026-03-22T09:37:58.314Z</time></trkpt><trkpt lat="43.0240583" lon="13.3919578"><ele>533.3333333333333</ele><time>2026-03-22T09:37:59.314Z</time></trkpt><trkpt lat="43.0240595" lon="13.3917371"><ele>530.6666666666666</ele><time>2026-03-22T09:38:00.314Z</time></trkpt><trkpt lat="43.0240509" lon="13.3915041"><ele>528.0</ele><time>2026-03-22T09:38:01.314Z</time></trkpt><trkpt lat="43.0240475" lon="13.3912593"><ele>526.6666666666666</ele><time>2026-03-22T09:38:02.314Z</time></trkpt><trkpt lat="43.0240434" lon="13.3910175"><ele>525.3333333333333</ele><time>2026-03-22T09:38:03.314Z</time></trkpt><trkpt lat="43.0240345" lon="13.3907623"><ele>524.0</ele><time>2026-03-22T09:38:04.314Z</time></trkpt><trkpt lat="43.0240215" lon="13.3905183"><ele>524.6666666666666</ele><time>2026-03-22T09:38:05.314Z</time></trkpt><trkpt lat="43.0240061" lon="13.3902858"><ele>525.3333333333334</ele><time>2026-03-22T09:38:06.314Z</time></trkpt><trkpt lat="43.0239778" lon="13.3900573"><ele>526.0</ele><time>2026-03-22T09:38:07.314Z</time></trkpt><trkpt lat="43.0239358" lon="13.3898298"><ele>528.6666666666667</ele><time>2026-03-22T09:38:08.314Z</time></trkpt><trkpt lat="43.0238713" lon="13.3896074"><ele>531.3333333333334</ele><time>2026-03-22T09:38:09.314Z</time></trkpt><trkpt lat="43.0238038" lon="13.3893979"><ele>534.0</ele><time>2026-03-22T09:38:10.313Z</time></trkpt><trkpt lat="43.023733" lon="13.3892018"><ele>534.0</ele><time>2026-03-22T09:38:11.314Z</time></trkpt><trkpt lat="43.0236516" lon="13.3890163"><ele>534.0</ele><time>2026-03-22T09:38:12.314Z</time></trkpt><trkpt lat="43.0235524" lon="13.3888342"><ele>534.0</ele><time>2026-03-22T09:38:13.314Z</time></trkpt><trkpt lat="43.0234438" lon="13.388667"><ele>532.6666666666666</ele><time>2026-03-22T09:38:14.314Z</time></trkpt><trkpt lat="43.0233372" lon="13.38852"><ele>531.3333333333333</ele><time>2026-03-22T09:38:15.313Z</time></trkpt><trkpt lat="43.0232388" lon="13.3883688"><ele>530.0</ele><time>2026-03-22T09:38:16.314Z</time></trkpt><trkpt lat="43.0231707" lon="13.3881719"><ele>534.0</ele><time>2026-03-22T09:38:17.314Z</time></trkpt><trkpt lat="43.023104" lon="13.3879684"><ele>538.0</ele><time>2026-03-22T09:38:18.314Z</time></trkpt><trkpt lat="43.0230335" lon="13.3877605"><ele>542.0</ele><time>2026-03-22T09:38:19.313Z</time></trkpt><trkpt lat="43.0229533" lon="13.3875568"><ele>542.0</ele><time>2026-03-22T09:38:20.314Z</time></trkpt><trkpt lat="43.0228673" lon="13.3873569"><ele>542.0</ele><time>2026-03-22T09:38:21.314Z</time></trkpt><trkpt lat="43.0227658" lon="13.387167"><ele>542.0</ele><time>2026-03-22T09:38:22.314Z</time></trkpt><trkpt lat="43.0226499" lon="13.3869878"><ele>541.0</ele><time>2026-03-22T09:38:23.314Z</time></trkpt><trkpt lat="43.0225275" lon="13.3868189"><ele>540.0</ele><time>2026-03-22T09:38:24.314Z</time></trkpt><trkpt lat="43.0224036" lon="13.3866443"><ele>539.0</ele><time>2026-03-22T09:38:25.314Z</time></trkpt><trkpt lat="43.0222843" lon="13.3864569"><ele>544.0</ele><time>2026-03-22T09:38:26.314Z</time></trkpt><trkpt lat="43.0221648" lon="13.3862576"><ele>549.0</ele><time>2026-03-22T09:38:27.314Z</time></trkpt><trkpt lat="43.0220475" lon="13.3860516"><ele>554.0</ele><time>2026-03-22T09:38:28.314Z</time></trkpt><trkpt lat="43.0219285" lon="13.385848"><ele>554.0</ele><time>2026-03-22T09:38:29.314Z</time></trkpt><trkpt lat="43.0218132" lon="13.385654"><ele>554.0</ele><time>2026-03-22T09:38:30.314Z</time></trkpt><trkpt lat="43.021701" lon="13.3854615"><ele>554.0</ele><time>2026-03-22T09:38:31.314Z</time></trkpt><trkpt lat="43.0215893" lon="13.3852725"><ele>552.0</ele><time>2026-03-22T09:38:32.314Z</time></trkpt><trkpt lat="43.0214694" lon="13.3850933"><ele>550.0</ele><time>2026-03-22T09:38:33.314Z</time></trkpt><trkpt lat="43.0213448" lon="13.384923"><ele>548.0</ele><time>2026-03-22T09:38:34.314Z</time></trkpt><trkpt lat="43.02122" lon="13.3847553"><ele>553.6666666666666</ele><time>2026-03-22T09:38:35.314Z</time></trkpt><trkpt lat="43.0210958" lon="13.3845897"><ele>559.3333333333334</ele><time>2026-03-22T09:38:36.314Z</time></trkpt><trkpt lat="43.0209791" lon="13.3844294"><ele>565.0</ele><time>2026-03-22T09:38:37.314Z</time></trkpt><trkpt lat="43.020868" lon="13.384279"><ele>560.25</ele><time>2026-03-22T09:38:38.314Z</time></trkpt><trkpt lat="43.0207657" lon="13.3841328"><ele>555.5</ele><time>2026-03-22T09:38:39.314Z</time></trkpt><trkpt lat="43.0206876" lon="13.3839967"><ele>550.75</ele><time>2026-03-22T09:38:40.314Z</time></trkpt><trkpt lat="43.0206368" lon="13.3838673"><ele>546.0</ele><time>2026-03-22T09:38:41.314Z</time></trkpt><trkpt lat="43.020624" lon="13.3837541"><ele>546.0</ele><time>2026-03-22T09:38:42.314Z</time></trkpt><trkpt lat="43.0206488" lon="13.3836425"><ele>546.0</ele><time>2026-03-22T09:38:43.314Z</time></trkpt><trkpt lat="43.0207067" lon="13.3835283"><ele>546.0</ele><time>2026-03-22T09:38:44.314Z</time></trkpt><trkpt lat="43.0207888" lon="13.3834159"><ele>546.0</ele><time>2026-03-22T09:38:45.314Z</time></trkpt><trkpt lat="43.020892" lon="13.3832976"><ele>546.0</ele><time>2026-03-22T09:38:46.314Z</time></trkpt><trkpt lat="43.0209944" lon="13.3831599"><ele>547.5</ele><time>2026-03-22T09:38:47.314Z</time></trkpt><trkpt lat="43.0210787" lon="13.3829999"><ele>549.0</ele><time>2026-03-22T09:38:48.314Z</time></trkpt><trkpt lat="43.0211461" lon="13.3828234"><ele>550.5</ele><time>2026-03-22T09:38:49.314Z</time></trkpt><trkpt lat="43.0211944" lon="13.3826439"><ele>552.0</ele><time>2026-03-22T09:38:50.313Z</time></trkpt><trkpt lat="43.0212354" lon="13.3824768"><ele>552.0</ele><time>2026-03-22T09:38:51.314Z</time></trkpt><trkpt lat="43.0212788" lon="13.3823328"><ele>552.0</ele><time>2026-03-22T09:38:52.314Z</time></trkpt><trkpt lat="43.0213516" lon="13.3821912"><ele>552.0</ele><time>2026-03-22T09:38:53.314Z</time></trkpt><trkpt lat="43.0214489" lon="13.3820548"><ele>552.0</ele><time>2026-03-22T09:38:54.314Z</time></trkpt><trkpt lat="43.0215599" lon="13.3819274"><ele>554.25</ele><time>2026-03-22T09:38:55.314Z</time></trkpt><trkpt lat="43.0216677" lon="13.3818058"><ele>556.5</ele><time>2026-03-22T09:38:56.314Z</time></trkpt><trkpt lat="43.0217577" lon="13.3816681"><ele>558.75</ele><time>2026-03-22T09:38:57.314Z</time></trkpt><trkpt lat="43.0218352" lon="13.3815164"><ele>561.0</ele><time>2026-03-22T09:38:58.314Z</time></trkpt><trkpt lat="43.0218987" lon="13.3813637"><ele>559.5</ele><time>2026-03-22T09:38:59.314Z</time></trkpt><trkpt lat="43.0219498" lon="13.3812104"><ele>558.0</ele><time>2026-03-22T09:39:00.314Z</time></trkpt><trkpt lat="43.0219854" lon="13.3810406"><ele>556.5</ele><time>2026-03-22T09:39:01.314Z</time></trkpt><trkpt lat="43.0220028" lon="13.380865"><ele>555.0</ele><time>2026-03-22T09:39:02.314Z</time></trkpt><trkpt lat="43.022007" lon="13.380685"><ele>556.0</ele><time>2026-03-22T09:39:03.314Z</time></trkpt><trkpt lat="43.0219927" lon="13.3805013"><ele>557.0</ele><time>2026-03-22T09:39:04.314Z</time></trkpt><trkpt lat="43.0219634" lon="13.380326"><ele>558.0</ele><time>2026-03-22T09:39:05.314Z</time></trkpt><trkpt lat="43.0219114" lon="13.3801611"><ele>559.0</ele><time>2026-03-22T09:39:06.314Z</time></trkpt><trkpt lat="43.0218382" lon="13.3800044"><ele>559.0</ele><time>2026-03-22T09:39:07.314Z</time></trkpt><trkpt lat="43.0217398" lon="13.379852"><ele>559.0</ele><time>2026-03-22T09:39:08.314Z</time></trkpt><trkpt lat="43.0216303" lon="13.3796988"><ele>559.0</ele><time>2026-03-22T09:39:09.314Z</time></trkpt><trkpt lat="43.0215113" lon="13.3795487"><ele>557.25</ele><time>2026-03-22T09:39:10.314Z</time></trkpt><trkpt lat="43.0213966" lon="13.3794157"><ele>555.5</ele><time>2026-03-22T09:39:11.314Z</time></trkpt><trkpt lat="43.0212856" lon="13.3792998"><ele>553.75</ele><time>2026-03-22T09:39:12.314Z</time></trkpt><trkpt lat="43.0211951" lon="13.3791945"><ele>552.0</ele><time>2026-03-22T09:39:13.314Z</time></trkpt><trkpt lat="43.0211288" lon="13.3790849"><ele>552.0</ele><time>2026-03-22T09:39:14.314Z</time></trkpt><trkpt lat="43.0210858" lon="13.3789735"><ele>552.0</ele><time>2026-03-22T09:39:15.314Z</time></trkpt><trkpt lat="43.0210788" lon="13.378851"><ele>552.0</ele><time>2026-03-22T09:39:16.314Z</time></trkpt><trkpt lat="43.0210993" lon="13.3787348"><ele>552.0</ele><time>2026-03-22T09:39:17.314Z</time></trkpt><trkpt lat="43.0211497" lon="13.3786308"><ele>552.0</ele><time>2026-03-22T09:39:18.314Z</time></trkpt><trkpt lat="43.0212337" lon="13.378537"><ele>550.75</ele><time>2026-03-22T09:39:19.314Z</time></trkpt><trkpt lat="43.0213498" lon="13.3784489"><ele>549.5</ele><time>2026-03-22T09:39:20.314Z</time></trkpt><trkpt lat="43.0214825" lon="13.3783668"><ele>548.25</ele><time>2026-03-22T09:39:21.314Z</time></trkpt><trkpt lat="43.0216082" lon="13.3782805"><ele>547.0</ele><time>2026-03-22T09:39:22.314Z</time></trkpt><trkpt lat="43.0217342" lon="13.3781846"><ele>547.0</ele><time>2026-03-22T09:39:23.314Z</time></trkpt><trkpt lat="43.0218474" lon="13.3780678"><ele>547.0</ele><time>2026-03-22T09:39:24.314Z</time></trkpt><trkpt lat="43.0219579" lon="13.3779376"><ele>547.0</ele><time>2026-03-22T09:39:25.314Z</time></trkpt><trkpt lat="43.022055" lon="13.3777671"><ele>547.0</ele><time>2026-03-22T09:39:26.314Z</time></trkpt><trkpt lat="43.0221468" lon="13.3775776"><ele>547.0</ele><time>2026-03-22T09:39:27.314Z</time></trkpt><trkpt lat="43.0222361" lon="13.3773762"><ele>547.0</ele><time>2026-03-22T09:39:28.314Z</time></trkpt><trkpt lat="43.0223206" lon="13.3771796"><ele>547.0</ele><time>2026-03-22T09:39:29.314Z</time></trkpt><trkpt lat="43.0224027" lon="13.3769949"><ele>549.6666666666667</ele><time>2026-03-22T09:39:30.314Z</time></trkpt><trkpt lat="43.0224793" lon="13.376813"><ele>552.3333333333334</ele><time>2026-03-22T09:39:31.314Z</time></trkpt><trkpt lat="43.0225455" lon="13.3766208"><ele>555.0</ele><time>2026-03-22T09:39:32.314Z</time></trkpt><trkpt lat="43.0225906" lon="13.3764301"><ele>555.0</ele><time>2026-03-22T09:39:33.314Z</time></trkpt><trkpt lat="43.0226202" lon="13.3762377"><ele>555.0</ele><time>2026-03-22T09:39:34.314Z</time></trkpt><trkpt lat="43.0226267" lon="13.3760436"><ele>555.0</ele><time>2026-03-22T09:39:35.314Z</time></trkpt><trkpt lat="43.0226217" lon="13.3758517"><ele>555.0</ele><time>2026-03-22T09:39:36.314Z</time></trkpt><trkpt lat="43.0225651" lon="13.3756515"><ele>557.3333333333334</ele><time>2026-03-22T09:39:37.314Z</time></trkpt><trkpt lat="43.0224909" lon="13.3754626"><ele>559.6666666666667</ele><time>2026-03-22T09:39:38.314Z</time></trkpt><trkpt lat="43.0223967" lon="13.375289"><ele>562.0</ele><time>2026-03-22T09:39:39.314Z</time></trkpt><trkpt lat="43.0222767" lon="13.3751586"><ele>558.0</ele><time>2026-03-22T09:39:40.314Z</time></trkpt><trkpt lat="43.0221519" lon="13.375056"><ele>554.0</ele><time>2026-03-22T09:39:41.314Z</time></trkpt><trkpt lat="43.0220388" lon="13.3749648"><ele>550.0</ele><time>2026-03-22T09:39:42.314Z</time></trkpt><trkpt lat="43.021947" lon="13.3748713"><ele>546.0</ele><time>2026-03-22T09:39:43.314Z</time></trkpt><trkpt lat="43.0218698" lon="13.3747518"><ele>547.5</ele><time>2026-03-22T09:39:44.313Z</time></trkpt><trkpt lat="43.0218113" lon="13.3746012"><ele>549.0</ele><time>2026-03-22T09:39:45.314Z</time></trkpt><trkpt lat="43.0217774" lon="13.3744467"><ele>550.5</ele><time>2026-03-22T09:39:46.314Z</time></trkpt><trkpt lat="43.0217246" lon="13.3742961"><ele>552.0</ele><time>2026-03-22T09:39:47.314Z</time></trkpt><trkpt lat="43.0216534" lon="13.3741655"><ele>548.4</ele><time>2026-03-22T09:39:48.314Z</time></trkpt><trkpt lat="43.0215669" lon="13.374061"><ele>544.8000000000001</ele><time>2026-03-22T09:39:49.314Z</time></trkpt><trkpt lat="43.0214747" lon="13.3739583"><ele>541.2</ele><time>2026-03-22T09:39:50.313Z</time></trkpt><trkpt lat="43.0214236" lon="13.3738453"><ele>537.6</ele><time>2026-03-22T09:39:51.314Z</time></trkpt><trkpt lat="43.0213843" lon="13.3737104"><ele>534.0</ele><time>2026-03-22T09:39:52.314Z</time></trkpt><trkpt lat="43.021374" lon="13.3735757"><ele>534.0</ele><time>2026-03-22T09:39:53.314Z</time></trkpt><trkpt lat="43.021399" lon="13.3734385"><ele>534.0</ele><time>2026-03-22T09:39:54.314Z</time></trkpt><trkpt lat="43.0214493" lon="13.3733027"><ele>534.0</ele><time>2026-03-22T09:39:55.314Z</time></trkpt><trkpt lat="43.0214945" lon="13.3731543"><ele>534.0</ele><time>2026-03-22T09:39:56.314Z</time></trkpt><trkpt lat="43.0215165" lon="13.3729838"><ele>533.75</ele><time>2026-03-22T09:39:57.314Z</time></trkpt><trkpt lat="43.0215086" lon="13.3727819"><ele>533.5</ele><time>2026-03-22T09:39:58.314Z</time></trkpt><trkpt lat="43.0214903" lon="13.3725772"><ele>533.25</ele><time>2026-03-22T09:39:59.314Z</time></trkpt><trkpt lat="43.0214705" lon="13.37238"><ele>533.0</ele><time>2026-03-22T09:40:00.314Z</time></trkpt><trkpt lat="43.0214573" lon="13.3721848"><ele>533.0</ele><time>2026-03-22T09:40:01.314Z</time></trkpt><trkpt lat="43.0214399" lon="13.3720021"><ele>533.0</ele><time>2026-03-22T09:40:02.314Z</time></trkpt><trkpt lat="43.0214246" lon="13.3718284"><ele>533.0</ele><time>2026-03-22T09:40:03.314Z</time></trkpt><trkpt lat="43.021408" lon="13.3716734"><ele>533.0</ele><time>2026-03-22T09:40:04.314Z</time></trkpt><trkpt lat="43.0213919" lon="13.3715393"><ele>533.0</ele><time>2026-03-22T09:40:05.314Z</time></trkpt><trkpt lat="43.0213644" lon="13.3714233"><ele>533.0</ele><time>2026-03-22T09:40:06.314Z</time></trkpt><trkpt lat="43.0213297" lon="13.371331"><ele>533.0</ele><time>2026-03-22T09:40:07.314Z</time></trkpt><trkpt lat="43.0212937" lon="13.3712368"><ele>533.0</ele><time>2026-03-22T09:40:08.314Z</time></trkpt><trkpt lat="43.021236" lon="13.3711535"><ele>533.0</ele><time>2026-03-22T09:40:09.314Z</time></trkpt><trkpt lat="43.021175" lon="13.371083"><ele>533.0</ele><time>2026-03-22T09:40:10.314Z</time></trkpt><trkpt lat="43.0211108" lon="13.3710311"><ele>534.0</ele><time>2026-03-22T09:40:11.314Z</time></trkpt><trkpt lat="43.0210452" lon="13.3709862"><ele>535.0</ele><time>2026-03-22T09:40:12.314Z</time></trkpt><trkpt lat="43.0209746" lon="13.3709482"><ele>536.0</ele><time>2026-03-22T09:40:13.314Z</time></trkpt><trkpt lat="43.0209079" lon="13.3709147"><ele>537.0</ele><time>2026-03-22T09:40:14.314Z</time></trkpt><trkpt lat="43.0208073" lon="13.3708599"><ele>538.0</ele><time>2026-03-22T09:40:16.314Z</time></trkpt><trkpt lat="43.0207482" lon="13.3708125"><ele>539.0</ele><time>2026-03-22T09:40:18.314Z</time></trkpt><trkpt lat="43.0207832" lon="13.3706945"><ele>539.25</ele><time>2026-03-22T09:40:21.314Z</time></trkpt><trkpt lat="43.0209097" lon="13.3706184"><ele>539.5</ele><time>2026-03-22T09:40:23.314Z</time></trkpt><trkpt lat="43.0209963" lon="13.3705709"><ele>539.75</ele><time>2026-03-22T09:40:24.314Z</time></trkpt><trkpt lat="43.0210974" lon="13.3705145"><ele>540.0</ele><time>2026-03-22T09:40:25.314Z</time></trkpt><trkpt lat="43.0212012" lon="13.3704576"><ele>539.5</ele><time>2026-03-22T09:40:26.314Z</time></trkpt><trkpt lat="43.0213149" lon="13.3703912"><ele>539.0</ele><time>2026-03-22T09:40:27.314Z</time></trkpt><trkpt lat="43.0214217" lon="13.3703255"><ele>538.5</ele><time>2026-03-22T09:40:28.314Z</time></trkpt><trkpt lat="43.02153" lon="13.3702616"><ele>538.0</ele><time>2026-03-22T09:40:29.314Z</time></trkpt><trkpt lat="43.0216391" lon="13.3701974"><ele>537.0</ele><time>2026-03-22T09:40:30.314Z</time></trkpt><trkpt lat="43.0217376" lon="13.3701383"><ele>536.0</ele><time>2026-03-22T09:40:31.314Z</time></trkpt><trkpt lat="43.0218265" lon="13.3700909"><ele>535.0</ele><time>2026-03-22T09:40:32.314Z</time></trkpt><trkpt lat="43.0219082" lon="13.3700472"><ele>534.0</ele><time>2026-03-22T09:40:33.314Z</time></trkpt><trkpt lat="43.021988" lon="13.3700096"><ele>533.0</ele><time>2026-03-22T09:40:34.314Z</time></trkpt><trkpt lat="43.0220674" lon="13.369979"><ele>533.0</ele><time>2026-03-22T09:40:35.314Z</time></trkpt><trkpt lat="43.0221457" lon="13.3699508"><ele>533.0</ele><time>2026-03-22T09:40:36.314Z</time></trkpt><trkpt lat="43.0222232" lon="13.3699316"><ele>533.0</ele><time>2026-03-22T09:40:37.314Z</time></trkpt><trkpt lat="43.0223033" lon="13.3699111"><ele>533.0</ele><time>2026-03-22T09:40:38.314Z</time></trkpt><trkpt lat="43.0223883" lon="13.369887"><ele>533.0</ele><time>2026-03-22T09:40:39.314Z</time></trkpt><trkpt lat="43.0224788" lon="13.3698575"><ele>533.0</ele><time>2026-03-22T09:40:40.314Z</time></trkpt><trkpt lat="43.0225733" lon="13.369837"><ele>532.6</ele><time>2026-03-22T09:40:41.314Z</time></trkpt><trkpt lat="43.0226716" lon="13.3698212"><ele>532.1999999999999</ele><time>2026-03-22T09:40:42.314Z</time></trkpt><trkpt lat="43.0227825" lon="13.369808"><ele>531.8</ele><time>2026-03-22T09:40:43.314Z</time></trkpt><trkpt lat="43.0228911" lon="13.3697889"><ele>531.4</ele><time>2026-03-22T09:40:44.314Z</time></trkpt><trkpt lat="43.0230054" lon="13.3697687"><ele>531.0</ele><time>2026-03-22T09:40:45.314Z</time></trkpt><trkpt lat="43.0231234" lon="13.3697535"><ele>531.0</ele><time>2026-03-22T09:40:46.314Z</time></trkpt><trkpt lat="43.023235" lon="13.3697439"><ele>531.0</ele><time>2026-03-22T09:40:47.314Z</time></trkpt><trkpt lat="43.0233448" lon="13.3697466"><ele>531.0</ele><time>2026-03-22T09:40:48.314Z</time></trkpt><trkpt lat="43.0234497" lon="13.3697651"><ele>531.0</ele><time>2026-03-22T09:40:49.314Z</time></trkpt><trkpt lat="43.0235544" lon="13.3698087"><ele>531.0</ele><time>2026-03-22T09:40:50.314Z</time></trkpt><trkpt lat="43.0236655" lon="13.369872"><ele>528.75</ele><time>2026-03-22T09:40:51.313Z</time></trkpt><trkpt lat="43.0237808" lon="13.3699346"><ele>526.5</ele><time>2026-03-22T09:40:52.314Z</time></trkpt><trkpt lat="43.0238991" lon="13.369984"><ele>524.25</ele><time>2026-03-22T09:40:53.314Z</time></trkpt><trkpt lat="43.0240261" lon="13.3700246"><ele>522.0</ele><time>2026-03-22T09:40:54.314Z</time></trkpt><trkpt lat="43.0241559" lon="13.3700639"><ele>520.75</ele><time>2026-03-22T09:40:55.313Z</time></trkpt><trkpt lat="43.0242831" lon="13.3701045"><ele>519.5</ele><time>2026-03-22T09:40:56.314Z</time></trkpt><trkpt lat="43.0244121" lon="13.3701528"><ele>518.25</ele><time>2026-03-22T09:40:57.314Z</time></trkpt><trkpt lat="43.0245436" lon="13.3702015"><ele>517.0</ele><time>2026-03-22T09:40:58.314Z</time></trkpt><trkpt lat="43.0246702" lon="13.3702229"><ele>517.0</ele><time>2026-03-22T09:40:59.313Z</time></trkpt><trkpt lat="43.0248011" lon="13.3702137"><ele>517.0</ele><time>2026-03-22T09:41:00.314Z</time></trkpt><trkpt lat="43.0249395" lon="13.370177"><ele>517.0</ele><time>2026-03-22T09:41:01.314Z</time></trkpt><trkpt lat="43.0250788" lon="13.3701156"><ele>517.0</ele><time>2026-03-22T09:41:02.314Z</time></trkpt><trkpt lat="43.0252193" lon="13.3700408"><ele>516.0</ele><time>2026-03-22T09:41:03.314Z</time></trkpt><trkpt lat="43.0253536" lon="13.369958"><ele>515.0</ele><time>2026-03-22T09:41:04.314Z</time></trkpt><trkpt lat="43.0254738" lon="13.3698628"><ele>514.0</ele><time>2026-03-22T09:41:05.314Z</time></trkpt><trkpt lat="43.0255852" lon="13.3697601"><ele>513.0</ele><time>2026-03-22T09:41:06.314Z</time></trkpt><trkpt lat="43.0256881" lon="13.3696636"><ele>511.25</ele><time>2026-03-22T09:41:07.314Z</time></trkpt><trkpt lat="43.0257894" lon="13.3695771"><ele>509.5</ele><time>2026-03-22T09:41:08.314Z</time></trkpt><trkpt lat="43.0258976" lon="13.3694952"><ele>507.75</ele><time>2026-03-22T09:41:09.314Z</time></trkpt><trkpt lat="43.0260133" lon="13.3694264"><ele>506.0</ele><time>2026-03-22T09:41:10.314Z</time></trkpt><trkpt lat="43.0261279" lon="13.3693716"><ele>506.0</ele><time>2026-03-22T09:41:11.314Z</time></trkpt><trkpt lat="43.0262393" lon="13.3693175"><ele>506.0</ele><time>2026-03-22T09:41:12.314Z</time></trkpt><trkpt lat="43.026368" lon="13.3692841"><ele>506.0</ele><time>2026-03-22T09:41:13.314Z</time></trkpt><trkpt lat="43.0264984" lon="13.3692491"><ele>506.0</ele><time>2026-03-22T09:41:14.313Z</time></trkpt><trkpt lat="43.026635" lon="13.3692219"><ele>505.5</ele><time>2026-03-22T09:41:15.314Z</time></trkpt><trkpt lat="43.0267716" lon="13.3691982"><ele>505.0</ele><time>2026-03-22T09:41:16.314Z</time></trkpt><trkpt lat="43.0269111" lon="13.3691623"><ele>504.5</ele><time>2026-03-22T09:41:17.314Z</time></trkpt><trkpt lat="43.0270293" lon="13.3690955"><ele>504.0</ele><time>2026-03-22T09:41:18.314Z</time></trkpt><trkpt lat="43.027155" lon="13.3690369"><ele>504.0</ele><time>2026-03-22T09:41:19.314Z</time></trkpt><trkpt lat="43.0272732" lon="13.3689164"><ele>504.0</ele><time>2026-03-22T09:41:20.313Z</time></trkpt><trkpt lat="43.0273911" lon="13.3688279"><ele>504.0</ele><time>2026-03-22T09:41:21.314Z</time></trkpt><trkpt lat="43.0275109" lon="13.3687342"><ele>504.0</ele><time>2026-03-22T09:41:22.314Z</time></trkpt><trkpt lat="43.0276308" lon="13.3686334"><ele>503.5</ele><time>2026-03-22T09:41:23.314Z</time></trkpt><trkpt lat="43.0277477" lon="13.3685152"><ele>503.0</ele><time>2026-03-22T09:41:24.314Z</time></trkpt><trkpt lat="43.0278611" lon="13.3683863"><ele>502.5</ele><time>2026-03-22T09:41:25.314Z</time></trkpt><trkpt lat="43.02797" lon="13.3682483"><ele>502.0</ele><time>2026-03-22T09:41:26.314Z</time></trkpt><trkpt lat="43.0280689" lon="13.3681093"><ele>502.5</ele><time>2026-03-22T09:41:27.314Z</time></trkpt><trkpt lat="43.0281601" lon="13.3679849"><ele>503.0</ele><time>2026-03-22T09:41:28.314Z</time></trkpt><trkpt lat="43.0282413" lon="13.3678581"><ele>503.5</ele><time>2026-03-22T09:41:29.314Z</time></trkpt><trkpt lat="43.0283198" lon="13.3677188"><ele>504.0</ele><time>2026-03-22T09:41:30.314Z</time></trkpt><trkpt lat="43.0283899" lon="13.3675724"><ele>504.0</ele><time>2026-03-22T09:41:31.314Z</time></trkpt><trkpt lat="43.0284504" lon="13.3674207"><ele>504.0</ele><time>2026-03-22T09:41:32.314Z</time></trkpt><trkpt lat="43.0285063" lon="13.367256"><ele>504.0</ele><time>2026-03-22T09:41:33.314Z</time></trkpt><trkpt lat="43.0285599" lon="13.3670873"><ele>504.0</ele><time>2026-03-22T09:41:34.314Z</time></trkpt><trkpt lat="43.0286135" lon="13.366919"><ele>504.25</ele><time>2026-03-22T09:41:35.314Z</time></trkpt><trkpt lat="43.0286695" lon="13.3667464"><ele>504.5</ele><time>2026-03-22T09:41:36.314Z</time></trkpt><trkpt lat="43.028728" lon="13.3665676"><ele>504.75</ele><time>2026-03-22T09:41:37.314Z</time></trkpt><trkpt lat="43.0287915" lon="13.3663844"><ele>505.0</ele><time>2026-03-22T09:41:38.314Z</time></trkpt><trkpt lat="43.0288662" lon="13.3662024"><ele>505.0</ele><time>2026-03-22T09:41:39.314Z</time></trkpt><trkpt lat="43.0289503" lon="13.3660302"><ele>505.0</ele><time>2026-03-22T09:41:40.314Z</time></trkpt><trkpt lat="43.0290438" lon="13.3658673"><ele>505.0</ele><time>2026-03-22T09:41:41.314Z</time></trkpt><trkpt lat="43.029151" lon="13.3657229"><ele>505.33333333333337</ele><time>2026-03-22T09:41:42.314Z</time></trkpt><trkpt lat="43.0292688" lon="13.3655845"><ele>505.66666666666663</ele><time>2026-03-22T09:41:43.314Z</time></trkpt><trkpt lat="43.0293974" lon="13.3654463"><ele>506.0</ele><time>2026-03-22T09:41:44.314Z</time></trkpt><trkpt lat="43.0295344" lon="13.3653136"><ele>506.0</ele><time>2026-03-22T09:41:45.314Z</time></trkpt><trkpt lat="43.0296787" lon="13.3651924"><ele>506.0</ele><time>2026-03-22T09:41:46.314Z</time></trkpt><trkpt lat="43.029832" lon="13.3650779"><ele>506.0</ele><time>2026-03-22T09:41:47.314Z</time></trkpt><trkpt lat="43.0299834" lon="13.3649666"><ele>505.66666666666663</ele><time>2026-03-22T09:41:48.314Z</time></trkpt><trkpt lat="43.0301297" lon="13.3648575"><ele>505.33333333333337</ele><time>2026-03-22T09:41:49.314Z</time></trkpt><trkpt lat="43.0302779" lon="13.364751"><ele>505.0</ele><time>2026-03-22T09:41:50.314Z</time></trkpt><trkpt lat="43.0304205" lon="13.3646454"><ele>505.0</ele><time>2026-03-22T09:41:51.314Z</time></trkpt><trkpt lat="43.0305644" lon="13.3645352"><ele>505.0</ele><time>2026-03-22T09:41:52.313Z</time></trkpt><trkpt lat="43.030706" lon="13.3644225"><ele>505.0</ele><time>2026-03-22T09:41:53.314Z</time></trkpt><trkpt lat="43.030846" lon="13.3643121"><ele>502.0</ele><time>2026-03-22T09:41:54.314Z</time></trkpt><trkpt lat="43.0309848" lon="13.3642039"><ele>499.0</ele><time>2026-03-22T09:41:55.314Z</time></trkpt><trkpt lat="43.0311198" lon="13.3641018"><ele>496.0</ele><time>2026-03-22T09:41:56.314Z</time></trkpt><trkpt lat="43.0312585" lon="13.3639983"><ele>496.0</ele><time>2026-03-22T09:41:57.314Z</time></trkpt><trkpt lat="43.0313984" lon="13.3638909"><ele>496.0</ele><time>2026-03-22T09:41:58.314Z</time></trkpt><trkpt lat="43.0315425" lon="13.3637811"><ele>496.0</ele><time>2026-03-22T09:41:59.314Z</time></trkpt><trkpt lat="43.0316859" lon="13.3636729"><ele>496.25</ele><time>2026-03-22T09:42:00.314Z</time></trkpt><trkpt lat="43.0318207" lon="13.3635715"><ele>496.5</ele><time>2026-03-22T09:42:01.314Z</time></trkpt><trkpt lat="43.0319474" lon="13.3634737"><ele>496.75</ele><time>2026-03-22T09:42:02.314Z</time></trkpt><trkpt lat="43.0320679" lon="13.3633804"><ele>497.0</ele><time>2026-03-22T09:42:03.314Z</time></trkpt><trkpt lat="43.0321795" lon="13.3632898"><ele>497.0</ele><time>2026-03-22T09:42:04.314Z</time></trkpt><trkpt lat="43.0322804" lon="13.3631829"><ele>497.0</ele><time>2026-03-22T09:42:05.314Z</time></trkpt><trkpt lat="43.0323705" lon="13.3630561"><ele>497.0</ele><time>2026-03-22T09:42:06.313Z</time></trkpt><trkpt lat="43.0324495" lon="13.3629191"><ele>497.0</ele><time>2026-03-22T09:42:07.314Z</time></trkpt><trkpt lat="43.0325188" lon="13.3627724"><ele>496.75</ele><time>2026-03-22T09:42:08.314Z</time></trkpt><trkpt lat="43.0325795" lon="13.3626291"><ele>496.5</ele><time>2026-03-22T09:42:09.314Z</time></trkpt><trkpt lat="43.0326364" lon="13.3624836"><ele>496.25</ele><time>2026-03-22T09:42:10.314Z</time></trkpt><trkpt lat="43.0326946" lon="13.3623322"><ele>496.0</ele><time>2026-03-22T09:42:11.314Z</time></trkpt><trkpt lat="43.0327537" lon="13.362174"><ele>495.0</ele><time>2026-03-22T09:42:12.314Z</time></trkpt><trkpt lat="43.0328161" lon="13.3620093"><ele>494.0</ele><time>2026-03-22T09:42:13.314Z</time></trkpt><trkpt lat="43.0328791" lon="13.3618403"><ele>493.0</ele><time>2026-03-22T09:42:14.314Z</time></trkpt><trkpt lat="43.0329422" lon="13.3616663"><ele>492.0</ele><time>2026-03-22T09:42:15.314Z</time></trkpt><trkpt lat="43.0330045" lon="13.3614962"><ele>489.25</ele><time>2026-03-22T09:42:16.314Z</time></trkpt><trkpt lat="43.0330672" lon="13.3613257"><ele>486.5</ele><time>2026-03-22T09:42:17.313Z</time></trkpt><trkpt lat="43.0331314" lon="13.3611532"><ele>483.75</ele><time>2026-03-22T09:42:18.313Z</time></trkpt><trkpt lat="43.0331941" lon="13.3609865"><ele>481.0</ele><time>2026-03-22T09:42:19.314Z</time></trkpt><trkpt lat="43.0332575" lon="13.3608211"><ele>481.75</ele><time>2026-03-22T09:42:20.314Z</time></trkpt><trkpt lat="43.0333227" lon="13.3606545"><ele>482.5</ele><time>2026-03-22T09:42:21.314Z</time></trkpt><trkpt lat="43.0333874" lon="13.3604915"><ele>483.25</ele><time>2026-03-22T09:42:22.313Z</time></trkpt><trkpt lat="43.0334465" lon="13.3603344"><ele>484.0</ele><time>2026-03-22T09:42:23.314Z</time></trkpt><trkpt lat="43.0334968" lon="13.3601769"><ele>484.0</ele><time>2026-03-22T09:42:24.314Z</time></trkpt><trkpt lat="43.0335371" lon="13.3600144"><ele>484.0</ele><time>2026-03-22T09:42:25.314Z</time></trkpt><trkpt lat="43.0335682" lon="13.359842"><ele>484.0</ele><time>2026-03-22T09:42:26.314Z</time></trkpt><trkpt lat="43.0335866" lon="13.3596678"><ele>484.0</ele><time>2026-03-22T09:42:27.314Z</time></trkpt><trkpt lat="43.033603" lon="13.3595067"><ele>483.25</ele><time>2026-03-22T09:42:28.314Z</time></trkpt><trkpt lat="43.0336274" lon="13.3593481"><ele>482.5</ele><time>2026-03-22T09:42:29.314Z</time></trkpt><trkpt lat="43.0336684" lon="13.3591978"><ele>481.75</ele><time>2026-03-22T09:42:30.314Z</time></trkpt><trkpt lat="43.0337214" lon="13.359053"><ele>481.0</ele><time>2026-03-22T09:42:31.314Z</time></trkpt><trkpt lat="43.033778" lon="13.3589131"><ele>480.20000000000005</ele><time>2026-03-22T09:42:32.314Z</time></trkpt><trkpt lat="43.0338244" lon="13.3587804"><ele>479.40000000000003</ele><time>2026-03-22T09:42:33.314Z</time></trkpt><trkpt lat="43.0338584" lon="13.3586372"><ele>478.6</ele><time>2026-03-22T09:42:34.314Z</time></trkpt><trkpt lat="43.0338676" lon="13.3584826"><ele>477.8</ele><time>2026-03-22T09:42:35.314Z</time></trkpt><trkpt lat="43.0338774" lon="13.3583255"><ele>477.0</ele><time>2026-03-22T09:42:36.314Z</time></trkpt><trkpt lat="43.03384" lon="13.358187"><ele>477.0</ele><time>2026-03-22T09:42:37.314Z</time></trkpt><trkpt lat="43.0338174" lon="13.3580545"><ele>477.0</ele><time>2026-03-22T09:42:38.314Z</time></trkpt><trkpt lat="43.0337987" lon="13.3579338"><ele>477.0</ele><time>2026-03-22T09:42:39.314Z</time></trkpt><trkpt lat="43.0337888" lon="13.3578232"><ele>477.0</ele><time>2026-03-22T09:42:40.314Z</time></trkpt><trkpt lat="43.0337882" lon="13.3577204"><ele>477.0</ele><time>2026-03-22T09:42:41.314Z</time></trkpt><trkpt lat="43.0338071" lon="13.3576116"><ele>477.0</ele><time>2026-03-22T09:42:42.314Z</time></trkpt><trkpt lat="43.0338438" lon="13.3574956"><ele>476.20000000000005</ele><time>2026-03-22T09:42:43.314Z</time></trkpt><trkpt lat="43.0338844" lon="13.357378"><ele>475.40000000000003</ele><time>2026-03-22T09:42:44.313Z</time></trkpt><trkpt lat="43.0339186" lon="13.3572467"><ele>474.59999999999997</ele><time>2026-03-22T09:42:45.314Z</time></trkpt><trkpt lat="43.0339371" lon="13.3571077"><ele>473.79999999999995</ele><time>2026-03-22T09:42:46.314Z</time></trkpt><trkpt lat="43.0339452" lon="13.3569679"><ele>473.0</ele><time>2026-03-22T09:42:47.314Z</time></trkpt><trkpt lat="43.0339438" lon="13.3568396"><ele>472.28571428571433</ele><time>2026-03-22T09:42:48.314Z</time></trkpt><trkpt lat="43.0339455" lon="13.3567268"><ele>471.57142857142856</ele><time>2026-03-22T09:42:49.313Z</time></trkpt><trkpt lat="43.0339468" lon="13.3566214"><ele>470.8571428571429</ele><time>2026-03-22T09:42:50.314Z</time></trkpt><trkpt lat="43.0339511" lon="13.3565231"><ele>470.14285714285717</ele><time>2026-03-22T09:42:51.314Z</time></trkpt><trkpt lat="43.0339609" lon="13.3564287"><ele>469.42857142857144</ele><time>2026-03-22T09:42:52.313Z</time></trkpt><trkpt lat="43.0339855" lon="13.3563428"><ele>468.7142857142857</ele><time>2026-03-22T09:42:53.314Z</time></trkpt><trkpt lat="43.0340324" lon="13.3562722"><ele>468.0</ele><time>2026-03-22T09:42:54.314Z</time></trkpt><trkpt lat="43.0340967" lon="13.3562191"><ele>469.6666666666667</ele><time>2026-03-22T09:42:55.313Z</time></trkpt><trkpt lat="43.0341705" lon="13.3561922"><ele>471.33333333333337</ele><time>2026-03-22T09:42:56.314Z</time></trkpt><trkpt lat="43.0342535" lon="13.3561904"><ele>473.0</ele><time>2026-03-22T09:42:57.314Z</time></trkpt><trkpt lat="43.0343373" lon="13.3562067"><ele>474.6666666666667</ele><time>2026-03-22T09:42:58.314Z</time></trkpt><trkpt lat="43.0344246" lon="13.3562266"><ele>476.33333333333337</ele><time>2026-03-22T09:42:59.314Z</time></trkpt><trkpt lat="43.0345205" lon="13.3562549"><ele>478.0</ele><time>2026-03-22T09:43:00.314Z</time></trkpt><trkpt lat="43.0346118" lon="13.3562815"><ele>478.00000000000006</ele><time>2026-03-22T09:43:01.314Z</time></trkpt><trkpt lat="43.0346995" lon="13.3563088"><ele>478.0</ele><time>2026-03-22T09:43:02.314Z</time></trkpt><trkpt lat="43.0347717" lon="13.3563381"><ele>478.0</ele><time>2026-03-22T09:43:03.314Z</time></trkpt><trkpt lat="43.0348425" lon="13.3563691"><ele>478.0</ele><time>2026-03-22T09:43:04.314Z</time></trkpt><trkpt lat="43.0349069" lon="13.3564619"><ele>478.00000000000006</ele><time>2026-03-22T09:43:05.314Z</time></trkpt><trkpt lat="43.0349755" lon="13.3565457"><ele>478.0</ele><time>2026-03-22T09:43:06.314Z</time></trkpt><trkpt lat="43.0350204" lon="13.3566543"><ele>479.00000000000006</ele><time>2026-03-22T09:43:07.314Z</time></trkpt><trkpt lat="43.0350632" lon="13.3567631"><ele>480.0</ele><time>2026-03-22T09:43:08.313Z</time></trkpt><trkpt lat="43.0351065" lon="13.3568807"><ele>481.0</ele><time>2026-03-22T09:43:09.314Z</time></trkpt><trkpt lat="43.0351485" lon="13.35699"><ele>482.0</ele><time>2026-03-22T09:43:10.314Z</time></trkpt><trkpt lat="43.035189" lon="13.3571001"><ele>483.00000000000006</ele><time>2026-03-22T09:43:11.314Z</time></trkpt><trkpt lat="43.0352262" lon="13.3572001"><ele>484.0</ele><time>2026-03-22T09:43:12.314Z</time></trkpt><trkpt lat="43.0352648" lon="13.3572862"><ele>484.00000000000006</ele><time>2026-03-22T09:43:13.314Z</time></trkpt><trkpt lat="43.0352999" lon="13.3573641"><ele>484.0</ele><time>2026-03-22T09:43:14.314Z</time></trkpt><trkpt lat="43.0353937" lon="13.357483"><ele>484.0</ele><time>2026-03-22T09:43:16.314Z</time></trkpt><trkpt lat="43.0354596" lon="13.3575148"><ele>484.0</ele><time>2026-03-22T09:43:17.314Z</time></trkpt><trkpt lat="43.0355322" lon="13.357523"><ele>484.00000000000006</ele><time>2026-03-22T09:43:18.314Z</time></trkpt><trkpt lat="43.0356066" lon="13.3575079"><ele>484.0</ele><time>2026-03-22T09:43:19.314Z</time></trkpt><trkpt lat="43.0356788" lon="13.3574768"><ele>484.0</ele><time>2026-03-22T09:43:20.314Z</time></trkpt><trkpt lat="43.0357405" lon="13.3574338"><ele>484.0</ele><time>2026-03-22T09:43:21.314Z</time></trkpt><trkpt lat="43.0358292" lon="13.3573486"><ele>484.0</ele><time>2026-03-22T09:43:23.314Z</time></trkpt><trkpt lat="43.0358743" lon="13.3572142"><ele>484.0</ele><time>2026-03-22T09:43:25.314Z</time></trkpt><trkpt lat="43.0358548" lon="13.3570469"><ele>484.0</ele><time>2026-03-22T09:43:27.314Z</time></trkpt><trkpt lat="43.0358222" lon="13.356957"><ele>484.00000000000006</ele><time>2026-03-22T09:43:28.314Z</time></trkpt><trkpt lat="43.0357819" lon="13.3568732"><ele>484.0</ele><time>2026-03-22T09:43:29.314Z</time></trkpt><trkpt lat="43.0357388" lon="13.356789"><ele>484.0</ele><time>2026-03-22T09:43:30.314Z</time></trkpt><trkpt lat="43.0356911" lon="13.3567033"><ele>484.0</ele><time>2026-03-22T09:43:31.314Z</time></trkpt><trkpt lat="43.0356418" lon="13.3566186"><ele>484.00000000000006</ele><time>2026-03-22T09:43:32.314Z</time></trkpt><trkpt lat="43.0355942" lon="13.3565317"><ele>484.0</ele><time>2026-03-22T09:43:33.314Z</time></trkpt><trkpt lat="43.0355485" lon="13.3564387"><ele>481.83333333333337</ele><time>2026-03-22T09:43:34.314Z</time></trkpt><trkpt lat="43.0355079" lon="13.3563433"><ele>479.6666666666667</ele><time>2026-03-22T09:43:35.314Z</time></trkpt><trkpt lat="43.0354701" lon="13.3562366"><ele>477.5</ele><time>2026-03-22T09:43:36.314Z</time></trkpt><trkpt lat="43.0354382" lon="13.3561257"><ele>475.33333333333337</ele><time>2026-03-22T09:43:37.314Z</time></trkpt><trkpt lat="43.0354075" lon="13.3560201"><ele>473.1666666666667</ele><time>2026-03-22T09:43:38.313Z</time></trkpt><trkpt lat="43.0353756" lon="13.3559175"><ele>471.0</ele><time>2026-03-22T09:43:39.314Z</time></trkpt><trkpt lat="43.0353458" lon="13.3558164"><ele>471.0</ele><time>2026-03-22T09:43:40.314Z</time></trkpt><trkpt lat="43.035281" lon="13.3557306"><ele>471.0</ele><time>2026-03-22T09:43:41.314Z</time></trkpt><trkpt lat="43.0352338" lon="13.3556329"><ele>471.0</ele><time>2026-03-22T09:43:42.314Z</time></trkpt><trkpt lat="43.0351814" lon="13.3555386"><ele>471.0</ele><time>2026-03-22T09:43:43.314Z</time></trkpt><trkpt lat="43.035128" lon="13.3554445"><ele>471.0</ele><time>2026-03-22T09:43:44.314Z</time></trkpt><trkpt lat="43.0350725" lon="13.3553486"><ele>471.0</ele><time>2026-03-22T09:43:45.314Z</time></trkpt><trkpt lat="43.0350134" lon="13.3552524"><ele>467.8</ele><time>2026-03-22T09:43:46.314Z</time></trkpt><trkpt lat="43.0349614" lon="13.3551629"><ele>464.6</ele><time>2026-03-22T09:43:47.314Z</time></trkpt><trkpt lat="43.0349174" lon="13.3550868"><ele>461.4</ele><time>2026-03-22T09:43:48.314Z</time></trkpt><trkpt lat="43.0348451" lon="13.3549589"><ele>458.2</ele><time>2026-03-22T09:43:50.313Z</time></trkpt><trkpt lat="43.0348035" lon="13.3548087"><ele>455.0</ele><time>2026-03-22T09:43:52.314Z</time></trkpt><trkpt lat="43.0348444" lon="13.3546764"><ele>454.4</ele><time>2026-03-22T09:43:54.314Z</time></trkpt><trkpt lat="43.0349513" lon="13.3546417"><ele>453.8</ele><time>2026-03-22T09:43:56.314Z</time></trkpt><trkpt lat="43.0350199" lon="13.3546778"><ele>453.20000000000005</ele><time>2026-03-22T09:43:57.313Z</time></trkpt><trkpt lat="43.0350944" lon="13.3547373"><ele>452.6</ele><time>2026-03-22T09:43:58.314Z</time></trkpt><trkpt lat="43.0351758" lon="13.3547961"><ele>452.0</ele><time>2026-03-22T09:43:59.314Z</time></trkpt><trkpt lat="43.0352584" lon="13.3548559"><ele>452.0</ele><time>2026-03-22T09:44:00.314Z</time></trkpt><trkpt lat="43.0353401" lon="13.3549144"><ele>452.00000000000006</ele><time>2026-03-22T09:44:01.313Z</time></trkpt><trkpt lat="43.0354227" lon="13.3549728"><ele>452.00000000000006</ele><time>2026-03-22T09:44:02.314Z</time></trkpt><trkpt lat="43.0355039" lon="13.355034"><ele>452.0</ele><time>2026-03-22T09:44:03.314Z</time></trkpt><trkpt lat="43.0355836" lon="13.3550979"><ele>452.0</ele><time>2026-03-22T09:44:04.313Z</time></trkpt><trkpt lat="43.0356653" lon="13.3551709"><ele>452.0</ele><time>2026-03-22T09:44:05.314Z</time></trkpt><trkpt lat="43.0357492" lon="13.3552484"><ele>452.00000000000006</ele><time>2026-03-22T09:44:06.314Z</time></trkpt><trkpt lat="43.0358335" lon="13.3553321"><ele>452.00000000000006</ele><time>2026-03-22T09:44:07.314Z</time></trkpt><trkpt lat="43.0359141" lon="13.3554151"><ele>452.0</ele><time>2026-03-22T09:44:08.314Z</time></trkpt><trkpt lat="43.0359946" lon="13.3554876"><ele>452.0</ele><time>2026-03-22T09:44:09.314Z</time></trkpt><trkpt lat="43.036079" lon="13.3555436"><ele>451.99999999999994</ele><time>2026-03-22T09:44:10.314Z</time></trkpt><trkpt lat="43.036164" lon="13.3555913"><ele>452.0</ele><time>2026-03-22T09:44:11.314Z</time></trkpt><trkpt lat="43.0362456" lon="13.3556033"><ele>452.0</ele><time>2026-03-22T09:44:12.314Z</time></trkpt><trkpt lat="43.0363321" lon="13.3556052"><ele>452.0</ele><time>2026-03-22T09:44:13.314Z</time></trkpt><trkpt lat="43.0364135" lon="13.3555921"><ele>451.99999999999994</ele><time>2026-03-22T09:44:14.314Z</time></trkpt><trkpt lat="43.0364929" lon="13.3555697"><ele>452.0</ele><time>2026-03-22T09:44:15.314Z</time></trkpt><trkpt lat="43.0365696" lon="13.3555484"><ele>447.3333333333333</ele><time>2026-03-22T09:44:16.314Z</time></trkpt><trkpt lat="43.0366426" lon="13.3555243"><ele>442.66666666666663</ele><time>2026-03-22T09:44:17.314Z</time></trkpt><trkpt lat="43.0367167" lon="13.3555024"><ele>438.0</ele><time>2026-03-22T09:44:18.314Z</time></trkpt><trkpt lat="43.0367856" lon="13.3554825"><ele>433.33333333333337</ele><time>2026-03-22T09:44:19.314Z</time></trkpt><trkpt lat="43.0368527" lon="13.355461"><ele>428.6666666666667</ele><time>2026-03-22T09:44:20.314Z</time></trkpt><trkpt lat="43.036917" lon="13.3554334"><ele>424.0</ele><time>2026-03-22T09:44:21.314Z</time></trkpt><trkpt lat="43.0370224" lon="13.3554013"><ele>424.0</ele><time>2026-03-22T09:44:23.314Z</time></trkpt><trkpt lat="43.0371185" lon="13.3553757"><ele>424.0</ele><time>2026-03-22T09:44:25.314Z</time></trkpt><trkpt lat="43.0371992" lon="13.3553038"><ele>424.0</ele><time>2026-03-22T09:44:27.314Z</time></trkpt><trkpt lat="43.0371987" lon="13.3551703"><ele>424.0</ele><time>2026-03-22T09:44:29.314Z</time></trkpt><trkpt lat="43.0371292" lon="13.3550652"><ele>424.0</ele><time>2026-03-22T09:44:31.314Z</time></trkpt><trkpt lat="43.0370302" lon="13.3549515"><ele>424.0</ele><time>2026-03-22T09:44:33.314Z</time></trkpt><trkpt lat="43.0369739" lon="13.3548885"><ele>424.0</ele><time>2026-03-22T09:44:34.314Z</time></trkpt><trkpt lat="43.0369241" lon="13.3548179"><ele>424.0</ele><time>2026-03-22T09:44:35.314Z</time></trkpt><trkpt lat="43.0368852" lon="13.3547394"><ele>424.0</ele><time>2026-03-22T09:44:36.314Z</time></trkpt><trkpt lat="43.0368635" lon="13.3546511"><ele>424.0</ele><time>2026-03-22T09:44:37.314Z</time></trkpt><trkpt lat="43.0368556" lon="13.3545534"><ele>424.0</ele><time>2026-03-22T09:44:38.314Z</time></trkpt><trkpt lat="43.0368731" lon="13.3544602"><ele>424.0</ele><time>2026-03-22T09:44:39.314Z</time></trkpt><trkpt lat="43.0369087" lon="13.3543712"><ele>422.50000000000006</ele><time>2026-03-22T09:44:40.314Z</time></trkpt><trkpt lat="43.0369602" lon="13.3542997"><ele>421.0</ele><time>2026-03-22T09:44:41.314Z</time></trkpt><trkpt lat="43.037024" lon="13.3542528"><ele>419.5</ele><time>2026-03-22T09:44:42.314Z</time></trkpt><trkpt lat="43.0370961" lon="13.35422"><ele>418.0</ele><time>2026-03-22T09:44:43.314Z</time></trkpt><trkpt lat="43.0371757" lon="13.3542186"><ele>416.50000000000006</ele><time>2026-03-22T09:44:44.314Z</time></trkpt><trkpt lat="43.0372591" lon="13.3542472"><ele>415.0</ele><time>2026-03-22T09:44:45.314Z</time></trkpt><trkpt lat="43.03734" lon="13.3542962"><ele>415.00000000000006</ele><time>2026-03-22T09:44:46.314Z</time></trkpt><trkpt lat="43.0374156" lon="13.3543514"><ele>415.0</ele><time>2026-03-22T09:44:47.314Z</time></trkpt><trkpt lat="43.0374909" lon="13.3544147"><ele>415.0</ele><time>2026-03-22T09:44:48.314Z</time></trkpt><trkpt lat="43.0375627" lon="13.354472"><ele>415.0</ele><time>2026-03-22T09:44:49.314Z</time></trkpt><trkpt lat="43.0376334" lon="13.354533"><ele>415.00000000000006</ele><time>2026-03-22T09:44:50.314Z</time></trkpt><trkpt lat="43.0377017" lon="13.3546006"><ele>415.0</ele><time>2026-03-22T09:44:51.314Z</time></trkpt><trkpt lat="43.0377706" lon="13.3546733"><ele>415.6</ele><time>2026-03-22T09:44:52.314Z</time></trkpt><trkpt lat="43.0378414" lon="13.354753"><ele>416.2</ele><time>2026-03-22T09:44:53.314Z</time></trkpt><trkpt lat="43.0379125" lon="13.3548384"><ele>416.79999999999995</ele><time>2026-03-22T09:44:54.314Z</time></trkpt><trkpt lat="43.0379836" lon="13.3549256"><ele>417.4</ele><time>2026-03-22T09:44:55.314Z</time></trkpt><trkpt lat="43.0380548" lon="13.355008"><ele>418.0</ele><time>2026-03-22T09:44:56.314Z</time></trkpt><trkpt lat="43.0381219" lon="13.3550831"><ele>418.00000000000006</ele><time>2026-03-22T09:44:57.314Z</time></trkpt><trkpt lat="43.03819" lon="13.3551601"><ele>418.0</ele><time>2026-03-22T09:44:58.314Z</time></trkpt><trkpt lat="43.0382579" lon="13.3552359"><ele>418.0</ele><time>2026-03-22T09:44:59.314Z</time></trkpt><trkpt lat="43.0383202" lon="13.3553132"><ele>418.0</ele><time>2026-03-22T09:45:00.314Z</time></trkpt><trkpt lat="43.0383746" lon="13.3553868"><ele>418.00000000000006</ele><time>2026-03-22T09:45:01.314Z</time></trkpt><trkpt lat="43.0384216" lon="13.3554588"><ele>418.0</ele><time>2026-03-22T09:45:02.314Z</time></trkpt><trkpt lat="43.0384616" lon="13.3555299"><ele>415.79999999999995</ele><time>2026-03-22T09:45:03.314Z</time></trkpt><trkpt lat="43.0385306" lon="13.3556636"><ele>413.6</ele><time>2026-03-22T09:45:05.314Z</time></trkpt><trkpt lat="43.0386041" lon="13.3557864"><ele>411.4</ele><time>2026-03-22T09:45:07.314Z</time></trkpt><trkpt lat="43.0386804" lon="13.3559096"><ele>409.20000000000005</ele><time>2026-03-22T09:45:09.314Z</time></trkpt><trkpt lat="43.0387295" lon="13.355984"><ele>407.0</ele><time>2026-03-22T09:45:10.314Z</time></trkpt><trkpt lat="43.0387827" lon="13.3560494"><ele>407.0</ele><time>2026-03-22T09:45:11.314Z</time></trkpt><trkpt lat="43.0388722" lon="13.356141"><ele>407.0</ele><time>2026-03-22T09:45:13.314Z</time></trkpt><trkpt lat="43.0389391" lon="13.3562071"><ele>407.0</ele><time>2026-03-22T09:45:15.314Z</time></trkpt><trkpt lat="43.0390069" lon="13.3562747"><ele>407.0</ele><time>2026-03-22T09:45:17.314Z</time></trkpt><trkpt lat="43.0390891" lon="13.3563554"><ele>407.0</ele><time>2026-03-22T09:45:19.314Z</time></trkpt><trkpt lat="43.0391558" lon="13.3564247"><ele>405.3333333333333</ele><time>2026-03-22T09:45:21.314Z</time></trkpt><trkpt lat="43.0392211" lon="13.3564742"><ele>403.66666666666663</ele><time>2026-03-22T09:45:23.314Z</time></trkpt><trkpt lat="43.0392984" lon="13.3564828"><ele>402.0</ele><time>2026-03-22T09:45:25.314Z</time></trkpt><trkpt lat="43.0393703" lon="13.3564194"><ele>400.33333333333337</ele><time>2026-03-22T09:45:27.314Z</time></trkpt><trkpt lat="43.0394249" lon="13.3563229"><ele>398.6666666666667</ele><time>2026-03-22T09:45:29.314Z</time></trkpt><trkpt lat="43.039461" lon="13.3561982"><ele>397.0</ele><time>2026-03-22T09:45:31.314Z</time></trkpt><trkpt lat="43.0394665" lon="13.3560661"><ele>394.8</ele><time>2026-03-22T09:45:33.314Z</time></trkpt><trkpt lat="43.0394555" lon="13.3559766"><ele>392.6</ele><time>2026-03-22T09:45:35.314Z</time></trkpt><trkpt lat="43.0394292" lon="13.3558772"><ele>390.40000000000003</ele><time>2026-03-22T09:45:37.314Z</time></trkpt><trkpt lat="43.0393738" lon="13.3557522"><ele>388.20000000000005</ele><time>2026-03-22T09:45:39.314Z</time></trkpt><trkpt lat="43.0393217" lon="13.3556461"><ele>386.0</ele><time>2026-03-22T09:45:41.314Z</time></trkpt><trkpt lat="43.0392723" lon="13.3555055"><ele>385.0</ele><time>2026-03-22T09:45:43.314Z</time></trkpt><trkpt lat="43.0392367" lon="13.3553814"><ele>384.0</ele><time>2026-03-22T09:45:45.314Z</time></trkpt><trkpt lat="43.0392097" lon="13.3552637"><ele>383.0</ele><time>2026-03-22T09:45:47.314Z</time></trkpt><trkpt lat="43.0392222" lon="13.3551556"><ele>382.0</ele><time>2026-03-22T09:45:49.314Z</time></trkpt><trkpt lat="43.0392963" lon="13.3550857"><ele>381.0</ele><time>2026-03-22T09:45:51.313Z</time></trkpt><trkpt lat="43.0393926" lon="13.3551052"><ele>381.0</ele><time>2026-03-22T09:45:53.314Z</time></trkpt><trkpt lat="43.0394561" lon="13.3551396"><ele>381.0</ele><time>2026-03-22T09:45:56.314Z</time></trkpt><trkpt lat="43.0395342" lon="13.3551777"><ele>381.0</ele><time>2026-03-22T09:46:00.314Z</time></trkpt><trkpt lat="43.0396146" lon="13.3552184"><ele>381.0</ele><time>2026-03-22T09:46:03.314Z</time></trkpt><trkpt lat="43.0396996" lon="13.3552338"><ele>381.0</ele><time>2026-03-22T09:46:06.313Z</time></trkpt><trkpt lat="43.0397608" lon="13.3551806"><ele>381.0</ele><time>2026-03-22T09:46:08.314Z</time></trkpt><trkpt lat="43.0397691" lon="13.3550637"><ele>381.0</ele><time>2026-03-22T09:46:10.314Z</time></trkpt><trkpt lat="43.0397312" lon="13.3549673"><ele>381.0</ele><time>2026-03-22T09:46:12.314Z</time></trkpt><trkpt lat="43.0396664" lon="13.3548796"><ele>381.0</ele><time>2026-03-22T09:46:14.314Z</time></trkpt><trkpt lat="43.0395879" lon="13.3547703"><ele>381.0</ele><time>2026-03-22T09:46:16.314Z</time></trkpt><trkpt lat="43.039486" lon="13.3546655"><ele>381.0</ele><time>2026-03-22T09:46:18.313Z</time></trkpt><trkpt lat="43.0394126" lon="13.3545958"><ele>379.0</ele><time>2026-03-22T09:46:20.314Z</time></trkpt><trkpt lat="43.0393509" lon="13.3545155"><ele>377.0</ele><time>2026-03-22T09:46:23.314Z</time></trkpt><trkpt lat="43.0393456" lon="13.3544127"><ele>375.0</ele><time>2026-03-22T09:46:25.314Z</time></trkpt><trkpt lat="43.0393939" lon="13.3543354"><ele>373.0</ele><time>2026-03-22T09:46:27.314Z</time></trkpt><trkpt lat="43.0394742" lon="13.35434"><ele>371.0</ele><time>2026-03-22T09:46:29.314Z</time></trkpt><trkpt lat="43.0395476" lon="13.3543959"><ele>369.0</ele><time>2026-03-22T09:46:31.314Z</time></trkpt><trkpt lat="43.0396236" lon="13.3544574"><ele>369.0</ele><time>2026-03-22T09:46:33.314Z</time></trkpt><trkpt lat="43.0397063" lon="13.3545157"><ele>369.0</ele><time>2026-03-22T09:46:35.314Z</time></trkpt><trkpt lat="43.0397928" lon="13.3545049"><ele>369.0</ele><time>2026-03-22T09:46:37.314Z</time></trkpt><trkpt lat="43.0398376" lon="13.3544053"><ele>369.0</ele><time>2026-03-22T09:46:39.314Z</time></trkpt><trkpt lat="43.0398131" lon="13.3542678"><ele>369.0</ele><time>2026-03-22T09:46:41.314Z</time></trkpt><trkpt lat="43.0397564" lon="13.3541537"><ele>369.0</ele><time>2026-03-22T09:46:43.314Z</time></trkpt><trkpt lat="43.0396787" lon="13.3540514"><ele>369.0</ele><time>2026-03-22T09:46:45.313Z</time></trkpt><trkpt lat="43.0395769" lon="13.3539707"><ele>369.0</ele><time>2026-03-22T09:46:47.314Z</time></trkpt><trkpt lat="43.039518" lon="13.3539314"><ele>369.0</ele><time>2026-03-22T09:46:48.314Z</time></trkpt><trkpt lat="43.0394548" lon="13.353894"><ele>369.0</ele><time>2026-03-22T09:46:49.314Z</time></trkpt><trkpt lat="43.0393913" lon="13.3538548"><ele>369.0</ele><time>2026-03-22T09:46:50.314Z</time></trkpt><trkpt lat="43.0392923" lon="13.3537917"><ele>368.3333333333333</ele><time>2026-03-22T09:46:52.314Z</time></trkpt><trkpt lat="43.039225" lon="13.3537508"><ele>367.6666666666667</ele><time>2026-03-22T09:46:54.314Z</time></trkpt><trkpt lat="43.0391599" lon="13.3537043"><ele>367.0</ele><time>2026-03-22T09:46:57.314Z</time></trkpt><trkpt lat="43.0391037" lon="13.353626"><ele>366.33333333333337</ele><time>2026-03-22T09:47:01.314Z</time></trkpt><trkpt lat="43.0390827" lon="13.3535345"><ele>365.6666666666667</ele><time>2026-03-22T09:47:04.314Z</time></trkpt><trkpt lat="43.0390698" lon="13.3534428"><ele>365.0</ele><time>2026-03-22T09:47:08.314Z</time></trkpt><trkpt lat="43.0390644" lon="13.3533138"><ele>365.0</ele><time>2026-03-22T09:47:11.314Z</time></trkpt><trkpt lat="43.0390456" lon="13.353217"><ele>365.0</ele><time>2026-03-22T09:47:13.314Z</time></trkpt><trkpt lat="43.0389964" lon="13.3530924"><ele>365.0</ele><time>2026-03-22T09:47:15.314Z</time></trkpt><trkpt lat="43.0389332" lon="13.3529764"><ele>365.0</ele><time>2026-03-22T09:47:17.314Z</time></trkpt><trkpt lat="43.0388572" lon="13.3528703"><ele>365.0</ele><time>2026-03-22T09:47:19.314Z</time></trkpt><trkpt lat="43.0387528" lon="13.3527758"><ele>362.6</ele><time>2026-03-22T09:47:21.314Z</time></trkpt><trkpt lat="43.0386879" lon="13.3527035"><ele>360.2</ele><time>2026-03-22T09:47:22.314Z</time></trkpt><trkpt lat="43.0386431" lon="13.3526117"><ele>357.79999999999995</ele><time>2026-03-22T09:47:23.314Z</time></trkpt><trkpt lat="43.0385971" lon="13.3524962"><ele>355.4</ele><time>2026-03-22T09:47:24.314Z</time></trkpt><trkpt lat="43.038576" lon="13.3523302"><ele>353.0</ele><time>2026-03-22T09:47:25.314Z</time></trkpt><trkpt lat="43.0385618" lon="13.3521693"><ele>352.0</ele><time>2026-03-22T09:47:26.314Z</time></trkpt><trkpt lat="43.0385643" lon="13.3520291"><ele>351.0</ele><time>2026-03-22T09:47:27.314Z</time></trkpt><trkpt lat="43.0385697" lon="13.3519082"><ele>350.0</ele><time>2026-03-22T09:47:28.314Z</time></trkpt><trkpt lat="43.03857" lon="13.3518132"><ele>349.0</ele><time>2026-03-22T09:47:29.314Z</time></trkpt><trkpt lat="43.0385906" lon="13.3517017"><ele>348.0</ele><time>2026-03-22T09:47:32.314Z</time></trkpt><trkpt lat="43.0385949" lon="13.351608"><ele>347.0</ele><time>2026-03-22T09:47:34.314Z</time></trkpt><trkpt lat="43.0385968" lon="13.3515053"><ele>347.0</ele><time>2026-03-22T09:47:37.314Z</time></trkpt><trkpt lat="43.0385679" lon="13.3513978"><ele>347.0</ele><time>2026-03-22T09:48:17.314Z</time></trkpt><trkpt lat="43.0384804" lon="13.3512761"><ele>347.0</ele><time>2026-03-22T09:48:19.314Z</time></trkpt><trkpt lat="43.0384238" lon="13.3512104"><ele>347.0</ele><time>2026-03-22T09:48:20.314Z</time></trkpt><trkpt lat="43.0383607" lon="13.3511372"><ele>347.0</ele><time>2026-03-22T09:48:21.314Z</time></trkpt><trkpt lat="43.0382981" lon="13.3510537"><ele>346.8</ele><time>2026-03-22T09:48:22.314Z</time></trkpt><trkpt lat="43.0382476" lon="13.3509623"><ele>346.6</ele><time>2026-03-22T09:48:23.314Z</time></trkpt><trkpt lat="43.0382018" lon="13.3508679"><ele>346.40000000000003</ele><time>2026-03-22T09:48:24.314Z</time></trkpt><trkpt lat="43.0381792" lon="13.3507354"><ele>346.20000000000005</ele><time>2026-03-22T09:48:25.314Z</time></trkpt><trkpt lat="43.0381449" lon="13.3506126"><ele>346.0</ele><time>2026-03-22T09:48:26.314Z</time></trkpt><trkpt lat="43.0381157" lon="13.3504743"><ele>346.8</ele><time>2026-03-22T09:48:27.314Z</time></trkpt><trkpt lat="43.0380979" lon="13.3503392"><ele>347.6</ele><time>2026-03-22T09:48:28.313Z</time></trkpt><trkpt lat="43.038086" lon="13.3502106"><ele>348.4</ele><time>2026-03-22T09:48:29.314Z</time></trkpt><trkpt lat="43.0380708" lon="13.3500953"><ele>349.2</ele><time>2026-03-22T09:48:30.314Z</time></trkpt><trkpt lat="43.0380489" lon="13.3499787"><ele>350.0</ele><time>2026-03-22T09:48:31.314Z</time></trkpt><trkpt lat="43.0380271" lon="13.3498632"><ele>350.0</ele><time>2026-03-22T09:48:32.314Z</time></trkpt><trkpt lat="43.0380095" lon="13.349747"><ele>350.0</ele><time>2026-03-22T09:48:33.314Z</time></trkpt><trkpt lat="43.03798" lon="13.3496353"><ele>350.0</ele><time>2026-03-22T09:48:34.314Z</time></trkpt><trkpt lat="43.0379257" lon="13.3495341"><ele>350.0</ele><time>2026-03-22T09:48:35.314Z</time></trkpt><trkpt lat="43.0378672" lon="13.3494413"><ele>350.0</ele><time>2026-03-22T09:48:36.314Z</time></trkpt><trkpt lat="43.0378142" lon="13.3493428"><ele>350.0</ele><time>2026-03-22T09:48:37.314Z</time></trkpt><trkpt lat="43.0377682" lon="13.3492334"><ele>351.83333333333337</ele><time>2026-03-22T09:48:38.314Z</time></trkpt><trkpt lat="43.037736" lon="13.3491186"><ele>353.6666666666667</ele><time>2026-03-22T09:48:39.314Z</time></trkpt><trkpt lat="43.0377013" lon="13.349007"><ele>355.5</ele><time>2026-03-22T09:48:40.314Z</time></trkpt><trkpt lat="43.0376586" lon="13.3489184"><ele>357.3333333333333</ele><time>2026-03-22T09:48:41.314Z</time></trkpt><trkpt lat="43.037608" lon="13.3488477"><ele>359.16666666666663</ele><time>2026-03-22T09:48:42.314Z</time></trkpt><trkpt lat="43.0375542" lon="13.3487762"><ele>361.0</ele><time>2026-03-22T09:48:43.314Z</time></trkpt><trkpt lat="43.0375008" lon="13.3487113"><ele>360.6</ele><time>2026-03-22T09:48:44.314Z</time></trkpt><trkpt lat="43.0374362" lon="13.3486067"><ele>360.20000000000005</ele><time>2026-03-22T09:48:46.314Z</time></trkpt><trkpt lat="43.0374167" lon="13.3484982"><ele>359.79999999999995</ele><time>2026-03-22T09:48:48.314Z</time></trkpt><trkpt lat="43.0374659" lon="13.3484257"><ele>359.4</ele><time>2026-03-22T09:48:50.314Z</time></trkpt><trkpt lat="43.03754" lon="13.3484466"><ele>359.0</ele><time>2026-03-22T09:48:52.314Z</time></trkpt><trkpt lat="43.0376545" lon="13.3485569"><ele>362.5</ele><time>2026-03-22T09:48:54.314Z</time></trkpt><trkpt lat="43.0377196" lon="13.3486109"><ele>366.0</ele><time>2026-03-22T09:48:55.314Z</time></trkpt><trkpt lat="43.0377992" lon="13.3486688"><ele>369.5</ele><time>2026-03-22T09:48:56.314Z</time></trkpt><trkpt lat="43.0378799" lon="13.3487236"><ele>373.0</ele><time>2026-03-22T09:48:57.314Z</time></trkpt><trkpt lat="43.0379606" lon="13.3487663"><ele>376.5</ele><time>2026-03-22T09:48:58.314Z</time></trkpt><trkpt lat="43.0380422" lon="13.3487889"><ele>380.0</ele><time>2026-03-22T09:48:59.314Z</time></trkpt><trkpt lat="43.0381125" lon="13.3487901"><ele>380.0</ele><time>2026-03-22T09:49:00.314Z</time></trkpt><trkpt lat="43.0381792" lon="13.3487725"><ele>380.0</ele><time>2026-03-22T09:49:01.314Z</time></trkpt><trkpt lat="43.0382503" lon="13.3487322"><ele>380.0</ele><time>2026-03-22T09:49:02.314Z</time></trkpt><trkpt lat="43.0383212" lon="13.3486797"><ele>380.0</ele><time>2026-03-22T09:49:03.314Z</time></trkpt><trkpt lat="43.0383946" lon="13.3486247"><ele>380.0</ele><time>2026-03-22T09:49:04.314Z</time></trkpt><trkpt lat="43.0384705" lon="13.3485662"><ele>380.0</ele><time>2026-03-22T09:49:05.314Z</time></trkpt><trkpt lat="43.0385487" lon="13.3485067"><ele>380.4</ele><time>2026-03-22T09:49:06.314Z</time></trkpt><trkpt lat="43.0386322" lon="13.3484476"><ele>380.8</ele><time>2026-03-22T09:49:07.314Z</time></trkpt><trkpt lat="43.0387186" lon="13.3483905"><ele>381.20000000000005</ele><time>2026-03-22T09:49:08.314Z</time></trkpt><trkpt lat="43.0388032" lon="13.3483339"><ele>381.6</ele><time>2026-03-22T09:49:09.313Z</time></trkpt><trkpt lat="43.038889" lon="13.3482809"><ele>382.0</ele><time>2026-03-22T09:49:10.314Z</time></trkpt><trkpt lat="43.0389744" lon="13.3482331"><ele>382.0</ele><time>2026-03-22T09:49:11.314Z</time></trkpt><trkpt lat="43.0390571" lon="13.3481796"><ele>382.0</ele><time>2026-03-22T09:49:12.314Z</time></trkpt><trkpt lat="43.0391416" lon="13.3481256"><ele>382.0</ele><time>2026-03-22T09:49:13.314Z</time></trkpt><trkpt lat="43.0392267" lon="13.3480728"><ele>382.0</ele><time>2026-03-22T09:49:14.314Z</time></trkpt><trkpt lat="43.0393156" lon="13.348038"><ele>382.0</ele><time>2026-03-22T09:49:15.314Z</time></trkpt><trkpt lat="43.039409" lon="13.3480216"><ele>385.0</ele><time>2026-03-22T09:49:16.314Z</time></trkpt><trkpt lat="43.0395067" lon="13.3480161"><ele>388.0</ele><time>2026-03-22T09:49:17.314Z</time></trkpt><trkpt lat="43.039606" lon="13.3480014"><ele>391.0</ele><time>2026-03-22T09:49:18.313Z</time></trkpt><trkpt lat="43.0397038" lon="13.3479712"><ele>394.0</ele><time>2026-03-22T09:49:19.314Z</time></trkpt><trkpt lat="43.0397947" lon="13.3479482"><ele>397.0</ele><time>2026-03-22T09:49:20.313Z</time></trkpt><trkpt lat="43.039886" lon="13.3479418"><ele>397.6666666666667</ele><time>2026-03-22T09:49:21.314Z</time></trkpt><trkpt lat="43.0399812" lon="13.3479425"><ele>398.33333333333337</ele><time>2026-03-22T09:49:22.314Z</time></trkpt><trkpt lat="43.0400709" lon="13.3479399"><ele>399.0</ele><time>2026-03-22T09:49:23.314Z</time></trkpt><trkpt lat="43.040145" lon="13.3479295"><ele>399.66666666666663</ele><time>2026-03-22T09:49:24.314Z</time></trkpt><trkpt lat="43.0402116" lon="13.3479179"><ele>400.3333333333333</ele><time>2026-03-22T09:49:25.314Z</time></trkpt><trkpt lat="43.0402847" lon="13.3479032"><ele>401.0</ele><time>2026-03-22T09:49:26.314Z</time></trkpt><trkpt lat="43.0403584" lon="13.3478925"><ele>400.99999999999994</ele><time>2026-03-22T09:49:27.313Z</time></trkpt><trkpt lat="43.0404342" lon="13.3478785"><ele>401.0</ele><time>2026-03-22T09:49:28.314Z</time></trkpt><trkpt lat="43.040504" lon="13.3478668"><ele>401.0</ele><time>2026-03-22T09:49:29.314Z</time></trkpt><trkpt lat="43.0405919" lon="13.3478539"><ele>401.0</ele><time>2026-03-22T09:49:31.314Z</time></trkpt><trkpt lat="43.0406611" lon="13.3478406"><ele>400.99999999999994</ele><time>2026-03-22T09:49:33.314Z</time></trkpt><trkpt lat="43.0407178" lon="13.3477675"><ele>401.0</ele><time>2026-03-22T09:49:35.314Z</time></trkpt><trkpt lat="43.0407199" lon="13.3476336"><ele>400.99999999999994</ele><time>2026-03-22T09:49:37.314Z</time></trkpt><trkpt lat="43.0407035" lon="13.347544"><ele>401.0</ele><time>2026-03-22T09:49:38.314Z</time></trkpt><trkpt lat="43.0406881" lon="13.3474474"><ele>401.0</ele><time>2026-03-22T09:49:39.314Z</time></trkpt><trkpt lat="43.0406766" lon="13.347345"><ele>401.0</ele><time>2026-03-22T09:49:40.314Z</time></trkpt><trkpt lat="43.0406579" lon="13.3472367"><ele>400.99999999999994</ele><time>2026-03-22T09:49:41.314Z</time></trkpt><trkpt lat="43.0406342" lon="13.3471222"><ele>401.0</ele><time>2026-03-22T09:49:42.314Z</time></trkpt><trkpt lat="43.0406029" lon="13.3469985"><ele>402.20000000000005</ele><time>2026-03-22T09:49:43.314Z</time></trkpt><trkpt lat="43.0405634" lon="13.3468714"><ele>403.40000000000003</ele><time>2026-03-22T09:49:44.313Z</time></trkpt><trkpt lat="43.0405194" lon="13.3467428"><ele>404.6</ele><time>2026-03-22T09:49:45.314Z</time></trkpt><trkpt lat="43.0404737" lon="13.3466193"><ele>405.8</ele><time>2026-03-22T09:49:46.314Z</time></trkpt><trkpt lat="43.0404316" lon="13.346503"><ele>407.0</ele><time>2026-03-22T09:49:47.313Z</time></trkpt><trkpt lat="43.0403941" lon="13.346394"><ele>408.8</ele><time>2026-03-22T09:49:48.314Z</time></trkpt><trkpt lat="43.0403624" lon="13.3462843"><ele>410.6</ele><time>2026-03-22T09:49:49.314Z</time></trkpt><trkpt lat="43.0403433" lon="13.3461628"><ele>412.40000000000003</ele><time>2026-03-22T09:49:50.314Z</time></trkpt><trkpt lat="43.0403423" lon="13.3460342"><ele>414.20000000000005</ele><time>2026-03-22T09:49:51.314Z</time></trkpt><trkpt lat="43.0403529" lon="13.3458955"><ele>416.0</ele><time>2026-03-22T09:49:52.314Z</time></trkpt><trkpt lat="43.040361" lon="13.3457504"><ele>416.0</ele><time>2026-03-22T09:49:53.314Z</time></trkpt><trkpt lat="43.0403669" lon="13.3456042"><ele>416.0</ele><time>2026-03-22T09:49:54.314Z</time></trkpt><trkpt lat="43.0403706" lon="13.3454548"><ele>416.0</ele><time>2026-03-22T09:49:55.314Z</time></trkpt><trkpt lat="43.0403775" lon="13.3453027"><ele>416.0</ele><time>2026-03-22T09:49:56.314Z</time></trkpt><trkpt lat="43.0403853" lon="13.3451502"><ele>416.0</ele><time>2026-03-22T09:49:57.314Z</time></trkpt><trkpt lat="43.0403945" lon="13.3449925"><ele>417.8</ele><time>2026-03-22T09:49:58.314Z</time></trkpt><trkpt lat="43.0404022" lon="13.3448354"><ele>419.6</ele><time>2026-03-22T09:49:59.314Z</time></trkpt><trkpt lat="43.0404083" lon="13.3446987"><ele>421.4</ele><time>2026-03-22T09:50:00.314Z</time></trkpt><trkpt lat="43.040413" lon="13.3445706"><ele>423.2</ele><time>2026-03-22T09:50:01.314Z</time></trkpt><trkpt lat="43.0404046" lon="13.3444554"><ele>425.0</ele><time>2026-03-22T09:50:02.314Z</time></trkpt><trkpt lat="43.0403754" lon="13.3443732"><ele>426.16666666666663</ele><time>2026-03-22T09:50:03.313Z</time></trkpt><trkpt lat="43.0403283" lon="13.3443093"><ele>427.3333333333333</ele><time>2026-03-22T09:50:04.314Z</time></trkpt><trkpt lat="43.0402676" lon="13.3442791"><ele>428.5</ele><time>2026-03-22T09:50:05.314Z</time></trkpt><trkpt lat="43.0401997" lon="13.3442814"><ele>429.66666666666663</ele><time>2026-03-22T09:50:06.314Z</time></trkpt><trkpt lat="43.0401159" lon="13.3442973"><ele>430.8333333333333</ele><time>2026-03-22T09:50:07.314Z</time></trkpt><trkpt lat="43.0400241" lon="13.3443183"><ele>432.0</ele><time>2026-03-22T09:50:08.314Z</time></trkpt><trkpt lat="43.0399377" lon="13.3443123"><ele>432.6</ele><time>2026-03-22T09:50:09.314Z</time></trkpt><trkpt lat="43.0398486" lon="13.3442726"><ele>433.20000000000005</ele><time>2026-03-22T09:50:10.314Z</time></trkpt><trkpt lat="43.0397572" lon="13.3442131"><ele>433.8</ele><time>2026-03-22T09:50:11.314Z</time></trkpt><trkpt lat="43.0396683" lon="13.3441257"><ele>434.4</ele><time>2026-03-22T09:50:12.314Z</time></trkpt><trkpt lat="43.0395879" lon="13.3440242"><ele>435.0</ele><time>2026-03-22T09:50:13.314Z</time></trkpt><trkpt lat="43.0395159" lon="13.3439097"><ele>436.5</ele><time>2026-03-22T09:50:14.314Z</time></trkpt><trkpt lat="43.0394448" lon="13.3437795"><ele>438.0</ele><time>2026-03-22T09:50:15.314Z</time></trkpt><trkpt lat="43.0393821" lon="13.343637"><ele>439.5</ele><time>2026-03-22T09:50:16.314Z</time></trkpt><trkpt lat="43.0393216" lon="13.3434802"><ele>441.0</ele><time>2026-03-22T09:50:17.314Z</time></trkpt><trkpt lat="43.039264" lon="13.3433188"><ele>441.0</ele><time>2026-03-22T09:50:18.314Z</time></trkpt><trkpt lat="43.0392104" lon="13.3431626"><ele>441.0</ele><time>2026-03-22T09:50:19.314Z</time></trkpt><trkpt lat="43.0391584" lon="13.3430308"><ele>441.0</ele><time>2026-03-22T09:50:20.314Z</time></trkpt><trkpt lat="43.0390942" lon="13.3429039"><ele>441.0</ele><time>2026-03-22T09:50:21.314Z</time></trkpt><trkpt lat="43.0390184" lon="13.3427781"><ele>443.0</ele><time>2026-03-22T09:50:22.314Z</time></trkpt><trkpt lat="43.0389373" lon="13.3426458"><ele>445.0</ele><time>2026-03-22T09:50:23.314Z</time></trkpt><trkpt lat="43.0388583" lon="13.3425118"><ele>447.0</ele><time>2026-03-22T09:50:24.314Z</time></trkpt><trkpt lat="43.0387849" lon="13.3423683"><ele>449.0</ele><time>2026-03-22T09:50:25.314Z</time></trkpt><trkpt lat="43.0387256" lon="13.3421978"><ele>450.75</ele><time>2026-03-22T09:50:26.314Z</time></trkpt><trkpt lat="43.0386804" lon="13.3420074"><ele>452.5</ele><time>2026-03-22T09:50:27.314Z</time></trkpt><trkpt lat="43.0386399" lon="13.3418334"><ele>454.25</ele><time>2026-03-22T09:50:28.313Z</time></trkpt><trkpt lat="43.0385993" lon="13.3416659"><ele>456.0</ele><time>2026-03-22T09:50:29.314Z</time></trkpt><trkpt lat="43.0385587" lon="13.3415059"><ele>457.25</ele><time>2026-03-22T09:50:30.314Z</time></trkpt><trkpt lat="43.0385042" lon="13.3413546"><ele>458.5</ele><time>2026-03-22T09:50:31.314Z</time></trkpt><trkpt lat="43.0384431" lon="13.3412065"><ele>459.75</ele><time>2026-03-22T09:50:32.314Z</time></trkpt><trkpt lat="43.0383762" lon="13.3410605"><ele>461.0</ele><time>2026-03-22T09:50:33.313Z</time></trkpt><trkpt lat="43.0383067" lon="13.3409337"><ele>461.4</ele><time>2026-03-22T09:50:34.314Z</time></trkpt><trkpt lat="43.038237" lon="13.3408057"><ele>461.8</ele><time>2026-03-22T09:50:35.314Z</time></trkpt><trkpt lat="43.0381719" lon="13.3406843"><ele>462.19999999999993</ele><time>2026-03-22T09:50:36.314Z</time></trkpt><trkpt lat="43.0381106" lon="13.3405705"><ele>462.59999999999997</ele><time>2026-03-22T09:50:37.314Z</time></trkpt><trkpt lat="43.0380442" lon="13.3404746"><ele>463.0</ele><time>2026-03-22T09:50:38.314Z</time></trkpt><trkpt lat="43.037969" lon="13.3404037"><ele>465.0</ele><time>2026-03-22T09:50:39.314Z</time></trkpt><trkpt lat="43.0378782" lon="13.3403387"><ele>467.0</ele><time>2026-03-22T09:50:40.314Z</time></trkpt><trkpt lat="43.0377832" lon="13.3402677"><ele>469.0</ele><time>2026-03-22T09:50:41.314Z</time></trkpt><trkpt lat="43.0376775" lon="13.3401896"><ele>471.0</ele><time>2026-03-22T09:50:42.314Z</time></trkpt><trkpt lat="43.0375519" lon="13.3401041"><ele>470.25</ele><time>2026-03-22T09:50:43.314Z</time></trkpt><trkpt lat="43.0374277" lon="13.3400086"><ele>469.5</ele><time>2026-03-22T09:50:44.314Z</time></trkpt><trkpt lat="43.0373163" lon="13.3399096"><ele>468.75</ele><time>2026-03-22T09:50:45.313Z</time></trkpt><trkpt lat="43.0372282" lon="13.339807"><ele>468.0</ele><time>2026-03-22T09:50:46.314Z</time></trkpt><trkpt lat="43.0371658" lon="13.3396963"><ele>468.0</ele><time>2026-03-22T09:50:47.314Z</time></trkpt><trkpt lat="43.037123" lon="13.3395725"><ele>467.99999999999994</ele><time>2026-03-22T09:50:48.314Z</time></trkpt><trkpt lat="43.0370991" lon="13.3394339"><ele>467.99999999999994</ele><time>2026-03-22T09:50:49.314Z</time></trkpt><trkpt lat="43.0370905" lon="13.3392829"><ele>468.0</ele><time>2026-03-22T09:50:50.314Z</time></trkpt><trkpt lat="43.0370897" lon="13.3391183"><ele>468.0</ele><time>2026-03-22T09:50:51.314Z</time></trkpt><trkpt lat="43.037088" lon="13.3389595"><ele>469.0</ele><time>2026-03-22T09:50:52.314Z</time></trkpt><trkpt lat="43.0370878" lon="13.3388157"><ele>469.99999999999994</ele><time>2026-03-22T09:50:53.314Z</time></trkpt><trkpt lat="43.037091" lon="13.3386923"><ele>470.99999999999994</ele><time>2026-03-22T09:50:54.314Z</time></trkpt><trkpt lat="43.0371005" lon="13.3385721"><ele>472.0</ele><time>2026-03-22T09:50:55.314Z</time></trkpt><trkpt lat="43.0371208" lon="13.3384567"><ele>473.0</ele><time>2026-03-22T09:50:56.314Z</time></trkpt><trkpt lat="43.037161" lon="13.338348"><ele>473.0</ele><time>2026-03-22T09:50:57.314Z</time></trkpt><trkpt lat="43.03722" lon="13.3382479"><ele>472.99999999999994</ele><time>2026-03-22T09:50:58.314Z</time></trkpt><trkpt lat="43.0372917" lon="13.3381516"><ele>472.99999999999994</ele><time>2026-03-22T09:50:59.314Z</time></trkpt><trkpt lat="43.0373719" lon="13.3380483"><ele>473.0</ele><time>2026-03-22T09:51:00.314Z</time></trkpt><trkpt lat="43.0374552" lon="13.3379357"><ele>473.0</ele><time>2026-03-22T09:51:01.314Z</time></trkpt><trkpt lat="43.0375501" lon="13.3378031"><ele>478.25</ele><time>2026-03-22T09:51:02.314Z</time></trkpt><trkpt lat="43.0376497" lon="13.3376778"><ele>483.5</ele><time>2026-03-22T09:51:03.314Z</time></trkpt><trkpt lat="43.0377525" lon="13.337561"><ele>488.75</ele><time>2026-03-22T09:51:04.314Z</time></trkpt><trkpt lat="43.0378508" lon="13.3374554"><ele>494.0</ele><time>2026-03-22T09:51:05.313Z</time></trkpt><trkpt lat="43.0379439" lon="13.3373583"><ele>494.0</ele><time>2026-03-22T09:51:06.314Z</time></trkpt><trkpt lat="43.038029" lon="13.3372676"><ele>494.0</ele><time>2026-03-22T09:51:07.314Z</time></trkpt><trkpt lat="43.0381089" lon="13.3371859"><ele>494.0</ele><time>2026-03-22T09:51:08.313Z</time></trkpt><trkpt lat="43.0381849" lon="13.3371115"><ele>494.0</ele><time>2026-03-22T09:51:09.314Z</time></trkpt><trkpt lat="43.03826" lon="13.3370314"><ele>494.0</ele><time>2026-03-22T09:51:10.314Z</time></trkpt><trkpt lat="43.0383387" lon="13.3369467"><ele>495.6</ele><time>2026-03-22T09:51:11.314Z</time></trkpt><trkpt lat="43.0384201" lon="13.3368599"><ele>497.2</ele><time>2026-03-22T09:51:12.314Z</time></trkpt><trkpt lat="43.0384979" lon="13.3367842"><ele>498.80000000000007</ele><time>2026-03-22T09:51:13.314Z</time></trkpt><trkpt lat="43.0385687" lon="13.3367188"><ele>500.40000000000003</ele><time>2026-03-22T09:51:14.314Z</time></trkpt><trkpt lat="43.0386256" lon="13.3366561"><ele>502.0</ele><time>2026-03-22T09:51:15.314Z</time></trkpt><trkpt lat="43.0386697" lon="13.3365238"><ele>502.0</ele><time>2026-03-22T09:51:17.314Z</time></trkpt><trkpt lat="43.0386295" lon="13.3363964"><ele>502.00000000000006</ele><time>2026-03-22T09:51:19.314Z</time></trkpt><trkpt lat="43.0385327" lon="13.3363565"><ele>502.00000000000006</ele><time>2026-03-22T09:51:21.314Z</time></trkpt><trkpt lat="43.0384615" lon="13.3363571"><ele>502.0</ele><time>2026-03-22T09:51:22.314Z</time></trkpt><trkpt lat="43.0383649" lon="13.3363652"><ele>502.0</ele><time>2026-03-22T09:51:23.313Z</time></trkpt><trkpt lat="43.0382486" lon="13.3363784"><ele>502.50000000000006</ele><time>2026-03-22T09:51:24.314Z</time></trkpt><trkpt lat="43.0381477" lon="13.336389"><ele>503.0</ele><time>2026-03-22T09:51:25.314Z</time></trkpt><trkpt lat="43.0380479" lon="13.3363967"><ele>503.5</ele><time>2026-03-22T09:51:26.314Z</time></trkpt><trkpt lat="43.0379614" lon="13.336403"><ele>504.0</ele><time>2026-03-22T09:51:27.314Z</time></trkpt><trkpt lat="43.0378815" lon="13.3364036"><ele>504.50000000000006</ele><time>2026-03-22T09:51:28.314Z</time></trkpt><trkpt lat="43.0378011" lon="13.3363953"><ele>505.0</ele><time>2026-03-22T09:51:29.314Z</time></trkpt><trkpt lat="43.0377222" lon="13.3363747"><ele>505.83333333333337</ele><time>2026-03-22T09:51:30.314Z</time></trkpt><trkpt lat="43.0376427" lon="13.3363392"><ele>506.6666666666667</ele><time>2026-03-22T09:51:31.314Z</time></trkpt><trkpt lat="43.0375681" lon="13.3362851"><ele>507.5</ele><time>2026-03-22T09:51:32.314Z</time></trkpt><trkpt lat="43.0374966" lon="13.3362214"><ele>508.33333333333337</ele><time>2026-03-22T09:51:33.314Z</time></trkpt><trkpt lat="43.0374316" lon="13.3361512"><ele>509.1666666666667</ele><time>2026-03-22T09:51:34.314Z</time></trkpt><trkpt lat="43.03737" lon="13.33608"><ele>510.0</ele><time>2026-03-22T09:51:35.314Z</time></trkpt><trkpt lat="43.0373093" lon="13.3360101"><ele>510.0</ele><time>2026-03-22T09:51:36.314Z</time></trkpt><trkpt lat="43.0372259" lon="13.3358899"><ele>510.0</ele><time>2026-03-22T09:51:38.314Z</time></trkpt><trkpt lat="43.0372008" lon="13.3357433"><ele>510.0</ele><time>2026-03-22T09:51:40.314Z</time></trkpt><trkpt lat="43.0372729" lon="13.335619"><ele>510.0</ele><time>2026-03-22T09:51:42.314Z</time></trkpt><trkpt lat="43.0373854" lon="13.3355368"><ele>512.5</ele><time>2026-03-22T09:51:44.314Z</time></trkpt><trkpt lat="43.0374474" lon="13.335482"><ele>515.0</ele><time>2026-03-22T09:51:45.314Z</time></trkpt><trkpt lat="43.0374979" lon="13.3354102"><ele>517.5</ele><time>2026-03-22T09:51:46.314Z</time></trkpt><trkpt lat="43.0375227" lon="13.3353201"><ele>520.0</ele><time>2026-03-22T09:51:47.313Z</time></trkpt><trkpt lat="43.0375223" lon="13.3352214"><ele>522.5</ele><time>2026-03-22T09:51:48.314Z</time></trkpt><trkpt lat="43.0375093" lon="13.3351167"><ele>525.0</ele><time>2026-03-22T09:51:49.313Z</time></trkpt><trkpt lat="43.0374878" lon="13.3349928"><ele>525.0</ele><time>2026-03-22T09:51:50.314Z</time></trkpt><trkpt lat="43.0374657" lon="13.3348762"><ele>525.0</ele><time>2026-03-22T09:51:51.314Z</time></trkpt><trkpt lat="43.037441" lon="13.3347635"><ele>525.0</ele><time>2026-03-22T09:51:52.313Z</time></trkpt><trkpt lat="43.0374164" lon="13.3346631"><ele>525.0</ele><time>2026-03-22T09:51:53.314Z</time></trkpt><trkpt lat="43.0373903" lon="13.3345779"><ele>525.0</ele><time>2026-03-22T09:51:54.314Z</time></trkpt><trkpt lat="43.0373557" lon="13.334474"><ele>525.0</ele><time>2026-03-22T09:51:55.314Z</time></trkpt><trkpt lat="43.037306" lon="13.3343463"><ele>527.6</ele><time>2026-03-22T09:51:56.314Z</time></trkpt><trkpt lat="43.037251" lon="13.3342234"><ele>530.2</ele><time>2026-03-22T09:51:57.314Z</time></trkpt><trkpt lat="43.0371978" lon="13.3341045"><ele>532.8</ele><time>2026-03-22T09:51:58.314Z</time></trkpt><trkpt lat="43.0371472" lon="13.3339878"><ele>535.4</ele><time>2026-03-22T09:51:59.314Z</time></trkpt><trkpt lat="43.0370949" lon="13.3338716"><ele>538.0</ele><time>2026-03-22T09:52:00.314Z</time></trkpt><trkpt lat="43.0370329" lon="13.3337463"><ele>539.1999999999999</ele><time>2026-03-22T09:52:01.314Z</time></trkpt><trkpt lat="43.0369784" lon="13.3336318"><ele>540.4</ele><time>2026-03-22T09:52:02.314Z</time></trkpt><trkpt lat="43.0369158" lon="13.3335301"><ele>541.5999999999999</ele><time>2026-03-22T09:52:03.314Z</time></trkpt><trkpt lat="43.036847" lon="13.3334186"><ele>542.8</ele><time>2026-03-22T09:52:04.314Z</time></trkpt><trkpt lat="43.036774" lon="13.3333059"><ele>544.0</ele><time>2026-03-22T09:52:05.314Z</time></trkpt><trkpt lat="43.0366979" lon="13.3331929"><ele>544.4</ele><time>2026-03-22T09:52:06.314Z</time></trkpt><trkpt lat="43.0366222" lon="13.3330854"><ele>544.8</ele><time>2026-03-22T09:52:07.314Z</time></trkpt><trkpt lat="43.0365476" lon="13.3329784"><ele>545.2</ele><time>2026-03-22T09:52:08.314Z</time></trkpt><trkpt lat="43.0364719" lon="13.3328671"><ele>545.6</ele><time>2026-03-22T09:52:09.314Z</time></trkpt><trkpt lat="43.0364033" lon="13.3327437"><ele>546.0</ele><time>2026-03-22T09:52:10.314Z</time></trkpt><trkpt lat="43.0363473" lon="13.332607"><ele>548.0</ele><time>2026-03-22T09:52:11.314Z</time></trkpt><trkpt lat="43.036293" lon="13.332474"><ele>550.0</ele><time>2026-03-22T09:52:12.314Z</time></trkpt><trkpt lat="43.0362373" lon="13.3323519"><ele>552.0</ele><time>2026-03-22T09:52:13.314Z</time></trkpt><trkpt lat="43.0361801" lon="13.3322348"><ele>554.0</ele><time>2026-03-22T09:52:14.313Z</time></trkpt><trkpt lat="43.0361229" lon="13.3321167"><ele>556.0</ele><time>2026-03-22T09:52:15.314Z</time></trkpt><trkpt lat="43.0360654" lon="13.3319978"><ele>556.8</ele><time>2026-03-22T09:52:16.314Z</time></trkpt><trkpt lat="43.0360081" lon="13.3318769"><ele>557.6</ele><time>2026-03-22T09:52:17.313Z</time></trkpt><trkpt lat="43.0359654" lon="13.3317631"><ele>558.4</ele><time>2026-03-22T09:52:18.314Z</time></trkpt><trkpt lat="43.0359453" lon="13.33164"><ele>559.2</ele><time>2026-03-22T09:52:19.314Z</time></trkpt><trkpt lat="43.0359443" lon="13.3314955"><ele>560.0</ele><time>2026-03-22T09:52:20.314Z</time></trkpt><trkpt lat="43.0359681" lon="13.3313435"><ele>562.5</ele><time>2026-03-22T09:52:21.314Z</time></trkpt><trkpt lat="43.0360171" lon="13.3311938"><ele>565.0</ele><time>2026-03-22T09:52:22.314Z</time></trkpt><trkpt lat="43.0360778" lon="13.3310399"><ele>567.5</ele><time>2026-03-22T09:52:23.314Z</time></trkpt><trkpt lat="43.0361434" lon="13.3308839"><ele>570.0</ele><time>2026-03-22T09:52:24.314Z</time></trkpt><trkpt lat="43.0362105" lon="13.3307289"><ele>570.0</ele><time>2026-03-22T09:52:25.314Z</time></trkpt><trkpt lat="43.0362743" lon="13.3305728"><ele>570.0</ele><time>2026-03-22T09:52:26.314Z</time></trkpt><trkpt lat="43.0363338" lon="13.3304134"><ele>570.0</ele><time>2026-03-22T09:52:27.314Z</time></trkpt><trkpt lat="43.0363963" lon="13.3302588"><ele>570.0</ele><time>2026-03-22T09:52:28.314Z</time></trkpt><trkpt lat="43.0364601" lon="13.3301117"><ele>569.6</ele><time>2026-03-22T09:52:29.314Z</time></trkpt><trkpt lat="43.0365171" lon="13.3299783"><ele>569.2</ele><time>2026-03-22T09:52:30.312Z</time></trkpt><trkpt lat="43.0365645" lon="13.329858"><ele>568.8</ele><time>2026-03-22T09:52:31.313Z</time></trkpt><trkpt lat="43.0366067" lon="13.3297547"><ele>568.4</ele><time>2026-03-22T09:52:32.314Z</time></trkpt><trkpt lat="43.0366473" lon="13.32966"><ele>568.0</ele><time>2026-03-22T09:52:33.314Z</time></trkpt><trkpt lat="43.0366911" lon="13.3295674"><ele>568.0</ele><time>2026-03-22T09:52:34.314Z</time></trkpt><trkpt lat="43.0367405" lon="13.3294806"><ele>568.0</ele><time>2026-03-22T09:52:35.314Z</time></trkpt><trkpt lat="43.0368065" lon="13.3293935"><ele>568.0</ele><time>2026-03-22T09:52:36.314Z</time></trkpt><trkpt lat="43.0368831" lon="13.3293115"><ele>568.0</ele><time>2026-03-22T09:52:37.314Z</time></trkpt><trkpt lat="43.0369702" lon="13.3292361"><ele>568.0</ele><time>2026-03-22T09:52:38.314Z</time></trkpt><trkpt lat="43.0370641" lon="13.3291703"><ele>568.0</ele><time>2026-03-22T09:52:39.314Z</time></trkpt><trkpt lat="43.0371614" lon="13.3291162"><ele>568.0</ele><time>2026-03-22T09:52:40.314Z</time></trkpt><trkpt lat="43.0372602" lon="13.329068"><ele>568.0</ele><time>2026-03-22T09:52:41.314Z</time></trkpt><trkpt lat="43.0373599" lon="13.329025"><ele>568.0</ele><time>2026-03-22T09:52:42.314Z</time></trkpt><trkpt lat="43.0374599" lon="13.3289823"><ele>568.0</ele><time>2026-03-22T09:52:43.314Z</time></trkpt><trkpt lat="43.0375586" lon="13.3289482"><ele>565.0</ele><time>2026-03-22T09:52:44.314Z</time></trkpt><trkpt lat="43.0376514" lon="13.3289213"><ele>562.0</ele><time>2026-03-22T09:52:45.314Z</time></trkpt><trkpt lat="43.0377401" lon="13.328889"><ele>559.0</ele><time>2026-03-22T09:52:46.314Z</time></trkpt><trkpt lat="43.0378336" lon="13.3288452"><ele>556.0</ele><time>2026-03-22T09:52:47.314Z</time></trkpt><trkpt lat="43.0379198" lon="13.3287752"><ele>553.0</ele><time>2026-03-22T09:52:48.314Z</time></trkpt><trkpt lat="43.0379983" lon="13.32868"><ele>553.0</ele><time>2026-03-22T09:52:49.314Z</time></trkpt><trkpt lat="43.0380542" lon="13.3285656"><ele>553.0</ele><time>2026-03-22T09:52:50.313Z</time></trkpt><trkpt lat="43.0380805" lon="13.3284367"><ele>553.0</ele><time>2026-03-22T09:52:51.314Z</time></trkpt><trkpt lat="43.0380821" lon="13.3282918"><ele>553.0</ele><time>2026-03-22T09:52:52.314Z</time></trkpt><trkpt lat="43.0380673" lon="13.3281381"><ele>553.0</ele><time>2026-03-22T09:52:53.314Z</time></trkpt><trkpt lat="43.0380329" lon="13.3279962"><ele>551.0</ele><time>2026-03-22T09:52:54.314Z</time></trkpt><trkpt lat="43.0379818" lon="13.3278635"><ele>549.0</ele><time>2026-03-22T09:52:55.314Z</time></trkpt><trkpt lat="43.0379347" lon="13.3277517"><ele>547.0</ele><time>2026-03-22T09:52:56.314Z</time></trkpt><trkpt lat="43.0378768" lon="13.3276561"><ele>545.0</ele><time>2026-03-22T09:52:57.313Z</time></trkpt><trkpt lat="43.0378048" lon="13.3275772"><ele>543.0</ele><time>2026-03-22T09:52:58.314Z</time></trkpt><trkpt lat="43.0377326" lon="13.3274918"><ele>543.0</ele><time>2026-03-22T09:52:59.314Z</time></trkpt><trkpt lat="43.0376537" lon="13.3274037"><ele>543.0</ele><time>2026-03-22T09:53:00.314Z</time></trkpt><trkpt lat="43.0375691" lon="13.3273241"><ele>543.0</ele><time>2026-03-22T09:53:01.314Z</time></trkpt><trkpt lat="43.0374839" lon="13.3272526"><ele>543.0</ele><time>2026-03-22T09:53:02.314Z</time></trkpt><trkpt lat="43.0374011" lon="13.3271849"><ele>543.0</ele><time>2026-03-22T09:53:03.314Z</time></trkpt><trkpt lat="43.0373181" lon="13.3271151"><ele>542.4</ele><time>2026-03-22T09:53:04.314Z</time></trkpt><trkpt lat="43.0372332" lon="13.3270487"><ele>541.8</ele><time>2026-03-22T09:53:05.314Z</time></trkpt><trkpt lat="43.0371431" lon="13.3269854"><ele>541.2</ele><time>2026-03-22T09:53:06.314Z</time></trkpt><trkpt lat="43.0370506" lon="13.3269263"><ele>540.6</ele><time>2026-03-22T09:53:07.314Z</time></trkpt><trkpt lat="43.036957" lon="13.3268809"><ele>540.0</ele><time>2026-03-22T09:53:08.314Z</time></trkpt><trkpt lat="43.0368619" lon="13.3268398"><ele>540.0</ele><time>2026-03-22T09:53:09.314Z</time></trkpt><trkpt lat="43.0367677" lon="13.3267927"><ele>540.0</ele><time>2026-03-22T09:53:10.314Z</time></trkpt><trkpt lat="43.0366754" lon="13.3267406"><ele>540.0</ele><time>2026-03-22T09:53:11.314Z</time></trkpt><trkpt lat="43.0365854" lon="13.3266932"><ele>540.0</ele><time>2026-03-22T09:53:12.314Z</time></trkpt><trkpt lat="43.0364981" lon="13.3266397"><ele>540.0</ele><time>2026-03-22T09:53:13.313Z</time></trkpt><trkpt lat="43.0364145" lon="13.3265615"><ele>543.75</ele><time>2026-03-22T09:53:14.314Z</time></trkpt><trkpt lat="43.0363501" lon="13.3264431"><ele>547.5</ele><time>2026-03-22T09:53:15.314Z</time></trkpt><trkpt lat="43.0363099" lon="13.3262997"><ele>551.25</ele><time>2026-03-22T09:53:16.314Z</time></trkpt><trkpt lat="43.0363085" lon="13.3261418"><ele>555.0</ele><time>2026-03-22T09:53:17.314Z</time></trkpt><trkpt lat="43.0363281" lon="13.3259793"><ele>555.0</ele><time>2026-03-22T09:53:18.314Z</time></trkpt><trkpt lat="43.0363452" lon="13.3258192"><ele>555.0</ele><time>2026-03-22T09:53:19.314Z</time></trkpt><trkpt lat="43.0363352" lon="13.3256785"><ele>555.0</ele><time>2026-03-22T09:53:20.314Z</time></trkpt><trkpt lat="43.0363142" lon="13.3255371"><ele>555.0</ele><time>2026-03-22T09:53:21.314Z</time></trkpt><trkpt lat="43.0362955" lon="13.3253949"><ele>555.0</ele><time>2026-03-22T09:53:22.314Z</time></trkpt><trkpt lat="43.0362382" lon="13.325258"><ele>552.25</ele><time>2026-03-22T09:53:23.314Z</time></trkpt><trkpt lat="43.0361738" lon="13.3251212"><ele>549.5</ele><time>2026-03-22T09:53:24.314Z</time></trkpt><trkpt lat="43.0361192" lon="13.3249927"><ele>546.75</ele><time>2026-03-22T09:53:25.314Z</time></trkpt><trkpt lat="43.0360084" lon="13.3249094"><ele>544.0</ele><time>2026-03-22T09:53:26.313Z</time></trkpt><trkpt lat="43.035917" lon="13.3248185"><ele>544.0</ele><time>2026-03-22T09:53:27.314Z</time></trkpt><trkpt lat="43.0358043" lon="13.3247375"><ele>544.0</ele><time>2026-03-22T09:53:28.314Z</time></trkpt><trkpt lat="43.0356834" lon="13.3246573"><ele>544.0</ele><time>2026-03-22T09:53:29.314Z</time></trkpt><trkpt lat="43.0355456" lon="13.3245899"><ele>544.0</ele><time>2026-03-22T09:53:30.314Z</time></trkpt><trkpt lat="43.035405" lon="13.3245108"><ele>543.5</ele><time>2026-03-22T09:53:31.314Z</time></trkpt><trkpt lat="43.0352852" lon="13.3244177"><ele>543.0</ele><time>2026-03-22T09:53:32.314Z</time></trkpt><trkpt lat="43.0351829" lon="13.3243081"><ele>542.5</ele><time>2026-03-22T09:53:33.314Z</time></trkpt><trkpt lat="43.0350818" lon="13.3242149"><ele>542.0</ele><time>2026-03-22T09:53:34.314Z</time></trkpt><trkpt lat="43.0349985" lon="13.3241251"><ele>545.4</ele><time>2026-03-22T09:53:35.313Z</time></trkpt><trkpt lat="43.0349157" lon="13.3240289"><ele>548.8000000000001</ele><time>2026-03-22T09:53:36.314Z</time></trkpt><trkpt lat="43.034859" lon="13.3239083"><ele>552.2</ele><time>2026-03-22T09:53:37.314Z</time></trkpt><trkpt lat="43.0348173" lon="13.3237797"><ele>555.6</ele><time>2026-03-22T09:53:38.314Z</time></trkpt><trkpt lat="43.0348134" lon="13.3236249"><ele>559.0</ele><time>2026-03-22T09:53:39.314Z</time></trkpt><trkpt lat="43.034811" lon="13.3234643"><ele>559.0</ele><time>2026-03-22T09:53:40.314Z</time></trkpt><trkpt lat="43.0348207" lon="13.3233012"><ele>559.0</ele><time>2026-03-22T09:53:41.314Z</time></trkpt><trkpt lat="43.0348309" lon="13.3231354"><ele>559.0</ele><time>2026-03-22T09:53:42.314Z</time></trkpt><trkpt lat="43.034865" lon="13.3229491"><ele>559.0</ele><time>2026-03-22T09:53:43.314Z</time></trkpt><trkpt lat="43.0349028" lon="13.3227604"><ele>558.75</ele><time>2026-03-22T09:53:44.314Z</time></trkpt><trkpt lat="43.0349479" lon="13.3225868"><ele>558.5</ele><time>2026-03-22T09:53:45.314Z</time></trkpt><trkpt lat="43.0349896" lon="13.3224153"><ele>558.25</ele><time>2026-03-22T09:53:46.314Z</time></trkpt><trkpt lat="43.0350287" lon="13.3222381"><ele>558.0</ele><time>2026-03-22T09:53:47.314Z</time></trkpt><trkpt lat="43.0350356" lon="13.3220529"><ele>552.0</ele><time>2026-03-22T09:53:48.314Z</time></trkpt><trkpt lat="43.0350451" lon="13.3218728"><ele>546.0</ele><time>2026-03-22T09:53:49.314Z</time></trkpt><trkpt lat="43.0350473" lon="13.3216893"><ele>540.0</ele><time>2026-03-22T09:53:50.314Z</time></trkpt><trkpt lat="43.0350362" lon="13.3215162"><ele>534.0</ele><time>2026-03-22T09:53:51.314Z</time></trkpt><trkpt lat="43.0350238" lon="13.3213427"><ele>534.0</ele><time>2026-03-22T09:53:52.314Z</time></trkpt><trkpt lat="43.0350182" lon="13.3211821"><ele>534.0</ele><time>2026-03-22T09:53:53.314Z</time></trkpt><trkpt lat="43.0350324" lon="13.3210329"><ele>534.0</ele><time>2026-03-22T09:53:54.314Z</time></trkpt><trkpt lat="43.035058" lon="13.3208815"><ele>534.0</ele><time>2026-03-22T09:53:55.314Z</time></trkpt><trkpt lat="43.03511" lon="13.3207432"><ele>534.0</ele><time>2026-03-22T09:53:56.314Z</time></trkpt><trkpt lat="43.0351922" lon="13.3206364"><ele>534.0</ele><time>2026-03-22T09:53:57.314Z</time></trkpt><trkpt lat="43.0352745" lon="13.3205384"><ele>534.0</ele><time>2026-03-22T09:53:58.314Z</time></trkpt><trkpt lat="43.0353462" lon="13.3204313"><ele>534.0</ele><time>2026-03-22T09:53:59.314Z</time></trkpt><trkpt lat="43.0353965" lon="13.3203158"><ele>534.0</ele><time>2026-03-22T09:54:00.314Z</time></trkpt><trkpt lat="43.0354237" lon="13.320192"><ele>532.6</ele><time>2026-03-22T09:54:01.314Z</time></trkpt><trkpt lat="43.0354182" lon="13.3200626"><ele>531.2</ele><time>2026-03-22T09:54:02.314Z</time></trkpt><trkpt lat="43.0353827" lon="13.3199297"><ele>529.8000000000001</ele><time>2026-03-22T09:54:03.314Z</time></trkpt><trkpt lat="43.0353208" lon="13.3198038"><ele>528.4</ele><time>2026-03-22T09:54:04.314Z</time></trkpt><trkpt lat="43.0352338" lon="13.3196758"><ele>527.0</ele><time>2026-03-22T09:54:05.314Z</time></trkpt><trkpt lat="43.0351339" lon="13.3195489"><ele>524.5</ele><time>2026-03-22T09:54:06.314Z</time></trkpt><trkpt lat="43.0350349" lon="13.3194229"><ele>522.0</ele><time>2026-03-22T09:54:07.314Z</time></trkpt><trkpt lat="43.0349405" lon="13.3192941"><ele>519.5</ele><time>2026-03-22T09:54:08.314Z</time></trkpt><trkpt lat="43.0348527" lon="13.3191558"><ele>517.0</ele><time>2026-03-22T09:54:09.314Z</time></trkpt><trkpt lat="43.0347776" lon="13.3190109"><ele>514.0</ele><time>2026-03-22T09:54:10.313Z</time></trkpt><trkpt lat="43.0347138" lon="13.3188747"><ele>511.00000000000006</ele><time>2026-03-22T09:54:11.314Z</time></trkpt><trkpt lat="43.0346491" lon="13.3187446"><ele>508.00000000000006</ele><time>2026-03-22T09:54:12.314Z</time></trkpt><trkpt lat="43.0345671" lon="13.318666"><ele>505.0</ele><time>2026-03-22T09:54:13.314Z</time></trkpt><trkpt lat="43.0344818" lon="13.3185784"><ele>502.0</ele><time>2026-03-22T09:54:14.314Z</time></trkpt><trkpt lat="43.0343634" lon="13.3185273"><ele>502.0</ele><time>2026-03-22T09:54:15.314Z</time></trkpt><trkpt lat="43.0342561" lon="13.3184743"><ele>502.00000000000006</ele><time>2026-03-22T09:54:16.314Z</time></trkpt><trkpt lat="43.034148" lon="13.3184178"><ele>502.00000000000006</ele><time>2026-03-22T09:54:17.314Z</time></trkpt><trkpt lat="43.0340429" lon="13.3183599"><ele>502.0</ele><time>2026-03-22T09:54:18.314Z</time></trkpt><trkpt lat="43.0339537" lon="13.318305"><ele>502.0</ele><time>2026-03-22T09:54:19.314Z</time></trkpt><trkpt lat="43.0338753" lon="13.3182518"><ele>500.6666666666667</ele><time>2026-03-22T09:54:20.314Z</time></trkpt><trkpt lat="43.033806" lon="13.3182461"><ele>499.33333333333337</ele><time>2026-03-22T09:54:21.314Z</time></trkpt><trkpt lat="43.0337323" lon="13.3182563"><ele>498.0</ele><time>2026-03-22T09:54:22.314Z</time></trkpt><trkpt lat="43.0336685" lon="13.3182943"><ele>496.66666666666663</ele><time>2026-03-22T09:54:23.314Z</time></trkpt><trkpt lat="43.0335951" lon="13.3183157"><ele>495.3333333333333</ele><time>2026-03-22T09:54:24.314Z</time></trkpt><trkpt lat="43.0335199" lon="13.3183225"><ele>494.0</ele><time>2026-03-22T09:54:25.314Z</time></trkpt><trkpt lat="43.0334275" lon="13.3182892"><ele>494.0</ele><time>2026-03-22T09:54:26.314Z</time></trkpt><trkpt lat="43.0333617" lon="13.3182358"><ele>494.0</ele><time>2026-03-22T09:54:27.314Z</time></trkpt><trkpt lat="43.033302" lon="13.3181904"><ele>494.0</ele><time>2026-03-22T09:54:28.314Z</time></trkpt><trkpt lat="43.033236" lon="13.3181609"><ele>494.0</ele><time>2026-03-22T09:54:29.314Z</time></trkpt><trkpt lat="43.0331762" lon="13.3182231"><ele>494.0</ele><time>2026-03-22T09:54:30.314Z</time></trkpt><trkpt lat="43.0331022" lon="13.3182496"><ele>494.0</ele><time>2026-03-22T09:54:31.314Z</time></trkpt><trkpt lat="43.0330286" lon="13.3182973"><ele>494.0</ele><time>2026-03-22T09:54:32.313Z</time></trkpt><trkpt lat="43.0329516" lon="13.3183468"><ele>492.66666666666663</ele><time>2026-03-22T09:54:33.314Z</time></trkpt><trkpt lat="43.0329099" lon="13.3184328"><ele>491.3333333333333</ele><time>2026-03-22T09:54:34.313Z</time></trkpt><trkpt lat="43.0328738" lon="13.318504"><ele>490.0</ele><time>2026-03-22T09:54:35.314Z</time></trkpt><trkpt lat="43.0327721" lon="13.318553"><ele>488.66666666666663</ele><time>2026-03-22T09:54:37.314Z</time></trkpt><trkpt lat="43.0327061" lon="13.3184597"><ele>487.3333333333333</ele><time>2026-03-22T09:54:39.314Z</time></trkpt><trkpt lat="43.0327084" lon="13.3183643"><ele>486.0</ele><time>2026-03-22T09:54:40.314Z</time></trkpt><trkpt lat="43.0327225" lon="13.3182457"><ele>486.0</ele><time>2026-03-22T09:54:41.314Z</time></trkpt><trkpt lat="43.0327475" lon="13.3181305"><ele>486.0</ele><time>2026-03-22T09:54:42.314Z</time></trkpt><trkpt lat="43.0327757" lon="13.3180094"><ele>486.0</ele><time>2026-03-22T09:54:43.314Z</time></trkpt><trkpt lat="43.0328063" lon="13.3178799"><ele>486.0</ele><time>2026-03-22T09:54:44.314Z</time></trkpt><trkpt lat="43.0328482" lon="13.31776"><ele>486.0</ele><time>2026-03-22T09:54:45.314Z</time></trkpt><trkpt lat="43.0328905" lon="13.3176316"><ele>484.0</ele><time>2026-03-22T09:54:46.314Z</time></trkpt><trkpt lat="43.0329306" lon="13.3174953"><ele>482.0</ele><time>2026-03-22T09:54:47.314Z</time></trkpt><trkpt lat="43.0329582" lon="13.3173521"><ele>480.0</ele><time>2026-03-22T09:54:48.314Z</time></trkpt><trkpt lat="43.0329693" lon="13.3172009"><ele>478.0</ele><time>2026-03-22T09:54:49.314Z</time></trkpt><trkpt lat="43.0329784" lon="13.3170501"><ele>476.0</ele><time>2026-03-22T09:54:50.314Z</time></trkpt><trkpt lat="43.0329904" lon="13.3168993"><ele>474.25</ele><time>2026-03-22T09:54:51.313Z</time></trkpt><trkpt lat="43.0330116" lon="13.3167501"><ele>472.5</ele><time>2026-03-22T09:54:52.314Z</time></trkpt><trkpt lat="43.0330223" lon="13.3165898"><ele>470.75</ele><time>2026-03-22T09:54:53.314Z</time></trkpt><trkpt lat="43.0330281" lon="13.3164112"><ele>469.0</ele><time>2026-03-22T09:54:54.314Z</time></trkpt><trkpt lat="43.0329841" lon="13.31622"><ele>467.75</ele><time>2026-03-22T09:54:55.314Z</time></trkpt><trkpt lat="43.0329694" lon="13.3160434"><ele>466.5</ele><time>2026-03-22T09:54:56.314Z</time></trkpt><trkpt lat="43.0329555" lon="13.3158801"><ele>465.25</ele><time>2026-03-22T09:54:57.314Z</time></trkpt><trkpt lat="43.0329395" lon="13.3157218"><ele>464.0</ele><time>2026-03-22T09:54:58.314Z</time></trkpt><trkpt lat="43.0329212" lon="13.3155623"><ele>463.99999999999994</ele><time>2026-03-22T09:54:59.314Z</time></trkpt><trkpt lat="43.0329066" lon="13.3154117"><ele>464.0</ele><time>2026-03-22T09:55:00.314Z</time></trkpt><trkpt lat="43.032891" lon="13.3152834"><ele>464.0</ele><time>2026-03-22T09:55:01.314Z</time></trkpt><trkpt lat="43.0328731" lon="13.3151762"><ele>464.0</ele><time>2026-03-22T09:55:02.314Z</time></trkpt><trkpt lat="43.032842" lon="13.3150744"><ele>463.99999999999994</ele><time>2026-03-22T09:55:03.314Z</time></trkpt><trkpt lat="43.0327913" lon="13.3150026"><ele>464.0</ele><time>2026-03-22T09:55:04.314Z</time></trkpt><trkpt lat="43.0327096" lon="13.3149453"><ele>464.0</ele><time>2026-03-22T09:55:05.314Z</time></trkpt><trkpt lat="43.0326179" lon="13.3148888"><ele>464.0</ele><time>2026-03-22T09:55:06.314Z</time></trkpt><trkpt lat="43.032526" lon="13.314829"><ele>464.0</ele><time>2026-03-22T09:55:07.314Z</time></trkpt><trkpt lat="43.0324396" lon="13.3147577"><ele>464.0</ele><time>2026-03-22T09:55:08.314Z</time></trkpt><trkpt lat="43.032362" lon="13.3146575"><ele>464.0</ele><time>2026-03-22T09:55:09.314Z</time></trkpt><trkpt lat="43.0322757" lon="13.3145322"><ele>463.0</ele><time>2026-03-22T09:55:10.314Z</time></trkpt><trkpt lat="43.0321878" lon="13.3144008"><ele>462.0</ele><time>2026-03-22T09:55:11.314Z</time></trkpt><trkpt lat="43.0320994" lon="13.3142674"><ele>461.0</ele><time>2026-03-22T09:55:12.314Z</time></trkpt><trkpt lat="43.0320115" lon="13.3141353"><ele>460.0</ele><time>2026-03-22T09:55:13.314Z</time></trkpt><trkpt lat="43.0319244" lon="13.3140111"><ele>460.4</ele><time>2026-03-22T09:55:14.314Z</time></trkpt><trkpt lat="43.0318388" lon="13.313897"><ele>460.8</ele><time>2026-03-22T09:55:15.314Z</time></trkpt><trkpt lat="43.0317576" lon="13.3137906"><ele>461.20000000000005</ele><time>2026-03-22T09:55:16.314Z</time></trkpt><trkpt lat="43.0316816" lon="13.3136905"><ele>461.6</ele><time>2026-03-22T09:55:17.314Z</time></trkpt><trkpt lat="43.0316174" lon="13.3135871"><ele>462.0</ele><time>2026-03-22T09:55:18.314Z</time></trkpt><trkpt lat="43.0315668" lon="13.3134804"><ele>462.5</ele><time>2026-03-22T09:55:19.314Z</time></trkpt><trkpt lat="43.0315326" lon="13.3133698"><ele>463.0</ele><time>2026-03-22T09:55:20.314Z</time></trkpt><trkpt lat="43.0315262" lon="13.313272"><ele>463.5</ele><time>2026-03-22T09:55:21.313Z</time></trkpt><trkpt lat="43.0315332" lon="13.3131353"><ele>464.0</ele><time>2026-03-22T09:55:23.314Z</time></trkpt><trkpt lat="43.0315334" lon="13.3130322"><ele>464.5</ele><time>2026-03-22T09:55:26.314Z</time></trkpt><trkpt lat="43.0315376" lon="13.3128857"><ele>465.0</ele><time>2026-03-22T09:55:45.314Z</time></trkpt><trkpt lat="43.0315417" lon="13.3127629"><ele>466.5</ele><time>2026-03-22T09:55:46.314Z</time></trkpt><trkpt lat="43.0315415" lon="13.3126241"><ele>468.0</ele><time>2026-03-22T09:55:47.314Z</time></trkpt><trkpt lat="43.0315332" lon="13.3124666"><ele>469.5</ele><time>2026-03-22T09:55:48.314Z</time></trkpt><trkpt lat="43.0315175" lon="13.312304"><ele>471.0</ele><time>2026-03-22T09:55:49.314Z</time></trkpt><trkpt lat="43.0315025" lon="13.3121309"><ele>472.5</ele><time>2026-03-22T09:55:50.313Z</time></trkpt><trkpt lat="43.0314923" lon="13.3119515"><ele>474.0</ele><time>2026-03-22T09:55:51.314Z</time></trkpt><trkpt lat="43.031479" lon="13.3117647"><ele>475.5</ele><time>2026-03-22T09:55:52.314Z</time></trkpt><trkpt lat="43.0314613" lon="13.3115548"><ele>477.0</ele><time>2026-03-22T09:55:53.313Z</time></trkpt><trkpt lat="43.031448" lon="13.311331"><ele>477.0</ele><time>2026-03-22T09:55:54.314Z</time></trkpt><trkpt lat="43.0314342" lon="13.3110807"><ele>477.0</ele><time>2026-03-22T09:55:55.314Z</time></trkpt><trkpt lat="43.0314161" lon="13.3108048"><ele>477.0</ele><time>2026-03-22T09:55:56.314Z</time></trkpt><trkpt lat="43.0314006" lon="13.3105319"><ele>472.66666666666663</ele><time>2026-03-22T09:55:57.314Z</time></trkpt><trkpt lat="43.0313855" lon="13.3102727"><ele>468.3333333333333</ele><time>2026-03-22T09:55:58.314Z</time></trkpt><trkpt lat="43.0313683" lon="13.3100187"><ele>464.0</ele><time>2026-03-22T09:55:59.314Z</time></trkpt><trkpt lat="43.0313508" lon="13.3097592"><ele>462.66666666666663</ele><time>2026-03-22T09:56:00.314Z</time></trkpt><trkpt lat="43.0313352" lon="13.3095014"><ele>461.33333333333337</ele><time>2026-03-22T09:56:01.314Z</time></trkpt><trkpt lat="43.0313197" lon="13.3092455"><ele>460.0</ele><time>2026-03-22T09:56:02.314Z</time></trkpt><trkpt lat="43.0313027" lon="13.3089908"><ele>460.6666666666667</ele><time>2026-03-22T09:56:03.314Z</time></trkpt><trkpt lat="43.0312848" lon="13.3087415"><ele>461.33333333333337</ele><time>2026-03-22T09:56:04.314Z</time></trkpt><trkpt lat="43.0312684" lon="13.3085017"><ele>462.0</ele><time>2026-03-22T09:56:05.314Z</time></trkpt><trkpt lat="43.0312541" lon="13.3082716"><ele>462.0</ele><time>2026-03-22T09:56:06.314Z</time></trkpt><trkpt lat="43.0312384" lon="13.3080482"><ele>462.0</ele><time>2026-03-22T09:56:07.314Z</time></trkpt><trkpt lat="43.0312221" lon="13.3078312"><ele>462.0</ele><time>2026-03-22T09:56:08.314Z</time></trkpt><trkpt lat="43.0312074" lon="13.3076168"><ele>462.0</ele><time>2026-03-22T09:56:09.314Z</time></trkpt><trkpt lat="43.0311937" lon="13.3073969"><ele>462.0</ele><time>2026-03-22T09:56:10.314Z</time></trkpt><trkpt lat="43.031179" lon="13.3071768"><ele>462.0</ele><time>2026-03-22T09:56:11.314Z</time></trkpt><trkpt lat="43.0311628" lon="13.3069524"><ele>463.0</ele><time>2026-03-22T09:56:12.314Z</time></trkpt><trkpt lat="43.0311459" lon="13.3067262"><ele>464.0</ele><time>2026-03-22T09:56:13.314Z</time></trkpt><trkpt lat="43.0311305" lon="13.3065008"><ele>465.0</ele><time>2026-03-22T09:56:14.314Z</time></trkpt><trkpt lat="43.0311166" lon="13.3062749"><ele>466.33333333333337</ele><time>2026-03-22T09:56:15.314Z</time></trkpt><trkpt lat="43.0311049" lon="13.3060513"><ele>467.6666666666667</ele><time>2026-03-22T09:56:16.314Z</time></trkpt><trkpt lat="43.0310922" lon="13.3058303"><ele>469.0</ele><time>2026-03-22T09:56:17.314Z</time></trkpt><trkpt lat="43.0310801" lon="13.3056138"><ele>468.0</ele><time>2026-03-22T09:56:18.314Z</time></trkpt><trkpt lat="43.0310649" lon="13.3053925"><ele>467.0</ele><time>2026-03-22T09:56:19.314Z</time></trkpt><trkpt lat="43.0310512" lon="13.3051699"><ele>466.0</ele><time>2026-03-22T09:56:20.314Z</time></trkpt><trkpt lat="43.0310381" lon="13.3049444"><ele>465.6666666666667</ele><time>2026-03-22T09:56:21.314Z</time></trkpt><trkpt lat="43.03102" lon="13.3047167"><ele>465.33333333333337</ele><time>2026-03-22T09:56:22.313Z</time></trkpt><trkpt lat="43.031001" lon="13.3044969"><ele>465.0</ele><time>2026-03-22T09:56:23.314Z</time></trkpt><trkpt lat="43.0309846" lon="13.3043144"><ele>465.0</ele><time>2026-03-22T09:56:24.314Z</time></trkpt><trkpt lat="43.0309779" lon="13.3041653"><ele>465.0</ele><time>2026-03-22T09:56:25.314Z</time></trkpt><trkpt lat="43.0309727" lon="13.3040271"><ele>465.0</ele><time>2026-03-22T09:56:26.314Z</time></trkpt><trkpt lat="43.0309634" lon="13.3038894"><ele>465.0</ele><time>2026-03-22T09:56:27.314Z</time></trkpt><trkpt lat="43.030951" lon="13.3037426"><ele>465.0</ele><time>2026-03-22T09:56:28.314Z</time></trkpt><trkpt lat="43.030938" lon="13.3035887"><ele>465.25</ele><time>2026-03-22T09:56:29.314Z</time></trkpt><trkpt lat="43.0309238" lon="13.3034272"><ele>465.5</ele><time>2026-03-22T09:56:30.314Z</time></trkpt><trkpt lat="43.0309097" lon="13.3032572"><ele>465.75</ele><time>2026-03-22T09:56:31.314Z</time></trkpt><trkpt lat="43.0308961" lon="13.3030821"><ele>466.0</ele><time>2026-03-22T09:56:32.314Z</time></trkpt><trkpt lat="43.0308965" lon="13.3029027"><ele>465.5</ele><time>2026-03-22T09:56:33.314Z</time></trkpt><trkpt lat="43.0309261" lon="13.3027247"><ele>465.0</ele><time>2026-03-22T09:56:34.314Z</time></trkpt><trkpt lat="43.0309846" lon="13.3025598"><ele>464.5</ele><time>2026-03-22T09:56:35.313Z</time></trkpt><trkpt lat="43.0310731" lon="13.3024097"><ele>464.0</ele><time>2026-03-22T09:56:36.314Z</time></trkpt><trkpt lat="43.0311824" lon="13.3022768"><ele>464.25</ele><time>2026-03-22T09:56:37.313Z</time></trkpt><trkpt lat="43.0312909" lon="13.3021653"><ele>464.5</ele><time>2026-03-22T09:56:38.314Z</time></trkpt><trkpt lat="43.0313959" lon="13.3020512"><ele>464.75</ele><time>2026-03-22T09:56:39.313Z</time></trkpt><trkpt lat="43.0314834" lon="13.3019615"><ele>465.0</ele><time>2026-03-22T09:56:40.314Z</time></trkpt><trkpt lat="43.0315646" lon="13.3018885"><ele>465.6666666666667</ele><time>2026-03-22T09:56:41.314Z</time></trkpt><trkpt lat="43.0316409" lon="13.3018276"><ele>466.33333333333337</ele><time>2026-03-22T09:56:42.314Z</time></trkpt><trkpt lat="43.0317113" lon="13.3017774"><ele>467.0</ele><time>2026-03-22T09:56:43.314Z</time></trkpt><trkpt lat="43.0317813" lon="13.3017368"><ele>467.6666666666667</ele><time>2026-03-22T09:56:44.314Z</time></trkpt><trkpt lat="43.0318608" lon="13.3017078"><ele>468.33333333333337</ele><time>2026-03-22T09:56:45.314Z</time></trkpt><trkpt lat="43.0319472" lon="13.3016899"><ele>469.0</ele><time>2026-03-22T09:56:46.314Z</time></trkpt><trkpt lat="43.0320393" lon="13.3016801"><ele>469.0</ele><time>2026-03-22T09:56:47.314Z</time></trkpt><trkpt lat="43.0321385" lon="13.3016761"><ele>469.0</ele><time>2026-03-22T09:56:48.314Z</time></trkpt><trkpt lat="43.0322412" lon="13.3016742"><ele>469.0</ele><time>2026-03-22T09:56:49.314Z</time></trkpt><trkpt lat="43.0323469" lon="13.3016696"><ele>469.0</ele><time>2026-03-22T09:56:50.314Z</time></trkpt><trkpt lat="43.0324544" lon="13.3016655"><ele>469.0</ele><time>2026-03-22T09:56:51.314Z</time></trkpt><trkpt lat="43.0325658" lon="13.3016609"><ele>470.0</ele><time>2026-03-22T09:56:52.314Z</time></trkpt><trkpt lat="43.0326786" lon="13.3016569"><ele>471.0</ele><time>2026-03-22T09:56:53.314Z</time></trkpt><trkpt lat="43.0327857" lon="13.3016536"><ele>472.0</ele><time>2026-03-22T09:56:54.314Z</time></trkpt><trkpt lat="43.0328799" lon="13.3016501"><ele>473.0</ele><time>2026-03-22T09:56:55.314Z</time></trkpt><trkpt lat="43.0329755" lon="13.3016456"><ele>474.0</ele><time>2026-03-22T09:56:56.314Z</time></trkpt><trkpt lat="43.0330597" lon="13.3016432"><ele>474.0</ele><time>2026-03-22T09:56:57.314Z</time></trkpt><trkpt lat="43.0331347" lon="13.3016456"><ele>474.0</ele><time>2026-03-22T09:56:58.314Z</time></trkpt><trkpt lat="43.0332056" lon="13.3016549"><ele>474.0</ele><time>2026-03-22T09:56:59.314Z</time></trkpt><trkpt lat="43.0332858" lon="13.3016814"><ele>474.0</ele><time>2026-03-22T09:57:00.314Z</time></trkpt><trkpt lat="43.0333548" lon="13.3017459"><ele>474.0</ele><time>2026-03-22T09:57:01.314Z</time></trkpt><trkpt lat="43.0333989" lon="13.3018551"><ele>474.0</ele><time>2026-03-22T09:57:02.313Z</time></trkpt><trkpt lat="43.0334094" lon="13.301986"><ele>475.6</ele><time>2026-03-22T09:57:03.314Z</time></trkpt><trkpt lat="43.033397" lon="13.3021252"><ele>477.2</ele><time>2026-03-22T09:57:04.314Z</time></trkpt><trkpt lat="43.0333748" lon="13.3022667"><ele>478.80000000000007</ele><time>2026-03-22T09:57:05.314Z</time></trkpt><trkpt lat="43.0333489" lon="13.3024085"><ele>480.40000000000003</ele><time>2026-03-22T09:57:06.314Z</time></trkpt><trkpt lat="43.0333322" lon="13.3025553"><ele>482.0</ele><time>2026-03-22T09:57:07.314Z</time></trkpt><trkpt lat="43.0333437" lon="13.3027072"><ele>482.20000000000005</ele><time>2026-03-22T09:57:08.314Z</time></trkpt><trkpt lat="43.0333688" lon="13.3028547"><ele>482.40000000000003</ele><time>2026-03-22T09:57:09.314Z</time></trkpt><trkpt lat="43.0334065" lon="13.302996"><ele>482.59999999999997</ele><time>2026-03-22T09:57:10.314Z</time></trkpt><trkpt lat="43.0334584" lon="13.3031236"><ele>482.79999999999995</ele><time>2026-03-22T09:57:11.314Z</time></trkpt><trkpt lat="43.0335226" lon="13.3032342"><ele>483.0</ele><time>2026-03-22T09:57:12.314Z</time></trkpt><trkpt lat="43.0335867" lon="13.3033225"><ele>483.0</ele><time>2026-03-22T09:57:13.314Z</time></trkpt><trkpt lat="43.0336537" lon="13.303406"><ele>483.0</ele><time>2026-03-22T09:57:14.314Z</time></trkpt><trkpt lat="43.0337242" lon="13.3034796"><ele>483.0</ele><time>2026-03-22T09:57:15.314Z</time></trkpt><trkpt lat="43.0337956" lon="13.3035317"><ele>483.0</ele><time>2026-03-22T09:57:16.314Z</time></trkpt><trkpt lat="43.0338611" lon="13.3035699"><ele>483.0</ele><time>2026-03-22T09:57:17.314Z</time></trkpt><trkpt lat="43.0339201" lon="13.3036064"><ele>483.0</ele><time>2026-03-22T09:57:18.314Z</time></trkpt><trkpt lat="43.0340221" lon="13.3036632"><ele>483.0</ele><time>2026-03-22T09:57:20.314Z</time></trkpt><trkpt lat="43.0341158" lon="13.3037199"><ele>483.0</ele><time>2026-03-22T09:57:22.314Z</time></trkpt><trkpt lat="43.0341692" lon="13.3037663"><ele>483.0</ele><time>2026-03-22T09:57:23.314Z</time></trkpt><trkpt lat="43.0342278" lon="13.3038162"><ele>483.0</ele><time>2026-03-22T09:57:24.314Z</time></trkpt><trkpt lat="43.0342988" lon="13.3038822"><ele>483.0</ele><time>2026-03-22T09:57:25.314Z</time></trkpt><trkpt lat="43.034387" lon="13.3039554"><ele>483.0</ele><time>2026-03-22T09:57:26.314Z</time></trkpt><trkpt lat="43.0344901" lon="13.3040172"><ele>483.0</ele><time>2026-03-22T09:57:27.314Z</time></trkpt><trkpt lat="43.034602" lon="13.3040561"><ele>483.0</ele><time>2026-03-22T09:57:28.314Z</time></trkpt><trkpt lat="43.0347205" lon="13.3040654"><ele>483.0</ele><time>2026-03-22T09:57:29.314Z</time></trkpt><trkpt lat="43.0348632" lon="13.3040531"><ele>483.0</ele><time>2026-03-22T09:57:30.314Z</time></trkpt><trkpt lat="43.0349929" lon="13.3040173"><ele>482.75</ele><time>2026-03-22T09:57:31.314Z</time></trkpt><trkpt lat="43.0351181" lon="13.3039783"><ele>482.5</ele><time>2026-03-22T09:57:32.314Z</time></trkpt><trkpt lat="43.0352365" lon="13.3039373"><ele>482.25</ele><time>2026-03-22T09:57:33.314Z</time></trkpt><trkpt lat="43.0353567" lon="13.3038936"><ele>482.0</ele><time>2026-03-22T09:57:34.314Z</time></trkpt><trkpt lat="43.0354789" lon="13.3038493"><ele>483.5</ele><time>2026-03-22T09:57:35.314Z</time></trkpt><trkpt lat="43.0356007" lon="13.303805"><ele>485.0</ele><time>2026-03-22T09:57:36.314Z</time></trkpt><trkpt lat="43.0357169" lon="13.3037615"><ele>486.5</ele><time>2026-03-22T09:57:37.314Z</time></trkpt><trkpt lat="43.0358268" lon="13.3037211"><ele>488.0</ele><time>2026-03-22T09:57:38.314Z</time></trkpt><trkpt lat="43.035935" lon="13.3036817"><ele>488.0</ele><time>2026-03-22T09:57:39.314Z</time></trkpt><trkpt lat="43.036038" lon="13.303649"><ele>487.99999999999994</ele><time>2026-03-22T09:57:40.314Z</time></trkpt><trkpt lat="43.0361147" lon="13.3036286"><ele>487.99999999999994</ele><time>2026-03-22T09:57:41.314Z</time></trkpt><trkpt lat="43.0361789" lon="13.3036128"><ele>488.0</ele><time>2026-03-22T09:57:42.314Z</time></trkpt><trkpt lat="43.0362729" lon="13.3035777"><ele>488.0</ele><time>2026-03-22T09:57:44.314Z</time></trkpt><trkpt lat="43.0363885" lon="13.3035237"><ele>488.0</ele><time>2026-03-22T09:57:46.314Z</time></trkpt><trkpt lat="43.0364519" lon="13.3034951"><ele>487.99999999999994</ele><time>2026-03-22T09:57:47.314Z</time></trkpt><trkpt lat="43.0365155" lon="13.3034629"><ele>487.99999999999994</ele><time>2026-03-22T09:57:48.314Z</time></trkpt><trkpt lat="43.0365941" lon="13.303423"><ele>488.0</ele><time>2026-03-22T09:57:49.314Z</time></trkpt><trkpt lat="43.0366943" lon="13.3033653"><ele>488.0</ele><time>2026-03-22T09:57:50.314Z</time></trkpt><trkpt lat="43.0368038" lon="13.3032766"><ele>487.5</ele><time>2026-03-22T09:57:51.314Z</time></trkpt><trkpt lat="43.0369168" lon="13.3031896"><ele>487.0</ele><time>2026-03-22T09:57:52.314Z</time></trkpt><trkpt lat="43.0370404" lon="13.3031307"><ele>486.5</ele><time>2026-03-22T09:57:53.314Z</time></trkpt><trkpt lat="43.0371662" lon="13.3031001"><ele>486.0</ele><time>2026-03-22T09:57:54.314Z</time></trkpt><trkpt lat="43.0372865" lon="13.30308"><ele>487.1666666666667</ele><time>2026-03-22T09:57:55.314Z</time></trkpt><trkpt lat="43.0373877" lon="13.3030507"><ele>488.33333333333337</ele><time>2026-03-22T09:57:56.314Z</time></trkpt><trkpt lat="43.0374536" lon="13.3030018"><ele>489.5</ele><time>2026-03-22T09:57:57.314Z</time></trkpt><trkpt lat="43.0375036" lon="13.3029394"><ele>490.6666666666667</ele><time>2026-03-22T09:57:58.314Z</time></trkpt><trkpt lat="43.0375817" lon="13.302836"><ele>491.83333333333337</ele><time>2026-03-22T09:58:00.313Z</time></trkpt><trkpt lat="43.0376448" lon="13.3028054"><ele>493.0</ele><time>2026-03-22T09:58:02.314Z</time></trkpt><trkpt lat="43.0376883" lon="13.3027311"><ele>493.00000000000006</ele><time>2026-03-22T09:58:41.314Z</time></trkpt><trkpt lat="43.0376031" lon="13.3027383"><ele>493.0</ele><time>2026-03-22T09:58:44.314Z</time></trkpt><trkpt lat="43.0375493" lon="13.3028222"><ele>493.0</ele><time>2026-03-22T09:58:46.314Z</time></trkpt><trkpt lat="43.0375093" lon="13.3028895"><ele>493.0</ele><time>2026-03-22T09:58:47.314Z</time></trkpt><trkpt lat="43.037461" lon="13.3029624"><ele>493.00000000000006</ele><time>2026-03-22T09:58:48.314Z</time></trkpt><trkpt lat="43.0373473" lon="13.3030429"><ele>493.0</ele><time>2026-03-22T09:58:50.314Z</time></trkpt><trkpt lat="43.0372848" lon="13.3030659"><ele>491.59999999999997</ele><time>2026-03-22T09:58:51.314Z</time></trkpt><trkpt lat="43.0371598" lon="13.3031028"><ele>490.19999999999993</ele><time>2026-03-22T09:58:53.314Z</time></trkpt><trkpt lat="43.0370786" lon="13.3031152"><ele>488.8</ele><time>2026-03-22T09:58:54.314Z</time></trkpt><trkpt lat="43.036981" lon="13.303147"><ele>487.4</ele><time>2026-03-22T09:58:55.314Z</time></trkpt><trkpt lat="43.0368604" lon="13.3032272"><ele>486.0</ele><time>2026-03-22T09:58:56.314Z</time></trkpt><trkpt lat="43.0367371" lon="13.3033343"><ele>486.5</ele><time>2026-03-22T09:58:57.313Z</time></trkpt><trkpt lat="43.0366009" lon="13.303428"><ele>487.0</ele><time>2026-03-22T09:58:58.314Z</time></trkpt><trkpt lat="43.0364631" lon="13.3034837"><ele>487.5</ele><time>2026-03-22T09:58:59.314Z</time></trkpt><trkpt lat="43.0363296" lon="13.3035342"><ele>488.0</ele><time>2026-03-22T09:59:00.314Z</time></trkpt><trkpt lat="43.0362008" lon="13.3035791"><ele>488.0</ele><time>2026-03-22T09:59:01.314Z</time></trkpt><trkpt lat="43.0360693" lon="13.3036294"><ele>488.0</ele><time>2026-03-22T09:59:02.314Z</time></trkpt><trkpt lat="43.0359353" lon="13.3036782"><ele>488.0</ele><time>2026-03-22T09:59:03.314Z</time></trkpt><trkpt lat="43.0357997" lon="13.3037211"><ele>488.0</ele><time>2026-03-22T09:59:04.314Z</time></trkpt><trkpt lat="43.035665" lon="13.3037659"><ele>489.25</ele><time>2026-03-22T09:59:05.314Z</time></trkpt><trkpt lat="43.0355394" lon="13.3038101"><ele>490.5</ele><time>2026-03-22T09:59:06.314Z</time></trkpt><trkpt lat="43.0354216" lon="13.3038528"><ele>491.75</ele><time>2026-03-22T09:59:07.314Z</time></trkpt><trkpt lat="43.0352999" lon="13.3038893"><ele>493.0</ele><time>2026-03-22T09:59:08.314Z</time></trkpt><trkpt lat="43.0351762" lon="13.3039271"><ele>490.5</ele><time>2026-03-22T09:59:09.314Z</time></trkpt><trkpt lat="43.0350517" lon="13.3039652"><ele>488.0</ele><time>2026-03-22T09:59:10.314Z</time></trkpt><trkpt lat="43.0349295" lon="13.3039988"><ele>485.5</ele><time>2026-03-22T09:59:11.314Z</time></trkpt><trkpt lat="43.0348107" lon="13.3040239"><ele>483.0</ele><time>2026-03-22T09:59:12.314Z</time></trkpt><trkpt lat="43.0346961" lon="13.3040315"><ele>483.0</ele><time>2026-03-22T09:59:13.314Z</time></trkpt><trkpt lat="43.0345858" lon="13.3040152"><ele>482.99999999999994</ele><time>2026-03-22T09:59:14.314Z</time></trkpt><trkpt lat="43.034477" lon="13.3039788"><ele>482.99999999999994</ele><time>2026-03-22T09:59:15.314Z</time></trkpt><trkpt lat="43.0343879" lon="13.3039153"><ele>483.0</ele><time>2026-03-22T09:59:16.314Z</time></trkpt><trkpt lat="43.0343202" lon="13.3038289"><ele>483.0</ele><time>2026-03-22T09:59:17.314Z</time></trkpt><trkpt lat="43.0342643" lon="13.3037314"><ele>483.0</ele><time>2026-03-22T09:59:18.314Z</time></trkpt><trkpt lat="43.0342058" lon="13.3036295"><ele>483.0</ele><time>2026-03-22T09:59:19.314Z</time></trkpt><trkpt lat="43.03415" lon="13.3035542"><ele>483.0</ele><time>2026-03-22T09:59:20.314Z</time></trkpt><trkpt lat="43.0340839" lon="13.3034734"><ele>483.0</ele><time>2026-03-22T09:59:22.314Z</time></trkpt><trkpt lat="43.0340187" lon="13.3034314"><ele>483.0</ele><time>2026-03-22T09:59:27.314Z</time></trkpt><trkpt lat="43.0339196" lon="13.3034846"><ele>483.0</ele><time>2026-03-22T09:59:29.314Z</time></trkpt><trkpt lat="43.0338422" lon="13.3034973"><ele>483.0</ele><time>2026-03-22T09:59:30.314Z</time></trkpt><trkpt lat="43.0337541" lon="13.3034434"><ele>483.0</ele><time>2026-03-22T09:59:31.313Z</time></trkpt><trkpt lat="43.0336588" lon="13.3033556"><ele>483.0</ele><time>2026-03-22T09:59:32.314Z</time></trkpt><trkpt lat="43.0335626" lon="13.3032406"><ele>483.0</ele><time>2026-03-22T09:59:33.314Z</time></trkpt><trkpt lat="43.0334761" lon="13.3030936"><ele>483.0</ele><time>2026-03-22T09:59:34.314Z</time></trkpt><trkpt lat="43.0334105" lon="13.3029149"><ele>483.0</ele><time>2026-03-22T09:59:35.314Z</time></trkpt><trkpt lat="43.033381" lon="13.3027269"><ele>483.0</ele><time>2026-03-22T09:59:36.314Z</time></trkpt><trkpt lat="43.0333795" lon="13.302541"><ele>483.0</ele><time>2026-03-22T09:59:37.314Z</time></trkpt><trkpt lat="43.0333981" lon="13.3023533"><ele>482.75</ele><time>2026-03-22T09:59:38.314Z</time></trkpt><trkpt lat="43.0334291" lon="13.3021802"><ele>482.5</ele><time>2026-03-22T09:59:39.314Z</time></trkpt><trkpt lat="43.0334449" lon="13.3020176"><ele>482.25</ele><time>2026-03-22T09:59:40.314Z</time></trkpt><trkpt lat="43.0334296" lon="13.3018745"><ele>482.0</ele><time>2026-03-22T09:59:41.314Z</time></trkpt><trkpt lat="43.0333823" lon="13.3017536"><ele>480.0</ele><time>2026-03-22T09:59:42.314Z</time></trkpt><trkpt lat="43.0333039" lon="13.3016687"><ele>478.0</ele><time>2026-03-22T09:59:43.314Z</time></trkpt><trkpt lat="43.0332066" lon="13.3016278"><ele>476.0</ele><time>2026-03-22T09:59:44.314Z</time></trkpt><trkpt lat="43.0330826" lon="13.3016229"><ele>474.0</ele><time>2026-03-22T09:59:45.314Z</time></trkpt><trkpt lat="43.0329451" lon="13.3016336"><ele>474.0</ele><time>2026-03-22T09:59:46.314Z</time></trkpt><trkpt lat="43.03279" lon="13.3016344"><ele>474.0</ele><time>2026-03-22T09:59:47.314Z</time></trkpt><trkpt lat="43.0326339" lon="13.3016308"><ele>474.0</ele><time>2026-03-22T09:59:48.314Z</time></trkpt><trkpt lat="43.0324836" lon="13.3016277"><ele>472.75</ele><time>2026-03-22T09:59:49.314Z</time></trkpt><trkpt lat="43.0323373" lon="13.3016251"><ele>471.5</ele><time>2026-03-22T09:59:50.314Z</time></trkpt><trkpt lat="43.0321953" lon="13.3016314"><ele>470.25</ele><time>2026-03-22T09:59:51.314Z</time></trkpt><trkpt lat="43.0320579" lon="13.3016449"><ele>469.0</ele><time>2026-03-22T09:59:52.314Z</time></trkpt><trkpt lat="43.0319246" lon="13.3016706"><ele>469.0</ele><time>2026-03-22T09:59:53.314Z</time></trkpt><trkpt lat="43.0317959" lon="13.3017121"><ele>469.0</ele><time>2026-03-22T09:59:54.313Z</time></trkpt><trkpt lat="43.0316674" lon="13.3017823"><ele>469.0</ele><time>2026-03-22T09:59:55.314Z</time></trkpt><trkpt lat="43.0315453" lon="13.3018771"><ele>469.0</ele><time>2026-03-22T09:59:56.314Z</time></trkpt><trkpt lat="43.0314259" lon="13.30199"><ele>468.0</ele><time>2026-03-22T09:59:57.314Z</time></trkpt><trkpt lat="43.0313083" lon="13.3021061"><ele>467.0</ele><time>2026-03-22T09:59:58.314Z</time></trkpt><trkpt lat="43.0312005" lon="13.3022191"><ele>466.0</ele><time>2026-03-22T09:59:59.314Z</time></trkpt><trkpt lat="43.0311018" lon="13.30233"><ele>465.0</ele><time>2026-03-22T10:00:00.314Z</time></trkpt><trkpt lat="43.0310147" lon="13.3024401"><ele>464.75</ele><time>2026-03-22T10:00:01.314Z</time></trkpt><trkpt lat="43.0309476" lon="13.3025623"><ele>464.5</ele><time>2026-03-22T10:00:02.314Z</time></trkpt><trkpt lat="43.0309034" lon="13.3026969"><ele>464.25</ele><time>2026-03-22T10:00:03.314Z</time></trkpt><trkpt lat="43.0308764" lon="13.3028487"><ele>464.0</ele><time>2026-03-22T10:00:04.314Z</time></trkpt><trkpt lat="43.0308702" lon="13.3030235"><ele>464.5</ele><time>2026-03-22T10:00:05.314Z</time></trkpt><trkpt lat="43.0308813" lon="13.3032079"><ele>465.0</ele><time>2026-03-22T10:00:06.314Z</time></trkpt><trkpt lat="43.0308948" lon="13.3033837"><ele>465.5</ele><time>2026-03-22T10:00:07.314Z</time></trkpt><trkpt lat="43.0309046" lon="13.3035505"><ele>466.0</ele><time>2026-03-22T10:00:08.314Z</time></trkpt><trkpt lat="43.0309118" lon="13.3037027"><ele>466.0</ele><time>2026-03-22T10:00:09.314Z</time></trkpt><trkpt lat="43.0309201" lon="13.3038422"><ele>466.0</ele><time>2026-03-22T10:00:10.314Z</time></trkpt><trkpt lat="43.0309275" lon="13.3039687"><ele>466.0</ele><time>2026-03-22T10:00:11.313Z</time></trkpt><trkpt lat="43.0309329" lon="13.3040685"><ele>466.0</ele><time>2026-03-22T10:00:12.314Z</time></trkpt><trkpt lat="43.030909" lon="13.3042192"><ele>466.0</ele><time>2026-03-22T10:00:14.314Z</time></trkpt><trkpt lat="43.0308737" lon="13.3043298"><ele>465.83333333333337</ele><time>2026-03-22T10:00:16.314Z</time></trkpt><trkpt lat="43.0309243" lon="13.304414"><ele>465.6666666666667</ele><time>2026-03-22T10:14:58.314Z</time></trkpt><trkpt lat="43.0309552" lon="13.3044966"><ele>465.5</ele><time>2026-03-22T10:15:01.314Z</time></trkpt><trkpt lat="43.0310127" lon="13.3044559"><ele>465.33333333333337</ele><time>2026-03-22T10:15:23.314Z</time></trkpt><trkpt lat="43.0310142" lon="13.3043041"><ele>465.1666666666667</ele><time>2026-03-22T10:15:25.314Z</time></trkpt><trkpt lat="43.0310013" lon="13.3042125"><ele>465.0</ele><time>2026-03-22T10:15:26.314Z</time></trkpt><trkpt lat="43.0309877" lon="13.3041059"><ele>465.0</ele><time>2026-03-22T10:15:27.314Z</time></trkpt><trkpt lat="43.0309803" lon="13.3039936"><ele>465.0</ele><time>2026-03-22T10:15:28.314Z</time></trkpt><trkpt lat="43.0309727" lon="13.3038764"><ele>465.0</ele><time>2026-03-22T10:15:29.314Z</time></trkpt><trkpt lat="43.0309618" lon="13.3037566"><ele>465.0</ele><time>2026-03-22T10:15:30.314Z</time></trkpt><trkpt lat="43.0309533" lon="13.3036342"><ele>465.0</ele><time>2026-03-22T10:15:31.314Z</time></trkpt><trkpt lat="43.0309464" lon="13.3035114"><ele>465.0</ele><time>2026-03-22T10:15:32.314Z</time></trkpt><trkpt lat="43.0309364" lon="13.303382"><ele>465.2</ele><time>2026-03-22T10:15:33.314Z</time></trkpt><trkpt lat="43.0309247" lon="13.3032508"><ele>465.4</ele><time>2026-03-22T10:15:34.314Z</time></trkpt><trkpt lat="43.0309125" lon="13.3031154"><ele>465.6</ele><time>2026-03-22T10:15:35.314Z</time></trkpt><trkpt lat="43.0309075" lon="13.302972"><ele>465.8</ele><time>2026-03-22T10:15:36.314Z</time></trkpt><trkpt lat="43.0309182" lon="13.3028287"><ele>466.0</ele><time>2026-03-22T10:15:37.314Z</time></trkpt><trkpt lat="43.0309485" lon="13.302691"><ele>465.75</ele><time>2026-03-22T10:15:38.314Z</time></trkpt><trkpt lat="43.0309963" lon="13.3025601"><ele>465.5</ele><time>2026-03-22T10:15:39.314Z</time></trkpt><trkpt lat="43.0310694" lon="13.3024403"><ele>465.25</ele><time>2026-03-22T10:15:40.314Z</time></trkpt><trkpt lat="43.0311649" lon="13.3023325"><ele>465.0</ele><time>2026-03-22T10:15:41.314Z</time></trkpt><trkpt lat="43.0312675" lon="13.3022241"><ele>465.0</ele><time>2026-03-22T10:15:42.314Z</time></trkpt><trkpt lat="43.0313735" lon="13.3021087"><ele>465.0</ele><time>2026-03-22T10:15:43.314Z</time></trkpt><trkpt lat="43.0314801" lon="13.3019887"><ele>465.0</ele><time>2026-03-22T10:15:44.314Z</time></trkpt><trkpt lat="43.0315795" lon="13.3018906"><ele>465.0</ele><time>2026-03-22T10:15:45.314Z</time></trkpt><trkpt lat="43.0316834" lon="13.3018094"><ele>465.8</ele><time>2026-03-22T10:15:46.314Z</time></trkpt><trkpt lat="43.0317886" lon="13.3017548"><ele>466.6</ele><time>2026-03-22T10:15:47.314Z</time></trkpt><trkpt lat="43.0318941" lon="13.3017227"><ele>467.4</ele><time>2026-03-22T10:15:48.314Z</time></trkpt><trkpt lat="43.032005" lon="13.3017038"><ele>468.2</ele><time>2026-03-22T10:15:49.314Z</time></trkpt><trkpt lat="43.0321187" lon="13.3016897"><ele>469.0</ele><time>2026-03-22T10:15:50.314Z</time></trkpt><trkpt lat="43.0322366" lon="13.3016841"><ele>469.0</ele><time>2026-03-22T10:15:51.314Z</time></trkpt><trkpt lat="43.0323583" lon="13.3016788"><ele>469.0</ele><time>2026-03-22T10:15:52.314Z</time></trkpt><trkpt lat="43.0324815" lon="13.3016727"><ele>469.0</ele><time>2026-03-22T10:15:53.314Z</time></trkpt><trkpt lat="43.0326082" lon="13.3016644"><ele>469.0</ele><time>2026-03-22T10:15:54.314Z</time></trkpt><trkpt lat="43.0327363" lon="13.3016607"><ele>470.25</ele><time>2026-03-22T10:15:55.314Z</time></trkpt><trkpt lat="43.0328587" lon="13.3016537"><ele>471.5</ele><time>2026-03-22T10:15:56.314Z</time></trkpt><trkpt lat="43.0329789" lon="13.3016476"><ele>472.75</ele><time>2026-03-22T10:15:57.313Z</time></trkpt><trkpt lat="43.0330945" lon="13.3016469"><ele>474.0</ele><time>2026-03-22T10:15:58.314Z</time></trkpt><trkpt lat="43.0332017" lon="13.3016615"><ele>474.0</ele><time>2026-03-22T10:15:59.313Z</time></trkpt><trkpt lat="43.033296" lon="13.3017107"><ele>474.0</ele><time>2026-03-22T10:16:00.314Z</time></trkpt><trkpt lat="43.0333689" lon="13.3018033"><ele>474.0</ele><time>2026-03-22T10:16:01.314Z</time></trkpt><trkpt lat="43.0334087" lon="13.301927"><ele>474.0</ele><time>2026-03-22T10:16:02.314Z</time></trkpt><trkpt lat="43.0334123" lon="13.3020628"><ele>474.0</ele><time>2026-03-22T10:16:03.314Z</time></trkpt><trkpt lat="43.0333888" lon="13.3022083"><ele>476.25</ele><time>2026-03-22T10:16:04.314Z</time></trkpt><trkpt lat="43.0333586" lon="13.3023579"><ele>478.5</ele><time>2026-03-22T10:16:05.314Z</time></trkpt><trkpt lat="43.0333433" lon="13.3025159"><ele>480.75</ele><time>2026-03-22T10:16:06.313Z</time></trkpt><trkpt lat="43.0333427" lon="13.3026764"><ele>483.0</ele><time>2026-03-22T10:16:07.314Z</time></trkpt><trkpt lat="43.0333617" lon="13.3028383"><ele>483.0</ele><time>2026-03-22T10:16:08.314Z</time></trkpt><trkpt lat="43.0333998" lon="13.3029901"><ele>483.0</ele><time>2026-03-22T10:16:09.314Z</time></trkpt><trkpt lat="43.0334552" lon="13.3031256"><ele>483.0</ele><time>2026-03-22T10:16:10.314Z</time></trkpt><trkpt lat="43.0335277" lon="13.3032414"><ele>483.0</ele><time>2026-03-22T10:16:11.314Z</time></trkpt><trkpt lat="43.0336073" lon="13.3033486"><ele>483.0</ele><time>2026-03-22T10:16:12.314Z</time></trkpt><trkpt lat="43.0336876" lon="13.3034468"><ele>482.99999999999994</ele><time>2026-03-22T10:16:13.314Z</time></trkpt><trkpt lat="43.0337705" lon="13.3035232"><ele>482.99999999999994</ele><time>2026-03-22T10:16:14.314Z</time></trkpt><trkpt lat="43.0338537" lon="13.3035788"><ele>483.0</ele><time>2026-03-22T10:16:15.314Z</time></trkpt><trkpt lat="43.0339391" lon="13.3036347"><ele>483.0</ele><time>2026-03-22T10:16:16.314Z</time></trkpt><trkpt lat="43.0340205" lon="13.3036936"><ele>483.0</ele><time>2026-03-22T10:16:17.314Z</time></trkpt><trkpt lat="43.0341027" lon="13.3037608"><ele>482.99999999999994</ele><time>2026-03-22T10:16:18.314Z</time></trkpt><trkpt lat="43.0341912" lon="13.3038378"><ele>482.99999999999994</ele><time>2026-03-22T10:16:19.314Z</time></trkpt><trkpt lat="43.0342809" lon="13.3039131"><ele>483.0</ele><time>2026-03-22T10:16:20.314Z</time></trkpt><trkpt lat="43.0343695" lon="13.3039772"><ele>483.0</ele><time>2026-03-22T10:16:21.314Z</time></trkpt><trkpt lat="43.0344651" lon="13.304027"><ele>483.0</ele><time>2026-03-22T10:16:22.314Z</time></trkpt><trkpt lat="43.0345698" lon="13.3040634"><ele>483.0</ele><time>2026-03-22T10:16:23.314Z</time></trkpt><trkpt lat="43.0346873" lon="13.3040781"><ele>483.0</ele><time>2026-03-22T10:16:24.313Z</time></trkpt><trkpt lat="43.0348091" lon="13.3040688"><ele>483.0</ele><time>2026-03-22T10:16:25.313Z</time></trkpt><trkpt lat="43.0349329" lon="13.3040391"><ele>482.75</ele><time>2026-03-22T10:16:26.314Z</time></trkpt><trkpt lat="43.0350592" lon="13.3040007"><ele>482.5</ele><time>2026-03-22T10:16:27.314Z</time></trkpt><trkpt lat="43.0351855" lon="13.3039613"><ele>482.25</ele><time>2026-03-22T10:16:28.314Z</time></trkpt><trkpt lat="43.0353077" lon="13.3039197"><ele>482.0</ele><time>2026-03-22T10:16:29.314Z</time></trkpt><trkpt lat="43.0354306" lon="13.3038741"><ele>483.5</ele><time>2026-03-22T10:16:30.314Z</time></trkpt><trkpt lat="43.0355542" lon="13.3038308"><ele>485.0</ele><time>2026-03-22T10:16:31.314Z</time></trkpt><trkpt lat="43.0356756" lon="13.3037852"><ele>486.5</ele><time>2026-03-22T10:16:32.314Z</time></trkpt><trkpt lat="43.0357978" lon="13.3037402"><ele>488.0</ele><time>2026-03-22T10:16:33.314Z</time></trkpt><trkpt lat="43.0359188" lon="13.3036988"><ele>488.0</ele><time>2026-03-22T10:16:34.314Z</time></trkpt><trkpt lat="43.0360377" lon="13.3036586"><ele>488.0</ele><time>2026-03-22T10:16:35.314Z</time></trkpt><trkpt lat="43.0361578" lon="13.3036231"><ele>488.0</ele><time>2026-03-22T10:16:36.314Z</time></trkpt><trkpt lat="43.0362667" lon="13.303586"><ele>488.0</ele><time>2026-03-22T10:16:37.314Z</time></trkpt><trkpt lat="43.0363693" lon="13.3035456"><ele>488.0</ele><time>2026-03-22T10:16:38.313Z</time></trkpt><trkpt lat="43.0364746" lon="13.3035108"><ele>488.0</ele><time>2026-03-22T10:16:39.314Z</time></trkpt><trkpt lat="43.0365837" lon="13.303466"><ele>488.0</ele><time>2026-03-22T10:16:40.314Z</time></trkpt><trkpt lat="43.0366942" lon="13.3033967"><ele>488.0</ele><time>2026-03-22T10:16:41.314Z</time></trkpt><trkpt lat="43.0368023" lon="13.3033171"><ele>487.5</ele><time>2026-03-22T10:16:42.314Z</time></trkpt><trkpt lat="43.0369117" lon="13.3032343"><ele>487.0</ele><time>2026-03-22T10:16:43.313Z</time></trkpt><trkpt lat="43.0370253" lon="13.30317"><ele>486.5</ele><time>2026-03-22T10:16:44.314Z</time></trkpt><trkpt lat="43.0371439" lon="13.3031333"><ele>486.0</ele><time>2026-03-22T10:16:45.314Z</time></trkpt><trkpt lat="43.0372607" lon="13.303114"><ele>487.4</ele><time>2026-03-22T10:16:46.314Z</time></trkpt><trkpt lat="43.0373687" lon="13.3030792"><ele>488.8</ele><time>2026-03-22T10:16:47.314Z</time></trkpt><trkpt lat="43.0374544" lon="13.303018"><ele>490.19999999999993</ele><time>2026-03-22T10:16:48.314Z</time></trkpt><trkpt lat="43.0375212" lon="13.3029463"><ele>491.59999999999997</ele><time>2026-03-22T10:16:49.314Z</time></trkpt><trkpt lat="43.037576" lon="13.3028785"><ele>493.0</ele><time>2026-03-22T10:16:50.314Z</time></trkpt><trkpt lat="43.0376801" lon="13.3028423"><ele>493.0</ele><time>2026-03-22T10:16:52.314Z</time></trkpt><trkpt lat="43.0377684" lon="13.3029668"><ele>492.99999999999994</ele><time>2026-03-22T10:16:54.314Z</time></trkpt><trkpt lat="43.0378214" lon="13.3030574"><ele>492.99999999999994</ele><time>2026-03-22T10:16:55.314Z</time></trkpt><trkpt lat="43.0378811" lon="13.3031634"><ele>493.0</ele><time>2026-03-22T10:16:56.314Z</time></trkpt><trkpt lat="43.0379482" lon="13.3032738"><ele>493.0</ele><time>2026-03-22T10:16:57.314Z</time></trkpt><trkpt lat="43.0379897" lon="13.3033533"><ele>493.00000000000006</ele><time>2026-03-22T10:16:58.314Z</time></trkpt><trkpt lat="43.03804" lon="13.3034635"><ele>493.0</ele><time>2026-03-22T10:17:00.314Z</time></trkpt><trkpt lat="43.0381064" lon="13.3034305"><ele>493.0</ele><time>2026-03-22T10:17:04.314Z</time></trkpt><trkpt lat="43.0380912" lon="13.3033168"><ele>493.0</ele><time>2026-03-22T10:17:07.314Z</time></trkpt><trkpt lat="43.0380434" lon="13.3031737"><ele>493.00000000000006</ele><time>2026-03-22T10:17:09.314Z</time></trkpt><trkpt lat="43.0380195" lon="13.3030898"><ele>493.0</ele><time>2026-03-22T10:17:10.314Z</time></trkpt><trkpt lat="43.0379956" lon="13.3030033"><ele>493.00000000000006</ele><time>2026-03-22T10:17:11.314Z</time></trkpt><trkpt lat="43.0379679" lon="13.3028999"><ele>493.0</ele><time>2026-03-22T10:17:12.314Z</time></trkpt><trkpt lat="43.0379665" lon="13.3027851"><ele>493.0</ele><time>2026-03-22T10:17:13.314Z</time></trkpt><trkpt lat="43.0379595" lon="13.3026724"><ele>493.0</ele><time>2026-03-22T10:17:14.314Z</time></trkpt><trkpt lat="43.0379534" lon="13.3025532"><ele>493.00000000000006</ele><time>2026-03-22T10:17:15.314Z</time></trkpt><trkpt lat="43.0379461" lon="13.3024403"><ele>493.0</ele><time>2026-03-22T10:17:16.314Z</time></trkpt><trkpt lat="43.0379427" lon="13.3023341"><ele>492.50000000000006</ele><time>2026-03-22T10:17:17.314Z</time></trkpt><trkpt lat="43.0379392" lon="13.3022189"><ele>492.0</ele><time>2026-03-22T10:17:18.314Z</time></trkpt><trkpt lat="43.0379322" lon="13.3021039"><ele>491.5</ele><time>2026-03-22T10:17:19.314Z</time></trkpt><trkpt lat="43.0379266" lon="13.3019918"><ele>491.0</ele><time>2026-03-22T10:17:20.314Z</time></trkpt><trkpt lat="43.03792" lon="13.3018779"><ele>490.50000000000006</ele><time>2026-03-22T10:17:21.314Z</time></trkpt><trkpt lat="43.037916" lon="13.3017679"><ele>490.0</ele><time>2026-03-22T10:17:22.314Z</time></trkpt><trkpt lat="43.0379168" lon="13.3016584"><ele>490.0</ele><time>2026-03-22T10:17:23.314Z</time></trkpt><trkpt lat="43.0379116" lon="13.3015539"><ele>490.0</ele><time>2026-03-22T10:17:24.314Z</time></trkpt><trkpt lat="43.03792" lon="13.3014633"><ele>490.0</ele><time>2026-03-22T10:17:25.314Z</time></trkpt><trkpt lat="43.0379117" lon="13.3012924"><ele>490.0</ele><time>2026-03-22T10:17:27.314Z</time></trkpt><trkpt lat="43.0379617" lon="13.3011796"><ele>490.0</ele><time>2026-03-22T10:17:29.314Z</time></trkpt><trkpt lat="43.0380408" lon="13.3011003"><ele>490.00000000000006</ele><time>2026-03-22T10:17:31.314Z</time></trkpt><trkpt lat="43.038097" lon="13.3011667"><ele>490.0</ele><time>2026-03-22T10:17:32.314Z</time></trkpt><trkpt lat="43.0381644" lon="13.3012859"><ele>490.0</ele><time>2026-03-22T10:17:34.314Z</time></trkpt><trkpt lat="43.0381925" lon="13.301386"><ele>490.0</ele><time>2026-03-22T10:17:35.314Z</time></trkpt><trkpt lat="43.0382283" lon="13.3014647"><ele>490.00000000000006</ele><time>2026-03-22T10:17:36.314Z</time></trkpt><trkpt lat="43.0382601" lon="13.3015482"><ele>490.0</ele><time>2026-03-22T10:17:37.314Z</time></trkpt><trkpt lat="43.0382876" lon="13.3016326"><ele>484.83333333333337</ele><time>2026-03-22T10:17:38.314Z</time></trkpt><trkpt lat="43.0383443" lon="13.3017507"><ele>479.6666666666667</ele><time>2026-03-22T10:17:40.314Z</time></trkpt><trkpt lat="43.0383979" lon="13.3018038"><ele>474.5</ele><time>2026-03-22T10:17:42.314Z</time></trkpt><trkpt lat="43.0384737" lon="13.3018139"><ele>469.33333333333337</ele><time>2026-03-22T10:17:44.314Z</time></trkpt><trkpt lat="43.0385977" lon="13.3018434"><ele>464.1666666666667</ele><time>2026-03-22T10:17:46.314Z</time></trkpt><trkpt lat="43.0386661" lon="13.3018929"><ele>459.0</ele><time>2026-03-22T10:17:47.314Z</time></trkpt><trkpt lat="43.0387721" lon="13.3019926"><ele>459.0</ele><time>2026-03-22T10:17:48.314Z</time></trkpt><trkpt lat="43.0388565" lon="13.3020747"><ele>459.0</ele><time>2026-03-22T10:17:49.314Z</time></trkpt><trkpt lat="43.0389362" lon="13.3021443"><ele>459.0</ele><time>2026-03-22T10:17:50.314Z</time></trkpt><trkpt lat="43.0390147" lon="13.302208"><ele>459.0</ele><time>2026-03-22T10:17:51.314Z</time></trkpt><trkpt lat="43.0390985" lon="13.302259"><ele>459.0</ele><time>2026-03-22T10:17:52.314Z</time></trkpt><trkpt lat="43.039183" lon="13.3022931"><ele>457.6</ele><time>2026-03-22T10:17:53.314Z</time></trkpt><trkpt lat="43.0392658" lon="13.3023196"><ele>456.2</ele><time>2026-03-22T10:17:54.313Z</time></trkpt><trkpt lat="43.0393539" lon="13.3023437"><ele>454.80000000000007</ele><time>2026-03-22T10:17:55.314Z</time></trkpt><trkpt lat="43.0394444" lon="13.302366"><ele>453.40000000000003</ele><time>2026-03-22T10:17:56.314Z</time></trkpt><trkpt lat="43.0395331" lon="13.3023945"><ele>452.0</ele><time>2026-03-22T10:17:57.314Z</time></trkpt><trkpt lat="43.0396274" lon="13.3024249"><ele>451.99999999999994</ele><time>2026-03-22T10:17:58.314Z</time></trkpt><trkpt lat="43.0397109" lon="13.3024547"><ele>452.0</ele><time>2026-03-22T10:17:59.314Z</time></trkpt><trkpt lat="43.0397934" lon="13.3024904"><ele>452.0</ele><time>2026-03-22T10:18:00.314Z</time></trkpt><trkpt lat="43.0398725" lon="13.3025438"><ele>452.0</ele><time>2026-03-22T10:18:01.314Z</time></trkpt><trkpt lat="43.0399447" lon="13.3025969"><ele>451.99999999999994</ele><time>2026-03-22T10:18:02.314Z</time></trkpt><trkpt lat="43.0400097" lon="13.3026661"><ele>452.0</ele><time>2026-03-22T10:18:03.314Z</time></trkpt><trkpt lat="43.0400541" lon="13.302743"><ele>454.20000000000005</ele><time>2026-03-22T10:18:04.314Z</time></trkpt><trkpt lat="43.040117" lon="13.3027783"><ele>456.40000000000003</ele><time>2026-03-22T10:18:05.314Z</time></trkpt><trkpt lat="43.0402404" lon="13.3027739"><ele>458.59999999999997</ele><time>2026-03-22T10:18:07.314Z</time></trkpt><trkpt lat="43.0403195" lon="13.302661"><ele>460.79999999999995</ele><time>2026-03-22T10:18:09.314Z</time></trkpt><trkpt lat="43.0403301" lon="13.3025755"><ele>463.0</ele><time>2026-03-22T10:18:10.314Z</time></trkpt><trkpt lat="43.0403217" lon="13.3024463"><ele>463.00000000000006</ele><time>2026-03-22T10:18:12.314Z</time></trkpt><trkpt lat="43.0403094" lon="13.3023162"><ele>463.0</ele><time>2026-03-22T10:18:15.314Z</time></trkpt><trkpt lat="43.0403466" lon="13.3022097"><ele>463.0</ele><time>2026-03-22T10:18:17.314Z</time></trkpt><trkpt lat="43.0404155" lon="13.3021519"><ele>463.0</ele><time>2026-03-22T10:18:19.314Z</time></trkpt><trkpt lat="43.0404797" lon="13.3021191"><ele>463.00000000000006</ele><time>2026-03-22T10:18:22.314Z</time></trkpt><trkpt lat="43.0405537" lon="13.3020678"><ele>463.0</ele><time>2026-03-22T10:18:27.314Z</time></trkpt><trkpt lat="43.0406106" lon="13.3020246"><ele>465.2</ele><time>2026-03-22T10:18:50.314Z</time></trkpt><trkpt lat="43.040726" lon="13.3019639"><ele>467.4</ele><time>2026-03-22T10:18:53.314Z</time></trkpt><trkpt lat="43.0408083" lon="13.301964"><ele>469.59999999999997</ele><time>2026-03-22T10:18:54.314Z</time></trkpt><trkpt lat="43.0408931" lon="13.3019847"><ele>471.79999999999995</ele><time>2026-03-22T10:18:55.314Z</time></trkpt><trkpt lat="43.0409789" lon="13.3020336"><ele>474.0</ele><time>2026-03-22T10:18:56.314Z</time></trkpt><trkpt lat="43.0410445" lon="13.3021051"><ele>474.79999999999995</ele><time>2026-03-22T10:18:57.314Z</time></trkpt><trkpt lat="43.0410868" lon="13.3022053"><ele>475.59999999999997</ele><time>2026-03-22T10:18:58.314Z</time></trkpt><trkpt lat="43.0411042" lon="13.3023407"><ele>476.4</ele><time>2026-03-22T10:18:59.314Z</time></trkpt><trkpt lat="43.041106" lon="13.3024788"><ele>477.2</ele><time>2026-03-22T10:19:00.314Z</time></trkpt><trkpt lat="43.0411075" lon="13.302608"><ele>478.0</ele><time>2026-03-22T10:19:01.314Z</time></trkpt><trkpt lat="43.041113" lon="13.302721"><ele>476.0</ele><time>2026-03-22T10:19:02.314Z</time></trkpt><trkpt lat="43.0411405" lon="13.3028328"><ele>473.99999999999994</ele><time>2026-03-22T10:19:03.314Z</time></trkpt><trkpt lat="43.0412005" lon="13.3029142"><ele>471.99999999999994</ele><time>2026-03-22T10:19:04.314Z</time></trkpt><trkpt lat="43.041294" lon="13.3029573"><ele>470.0</ele><time>2026-03-22T10:19:05.314Z</time></trkpt><trkpt lat="43.0414036" lon="13.3029661"><ele>468.0</ele><time>2026-03-22T10:19:06.314Z</time></trkpt><trkpt lat="43.0415104" lon="13.3029705"><ele>468.0</ele><time>2026-03-22T10:19:07.314Z</time></trkpt><trkpt lat="43.0416168" lon="13.3029638"><ele>467.99999999999994</ele><time>2026-03-22T10:19:08.313Z</time></trkpt><trkpt lat="43.0417175" lon="13.3029404"><ele>467.99999999999994</ele><time>2026-03-22T10:19:09.313Z</time></trkpt><trkpt lat="43.0418136" lon="13.3028968"><ele>468.0</ele><time>2026-03-22T10:19:10.314Z</time></trkpt><trkpt lat="43.0419054" lon="13.3028372"><ele>468.0</ele><time>2026-03-22T10:19:11.314Z</time></trkpt><trkpt lat="43.042004" lon="13.3027838"><ele>470.59999999999997</ele><time>2026-03-22T10:19:12.314Z</time></trkpt><trkpt lat="43.0421088" lon="13.3027634"><ele>473.19999999999993</ele><time>2026-03-22T10:19:13.314Z</time></trkpt><trkpt lat="43.0422053" lon="13.302801"><ele>475.8</ele><time>2026-03-22T10:19:14.314Z</time></trkpt><trkpt lat="43.042291" lon="13.3028841"><ele>478.4</ele><time>2026-03-22T10:19:15.314Z</time></trkpt><trkpt lat="43.042374" lon="13.3029774"><ele>481.0</ele><time>2026-03-22T10:19:16.314Z</time></trkpt><trkpt lat="43.0424582" lon="13.3030646"><ele>482.6</ele><time>2026-03-22T10:19:17.314Z</time></trkpt><trkpt lat="43.0425477" lon="13.3031404"><ele>484.20000000000005</ele><time>2026-03-22T10:19:18.314Z</time></trkpt><trkpt lat="43.0426428" lon="13.3031983"><ele>485.79999999999995</ele><time>2026-03-22T10:19:19.313Z</time></trkpt><trkpt lat="43.0427433" lon="13.3032487"><ele>487.4</ele><time>2026-03-22T10:19:20.314Z</time></trkpt><trkpt lat="43.0428455" lon="13.3032981"><ele>489.0</ele><time>2026-03-22T10:19:21.314Z</time></trkpt><trkpt lat="43.0429492" lon="13.303347"><ele>489.0</ele><time>2026-03-22T10:19:22.314Z</time></trkpt><trkpt lat="43.0430555" lon="13.3033874"><ele>489.0</ele><time>2026-03-22T10:19:23.314Z</time></trkpt><trkpt lat="43.0431678" lon="13.3033955"><ele>489.0</ele><time>2026-03-22T10:19:24.314Z</time></trkpt><trkpt lat="43.0432747" lon="13.3033511"><ele>489.0</ele><time>2026-03-22T10:19:25.314Z</time></trkpt><trkpt lat="43.0433717" lon="13.3032574"><ele>488.75</ele><time>2026-03-22T10:19:26.314Z</time></trkpt><trkpt lat="43.0434556" lon="13.3031212"><ele>488.5</ele><time>2026-03-22T10:19:27.314Z</time></trkpt><trkpt lat="43.0435255" lon="13.3029699"><ele>488.25</ele><time>2026-03-22T10:19:28.313Z</time></trkpt><trkpt lat="43.0435908" lon="13.3028127"><ele>488.0</ele><time>2026-03-22T10:19:29.314Z</time></trkpt><trkpt lat="43.0436569" lon="13.3026569"><ele>490.0</ele><time>2026-03-22T10:19:30.314Z</time></trkpt><trkpt lat="43.0437232" lon="13.3025034"><ele>492.0</ele><time>2026-03-22T10:19:31.314Z</time></trkpt><trkpt lat="43.0437905" lon="13.3023508"><ele>494.0</ele><time>2026-03-22T10:19:32.314Z</time></trkpt><trkpt lat="43.0438579" lon="13.3022002"><ele>496.0</ele><time>2026-03-22T10:19:33.314Z</time></trkpt><trkpt lat="43.0439223" lon="13.3020485"><ele>497.0</ele><time>2026-03-22T10:19:34.314Z</time></trkpt><trkpt lat="43.0439866" lon="13.301894"><ele>498.0</ele><time>2026-03-22T10:19:35.314Z</time></trkpt><trkpt lat="43.0440511" lon="13.3017414"><ele>499.0</ele><time>2026-03-22T10:19:36.314Z</time></trkpt><trkpt lat="43.0441136" lon="13.3015977"><ele>500.0</ele><time>2026-03-22T10:19:37.314Z</time></trkpt><trkpt lat="43.0441753" lon="13.3014769"><ele>500.8</ele><time>2026-03-22T10:19:38.314Z</time></trkpt><trkpt lat="43.0442462" lon="13.3013826"><ele>501.6</ele><time>2026-03-22T10:19:39.314Z</time></trkpt><trkpt lat="43.0443324" lon="13.3013269"><ele>502.4</ele><time>2026-03-22T10:19:40.314Z</time></trkpt><trkpt lat="43.0444289" lon="13.301311"><ele>503.2</ele><time>2026-03-22T10:19:41.314Z</time></trkpt><trkpt lat="43.0445422" lon="13.301335"><ele>504.0</ele><time>2026-03-22T10:19:42.314Z</time></trkpt><trkpt lat="43.044659" lon="13.3013718"><ele>503.5</ele><time>2026-03-22T10:19:43.314Z</time></trkpt><trkpt lat="43.0447764" lon="13.3014173"><ele>503.0</ele><time>2026-03-22T10:19:44.314Z</time></trkpt><trkpt lat="43.0448927" lon="13.3014656"><ele>502.5</ele><time>2026-03-22T10:19:45.314Z</time></trkpt><trkpt lat="43.0450081" lon="13.3015127"><ele>502.0</ele><time>2026-03-22T10:19:46.314Z</time></trkpt><trkpt lat="43.0451279" lon="13.3015382"><ele>502.0</ele><time>2026-03-22T10:19:47.314Z</time></trkpt><trkpt lat="43.0452668" lon="13.3015299"><ele>502.0</ele><time>2026-03-22T10:19:48.314Z</time></trkpt><trkpt lat="43.0454051" lon="13.3015103"><ele>502.0</ele><time>2026-03-22T10:19:49.314Z</time></trkpt><trkpt lat="43.0455464" lon="13.3014783"><ele>502.0</ele><time>2026-03-22T10:19:50.314Z</time></trkpt><trkpt lat="43.0456876" lon="13.3014581"><ele>503.25</ele><time>2026-03-22T10:19:51.314Z</time></trkpt><trkpt lat="43.045828" lon="13.3014626"><ele>504.5</ele><time>2026-03-22T10:19:52.314Z</time></trkpt><trkpt lat="43.0459692" lon="13.3014759"><ele>505.75</ele><time>2026-03-22T10:19:53.314Z</time></trkpt><trkpt lat="43.046109" lon="13.3014903"><ele>507.0</ele><time>2026-03-22T10:19:54.314Z</time></trkpt><trkpt lat="43.0462487" lon="13.3014973"><ele>507.0</ele><time>2026-03-22T10:19:55.314Z</time></trkpt><trkpt lat="43.0463806" lon="13.3015068"><ele>507.0</ele><time>2026-03-22T10:19:56.314Z</time></trkpt><trkpt lat="43.0464995" lon="13.3015147"><ele>507.0</ele><time>2026-03-22T10:19:57.314Z</time></trkpt><trkpt lat="43.0466184" lon="13.3015015"><ele>507.0</ele><time>2026-03-22T10:19:58.314Z</time></trkpt><trkpt lat="43.0467409" lon="13.3014515"><ele>508.25</ele><time>2026-03-22T10:19:59.314Z</time></trkpt><trkpt lat="43.046865" lon="13.3013799"><ele>509.5</ele><time>2026-03-22T10:20:00.314Z</time></trkpt><trkpt lat="43.0469847" lon="13.301282"><ele>510.75</ele><time>2026-03-22T10:20:01.314Z</time></trkpt><trkpt lat="43.0470936" lon="13.3011668"><ele>512.0</ele><time>2026-03-22T10:20:02.314Z</time></trkpt><trkpt lat="43.0471998" lon="13.3010382"><ele>512.0</ele><time>2026-03-22T10:20:03.314Z</time></trkpt><trkpt lat="43.0473122" lon="13.300915"><ele>512.0</ele><time>2026-03-22T10:20:04.314Z</time></trkpt><trkpt lat="43.0474321" lon="13.3008155"><ele>512.0</ele><time>2026-03-22T10:20:05.314Z</time></trkpt><trkpt lat="43.047569" lon="13.3007475"><ele>512.0</ele><time>2026-03-22T10:20:06.314Z</time></trkpt><trkpt lat="43.0477065" lon="13.3007105"><ele>510.75</ele><time>2026-03-22T10:20:07.314Z</time></trkpt><trkpt lat="43.0478369" lon="13.3006827"><ele>509.5</ele><time>2026-03-22T10:20:08.314Z</time></trkpt><trkpt lat="43.0479532" lon="13.3006074"><ele>508.25</ele><time>2026-03-22T10:20:09.314Z</time></trkpt><trkpt lat="43.0480557" lon="13.3004908"><ele>507.0</ele><time>2026-03-22T10:20:10.314Z</time></trkpt><trkpt lat="43.0481527" lon="13.3003831"><ele>509.5</ele><time>2026-03-22T10:20:11.314Z</time></trkpt><trkpt lat="43.0482372" lon="13.3002479"><ele>512.0</ele><time>2026-03-22T10:20:12.314Z</time></trkpt><trkpt lat="43.0483308" lon="13.3001317"><ele>514.5</ele><time>2026-03-22T10:20:13.314Z</time></trkpt><trkpt lat="43.0484259" lon="13.3000223"><ele>517.0</ele><time>2026-03-22T10:20:14.314Z</time></trkpt><trkpt lat="43.0485287" lon="13.2999209"><ele>517.75</ele><time>2026-03-22T10:20:15.314Z</time></trkpt><trkpt lat="43.0486363" lon="13.2998539"><ele>518.5</ele><time>2026-03-22T10:20:16.314Z</time></trkpt><trkpt lat="43.0487572" lon="13.2998159"><ele>519.25</ele><time>2026-03-22T10:20:17.314Z</time></trkpt><trkpt lat="43.0488814" lon="13.2998031"><ele>520.0</ele><time>2026-03-22T10:20:18.314Z</time></trkpt><trkpt lat="43.0489944" lon="13.299786"><ele>520.0</ele><time>2026-03-22T10:20:19.314Z</time></trkpt><trkpt lat="43.0490919" lon="13.2997685"><ele>520.0</ele><time>2026-03-22T10:20:20.314Z</time></trkpt><trkpt lat="43.0491723" lon="13.2997761"><ele>520.0</ele><time>2026-03-22T10:20:21.314Z</time></trkpt><trkpt lat="43.0492275" lon="13.2998242"><ele>520.0</ele><time>2026-03-22T10:20:22.314Z</time></trkpt><trkpt lat="43.0492233" lon="13.2999893"><ele>520.0</ele><time>2026-03-22T10:20:24.314Z</time></trkpt><trkpt lat="43.0491703" lon="13.3000785"><ele>520.0</ele><time>2026-03-22T10:20:25.314Z</time></trkpt><trkpt lat="43.0491076" lon="13.3001764"><ele>520.0</ele><time>2026-03-22T10:20:26.314Z</time></trkpt><trkpt lat="43.0490452" lon="13.3002842"><ele>520.0</ele><time>2026-03-22T10:20:27.314Z</time></trkpt><trkpt lat="43.0489802" lon="13.3003862"><ele>520.0</ele><time>2026-03-22T10:20:28.313Z</time></trkpt><trkpt lat="43.0489143" lon="13.30047"><ele>520.0</ele><time>2026-03-22T10:20:29.314Z</time></trkpt><trkpt lat="43.0488711" lon="13.3005563"><ele>520.0</ele><time>2026-03-22T10:20:30.314Z</time></trkpt><trkpt lat="43.0489063" lon="13.3007127"><ele>519.4</ele><time>2026-03-22T10:20:32.314Z</time></trkpt><trkpt lat="43.0490188" lon="13.3007087"><ele>518.8</ele><time>2026-03-22T10:20:34.314Z</time></trkpt><trkpt lat="43.0490905" lon="13.3006436"><ele>518.2</ele><time>2026-03-22T10:20:35.314Z</time></trkpt><trkpt lat="43.0491688" lon="13.3005649"><ele>517.6</ele><time>2026-03-22T10:20:36.314Z</time></trkpt><trkpt lat="43.0492491" lon="13.3004783"><ele>517.0</ele><time>2026-03-22T10:20:37.314Z</time></trkpt><trkpt lat="43.049329" lon="13.3003867"><ele>519.5</ele><time>2026-03-22T10:20:38.314Z</time></trkpt><trkpt lat="43.0494179" lon="13.3002894"><ele>522.0</ele><time>2026-03-22T10:20:39.314Z</time></trkpt><trkpt lat="43.0495106" lon="13.3001897"><ele>524.5</ele><time>2026-03-22T10:20:40.314Z</time></trkpt><trkpt lat="43.0496116" lon="13.3000888"><ele>527.0</ele><time>2026-03-22T10:20:41.314Z</time></trkpt><trkpt lat="43.0497196" lon="13.2999908"><ele>527.0</ele><time>2026-03-22T10:20:42.314Z</time></trkpt><trkpt lat="43.0498358" lon="13.2998939"><ele>527.0</ele><time>2026-03-22T10:20:43.314Z</time></trkpt><trkpt lat="43.0499575" lon="13.2998003"><ele>527.0</ele><time>2026-03-22T10:20:44.314Z</time></trkpt><trkpt lat="43.0500849" lon="13.2997119"><ele>527.0</ele><time>2026-03-22T10:20:45.314Z</time></trkpt><trkpt lat="43.0502185" lon="13.299631"><ele>529.75</ele><time>2026-03-22T10:20:46.314Z</time></trkpt><trkpt lat="43.0503555" lon="13.2995522"><ele>532.5</ele><time>2026-03-22T10:20:47.314Z</time></trkpt><trkpt lat="43.0504908" lon="13.2994711"><ele>535.25</ele><time>2026-03-22T10:20:48.314Z</time></trkpt><trkpt lat="43.0506232" lon="13.2993856"><ele>538.0</ele><time>2026-03-22T10:20:49.314Z</time></trkpt><trkpt lat="43.0507556" lon="13.299304"><ele>538.0</ele><time>2026-03-22T10:20:50.314Z</time></trkpt><trkpt lat="43.0508873" lon="13.2992267"><ele>542.0</ele><time>2026-03-22T10:20:51.314Z</time></trkpt><trkpt lat="43.0510186" lon="13.2991536"><ele>542.0</ele><time>2026-03-22T10:20:52.314Z</time></trkpt><trkpt lat="43.0511473" lon="13.2990853"><ele>542.0</ele><time>2026-03-22T10:20:53.314Z</time></trkpt></trkseg><trkseg><trkpt lat="43.0489021" lon="13.2774247"><ele>536.0</ele><time>2026-03-22T10:48:16Z</time></trkpt><trkpt lat="43.0488457" lon="13.2774749"><ele>536.0</ele><time>2026-03-22T10:48:53.001Z</time></trkpt><trkpt lat="43.0488021" lon="13.2775484"><ele>536.0</ele><time>2026-03-22T10:48:58Z</time></trkpt><trkpt lat="43.0487649" lon="13.2776414"><ele>536.0</ele><time>2026-03-22T10:49:04.001Z</time></trkpt><trkpt lat="43.0487025" lon="13.277726"><ele>536.0</ele><time>2026-03-22T10:49:07Z</time></trkpt><trkpt lat="43.0486029" lon="13.2777777"><ele>536.0</ele><time>2026-03-22T10:49:09Z</time></trkpt><trkpt lat="43.0485376" lon="13.2777885"><ele>536.0</ele><time>2026-03-22T10:49:10.001Z</time></trkpt><trkpt lat="43.0484099" lon="13.2778024"><ele>536.0</ele><time>2026-03-22T10:49:12Z</time></trkpt><trkpt lat="43.0483434" lon="13.2778048"><ele>536.0</ele><time>2026-03-22T10:49:13.001Z</time></trkpt><trkpt lat="43.0482757" lon="13.2777841"><ele>536.0</ele><time>2026-03-22T10:49:14Z</time></trkpt><trkpt lat="43.0482114" lon="13.2777409"><ele>536.0</ele><time>2026-03-22T10:49:15Z</time></trkpt><trkpt lat="43.0481558" lon="13.2776808"><ele>536.0</ele><time>2026-03-22T10:49:16Z</time></trkpt><trkpt lat="43.0481017" lon="13.2776072"><ele>535.6</ele><time>2026-03-22T10:49:17Z</time></trkpt><trkpt lat="43.0480454" lon="13.2775217"><ele>535.2</ele><time>2026-03-22T10:49:18.001Z</time></trkpt><trkpt lat="43.0479892" lon="13.2774267"><ele>534.8</ele><time>2026-03-22T10:49:19Z</time></trkpt><trkpt lat="43.0479301" lon="13.2773255"><ele>534.4</ele><time>2026-03-22T10:49:20Z</time></trkpt><trkpt lat="43.0478678" lon="13.2772226"><ele>534.0</ele><time>2026-03-22T10:49:21.001Z</time></trkpt><trkpt lat="43.0478058" lon="13.2771169"><ele>533.8</ele><time>2026-03-22T10:49:22.001Z</time></trkpt><trkpt lat="43.0477406" lon="13.2770105"><ele>533.5999999999999</ele><time>2026-03-22T10:49:23Z</time></trkpt><trkpt lat="43.0476703" lon="13.2768984"><ele>533.4</ele><time>2026-03-22T10:49:24.001Z</time></trkpt><trkpt lat="43.0475968" lon="13.2767845"><ele>533.1999999999999</ele><time>2026-03-22T10:49:25.001Z</time></trkpt><trkpt lat="43.0475186" lon="13.2766715"><ele>533.0</ele><time>2026-03-22T10:49:26Z</time></trkpt><trkpt lat="43.0474349" lon="13.2765631"><ele>531.4</ele><time>2026-03-22T10:49:27Z</time></trkpt><trkpt lat="43.0473541" lon="13.2764658"><ele>529.8</ele><time>2026-03-22T10:49:28Z</time></trkpt><trkpt lat="43.0472693" lon="13.276372"><ele>528.2</ele><time>2026-03-22T10:49:29.001Z</time></trkpt><trkpt lat="43.0471845" lon="13.2762778"><ele>526.6</ele><time>2026-03-22T10:49:30.001Z</time></trkpt><trkpt lat="43.0471051" lon="13.2761726"><ele>525.0</ele><time>2026-03-22T10:49:31Z</time></trkpt><trkpt lat="43.0470311" lon="13.2760558"><ele>525.0</ele><time>2026-03-22T10:49:32.001Z</time></trkpt><trkpt lat="43.0469622" lon="13.2759307"><ele>525.0</ele><time>2026-03-22T10:49:33.001Z</time></trkpt><trkpt lat="43.0468945" lon="13.275804"><ele>525.0</ele><time>2026-03-22T10:49:34.001Z</time></trkpt><trkpt lat="43.046828" lon="13.275679"><ele>525.0</ele><time>2026-03-22T10:49:35.001Z</time></trkpt><trkpt lat="43.0467584" lon="13.275552"><ele>525.75</ele><time>2026-03-22T10:49:36.001Z</time></trkpt><trkpt lat="43.0466809" lon="13.2754207"><ele>526.5</ele><time>2026-03-22T10:49:37.001Z</time></trkpt><trkpt lat="43.0465948" lon="13.2752907"><ele>527.25</ele><time>2026-03-22T10:49:38Z</time></trkpt><trkpt lat="43.046501" lon="13.275161"><ele>528.0</ele><time>2026-03-22T10:49:39.001Z</time></trkpt><trkpt lat="43.046401" lon="13.275032"><ele>528.0</ele><time>2026-03-22T10:49:40Z</time></trkpt><trkpt lat="43.0462992" lon="13.2749019"><ele>528.0</ele><time>2026-03-22T10:49:41Z</time></trkpt><trkpt lat="43.0461954" lon="13.274774"><ele>528.0</ele><time>2026-03-22T10:49:42Z</time></trkpt><trkpt lat="43.0460912" lon="13.2746494"><ele>528.0</ele><time>2026-03-22T10:49:43Z</time></trkpt><trkpt lat="43.0459877" lon="13.2745325"><ele>529.0</ele><time>2026-03-22T10:49:44Z</time></trkpt><trkpt lat="43.0458869" lon="13.2744279"><ele>530.0</ele><time>2026-03-22T10:49:45Z</time></trkpt><trkpt lat="43.0457869" lon="13.2743316"><ele>531.0</ele><time>2026-03-22T10:49:46.001Z</time></trkpt><trkpt lat="43.0456831" lon="13.2742401"><ele>532.0</ele><time>2026-03-22T10:49:47Z</time></trkpt><trkpt lat="43.045577" lon="13.2741538"><ele>532.0</ele><time>2026-03-22T10:49:48Z</time></trkpt><trkpt lat="43.0454783" lon="13.274071"><ele>532.0</ele><time>2026-03-22T10:49:49.001Z</time></trkpt><trkpt lat="43.0453891" lon="13.2739876"><ele>532.0</ele><time>2026-03-22T10:49:50.001Z</time></trkpt><trkpt lat="43.0453126" lon="13.2738953"><ele>532.0</ele><time>2026-03-22T10:49:51Z</time></trkpt><trkpt lat="43.0452522" lon="13.2737907"><ele>532.0</ele><time>2026-03-22T10:49:52.001Z</time></trkpt><trkpt lat="43.0452057" lon="13.2736819"><ele>534.1666666666667</ele><time>2026-03-22T10:49:53Z</time></trkpt><trkpt lat="43.0451653" lon="13.2735735"><ele>536.3333333333334</ele><time>2026-03-22T10:49:54.001Z</time></trkpt><trkpt lat="43.0451263" lon="13.2734699"><ele>538.5</ele><time>2026-03-22T10:49:55.001Z</time></trkpt><trkpt lat="43.0450918" lon="13.2733641"><ele>540.6666666666666</ele><time>2026-03-22T10:49:56.001Z</time></trkpt><trkpt lat="43.0450624" lon="13.2732519"><ele>542.8333333333333</ele><time>2026-03-22T10:49:57.001Z</time></trkpt><trkpt lat="43.045032" lon="13.2731358"><ele>545.0</ele><time>2026-03-22T10:49:58Z</time></trkpt><trkpt lat="43.0449932" lon="13.2730308"><ele>546.3333333333333</ele><time>2026-03-22T10:49:59Z</time></trkpt><trkpt lat="43.0449353" lon="13.2729391"><ele>547.6666666666666</ele><time>2026-03-22T10:50:00.001Z</time></trkpt><trkpt lat="43.0448626" lon="13.2728594"><ele>549.0</ele><time>2026-03-22T10:50:01Z</time></trkpt><trkpt lat="43.0447821" lon="13.2728013"><ele>550.3333333333334</ele><time>2026-03-22T10:50:02Z</time></trkpt><trkpt lat="43.0446936" lon="13.2727755"><ele>551.6666666666667</ele><time>2026-03-22T10:50:03.001Z</time></trkpt><trkpt lat="43.044613" lon="13.2727564"><ele>553.0</ele><time>2026-03-22T10:50:04.001Z</time></trkpt><trkpt lat="43.0445412" lon="13.272739"><ele>553.0</ele><time>2026-03-22T10:50:05Z</time></trkpt><trkpt lat="43.044468" lon="13.2727147"><ele>553.0</ele><time>2026-03-22T10:50:06.001Z</time></trkpt><trkpt lat="43.0443935" lon="13.27268"><ele>553.0</ele><time>2026-03-22T10:50:07.001Z</time></trkpt><trkpt lat="43.0443207" lon="13.2726314"><ele>553.0</ele><time>2026-03-22T10:50:08.001Z</time></trkpt><trkpt lat="43.0442543" lon="13.2725614"><ele>553.0</ele><time>2026-03-22T10:50:09Z</time></trkpt><trkpt lat="43.0441937" lon="13.2724738"><ele>553.0</ele><time>2026-03-22T10:50:10.001Z</time></trkpt><trkpt lat="43.0441406" lon="13.2723728"><ele>553.1999999999999</ele><time>2026-03-22T10:50:11.001Z</time></trkpt><trkpt lat="43.0440973" lon="13.2722634"><ele>553.4</ele><time>2026-03-22T10:50:12.001Z</time></trkpt><trkpt lat="43.0440626" lon="13.272144"><ele>553.5999999999999</ele><time>2026-03-22T10:50:13.001Z</time></trkpt><trkpt lat="43.0440351" lon="13.2720167"><ele>553.8</ele><time>2026-03-22T10:50:14Z</time></trkpt><trkpt lat="43.0440119" lon="13.2718851"><ele>554.0</ele><time>2026-03-22T10:50:15Z</time></trkpt><trkpt lat="43.0439879" lon="13.27176"><ele>554.0</ele><time>2026-03-22T10:50:16Z</time></trkpt><trkpt lat="43.0439679" lon="13.2716599"><ele>554.0</ele><time>2026-03-22T10:50:17Z</time></trkpt><trkpt lat="43.0439509" lon="13.271569"><ele>554.0</ele><time>2026-03-22T10:50:18Z</time></trkpt><trkpt lat="43.0439334" lon="13.271474"><ele>554.0</ele><time>2026-03-22T10:50:19Z</time></trkpt><trkpt lat="43.0439124" lon="13.2713778"><ele>554.0</ele><time>2026-03-22T10:50:20.001Z</time></trkpt><trkpt lat="43.043881" lon="13.2712877"><ele>554.0</ele><time>2026-03-22T10:50:21.001Z</time></trkpt><trkpt lat="43.0438332" lon="13.2712103"><ele>554.0</ele><time>2026-03-22T10:50:22Z</time></trkpt><trkpt lat="43.0437658" lon="13.2711556"><ele>557.1666666666666</ele><time>2026-03-22T10:50:23Z</time></trkpt><trkpt lat="43.0436878" lon="13.2711219"><ele>560.3333333333333</ele><time>2026-03-22T10:50:24Z</time></trkpt><trkpt lat="43.0436058" lon="13.2711015"><ele>563.5</ele><time>2026-03-22T10:50:25.001Z</time></trkpt><trkpt lat="43.0435217" lon="13.2710872"><ele>566.6666666666666</ele><time>2026-03-22T10:50:26.001Z</time></trkpt><trkpt lat="43.0434419" lon="13.2710628"><ele>569.8333333333334</ele><time>2026-03-22T10:50:27Z</time></trkpt><trkpt lat="43.0433676" lon="13.2710255"><ele>573.0</ele><time>2026-03-22T10:50:28Z</time></trkpt><trkpt lat="43.0433038" lon="13.2709807"><ele>573.0</ele><time>2026-03-22T10:50:29Z</time></trkpt><trkpt lat="43.0432387" lon="13.2708681"><ele>573.0</ele><time>2026-03-22T10:50:31Z</time></trkpt><trkpt lat="43.043277" lon="13.2707336"><ele>573.0</ele><time>2026-03-22T10:50:33.001Z</time></trkpt><trkpt lat="43.0433346" lon="13.2706905"><ele>573.0</ele><time>2026-03-22T10:50:34Z</time></trkpt><trkpt lat="43.0434072" lon="13.2706799"><ele>573.0</ele><time>2026-03-22T10:50:35Z</time></trkpt><trkpt lat="43.0434955" lon="13.2706918"><ele>573.0</ele><time>2026-03-22T10:50:36Z</time></trkpt><trkpt lat="43.0436016" lon="13.270708"><ele>573.0</ele><time>2026-03-22T10:50:37.001Z</time></trkpt><trkpt lat="43.0437098" lon="13.2707155"><ele>573.0</ele><time>2026-03-22T10:50:38Z</time></trkpt><trkpt lat="43.0438309" lon="13.2707106"><ele>573.0</ele><time>2026-03-22T10:50:39.001Z</time></trkpt><trkpt lat="43.0439572" lon="13.2707212"><ele>573.0</ele><time>2026-03-22T10:50:40.001Z</time></trkpt><trkpt lat="43.0440889" lon="13.2707331"><ele>574.25</ele><time>2026-03-22T10:50:41Z</time></trkpt><trkpt lat="43.0442199" lon="13.2707452"><ele>575.5</ele><time>2026-03-22T10:50:42Z</time></trkpt><trkpt lat="43.0443468" lon="13.2707528"><ele>576.75</ele><time>2026-03-22T10:50:43.001Z</time></trkpt><trkpt lat="43.0444647" lon="13.2707575"><ele>578.0</ele><time>2026-03-22T10:50:44Z</time></trkpt><trkpt lat="43.0445768" lon="13.270757"><ele>578.0</ele><time>2026-03-22T10:50:45Z</time></trkpt><trkpt lat="43.044682" lon="13.270779"><ele>578.0</ele><time>2026-03-22T10:50:46Z</time></trkpt><trkpt lat="43.0447754" lon="13.2708287"><ele>578.0</ele><time>2026-03-22T10:50:47Z</time></trkpt><trkpt lat="43.0448639" lon="13.2708867"><ele>578.0</ele><time>2026-03-22T10:50:48Z</time></trkpt><trkpt lat="43.044946" lon="13.2709392"><ele>578.0</ele><time>2026-03-22T10:50:49.001Z</time></trkpt><trkpt lat="43.0450152" lon="13.2709713"><ele>579.0</ele><time>2026-03-22T10:50:50Z</time></trkpt><trkpt lat="43.0451242" lon="13.2709868"><ele>580.0</ele><time>2026-03-22T10:50:52.001Z</time></trkpt><trkpt lat="43.0451907" lon="13.2709719"><ele>581.0</ele><time>2026-03-22T10:50:54.001Z</time></trkpt><trkpt lat="43.0452789" lon="13.270937"><ele>582.0</ele><time>2026-03-22T10:50:57.001Z</time></trkpt><trkpt lat="43.0453468" lon="13.2709166"><ele>583.0</ele><time>2026-03-22T10:50:59Z</time></trkpt><trkpt lat="43.0454274" lon="13.2708729"><ele>584.0</ele><time>2026-03-22T10:51:02Z</time></trkpt><trkpt lat="43.0454854" lon="13.2708209"><ele>584.0</ele><time>2026-03-22T10:51:04.001Z</time></trkpt><trkpt lat="43.0455205" lon="13.2707039"><ele>584.0</ele><time>2026-03-22T10:51:06Z</time></trkpt><trkpt lat="43.0455436" lon="13.2705727"><ele>584.0</ele><time>2026-03-22T10:51:08Z</time></trkpt><trkpt lat="43.045593" lon="13.2704589"><ele>584.0</ele><time>2026-03-22T10:51:10.001Z</time></trkpt><trkpt lat="43.0456506" lon="13.2703516"><ele>584.0</ele><time>2026-03-22T10:51:12.001Z</time></trkpt><trkpt lat="43.0457229" lon="13.2702293"><ele>586.0</ele><time>2026-03-22T10:51:14Z</time></trkpt><trkpt lat="43.0457664" lon="13.2701576"><ele>588.0</ele><time>2026-03-22T10:51:15.001Z</time></trkpt><trkpt lat="43.0458124" lon="13.270078"><ele>590.0</ele><time>2026-03-22T10:51:15.999Z</time></trkpt><trkpt lat="43.0458621" lon="13.2699907"><ele>592.0</ele><time>2026-03-22T10:51:16.999Z</time></trkpt><trkpt lat="43.0459142" lon="13.2699037"><ele>594.0</ele><time>2026-03-22T10:51:18.001Z</time></trkpt><trkpt lat="43.0459658" lon="13.2698125"><ele>596.0</ele><time>2026-03-22T10:51:19.001Z</time></trkpt><trkpt lat="43.0460185" lon="13.2697207"><ele>591.5</ele><time>2026-03-22T10:51:20.001Z</time></trkpt><trkpt lat="43.0460682" lon="13.2696298"><ele>587.0</ele><time>2026-03-22T10:51:21Z</time></trkpt><trkpt lat="43.0461188" lon="13.2695437"><ele>582.5</ele><time>2026-03-22T10:51:22.001Z</time></trkpt><trkpt lat="43.0461659" lon="13.2694605"><ele>578.0</ele><time>2026-03-22T10:51:23.001Z</time></trkpt><trkpt lat="43.046211" lon="13.2693769"><ele>573.5</ele><time>2026-03-22T10:51:24.001Z</time></trkpt><trkpt lat="43.046255" lon="13.2692977"><ele>569.0</ele><time>2026-03-22T10:51:25Z</time></trkpt><trkpt lat="43.0462993" lon="13.2692156"><ele>569.0</ele><time>2026-03-22T10:51:26Z</time></trkpt><trkpt lat="43.0463482" lon="13.2691211"><ele>569.0</ele><time>2026-03-22T10:51:27Z</time></trkpt><trkpt lat="43.0464023" lon="13.2690205"><ele>569.0</ele><time>2026-03-22T10:51:28Z</time></trkpt><trkpt lat="43.0464662" lon="13.2689049"><ele>569.0</ele><time>2026-03-22T10:51:29.001Z</time></trkpt><trkpt lat="43.0465347" lon="13.2687835"><ele>569.0</ele><time>2026-03-22T10:51:30Z</time></trkpt><trkpt lat="43.0466036" lon="13.2686627"><ele>568.5</ele><time>2026-03-22T10:51:30.999Z</time></trkpt><trkpt lat="43.046669" lon="13.2685471"><ele>568.0</ele><time>2026-03-22T10:51:32.001Z</time></trkpt><trkpt lat="43.0467268" lon="13.2684413"><ele>567.5</ele><time>2026-03-22T10:51:33Z</time></trkpt><trkpt lat="43.0467794" lon="13.2683634"><ele>567.0</ele><time>2026-03-22T10:51:34.001Z</time></trkpt><trkpt lat="43.0468414" lon="13.2683217"><ele>566.5</ele><time>2026-03-22T10:51:35.001Z</time></trkpt><trkpt lat="43.0469085" lon="13.2683119"><ele>566.0</ele><time>2026-03-22T10:51:36Z</time></trkpt><trkpt lat="43.0469944" lon="13.2683284"><ele>566.0</ele><time>2026-03-22T10:51:37.001Z</time></trkpt><trkpt lat="43.0470901" lon="13.2683489"><ele>566.0</ele><time>2026-03-22T10:51:38Z</time></trkpt><trkpt lat="43.0471691" lon="13.2683535"><ele>566.0</ele><time>2026-03-22T10:51:39.001Z</time></trkpt><trkpt lat="43.0472514" lon="13.2683404"><ele>566.0</ele><time>2026-03-22T10:51:40.001Z</time></trkpt><trkpt lat="43.0473248" lon="13.2683088"><ele>566.0</ele><time>2026-03-22T10:51:41.001Z</time></trkpt><trkpt lat="43.0473878" lon="13.2682822"><ele>566.0</ele><time>2026-03-22T10:51:42Z</time></trkpt><trkpt lat="43.0474748" lon="13.2681972"><ele>566.0</ele><time>2026-03-22T10:51:44Z</time></trkpt><trkpt lat="43.047512" lon="13.2680579"><ele>566.0</ele><time>2026-03-22T10:51:46.001Z</time></trkpt><trkpt lat="43.0475294" lon="13.2679727"><ele>566.0</ele><time>2026-03-22T10:51:47Z</time></trkpt><trkpt lat="43.0475494" lon="13.2678899"><ele>566.0</ele><time>2026-03-22T10:51:48Z</time></trkpt><trkpt lat="43.0476075" lon="13.2677458"><ele>566.0</ele><time>2026-03-22T10:51:50Z</time></trkpt><trkpt lat="43.0477071" lon="13.2676334"><ele>566.0</ele><time>2026-03-22T10:51:52.001Z</time></trkpt><trkpt lat="43.0477647" lon="13.2675805"><ele>566.0</ele><time>2026-03-22T10:51:53Z</time></trkpt><trkpt lat="43.0478224" lon="13.2675224"><ele>566.0</ele><time>2026-03-22T10:51:54Z</time></trkpt><trkpt lat="43.0478728" lon="13.267463"><ele>566.0</ele><time>2026-03-22T10:51:55.001Z</time></trkpt><trkpt lat="43.0479306" lon="13.267399"><ele>566.0</ele><time>2026-03-22T10:51:56Z</time></trkpt><trkpt lat="43.0479898" lon="13.2673417"><ele>566.0</ele><time>2026-03-22T10:51:57.001Z</time></trkpt><trkpt lat="43.0480573" lon="13.2672941"><ele>566.0</ele><time>2026-03-22T10:51:58.001Z</time></trkpt><trkpt lat="43.0481237" lon="13.267264"><ele>566.6</ele><time>2026-03-22T10:51:59Z</time></trkpt><trkpt lat="43.0482503" lon="13.2671888"><ele>567.2</ele><time>2026-03-22T10:52:01Z</time></trkpt><trkpt lat="43.0483286" lon="13.2671525"><ele>567.8</ele><time>2026-03-22T10:52:02Z</time></trkpt><trkpt lat="43.0484107" lon="13.26712"><ele>568.4</ele><time>2026-03-22T10:52:03Z</time></trkpt><trkpt lat="43.0484925" lon="13.2670924"><ele>569.0</ele><time>2026-03-22T10:52:04Z</time></trkpt><trkpt lat="43.048591" lon="13.2670575"><ele>569.0</ele><time>2026-03-22T10:52:05.001Z</time></trkpt><trkpt lat="43.0486833" lon="13.2670173"><ele>569.0</ele><time>2026-03-22T10:52:06.001Z</time></trkpt><trkpt lat="43.0487653" lon="13.2669711"><ele>569.0</ele><time>2026-03-22T10:52:07.001Z</time></trkpt><trkpt lat="43.0488456" lon="13.2669223"><ele>569.0</ele><time>2026-03-22T10:52:08.001Z</time></trkpt><trkpt lat="43.0489142" lon="13.2668783"><ele>569.0</ele><time>2026-03-22T10:52:09Z</time></trkpt><trkpt lat="43.0489793" lon="13.2668386"><ele>569.0</ele><time>2026-03-22T10:52:10.001Z</time></trkpt><trkpt lat="43.049048" lon="13.2667921"><ele>569.0</ele><time>2026-03-22T10:52:11.001Z</time></trkpt><trkpt lat="43.0491218" lon="13.2667495"><ele>569.0</ele><time>2026-03-22T10:52:12Z</time></trkpt><trkpt lat="43.0491927" lon="13.2667023"><ele>569.0</ele><time>2026-03-22T10:52:13.001Z</time></trkpt><trkpt lat="43.0492633" lon="13.2666563"><ele>569.0</ele><time>2026-03-22T10:52:14.001Z</time></trkpt><trkpt lat="43.0493361" lon="13.2666133"><ele>569.0</ele><time>2026-03-22T10:52:15Z</time></trkpt><trkpt lat="43.0494076" lon="13.2665651"><ele>569.0</ele><time>2026-03-22T10:52:16Z</time></trkpt><trkpt lat="43.0494758" lon="13.2665174"><ele>569.0</ele><time>2026-03-22T10:52:17.001Z</time></trkpt><trkpt lat="43.0495481" lon="13.2664762"><ele>569.0</ele><time>2026-03-22T10:52:18Z</time></trkpt><trkpt lat="43.0496249" lon="13.2664397"><ele>569.0</ele><time>2026-03-22T10:52:19Z</time></trkpt><trkpt lat="43.0497037" lon="13.266388"><ele>569.0</ele><time>2026-03-22T10:52:20Z</time></trkpt><trkpt lat="43.0497935" lon="13.2663208"><ele>569.0</ele><time>2026-03-22T10:52:21.001Z</time></trkpt><trkpt lat="43.0498815" lon="13.2662436"><ele>569.6</ele><time>2026-03-22T10:52:22.001Z</time></trkpt><trkpt lat="43.0499627" lon="13.2661675"><ele>570.2</ele><time>2026-03-22T10:52:23Z</time></trkpt><trkpt lat="43.0500492" lon="13.2660975"><ele>570.8000000000001</ele><time>2026-03-22T10:52:24Z</time></trkpt><trkpt lat="43.0501371" lon="13.2660222"><ele>571.4</ele><time>2026-03-22T10:52:25Z</time></trkpt><trkpt lat="43.0502313" lon="13.2659376"><ele>572.0</ele><time>2026-03-22T10:52:26.001Z</time></trkpt><trkpt lat="43.0503344" lon="13.2658495"><ele>572.0</ele><time>2026-03-22T10:52:27Z</time></trkpt><trkpt lat="43.0504266" lon="13.2657691"><ele>572.0</ele><time>2026-03-22T10:52:27.999Z</time></trkpt><trkpt lat="43.0505132" lon="13.2656949"><ele>572.0</ele><time>2026-03-22T10:52:29.001Z</time></trkpt><trkpt lat="43.0505935" lon="13.2656309"><ele>572.0</ele><time>2026-03-22T10:52:30Z</time></trkpt><trkpt lat="43.0506746" lon="13.2655713"><ele>572.0</ele><time>2026-03-22T10:52:31.001Z</time></trkpt><trkpt lat="43.0507506" lon="13.2655236"><ele>572.0</ele><time>2026-03-22T10:52:32Z</time></trkpt><trkpt lat="43.0508153" lon="13.2654901"><ele>572.0</ele><time>2026-03-22T10:52:33Z</time></trkpt><trkpt lat="43.0509229" lon="13.2654337"><ele>572.0</ele><time>2026-03-22T10:52:35.001Z</time></trkpt><trkpt lat="43.0510092" lon="13.2653983"><ele>572.0</ele><time>2026-03-22T10:52:37.001Z</time></trkpt><trkpt lat="43.0510719" lon="13.265414"><ele>572.0</ele><time>2026-03-22T10:52:39Z</time></trkpt><trkpt lat="43.0510976" lon="13.2654977"><ele>572.0</ele><time>2026-03-22T10:52:41.001Z</time></trkpt><trkpt lat="43.0510931" lon="13.2656812"><ele>572.0</ele><time>2026-03-22T10:52:43Z</time></trkpt><trkpt lat="43.0510874" lon="13.2658129"><ele>572.0</ele><time>2026-03-22T10:52:44Z</time></trkpt><trkpt lat="43.0510862" lon="13.2659548"><ele>572.0</ele><time>2026-03-22T10:52:45.001Z</time></trkpt><trkpt lat="43.0510948" lon="13.2661112"><ele>572.0</ele><time>2026-03-22T10:52:46.001Z</time></trkpt><trkpt lat="43.0511151" lon="13.2662798"><ele>572.0</ele><time>2026-03-22T10:52:47Z</time></trkpt><trkpt lat="43.0511427" lon="13.2664599"><ele>570.75</ele><time>2026-03-22T10:52:48Z</time></trkpt><trkpt lat="43.0511771" lon="13.2666702"><ele>569.5</ele><time>2026-03-22T10:52:49.001Z</time></trkpt><trkpt lat="43.0512065" lon="13.2668697"><ele>568.25</ele><time>2026-03-22T10:52:50Z</time></trkpt><trkpt lat="43.0512379" lon="13.2670606"><ele>567.0</ele><time>2026-03-22T10:52:51.001Z</time></trkpt><trkpt lat="43.0512696" lon="13.267242"><ele>566.4</ele><time>2026-03-22T10:52:52.001Z</time></trkpt><trkpt lat="43.0512968" lon="13.2674144"><ele>565.8000000000001</ele><time>2026-03-22T10:52:53Z</time></trkpt><trkpt lat="43.0513188" lon="13.2675778"><ele>565.2</ele><time>2026-03-22T10:52:54Z</time></trkpt><trkpt lat="43.0513403" lon="13.2677259"><ele>564.6</ele><time>2026-03-22T10:52:55Z</time></trkpt><trkpt lat="43.0513589" lon="13.2678444"><ele>564.0</ele><time>2026-03-22T10:52:56Z</time></trkpt><trkpt lat="43.0513743" lon="13.2679395"><ele>564.0</ele><time>2026-03-22T10:52:57Z</time></trkpt><trkpt lat="43.0514037" lon="13.2680714"><ele>564.0</ele><time>2026-03-22T10:52:59.001Z</time></trkpt><trkpt lat="43.0513993" lon="13.2681829"><ele>564.0</ele><time>2026-03-22T10:53:01Z</time></trkpt><trkpt lat="43.0513145" lon="13.2682794"><ele>564.0</ele><time>2026-03-22T10:53:03Z</time></trkpt><trkpt lat="43.0512648" lon="13.2683546"><ele>564.0</ele><time>2026-03-22T10:53:04Z</time></trkpt><trkpt lat="43.0512209" lon="13.2684482"><ele>564.0</ele><time>2026-03-22T10:53:05.001Z</time></trkpt><trkpt lat="43.0511641" lon="13.2685691"><ele>563.2</ele><time>2026-03-22T10:53:06Z</time></trkpt><trkpt lat="43.0511091" lon="13.2686969"><ele>562.4</ele><time>2026-03-22T10:53:07Z</time></trkpt><trkpt lat="43.0510663" lon="13.2688282"><ele>561.6</ele><time>2026-03-22T10:53:08.001Z</time></trkpt><trkpt lat="43.0510419" lon="13.2689566"><ele>560.8</ele><time>2026-03-22T10:53:09Z</time></trkpt><trkpt lat="43.0510395" lon="13.2690773"><ele>560.0</ele><time>2026-03-22T10:53:10Z</time></trkpt><trkpt lat="43.0510397" lon="13.2691972"><ele>559.2</ele><time>2026-03-22T10:53:11.001Z</time></trkpt><trkpt lat="43.0510332" lon="13.2693182"><ele>558.4</ele><time>2026-03-22T10:53:12Z</time></trkpt><trkpt lat="43.0510234" lon="13.2694465"><ele>557.6</ele><time>2026-03-22T10:53:13Z</time></trkpt><trkpt lat="43.0510112" lon="13.2695704"><ele>556.8</ele><time>2026-03-22T10:53:14Z</time></trkpt><trkpt lat="43.0509982" lon="13.2696901"><ele>556.0</ele><time>2026-03-22T10:53:15Z</time></trkpt><trkpt lat="43.0509914" lon="13.269821"><ele>555.2</ele><time>2026-03-22T10:53:16.001Z</time></trkpt><trkpt lat="43.0509895" lon="13.2699489"><ele>554.4000000000001</ele><time>2026-03-22T10:53:17Z</time></trkpt><trkpt lat="43.050992" lon="13.2700924"><ele>553.6</ele><time>2026-03-22T10:53:17.999Z</time></trkpt><trkpt lat="43.0509979" lon="13.2702503"><ele>552.8000000000001</ele><time>2026-03-22T10:53:19.001Z</time></trkpt><trkpt lat="43.051004" lon="13.2704083"><ele>552.0</ele><time>2026-03-22T10:53:20Z</time></trkpt><trkpt lat="43.0510101" lon="13.270556"><ele>551.6</ele><time>2026-03-22T10:53:21Z</time></trkpt><trkpt lat="43.0510127" lon="13.270697"><ele>551.2</ele><time>2026-03-22T10:53:22.001Z</time></trkpt><trkpt lat="43.0510154" lon="13.2708306"><ele>550.8</ele><time>2026-03-22T10:53:23Z</time></trkpt><trkpt lat="43.0510277" lon="13.2709581"><ele>550.4</ele><time>2026-03-22T10:53:24.001Z</time></trkpt><trkpt lat="43.0510504" lon="13.2710879"><ele>550.0</ele><time>2026-03-22T10:53:25Z</time></trkpt><trkpt lat="43.0510839" lon="13.2712242"><ele>550.0</ele><time>2026-03-22T10:53:26Z</time></trkpt><trkpt lat="43.0511194" lon="13.2713529"><ele>550.0</ele><time>2026-03-22T10:53:27.001Z</time></trkpt><trkpt lat="43.0511532" lon="13.2714743"><ele>550.0</ele><time>2026-03-22T10:53:28.001Z</time></trkpt><trkpt lat="43.0511901" lon="13.271594"><ele>550.0</ele><time>2026-03-22T10:53:29Z</time></trkpt><trkpt lat="43.0512303" lon="13.2717091"><ele>550.0</ele><time>2026-03-22T10:53:30.001Z</time></trkpt><trkpt lat="43.0512701" lon="13.2718151"><ele>549.1666666666667</ele><time>2026-03-22T10:53:31.001Z</time></trkpt><trkpt lat="43.051313" lon="13.2719226"><ele>548.3333333333334</ele><time>2026-03-22T10:53:31.999Z</time></trkpt><trkpt lat="43.0513565" lon="13.2720257"><ele>547.5</ele><time>2026-03-22T10:53:33Z</time></trkpt><trkpt lat="43.0514038" lon="13.2721268"><ele>546.6666666666666</ele><time>2026-03-22T10:53:34.001Z</time></trkpt><trkpt lat="43.0514504" lon="13.2722287"><ele>545.8333333333333</ele><time>2026-03-22T10:53:35.001Z</time></trkpt><trkpt lat="43.0514959" lon="13.2723216"><ele>545.0</ele><time>2026-03-22T10:53:36Z</time></trkpt><trkpt lat="43.0515385" lon="13.2724045"><ele>544.8</ele><time>2026-03-22T10:53:37Z</time></trkpt><trkpt lat="43.051608" lon="13.272512"><ele>544.6</ele><time>2026-03-22T10:53:39.001Z</time></trkpt><trkpt lat="43.0516795" lon="13.2725183"><ele>544.4</ele><time>2026-03-22T10:53:41Z</time></trkpt><trkpt lat="43.051803" lon="13.2724227"><ele>544.2</ele><time>2026-03-22T10:53:43.001Z</time></trkpt><trkpt lat="43.0518944" lon="13.2723377"><ele>544.0</ele><time>2026-03-22T10:53:44Z</time></trkpt><trkpt lat="43.052014" lon="13.272238"><ele>545.0</ele><time>2026-03-22T10:53:45.001Z</time></trkpt><trkpt lat="43.0521466" lon="13.2721301"><ele>546.0</ele><time>2026-03-22T10:53:46.001Z</time></trkpt><trkpt lat="43.0522948" lon="13.272006"><ele>547.0</ele><time>2026-03-22T10:53:47Z</time></trkpt><trkpt lat="43.0524428" lon="13.2718792"><ele>547.0</ele><time>2026-03-22T10:53:48Z</time></trkpt><trkpt lat="43.0525854" lon="13.2717689"><ele>547.0</ele><time>2026-03-22T10:53:49.001Z</time></trkpt><trkpt lat="43.0527167" lon="13.2716645"><ele>547.0</ele><time>2026-03-22T10:53:50Z</time></trkpt><trkpt lat="43.052832" lon="13.2715587"><ele>547.0</ele><time>2026-03-22T10:53:51Z</time></trkpt><trkpt lat="43.0529275" lon="13.2714554"><ele>547.0</ele><time>2026-03-22T10:53:52Z</time></trkpt><trkpt lat="43.0530137" lon="13.271364"><ele>547.0</ele><time>2026-03-22T10:53:53Z</time></trkpt><trkpt lat="43.0531002" lon="13.2712804"><ele>547.0</ele><time>2026-03-22T10:53:54.001Z</time></trkpt><trkpt lat="43.0531837" lon="13.2712038"><ele>547.0</ele><time>2026-03-22T10:53:55.001Z</time></trkpt><trkpt lat="43.0532767" lon="13.2711195"><ele>549.0</ele><time>2026-03-22T10:53:56Z</time></trkpt><trkpt lat="43.0533676" lon="13.2710387"><ele>551.0</ele><time>2026-03-22T10:53:57Z</time></trkpt><trkpt lat="43.0534591" lon="13.2709554"><ele>553.0</ele><time>2026-03-22T10:53:58Z</time></trkpt><trkpt lat="43.0535426" lon="13.2708773"><ele>555.0</ele><time>2026-03-22T10:53:59Z</time></trkpt><trkpt lat="43.0536247" lon="13.2708124"><ele>557.0</ele><time>2026-03-22T10:54:00.001Z</time></trkpt><trkpt lat="43.053683" lon="13.2707073"><ele>557.0</ele><time>2026-03-22T10:54:01Z</time></trkpt><trkpt lat="43.053741" lon="13.2706247"><ele>557.0</ele><time>2026-03-22T10:54:01.999Z</time></trkpt><trkpt lat="43.0537814" lon="13.2705388"><ele>557.0</ele><time>2026-03-22T10:54:03.001Z</time></trkpt><trkpt lat="43.0538263" lon="13.2704509"><ele>557.0</ele><time>2026-03-22T10:54:04Z</time></trkpt><trkpt lat="43.0538943" lon="13.2703575"><ele>557.0</ele><time>2026-03-22T10:54:06.001Z</time></trkpt><trkpt lat="43.0539815" lon="13.2702656"><ele>557.0</ele><time>2026-03-22T10:54:08.001Z</time></trkpt><trkpt lat="43.0540316" lon="13.270194"><ele>557.4</ele><time>2026-03-22T10:54:09.001Z</time></trkpt><trkpt lat="43.0540932" lon="13.2701228"><ele>557.8000000000001</ele><time>2026-03-22T10:54:10.001Z</time></trkpt><trkpt lat="43.0541628" lon="13.2700288"><ele>558.2</ele><time>2026-03-22T10:54:11Z</time></trkpt><trkpt lat="43.0542364" lon="13.2699197"><ele>558.6</ele><time>2026-03-22T10:54:12.001Z</time></trkpt><trkpt lat="43.0543064" lon="13.2698107"><ele>559.0</ele><time>2026-03-22T10:54:13.001Z</time></trkpt><trkpt lat="43.0543705" lon="13.2697095"><ele>561.2</ele><time>2026-03-22T10:54:14.001Z</time></trkpt><trkpt lat="43.054436" lon="13.2696116"><ele>563.4</ele><time>2026-03-22T10:54:15.001Z</time></trkpt><trkpt lat="43.0544987" lon="13.2695188"><ele>565.6</ele><time>2026-03-22T10:54:16Z</time></trkpt><trkpt lat="43.0545716" lon="13.2694323"><ele>567.8</ele><time>2026-03-22T10:54:17Z</time></trkpt><trkpt lat="43.0546607" lon="13.2693646"><ele>570.0</ele><time>2026-03-22T10:54:18Z</time></trkpt><trkpt lat="43.0547559" lon="13.2693114"><ele>570.0</ele><time>2026-03-22T10:54:19.001Z</time></trkpt><trkpt lat="43.0548502" lon="13.269261"><ele>570.0</ele><time>2026-03-22T10:54:20.001Z</time></trkpt><trkpt lat="43.0549328" lon="13.2692071"><ele>570.0</ele><time>2026-03-22T10:54:21Z</time></trkpt><trkpt lat="43.0550074" lon="13.2691568"><ele>570.0</ele><time>2026-03-22T10:54:22Z</time></trkpt><trkpt lat="43.0550762" lon="13.2691119"><ele>570.0</ele><time>2026-03-22T10:54:23Z</time></trkpt><trkpt lat="43.055148" lon="13.2690703"><ele>570.0</ele><time>2026-03-22T10:54:24Z</time></trkpt><trkpt lat="43.0552211" lon="13.2690213"><ele>569.3333333333334</ele><time>2026-03-22T10:54:25.001Z</time></trkpt><trkpt lat="43.0552946" lon="13.2689645"><ele>568.6666666666666</ele><time>2026-03-22T10:54:26.001Z</time></trkpt><trkpt lat="43.0553666" lon="13.2689049"><ele>568.0</ele><time>2026-03-22T10:54:27Z</time></trkpt><trkpt lat="43.0554375" lon="13.268858"><ele>567.3333333333333</ele><time>2026-03-22T10:54:28Z</time></trkpt><trkpt lat="43.0555069" lon="13.2688212"><ele>566.6666666666666</ele><time>2026-03-22T10:54:29Z</time></trkpt><trkpt lat="43.0555675" lon="13.2687875"><ele>566.0</ele><time>2026-03-22T10:54:30.001Z</time></trkpt><trkpt lat="43.0556449" lon="13.268748"><ele>565.8</ele><time>2026-03-22T10:54:32Z</time></trkpt><trkpt lat="43.0557097" lon="13.2687498"><ele>565.6</ele><time>2026-03-22T10:54:38.999Z</time></trkpt><trkpt lat="43.0558018" lon="13.268845"><ele>565.4</ele><time>2026-03-22T10:54:41Z</time></trkpt><trkpt lat="43.0559091" lon="13.2689269"><ele>565.2</ele><time>2026-03-22T10:54:43.001Z</time></trkpt><trkpt lat="43.0559893" lon="13.2689502"><ele>565.0</ele><time>2026-03-22T10:54:44.001Z</time></trkpt><trkpt lat="43.0560888" lon="13.2689631"><ele>566.25</ele><time>2026-03-22T10:54:45Z</time></trkpt><trkpt lat="43.0561988" lon="13.2689811"><ele>567.5</ele><time>2026-03-22T10:54:46.001Z</time></trkpt><trkpt lat="43.0563164" lon="13.2690117"><ele>568.75</ele><time>2026-03-22T10:54:47.001Z</time></trkpt><trkpt lat="43.0564403" lon="13.2690441"><ele>570.0</ele><time>2026-03-22T10:54:48.001Z</time></trkpt><trkpt lat="43.0565716" lon="13.2690803"><ele>567.25</ele><time>2026-03-22T10:54:49.001Z</time></trkpt><trkpt lat="43.0567071" lon="13.2691155"><ele>564.5</ele><time>2026-03-22T10:54:50.001Z</time></trkpt><trkpt lat="43.0568481" lon="13.2691471"><ele>561.75</ele><time>2026-03-22T10:54:51Z</time></trkpt><trkpt lat="43.0569959" lon="13.2691878"><ele>559.0</ele><time>2026-03-22T10:54:52Z</time></trkpt><trkpt lat="43.0571474" lon="13.2692349"><ele>559.0</ele><time>2026-03-22T10:54:53.001Z</time></trkpt><trkpt lat="43.0573036" lon="13.2692825"><ele>559.0</ele><time>2026-03-22T10:54:54.001Z</time></trkpt><trkpt lat="43.057463" lon="13.2693282"><ele>559.0</ele><time>2026-03-22T10:54:55.001Z</time></trkpt><trkpt lat="43.0576238" lon="13.269374"><ele>556.0</ele><time>2026-03-22T10:54:56Z</time></trkpt><trkpt lat="43.0577826" lon="13.2694169"><ele>553.0</ele><time>2026-03-22T10:54:57.001Z</time></trkpt><trkpt lat="43.0579459" lon="13.269459"><ele>550.0</ele><time>2026-03-22T10:54:58Z</time></trkpt><trkpt lat="43.0581094" lon="13.2695029"><ele>550.0</ele><time>2026-03-22T10:54:59Z</time></trkpt><trkpt lat="43.0582746" lon="13.2695471"><ele>550.0</ele><time>2026-03-22T10:55:00Z</time></trkpt><trkpt lat="43.0584421" lon="13.2695899"><ele>550.0</ele><time>2026-03-22T10:55:01.001Z</time></trkpt><trkpt lat="43.0586115" lon="13.2696322"><ele>549.0</ele><time>2026-03-22T10:55:02.001Z</time></trkpt><trkpt lat="43.0587827" lon="13.2696765"><ele>548.0</ele><time>2026-03-22T10:55:03.001Z</time></trkpt><trkpt lat="43.0589533" lon="13.2697227"><ele>547.0</ele><time>2026-03-22T10:55:04Z</time></trkpt><trkpt lat="43.0591215" lon="13.2697708"><ele>546.0</ele><time>2026-03-22T10:55:05.001Z</time></trkpt><trkpt lat="43.0592868" lon="13.2698166"><ele>545.0</ele><time>2026-03-22T10:55:06.001Z</time></trkpt><trkpt lat="43.0594495" lon="13.269859"><ele>544.0</ele><time>2026-03-22T10:55:07.001Z</time></trkpt><trkpt lat="43.0596109" lon="13.2698995"><ele>544.0</ele><time>2026-03-22T10:55:08.001Z</time></trkpt><trkpt lat="43.05977" lon="13.2699393"><ele>544.0</ele><time>2026-03-22T10:55:09.001Z</time></trkpt><trkpt lat="43.0599291" lon="13.2699787"><ele>544.0</ele><time>2026-03-22T10:55:10.001Z</time></trkpt><trkpt lat="43.060088" lon="13.2700183"><ele>542.3333333333334</ele><time>2026-03-22T10:55:11.001Z</time></trkpt><trkpt lat="43.0602507" lon="13.2700616"><ele>540.6666666666666</ele><time>2026-03-22T10:55:12.001Z</time></trkpt><trkpt lat="43.0604156" lon="13.2701062"><ele>539.0</ele><time>2026-03-22T10:55:13Z</time></trkpt><trkpt lat="43.0605792" lon="13.2701457"><ele>539.0</ele><time>2026-03-22T10:55:14Z</time></trkpt><trkpt lat="43.0607408" lon="13.2701846"><ele>539.0</ele><time>2026-03-22T10:55:15Z</time></trkpt><trkpt lat="43.0608987" lon="13.2702254"><ele>539.0</ele><time>2026-03-22T10:55:16Z</time></trkpt><trkpt lat="43.0610497" lon="13.270267"><ele>538.25</ele><time>2026-03-22T10:55:17Z</time></trkpt><trkpt lat="43.0611848" lon="13.270306"><ele>537.5</ele><time>2026-03-22T10:55:17.999Z</time></trkpt><trkpt lat="43.0612955" lon="13.270349"><ele>536.75</ele><time>2026-03-22T10:55:19.001Z</time></trkpt><trkpt lat="43.0614091" lon="13.2704047"><ele>536.0</ele><time>2026-03-22T10:55:20.001Z</time></trkpt><trkpt lat="43.061517" lon="13.2704695"><ele>535.0</ele><time>2026-03-22T10:55:21.001Z</time></trkpt><trkpt lat="43.061627" lon="13.2705409"><ele>534.0</ele><time>2026-03-22T10:55:22.001Z</time></trkpt><trkpt lat="43.0617465" lon="13.2706147"><ele>533.0</ele><time>2026-03-22T10:55:23.001Z</time></trkpt><trkpt lat="43.0618747" lon="13.270693"><ele>532.0</ele><time>2026-03-22T10:55:24.001Z</time></trkpt><trkpt lat="43.062009" lon="13.2707775"><ele>532.0</ele><time>2026-03-22T10:55:25.001Z</time></trkpt><trkpt lat="43.0621494" lon="13.270865"><ele>532.0</ele><time>2026-03-22T10:55:26.001Z</time></trkpt><trkpt lat="43.0622949" lon="13.2709558"><ele>532.0</ele><time>2026-03-22T10:55:27Z</time></trkpt><trkpt lat="43.0624438" lon="13.2710496"><ele>529.6666666666667</ele><time>2026-03-22T10:55:28.001Z</time></trkpt><trkpt lat="43.0625958" lon="13.2711454"><ele>527.3333333333334</ele><time>2026-03-22T10:55:29.001Z</time></trkpt><trkpt lat="43.0627499" lon="13.2712428"><ele>525.0</ele><time>2026-03-22T10:55:30.001Z</time></trkpt><trkpt lat="43.0629057" lon="13.2713412"><ele>525.0</ele><time>2026-03-22T10:55:31.001Z</time></trkpt><trkpt lat="43.0630597" lon="13.271437"><ele>525.0</ele><time>2026-03-22T10:55:32Z</time></trkpt><trkpt lat="43.0632092" lon="13.2715308"><ele>525.0</ele><time>2026-03-22T10:55:33Z</time></trkpt><trkpt lat="43.0633528" lon="13.2716244"><ele>522.6666666666666</ele><time>2026-03-22T10:55:34.001Z</time></trkpt><trkpt lat="43.0634922" lon="13.2717165"><ele>520.3333333333333</ele><time>2026-03-22T10:55:35.001Z</time></trkpt><trkpt lat="43.0636321" lon="13.2718077"><ele>518.0</ele><time>2026-03-22T10:55:36Z</time></trkpt><trkpt lat="43.063776" lon="13.2718995"><ele>518.0</ele><time>2026-03-22T10:55:37Z</time></trkpt><trkpt lat="43.0639227" lon="13.2719921"><ele>518.0</ele><time>2026-03-22T10:55:38Z</time></trkpt><trkpt lat="43.0640685" lon="13.2720835"><ele>518.0</ele><time>2026-03-22T10:55:39.001Z</time></trkpt><trkpt lat="43.0642144" lon="13.2721748"><ele>516.3333333333333</ele><time>2026-03-22T10:55:40.001Z</time></trkpt><trkpt lat="43.0643613" lon="13.2722662"><ele>514.6666666666666</ele><time>2026-03-22T10:55:41.001Z</time></trkpt><trkpt lat="43.0645053" lon="13.2723585"><ele>513.0</ele><time>2026-03-22T10:55:42.001Z</time></trkpt><trkpt lat="43.0646506" lon="13.2724501"><ele>513.0</ele><time>2026-03-22T10:55:43.001Z</time></trkpt><trkpt lat="43.0647992" lon="13.2725418"><ele>513.0</ele><time>2026-03-22T10:55:44.001Z</time></trkpt><trkpt lat="43.0649475" lon="13.2726354"><ele>513.0</ele><time>2026-03-22T10:55:45.001Z</time></trkpt><trkpt lat="43.0650976" lon="13.2727301"><ele>511.0</ele><time>2026-03-22T10:55:46.001Z</time></trkpt><trkpt lat="43.0652502" lon="13.2728254"><ele>509.0</ele><time>2026-03-22T10:55:47Z</time></trkpt><trkpt lat="43.0654042" lon="13.2729223"><ele>507.0</ele><time>2026-03-22T10:55:48.001Z</time></trkpt><trkpt lat="43.0655595" lon="13.2730214"><ele>507.33333333333337</ele><time>2026-03-22T10:55:49Z</time></trkpt><trkpt lat="43.0657164" lon="13.2731188"><ele>507.6666666666667</ele><time>2026-03-22T10:55:50.001Z</time></trkpt><trkpt lat="43.0658747" lon="13.2732154"><ele>508.0</ele><time>2026-03-22T10:55:51.001Z</time></trkpt><trkpt lat="43.0660342" lon="13.2733157"><ele>506.33333333333337</ele><time>2026-03-22T10:55:52.001Z</time></trkpt><trkpt lat="43.0661938" lon="13.2734184"><ele>504.66666666666663</ele><time>2026-03-22T10:55:53Z</time></trkpt><trkpt lat="43.0663524" lon="13.2735212"><ele>503.0</ele><time>2026-03-22T10:55:53.999Z</time></trkpt><trkpt lat="43.0665111" lon="13.273625"><ele>502.0</ele><time>2026-03-22T10:55:55Z</time></trkpt><trkpt lat="43.0666704" lon="13.273727"><ele>501.0</ele><time>2026-03-22T10:55:56Z</time></trkpt><trkpt lat="43.0668301" lon="13.2738283"><ele>500.0</ele><time>2026-03-22T10:55:57Z</time></trkpt><trkpt lat="43.0669898" lon="13.27393"><ele>499.66666666666663</ele><time>2026-03-22T10:55:58Z</time></trkpt><trkpt lat="43.0671492" lon="13.2740318"><ele>499.33333333333337</ele><time>2026-03-22T10:55:59Z</time></trkpt><trkpt lat="43.0673087" lon="13.2741331"><ele>499.0</ele><time>2026-03-22T10:56:00.001Z</time></trkpt><trkpt lat="43.067469" lon="13.2742329"><ele>497.0</ele><time>2026-03-22T10:56:01.001Z</time></trkpt><trkpt lat="43.0676304" lon="13.2743347"><ele>495.0</ele><time>2026-03-22T10:56:02.001Z</time></trkpt><trkpt lat="43.0677924" lon="13.274438"><ele>493.0</ele><time>2026-03-22T10:56:03Z</time></trkpt><trkpt lat="43.0679544" lon="13.2745428"><ele>493.0</ele><time>2026-03-22T10:56:04.001Z</time></trkpt><trkpt lat="43.0681169" lon="13.2746497"><ele>493.0</ele><time>2026-03-22T10:56:04.999Z</time></trkpt><trkpt lat="43.0682793" lon="13.2747535"><ele>493.0</ele><time>2026-03-22T10:56:06.001Z</time></trkpt><trkpt lat="43.06844" lon="13.2748553"><ele>492.0</ele><time>2026-03-22T10:56:07.001Z</time></trkpt><trkpt lat="43.0685999" lon="13.2749577"><ele>491.0</ele><time>2026-03-22T10:56:08.001Z</time></trkpt><trkpt lat="43.0687588" lon="13.2750601"><ele>490.0</ele><time>2026-03-22T10:56:09.001Z</time></trkpt><trkpt lat="43.0689176" lon="13.2751614"><ele>490.0</ele><time>2026-03-22T10:56:10Z</time></trkpt><trkpt lat="43.0690756" lon="13.2752621"><ele>490.0</ele><time>2026-03-22T10:56:11Z</time></trkpt><trkpt lat="43.0692324" lon="13.2753619"><ele>490.0</ele><time>2026-03-22T10:56:12.001Z</time></trkpt><trkpt lat="43.0693879" lon="13.275461"><ele>488.6666666666667</ele><time>2026-03-22T10:56:13Z</time></trkpt><trkpt lat="43.0695413" lon="13.2755601"><ele>487.33333333333337</ele><time>2026-03-22T10:56:14.001Z</time></trkpt><trkpt lat="43.0696935" lon="13.2756579"><ele>486.0</ele><time>2026-03-22T10:56:15.001Z</time></trkpt><trkpt lat="43.0698465" lon="13.2757544"><ele>485.33333333333337</ele><time>2026-03-22T10:56:16.001Z</time></trkpt><trkpt lat="43.0700016" lon="13.2758522"><ele>484.6666666666667</ele><time>2026-03-22T10:56:17Z</time></trkpt><trkpt lat="43.0701577" lon="13.2759505"><ele>484.0</ele><time>2026-03-22T10:56:18Z</time></trkpt><trkpt lat="43.0703151" lon="13.2760474"><ele>484.0</ele><time>2026-03-22T10:56:19.001Z</time></trkpt><trkpt lat="43.0704724" lon="13.2761441"><ele>484.0</ele><time>2026-03-22T10:56:20Z</time></trkpt><trkpt lat="43.0706289" lon="13.2762408"><ele>484.0</ele><time>2026-03-22T10:56:21.001Z</time></trkpt><trkpt lat="43.0707842" lon="13.2763381"><ele>482.33333333333337</ele><time>2026-03-22T10:56:22Z</time></trkpt><trkpt lat="43.070939" lon="13.276439"><ele>480.66666666666663</ele><time>2026-03-22T10:56:23Z</time></trkpt><trkpt lat="43.0710905" lon="13.2765394"><ele>479.0</ele><time>2026-03-22T10:56:24Z</time></trkpt><trkpt lat="43.071239" lon="13.276634"><ele>479.0</ele><time>2026-03-22T10:56:25Z</time></trkpt><trkpt lat="43.071378" lon="13.2767205"><ele>479.0</ele><time>2026-03-22T10:56:26Z</time></trkpt><trkpt lat="43.0715077" lon="13.2768022"><ele>479.0</ele><time>2026-03-22T10:56:27Z</time></trkpt><trkpt lat="43.0716308" lon="13.2768782"><ele>479.0</ele><time>2026-03-22T10:56:28Z</time></trkpt><trkpt lat="43.0717421" lon="13.276945"><ele>478.4</ele><time>2026-03-22T10:56:29Z</time></trkpt><trkpt lat="43.0718459" lon="13.2770101"><ele>477.79999999999995</ele><time>2026-03-22T10:56:30.001Z</time></trkpt><trkpt lat="43.071933" lon="13.2770657"><ele>477.20000000000005</ele><time>2026-03-22T10:56:31.001Z</time></trkpt><trkpt lat="43.0720014" lon="13.2771083"><ele>476.6</ele><time>2026-03-22T10:56:32Z</time></trkpt><trkpt lat="43.0720841" lon="13.2771736"><ele>476.0</ele><time>2026-03-22T10:56:34.001Z</time></trkpt><trkpt lat="43.0721632" lon="13.2772635"><ele>476.0</ele><time>2026-03-22T10:56:42.999Z</time></trkpt><trkpt lat="43.0722453" lon="13.2773072"><ele>476.0</ele><time>2026-03-22T10:56:44Z</time></trkpt><trkpt lat="43.0723451" lon="13.2773478"><ele>476.0</ele><time>2026-03-22T10:56:44.999Z</time></trkpt><trkpt lat="43.072441" lon="13.2773973"><ele>476.0</ele><time>2026-03-22T10:56:46Z</time></trkpt><trkpt lat="43.0725372" lon="13.2774534"><ele>476.0</ele><time>2026-03-22T10:56:47Z</time></trkpt><trkpt lat="43.0726356" lon="13.2775129"><ele>475.0</ele><time>2026-03-22T10:56:47.999Z</time></trkpt><trkpt lat="43.0727378" lon="13.2775754"><ele>474.0</ele><time>2026-03-22T10:56:49Z</time></trkpt><trkpt lat="43.0728478" lon="13.2776464"><ele>473.0</ele><time>2026-03-22T10:56:50Z</time></trkpt><trkpt lat="43.0729613" lon="13.2777233"><ele>472.0</ele><time>2026-03-22T10:56:51Z</time></trkpt><trkpt lat="43.0730792" lon="13.2777978"><ele>472.0</ele><time>2026-03-22T10:56:51.999Z</time></trkpt><trkpt lat="43.0732024" lon="13.2778744"><ele>472.0</ele><time>2026-03-22T10:56:52.999Z</time></trkpt><trkpt lat="43.0733313" lon="13.2779535"><ele>472.0</ele><time>2026-03-22T10:56:53.999Z</time></trkpt><trkpt lat="43.0734685" lon="13.278039"><ele>472.0</ele><time>2026-03-22T10:56:54.999Z</time></trkpt><trkpt lat="43.0736102" lon="13.2781292"><ele>471.33333333333337</ele><time>2026-03-22T10:56:55.998Z</time></trkpt><trkpt lat="43.0737549" lon="13.2782196"><ele>470.66666666666663</ele><time>2026-03-22T10:56:56.999Z</time></trkpt><trkpt lat="43.0739083" lon="13.2783158"><ele>470.0</ele><time>2026-03-22T10:56:58Z</time></trkpt><trkpt lat="43.0740654" lon="13.2784141"><ele>470.3333333333333</ele><time>2026-03-22T10:56:59Z</time></trkpt><trkpt lat="43.0742154" lon="13.278507"><ele>470.66666666666663</ele><time>2026-03-22T10:56:59.999Z</time></trkpt><trkpt lat="43.0743583" lon="13.2785998"><ele>471.0</ele><time>2026-03-22T10:57:00.999Z</time></trkpt><trkpt lat="43.0744965" lon="13.2786926"><ele>471.0</ele><time>2026-03-22T10:57:02Z</time></trkpt><trkpt lat="43.0746284" lon="13.2787798"><ele>471.0</ele><time>2026-03-22T10:57:03Z</time></trkpt><trkpt lat="43.0747537" lon="13.2788629"><ele>471.0</ele><time>2026-03-22T10:57:03.999Z</time></trkpt><trkpt lat="43.0748749" lon="13.2789419"><ele>471.0</ele><time>2026-03-22T10:57:05Z</time></trkpt><trkpt lat="43.0749958" lon="13.2790182"><ele>470.5</ele><time>2026-03-22T10:57:06Z</time></trkpt><trkpt lat="43.0751161" lon="13.2790951"><ele>470.0</ele><time>2026-03-22T10:57:07Z</time></trkpt><trkpt lat="43.0752366" lon="13.2791722"><ele>469.5</ele><time>2026-03-22T10:57:07.999Z</time></trkpt><trkpt lat="43.0753609" lon="13.2792497"><ele>469.0</ele><time>2026-03-22T10:57:08.999Z</time></trkpt><trkpt lat="43.0754874" lon="13.2793279"><ele>469.0</ele><time>2026-03-22T10:57:10Z</time></trkpt><trkpt lat="43.0756127" lon="13.2794064"><ele>469.0</ele><time>2026-03-22T10:57:11Z</time></trkpt><trkpt lat="43.0757364" lon="13.2794826"><ele>469.0</ele><time>2026-03-22T10:57:12Z</time></trkpt><trkpt lat="43.075855" lon="13.2795564"><ele>469.0</ele><time>2026-03-22T10:57:13Z</time></trkpt><trkpt lat="43.0759681" lon="13.2796267"><ele>468.4</ele><time>2026-03-22T10:57:13.999Z</time></trkpt><trkpt lat="43.0760694" lon="13.2796883"><ele>467.79999999999995</ele><time>2026-03-22T10:57:14.999Z</time></trkpt><trkpt lat="43.0761576" lon="13.2797419"><ele>467.20000000000005</ele><time>2026-03-22T10:57:16Z</time></trkpt><trkpt lat="43.0762337" lon="13.2797859"><ele>466.6</ele><time>2026-03-22T10:57:16.999Z</time></trkpt><trkpt lat="43.0763062" lon="13.2798064"><ele>466.0</ele><time>2026-03-22T10:57:18Z</time></trkpt><trkpt lat="43.0764144" lon="13.2797212"><ele>466.0</ele><time>2026-03-22T10:57:19.999Z</time></trkpt><trkpt lat="43.0764592" lon="13.2796211"><ele>466.0</ele><time>2026-03-22T10:57:20.999Z</time></trkpt><trkpt lat="43.0765117" lon="13.2794935"><ele>466.0</ele><time>2026-03-22T10:57:21.999Z</time></trkpt><trkpt lat="43.0765961" lon="13.2793591"><ele>466.0</ele><time>2026-03-22T10:57:22.999Z</time></trkpt><trkpt lat="43.0767015" lon="13.2792118"><ele>466.25</ele><time>2026-03-22T10:57:24Z</time></trkpt><trkpt lat="43.0768058" lon="13.2790547"><ele>466.5</ele><time>2026-03-22T10:57:25Z</time></trkpt><trkpt lat="43.0769074" lon="13.2789028"><ele>466.75</ele><time>2026-03-22T10:57:26Z</time></trkpt><trkpt lat="43.077004" lon="13.278763"><ele>467.0</ele><time>2026-03-22T10:57:27Z</time></trkpt><trkpt lat="43.0770992" lon="13.2786246"><ele>467.0</ele><time>2026-03-22T10:57:27.999Z</time></trkpt><trkpt lat="43.0771938" lon="13.2784851"><ele>467.0</ele><time>2026-03-22T10:57:28.999Z</time></trkpt><trkpt lat="43.0772872" lon="13.2783422"><ele>467.0</ele><time>2026-03-22T10:57:29.999Z</time></trkpt><trkpt lat="43.0773798" lon="13.2781988"><ele>467.0</ele><time>2026-03-22T10:57:30.999Z</time></trkpt><trkpt lat="43.0774765" lon="13.278054"><ele>467.0</ele><time>2026-03-22T10:57:31.999Z</time></trkpt><trkpt lat="43.0775739" lon="13.2779067"><ele>467.0</ele><time>2026-03-22T10:57:32.999Z</time></trkpt><trkpt lat="43.0776742" lon="13.2777564"><ele>467.0</ele><time>2026-03-22T10:57:33.999Z</time></trkpt><trkpt lat="43.077781" lon="13.2776007"><ele>467.0</ele><time>2026-03-22T10:57:35Z</time></trkpt><trkpt lat="43.0778916" lon="13.2774402"><ele>467.0</ele><time>2026-03-22T10:57:35.999Z</time></trkpt><trkpt lat="43.0780012" lon="13.27728"><ele>467.0</ele><time>2026-03-22T10:57:36.999Z</time></trkpt><trkpt lat="43.0781104" lon="13.2771181"><ele>467.0</ele><time>2026-03-22T10:57:37.999Z</time></trkpt><trkpt lat="43.0782197" lon="13.2769537"><ele>467.0</ele><time>2026-03-22T10:57:39Z</time></trkpt><trkpt lat="43.0783281" lon="13.2767898"><ele>467.0</ele><time>2026-03-22T10:57:40Z</time></trkpt><trkpt lat="43.0784374" lon="13.2766252"><ele>467.0</ele><time>2026-03-22T10:57:41Z</time></trkpt><trkpt lat="43.0785462" lon="13.2764614"><ele>467.0</ele><time>2026-03-22T10:57:42Z</time></trkpt><trkpt lat="43.0786546" lon="13.276301"><ele>467.0</ele><time>2026-03-22T10:57:43Z</time></trkpt><trkpt lat="43.0787621" lon="13.276139"><ele>467.3333333333333</ele><time>2026-03-22T10:57:44Z</time></trkpt><trkpt lat="43.0788707" lon="13.2759771"><ele>467.66666666666663</ele><time>2026-03-22T10:57:45Z</time></trkpt><trkpt lat="43.0789808" lon="13.2758133"><ele>468.0</ele><time>2026-03-22T10:57:46Z</time></trkpt><trkpt lat="43.0790919" lon="13.2756481"><ele>469.66666666666663</ele><time>2026-03-22T10:57:46.999Z</time></trkpt><trkpt lat="43.0792042" lon="13.275484"><ele>471.3333333333333</ele><time>2026-03-22T10:57:47.999Z</time></trkpt><trkpt lat="43.0793165" lon="13.2753206"><ele>473.0</ele><time>2026-03-22T10:57:49Z</time></trkpt><trkpt lat="43.0794275" lon="13.2751571"><ele>473.0</ele><time>2026-03-22T10:57:50Z</time></trkpt><trkpt lat="43.0795363" lon="13.2749942"><ele>473.0</ele><time>2026-03-22T10:57:50.999Z</time></trkpt><trkpt lat="43.0796445" lon="13.2748333"><ele>473.0</ele><time>2026-03-22T10:57:52Z</time></trkpt><trkpt lat="43.0797518" lon="13.2746736"><ele>473.0</ele><time>2026-03-22T10:57:53Z</time></trkpt><trkpt lat="43.0798584" lon="13.2745144"><ele>473.0</ele><time>2026-03-22T10:57:54Z</time></trkpt><trkpt lat="43.079966" lon="13.274354"><ele>473.0</ele><time>2026-03-22T10:57:55Z</time></trkpt><trkpt lat="43.0800725" lon="13.2741925"><ele>474.0</ele><time>2026-03-22T10:57:56Z</time></trkpt><trkpt lat="43.0801805" lon="13.2740318"><ele>475.0</ele><time>2026-03-22T10:57:56.999Z</time></trkpt><trkpt lat="43.0802883" lon="13.2738709"><ele>476.0</ele><time>2026-03-22T10:57:57.999Z</time></trkpt><trkpt lat="43.0803955" lon="13.2737086"><ele>476.3333333333333</ele><time>2026-03-22T10:57:59Z</time></trkpt><trkpt lat="43.0805036" lon="13.2735457"><ele>476.66666666666663</ele><time>2026-03-22T10:58:00Z</time></trkpt><trkpt lat="43.0806175" lon="13.2733876"><ele>477.0</ele><time>2026-03-22T10:58:01Z</time></trkpt><trkpt lat="43.080743" lon="13.2732419"><ele>477.33333333333337</ele><time>2026-03-22T10:58:02Z</time></trkpt><trkpt lat="43.0808867" lon="13.273117"><ele>477.6666666666667</ele><time>2026-03-22T10:58:03Z</time></trkpt><trkpt lat="43.081043" lon="13.2730241"><ele>478.0</ele><time>2026-03-22T10:58:03.999Z</time></trkpt><trkpt lat="43.0812053" lon="13.2729692"><ele>478.0</ele><time>2026-03-22T10:58:04.999Z</time></trkpt><trkpt lat="43.0813592" lon="13.2729508"><ele>478.0</ele><time>2026-03-22T10:58:05.999Z</time></trkpt><trkpt lat="43.0815113" lon="13.2729573"><ele>478.0</ele><time>2026-03-22T10:58:06.999Z</time></trkpt><trkpt lat="43.081662" lon="13.2729987"><ele>478.6666666666667</ele><time>2026-03-22T10:58:08Z</time></trkpt><trkpt lat="43.0818083" lon="13.2730776"><ele>479.33333333333337</ele><time>2026-03-22T10:58:09Z</time></trkpt><trkpt lat="43.0819485" lon="13.2731731"><ele>480.0</ele><time>2026-03-22T10:58:10Z</time></trkpt><trkpt lat="43.0820887" lon="13.2732632"><ele>480.33333333333337</ele><time>2026-03-22T10:58:11Z</time></trkpt><trkpt lat="43.0822316" lon="13.273355"><ele>480.6666666666667</ele><time>2026-03-22T10:58:12Z</time></trkpt><trkpt lat="43.082378" lon="13.2734427"><ele>481.0</ele><time>2026-03-22T10:58:13Z</time></trkpt><trkpt lat="43.0825249" lon="13.2735295"><ele>479.0</ele><time>2026-03-22T10:58:14Z</time></trkpt><trkpt lat="43.0826729" lon="13.2736181"><ele>477.0</ele><time>2026-03-22T10:58:15Z</time></trkpt><trkpt lat="43.0828195" lon="13.273707"><ele>475.0</ele><time>2026-03-22T10:58:15.999Z</time></trkpt><trkpt lat="43.0829674" lon="13.2738003"><ele>475.0</ele><time>2026-03-22T10:58:16.999Z</time></trkpt><trkpt lat="43.0831198" lon="13.2738924"><ele>475.0</ele><time>2026-03-22T10:58:17.999Z</time></trkpt><trkpt lat="43.0832751" lon="13.2739724"><ele>475.0</ele><time>2026-03-22T10:58:18.998Z</time></trkpt><trkpt lat="43.0834365" lon="13.2740248"><ele>477.33333333333337</ele><time>2026-03-22T10:58:20Z</time></trkpt><trkpt lat="43.0836021" lon="13.274041"><ele>479.66666666666663</ele><time>2026-03-22T10:58:21Z</time></trkpt><trkpt lat="43.0837694" lon="13.2740221"><ele>482.0</ele><time>2026-03-22T10:58:21.999Z</time></trkpt><trkpt lat="43.0839315" lon="13.2739667"><ele>475.66666666666663</ele><time>2026-03-22T10:58:22.999Z</time></trkpt><trkpt lat="43.0840798" lon="13.2738849"><ele>469.33333333333337</ele><time>2026-03-22T10:58:23.999Z</time></trkpt><trkpt lat="43.0842273" lon="13.273808"><ele>463.0</ele><time>2026-03-22T10:58:24.999Z</time></trkpt><trkpt lat="43.0843871" lon="13.2737489"><ele>461.0</ele><time>2026-03-22T10:58:25.999Z</time></trkpt><trkpt lat="43.0845588" lon="13.2737194"><ele>459.0</ele><time>2026-03-22T10:58:27Z</time></trkpt><trkpt lat="43.0847358" lon="13.2737407"><ele>457.0</ele><time>2026-03-22T10:58:28Z</time></trkpt><trkpt lat="43.0849045" lon="13.2737996"><ele>455.33333333333337</ele><time>2026-03-22T10:58:29Z</time></trkpt><trkpt lat="43.0850647" lon="13.2738721"><ele>453.66666666666663</ele><time>2026-03-22T10:58:29.999Z</time></trkpt><trkpt lat="43.0852299" lon="13.2739445"><ele>452.0</ele><time>2026-03-22T10:58:31Z</time></trkpt><trkpt lat="43.0853925" lon="13.2740174"><ele>454.3333333333333</ele><time>2026-03-22T10:58:31.999Z</time></trkpt><trkpt lat="43.0855537" lon="13.274093"><ele>456.66666666666663</ele><time>2026-03-22T10:58:32.999Z</time></trkpt><trkpt lat="43.085714" lon="13.2741682"><ele>459.0</ele><time>2026-03-22T10:58:33.999Z</time></trkpt><trkpt lat="43.0858698" lon="13.2742389"><ele>459.0</ele><time>2026-03-22T10:58:35Z</time></trkpt><trkpt lat="43.0860213" lon="13.2742994"><ele>459.0</ele><time>2026-03-22T10:58:36Z</time></trkpt><trkpt lat="43.086176" lon="13.274345"><ele>459.0</ele><time>2026-03-22T10:58:37Z</time></trkpt><trkpt lat="43.0863339" lon="13.2743564"><ele>459.0</ele><time>2026-03-22T10:58:37.999Z</time></trkpt><trkpt lat="43.086488" lon="13.2743368"><ele>459.0</ele><time>2026-03-22T10:58:39Z</time></trkpt><trkpt lat="43.086637" lon="13.274319"><ele>459.0</ele><time>2026-03-22T10:58:39.999Z</time></trkpt><trkpt lat="43.0867839" lon="13.2743238"><ele>457.33333333333337</ele><time>2026-03-22T10:58:41Z</time></trkpt><trkpt lat="43.0869329" lon="13.2743792"><ele>455.6666666666667</ele><time>2026-03-22T10:58:42Z</time></trkpt><trkpt lat="43.0870694" lon="13.274478"><ele>454.0</ele><time>2026-03-22T10:58:43Z</time></trkpt><trkpt lat="43.0871886" lon="13.2746012"><ele>454.0</ele><time>2026-03-22T10:58:43.999Z</time></trkpt><trkpt lat="43.0873057" lon="13.2747252"><ele>454.0</ele><time>2026-03-22T10:58:44.999Z</time></trkpt><trkpt lat="43.0874282" lon="13.2748429"><ele>454.0</ele><time>2026-03-22T10:58:45.999Z</time></trkpt><trkpt lat="43.0875503" lon="13.2749512"><ele>454.0</ele><time>2026-03-22T10:58:47Z</time></trkpt><trkpt lat="43.0876734" lon="13.2750362"><ele>458.6666666666667</ele><time>2026-03-22T10:58:47.998Z</time></trkpt><trkpt lat="43.0878051" lon="13.2751111"><ele>463.33333333333337</ele><time>2026-03-22T10:58:49Z</time></trkpt><trkpt lat="43.0879528" lon="13.2750584"><ele>468.0</ele><time>2026-03-22T10:58:49.999Z</time></trkpt><trkpt lat="43.0881065" lon="13.2750347"><ele>468.0</ele><time>2026-03-22T10:58:51Z</time></trkpt><trkpt lat="43.0882389" lon="13.2749412"><ele>468.0</ele><time>2026-03-22T10:58:51.999Z</time></trkpt><trkpt lat="43.088365" lon="13.2748144"><ele>468.0</ele><time>2026-03-22T10:58:52.999Z</time></trkpt><trkpt lat="43.0884936" lon="13.2746735"><ele>457.66666666666663</ele><time>2026-03-22T10:58:53.999Z</time></trkpt><trkpt lat="43.0885931" lon="13.2745134"><ele>447.3333333333333</ele><time>2026-03-22T10:58:55Z</time></trkpt><trkpt lat="43.0887121" lon="13.2743786"><ele>437.0</ele><time>2026-03-22T10:58:56Z</time></trkpt><trkpt lat="43.0888422" lon="13.2742736"><ele>437.0</ele><time>2026-03-22T10:58:56.999Z</time></trkpt><trkpt lat="43.0889875" lon="13.2742102"><ele>437.0</ele><time>2026-03-22T10:58:58Z</time></trkpt><trkpt lat="43.0891333" lon="13.2742022"><ele>437.0</ele><time>2026-03-22T10:58:59Z</time></trkpt><trkpt lat="43.0892757" lon="13.2742522"><ele>437.0</ele><time>2026-03-22T10:59:00Z</time></trkpt><trkpt lat="43.0894027" lon="13.2743356"><ele>438.5</ele><time>2026-03-22T10:59:00.999Z</time></trkpt><trkpt lat="43.0895211" lon="13.2744126"><ele>440.0</ele><time>2026-03-22T10:59:02Z</time></trkpt><trkpt lat="43.0896432" lon="13.2744418"><ele>441.5</ele><time>2026-03-22T10:59:03Z</time></trkpt><trkpt lat="43.0897615" lon="13.2744195"><ele>443.0</ele><time>2026-03-22T10:59:04Z</time></trkpt><trkpt lat="43.0898653" lon="13.2743492"><ele>442.75</ele><time>2026-03-22T10:59:04.999Z</time></trkpt><trkpt lat="43.0899557" lon="13.2742352"><ele>442.5</ele><time>2026-03-22T10:59:06Z</time></trkpt><trkpt lat="43.0900422" lon="13.2741073"><ele>442.25</ele><time>2026-03-22T10:59:07Z</time></trkpt><trkpt lat="43.0901331" lon="13.2739929"><ele>442.0</ele><time>2026-03-22T10:59:08Z</time></trkpt><trkpt lat="43.090243" lon="13.2739014"><ele>438.5</ele><time>2026-03-22T10:59:09Z</time></trkpt><trkpt lat="43.0903659" lon="13.2738297"><ele>435.0</ele><time>2026-03-22T10:59:09.999Z</time></trkpt><trkpt lat="43.0904958" lon="13.2737725"><ele>431.5</ele><time>2026-03-22T10:59:10.998Z</time></trkpt><trkpt lat="43.0906356" lon="13.2737327"><ele>428.0</ele><time>2026-03-22T10:59:11.999Z</time></trkpt><trkpt lat="43.090782" lon="13.2737098"><ele>428.0</ele><time>2026-03-22T10:59:13Z</time></trkpt><trkpt lat="43.0909331" lon="13.2737095"><ele>428.0</ele><time>2026-03-22T10:59:14Z</time></trkpt><trkpt lat="43.0910815" lon="13.2737231"><ele>428.0</ele><time>2026-03-22T10:59:15Z</time></trkpt><trkpt lat="43.0912269" lon="13.2737405"><ele>428.0</ele><time>2026-03-22T10:59:16Z</time></trkpt><trkpt lat="43.0913668" lon="13.2737594"><ele>428.0</ele><time>2026-03-22T10:59:17Z</time></trkpt><trkpt lat="43.0915009" lon="13.2737812"><ele>428.0</ele><time>2026-03-22T10:59:18Z</time></trkpt><trkpt lat="43.0916311" lon="13.2738046"><ele>428.0</ele><time>2026-03-22T10:59:19Z</time></trkpt><trkpt lat="43.09175" lon="13.2738039"><ele>428.0</ele><time>2026-03-22T10:59:20Z</time></trkpt><trkpt lat="43.0918608" lon="13.2737708"><ele>427.5</ele><time>2026-03-22T10:59:20.999Z</time></trkpt><trkpt lat="43.0919608" lon="13.2736936"><ele>427.0</ele><time>2026-03-22T10:59:21.998Z</time></trkpt><trkpt lat="43.092042" lon="13.2735817"><ele>426.5</ele><time>2026-03-22T10:59:23Z</time></trkpt><trkpt lat="43.0921167" lon="13.2734686"><ele>426.0</ele><time>2026-03-22T10:59:24Z</time></trkpt><trkpt lat="43.0921847" lon="13.2733454"><ele>426.0</ele><time>2026-03-22T10:59:25Z</time></trkpt><trkpt lat="43.0922619" lon="13.2732276"><ele>426.0</ele><time>2026-03-22T10:59:25.998Z</time></trkpt><trkpt lat="43.092342" lon="13.2731033"><ele>426.0</ele><time>2026-03-22T10:59:27Z</time></trkpt><trkpt lat="43.09243" lon="13.2729887"><ele>426.0</ele><time>2026-03-22T10:59:28Z</time></trkpt><trkpt lat="43.0925332" lon="13.2728974"><ele>424.0</ele><time>2026-03-22T10:59:29Z</time></trkpt><trkpt lat="43.0926573" lon="13.2728494"><ele>422.0</ele><time>2026-03-22T10:59:29.999Z</time></trkpt><trkpt lat="43.0927858" lon="13.2728364"><ele>420.0</ele><time>2026-03-22T10:59:31Z</time></trkpt><trkpt lat="43.0929171" lon="13.2728382"><ele>418.0</ele><time>2026-03-22T10:59:32Z</time></trkpt><trkpt lat="43.0930556" lon="13.2728406"><ele>418.0</ele><time>2026-03-22T10:59:33Z</time></trkpt><trkpt lat="43.0931976" lon="13.2728458"><ele>418.0</ele><time>2026-03-22T10:59:34Z</time></trkpt><trkpt lat="43.0933448" lon="13.272852"><ele>418.0</ele><time>2026-03-22T10:59:35Z</time></trkpt><trkpt lat="43.0934973" lon="13.2728576"><ele>418.0</ele><time>2026-03-22T10:59:36Z</time></trkpt><trkpt lat="43.093655" lon="13.2728561"><ele>417.6666666666667</ele><time>2026-03-22T10:59:37Z</time></trkpt><trkpt lat="43.0938201" lon="13.2728457"><ele>417.33333333333337</ele><time>2026-03-22T10:59:37.999Z</time></trkpt><trkpt lat="43.093988" lon="13.2728253"><ele>417.0</ele><time>2026-03-22T10:59:38.999Z</time></trkpt><trkpt lat="43.0941479" lon="13.2727932"><ele>415.66666666666663</ele><time>2026-03-22T10:59:40Z</time></trkpt><trkpt lat="43.0943017" lon="13.2727593"><ele>414.3333333333333</ele><time>2026-03-22T10:59:41Z</time></trkpt><trkpt lat="43.0944521" lon="13.272722"><ele>413.0</ele><time>2026-03-22T10:59:42Z</time></trkpt><trkpt lat="43.0945989" lon="13.2726946"><ele>413.0</ele><time>2026-03-22T10:59:42.998Z</time></trkpt><trkpt lat="43.0947454" lon="13.2726848"><ele>413.0</ele><time>2026-03-22T10:59:44Z</time></trkpt><trkpt lat="43.0948926" lon="13.2726934"><ele>413.0</ele><time>2026-03-22T10:59:45Z</time></trkpt><trkpt lat="43.0950391" lon="13.2727091"><ele>413.0</ele><time>2026-03-22T10:59:46Z</time></trkpt><trkpt lat="43.095186" lon="13.2727186"><ele>413.25</ele><time>2026-03-22T10:59:47Z</time></trkpt><trkpt lat="43.0953281" lon="13.272709"><ele>413.5</ele><time>2026-03-22T10:59:48Z</time></trkpt><trkpt lat="43.0954676" lon="13.272667"><ele>413.75</ele><time>2026-03-22T10:59:48.999Z</time></trkpt><trkpt lat="43.0956067" lon="13.2726063"><ele>414.0</ele><time>2026-03-22T10:59:49.999Z</time></trkpt><trkpt lat="43.095731" lon="13.2724927"><ele>414.75</ele><time>2026-03-22T10:59:51Z</time></trkpt><trkpt lat="43.0958582" lon="13.2723966"><ele>415.5</ele><time>2026-03-22T10:59:51.999Z</time></trkpt><trkpt lat="43.0959857" lon="13.2723056"><ele>416.25</ele><time>2026-03-22T10:59:53Z</time></trkpt><trkpt lat="43.096118" lon="13.2722299"><ele>417.0</ele><time>2026-03-22T10:59:53.999Z</time></trkpt><trkpt lat="43.0962545" lon="13.2721774"><ele>413.25</ele><time>2026-03-22T10:59:54.999Z</time></trkpt><trkpt lat="43.0963877" lon="13.2721376"><ele>409.5</ele><time>2026-03-22T10:59:55.999Z</time></trkpt><trkpt lat="43.0965177" lon="13.2721065"><ele>405.75</ele><time>2026-03-22T10:59:57Z</time></trkpt><trkpt lat="43.0966451" lon="13.2720808"><ele>402.0</ele><time>2026-03-22T10:59:58Z</time></trkpt><trkpt lat="43.0967749" lon="13.2720586"><ele>402.0</ele><time>2026-03-22T10:59:59Z</time></trkpt><trkpt lat="43.0969042" lon="13.2720243"><ele>402.0</ele><time>2026-03-22T10:59:59.999Z</time></trkpt><trkpt lat="43.09703" lon="13.2719482"><ele>402.0</ele><time>2026-03-22T11:00:00.999Z</time></trkpt><trkpt lat="43.0971442" lon="13.2718305"><ele>402.0</ele><time>2026-03-22T11:00:01.999Z</time></trkpt><trkpt lat="43.097242" lon="13.2717024"><ele>402.0</ele><time>2026-03-22T11:00:03Z</time></trkpt><trkpt lat="43.0973337" lon="13.2715774"><ele>402.0</ele><time>2026-03-22T11:00:04Z</time></trkpt><trkpt lat="43.0974241" lon="13.2714571"><ele>402.0</ele><time>2026-03-22T11:00:04.999Z</time></trkpt><trkpt lat="43.0975259" lon="13.2713534"><ele>402.0</ele><time>2026-03-22T11:00:05.999Z</time></trkpt><trkpt lat="43.0976462" lon="13.271287"><ele>401.0</ele><time>2026-03-22T11:00:07Z</time></trkpt><trkpt lat="43.0977805" lon="13.2712655"><ele>400.0</ele><time>2026-03-22T11:00:08Z</time></trkpt><trkpt lat="43.0979152" lon="13.2712813"><ele>399.0</ele><time>2026-03-22T11:00:08.999Z</time></trkpt><trkpt lat="43.0980483" lon="13.2713122"><ele>398.0</ele><time>2026-03-22T11:00:10Z</time></trkpt><trkpt lat="43.0981787" lon="13.2713512"><ele>398.5</ele><time>2026-03-22T11:00:11Z</time></trkpt><trkpt lat="43.0983048" lon="13.2713904"><ele>399.0</ele><time>2026-03-22T11:00:11.999Z</time></trkpt><trkpt lat="43.0984341" lon="13.2714323"><ele>399.5</ele><time>2026-03-22T11:00:13Z</time></trkpt><trkpt lat="43.0985691" lon="13.2714678"><ele>400.0</ele><time>2026-03-22T11:00:14Z</time></trkpt><trkpt lat="43.0987082" lon="13.2714761"><ele>400.0</ele><time>2026-03-22T11:00:15Z</time></trkpt><trkpt lat="43.0988458" lon="13.2714524"><ele>400.0</ele><time>2026-03-22T11:00:15.999Z</time></trkpt><trkpt lat="43.0989812" lon="13.2713987"><ele>400.0</ele><time>2026-03-22T11:00:16.999Z</time></trkpt><trkpt lat="43.0991154" lon="13.2713258"><ele>400.0</ele><time>2026-03-22T11:00:18Z</time></trkpt><trkpt lat="43.0992514" lon="13.2712438"><ele>398.0</ele><time>2026-03-22T11:00:19Z</time></trkpt><trkpt lat="43.0993914" lon="13.2711602"><ele>396.0</ele><time>2026-03-22T11:00:20Z</time></trkpt><trkpt lat="43.0995319" lon="13.2710738"><ele>394.0</ele><time>2026-03-22T11:00:20.999Z</time></trkpt><trkpt lat="43.0996724" lon="13.2709893"><ele>394.0</ele><time>2026-03-22T11:00:22Z</time></trkpt><trkpt lat="43.0998141" lon="13.2709041"><ele>394.0</ele><time>2026-03-22T11:00:23Z</time></trkpt><trkpt lat="43.099957" lon="13.2708173"><ele>394.0</ele><time>2026-03-22T11:00:24Z</time></trkpt><trkpt lat="43.1001009" lon="13.2707297"><ele>395.6666666666667</ele><time>2026-03-22T11:00:24.999Z</time></trkpt><trkpt lat="43.1002445" lon="13.2706434"><ele>397.33333333333337</ele><time>2026-03-22T11:00:26Z</time></trkpt><trkpt lat="43.1003834" lon="13.2705605"><ele>399.0</ele><time>2026-03-22T11:00:27Z</time></trkpt><trkpt lat="43.1005179" lon="13.2704806"><ele>396.75</ele><time>2026-03-22T11:00:27.999Z</time></trkpt><trkpt lat="43.100652" lon="13.2704012"><ele>394.5</ele><time>2026-03-22T11:00:29Z</time></trkpt><trkpt lat="43.1007901" lon="13.2703176"><ele>392.25</ele><time>2026-03-22T11:00:29.999Z</time></trkpt><trkpt lat="43.1009279" lon="13.2702346"><ele>390.0</ele><time>2026-03-22T11:00:30.999Z</time></trkpt><trkpt lat="43.1010508" lon="13.2701613"><ele>390.0</ele><time>2026-03-22T11:00:31.999Z</time></trkpt><trkpt lat="43.1011476" lon="13.2701021"><ele>390.0</ele><time>2026-03-22T11:00:32.999Z</time></trkpt><trkpt lat="43.1012309" lon="13.2700482"><ele>390.0</ele><time>2026-03-22T11:00:33.999Z</time></trkpt><trkpt lat="43.1012958" lon="13.2699967"><ele>390.0</ele><time>2026-03-22T11:00:35Z</time></trkpt><trkpt lat="43.101338" lon="13.2699248"><ele>390.0</ele><time>2026-03-22T11:00:36Z</time></trkpt><trkpt lat="43.1013535" lon="13.269832"><ele>390.0</ele><time>2026-03-22T11:00:36.999Z</time></trkpt><trkpt lat="43.1013463" lon="13.26972"><ele>389.0</ele><time>2026-03-22T11:00:37.999Z</time></trkpt><trkpt lat="43.1013342" lon="13.2695953"><ele>388.0</ele><time>2026-03-22T11:00:38.999Z</time></trkpt><trkpt lat="43.1013173" lon="13.2694739"><ele>387.0</ele><time>2026-03-22T11:00:39.999Z</time></trkpt><trkpt lat="43.1012886" lon="13.2693592"><ele>386.0</ele><time>2026-03-22T11:00:40.999Z</time></trkpt><trkpt lat="43.1012391" lon="13.2692467"><ele>385.0</ele><time>2026-03-22T11:00:41.999Z</time></trkpt><trkpt lat="43.1011605" lon="13.2691305"><ele>385.0</ele><time>2026-03-22T11:00:42.999Z</time></trkpt><trkpt lat="43.101063" lon="13.269016"><ele>385.0</ele><time>2026-03-22T11:00:44Z</time></trkpt><trkpt lat="43.1009576" lon="13.2688955"><ele>385.0</ele><time>2026-03-22T11:00:44.999Z</time></trkpt><trkpt lat="43.1008567" lon="13.2687825"><ele>385.0</ele><time>2026-03-22T11:00:45.999Z</time></trkpt><trkpt lat="43.100764" lon="13.2686901"><ele>382.8</ele><time>2026-03-22T11:00:46.999Z</time></trkpt><trkpt lat="43.1006658" lon="13.2686496"><ele>380.6</ele><time>2026-03-22T11:00:48Z</time></trkpt><trkpt lat="43.1005715" lon="13.2686658"><ele>378.4</ele><time>2026-03-22T11:00:48.999Z</time></trkpt><trkpt lat="43.1004809" lon="13.2687464"><ele>376.2</ele><time>2026-03-22T11:00:50Z</time></trkpt><trkpt lat="43.1003915" lon="13.2688679"><ele>374.0</ele><time>2026-03-22T11:00:50.999Z</time></trkpt><trkpt lat="43.1002892" lon="13.2689887"><ele>374.0</ele><time>2026-03-22T11:00:51.999Z</time></trkpt><trkpt lat="43.1001774" lon="13.269093"><ele>374.0</ele><time>2026-03-22T11:00:53Z</time></trkpt><trkpt lat="43.1000674" lon="13.2691959"><ele>374.0</ele><time>2026-03-22T11:00:54Z</time></trkpt><trkpt lat="43.0999747" lon="13.269301"><ele>374.0</ele><time>2026-03-22T11:00:54.999Z</time></trkpt><trkpt lat="43.0998974" lon="13.2694049"><ele>372.33333333333337</ele><time>2026-03-22T11:00:55.999Z</time></trkpt><trkpt lat="43.0998317" lon="13.2695012"><ele>370.6666666666667</ele><time>2026-03-22T11:00:57Z</time></trkpt><trkpt lat="43.0997688" lon="13.2695857"><ele>369.0</ele><time>2026-03-22T11:00:58Z</time></trkpt><trkpt lat="43.0997019" lon="13.2696331"><ele>367.3333333333333</ele><time>2026-03-22T11:00:59Z</time></trkpt><trkpt lat="43.0996365" lon="13.2696365"><ele>365.66666666666663</ele><time>2026-03-22T11:01:00Z</time></trkpt><trkpt lat="43.0995966" lon="13.2694994"><ele>364.0</ele><time>2026-03-22T11:01:01.999Z</time></trkpt><trkpt lat="43.0996354" lon="13.2694051"><ele>364.0</ele><time>2026-03-22T11:01:03Z</time></trkpt><trkpt lat="43.099701" lon="13.2692951"><ele>364.0</ele><time>2026-03-22T11:01:03.999Z</time></trkpt><trkpt lat="43.099782" lon="13.2691826"><ele>364.0</ele><time>2026-03-22T11:01:05Z</time></trkpt><trkpt lat="43.0998587" lon="13.2690461"><ele>364.0</ele><time>2026-03-22T11:01:06Z</time></trkpt><trkpt lat="43.099909" lon="13.2688781"><ele>364.0</ele><time>2026-03-22T11:01:06.998Z</time></trkpt><trkpt lat="43.0999364" lon="13.2686857"><ele>364.0</ele><time>2026-03-22T11:01:07.999Z</time></trkpt><trkpt lat="43.099943" lon="13.2684875"><ele>364.0</ele><time>2026-03-22T11:01:08.999Z</time></trkpt><trkpt lat="43.0999576" lon="13.2682981"><ele>364.0</ele><time>2026-03-22T11:01:09.999Z</time></trkpt><trkpt lat="43.0999773" lon="13.268111"><ele>362.75</ele><time>2026-03-22T11:01:11Z</time></trkpt><trkpt lat="43.1000106" lon="13.2679249"><ele>361.5</ele><time>2026-03-22T11:01:11.999Z</time></trkpt><trkpt lat="43.1000467" lon="13.2677419"><ele>360.25</ele><time>2026-03-22T11:01:13Z</time></trkpt><trkpt lat="43.1001012" lon="13.2675714"><ele>359.0</ele><time>2026-03-22T11:01:14Z</time></trkpt><trkpt lat="43.1001798" lon="13.2674029"><ele>359.0</ele><time>2026-03-22T11:01:14.999Z</time></trkpt><trkpt lat="43.1002816" lon="13.2672414"><ele>359.0</ele><time>2026-03-22T11:01:15.999Z</time></trkpt><trkpt lat="43.1003858" lon="13.2670804"><ele>359.0</ele><time>2026-03-22T11:01:16.999Z</time></trkpt><trkpt lat="43.100483" lon="13.2669164"><ele>359.0</ele><time>2026-03-22T11:01:18Z</time></trkpt><trkpt lat="43.1005724" lon="13.2667487"><ele>359.0</ele><time>2026-03-22T11:01:18.999Z</time></trkpt><trkpt lat="43.1006597" lon="13.2665835"><ele>359.0</ele><time>2026-03-22T11:01:20Z</time></trkpt><trkpt lat="43.1007372" lon="13.2664131"><ele>359.0</ele><time>2026-03-22T11:01:21Z</time></trkpt><trkpt lat="43.1008046" lon="13.2662473"><ele>360.75</ele><time>2026-03-22T11:01:21.999Z</time></trkpt><trkpt lat="43.1008617" lon="13.2660841"><ele>362.5</ele><time>2026-03-22T11:01:23Z</time></trkpt><trkpt lat="43.1009004" lon="13.2659209"><ele>364.25</ele><time>2026-03-22T11:01:24Z</time></trkpt><trkpt lat="43.100925" lon="13.2657723"><ele>366.0</ele><time>2026-03-22T11:01:24.998Z</time></trkpt><trkpt lat="43.1009483" lon="13.2656372"><ele>366.0</ele><time>2026-03-22T11:01:26Z</time></trkpt><trkpt lat="43.1009863" lon="13.2655268"><ele>366.0</ele><time>2026-03-22T11:01:27Z</time></trkpt><trkpt lat="43.1010484" lon="13.2654622"><ele>366.0</ele><time>2026-03-22T11:01:28Z</time></trkpt><trkpt lat="43.1011255" lon="13.2654558"><ele>366.0</ele><time>2026-03-22T11:01:28.999Z</time></trkpt><trkpt lat="43.1012062" lon="13.2655003"><ele>366.0</ele><time>2026-03-22T11:01:29.999Z</time></trkpt><trkpt lat="43.1012903" lon="13.2655776"><ele>366.0</ele><time>2026-03-22T11:01:30.999Z</time></trkpt><trkpt lat="43.1013822" lon="13.265647"><ele>366.0</ele><time>2026-03-22T11:01:32Z</time></trkpt><trkpt lat="43.1014847" lon="13.265705"><ele>366.0</ele><time>2026-03-22T11:01:33Z</time></trkpt><trkpt lat="43.1015921" lon="13.2657171"><ele>366.0</ele><time>2026-03-22T11:01:33.999Z</time></trkpt><trkpt lat="43.1017053" lon="13.2656875"><ele>366.0</ele><time>2026-03-22T11:01:34.999Z</time></trkpt><trkpt lat="43.1018161" lon="13.2656406"><ele>368.0</ele><time>2026-03-22T11:01:35.999Z</time></trkpt><trkpt lat="43.1019128" lon="13.2655983"><ele>370.0</ele><time>2026-03-22T11:01:36.998Z</time></trkpt><trkpt lat="43.101994" lon="13.265547"><ele>372.0</ele><time>2026-03-22T11:01:38Z</time></trkpt><trkpt lat="43.1020435" lon="13.2654702"><ele>374.0</ele><time>2026-03-22T11:01:39Z</time></trkpt><trkpt lat="43.1020444" lon="13.2653834"><ele>376.0</ele><time>2026-03-22T11:01:40Z</time></trkpt><trkpt lat="43.1019995" lon="13.2653107"><ele>378.0</ele><time>2026-03-22T11:01:41Z</time></trkpt><trkpt lat="43.101933" lon="13.2653037"><ele>378.0</ele><time>2026-03-22T11:01:42Z</time></trkpt><trkpt lat="43.1018508" lon="13.2653426"><ele>378.0</ele><time>2026-03-22T11:01:42.999Z</time></trkpt><trkpt lat="43.1017565" lon="13.2653866"><ele>378.0</ele><time>2026-03-22T11:01:44Z</time></trkpt><trkpt lat="43.1016621" lon="13.2654033"><ele>378.0</ele><time>2026-03-22T11:01:45Z</time></trkpt><trkpt lat="43.1015734" lon="13.2654125"><ele>378.0</ele><time>2026-03-22T11:01:46Z</time></trkpt><trkpt lat="43.1014963" lon="13.2654119"><ele>378.0</ele><time>2026-03-22T11:01:47Z</time></trkpt><trkpt lat="43.1014416" lon="13.2653674"><ele>378.0</ele><time>2026-03-22T11:01:47.999Z</time></trkpt><trkpt lat="43.101462" lon="13.2652161"><ele>378.0</ele><time>2026-03-22T11:01:50Z</time></trkpt><trkpt lat="43.1015234" lon="13.2651648"><ele>378.0</ele><time>2026-03-22T11:01:51Z</time></trkpt><trkpt lat="43.1016034" lon="13.2651195"><ele>378.0</ele><time>2026-03-22T11:01:52Z</time></trkpt><trkpt lat="43.1016901" lon="13.2650649"><ele>378.0</ele><time>2026-03-22T11:01:52.999Z</time></trkpt><trkpt lat="43.1017607" lon="13.2649927"><ele>378.0</ele><time>2026-03-22T11:01:53.999Z</time></trkpt><trkpt lat="43.1018019" lon="13.2649039"><ele>378.0</ele><time>2026-03-22T11:01:54.999Z</time></trkpt><trkpt lat="43.1018076" lon="13.2647922"><ele>378.0</ele><time>2026-03-22T11:01:55.998Z</time></trkpt><trkpt lat="43.1017631" lon="13.2647029"><ele>378.0</ele><time>2026-03-22T11:01:56.999Z</time></trkpt><trkpt lat="43.101699" lon="13.2646495"><ele>378.0</ele><time>2026-03-22T11:01:57.999Z</time></trkpt><trkpt lat="43.1016176" lon="13.2645866"><ele>378.0</ele><time>2026-03-22T11:01:59.999Z</time></trkpt><trkpt lat="43.1016282" lon="13.2644923"><ele>379.0</ele><time>2026-03-22T11:02:03Z</time></trkpt><trkpt lat="43.1017284" lon="13.2644073"><ele>380.0</ele><time>2026-03-22T11:02:04.999Z</time></trkpt><trkpt lat="43.1018259" lon="13.2643587"><ele>381.0</ele><time>2026-03-22T11:02:05.999Z</time></trkpt><trkpt lat="43.1019197" lon="13.2643083"><ele>382.0</ele><time>2026-03-22T11:02:07Z</time></trkpt><trkpt lat="43.1020119" lon="13.2642739"><ele>383.0</ele><time>2026-03-22T11:02:07.999Z</time></trkpt><trkpt lat="43.1021048" lon="13.2642528"><ele>383.0</ele><time>2026-03-22T11:02:08.999Z</time></trkpt><trkpt lat="43.1021972" lon="13.2642345"><ele>383.0</ele><time>2026-03-22T11:02:09.999Z</time></trkpt><trkpt lat="43.1022981" lon="13.2642233"><ele>383.0</ele><time>2026-03-22T11:02:10.999Z</time></trkpt><trkpt lat="43.1024055" lon="13.2642188"><ele>383.0</ele><time>2026-03-22T11:02:11.999Z</time></trkpt><trkpt lat="43.102515" lon="13.2642136"><ele>383.0</ele><time>2026-03-22T11:02:13Z</time></trkpt><trkpt lat="43.1026244" lon="13.2642101"><ele>383.75</ele><time>2026-03-22T11:02:13.999Z</time></trkpt><trkpt lat="43.1027356" lon="13.2642058"><ele>384.5</ele><time>2026-03-22T11:02:14.999Z</time></trkpt><trkpt lat="43.1028555" lon="13.2642071"><ele>385.25</ele><time>2026-03-22T11:02:16Z</time></trkpt><trkpt lat="43.10298" lon="13.26422"><ele>386.0</ele><time>2026-03-22T11:02:16.999Z</time></trkpt><trkpt lat="43.1030937" lon="13.2642323"><ele>385.99999999999994</ele><time>2026-03-22T11:02:18Z</time></trkpt><trkpt lat="43.1031922" lon="13.2642418"><ele>386.0</ele><time>2026-03-22T11:02:19Z</time></trkpt><trkpt lat="43.1032691" lon="13.264252"><ele>386.0</ele><time>2026-03-22T11:02:19.999Z</time></trkpt><trkpt lat="43.1033344" lon="13.2642608"><ele>386.0</ele><time>2026-03-22T11:02:21Z</time></trkpt><trkpt lat="43.1033979" lon="13.264268"><ele>385.99999999999994</ele><time>2026-03-22T11:02:22Z</time></trkpt><trkpt lat="43.1035134" lon="13.2642842"><ele>386.0</ele><time>2026-03-22T11:02:23.999Z</time></trkpt><trkpt lat="43.1036157" lon="13.2642922"><ele>385.4</ele><time>2026-03-22T11:02:26Z</time></trkpt><trkpt lat="43.1037106" lon="13.264301"><ele>384.8</ele><time>2026-03-22T11:02:28Z</time></trkpt><trkpt lat="43.1038286" lon="13.2643092"><ele>384.2</ele><time>2026-03-22T11:02:30Z</time></trkpt><trkpt lat="43.1038984" lon="13.2643083"><ele>383.59999999999997</ele><time>2026-03-22T11:02:31Z</time></trkpt><trkpt lat="43.1039802" lon="13.2643023"><ele>383.0</ele><time>2026-03-22T11:02:32Z</time></trkpt><trkpt lat="43.1040704" lon="13.2642847"><ele>382.59999999999997</ele><time>2026-03-22T11:02:33Z</time></trkpt><trkpt lat="43.1041687" lon="13.2642524"><ele>382.2</ele><time>2026-03-22T11:02:34Z</time></trkpt><trkpt lat="43.1042651" lon="13.2641925"><ele>381.8</ele><time>2026-03-22T11:02:34.999Z</time></trkpt><trkpt lat="43.1043628" lon="13.2641255"><ele>381.4</ele><time>2026-03-22T11:02:36Z</time></trkpt><trkpt lat="43.1044628" lon="13.2640498"><ele>381.0</ele><time>2026-03-22T11:02:36.999Z</time></trkpt><trkpt lat="43.1045626" lon="13.2639645"><ele>381.4</ele><time>2026-03-22T11:02:38Z</time></trkpt><trkpt lat="43.1046486" lon="13.2638742"><ele>381.8</ele><time>2026-03-22T11:02:38.999Z</time></trkpt><trkpt lat="43.104722" lon="13.2637729"><ele>382.2</ele><time>2026-03-22T11:02:39.999Z</time></trkpt><trkpt lat="43.1047816" lon="13.26367"><ele>382.59999999999997</ele><time>2026-03-22T11:02:40.999Z</time></trkpt><trkpt lat="43.1048313" lon="13.2635684"><ele>383.0</ele><time>2026-03-22T11:02:41.999Z</time></trkpt><trkpt lat="43.1048688" lon="13.2634652"><ele>383.0</ele><time>2026-03-22T11:02:42.999Z</time></trkpt><trkpt lat="43.1049009" lon="13.2633584"><ele>383.0</ele><time>2026-03-22T11:02:44Z</time></trkpt><trkpt lat="43.1049319" lon="13.2632481"><ele>383.0</ele><time>2026-03-22T11:02:45Z</time></trkpt><trkpt lat="43.1049569" lon="13.2631356"><ele>383.0</ele><time>2026-03-22T11:02:45.999Z</time></trkpt><trkpt lat="43.1049818" lon="13.2630157"><ele>383.0</ele><time>2026-03-22T11:02:46.999Z</time></trkpt><trkpt lat="43.1050115" lon="13.2628751"><ele>383.25</ele><time>2026-03-22T11:02:47.999Z</time></trkpt><trkpt lat="43.1050465" lon="13.2627328"><ele>383.5</ele><time>2026-03-22T11:02:49Z</time></trkpt><trkpt lat="43.1051086" lon="13.2625918"><ele>383.75</ele><time>2026-03-22T11:02:49.999Z</time></trkpt><trkpt lat="43.1052028" lon="13.2624697"><ele>384.0</ele><time>2026-03-22T11:02:50.999Z</time></trkpt><trkpt lat="43.1053202" lon="13.2623752"><ele>384.0</ele><time>2026-03-22T11:02:52Z</time></trkpt><trkpt lat="43.1054605" lon="13.2623155"><ele>384.0</ele><time>2026-03-22T11:02:52.999Z</time></trkpt><trkpt lat="43.1056014" lon="13.2622905"><ele>384.0</ele><time>2026-03-22T11:02:53.999Z</time></trkpt><trkpt lat="43.1057317" lon="13.2622773"><ele>384.0</ele><time>2026-03-22T11:02:55Z</time></trkpt><trkpt lat="43.1058482" lon="13.2622598"><ele>384.0</ele><time>2026-03-22T11:02:56Z</time></trkpt><trkpt lat="43.1059564" lon="13.2622462"><ele>384.0</ele><time>2026-03-22T11:02:56.999Z</time></trkpt><trkpt lat="43.1060674" lon="13.2622369"><ele>384.0</ele><time>2026-03-22T11:02:58Z</time></trkpt><trkpt lat="43.1061813" lon="13.2622268"><ele>384.0</ele><time>2026-03-22T11:02:59Z</time></trkpt><trkpt lat="43.1062949" lon="13.2622083"><ele>384.0</ele><time>2026-03-22T11:03:00Z</time></trkpt><trkpt lat="43.1064045" lon="13.2621751"><ele>384.0</ele><time>2026-03-22T11:03:00.999Z</time></trkpt><trkpt lat="43.1065169" lon="13.2621337"><ele>384.0</ele><time>2026-03-22T11:03:01.999Z</time></trkpt><trkpt lat="43.1066347" lon="13.2620847"><ele>384.0</ele><time>2026-03-22T11:03:03Z</time></trkpt><trkpt lat="43.1067579" lon="13.2620411"><ele>384.0</ele><time>2026-03-22T11:03:04Z</time></trkpt><trkpt lat="43.1068773" lon="13.2620214"><ele>382.75</ele><time>2026-03-22T11:03:04.999Z</time></trkpt><trkpt lat="43.1069933" lon="13.2620038"><ele>381.5</ele><time>2026-03-22T11:03:05.999Z</time></trkpt><trkpt lat="43.1070953" lon="13.2619537"><ele>380.25</ele><time>2026-03-22T11:03:06.999Z</time></trkpt><trkpt lat="43.1071873" lon="13.261866"><ele>379.0</ele><time>2026-03-22T11:03:08Z</time></trkpt><trkpt lat="43.1072795" lon="13.2617547"><ele>379.0</ele><time>2026-03-22T11:03:08.999Z</time></trkpt><trkpt lat="43.1073716" lon="13.2616421"><ele>379.0</ele><time>2026-03-22T11:03:09.999Z</time></trkpt><trkpt lat="43.1074643" lon="13.2615212"><ele>379.0</ele><time>2026-03-22T11:03:10.999Z</time></trkpt><trkpt lat="43.1075597" lon="13.2614017"><ele>379.0</ele><time>2026-03-22T11:03:11.999Z</time></trkpt><trkpt lat="43.1076575" lon="13.2612812"><ele>381.25</ele><time>2026-03-22T11:03:12.999Z</time></trkpt><trkpt lat="43.1077573" lon="13.2611611"><ele>383.5</ele><time>2026-03-22T11:03:14Z</time></trkpt><trkpt lat="43.1078578" lon="13.2610371"><ele>385.75</ele><time>2026-03-22T11:03:15Z</time></trkpt><trkpt lat="43.1079601" lon="13.2609109"><ele>388.0</ele><time>2026-03-22T11:03:16Z</time></trkpt><trkpt lat="43.108063" lon="13.2607863"><ele>388.0</ele><time>2026-03-22T11:03:16.999Z</time></trkpt><trkpt lat="43.1081646" lon="13.2606599"><ele>388.0</ele><time>2026-03-22T11:03:17.998Z</time></trkpt><trkpt lat="43.1082658" lon="13.2605329"><ele>388.0</ele><time>2026-03-22T11:03:18.999Z</time></trkpt><trkpt lat="43.1083719" lon="13.260404"><ele>388.0</ele><time>2026-03-22T11:03:20Z</time></trkpt><trkpt lat="43.1084781" lon="13.260288"><ele>394.0</ele><time>2026-03-22T11:03:20.999Z</time></trkpt><trkpt lat="43.1085813" lon="13.260177"><ele>400.0</ele><time>2026-03-22T11:03:21.999Z</time></trkpt><trkpt lat="43.1086859" lon="13.2600758"><ele>406.0</ele><time>2026-03-22T11:03:23Z</time></trkpt><trkpt lat="43.1087957" lon="13.2599849"><ele>412.0</ele><time>2026-03-22T11:03:24Z</time></trkpt><trkpt lat="43.1089057" lon="13.2599021"><ele>412.0</ele><time>2026-03-22T11:03:24.999Z</time></trkpt><trkpt lat="43.109011" lon="13.259857"><ele>412.0</ele><time>2026-03-22T11:03:25.999Z</time></trkpt><trkpt lat="43.1090906" lon="13.2598062"><ele>412.0</ele><time>2026-03-22T11:03:27Z</time></trkpt><trkpt lat="43.1091657" lon="13.2597085"><ele>412.0</ele><time>2026-03-22T11:03:29Z</time></trkpt><trkpt lat="43.1091376" lon="13.2596134"><ele>412.0</ele><time>2026-03-22T11:03:31Z</time></trkpt><trkpt lat="43.1090112" lon="13.2595964"><ele>415.8</ele><time>2026-03-22T11:03:32.999Z</time></trkpt><trkpt lat="43.1089255" lon="13.2596131"><ele>419.6</ele><time>2026-03-22T11:03:34Z</time></trkpt><trkpt lat="43.1088221" lon="13.2596137"><ele>423.40000000000003</ele><time>2026-03-22T11:03:34.999Z</time></trkpt><trkpt lat="43.1087227" lon="13.2595871"><ele>427.20000000000005</ele><time>2026-03-22T11:03:35.999Z</time></trkpt><trkpt lat="43.10863" lon="13.2595285"><ele>431.0</ele><time>2026-03-22T11:03:37Z</time></trkpt><trkpt lat="43.1085491" lon="13.2594312"><ele>430.99999999999994</ele><time>2026-03-22T11:03:37.999Z</time></trkpt><trkpt lat="43.108496" lon="13.2593212"><ele>431.0</ele><time>2026-03-22T11:03:38.999Z</time></trkpt><trkpt lat="43.1084715" lon="13.2592007"><ele>431.0</ele><time>2026-03-22T11:03:39.999Z</time></trkpt><trkpt lat="43.108454" lon="13.2591027"><ele>431.0</ele><time>2026-03-22T11:03:41Z</time></trkpt><trkpt lat="43.1084316" lon="13.2589991"><ele>430.99999999999994</ele><time>2026-03-22T11:03:41.999Z</time></trkpt><trkpt lat="43.1084071" lon="13.2588859"><ele>431.0</ele><time>2026-03-22T11:03:43Z</time></trkpt><trkpt lat="43.1083879" lon="13.2587673"><ele>432.66666666666663</ele><time>2026-03-22T11:03:44Z</time></trkpt><trkpt lat="43.1083679" lon="13.2586448"><ele>434.3333333333333</ele><time>2026-03-22T11:03:44.999Z</time></trkpt><trkpt lat="43.1083474" lon="13.2585234"><ele>436.0</ele><time>2026-03-22T11:03:45.999Z</time></trkpt><trkpt lat="43.1083304" lon="13.2584178"><ele>437.66666666666663</ele><time>2026-03-22T11:03:46.999Z</time></trkpt><trkpt lat="43.1083178" lon="13.2583151"><ele>439.3333333333333</ele><time>2026-03-22T11:03:48Z</time></trkpt><trkpt lat="43.1083103" lon="13.2582075"><ele>441.0</ele><time>2026-03-22T11:03:49Z</time></trkpt><trkpt lat="43.108306" lon="13.2581071"><ele>441.0</ele><time>2026-03-22T11:03:49.999Z</time></trkpt><trkpt lat="43.1082994" lon="13.2580129"><ele>441.0</ele><time>2026-03-22T11:03:51Z</time></trkpt><trkpt lat="43.1082855" lon="13.2578852"><ele>441.0</ele><time>2026-03-22T11:03:53Z</time></trkpt><trkpt lat="43.1083547" lon="13.2578552"><ele>441.0</ele><time>2026-03-22T11:03:56.999Z</time></trkpt><trkpt lat="43.1084125" lon="13.2580109"><ele>441.0</ele><time>2026-03-22T11:03:59Z</time></trkpt><trkpt lat="43.1084408" lon="13.2581069"><ele>441.0</ele><time>2026-03-22T11:04:00Z</time></trkpt><trkpt lat="43.1084721" lon="13.2582039"><ele>441.0</ele><time>2026-03-22T11:04:00.999Z</time></trkpt><trkpt lat="43.1085043" lon="13.2582937"><ele>441.0</ele><time>2026-03-22T11:04:02Z</time></trkpt><trkpt lat="43.108543" lon="13.2583927"><ele>441.0</ele><time>2026-03-22T11:04:03Z</time></trkpt><trkpt lat="43.1085815" lon="13.2584993"><ele>441.0</ele><time>2026-03-22T11:04:03.999Z</time></trkpt><trkpt lat="43.1086173" lon="13.2586093"><ele>441.0</ele><time>2026-03-22T11:04:04.999Z</time></trkpt><trkpt lat="43.1086554" lon="13.2587"><ele>441.0</ele><time>2026-03-22T11:04:06Z</time></trkpt><trkpt lat="43.1087021" lon="13.258767"><ele>441.0</ele><time>2026-03-22T11:04:07Z</time></trkpt><trkpt lat="43.108763" lon="13.2588057"><ele>441.0</ele><time>2026-03-22T11:04:07.999Z</time></trkpt><trkpt lat="43.1088313" lon="13.2588036"><ele>441.0</ele><time>2026-03-22T11:04:09Z</time></trkpt><trkpt lat="43.1088938" lon="13.2587746"><ele>441.0</ele><time>2026-03-22T11:04:09.998Z</time></trkpt><trkpt lat="43.1089456" lon="13.2587235"><ele>441.0</ele><time>2026-03-22T11:04:10.999Z</time></trkpt><trkpt lat="43.109039" lon="13.258623"><ele>441.0</ele><time>2026-03-22T11:04:13Z</time></trkpt><trkpt lat="43.1091306" lon="13.2585151"><ele>441.1666666666667</ele><time>2026-03-22T11:04:15Z</time></trkpt><trkpt lat="43.1091747" lon="13.2584511"><ele>441.33333333333337</ele><time>2026-03-22T11:04:15.999Z</time></trkpt><trkpt lat="43.1092489" lon="13.2583448"><ele>441.5</ele><time>2026-03-22T11:04:18Z</time></trkpt><trkpt lat="43.1093046" lon="13.2582724"><ele>441.6666666666667</ele><time>2026-03-22T11:04:19.999Z</time></trkpt><trkpt lat="43.1092999" lon="13.2581824"><ele>441.83333333333337</ele><time>2026-03-22T11:04:21.999Z</time></trkpt><trkpt lat="43.1092298" lon="13.2580436"><ele>442.0</ele><time>2026-03-22T11:04:23.999Z</time></trkpt><trkpt lat="43.1091788" lon="13.2579596"><ele>442.33333333333337</ele><time>2026-03-22T11:04:24.999Z</time></trkpt><trkpt lat="43.1091277" lon="13.2578705"><ele>442.6666666666667</ele><time>2026-03-22T11:04:25.999Z</time></trkpt><trkpt lat="43.1090723" lon="13.2577756"><ele>443.0</ele><time>2026-03-22T11:04:26.999Z</time></trkpt><trkpt lat="43.1090195" lon="13.2576811"><ele>443.33333333333337</ele><time>2026-03-22T11:04:28Z</time></trkpt><trkpt lat="43.1089634" lon="13.2575792"><ele>443.6666666666667</ele><time>2026-03-22T11:04:29Z</time></trkpt><trkpt lat="43.1089104" lon="13.2574819"><ele>444.0</ele><time>2026-03-22T11:04:29.999Z</time></trkpt><trkpt lat="43.1088629" lon="13.2573884"><ele>444.0</ele><time>2026-03-22T11:04:31Z</time></trkpt><trkpt lat="43.1088128" lon="13.2572917"><ele>444.0</ele><time>2026-03-22T11:04:32Z</time></trkpt><trkpt lat="43.1087602" lon="13.2571901"><ele>444.0</ele><time>2026-03-22T11:04:32.999Z</time></trkpt><trkpt lat="43.1087213" lon="13.2570798"><ele>444.0</ele><time>2026-03-22T11:04:33.999Z</time></trkpt><trkpt lat="43.108692" lon="13.2569617"><ele>444.0</ele><time>2026-03-22T11:04:34.999Z</time></trkpt><trkpt lat="43.1086695" lon="13.2568415"><ele>444.0</ele><time>2026-03-22T11:04:36Z</time></trkpt><trkpt lat="43.1086565" lon="13.2567162"><ele>444.2</ele><time>2026-03-22T11:04:36.999Z</time></trkpt><trkpt lat="43.1086492" lon="13.256585"><ele>444.4</ele><time>2026-03-22T11:04:38Z</time></trkpt><trkpt lat="43.1086406" lon="13.2564518"><ele>444.6</ele><time>2026-03-22T11:04:39Z</time></trkpt><trkpt lat="43.108625" lon="13.2563236"><ele>444.8</ele><time>2026-03-22T11:04:40Z</time></trkpt><trkpt lat="43.1086049" lon="13.2561924"><ele>445.0</ele><time>2026-03-22T11:04:41Z</time></trkpt><trkpt lat="43.1085756" lon="13.2560613"><ele>443.5</ele><time>2026-03-22T11:04:42Z</time></trkpt><trkpt lat="43.1085302" lon="13.2559339"><ele>442.0</ele><time>2026-03-22T11:04:43Z</time></trkpt><trkpt lat="43.1084692" lon="13.2558026"><ele>440.5</ele><time>2026-03-22T11:04:44Z</time></trkpt><trkpt lat="43.1083985" lon="13.2556712"><ele>439.0</ele><time>2026-03-22T11:04:44.999Z</time></trkpt><trkpt lat="43.1083256" lon="13.2555367"><ele>442.0</ele><time>2026-03-22T11:04:46Z</time></trkpt><trkpt lat="43.1082554" lon="13.255398"><ele>445.0</ele><time>2026-03-22T11:04:46.999Z</time></trkpt><trkpt lat="43.1081883" lon="13.2552595"><ele>448.0</ele><time>2026-03-22T11:04:48Z</time></trkpt><trkpt lat="43.1081234" lon="13.2551227"><ele>451.0</ele><time>2026-03-22T11:04:49Z</time></trkpt><trkpt lat="43.1080699" lon="13.2549747"><ele>451.0</ele><time>2026-03-22T11:04:49.999Z</time></trkpt><trkpt lat="43.108031" lon="13.2548084"><ele>451.0</ele><time>2026-03-22T11:04:50.999Z</time></trkpt><trkpt lat="43.1080161" lon="13.2546388"><ele>451.0</ele><time>2026-03-22T11:04:51.998Z</time></trkpt><trkpt lat="43.1079996" lon="13.2544751"><ele>451.0</ele><time>2026-03-22T11:04:53Z</time></trkpt><trkpt lat="43.1079646" lon="13.2543057"><ele>446.6666666666667</ele><time>2026-03-22T11:04:54Z</time></trkpt><trkpt lat="43.1079014" lon="13.2541322"><ele>442.33333333333337</ele><time>2026-03-22T11:04:54.999Z</time></trkpt><trkpt lat="43.1078173" lon="13.2539566"><ele>438.0</ele><time>2026-03-22T11:04:55.999Z</time></trkpt><trkpt lat="43.1077198" lon="13.25378"><ele>433.0</ele><time>2026-03-22T11:04:57Z</time></trkpt><trkpt lat="43.1076207" lon="13.2536063"><ele>428.0</ele><time>2026-03-22T11:04:58Z</time></trkpt><trkpt lat="43.1075202" lon="13.2534451"><ele>423.0</ele><time>2026-03-22T11:04:59Z</time></trkpt><trkpt lat="43.107417" lon="13.2532975"><ele>422.25</ele><time>2026-03-22T11:05:00Z</time></trkpt><trkpt lat="43.1073079" lon="13.2531703"><ele>421.5</ele><time>2026-03-22T11:05:00.999Z</time></trkpt><trkpt lat="43.1071956" lon="13.2530597"><ele>420.75</ele><time>2026-03-22T11:05:01.999Z</time></trkpt><trkpt lat="43.1070858" lon="13.2529554"><ele>420.0</ele><time>2026-03-22T11:05:02.999Z</time></trkpt><trkpt lat="43.1069802" lon="13.2528552"><ele>420.0</ele><time>2026-03-22T11:05:04Z</time></trkpt><trkpt lat="43.1068791" lon="13.252758"><ele>420.0</ele><time>2026-03-22T11:05:05Z</time></trkpt><trkpt lat="43.1067825" lon="13.2526641"><ele>420.0</ele><time>2026-03-22T11:05:06Z</time></trkpt><trkpt lat="43.1066886" lon="13.2525735"><ele>420.0</ele><time>2026-03-22T11:05:06.999Z</time></trkpt><trkpt lat="43.1065958" lon="13.2524829"><ele>422.2</ele><time>2026-03-22T11:05:07.999Z</time></trkpt><trkpt lat="43.1065062" lon="13.2523907"><ele>424.4</ele><time>2026-03-22T11:05:08.999Z</time></trkpt><trkpt lat="43.1064264" lon="13.2522887"><ele>426.6</ele><time>2026-03-22T11:05:10Z</time></trkpt><trkpt lat="43.1063737" lon="13.2521664"><ele>428.8</ele><time>2026-03-22T11:05:10.999Z</time></trkpt><trkpt lat="43.1063597" lon="13.2520251"><ele>431.0</ele><time>2026-03-22T11:05:12Z</time></trkpt><trkpt lat="43.1063927" lon="13.2518755"><ele>431.0</ele><time>2026-03-22T11:05:12.999Z</time></trkpt><trkpt lat="43.1064479" lon="13.2517298"><ele>431.0</ele><time>2026-03-22T11:05:14Z</time></trkpt><trkpt lat="43.1065119" lon="13.2515723"><ele>431.0</ele><time>2026-03-22T11:05:14.999Z</time></trkpt><trkpt lat="43.1065739" lon="13.2514151"><ele>431.0</ele><time>2026-03-22T11:05:16Z</time></trkpt><trkpt lat="43.106628" lon="13.2512576"><ele>428.25</ele><time>2026-03-22T11:05:17Z</time></trkpt><trkpt lat="43.1066791" lon="13.251108"><ele>425.5</ele><time>2026-03-22T11:05:17.999Z</time></trkpt><trkpt lat="43.1067235" lon="13.2509579"><ele>422.75</ele><time>2026-03-22T11:05:18.999Z</time></trkpt><trkpt lat="43.1067501" lon="13.2508001"><ele>420.0</ele><time>2026-03-22T11:05:20Z</time></trkpt><trkpt lat="43.1067627" lon="13.2506276"><ele>420.75</ele><time>2026-03-22T11:05:21Z</time></trkpt><trkpt lat="43.1067612" lon="13.2504433"><ele>421.5</ele><time>2026-03-22T11:05:22Z</time></trkpt><trkpt lat="43.1067531" lon="13.2502498"><ele>422.25</ele><time>2026-03-22T11:05:22.999Z</time></trkpt><trkpt lat="43.1067425" lon="13.2500485"><ele>423.0</ele><time>2026-03-22T11:05:23.999Z</time></trkpt><trkpt lat="43.1067294" lon="13.2498397"><ele>421.0</ele><time>2026-03-22T11:05:25Z</time></trkpt><trkpt lat="43.1067175" lon="13.2496289"><ele>419.0</ele><time>2026-03-22T11:05:25.999Z</time></trkpt><trkpt lat="43.106706" lon="13.249422"><ele>417.0</ele><time>2026-03-22T11:05:27Z</time></trkpt><trkpt lat="43.1066913" lon="13.249224"><ele>417.0</ele><time>2026-03-22T11:05:27.999Z</time></trkpt><trkpt lat="43.1066657" lon="13.249036"><ele>417.0</ele><time>2026-03-22T11:05:28.999Z</time></trkpt><trkpt lat="43.1066235" lon="13.2488529"><ele>417.0</ele><time>2026-03-22T11:05:30Z</time></trkpt><trkpt lat="43.1065606" lon="13.2486768"><ele>417.0</ele><time>2026-03-22T11:05:31Z</time></trkpt><trkpt lat="43.1064799" lon="13.2485071"><ele>419.25</ele><time>2026-03-22T11:05:31.999Z</time></trkpt><trkpt lat="43.106392" lon="13.2483429"><ele>421.5</ele><time>2026-03-22T11:05:32.999Z</time></trkpt><trkpt lat="43.106304" lon="13.2481832"><ele>423.75</ele><time>2026-03-22T11:05:34Z</time></trkpt><trkpt lat="43.1062285" lon="13.2480195"><ele>426.0</ele><time>2026-03-22T11:05:34.999Z</time></trkpt><trkpt lat="43.1061885" lon="13.2478387"><ele>426.0</ele><time>2026-03-22T11:05:36Z</time></trkpt><trkpt lat="43.1061752" lon="13.2476487"><ele>426.0</ele><time>2026-03-22T11:05:37Z</time></trkpt><trkpt lat="43.1061916" lon="13.2474515"><ele>426.0</ele><time>2026-03-22T11:05:37.999Z</time></trkpt><trkpt lat="43.1062189" lon="13.2472514"><ele>426.0</ele><time>2026-03-22T11:05:38.999Z</time></trkpt><trkpt lat="43.1062517" lon="13.2470524"><ele>425.0</ele><time>2026-03-22T11:05:40Z</time></trkpt><trkpt lat="43.1062772" lon="13.2468471"><ele>424.0</ele><time>2026-03-22T11:05:40.998Z</time></trkpt><trkpt lat="43.1063012" lon="13.2466484"><ele>423.0</ele><time>2026-03-22T11:05:42Z</time></trkpt><trkpt lat="43.1063271" lon="13.2464599"><ele>422.0</ele><time>2026-03-22T11:05:43Z</time></trkpt><trkpt lat="43.106351" lon="13.2462768"><ele>422.0</ele><time>2026-03-22T11:05:43.998Z</time></trkpt><trkpt lat="43.1063628" lon="13.2460937"><ele>422.0</ele><time>2026-03-22T11:05:45Z</time></trkpt><trkpt lat="43.1063613" lon="13.2459058"><ele>422.0</ele><time>2026-03-22T11:05:45.999Z</time></trkpt><trkpt lat="43.10634" lon="13.2457136"><ele>422.0</ele><time>2026-03-22T11:05:47Z</time></trkpt><trkpt lat="43.1062976" lon="13.2455165"><ele>418.75</ele><time>2026-03-22T11:05:47.999Z</time></trkpt><trkpt lat="43.1062302" lon="13.2453206"><ele>415.5</ele><time>2026-03-22T11:05:48.999Z</time></trkpt><trkpt lat="43.1061583" lon="13.2451476"><ele>412.25</ele><time>2026-03-22T11:05:49.999Z</time></trkpt><trkpt lat="43.1060949" lon="13.2450007"><ele>409.0</ele><time>2026-03-22T11:05:51Z</time></trkpt><trkpt lat="43.1060309" lon="13.2448651"><ele>410.2</ele><time>2026-03-22T11:05:52Z</time></trkpt><trkpt lat="43.1059724" lon="13.2447362"><ele>411.4</ele><time>2026-03-22T11:05:53Z</time></trkpt><trkpt lat="43.1059274" lon="13.2446028"><ele>412.6</ele><time>2026-03-22T11:05:53.999Z</time></trkpt><trkpt lat="43.1059095" lon="13.2444653"><ele>413.8</ele><time>2026-03-22T11:05:55Z</time></trkpt><trkpt lat="43.1059213" lon="13.2443287"><ele>415.0</ele><time>2026-03-22T11:05:56Z</time></trkpt><trkpt lat="43.1059441" lon="13.2441909"><ele>415.0</ele><time>2026-03-22T11:05:57Z</time></trkpt><trkpt lat="43.1059735" lon="13.2440518"><ele>415.0</ele><time>2026-03-22T11:05:57.999Z</time></trkpt><trkpt lat="43.1060041" lon="13.2439156"><ele>415.0</ele><time>2026-03-22T11:05:59Z</time></trkpt><trkpt lat="43.1060321" lon="13.2438019"><ele>415.0</ele><time>2026-03-22T11:06:00Z</time></trkpt><trkpt lat="43.1060569" lon="13.2437094"><ele>415.0</ele><time>2026-03-22T11:06:00.999Z</time></trkpt><trkpt lat="43.1061064" lon="13.2435911"><ele>415.2857142857143</ele><time>2026-03-22T11:06:02.999Z</time></trkpt><trkpt lat="43.1061481" lon="13.2435086"><ele>415.57142857142856</ele><time>2026-03-22T11:06:04.999Z</time></trkpt><trkpt lat="43.1062039" lon="13.2434269"><ele>415.8571428571429</ele><time>2026-03-22T11:06:07Z</time></trkpt><trkpt lat="43.1062528" lon="13.2433414"><ele>416.1428571428571</ele><time>2026-03-22T11:06:08.999Z</time></trkpt><trkpt lat="43.1062783" lon="13.2432547"><ele>416.4285714285714</ele><time>2026-03-22T11:06:11Z</time></trkpt><trkpt lat="43.1062162" lon="13.2432836"><ele>416.7142857142857</ele><time>2026-03-22T11:06:14.999Z</time></trkpt><trkpt lat="43.1062042" lon="13.2433793"><ele>417.0</ele><time>2026-03-22T11:06:16Z</time></trkpt><trkpt lat="43.1061612" lon="13.2434631"><ele>417.0</ele><time>2026-03-22T11:06:17Z</time></trkpt><trkpt lat="43.1061009" lon="13.24355"><ele>417.0</ele><time>2026-03-22T11:06:17.999Z</time></trkpt><trkpt lat="43.1060438" lon="13.2436727"><ele>417.0</ele><time>2026-03-22T11:06:18.999Z</time></trkpt><trkpt lat="43.1059971" lon="13.2438549"><ele>417.0</ele><time>2026-03-22T11:06:20Z</time></trkpt><trkpt lat="43.1059558" lon="13.2440368"><ele>416.6</ele><time>2026-03-22T11:06:21Z</time></trkpt><trkpt lat="43.1059226" lon="13.2441926"><ele>416.20000000000005</ele><time>2026-03-22T11:06:21.999Z</time></trkpt><trkpt lat="43.105897" lon="13.2443268"><ele>415.8</ele><time>2026-03-22T11:06:22.999Z</time></trkpt><trkpt lat="43.105891" lon="13.2444261"><ele>415.4</ele><time>2026-03-22T11:06:24Z</time></trkpt><trkpt lat="43.1058394" lon="13.2445107"><ele>415.0</ele><time>2026-03-22T11:06:26.999Z</time></trkpt><trkpt lat="43.1058005" lon="13.2443691"><ele>415.0</ele><time>2026-03-22T11:06:29.999Z</time></trkpt><trkpt lat="43.1058155" lon="13.244267"><ele>415.0</ele><time>2026-03-22T11:06:31Z</time></trkpt><trkpt lat="43.1058286" lon="13.2441541"><ele>415.0</ele><time>2026-03-22T11:06:32Z</time></trkpt><trkpt lat="43.1058557" lon="13.2440158"><ele>415.0</ele><time>2026-03-22T11:06:32.999Z</time></trkpt><trkpt lat="43.1058869" lon="13.2438568"><ele>415.0</ele><time>2026-03-22T11:06:34Z</time></trkpt><trkpt lat="43.1059" lon="13.2437361"><ele>415.4</ele><time>2026-03-22T11:06:35Z</time></trkpt><trkpt lat="43.1058899" lon="13.2436268"><ele>415.8</ele><time>2026-03-22T11:06:35.999Z</time></trkpt><trkpt lat="43.1058586" lon="13.2435145"><ele>416.20000000000005</ele><time>2026-03-22T11:06:36.999Z</time></trkpt><trkpt lat="43.1057995" lon="13.243381"><ele>416.6</ele><time>2026-03-22T11:06:37.998Z</time></trkpt><trkpt lat="43.1057168" lon="13.2432066"><ele>417.0</ele><time>2026-03-22T11:06:38.999Z</time></trkpt><trkpt lat="43.1056223" lon="13.2430152"><ele>422.5</ele><time>2026-03-22T11:06:40Z</time></trkpt><trkpt lat="43.105543" lon="13.2428464"><ele>428.0</ele><time>2026-03-22T11:06:41Z</time></trkpt><trkpt lat="43.1054697" lon="13.2426851"><ele>433.5</ele><time>2026-03-22T11:06:41.999Z</time></trkpt><trkpt lat="43.1054116" lon="13.2425264"><ele>439.0</ele><time>2026-03-22T11:06:42.999Z</time></trkpt><trkpt lat="43.1053698" lon="13.2423458"><ele>439.5</ele><time>2026-03-22T11:06:44Z</time></trkpt><trkpt lat="43.1053461" lon="13.242157"><ele>440.0</ele><time>2026-03-22T11:06:45Z</time></trkpt><trkpt lat="43.1053278" lon="13.2419438"><ele>440.5</ele><time>2026-03-22T11:06:45.999Z</time></trkpt><trkpt lat="43.1053098" lon="13.2417619"><ele>441.0</ele><time>2026-03-22T11:06:47Z</time></trkpt><trkpt lat="43.1052938" lon="13.241597"><ele>441.5</ele><time>2026-03-22T11:06:47.999Z</time></trkpt><trkpt lat="43.105274" lon="13.2414398"><ele>442.0</ele><time>2026-03-22T11:06:48.999Z</time></trkpt><trkpt lat="43.1052431" lon="13.2412868"><ele>442.5</ele><time>2026-03-22T11:06:50Z</time></trkpt><trkpt lat="43.1051952" lon="13.2411477"><ele>443.0</ele><time>2026-03-22T11:06:50.999Z</time></trkpt><trkpt lat="43.1051275" lon="13.2410124"><ele>443.0</ele><time>2026-03-22T11:06:51.999Z</time></trkpt><trkpt lat="43.105044" lon="13.2408512"><ele>443.0</ele><time>2026-03-22T11:06:52.998Z</time></trkpt><trkpt lat="43.1049594" lon="13.2407072"><ele>443.0</ele><time>2026-03-22T11:06:54Z</time></trkpt><trkpt lat="43.1048683" lon="13.240572"><ele>443.0</ele><time>2026-03-22T11:06:54.999Z</time></trkpt><trkpt lat="43.1047894" lon="13.2404555"><ele>446.4</ele><time>2026-03-22T11:06:56Z</time></trkpt><trkpt lat="43.104715" lon="13.2403384"><ele>449.79999999999995</ele><time>2026-03-22T11:06:57Z</time></trkpt><trkpt lat="43.1046502" lon="13.2402211"><ele>453.2</ele><time>2026-03-22T11:06:57.999Z</time></trkpt><trkpt lat="43.1045923" lon="13.2401078"><ele>456.6</ele><time>2026-03-22T11:06:59Z</time></trkpt><trkpt lat="43.1045391" lon="13.2400037"><ele>460.0</ele><time>2026-03-22T11:06:59.999Z</time></trkpt><trkpt lat="43.1044835" lon="13.2399093"><ele>460.00000000000006</ele><time>2026-03-22T11:07:01Z</time></trkpt><trkpt lat="43.1044268" lon="13.2398351"><ele>460.0</ele><time>2026-03-22T11:07:02Z</time></trkpt><trkpt lat="43.1043596" lon="13.2397803"><ele>460.0</ele><time>2026-03-22T11:07:02.999Z</time></trkpt><trkpt lat="43.1042811" lon="13.239739"><ele>460.0</ele><time>2026-03-22T11:07:03.999Z</time></trkpt><trkpt lat="43.1041949" lon="13.2397022"><ele>460.00000000000006</ele><time>2026-03-22T11:07:05Z</time></trkpt><trkpt lat="43.1041089" lon="13.2396608"><ele>460.0</ele><time>2026-03-22T11:07:06Z</time></trkpt><trkpt lat="43.1040322" lon="13.2396192"><ele>462.6666666666667</ele><time>2026-03-22T11:07:06.999Z</time></trkpt><trkpt lat="43.1039558" lon="13.2395751"><ele>465.33333333333337</ele><time>2026-03-22T11:07:07.999Z</time></trkpt><trkpt lat="43.1038785" lon="13.2395318"><ele>468.0</ele><time>2026-03-22T11:07:09Z</time></trkpt><trkpt lat="43.1038039" lon="13.2394868"><ele>470.66666666666663</ele><time>2026-03-22T11:07:09.999Z</time></trkpt><trkpt lat="43.1037362" lon="13.2394342"><ele>473.3333333333333</ele><time>2026-03-22T11:07:11Z</time></trkpt><trkpt lat="43.1036781" lon="13.2393653"><ele>476.0</ele><time>2026-03-22T11:07:12Z</time></trkpt><trkpt lat="43.1036323" lon="13.2392853"><ele>475.99999999999994</ele><time>2026-03-22T11:07:12.999Z</time></trkpt><trkpt lat="43.103593" lon="13.2392"><ele>476.0</ele><time>2026-03-22T11:07:13.999Z</time></trkpt><trkpt lat="43.1035582" lon="13.2391073"><ele>476.0</ele><time>2026-03-22T11:07:15Z</time></trkpt><trkpt lat="43.1035205" lon="13.2390077"><ele>476.0</ele><time>2026-03-22T11:07:16Z</time></trkpt><trkpt lat="43.103479" lon="13.2389012"><ele>475.99999999999994</ele><time>2026-03-22T11:07:16.999Z</time></trkpt><trkpt lat="43.1034357" lon="13.2387949"><ele>476.0</ele><time>2026-03-22T11:07:17.999Z</time></trkpt><trkpt lat="43.1033897" lon="13.23869"><ele>475.99999999999994</ele><time>2026-03-22T11:07:18.999Z</time></trkpt><trkpt lat="43.1033472" lon="13.2385872"><ele>476.0</ele><time>2026-03-22T11:07:19.999Z</time></trkpt><trkpt lat="43.1033101" lon="13.2384869"><ele>476.0</ele><time>2026-03-22T11:07:21Z</time></trkpt><trkpt lat="43.1032802" lon="13.2383842"><ele>476.0</ele><time>2026-03-22T11:07:21.999Z</time></trkpt><trkpt lat="43.1032668" lon="13.2382698"><ele>475.99999999999994</ele><time>2026-03-22T11:07:23Z</time></trkpt><trkpt lat="43.1032643" lon="13.23815"><ele>476.0</ele><time>2026-03-22T11:07:23.999Z</time></trkpt><trkpt lat="43.1032653" lon="13.2380297"><ele>476.8</ele><time>2026-03-22T11:07:25Z</time></trkpt><trkpt lat="43.1032662" lon="13.2378951"><ele>477.6</ele><time>2026-03-22T11:07:26Z</time></trkpt><trkpt lat="43.1032682" lon="13.2377659"><ele>478.4</ele><time>2026-03-22T11:07:26.999Z</time></trkpt><trkpt lat="43.1032742" lon="13.2376364"><ele>479.2</ele><time>2026-03-22T11:07:27.999Z</time></trkpt><trkpt lat="43.1032506" lon="13.237494"><ele>480.0</ele><time>2026-03-22T11:07:28.999Z</time></trkpt><trkpt lat="43.1032201" lon="13.237343"><ele>482.8</ele><time>2026-03-22T11:07:30Z</time></trkpt><trkpt lat="43.1031958" lon="13.2371951"><ele>485.6</ele><time>2026-03-22T11:07:30.999Z</time></trkpt><trkpt lat="43.103192" lon="13.2370639"><ele>488.4</ele><time>2026-03-22T11:07:31.998Z</time></trkpt><trkpt lat="43.1032058" lon="13.236956"><ele>491.2</ele><time>2026-03-22T11:07:32.998Z</time></trkpt><trkpt lat="43.1032385" lon="13.2368118"><ele>494.0</ele><time>2026-03-22T11:07:35Z</time></trkpt><trkpt lat="43.1031952" lon="13.2367145"><ele>493.99999999999994</ele><time>2026-03-22T11:07:37Z</time></trkpt><trkpt lat="43.1031219" lon="13.2367237"><ele>494.0</ele><time>2026-03-22T11:07:39Z</time></trkpt><trkpt lat="43.1030006" lon="13.2367855"><ele>494.0</ele><time>2026-03-22T11:07:40.999Z</time></trkpt><trkpt lat="43.1029202" lon="13.2368106"><ele>494.0</ele><time>2026-03-22T11:07:41.999Z</time></trkpt><trkpt lat="43.1028454" lon="13.2368438"><ele>493.99999999999994</ele><time>2026-03-22T11:07:43Z</time></trkpt><trkpt lat="43.1027736" lon="13.2368795"><ele>494.0</ele><time>2026-03-22T11:07:44Z</time></trkpt><trkpt lat="43.1026421" lon="13.2369398"><ele>493.99999999999994</ele><time>2026-03-22T11:07:45.999Z</time></trkpt><trkpt lat="43.1025747" lon="13.2369569"><ele>494.0</ele><time>2026-03-22T11:07:46.999Z</time></trkpt><trkpt lat="43.10245" lon="13.2369662"><ele>494.0</ele><time>2026-03-22T11:07:49Z</time></trkpt><trkpt lat="43.1023766" lon="13.2369921"><ele>494.0</ele><time>2026-03-22T11:07:50Z</time></trkpt><trkpt lat="43.1022932" lon="13.2370279"><ele>493.99999999999994</ele><time>2026-03-22T11:07:50.999Z</time></trkpt><trkpt lat="43.1022071" lon="13.2370672"><ele>494.0</ele><time>2026-03-22T11:07:51.999Z</time></trkpt><trkpt lat="43.1021187" lon="13.2371013"><ele>495.3333333333333</ele><time>2026-03-22T11:07:53Z</time></trkpt><trkpt lat="43.1020361" lon="13.2371276"><ele>496.66666666666663</ele><time>2026-03-22T11:07:53.999Z</time></trkpt><trkpt lat="43.1019455" lon="13.2371498"><ele>498.0</ele><time>2026-03-22T11:07:55Z</time></trkpt><trkpt lat="43.1018577" lon="13.2371611"><ele>499.33333333333337</ele><time>2026-03-22T11:07:55.999Z</time></trkpt><trkpt lat="43.1017675" lon="13.2371572"><ele>500.6666666666667</ele><time>2026-03-22T11:07:57Z</time></trkpt><trkpt lat="43.1016793" lon="13.2371514"><ele>502.0</ele><time>2026-03-22T11:07:57.999Z</time></trkpt><trkpt lat="43.101603" lon="13.2371476"><ele>504.42857142857133</ele><time>2026-03-22T11:07:58.999Z</time></trkpt><trkpt lat="43.1015245" lon="13.237149"><ele>506.85714285714283</ele><time>2026-03-22T11:08:00Z</time></trkpt><trkpt lat="43.1014492" lon="13.237164"><ele>509.2857142857142</ele><time>2026-03-22T11:08:00.999Z</time></trkpt><trkpt lat="43.1013859" lon="13.2371986"><ele>511.71428571428567</ele><time>2026-03-22T11:08:02Z</time></trkpt><trkpt lat="43.1013297" lon="13.2372443"><ele>514.1428571428571</ele><time>2026-03-22T11:08:02.999Z</time></trkpt><trkpt lat="43.1012691" lon="13.2372954"><ele>516.5714285714286</ele><time>2026-03-22T11:08:04Z</time></trkpt><trkpt lat="43.1012083" lon="13.2373327"><ele>519.0</ele><time>2026-03-22T11:08:04.999Z</time></trkpt><trkpt lat="43.1010881" lon="13.2373553"><ele>519.0</ele><time>2026-03-22T11:08:07Z</time></trkpt><trkpt lat="43.1009871" lon="13.237303"><ele>519.0</ele><time>2026-03-22T11:08:08.998Z</time></trkpt><trkpt lat="43.1010173" lon="13.2371831"><ele>519.0</ele><time>2026-03-22T11:08:10.999Z</time></trkpt><trkpt lat="43.1010728" lon="13.2370561"><ele>519.0</ele><time>2026-03-22T11:08:12.999Z</time></trkpt><trkpt lat="43.1011073" lon="13.2369771"><ele>519.0</ele><time>2026-03-22T11:08:13.999Z</time></trkpt><trkpt lat="43.101147" lon="13.2368837"><ele>519.0</ele><time>2026-03-22T11:08:14.999Z</time></trkpt><trkpt lat="43.1011734" lon="13.2367944"><ele>519.0</ele><time>2026-03-22T11:08:16Z</time></trkpt><trkpt lat="43.1011938" lon="13.2367035"><ele>519.0</ele><time>2026-03-22T11:08:17Z</time></trkpt><trkpt lat="43.1012122" lon="13.2365994"><ele>519.0</ele><time>2026-03-22T11:08:17.999Z</time></trkpt><trkpt lat="43.1012343" lon="13.2364992"><ele>519.0</ele><time>2026-03-22T11:08:18.999Z</time></trkpt><trkpt lat="43.1012713" lon="13.2364076"><ele>519.0</ele><time>2026-03-22T11:08:20Z</time></trkpt><trkpt lat="43.1013275" lon="13.2363478"><ele>519.0</ele><time>2026-03-22T11:08:21Z</time></trkpt><trkpt lat="43.1013954" lon="13.2362994"><ele>520.0</ele><time>2026-03-22T11:08:21.999Z</time></trkpt><trkpt lat="43.1014657" lon="13.2362515"><ele>521.0</ele><time>2026-03-22T11:08:23Z</time></trkpt><trkpt lat="43.1015322" lon="13.2361874"><ele>522.0</ele><time>2026-03-22T11:08:23.999Z</time></trkpt><trkpt lat="43.1015856" lon="13.2361173"><ele>523.0</ele><time>2026-03-22T11:08:25Z</time></trkpt><trkpt lat="43.101642" lon="13.2360414"><ele>524.0</ele><time>2026-03-22T11:08:25.999Z</time></trkpt><trkpt lat="43.1016831" lon="13.2359453"><ele>525.0</ele><time>2026-03-22T11:08:26.999Z</time></trkpt><trkpt lat="43.1017156" lon="13.2358432"><ele>523.5</ele><time>2026-03-22T11:08:28Z</time></trkpt><trkpt lat="43.1017392" lon="13.2357389"><ele>522.0</ele><time>2026-03-22T11:08:29Z</time></trkpt><trkpt lat="43.1017607" lon="13.235634"><ele>520.5</ele><time>2026-03-22T11:08:30Z</time></trkpt><trkpt lat="43.1017798" lon="13.2355302"><ele>519.0</ele><time>2026-03-22T11:08:30.999Z</time></trkpt><trkpt lat="43.101788" lon="13.23542"><ele>517.5</ele><time>2026-03-22T11:08:31.999Z</time></trkpt><trkpt lat="43.1017894" lon="13.2353144"><ele>516.0</ele><time>2026-03-22T11:08:32.998Z</time></trkpt><trkpt lat="43.1017862" lon="13.2352161"><ele>516.0</ele><time>2026-03-22T11:08:33.999Z</time></trkpt><trkpt lat="43.1017899" lon="13.2351168"><ele>516.0</ele><time>2026-03-22T11:08:35Z</time></trkpt><trkpt lat="43.1018217" lon="13.2350165"><ele>516.0</ele><time>2026-03-22T11:08:35.999Z</time></trkpt><trkpt lat="43.1018554" lon="13.2349201"><ele>516.0</ele><time>2026-03-22T11:08:36.998Z</time></trkpt><trkpt lat="43.1019342" lon="13.2348346"><ele>516.0</ele><time>2026-03-22T11:08:38Z</time></trkpt><trkpt lat="43.1019722" lon="13.2347514"><ele>516.0</ele><time>2026-03-22T11:08:38.999Z</time></trkpt><trkpt lat="43.102008" lon="13.2346545"><ele>517.0</ele><time>2026-03-22T11:08:39.999Z</time></trkpt><trkpt lat="43.1020349" lon="13.2345495"><ele>518.0</ele><time>2026-03-22T11:08:40.999Z</time></trkpt><trkpt lat="43.1020628" lon="13.234432"><ele>519.0</ele><time>2026-03-22T11:08:42Z</time></trkpt><trkpt lat="43.1020764" lon="13.2343249"><ele>520.0</ele><time>2026-03-22T11:08:42.999Z</time></trkpt><trkpt lat="43.1020915" lon="13.2342186"><ele>521.0</ele><time>2026-03-22T11:08:43.998Z</time></trkpt><trkpt lat="43.1021037" lon="13.2341102"><ele>522.0</ele><time>2026-03-22T11:08:45Z</time></trkpt><trkpt lat="43.1021218" lon="13.234003"><ele>522.1666666666666</ele><time>2026-03-22T11:08:46Z</time></trkpt><trkpt lat="43.1021322" lon="13.2338894"><ele>522.3333333333334</ele><time>2026-03-22T11:08:47Z</time></trkpt><trkpt lat="43.1021592" lon="13.2337887"><ele>522.5</ele><time>2026-03-22T11:08:48Z</time></trkpt><trkpt lat="43.1022019" lon="13.2336961"><ele>522.6666666666667</ele><time>2026-03-22T11:08:49Z</time></trkpt><trkpt lat="43.1022492" lon="13.2336102"><ele>522.8333333333334</ele><time>2026-03-22T11:08:49.999Z</time></trkpt><trkpt lat="43.1022899" lon="13.2335351"><ele>523.0</ele><time>2026-03-22T11:08:50.999Z</time></trkpt><trkpt lat="43.1023314" lon="13.2334615"><ele>523.0</ele><time>2026-03-22T11:08:52Z</time></trkpt><trkpt lat="43.1023673" lon="13.2333859"><ele>523.0</ele><time>2026-03-22T11:08:53Z</time></trkpt><trkpt lat="43.1023891" lon="13.233228"><ele>523.0</ele><time>2026-03-22T11:08:54.999Z</time></trkpt><trkpt lat="43.1023873" lon="13.2330579"><ele>523.0</ele><time>2026-03-22T11:08:56.999Z</time></trkpt><trkpt lat="43.1023864" lon="13.2329675"><ele>523.0</ele><time>2026-03-22T11:08:57.999Z</time></trkpt><trkpt lat="43.1023871" lon="13.2328656"><ele>523.0</ele><time>2026-03-22T11:08:58.999Z</time></trkpt><trkpt lat="43.1024042" lon="13.2327703"><ele>521.0</ele><time>2026-03-22T11:08:59.999Z</time></trkpt><trkpt lat="43.1024363" lon="13.2326842"><ele>519.0</ele><time>2026-03-22T11:09:01Z</time></trkpt><trkpt lat="43.1024784" lon="13.2326087"><ele>517.0</ele><time>2026-03-22T11:09:02Z</time></trkpt><trkpt lat="43.1025199" lon="13.2325391"><ele>515.0</ele><time>2026-03-22T11:09:03Z</time></trkpt><trkpt lat="43.1025645" lon="13.2324751"><ele>513.0</ele><time>2026-03-22T11:09:03.999Z</time></trkpt><trkpt lat="43.1026088" lon="13.2324131"><ele>511.0</ele><time>2026-03-22T11:09:05Z</time></trkpt><trkpt lat="43.1026995" lon="13.232293"><ele>511.00000000000006</ele><time>2026-03-22T11:09:06.999Z</time></trkpt><trkpt lat="43.1027445" lon="13.2322183"><ele>511.0</ele><time>2026-03-22T11:09:08Z</time></trkpt><trkpt lat="43.1027893" lon="13.2321469"><ele>511.0</ele><time>2026-03-22T11:09:09Z</time></trkpt><trkpt lat="43.1028443" lon="13.2320624"><ele>511.0</ele><time>2026-03-22T11:09:10Z</time></trkpt><trkpt lat="43.1029" lon="13.2319804"><ele>511.00000000000006</ele><time>2026-03-22T11:09:10.999Z</time></trkpt><trkpt lat="43.1029563" lon="13.2318945"><ele>511.0</ele><time>2026-03-22T11:09:11.999Z</time></trkpt><trkpt lat="43.1030145" lon="13.2318093"><ele>511.00000000000006</ele><time>2026-03-22T11:09:13Z</time></trkpt><trkpt lat="43.1030712" lon="13.2317205"><ele>511.0</ele><time>2026-03-22T11:09:14Z</time></trkpt><trkpt lat="43.1031287" lon="13.2316299"><ele>511.0</ele><time>2026-03-22T11:09:14.999Z</time></trkpt><trkpt lat="43.1031851" lon="13.2315371"><ele>511.0</ele><time>2026-03-22T11:09:15.999Z</time></trkpt><trkpt lat="43.1032396" lon="13.2314434"><ele>511.00000000000006</ele><time>2026-03-22T11:09:16.999Z</time></trkpt><trkpt lat="43.1032991" lon="13.2313609"><ele>511.0</ele><time>2026-03-22T11:09:17.999Z</time></trkpt><trkpt lat="43.1033536" lon="13.2312997"><ele>509.00000000000006</ele><time>2026-03-22T11:09:18.999Z</time></trkpt><trkpt lat="43.1034161" lon="13.231241"><ele>507.0</ele><time>2026-03-22T11:09:19.999Z</time></trkpt><trkpt lat="43.1034735" lon="13.2311825"><ele>505.0</ele><time>2026-03-22T11:09:21Z</time></trkpt><trkpt lat="43.1035252" lon="13.2311074"><ele>503.0</ele><time>2026-03-22T11:09:22Z</time></trkpt><trkpt lat="43.1035641" lon="13.2310156"><ele>501.00000000000006</ele><time>2026-03-22T11:09:22.999Z</time></trkpt><trkpt lat="43.1036009" lon="13.2309173"><ele>499.0</ele><time>2026-03-22T11:09:23.999Z</time></trkpt><trkpt lat="43.103633" lon="13.2308317"><ele>499.00000000000006</ele><time>2026-03-22T11:09:24.999Z</time></trkpt><trkpt lat="43.1036586" lon="13.2307482"><ele>499.0</ele><time>2026-03-22T11:09:26Z</time></trkpt><trkpt lat="43.1036797" lon="13.2306649"><ele>499.00000000000006</ele><time>2026-03-22T11:09:27Z</time></trkpt><trkpt lat="43.1036981" lon="13.230502"><ele>499.00000000000006</ele><time>2026-03-22T11:09:29Z</time></trkpt><trkpt lat="43.1036915" lon="13.2304128"><ele>499.0</ele><time>2026-03-22T11:09:30Z</time></trkpt><trkpt lat="43.1036813" lon="13.2303234"><ele>499.00000000000006</ele><time>2026-03-22T11:09:31Z</time></trkpt><trkpt lat="43.1036622" lon="13.2302363"><ele>499.00000000000006</ele><time>2026-03-22T11:09:32Z</time></trkpt><trkpt lat="43.103625" lon="13.2300873"><ele>496.4</ele><time>2026-03-22T11:09:33.999Z</time></trkpt><trkpt lat="43.1035696" lon="13.229967"><ele>493.79999999999995</ele><time>2026-03-22T11:09:36Z</time></trkpt><trkpt lat="43.1034909" lon="13.2298674"><ele>491.20000000000005</ele><time>2026-03-22T11:09:38Z</time></trkpt><trkpt lat="43.1034022" lon="13.2298225"><ele>488.6</ele><time>2026-03-22T11:09:40Z</time></trkpt><trkpt lat="43.1033037" lon="13.2298174"><ele>486.0</ele><time>2026-03-22T11:09:41.999Z</time></trkpt><trkpt lat="43.103239" lon="13.229816"><ele>486.0</ele><time>2026-03-22T11:09:43Z</time></trkpt><trkpt lat="43.1031442" lon="13.2298172"><ele>486.0</ele><time>2026-03-22T11:09:44.999Z</time></trkpt><trkpt lat="43.1030661" lon="13.2298145"><ele>486.0</ele><time>2026-03-22T11:09:47Z</time></trkpt><trkpt lat="43.1029932" lon="13.2297992"><ele>486.0</ele><time>2026-03-22T11:09:48.999Z</time></trkpt><trkpt lat="43.1029067" lon="13.2297819"><ele>486.0</ele><time>2026-03-22T11:09:51Z</time></trkpt><trkpt lat="43.10281" lon="13.2297375"><ele>486.0</ele><time>2026-03-22T11:09:53Z</time></trkpt><trkpt lat="43.1027066" lon="13.2296541"><ele>482.5</ele><time>2026-03-22T11:09:54.999Z</time></trkpt><trkpt lat="43.102654" lon="13.2296058"><ele>479.0</ele><time>2026-03-22T11:09:56Z</time></trkpt><trkpt lat="43.1025609" lon="13.2295249"><ele>475.5</ele><time>2026-03-22T11:09:58Z</time></trkpt><trkpt lat="43.1024937" lon="13.2294759"><ele>472.0</ele><time>2026-03-22T11:09:59.999Z</time></trkpt><trkpt lat="43.1024767" lon="13.2293888"><ele>468.5</ele><time>2026-03-22T11:10:01.999Z</time></trkpt><trkpt lat="43.1025183" lon="13.2292499"><ele>465.0</ele><time>2026-03-22T11:10:04Z</time></trkpt><trkpt lat="43.1025608" lon="13.2291679"><ele>465.0</ele><time>2026-03-22T11:10:05Z</time></trkpt><trkpt lat="43.1025946" lon="13.2290833"><ele>465.0</ele><time>2026-03-22T11:10:05.999Z</time></trkpt><trkpt lat="43.1026233" lon="13.2289853"><ele>465.0</ele><time>2026-03-22T11:10:06.999Z</time></trkpt><trkpt lat="43.1026516" lon="13.2288803"><ele>465.0</ele><time>2026-03-22T11:10:07.999Z</time></trkpt><trkpt lat="43.1026755" lon="13.228775"><ele>465.0</ele><time>2026-03-22T11:10:08.999Z</time></trkpt><trkpt lat="43.1026993" lon="13.2286838"><ele>465.0</ele><time>2026-03-22T11:10:10Z</time></trkpt><trkpt lat="43.1027231" lon="13.2285907"><ele>466.3333333333333</ele><time>2026-03-22T11:10:10.999Z</time></trkpt><trkpt lat="43.102753" lon="13.2285114"><ele>467.66666666666663</ele><time>2026-03-22T11:10:11.999Z</time></trkpt><trkpt lat="43.1027898" lon="13.2284361"><ele>469.0</ele><time>2026-03-22T11:10:12.999Z</time></trkpt><trkpt lat="43.1028312" lon="13.2283563"><ele>470.3333333333333</ele><time>2026-03-22T11:10:14Z</time></trkpt><trkpt lat="43.10292" lon="13.2282446"><ele>471.66666666666663</ele><time>2026-03-22T11:10:15.999Z</time></trkpt><trkpt lat="43.1030205" lon="13.2281504"><ele>473.0</ele><time>2026-03-22T11:10:17.999Z</time></trkpt><trkpt lat="43.1031145" lon="13.2280551"><ele>476.2</ele><time>2026-03-22T11:10:20Z</time></trkpt><trkpt lat="43.1032064" lon="13.2279704"><ele>479.4</ele><time>2026-03-22T11:10:21.999Z</time></trkpt><trkpt lat="43.1033106" lon="13.2279063"><ele>482.59999999999997</ele><time>2026-03-22T11:10:23.999Z</time></trkpt><trkpt lat="43.1034093" lon="13.2278524"><ele>485.79999999999995</ele><time>2026-03-22T11:10:26Z</time></trkpt><trkpt lat="43.1034986" lon="13.2278096"><ele>489.0</ele><time>2026-03-22T11:10:27.999Z</time></trkpt><trkpt lat="43.10358" lon="13.2277625"><ele>489.8333333333333</ele><time>2026-03-22T11:10:30.998Z</time></trkpt><trkpt lat="43.1036218" lon="13.2276713"><ele>490.66666666666663</ele><time>2026-03-22T11:10:33.999Z</time></trkpt><trkpt lat="43.10359" lon="13.2275968"><ele>491.5</ele><time>2026-03-22T11:10:35.999Z</time></trkpt><trkpt lat="43.1034764" lon="13.2275577"><ele>492.3333333333333</ele><time>2026-03-22T11:10:37.999Z</time></trkpt><trkpt lat="43.1034038" lon="13.2275092"><ele>493.16666666666663</ele><time>2026-03-22T11:10:38.999Z</time></trkpt><trkpt lat="43.1033223" lon="13.2274538"><ele>494.0</ele><time>2026-03-22T11:10:40Z</time></trkpt><trkpt lat="43.1032624" lon="13.2274022"><ele>493.0</ele><time>2026-03-22T11:10:40.999Z</time></trkpt><trkpt lat="43.1031641" lon="13.2273216"><ele>492.0</ele><time>2026-03-22T11:10:43Z</time></trkpt><trkpt lat="43.1030808" lon="13.2272364"><ele>491.0</ele><time>2026-03-22T11:10:45Z</time></trkpt><trkpt lat="43.1030194" lon="13.2271194"><ele>490.0</ele><time>2026-03-22T11:10:47Z</time></trkpt><trkpt lat="43.1029845" lon="13.2269558"><ele>489.0</ele><time>2026-03-22T11:10:48.999Z</time></trkpt><trkpt lat="43.1029632" lon="13.2268604"><ele>491.5714285714286</ele><time>2026-03-22T11:10:49.999Z</time></trkpt><trkpt lat="43.1029461" lon="13.2267698"><ele>494.1428571428572</ele><time>2026-03-22T11:10:51Z</time></trkpt><trkpt lat="43.1029209" lon="13.2266898"><ele>496.7142857142857</ele><time>2026-03-22T11:10:51.999Z</time></trkpt><trkpt lat="43.1028971" lon="13.2266082"><ele>499.28571428571433</ele><time>2026-03-22T11:10:52.999Z</time></trkpt><trkpt lat="43.1028686" lon="13.226527"><ele>501.8571428571429</ele><time>2026-03-22T11:10:53.999Z</time></trkpt><trkpt lat="43.1028418" lon="13.226444"><ele>504.42857142857144</ele><time>2026-03-22T11:10:54.999Z</time></trkpt><trkpt lat="43.1028118" lon="13.226363"><ele>507.0</ele><time>2026-03-22T11:10:55.999Z</time></trkpt><trkpt lat="43.1027864" lon="13.2262817"><ele>509.1666666666667</ele><time>2026-03-22T11:10:57Z</time></trkpt><trkpt lat="43.102765" lon="13.2261935"><ele>511.33333333333337</ele><time>2026-03-22T11:10:58Z</time></trkpt><trkpt lat="43.1027423" lon="13.2261032"><ele>513.5</ele><time>2026-03-22T11:10:58.998Z</time></trkpt><trkpt lat="43.1027216" lon="13.2260135"><ele>515.6666666666667</ele><time>2026-03-22T11:10:59.999Z</time></trkpt><trkpt lat="43.1026679" lon="13.2258717"><ele>517.8333333333334</ele><time>2026-03-22T11:11:02Z</time></trkpt><trkpt lat="43.1025828" lon="13.2258016"><ele>520.0</ele><time>2026-03-22T11:11:03.999Z</time></trkpt><trkpt lat="43.1024481" lon="13.2257951"><ele>521.3333333333334</ele><time>2026-03-22T11:11:06Z</time></trkpt><trkpt lat="43.1023634" lon="13.2257931"><ele>522.6666666666667</ele><time>2026-03-22T11:11:06.999Z</time></trkpt><trkpt lat="43.1022819" lon="13.2257815"><ele>524.0</ele><time>2026-03-22T11:11:07.999Z</time></trkpt><trkpt lat="43.1022053" lon="13.2257645"><ele>525.3333333333334</ele><time>2026-03-22T11:11:09Z</time></trkpt><trkpt lat="43.1021326" lon="13.2257399"><ele>526.6666666666666</ele><time>2026-03-22T11:11:09.999Z</time></trkpt><trkpt lat="43.102066" lon="13.2257056"><ele>528.0</ele><time>2026-03-22T11:11:10.999Z</time></trkpt><trkpt lat="43.1020057" lon="13.225664"><ele>530.8</ele><time>2026-03-22T11:11:11.999Z</time></trkpt><trkpt lat="43.1019497" lon="13.2256207"><ele>533.5999999999999</ele><time>2026-03-22T11:11:12.999Z</time></trkpt><trkpt lat="43.1018462" lon="13.2255375"><ele>536.4000000000001</ele><time>2026-03-22T11:11:15Z</time></trkpt><trkpt lat="43.1017488" lon="13.2254382"><ele>539.2</ele><time>2026-03-22T11:11:16.999Z</time></trkpt><trkpt lat="43.1016509" lon="13.225362"><ele>542.0</ele><time>2026-03-22T11:11:18.999Z</time></trkpt><trkpt lat="43.1015596" lon="13.2253515"><ele>544.4</ele><time>2026-03-22T11:11:21Z</time></trkpt><trkpt lat="43.1014645" lon="13.2253792"><ele>546.8000000000001</ele><time>2026-03-22T11:11:22.999Z</time></trkpt><trkpt lat="43.1013858" lon="13.2253788"><ele>549.2</ele><time>2026-03-22T11:11:24.999Z</time></trkpt><trkpt lat="43.1012504" lon="13.2253927"><ele>551.6</ele><time>2026-03-22T11:11:27Z</time></trkpt><trkpt lat="43.1011801" lon="13.2254256"><ele>554.0</ele><time>2026-03-22T11:11:27.999Z</time></trkpt><trkpt lat="43.1011184" lon="13.2254536"><ele>554.0</ele><time>2026-03-22T11:11:28.999Z</time></trkpt><trkpt lat="43.1010203" lon="13.2254984"><ele>554.0</ele><time>2026-03-22T11:11:30.998Z</time></trkpt><trkpt lat="43.1009383" lon="13.225518"><ele>554.0</ele><time>2026-03-22T11:11:33Z</time></trkpt><trkpt lat="43.1008749" lon="13.2255291"><ele>554.0</ele><time>2026-03-22T11:11:35Z</time></trkpt><trkpt lat="43.1007926" lon="13.225524"><ele>554.0</ele><time>2026-03-22T11:11:37.999Z</time></trkpt><trkpt lat="43.1007204" lon="13.2254732"><ele>554.0</ele><time>2026-03-22T11:11:40.999Z</time></trkpt><trkpt lat="43.1006429" lon="13.2254202"><ele>555.3333333333333</ele><time>2026-03-22T11:11:44.999Z</time></trkpt><trkpt lat="43.1005922" lon="13.2253331"><ele>556.6666666666666</ele><time>2026-03-22T11:11:47Z</time></trkpt><trkpt lat="43.1005779" lon="13.225179"><ele>558.0</ele><time>2026-03-22T11:11:48.999Z</time></trkpt><trkpt lat="43.1006047" lon="13.2250805"><ele>559.3333333333334</ele><time>2026-03-22T11:11:49.999Z</time></trkpt><trkpt lat="43.1006447" lon="13.2249942"><ele>560.6666666666667</ele><time>2026-03-22T11:11:51Z</time></trkpt><trkpt lat="43.1006918" lon="13.2249056"><ele>562.0</ele><time>2026-03-22T11:11:51.999Z</time></trkpt><trkpt lat="43.1007382" lon="13.2248126"><ele>563.8333333333334</ele><time>2026-03-22T11:11:52.999Z</time></trkpt><trkpt lat="43.1007865" lon="13.2247228"><ele>565.6666666666667</ele><time>2026-03-22T11:11:53.999Z</time></trkpt><trkpt lat="43.1008385" lon="13.2246387"><ele>567.5</ele><time>2026-03-22T11:11:54.999Z</time></trkpt><trkpt lat="43.1009037" lon="13.2245621"><ele>569.3333333333334</ele><time>2026-03-22T11:11:55.999Z</time></trkpt><trkpt lat="43.1009803" lon="13.2244977"><ele>571.1666666666666</ele><time>2026-03-22T11:11:57Z</time></trkpt><trkpt lat="43.1010677" lon="13.2244472"><ele>573.0</ele><time>2026-03-22T11:11:58Z</time></trkpt><trkpt lat="43.101165" lon="13.2244033"><ele>573.0</ele><time>2026-03-22T11:11:58.999Z</time></trkpt><trkpt lat="43.1012688" lon="13.2243585"><ele>573.0</ele><time>2026-03-22T11:11:59.999Z</time></trkpt><trkpt lat="43.1013695" lon="13.2243114"><ele>573.0</ele><time>2026-03-22T11:12:00.999Z</time></trkpt><trkpt lat="43.1014694" lon="13.224248"><ele>573.0</ele><time>2026-03-22T11:12:01.999Z</time></trkpt><trkpt lat="43.1015609" lon="13.2241577"><ele>573.0</ele><time>2026-03-22T11:12:02.999Z</time></trkpt><trkpt lat="43.1016473" lon="13.2240389"><ele>574.75</ele><time>2026-03-22T11:12:04Z</time></trkpt><trkpt lat="43.101726" lon="13.2238997"><ele>576.5</ele><time>2026-03-22T11:12:04.999Z</time></trkpt><trkpt lat="43.1017925" lon="13.2237453"><ele>578.25</ele><time>2026-03-22T11:12:05.999Z</time></trkpt><trkpt lat="43.1018491" lon="13.2235879"><ele>580.0</ele><time>2026-03-22T11:12:06.999Z</time></trkpt><trkpt lat="43.1019061" lon="13.2234508"><ele>580.0</ele><time>2026-03-22T11:12:07.999Z</time></trkpt><trkpt lat="43.101971" lon="13.2233206"><ele>580.0</ele><time>2026-03-22T11:12:08.999Z</time></trkpt><trkpt lat="43.1020518" lon="13.2232181"><ele>580.0</ele><time>2026-03-22T11:12:10Z</time></trkpt><trkpt lat="43.1021559" lon="13.2231535"><ele>580.0</ele><time>2026-03-22T11:12:11Z</time></trkpt><trkpt lat="43.1022761" lon="13.2231401"><ele>580.0</ele><time>2026-03-22T11:12:12Z</time></trkpt><trkpt lat="43.1024103" lon="13.2231715"><ele>580.0</ele><time>2026-03-22T11:12:13Z</time></trkpt><trkpt lat="43.102546" lon="13.2232058"><ele>580.0</ele><time>2026-03-22T11:12:14Z</time></trkpt><trkpt lat="43.1026796" lon="13.2231969"><ele>580.0</ele><time>2026-03-22T11:12:14.999Z</time></trkpt><trkpt lat="43.1028139" lon="13.2231453"><ele>584.25</ele><time>2026-03-22T11:12:16Z</time></trkpt><trkpt lat="43.1029372" lon="13.223055"><ele>588.5</ele><time>2026-03-22T11:12:17Z</time></trkpt><trkpt lat="43.1030631" lon="13.2229465"><ele>592.75</ele><time>2026-03-22T11:12:18Z</time></trkpt><trkpt lat="43.1031712" lon="13.2228113"><ele>597.0</ele><time>2026-03-22T11:12:19Z</time></trkpt><trkpt lat="43.1032896" lon="13.2226977"><ele>597.0</ele><time>2026-03-22T11:12:19.999Z</time></trkpt><trkpt lat="43.1034017" lon="13.2225859"><ele>597.0</ele><time>2026-03-22T11:12:20.999Z</time></trkpt><trkpt lat="43.1035031" lon="13.2224949"><ele>597.0</ele><time>2026-03-22T11:12:21.999Z</time></trkpt><trkpt lat="43.1035941" lon="13.2224397"><ele>597.0</ele><time>2026-03-22T11:12:22.999Z</time></trkpt><trkpt lat="43.1036542" lon="13.2223957"><ele>597.0</ele><time>2026-03-22T11:12:23.999Z</time></trkpt><trkpt lat="43.1037524" lon="13.2223028"><ele>600.6</ele><time>2026-03-22T11:12:25.999Z</time></trkpt><trkpt lat="43.1038176" lon="13.2222503"><ele>604.2</ele><time>2026-03-22T11:12:26.999Z</time></trkpt><trkpt lat="43.1038846" lon="13.2221755"><ele>607.8</ele><time>2026-03-22T11:12:27.999Z</time></trkpt><trkpt lat="43.1039532" lon="13.2220813"><ele>611.4</ele><time>2026-03-22T11:12:28.999Z</time></trkpt><trkpt lat="43.1040154" lon="13.2219833"><ele>615.0</ele><time>2026-03-22T11:12:30Z</time></trkpt><trkpt lat="43.1040617" lon="13.2218681"><ele>607.5</ele><time>2026-03-22T11:12:30.999Z</time></trkpt><trkpt lat="43.1040904" lon="13.221725"><ele>600.0</ele><time>2026-03-22T11:12:31.999Z</time></trkpt><trkpt lat="43.1041118" lon="13.221542"><ele>592.5</ele><time>2026-03-22T11:12:33Z</time></trkpt><trkpt lat="43.104137" lon="13.2213484"><ele>585.0</ele><time>2026-03-22T11:12:33.999Z</time></trkpt><trkpt lat="43.1041561" lon="13.2211613"><ele>585.0</ele><time>2026-03-22T11:12:35Z</time></trkpt><trkpt lat="43.1041608" lon="13.2209837"><ele>585.0</ele><time>2026-03-22T11:12:35.999Z</time></trkpt><trkpt lat="43.1041479" lon="13.2207966"><ele>585.0</ele><time>2026-03-22T11:12:37Z</time></trkpt><trkpt lat="43.104118" lon="13.2206151"><ele>585.0</ele><time>2026-03-22T11:12:37.999Z</time></trkpt><trkpt lat="43.1041005" lon="13.2204398"><ele>585.0</ele><time>2026-03-22T11:12:38.999Z</time></trkpt><trkpt lat="43.1041154" lon="13.2202783"><ele>585.0</ele><time>2026-03-22T11:12:40Z</time></trkpt><trkpt lat="43.1041636" lon="13.2201262"><ele>585.0</ele><time>2026-03-22T11:12:40.999Z</time></trkpt><trkpt lat="43.1042483" lon="13.2199769"><ele>585.0</ele><time>2026-03-22T11:12:41.999Z</time></trkpt><trkpt lat="43.104351" lon="13.2198242"><ele>584.75</ele><time>2026-03-22T11:12:43Z</time></trkpt><trkpt lat="43.1044453" lon="13.2196733"><ele>584.5</ele><time>2026-03-22T11:12:44Z</time></trkpt><trkpt lat="43.1045228" lon="13.219512"><ele>584.25</ele><time>2026-03-22T11:12:45Z</time></trkpt><trkpt lat="43.1045844" lon="13.2193427"><ele>584.0</ele><time>2026-03-22T11:12:46Z</time></trkpt><trkpt lat="43.1046412" lon="13.2191741"><ele>584.0</ele><time>2026-03-22T11:12:46.998Z</time></trkpt><trkpt lat="43.1046953" lon="13.2190171"><ele>584.0</ele><time>2026-03-22T11:12:48Z</time></trkpt><trkpt lat="43.104738" lon="13.2188672"><ele>584.0</ele><time>2026-03-22T11:12:49Z</time></trkpt><trkpt lat="43.1047539" lon="13.2187166"><ele>584.0</ele><time>2026-03-22T11:12:49.999Z</time></trkpt><trkpt lat="43.1047419" lon="13.2185676"><ele>583.5</ele><time>2026-03-22T11:12:50.999Z</time></trkpt><trkpt lat="43.1047055" lon="13.2184144"><ele>583.0</ele><time>2026-03-22T11:12:52Z</time></trkpt><trkpt lat="43.1046688" lon="13.2182548"><ele>582.5</ele><time>2026-03-22T11:12:53Z</time></trkpt><trkpt lat="43.104646" lon="13.2180919"><ele>582.0</ele><time>2026-03-22T11:12:54Z</time></trkpt><trkpt lat="43.1046361" lon="13.2179264"><ele>580.25</ele><time>2026-03-22T11:12:55Z</time></trkpt><trkpt lat="43.1046323" lon="13.2177604"><ele>578.5</ele><time>2026-03-22T11:12:55.999Z</time></trkpt><trkpt lat="43.1046281" lon="13.2175968"><ele>576.75</ele><time>2026-03-22T11:12:57Z</time></trkpt><trkpt lat="43.1046063" lon="13.2174491"><ele>575.0</ele><time>2026-03-22T11:12:58Z</time></trkpt><trkpt lat="43.1045642" lon="13.2173217"><ele>574.3333333333333</ele><time>2026-03-22T11:12:59Z</time></trkpt><trkpt lat="43.1045147" lon="13.2172027"><ele>573.6666666666666</ele><time>2026-03-22T11:13:00Z</time></trkpt><trkpt lat="43.1044796" lon="13.2170773"><ele>573.0</ele><time>2026-03-22T11:13:01Z</time></trkpt><trkpt lat="43.1044758" lon="13.2169578"><ele>572.3333333333334</ele><time>2026-03-22T11:13:01.999Z</time></trkpt><trkpt lat="43.1045092" lon="13.2168586"><ele>571.6666666666667</ele><time>2026-03-22T11:13:02.999Z</time></trkpt><trkpt lat="43.1045706" lon="13.2167941"><ele>571.0</ele><time>2026-03-22T11:13:03.999Z</time></trkpt><trkpt lat="43.1046364" lon="13.2167993"><ele>571.0</ele><time>2026-03-22T11:13:04.999Z</time></trkpt><trkpt lat="43.1046871" lon="13.2168618"><ele>571.0</ele><time>2026-03-22T11:13:06Z</time></trkpt><trkpt lat="43.1047308" lon="13.2169712"><ele>571.0</ele><time>2026-03-22T11:13:06.999Z</time></trkpt><trkpt lat="43.1047684" lon="13.2171041"><ele>571.0</ele><time>2026-03-22T11:13:07.999Z</time></trkpt><trkpt lat="43.1048235" lon="13.2172409"><ele>571.0</ele><time>2026-03-22T11:13:09Z</time></trkpt><trkpt lat="43.1048935" lon="13.2173671"><ele>566.75</ele><time>2026-03-22T11:13:09.999Z</time></trkpt><trkpt lat="43.1049783" lon="13.2174812"><ele>562.5</ele><time>2026-03-22T11:13:10.999Z</time></trkpt><trkpt lat="43.1050818" lon="13.2175789"><ele>558.25</ele><time>2026-03-22T11:13:12Z</time></trkpt><trkpt lat="43.1051878" lon="13.2176692"><ele>554.0</ele><time>2026-03-22T11:13:12.999Z</time></trkpt><trkpt lat="43.1052929" lon="13.217771"><ele>554.0</ele><time>2026-03-22T11:13:14Z</time></trkpt><trkpt lat="43.1053923" lon="13.2178803"><ele>554.0</ele><time>2026-03-22T11:13:14.999Z</time></trkpt><trkpt lat="43.105485" lon="13.2179999"><ele>554.0</ele><time>2026-03-22T11:13:16Z</time></trkpt><trkpt lat="43.1055727" lon="13.2181252"><ele>554.0</ele><time>2026-03-22T11:13:16.999Z</time></trkpt><trkpt lat="43.1056557" lon="13.2182532"><ele>554.5</ele><time>2026-03-22T11:13:17.999Z</time></trkpt><trkpt lat="43.1057328" lon="13.2183846"><ele>555.0</ele><time>2026-03-22T11:13:19Z</time></trkpt><trkpt lat="43.1058067" lon="13.2185163"><ele>555.5</ele><time>2026-03-22T11:13:19.998Z</time></trkpt><trkpt lat="43.1058815" lon="13.2186433"><ele>556.0</ele><time>2026-03-22T11:13:20.999Z</time></trkpt><trkpt lat="43.1059628" lon="13.2187607"><ele>551.25</ele><time>2026-03-22T11:13:22Z</time></trkpt><trkpt lat="43.1060499" lon="13.2188658"><ele>546.5</ele><time>2026-03-22T11:13:23Z</time></trkpt><trkpt lat="43.1061389" lon="13.2189645"><ele>541.75</ele><time>2026-03-22T11:13:23.999Z</time></trkpt><trkpt lat="43.1062327" lon="13.2190527"><ele>537.0</ele><time>2026-03-22T11:13:24.999Z</time></trkpt><trkpt lat="43.1063321" lon="13.2191381"><ele>535.75</ele><time>2026-03-22T11:13:25.999Z</time></trkpt><trkpt lat="43.1064365" lon="13.2192222"><ele>534.5</ele><time>2026-03-22T11:13:27Z</time></trkpt><trkpt lat="43.1065449" lon="13.2193036"><ele>533.25</ele><time>2026-03-22T11:13:28Z</time></trkpt><trkpt lat="43.1066536" lon="13.2193828"><ele>532.0</ele><time>2026-03-22T11:13:28.999Z</time></trkpt><trkpt lat="43.106766" lon="13.2194607"><ele>529.5</ele><time>2026-03-22T11:13:29.999Z</time></trkpt><trkpt lat="43.1068808" lon="13.2195365"><ele>527.0</ele><time>2026-03-22T11:13:31Z</time></trkpt><trkpt lat="43.1069965" lon="13.2196102"><ele>524.5</ele><time>2026-03-22T11:13:32Z</time></trkpt><trkpt lat="43.107109" lon="13.219682"><ele>522.0</ele><time>2026-03-22T11:13:32.999Z</time></trkpt><trkpt lat="43.1072124" lon="13.2197471"><ele>522.0</ele><time>2026-03-22T11:13:34Z</time></trkpt><trkpt lat="43.1073226" lon="13.219811"><ele>522.0</ele><time>2026-03-22T11:13:35Z</time></trkpt><trkpt lat="43.1074338" lon="13.2198745"><ele>522.0</ele><time>2026-03-22T11:13:35.999Z</time></trkpt><trkpt lat="43.107548" lon="13.2199411"><ele>522.0</ele><time>2026-03-22T11:13:37Z</time></trkpt><trkpt lat="43.1076635" lon="13.2200184"><ele>519.0</ele><time>2026-03-22T11:13:38Z</time></trkpt><trkpt lat="43.1077799" lon="13.2201099"><ele>516.0</ele><time>2026-03-22T11:13:39Z</time></trkpt><trkpt lat="43.107899" lon="13.2202111"><ele>513.0</ele><time>2026-03-22T11:13:39.999Z</time></trkpt><trkpt lat="43.108026" lon="13.2203155"><ele>510.0</ele><time>2026-03-22T11:13:41Z</time></trkpt><trkpt lat="43.1081567" lon="13.2204141"><ele>507.66666666666663</ele><time>2026-03-22T11:13:41.999Z</time></trkpt><trkpt lat="43.1082939" lon="13.2205013"><ele>505.3333333333333</ele><time>2026-03-22T11:13:42.999Z</time></trkpt><trkpt lat="43.1084392" lon="13.220582"><ele>503.0</ele><time>2026-03-22T11:13:44Z</time></trkpt><trkpt lat="43.1085888" lon="13.2206687"><ele>501.66666666666663</ele><time>2026-03-22T11:13:45Z</time></trkpt><trkpt lat="43.1087382" lon="13.2207673"><ele>500.33333333333337</ele><time>2026-03-22T11:13:45.999Z</time></trkpt><trkpt lat="43.1088809" lon="13.2208713"><ele>499.0</ele><time>2026-03-22T11:13:47Z</time></trkpt><trkpt lat="43.1090189" lon="13.2209647"><ele>499.0</ele><time>2026-03-22T11:13:48Z</time></trkpt><trkpt lat="43.1091504" lon="13.2210456"><ele>499.0</ele><time>2026-03-22T11:13:49Z</time></trkpt><trkpt lat="43.10927" lon="13.221117"><ele>499.0</ele><time>2026-03-22T11:13:50Z</time></trkpt><trkpt lat="43.1093698" lon="13.2211904"><ele>499.0</ele><time>2026-03-22T11:13:50.999Z</time></trkpt><trkpt lat="43.1094421" lon="13.221278"><ele>499.0</ele><time>2026-03-22T11:13:52Z</time></trkpt><trkpt lat="43.1094905" lon="13.2213854"><ele>499.0</ele><time>2026-03-22T11:13:52.999Z</time></trkpt><trkpt lat="43.1095225" lon="13.2215072"><ele>499.0</ele><time>2026-03-22T11:13:54Z</time></trkpt><trkpt lat="43.1095602" lon="13.2216417"><ele>499.0</ele><time>2026-03-22T11:13:55Z</time></trkpt><trkpt lat="43.1096129" lon="13.2217756"><ele>499.0</ele><time>2026-03-22T11:13:55.999Z</time></trkpt><trkpt lat="43.1096802" lon="13.2219214"><ele>499.0</ele><time>2026-03-22T11:13:57Z</time></trkpt><trkpt lat="43.1097456" lon="13.2220562"><ele>499.0</ele><time>2026-03-22T11:13:58Z</time></trkpt><trkpt lat="43.1098122" lon="13.2221667"><ele>499.0</ele><time>2026-03-22T11:13:58.999Z</time></trkpt><trkpt lat="43.1098857" lon="13.222252"><ele>499.0</ele><time>2026-03-22T11:14:00Z</time></trkpt><trkpt lat="43.10997" lon="13.2223304"><ele>499.0</ele><time>2026-03-22T11:14:01Z</time></trkpt><trkpt lat="43.1100698" lon="13.2224168"><ele>500.25</ele><time>2026-03-22T11:14:02Z</time></trkpt><trkpt lat="43.1101754" lon="13.2224995"><ele>501.5</ele><time>2026-03-22T11:14:02.999Z</time></trkpt><trkpt lat="43.1102861" lon="13.2225738"><ele>502.75</ele><time>2026-03-22T11:14:03.999Z</time></trkpt><trkpt lat="43.110396" lon="13.2226462"><ele>504.0</ele><time>2026-03-22T11:14:04.999Z</time></trkpt><trkpt lat="43.1105046" lon="13.2227321"><ele>504.0</ele><time>2026-03-22T11:14:06Z</time></trkpt><trkpt lat="43.1106114" lon="13.2228339"><ele>504.0</ele><time>2026-03-22T11:14:07Z</time></trkpt><trkpt lat="43.1107172" lon="13.2229358"><ele>504.0</ele><time>2026-03-22T11:14:07.999Z</time></trkpt><trkpt lat="43.1108205" lon="13.2230361"><ele>504.0</ele><time>2026-03-22T11:14:08.999Z</time></trkpt><trkpt lat="43.1109195" lon="13.2231314"><ele>502.6</ele><time>2026-03-22T11:14:09.999Z</time></trkpt><trkpt lat="43.1110136" lon="13.2232201"><ele>501.2</ele><time>2026-03-22T11:14:10.999Z</time></trkpt><trkpt lat="43.1111051" lon="13.2232932"><ele>499.80000000000007</ele><time>2026-03-22T11:14:12Z</time></trkpt><trkpt lat="43.1111976" lon="13.2233488"><ele>498.40000000000003</ele><time>2026-03-22T11:14:12.999Z</time></trkpt><trkpt lat="43.1112913" lon="13.2233907"><ele>497.0</ele><time>2026-03-22T11:14:13.999Z</time></trkpt><trkpt lat="43.1113883" lon="13.2234251"><ele>497.0</ele><time>2026-03-22T11:14:14.999Z</time></trkpt><trkpt lat="43.1114898" lon="13.2234621"><ele>497.00000000000006</ele><time>2026-03-22T11:14:15.999Z</time></trkpt><trkpt lat="43.1115973" lon="13.2234921"><ele>497.00000000000006</ele><time>2026-03-22T11:14:16.999Z</time></trkpt><trkpt lat="43.1117087" lon="13.2235171"><ele>497.0</ele><time>2026-03-22T11:14:17.999Z</time></trkpt><trkpt lat="43.111823" lon="13.2235421"><ele>497.0</ele><time>2026-03-22T11:14:19Z</time></trkpt><trkpt lat="43.1119412" lon="13.2235584"><ele>500.5</ele><time>2026-03-22T11:14:19.999Z</time></trkpt><trkpt lat="43.112058" lon="13.2235764"><ele>504.0</ele><time>2026-03-22T11:14:20.999Z</time></trkpt><trkpt lat="43.11218" lon="13.2235688"><ele>507.5</ele><time>2026-03-22T11:14:21.999Z</time></trkpt><trkpt lat="43.1122975" lon="13.2235785"><ele>511.0</ele><time>2026-03-22T11:14:22.998Z</time></trkpt><trkpt lat="43.1124204" lon="13.2236136"><ele>513.6</ele><time>2026-03-22T11:14:23.999Z</time></trkpt><trkpt lat="43.1125358" lon="13.2236642"><ele>516.2</ele><time>2026-03-22T11:14:24.999Z</time></trkpt><trkpt lat="43.1126411" lon="13.2237226"><ele>518.8</ele><time>2026-03-22T11:14:25.999Z</time></trkpt><trkpt lat="43.1127397" lon="13.2237758"><ele>521.4</ele><time>2026-03-22T11:14:26.999Z</time></trkpt><trkpt lat="43.1128386" lon="13.2238191"><ele>524.0</ele><time>2026-03-22T11:14:27.999Z</time></trkpt><trkpt lat="43.1129279" lon="13.2238488"><ele>524.0</ele><time>2026-03-22T11:14:28.999Z</time></trkpt><trkpt lat="43.1130104" lon="13.2238828"><ele>524.0</ele><time>2026-03-22T11:14:30Z</time></trkpt><trkpt lat="43.1130881" lon="13.2239097"><ele>524.0</ele><time>2026-03-22T11:14:30.999Z</time></trkpt><trkpt lat="43.1131699" lon="13.223927"><ele>524.0</ele><time>2026-03-22T11:14:31.999Z</time></trkpt><trkpt lat="43.1132579" lon="13.2239261"><ele>524.0</ele><time>2026-03-22T11:14:33Z</time></trkpt><trkpt lat="43.1133445" lon="13.2239139"><ele>524.0</ele><time>2026-03-22T11:14:34Z</time></trkpt><trkpt lat="43.1134423" lon="13.2238652"><ele>524.75</ele><time>2026-03-22T11:14:35Z</time></trkpt><trkpt lat="43.1135519" lon="13.2238051"><ele>525.5</ele><time>2026-03-22T11:14:36Z</time></trkpt><trkpt lat="43.1136546" lon="13.2237481"><ele>526.25</ele><time>2026-03-22T11:14:37Z</time></trkpt><trkpt lat="43.1137648" lon="13.2236902"><ele>527.0</ele><time>2026-03-22T11:14:38Z</time></trkpt><trkpt lat="43.1138735" lon="13.2236301"><ele>527.0</ele><time>2026-03-22T11:14:39Z</time></trkpt><trkpt lat="43.113992" lon="13.223595"><ele>527.0</ele><time>2026-03-22T11:14:39.999Z</time></trkpt><trkpt lat="43.1141092" lon="13.2235762"><ele>527.0</ele><time>2026-03-22T11:14:40.999Z</time></trkpt><trkpt lat="43.1142238" lon="13.2235795"><ele>527.0</ele><time>2026-03-22T11:14:41.999Z</time></trkpt><trkpt lat="43.1143318" lon="13.2236088"><ele>524.6</ele><time>2026-03-22T11:14:43Z</time></trkpt><trkpt lat="43.1144382" lon="13.2236584"><ele>522.2</ele><time>2026-03-22T11:14:44Z</time></trkpt><trkpt lat="43.1145403" lon="13.2237204"><ele>519.8</ele><time>2026-03-22T11:14:45Z</time></trkpt><trkpt lat="43.1146363" lon="13.2238033"><ele>517.4</ele><time>2026-03-22T11:14:46Z</time></trkpt><trkpt lat="43.1147234" lon="13.2238893"><ele>515.0</ele><time>2026-03-22T11:14:46.999Z</time></trkpt><trkpt lat="43.1148193" lon="13.2239608"><ele>510.4</ele><time>2026-03-22T11:14:48Z</time></trkpt><trkpt lat="43.1149207" lon="13.2240089"><ele>505.8</ele><time>2026-03-22T11:14:49Z</time></trkpt><trkpt lat="43.1150254" lon="13.2240443"><ele>501.20000000000005</ele><time>2026-03-22T11:14:49.999Z</time></trkpt><trkpt lat="43.1151332" lon="13.2240704"><ele>496.6</ele><time>2026-03-22T11:14:51Z</time></trkpt><trkpt lat="43.1152461" lon="13.2240812"><ele>492.0</ele><time>2026-03-22T11:14:52Z</time></trkpt><trkpt lat="43.1153612" lon="13.2240799"><ele>492.0</ele><time>2026-03-22T11:14:52.999Z</time></trkpt><trkpt lat="43.1154774" lon="13.2240716"><ele>492.0</ele><time>2026-03-22T11:14:53.999Z</time></trkpt><trkpt lat="43.1155948" lon="13.2240587"><ele>492.0</ele><time>2026-03-22T11:14:54.999Z</time></trkpt><trkpt lat="43.1157049" lon="13.2240461"><ele>492.0</ele><time>2026-03-22T11:14:55.999Z</time></trkpt><trkpt lat="43.1158127" lon="13.2240371"><ele>490.20000000000005</ele><time>2026-03-22T11:14:56.999Z</time></trkpt><trkpt lat="43.115905" lon="13.2240426"><ele>488.40000000000003</ele><time>2026-03-22T11:14:57.999Z</time></trkpt><trkpt lat="43.1159937" lon="13.2240737"><ele>486.59999999999997</ele><time>2026-03-22T11:14:59Z</time></trkpt><trkpt lat="43.1160715" lon="13.2241352"><ele>484.79999999999995</ele><time>2026-03-22T11:15:00Z</time></trkpt><trkpt lat="43.1161389" lon="13.2242208"><ele>483.0</ele><time>2026-03-22T11:15:00.999Z</time></trkpt><trkpt lat="43.1162072" lon="13.2243248"><ele>483.0</ele><time>2026-03-22T11:15:02Z</time></trkpt><trkpt lat="43.1162785" lon="13.2244386"><ele>483.0</ele><time>2026-03-22T11:15:03Z</time></trkpt><trkpt lat="43.1163554" lon="13.2245607"><ele>483.0</ele><time>2026-03-22T11:15:04Z</time></trkpt><trkpt lat="43.1164406" lon="13.2246725"><ele>483.0</ele><time>2026-03-22T11:15:04.999Z</time></trkpt><trkpt lat="43.1165435" lon="13.2247717"><ele>482.25</ele><time>2026-03-22T11:15:06Z</time></trkpt><trkpt lat="43.1166442" lon="13.2248539"><ele>481.5</ele><time>2026-03-22T11:15:06.999Z</time></trkpt><trkpt lat="43.1167469" lon="13.2249287"><ele>480.75</ele><time>2026-03-22T11:15:07.999Z</time></trkpt><trkpt lat="43.1168518" lon="13.2250167"><ele>480.0</ele><time>2026-03-22T11:15:08.999Z</time></trkpt><trkpt lat="43.1169553" lon="13.2251044"><ele>480.0</ele><time>2026-03-22T11:15:09.999Z</time></trkpt><trkpt lat="43.1170569" lon="13.2251989"><ele>480.0</ele><time>2026-03-22T11:15:10.999Z</time></trkpt><trkpt lat="43.1171566" lon="13.2252967"><ele>480.0</ele><time>2026-03-22T11:15:12Z</time></trkpt><trkpt lat="43.1172483" lon="13.2254017"><ele>480.0</ele><time>2026-03-22T11:15:12.999Z</time></trkpt><trkpt lat="43.1173339" lon="13.2255036"><ele>479.75</ele><time>2026-03-22T11:15:13.999Z</time></trkpt><trkpt lat="43.1174192" lon="13.2256072"><ele>479.5</ele><time>2026-03-22T11:15:15Z</time></trkpt><trkpt lat="43.1175062" lon="13.2257068"><ele>479.25</ele><time>2026-03-22T11:15:15.999Z</time></trkpt><trkpt lat="43.1175935" lon="13.2258049"><ele>479.0</ele><time>2026-03-22T11:15:17Z</time></trkpt><trkpt lat="43.117683" lon="13.2258988"><ele>479.0</ele><time>2026-03-22T11:15:18Z</time></trkpt><trkpt lat="43.1177768" lon="13.2259928"><ele>479.0</ele><time>2026-03-22T11:15:18.999Z</time></trkpt><trkpt lat="43.1178731" lon="13.2260868"><ele>479.0</ele><time>2026-03-22T11:15:20Z</time></trkpt><trkpt lat="43.1179722" lon="13.2261753"><ele>479.0</ele><time>2026-03-22T11:15:21Z</time></trkpt><trkpt lat="43.1180762" lon="13.2262663"><ele>479.0</ele><time>2026-03-22T11:15:22Z</time></trkpt><trkpt lat="43.1181824" lon="13.2263548"><ele>479.0</ele><time>2026-03-22T11:15:22.999Z</time></trkpt><trkpt lat="43.1182907" lon="13.2264476"><ele>479.0</ele><time>2026-03-22T11:15:23.999Z</time></trkpt><trkpt lat="43.1183952" lon="13.2265523"><ele>479.0</ele><time>2026-03-22T11:15:24.999Z</time></trkpt><trkpt lat="43.1184932" lon="13.2266729"><ele>476.75</ele><time>2026-03-22T11:15:26Z</time></trkpt><trkpt lat="43.1185885" lon="13.2268009"><ele>474.5</ele><time>2026-03-22T11:15:27Z</time></trkpt><trkpt lat="43.1186812" lon="13.226934"><ele>472.25</ele><time>2026-03-22T11:15:27.999Z</time></trkpt><trkpt lat="43.1187733" lon="13.2270679"><ele>470.0</ele><time>2026-03-22T11:15:28.999Z</time></trkpt><trkpt lat="43.118863" lon="13.2272097"><ele>467.5</ele><time>2026-03-22T11:15:30Z</time></trkpt><trkpt lat="43.1189411" lon="13.2273651"><ele>465.0</ele><time>2026-03-22T11:15:31Z</time></trkpt><trkpt lat="43.1190095" lon="13.2275292"><ele>462.5</ele><time>2026-03-22T11:15:32Z</time></trkpt><trkpt lat="43.1190766" lon="13.227696"><ele>460.0</ele><time>2026-03-22T11:15:32.999Z</time></trkpt><trkpt lat="43.1191426" lon="13.2278611"><ele>460.0</ele><time>2026-03-22T11:15:33.999Z</time></trkpt><trkpt lat="43.1192174" lon="13.2280129"><ele>460.0</ele><time>2026-03-22T11:15:34.999Z</time></trkpt><trkpt lat="43.1193061" lon="13.2281435"><ele>460.0</ele><time>2026-03-22T11:15:35.999Z</time></trkpt><trkpt lat="43.1194015" lon="13.2282508"><ele>460.0</ele><time>2026-03-22T11:15:36.998Z</time></trkpt><trkpt lat="43.1195068" lon="13.2283277"><ele>458.6</ele><time>2026-03-22T11:15:37.998Z</time></trkpt><trkpt lat="43.1196173" lon="13.2283708"><ele>457.2</ele><time>2026-03-22T11:15:39Z</time></trkpt><trkpt lat="43.1197285" lon="13.2283819"><ele>455.79999999999995</ele><time>2026-03-22T11:15:39.999Z</time></trkpt><trkpt lat="43.119837" lon="13.2283723"><ele>454.4</ele><time>2026-03-22T11:15:41Z</time></trkpt><trkpt lat="43.1199452" lon="13.2283518"><ele>453.0</ele><time>2026-03-22T11:15:42Z</time></trkpt><trkpt lat="43.1200536" lon="13.228326"><ele>453.0</ele><time>2026-03-22T11:15:43Z</time></trkpt><trkpt lat="43.1201641" lon="13.2283024"><ele>453.0</ele><time>2026-03-22T11:15:43.999Z</time></trkpt><trkpt lat="43.1202774" lon="13.2282786"><ele>453.0</ele><time>2026-03-22T11:15:44.999Z</time></trkpt><trkpt lat="43.1203938" lon="13.2282613"><ele>453.0</ele><time>2026-03-22T11:15:45.999Z</time></trkpt><trkpt lat="43.1205117" lon="13.22824"><ele>453.0</ele><time>2026-03-22T11:15:47Z</time></trkpt><trkpt lat="43.1206312" lon="13.2282031"><ele>453.0</ele><time>2026-03-22T11:15:48Z</time></trkpt><trkpt lat="43.1207505" lon="13.2281564"><ele>453.0</ele><time>2026-03-22T11:15:49Z</time></trkpt><trkpt lat="43.1208693" lon="13.2281026"><ele>453.0</ele><time>2026-03-22T11:15:49.999Z</time></trkpt><trkpt lat="43.1209879" lon="13.2280412"><ele>446.75</ele><time>2026-03-22T11:15:50.999Z</time></trkpt><trkpt lat="43.121108" lon="13.2279791"><ele>440.5</ele><time>2026-03-22T11:15:52Z</time></trkpt><trkpt lat="43.1212278" lon="13.2279172"><ele>434.25</ele><time>2026-03-22T11:15:53Z</time></trkpt><trkpt lat="43.1213478" lon="13.2278566"><ele>428.0</ele><time>2026-03-22T11:15:54Z</time></trkpt><trkpt lat="43.1214688" lon="13.2277992"><ele>427.0</ele><time>2026-03-22T11:15:54.999Z</time></trkpt><trkpt lat="43.1215899" lon="13.2277516"><ele>426.0</ele><time>2026-03-22T11:15:56Z</time></trkpt><trkpt lat="43.12171" lon="13.2277173"><ele>425.0</ele><time>2026-03-22T11:15:57Z</time></trkpt><trkpt lat="43.1218253" lon="13.227675"><ele>424.0</ele><time>2026-03-22T11:15:57.999Z</time></trkpt><trkpt lat="43.1219317" lon="13.227593"><ele>424.0</ele><time>2026-03-22T11:15:58.999Z</time></trkpt><trkpt lat="43.1220341" lon="13.227479"><ele>424.0</ele><time>2026-03-22T11:16:00Z</time></trkpt><trkpt lat="43.1221221" lon="13.2273461"><ele>424.0</ele><time>2026-03-22T11:16:01Z</time></trkpt><trkpt lat="43.1222076" lon="13.2272209"><ele>424.0</ele><time>2026-03-22T11:16:02Z</time></trkpt><trkpt lat="43.1223084" lon="13.2271256"><ele>420.25</ele><time>2026-03-22T11:16:02.999Z</time></trkpt><trkpt lat="43.1224212" lon="13.2270748"><ele>416.5</ele><time>2026-03-22T11:16:04Z</time></trkpt><trkpt lat="43.1225428" lon="13.2270583"><ele>412.75</ele><time>2026-03-22T11:16:04.999Z</time></trkpt><trkpt lat="43.1226623" lon="13.2270831"><ele>409.0</ele><time>2026-03-22T11:16:06Z</time></trkpt><trkpt lat="43.122774" lon="13.2271464"><ele>409.0</ele><time>2026-03-22T11:16:07Z</time></trkpt><trkpt lat="43.1228871" lon="13.2272015"><ele>409.0</ele><time>2026-03-22T11:16:07.999Z</time></trkpt><trkpt lat="43.1230185" lon="13.2272118"><ele>409.0</ele><time>2026-03-22T11:16:09Z</time></trkpt><trkpt lat="43.1231697" lon="13.2271931"><ele>409.0</ele><time>2026-03-22T11:16:09.999Z</time></trkpt><trkpt lat="43.1233256" lon="13.2271662"><ele>409.0</ele><time>2026-03-22T11:16:10.999Z</time></trkpt><trkpt lat="43.1234874" lon="13.2271403"><ele>409.0</ele><time>2026-03-22T11:16:12Z</time></trkpt><trkpt lat="43.1236507" lon="13.2271037"><ele>409.0</ele><time>2026-03-22T11:16:13Z</time></trkpt><trkpt lat="43.1238101" lon="13.2270558"><ele>409.0</ele><time>2026-03-22T11:16:14Z</time></trkpt><trkpt lat="43.123963" lon="13.2270002"><ele>409.0</ele><time>2026-03-22T11:16:14.999Z</time></trkpt><trkpt lat="43.1241065" lon="13.2269334"><ele>409.0</ele><time>2026-03-22T11:16:15.999Z</time></trkpt><trkpt lat="43.1242505" lon="13.2268592"><ele>409.6666666666667</ele><time>2026-03-22T11:16:16.999Z</time></trkpt><trkpt lat="43.1244019" lon="13.2267931"><ele>410.33333333333337</ele><time>2026-03-22T11:16:18Z</time></trkpt><trkpt lat="43.1245683" lon="13.2267377"><ele>411.0</ele><time>2026-03-22T11:16:18.999Z</time></trkpt><trkpt lat="43.1247337" lon="13.2266933"><ele>408.66666666666663</ele><time>2026-03-22T11:16:19.999Z</time></trkpt><trkpt lat="43.1248962" lon="13.2266669"><ele>406.3333333333333</ele><time>2026-03-22T11:16:20.999Z</time></trkpt><trkpt lat="43.1250451" lon="13.2266605"><ele>404.0</ele><time>2026-03-22T11:16:21.999Z</time></trkpt><trkpt lat="43.125185" lon="13.2266722"><ele>404.0</ele><time>2026-03-22T11:16:23Z</time></trkpt><trkpt lat="43.1253204" lon="13.2266663"><ele>404.0</ele><time>2026-03-22T11:16:24Z</time></trkpt><trkpt lat="43.1254455" lon="13.2266241"><ele>404.0</ele><time>2026-03-22T11:16:25Z</time></trkpt><trkpt lat="43.1255572" lon="13.2265445"><ele>404.0</ele><time>2026-03-22T11:16:26Z</time></trkpt><trkpt lat="43.1256613" lon="13.2264563"><ele>399.0</ele><time>2026-03-22T11:16:26.998Z</time></trkpt><trkpt lat="43.1257757" lon="13.2263963"><ele>394.0</ele><time>2026-03-22T11:16:27.999Z</time></trkpt><trkpt lat="43.1259113" lon="13.2263692"><ele>389.0</ele><time>2026-03-22T11:16:28.999Z</time></trkpt><trkpt lat="43.1260645" lon="13.2263436"><ele>384.0</ele><time>2026-03-22T11:16:30Z</time></trkpt><trkpt lat="43.1262256" lon="13.2263359"><ele>384.0</ele><time>2026-03-22T11:16:31Z</time></trkpt><trkpt lat="43.1263868" lon="13.2263516"><ele>384.0</ele><time>2026-03-22T11:16:31.999Z</time></trkpt><trkpt lat="43.12654" lon="13.2263619"><ele>384.0</ele><time>2026-03-22T11:16:33Z</time></trkpt><trkpt lat="43.1266862" lon="13.2263796"><ele>382.0</ele><time>2026-03-22T11:16:34Z</time></trkpt><trkpt lat="43.1268271" lon="13.2264226"><ele>380.0</ele><time>2026-03-22T11:16:35Z</time></trkpt><trkpt lat="43.1269712" lon="13.2264938"><ele>378.0</ele><time>2026-03-22T11:16:36Z</time></trkpt><trkpt lat="43.1271262" lon="13.2265806"><ele>376.3333333333333</ele><time>2026-03-22T11:16:36.999Z</time></trkpt><trkpt lat="43.1273035" lon="13.22666"><ele>374.66666666666663</ele><time>2026-03-22T11:16:37.999Z</time></trkpt><trkpt lat="43.1275085" lon="13.2267263"><ele>373.0</ele><time>2026-03-22T11:16:39Z</time></trkpt><trkpt lat="43.1276956" lon="13.226788"><ele>373.0</ele><time>2026-03-22T11:16:40Z</time></trkpt><trkpt lat="43.1278631" lon="13.2268435"><ele>373.0</ele><time>2026-03-22T11:16:40.999Z</time></trkpt><trkpt lat="43.1280127" lon="13.2268823"><ele>373.0</ele><time>2026-03-22T11:16:41.999Z</time></trkpt><trkpt lat="43.1281515" lon="13.2269115"><ele>369.5</ele><time>2026-03-22T11:16:43Z</time></trkpt><trkpt lat="43.1282832" lon="13.2269131"><ele>366.0</ele><time>2026-03-22T11:16:43.999Z</time></trkpt><trkpt lat="43.1284316" lon="13.2268849"><ele>362.5</ele><time>2026-03-22T11:16:44.999Z</time></trkpt><trkpt lat="43.1285701" lon="13.2268471"><ele>359.0</ele><time>2026-03-22T11:16:46Z</time></trkpt><trkpt lat="43.1286931" lon="13.2268115"><ele>359.0</ele><time>2026-03-22T11:16:47Z</time></trkpt><trkpt lat="43.1288052" lon="13.2267582"><ele>359.0</ele><time>2026-03-22T11:16:47.999Z</time></trkpt><trkpt lat="43.1289159" lon="13.2266922"><ele>359.0</ele><time>2026-03-22T11:16:48.999Z</time></trkpt><trkpt lat="43.1290254" lon="13.2266183"><ele>359.0</ele><time>2026-03-22T11:16:50Z</time></trkpt><trkpt lat="43.1291345" lon="13.2265375"><ele>356.25</ele><time>2026-03-22T11:16:50.999Z</time></trkpt><trkpt lat="43.129246" lon="13.2264561"><ele>353.5</ele><time>2026-03-22T11:16:51.999Z</time></trkpt><trkpt lat="43.1293608" lon="13.226376"><ele>350.75</ele><time>2026-03-22T11:16:52.999Z</time></trkpt><trkpt lat="43.1294753" lon="13.2262932"><ele>348.0</ele><time>2026-03-22T11:16:54Z</time></trkpt><trkpt lat="43.1295917" lon="13.2262072"><ele>348.0</ele><time>2026-03-22T11:16:55Z</time></trkpt><trkpt lat="43.1297105" lon="13.2261245"><ele>348.0</ele><time>2026-03-22T11:16:56Z</time></trkpt><trkpt lat="43.1298246" lon="13.2260504"><ele>348.0</ele><time>2026-03-22T11:16:56.999Z</time></trkpt><trkpt lat="43.1299342" lon="13.2259811"><ele>348.0</ele><time>2026-03-22T11:16:57.999Z</time></trkpt><trkpt lat="43.1300431" lon="13.2259216"><ele>344.4</ele><time>2026-03-22T11:16:58.999Z</time></trkpt><trkpt lat="43.1301288" lon="13.225861"><ele>340.79999999999995</ele><time>2026-03-22T11:16:59.999Z</time></trkpt><trkpt lat="43.130222" lon="13.2258151"><ele>337.2</ele><time>2026-03-22T11:17:01Z</time></trkpt><trkpt lat="43.1303168" lon="13.2257976"><ele>333.6</ele><time>2026-03-22T11:17:01.999Z</time></trkpt><trkpt lat="43.130412" lon="13.2258143"><ele>330.0</ele><time>2026-03-22T11:17:02.999Z</time></trkpt><trkpt lat="43.1305045" lon="13.2258587"><ele>330.0</ele><time>2026-03-22T11:17:03.999Z</time></trkpt><trkpt lat="43.1305943" lon="13.2258691"><ele>330.0</ele><time>2026-03-22T11:17:05Z</time></trkpt><trkpt lat="43.1306821" lon="13.2258418"><ele>330.0</ele><time>2026-03-22T11:17:06Z</time></trkpt><trkpt lat="43.1307804" lon="13.2258267"><ele>330.0</ele><time>2026-03-22T11:17:06.999Z</time></trkpt><trkpt lat="43.1308669" lon="13.2258532"><ele>330.0</ele><time>2026-03-22T11:17:07.999Z</time></trkpt><trkpt lat="43.130961" lon="13.2258708"><ele>328.5</ele><time>2026-03-22T11:17:09Z</time></trkpt><trkpt lat="43.1310439" lon="13.225859"><ele>327.0</ele><time>2026-03-22T11:17:09.999Z</time></trkpt><trkpt lat="43.1311194" lon="13.2258359"><ele>325.5</ele><time>2026-03-22T11:17:10.999Z</time></trkpt><trkpt lat="43.1311938" lon="13.2257999"><ele>324.0</ele><time>2026-03-22T11:17:12Z</time></trkpt><trkpt lat="43.1312693" lon="13.2257605"><ele>322.5</ele><time>2026-03-22T11:17:12.999Z</time></trkpt><trkpt lat="43.1313396" lon="13.225721"><ele>321.0</ele><time>2026-03-22T11:17:14Z</time></trkpt><trkpt lat="43.1314049" lon="13.2256801"><ele>322.0</ele><time>2026-03-22T11:17:14.999Z</time></trkpt><trkpt lat="43.1314676" lon="13.2256346"><ele>323.0</ele><time>2026-03-22T11:17:16Z</time></trkpt><trkpt lat="43.1315382" lon="13.2255651"><ele>324.0</ele><time>2026-03-22T11:17:17.999Z</time></trkpt><trkpt lat="43.1315762" lon="13.2254938"><ele>325.0</ele><time>2026-03-22T11:17:20.999Z</time></trkpt><trkpt lat="43.1315263" lon="13.2253812"><ele>326.0</ele><time>2026-03-22T11:18:30Z</time></trkpt><trkpt lat="43.1314677" lon="13.2253072"><ele>327.0</ele><time>2026-03-22T11:18:31Z</time></trkpt><trkpt lat="43.1313973" lon="13.225229"><ele>327.5</ele><time>2026-03-22T11:18:32Z</time></trkpt><trkpt lat="43.1312988" lon="13.2251321"><ele>328.0</ele><time>2026-03-22T11:18:32.999Z</time></trkpt><trkpt lat="43.1311851" lon="13.2250149"><ele>328.5</ele><time>2026-03-22T11:18:33.999Z</time></trkpt><trkpt lat="43.1310681" lon="13.2248863"><ele>329.0</ele><time>2026-03-22T11:18:35Z</time></trkpt><trkpt lat="43.1309486" lon="13.2247397"><ele>329.6666666666667</ele><time>2026-03-22T11:18:35.999Z</time></trkpt><trkpt lat="43.1308292" lon="13.2245818"><ele>330.3333333333333</ele><time>2026-03-22T11:18:36.999Z</time></trkpt><trkpt lat="43.1307079" lon="13.224423"><ele>331.0</ele><time>2026-03-22T11:18:37.998Z</time></trkpt><trkpt lat="43.1305872" lon="13.2242679"><ele>331.66666666666663</ele><time>2026-03-22T11:18:39Z</time></trkpt><trkpt lat="43.1304688" lon="13.2241133"><ele>332.3333333333333</ele><time>2026-03-22T11:18:40Z</time></trkpt><trkpt lat="43.1303547" lon="13.2239628"><ele>333.0</ele><time>2026-03-22T11:18:40.999Z</time></trkpt><trkpt lat="43.130236" lon="13.2238132"><ele>333.6666666666667</ele><time>2026-03-22T11:18:41.999Z</time></trkpt><trkpt lat="43.1301179" lon="13.2236658"><ele>334.33333333333337</ele><time>2026-03-22T11:18:43Z</time></trkpt><trkpt lat="43.1300039" lon="13.2235169"><ele>335.0</ele><time>2026-03-22T11:18:43.999Z</time></trkpt><trkpt lat="43.1298927" lon="13.2233684"><ele>335.25</ele><time>2026-03-22T11:18:45Z</time></trkpt><trkpt lat="43.129785" lon="13.2232172"><ele>335.5</ele><time>2026-03-22T11:18:46Z</time></trkpt><trkpt lat="43.1296882" lon="13.2230741"><ele>335.75</ele><time>2026-03-22T11:18:47Z</time></trkpt><trkpt lat="43.1296041" lon="13.2229392"><ele>336.0</ele><time>2026-03-22T11:18:47.999Z</time></trkpt><trkpt lat="43.1295294" lon="13.2228076"><ele>337.0</ele><time>2026-03-22T11:18:48.999Z</time></trkpt><trkpt lat="43.1294689" lon="13.2226897"><ele>338.0</ele><time>2026-03-22T11:18:49.999Z</time></trkpt><trkpt lat="43.1294168" lon="13.2225712"><ele>339.0</ele><time>2026-03-22T11:18:51Z</time></trkpt><trkpt lat="43.1293638" lon="13.2224411"><ele>340.0</ele><time>2026-03-22T11:18:52Z</time></trkpt><trkpt lat="43.1293082" lon="13.2223024"><ele>341.0</ele><time>2026-03-22T11:18:53Z</time></trkpt><trkpt lat="43.129242" lon="13.2221593"><ele>342.0</ele><time>2026-03-22T11:18:53.999Z</time></trkpt><trkpt lat="43.1291792" lon="13.2220295"><ele>343.0</ele><time>2026-03-22T11:18:54.999Z</time></trkpt><trkpt lat="43.1291236" lon="13.2219202"><ele>344.0</ele><time>2026-03-22T11:18:56Z</time></trkpt><trkpt lat="43.1290732" lon="13.2218234"><ele>345.0</ele><time>2026-03-22T11:18:56.999Z</time></trkpt><trkpt lat="43.1290248" lon="13.2217299"><ele>346.0</ele><time>2026-03-22T11:18:57.999Z</time></trkpt><trkpt lat="43.1289737" lon="13.2216344"><ele>346.4</ele><time>2026-03-22T11:18:59Z</time></trkpt><trkpt lat="43.1289103" lon="13.22154"><ele>346.8</ele><time>2026-03-22T11:19:00Z</time></trkpt><trkpt lat="43.1288381" lon="13.2214479"><ele>347.2</ele><time>2026-03-22T11:19:00.999Z</time></trkpt><trkpt lat="43.1287606" lon="13.221355"><ele>347.59999999999997</ele><time>2026-03-22T11:19:01.999Z</time></trkpt><trkpt lat="43.1286782" lon="13.2212645"><ele>348.0</ele><time>2026-03-22T11:19:02.999Z</time></trkpt><trkpt lat="43.1285929" lon="13.2211773"><ele>348.4</ele><time>2026-03-22T11:19:03.999Z</time></trkpt><trkpt lat="43.1285024" lon="13.2210912"><ele>348.79999999999995</ele><time>2026-03-22T11:19:05Z</time></trkpt><trkpt lat="43.1284125" lon="13.2210026"><ele>349.2</ele><time>2026-03-22T11:19:05.999Z</time></trkpt><trkpt lat="43.1283218" lon="13.2209112"><ele>349.6</ele><time>2026-03-22T11:19:06.999Z</time></trkpt><trkpt lat="43.1282281" lon="13.2208198"><ele>350.0</ele><time>2026-03-22T11:19:08Z</time></trkpt><trkpt lat="43.1281305" lon="13.2207319"><ele>351.25</ele><time>2026-03-22T11:19:09Z</time></trkpt><trkpt lat="43.1280327" lon="13.2206438"><ele>352.5</ele><time>2026-03-22T11:19:10Z</time></trkpt><trkpt lat="43.1279378" lon="13.2205533"><ele>353.75</ele><time>2026-03-22T11:19:11Z</time></trkpt><trkpt lat="43.127845" lon="13.2204619"><ele>355.0</ele><time>2026-03-22T11:19:12Z</time></trkpt><trkpt lat="43.1277512" lon="13.2203693"><ele>355.0</ele><time>2026-03-22T11:19:12.999Z</time></trkpt><trkpt lat="43.127655" lon="13.2202739"><ele>355.0</ele><time>2026-03-22T11:19:13.998Z</time></trkpt><trkpt lat="43.1275601" lon="13.2201694"><ele>355.0</ele><time>2026-03-22T11:19:15Z</time></trkpt><trkpt lat="43.1274652" lon="13.2200567"><ele>355.0</ele><time>2026-03-22T11:19:15.998Z</time></trkpt><trkpt lat="43.1273719" lon="13.2199345"><ele>355.0</ele><time>2026-03-22T11:19:17Z</time></trkpt><trkpt lat="43.1272846" lon="13.2197993"><ele>355.0</ele><time>2026-03-22T11:19:17.999Z</time></trkpt><trkpt lat="43.1272042" lon="13.2196539"><ele>355.0</ele><time>2026-03-22T11:19:18.999Z</time></trkpt><trkpt lat="43.1271314" lon="13.2195029"><ele>355.0</ele><time>2026-03-22T11:19:19.999Z</time></trkpt><trkpt lat="43.1270653" lon="13.2193486"><ele>355.0</ele><time>2026-03-22T11:19:20.999Z</time></trkpt><trkpt lat="43.1269984" lon="13.2191986"><ele>355.0</ele><time>2026-03-22T11:19:21.999Z</time></trkpt><trkpt lat="43.1269372" lon="13.2190501"><ele>355.0</ele><time>2026-03-22T11:19:23Z</time></trkpt><trkpt lat="43.1268851" lon="13.2189001"><ele>355.0</ele><time>2026-03-22T11:19:24Z</time></trkpt><trkpt lat="43.1268448" lon="13.2187425"><ele>356.25</ele><time>2026-03-22T11:19:25Z</time></trkpt><trkpt lat="43.1268127" lon="13.218581"><ele>357.5</ele><time>2026-03-22T11:19:25.999Z</time></trkpt><trkpt lat="43.1267887" lon="13.2184181"><ele>358.75</ele><time>2026-03-22T11:19:27Z</time></trkpt><trkpt lat="43.1267781" lon="13.2182499"><ele>360.0</ele><time>2026-03-22T11:19:28Z</time></trkpt><trkpt lat="43.126772" lon="13.2180781"><ele>361.5</ele><time>2026-03-22T11:19:29Z</time></trkpt><trkpt lat="43.1267671" lon="13.2179049"><ele>363.0</ele><time>2026-03-22T11:19:30Z</time></trkpt><trkpt lat="43.1267633" lon="13.2177334"><ele>364.5</ele><time>2026-03-22T11:19:31Z</time></trkpt><trkpt lat="43.1267614" lon="13.2175663"><ele>366.0</ele><time>2026-03-22T11:19:32Z</time></trkpt><trkpt lat="43.1267584" lon="13.2174005"><ele>367.75</ele><time>2026-03-22T11:19:33Z</time></trkpt><trkpt lat="43.1267587" lon="13.2172377"><ele>369.5</ele><time>2026-03-22T11:19:34Z</time></trkpt><trkpt lat="43.1267645" lon="13.2170746"><ele>371.25</ele><time>2026-03-22T11:19:34.999Z</time></trkpt><trkpt lat="43.1267777" lon="13.2169083"><ele>373.0</ele><time>2026-03-22T11:19:35.999Z</time></trkpt><trkpt lat="43.126794" lon="13.2167435"><ele>373.0</ele><time>2026-03-22T11:19:36.999Z</time></trkpt><trkpt lat="43.1268087" lon="13.2165761"><ele>373.0</ele><time>2026-03-22T11:19:38Z</time></trkpt><trkpt lat="43.1268297" lon="13.2164072"><ele>373.0</ele><time>2026-03-22T11:19:39Z</time></trkpt><trkpt lat="43.1268678" lon="13.2162269"><ele>373.0</ele><time>2026-03-22T11:19:40Z</time></trkpt><trkpt lat="43.1269197" lon="13.2160423"><ele>374.25</ele><time>2026-03-22T11:19:41Z</time></trkpt><trkpt lat="43.1269738" lon="13.2158536"><ele>375.5</ele><time>2026-03-22T11:19:41.999Z</time></trkpt><trkpt lat="43.1270365" lon="13.2156742"><ele>376.75</ele><time>2026-03-22T11:19:42.998Z</time></trkpt><trkpt lat="43.1270788" lon="13.2154962"><ele>378.0</ele><time>2026-03-22T11:19:44Z</time></trkpt><trkpt lat="43.1270808" lon="13.2153299"><ele>379.59999999999997</ele><time>2026-03-22T11:19:45Z</time></trkpt><trkpt lat="43.1270646" lon="13.2151867"><ele>381.2</ele><time>2026-03-22T11:19:45.999Z</time></trkpt><trkpt lat="43.1270265" lon="13.2150635"><ele>382.8</ele><time>2026-03-22T11:19:46.999Z</time></trkpt><trkpt lat="43.1269689" lon="13.2149762"><ele>384.4</ele><time>2026-03-22T11:19:48Z</time></trkpt><trkpt lat="43.1268942" lon="13.214938"><ele>386.0</ele><time>2026-03-22T11:19:49Z</time></trkpt><trkpt lat="43.1267982" lon="13.2149371"><ele>386.0</ele><time>2026-03-22T11:19:49.999Z</time></trkpt><trkpt lat="43.126694" lon="13.2149496"><ele>386.0</ele><time>2026-03-22T11:19:51Z</time></trkpt><trkpt lat="43.1265886" lon="13.2149472"><ele>386.0</ele><time>2026-03-22T11:19:51.999Z</time></trkpt><trkpt lat="43.1264878" lon="13.2149221"><ele>386.0</ele><time>2026-03-22T11:19:52.999Z</time></trkpt><trkpt lat="43.1263841" lon="13.2148651"><ele>386.0</ele><time>2026-03-22T11:19:53.999Z</time></trkpt><trkpt lat="43.1262859" lon="13.2147873"><ele>388.5</ele><time>2026-03-22T11:19:54.998Z</time></trkpt><trkpt lat="43.1261953" lon="13.2146914"><ele>391.0</ele><time>2026-03-22T11:19:55.999Z</time></trkpt><trkpt lat="43.1261107" lon="13.2145902"><ele>393.5</ele><time>2026-03-22T11:19:56.999Z</time></trkpt><trkpt lat="43.1260323" lon="13.2144782"><ele>396.0</ele><time>2026-03-22T11:19:58Z</time></trkpt><trkpt lat="43.1259529" lon="13.214364"><ele>396.0</ele><time>2026-03-22T11:19:58.999Z</time></trkpt><trkpt lat="43.1258772" lon="13.2142471"><ele>396.0</ele><time>2026-03-22T11:19:59.999Z</time></trkpt><trkpt lat="43.1258023" lon="13.2141333"><ele>396.0</ele><time>2026-03-22T11:20:01Z</time></trkpt><trkpt lat="43.125731" lon="13.2140189"><ele>396.0</ele><time>2026-03-22T11:20:01.999Z</time></trkpt><trkpt lat="43.1256611" lon="13.2139061"><ele>396.0</ele><time>2026-03-22T11:20:03Z</time></trkpt><trkpt lat="43.1255922" lon="13.2137939"><ele>395.6</ele><time>2026-03-22T11:20:03.999Z</time></trkpt><trkpt lat="43.1255251" lon="13.2136786"><ele>395.20000000000005</ele><time>2026-03-22T11:20:04.999Z</time></trkpt><trkpt lat="43.1254576" lon="13.2135624"><ele>394.79999999999995</ele><time>2026-03-22T11:20:06Z</time></trkpt><trkpt lat="43.1253965" lon="13.2134399"><ele>394.4</ele><time>2026-03-22T11:20:06.999Z</time></trkpt><trkpt lat="43.1253434" lon="13.2133057"><ele>394.0</ele><time>2026-03-22T11:20:08Z</time></trkpt><trkpt lat="43.1252981" lon="13.2131527"><ele>395.75</ele><time>2026-03-22T11:20:09Z</time></trkpt><trkpt lat="43.1252606" lon="13.2129902"><ele>397.5</ele><time>2026-03-22T11:20:09.999Z</time></trkpt><trkpt lat="43.125243" lon="13.2128204"><ele>399.25</ele><time>2026-03-22T11:20:11Z</time></trkpt><trkpt lat="43.1252463" lon="13.2126472"><ele>401.0</ele><time>2026-03-22T11:20:11.999Z</time></trkpt><trkpt lat="43.1252756" lon="13.2124767"><ele>400.75</ele><time>2026-03-22T11:20:12.999Z</time></trkpt><trkpt lat="43.1253292" lon="13.2123188"><ele>400.5</ele><time>2026-03-22T11:20:13.999Z</time></trkpt><trkpt lat="43.1254026" lon="13.2121596"><ele>400.25</ele><time>2026-03-22T11:20:15Z</time></trkpt><trkpt lat="43.1254822" lon="13.2119778"><ele>400.0</ele><time>2026-03-22T11:20:15.999Z</time></trkpt><trkpt lat="43.1255732" lon="13.2117748"><ele>400.0</ele><time>2026-03-22T11:20:16.999Z</time></trkpt><trkpt lat="43.1256716" lon="13.2115567"><ele>400.0</ele><time>2026-03-22T11:20:17.999Z</time></trkpt><trkpt lat="43.1257799" lon="13.2113164"><ele>400.0</ele><time>2026-03-22T11:20:19Z</time></trkpt><trkpt lat="43.1258721" lon="13.2111047"><ele>405.6666666666667</ele><time>2026-03-22T11:20:19.999Z</time></trkpt><trkpt lat="43.1259509" lon="13.2109041"><ele>411.33333333333337</ele><time>2026-03-22T11:20:20.999Z</time></trkpt><trkpt lat="43.1260236" lon="13.210723"><ele>417.0</ele><time>2026-03-22T11:20:22Z</time></trkpt><trkpt lat="43.1260898" lon="13.2105425"><ele>417.0</ele><time>2026-03-22T11:20:23Z</time></trkpt><trkpt lat="43.1261528" lon="13.2103674"><ele>417.0</ele><time>2026-03-22T11:20:23.999Z</time></trkpt><trkpt lat="43.1262081" lon="13.2101945"><ele>417.0</ele><time>2026-03-22T11:20:24.999Z</time></trkpt><trkpt lat="43.1262633" lon="13.2100243"><ele>417.0</ele><time>2026-03-22T11:20:26Z</time></trkpt><trkpt lat="43.1263311" lon="13.2098558"><ele>418.25</ele><time>2026-03-22T11:20:27Z</time></trkpt><trkpt lat="43.1264133" lon="13.2096916"><ele>419.5</ele><time>2026-03-22T11:20:28Z</time></trkpt><trkpt lat="43.1265012" lon="13.2095328"><ele>420.75</ele><time>2026-03-22T11:20:28.999Z</time></trkpt><trkpt lat="43.1265895" lon="13.2093732"><ele>422.0</ele><time>2026-03-22T11:20:30Z</time></trkpt><trkpt lat="43.126681" lon="13.2092144"><ele>424.0</ele><time>2026-03-22T11:20:31Z</time></trkpt><trkpt lat="43.1267735" lon="13.209055"><ele>426.0</ele><time>2026-03-22T11:20:31.999Z</time></trkpt><trkpt lat="43.1268641" lon="13.2088953"><ele>428.0</ele><time>2026-03-22T11:20:32.999Z</time></trkpt><trkpt lat="43.1269528" lon="13.2087342"><ele>430.0</ele><time>2026-03-22T11:20:34Z</time></trkpt><trkpt lat="43.1270453" lon="13.2085933"><ele>430.0</ele><time>2026-03-22T11:20:34.999Z</time></trkpt><trkpt lat="43.1271258" lon="13.2084602"><ele>430.0</ele><time>2026-03-22T11:20:36Z</time></trkpt><trkpt lat="43.1271745" lon="13.2083082"><ele>430.0</ele><time>2026-03-22T11:20:36.998Z</time></trkpt><trkpt lat="43.1271888" lon="13.208161"><ele>430.0</ele><time>2026-03-22T11:20:37.999Z</time></trkpt><trkpt lat="43.1271475" lon="13.2079888"><ele>432.75</ele><time>2026-03-22T11:20:38.999Z</time></trkpt><trkpt lat="43.1271019" lon="13.207821"><ele>435.5</ele><time>2026-03-22T11:20:40Z</time></trkpt><trkpt lat="43.1270546" lon="13.2076514"><ele>438.25</ele><time>2026-03-22T11:20:40.999Z</time></trkpt><trkpt lat="43.1270185" lon="13.2075022"><ele>441.0</ele><time>2026-03-22T11:20:41.999Z</time></trkpt><trkpt lat="43.126995" lon="13.2073588"><ele>445.25</ele><time>2026-03-22T11:20:42.999Z</time></trkpt><trkpt lat="43.1270011" lon="13.2072107"><ele>449.5</ele><time>2026-03-22T11:20:44Z</time></trkpt><trkpt lat="43.127041" lon="13.2070642"><ele>453.75</ele><time>2026-03-22T11:20:44.999Z</time></trkpt><trkpt lat="43.1271204" lon="13.2069396"><ele>458.0</ele><time>2026-03-22T11:20:45.999Z</time></trkpt><trkpt lat="43.1272227" lon="13.2068436"><ele>458.0</ele><time>2026-03-22T11:20:46.999Z</time></trkpt><trkpt lat="43.1273546" lon="13.2067685"><ele>458.0</ele><time>2026-03-22T11:20:47.999Z</time></trkpt><trkpt lat="43.1274898" lon="13.2067416"><ele>458.0</ele><time>2026-03-22T11:20:49Z</time></trkpt><trkpt lat="43.1276229" lon="13.2067507"><ele>458.0</ele><time>2026-03-22T11:20:50Z</time></trkpt><trkpt lat="43.1277434" lon="13.2067946"><ele>456.5</ele><time>2026-03-22T11:20:51Z</time></trkpt><trkpt lat="43.1278421" lon="13.2068609"><ele>455.0</ele><time>2026-03-22T11:20:51.998Z</time></trkpt><trkpt lat="43.1279326" lon="13.2069512"><ele>453.5</ele><time>2026-03-22T11:20:52.999Z</time></trkpt><trkpt lat="43.1280193" lon="13.207057"><ele>452.0</ele><time>2026-03-22T11:20:54Z</time></trkpt><trkpt lat="43.128102" lon="13.2071672"><ele>451.99999999999994</ele><time>2026-03-22T11:20:54.999Z</time></trkpt><trkpt lat="43.1281726" lon="13.2072788"><ele>452.0</ele><time>2026-03-22T11:20:55.999Z</time></trkpt><trkpt lat="43.1282377" lon="13.2073711"><ele>452.0</ele><time>2026-03-22T11:20:57Z</time></trkpt><trkpt lat="43.1283035" lon="13.2074265"><ele>452.0</ele><time>2026-03-22T11:20:58Z</time></trkpt><trkpt lat="43.1283696" lon="13.2074218"><ele>451.99999999999994</ele><time>2026-03-22T11:20:58.999Z</time></trkpt><trkpt lat="43.1284225" lon="13.2073643"><ele>452.0</ele><time>2026-03-22T11:20:59.999Z</time></trkpt><trkpt lat="43.1284147" lon="13.2071794"><ele>454.6</ele><time>2026-03-22T11:21:02Z</time></trkpt><trkpt lat="43.1283762" lon="13.2070634"><ele>457.20000000000005</ele><time>2026-03-22T11:21:03Z</time></trkpt><trkpt lat="43.1283355" lon="13.2069637"><ele>459.8</ele><time>2026-03-22T11:21:03.998Z</time></trkpt><trkpt lat="43.128281" lon="13.2068203"><ele>462.4</ele><time>2026-03-22T11:21:06Z</time></trkpt><trkpt lat="43.128235" lon="13.206698"><ele>465.0</ele><time>2026-03-22T11:21:07.999Z</time></trkpt><trkpt lat="43.1282778" lon="13.206616"><ele>465.0</ele><time>2026-03-22T11:21:10.999Z</time></trkpt><trkpt lat="43.1283347" lon="13.2066842"><ele>465.0</ele><time>2026-03-22T11:21:13Z</time></trkpt><trkpt lat="43.1283808" lon="13.2067463"><ele>465.0</ele><time>2026-03-22T11:21:14Z</time></trkpt><trkpt lat="43.1284403" lon="13.2067886"><ele>465.0</ele><time>2026-03-22T11:21:14.999Z</time></trkpt><trkpt lat="43.1285574" lon="13.2068537"><ele>465.0</ele><time>2026-03-22T11:21:16.998Z</time></trkpt><trkpt lat="43.1286261" lon="13.2068943"><ele>465.0</ele><time>2026-03-22T11:21:17.999Z</time></trkpt><trkpt lat="43.128698" lon="13.2069248"><ele>465.0</ele><time>2026-03-22T11:21:18.999Z</time></trkpt><trkpt lat="43.1287808" lon="13.2069428"><ele>465.0</ele><time>2026-03-22T11:21:20Z</time></trkpt><trkpt lat="43.1288649" lon="13.2069487"><ele>465.0</ele><time>2026-03-22T11:21:20.999Z</time></trkpt><trkpt lat="43.1289487" lon="13.2069451"><ele>465.0</ele><time>2026-03-22T11:21:21.999Z</time></trkpt><trkpt lat="43.1290289" lon="13.2069361"><ele>465.0</ele><time>2026-03-22T11:21:23Z</time></trkpt><trkpt lat="43.1290959" lon="13.2069226"><ele>465.0</ele><time>2026-03-22T11:21:24Z</time></trkpt><trkpt lat="43.129161" lon="13.206903"><ele>467.0</ele><time>2026-03-22T11:21:24.999Z</time></trkpt><trkpt lat="43.1292239" lon="13.2068885"><ele>469.0</ele><time>2026-03-22T11:21:25.999Z</time></trkpt><trkpt lat="43.1293439" lon="13.2068618"><ele>471.0</ele><time>2026-03-22T11:21:28Z</time></trkpt><trkpt lat="43.1294347" lon="13.2068205"><ele>473.0</ele><time>2026-03-22T11:21:29.999Z</time></trkpt><trkpt lat="43.1294985" lon="13.2068253"><ele>475.0</ele><time>2026-03-22T11:21:32Z</time></trkpt><trkpt lat="43.129571" lon="13.2068879"><ele>477.0</ele><time>2026-03-22T11:21:34Z</time></trkpt><trkpt lat="43.1296403" lon="13.2069627"><ele>477.0</ele><time>2026-03-22T11:21:35.999Z</time></trkpt><trkpt lat="43.1297175" lon="13.2070352"><ele>477.0</ele><time>2026-03-22T11:21:38Z</time></trkpt><trkpt lat="43.1297938" lon="13.2071184"><ele>477.0</ele><time>2026-03-22T11:21:40Z</time></trkpt><trkpt lat="43.1298431" lon="13.2072248"><ele>477.0</ele><time>2026-03-22T11:21:42Z</time></trkpt><trkpt lat="43.1298845" lon="13.2073098"><ele>477.0</ele><time>2026-03-22T11:21:43.999Z</time></trkpt><trkpt lat="43.129888" lon="13.2074184"><ele>477.0</ele><time>2026-03-22T11:21:45.999Z</time></trkpt><trkpt lat="43.1298342" lon="13.2075064"><ele>477.6</ele><time>2026-03-22T11:21:47.999Z</time></trkpt><trkpt lat="43.1297438" lon="13.207587"><ele>478.20000000000005</ele><time>2026-03-22T11:21:50Z</time></trkpt><trkpt lat="43.1296829" lon="13.2076412"><ele>478.8</ele><time>2026-03-22T11:21:50.999Z</time></trkpt><trkpt lat="43.1295938" lon="13.207743"><ele>479.4</ele><time>2026-03-22T11:21:52.999Z</time></trkpt><trkpt lat="43.1295375" lon="13.2078662"><ele>480.0</ele><time>2026-03-22T11:21:54.999Z</time></trkpt><trkpt lat="43.1294833" lon="13.2080026"><ele>480.0</ele><time>2026-03-22T11:21:56.998Z</time></trkpt><trkpt lat="43.1294501" lon="13.2080772"><ele>480.0</ele><time>2026-03-22T11:21:57.999Z</time></trkpt><trkpt lat="43.1294095" lon="13.2081645"><ele>480.0</ele><time>2026-03-22T11:21:58.999Z</time></trkpt><trkpt lat="43.1293746" lon="13.208239"><ele>480.0</ele><time>2026-03-22T11:22:00Z</time></trkpt><trkpt lat="43.1293365" lon="13.2083198"><ele>480.0</ele><time>2026-03-22T11:22:00.998Z</time></trkpt><trkpt lat="43.1292742" lon="13.2084538"><ele>480.0</ele><time>2026-03-22T11:22:03Z</time></trkpt><trkpt lat="43.1292021" lon="13.2085937"><ele>481.6666666666667</ele><time>2026-03-22T11:22:04.999Z</time></trkpt><trkpt lat="43.129168" lon="13.2086753"><ele>483.33333333333337</ele><time>2026-03-22T11:22:05.999Z</time></trkpt><trkpt lat="43.1291366" lon="13.2087611"><ele>485.0</ele><time>2026-03-22T11:22:07Z</time></trkpt><trkpt lat="43.129109" lon="13.2088548"><ele>486.6666666666667</ele><time>2026-03-22T11:22:08Z</time></trkpt><trkpt lat="43.1290839" lon="13.2089583"><ele>488.33333333333337</ele><time>2026-03-22T11:22:08.998Z</time></trkpt><trkpt lat="43.1290518" lon="13.2090702"><ele>490.0</ele><time>2026-03-22T11:22:09.999Z</time></trkpt><trkpt lat="43.1290157" lon="13.2091751"><ele>490.00000000000006</ele><time>2026-03-22T11:22:10.999Z</time></trkpt><trkpt lat="43.1289695" lon="13.2092591"><ele>490.0</ele><time>2026-03-22T11:22:12Z</time></trkpt><trkpt lat="43.1289161" lon="13.2093397"><ele>490.0</ele><time>2026-03-22T11:22:12.999Z</time></trkpt><trkpt lat="43.1288483" lon="13.2094243"><ele>490.0</ele><time>2026-03-22T11:22:13.999Z</time></trkpt><trkpt lat="43.1287727" lon="13.2095028"><ele>490.00000000000006</ele><time>2026-03-22T11:22:15Z</time></trkpt><trkpt lat="43.1286933" lon="13.209581"><ele>490.0</ele><time>2026-03-22T11:22:15.999Z</time></trkpt><trkpt lat="43.1286179" lon="13.2096545"><ele>490.00000000000006</ele><time>2026-03-22T11:22:16.999Z</time></trkpt><trkpt lat="43.1285564" lon="13.2097121"><ele>490.0</ele><time>2026-03-22T11:22:18Z</time></trkpt><trkpt lat="43.1284998" lon="13.209761"><ele>490.0</ele><time>2026-03-22T11:22:18.999Z</time></trkpt><trkpt lat="43.1284026" lon="13.2098425"><ele>490.0</ele><time>2026-03-22T11:22:21Z</time></trkpt><trkpt lat="43.1282983" lon="13.20993"><ele>490.00000000000006</ele><time>2026-03-22T11:22:22.999Z</time></trkpt><trkpt lat="43.1282394" lon="13.2099678"><ele>490.0</ele><time>2026-03-22T11:22:23.999Z</time></trkpt><trkpt lat="43.1281347" lon="13.2100333"><ele>488.0</ele><time>2026-03-22T11:22:25.999Z</time></trkpt><trkpt lat="43.1280476" lon="13.2101322"><ele>486.0</ele><time>2026-03-22T11:22:28Z</time></trkpt><trkpt lat="43.128008" lon="13.210247"><ele>484.0</ele><time>2026-03-22T11:22:30Z</time></trkpt><trkpt lat="43.1280323" lon="13.2103514"><ele>482.0</ele><time>2026-03-22T11:22:32Z</time></trkpt><trkpt lat="43.1281059" lon="13.2104183"><ele>480.0</ele><time>2026-03-22T11:22:33.998Z</time></trkpt><trkpt lat="43.1282258" lon="13.2104533"><ele>482.6</ele><time>2026-03-22T11:22:35.999Z</time></trkpt><trkpt lat="43.1283062" lon="13.2104795"><ele>485.2</ele><time>2026-03-22T11:22:37Z</time></trkpt><trkpt lat="43.1283911" lon="13.2105242"><ele>487.79999999999995</ele><time>2026-03-22T11:22:37.999Z</time></trkpt><trkpt lat="43.128486" lon="13.2105806"><ele>490.4</ele><time>2026-03-22T11:22:38.999Z</time></trkpt><trkpt lat="43.1285756" lon="13.2106397"><ele>493.0</ele><time>2026-03-22T11:22:40Z</time></trkpt><trkpt lat="43.1286661" lon="13.210694"><ele>493.00000000000006</ele><time>2026-03-22T11:22:41Z</time></trkpt><trkpt lat="43.1287504" lon="13.2107452"><ele>493.0</ele><time>2026-03-22T11:22:41.999Z</time></trkpt><trkpt lat="43.1288287" lon="13.210793"><ele>493.0</ele><time>2026-03-22T11:22:43Z</time></trkpt><trkpt lat="43.1288951" lon="13.2108398"><ele>493.0</ele><time>2026-03-22T11:22:43.999Z</time></trkpt><trkpt lat="43.1289578" lon="13.2108928"><ele>493.00000000000006</ele><time>2026-03-22T11:22:44.999Z</time></trkpt><trkpt lat="43.1290152" lon="13.2109591"><ele>493.0</ele><time>2026-03-22T11:22:45.999Z</time></trkpt><trkpt lat="43.1290682" lon="13.2110193"><ele>494.50000000000006</ele><time>2026-03-22T11:22:47Z</time></trkpt><trkpt lat="43.1291277" lon="13.2110739"><ele>496.0</ele><time>2026-03-22T11:22:48Z</time></trkpt><trkpt lat="43.1291962" lon="13.2111164"><ele>497.5</ele><time>2026-03-22T11:22:48.999Z</time></trkpt><trkpt lat="43.1292757" lon="13.2111598"><ele>499.0</ele><time>2026-03-22T11:22:49.999Z</time></trkpt><trkpt lat="43.1293597" lon="13.2112066"><ele>500.50000000000006</ele><time>2026-03-22T11:22:51Z</time></trkpt><trkpt lat="43.1294425" lon="13.2112527"><ele>502.0</ele><time>2026-03-22T11:22:51.999Z</time></trkpt><trkpt lat="43.1295223" lon="13.2113038"><ele>502.00000000000006</ele><time>2026-03-22T11:22:53Z</time></trkpt><trkpt lat="43.1296021" lon="13.2113635"><ele>502.0</ele><time>2026-03-22T11:22:53.999Z</time></trkpt><trkpt lat="43.1296836" lon="13.2114218"><ele>502.0</ele><time>2026-03-22T11:22:54.999Z</time></trkpt><trkpt lat="43.129754" lon="13.2114908"><ele>502.0</ele><time>2026-03-22T11:22:56Z</time></trkpt><trkpt lat="43.1298178" lon="13.2115722"><ele>502.00000000000006</ele><time>2026-03-22T11:22:57Z</time></trkpt><trkpt lat="43.1298712" lon="13.211675"><ele>502.0</ele><time>2026-03-22T11:22:57.999Z</time></trkpt><trkpt lat="43.1299291" lon="13.2117813"><ele>498.8</ele><time>2026-03-22T11:22:58.999Z</time></trkpt><trkpt lat="43.1299906" lon="13.2118963"><ele>495.6</ele><time>2026-03-22T11:22:59.999Z</time></trkpt><trkpt lat="43.1300475" lon="13.2120104"><ele>492.40000000000003</ele><time>2026-03-22T11:23:01Z</time></trkpt><trkpt lat="43.1300974" lon="13.2121215"><ele>489.20000000000005</ele><time>2026-03-22T11:23:02Z</time></trkpt><trkpt lat="43.1301222" lon="13.212236"><ele>486.0</ele><time>2026-03-22T11:23:02.999Z</time></trkpt><trkpt lat="43.1301487" lon="13.2123376"><ele>483.4</ele><time>2026-03-22T11:23:04Z</time></trkpt><trkpt lat="43.1301747" lon="13.2124291"><ele>480.8</ele><time>2026-03-22T11:23:04.999Z</time></trkpt><trkpt lat="43.1301967" lon="13.2125128"><ele>478.19999999999993</ele><time>2026-03-22T11:23:05.999Z</time></trkpt><trkpt lat="43.1302214" lon="13.2126517"><ele>475.59999999999997</ele><time>2026-03-22T11:23:08Z</time></trkpt><trkpt lat="43.1302022" lon="13.2128054"><ele>473.0</ele><time>2026-03-22T11:23:09.999Z</time></trkpt><trkpt lat="43.1301745" lon="13.2129343"><ele>473.0</ele><time>2026-03-22T11:23:12Z</time></trkpt><trkpt lat="43.1301493" lon="13.2130521"><ele>472.99999999999994</ele><time>2026-03-22T11:23:13.999Z</time></trkpt><trkpt lat="43.130131" lon="13.2131848"><ele>472.99999999999994</ele><time>2026-03-22T11:23:16Z</time></trkpt><trkpt lat="43.1301344" lon="13.2133271"><ele>473.0</ele><time>2026-03-22T11:23:17.999Z</time></trkpt><trkpt lat="43.1301474" lon="13.2134588"><ele>473.0</ele><time>2026-03-22T11:23:20Z</time></trkpt><trkpt lat="43.1301691" lon="13.2136031"><ele>472.0</ele><time>2026-03-22T11:23:22Z</time></trkpt><trkpt lat="43.130205" lon="13.2137379"><ele>470.99999999999994</ele><time>2026-03-22T11:23:24Z</time></trkpt><trkpt lat="43.1302362" lon="13.213857"><ele>469.99999999999994</ele><time>2026-03-22T11:23:25.999Z</time></trkpt><trkpt lat="43.1302741" lon="13.2139886"><ele>469.0</ele><time>2026-03-22T11:23:28Z</time></trkpt><trkpt lat="43.1303028" lon="13.2141434"><ele>468.0</ele><time>2026-03-22T11:23:30Z</time></trkpt><trkpt lat="43.1303328" lon="13.2142868"><ele>465.79999999999995</ele><time>2026-03-22T11:23:31.999Z</time></trkpt><trkpt lat="43.130358" lon="13.2143975"><ele>463.59999999999997</ele><time>2026-03-22T11:23:33.999Z</time></trkpt><trkpt lat="43.1303915" lon="13.2145035"><ele>461.40000000000003</ele><time>2026-03-22T11:23:35.999Z</time></trkpt><trkpt lat="43.1304502" lon="13.214575"><ele>459.20000000000005</ele><time>2026-03-22T11:23:37.999Z</time></trkpt><trkpt lat="43.1305348" lon="13.2146098"><ele>457.0</ele><time>2026-03-22T11:23:40Z</time></trkpt><trkpt lat="43.1306531" lon="13.2146566"><ele>457.0</ele><time>2026-03-22T11:23:41.999Z</time></trkpt><trkpt lat="43.1307116" lon="13.2146991"><ele>457.00000000000006</ele><time>2026-03-22T11:23:42.999Z</time></trkpt><trkpt lat="43.130769" lon="13.2147435"><ele>457.00000000000006</ele><time>2026-03-22T11:23:44Z</time></trkpt><trkpt lat="43.1308603" lon="13.2148245"><ele>457.0</ele><time>2026-03-22T11:23:45.999Z</time></trkpt><trkpt lat="43.1309228" lon="13.2149482"><ele>457.0</ele><time>2026-03-22T11:23:47.999Z</time></trkpt><trkpt lat="43.1309667" lon="13.2151072"><ele>452.75</ele><time>2026-03-22T11:23:50Z</time></trkpt><trkpt lat="43.1309628" lon="13.2152727"><ele>448.5</ele><time>2026-03-22T11:23:52Z</time></trkpt><trkpt lat="43.130921" lon="13.2154249"><ele>444.25</ele><time>2026-03-22T11:23:54Z</time></trkpt><trkpt lat="43.1308938" lon="13.2155823"><ele>440.0</ele><time>2026-03-22T11:23:56Z</time></trkpt><trkpt lat="43.1309068" lon="13.2157413"><ele>437.75</ele><time>2026-03-22T11:23:57.999Z</time></trkpt><trkpt lat="43.1309516" lon="13.2158721"><ele>435.5</ele><time>2026-03-22T11:23:59.999Z</time></trkpt><trkpt lat="43.1310148" lon="13.215991"><ele>433.25</ele><time>2026-03-22T11:24:02Z</time></trkpt><trkpt lat="43.1310876" lon="13.2161391"><ele>431.0</ele><time>2026-03-22T11:24:04Z</time></trkpt><trkpt lat="43.1311428" lon="13.2162653"><ele>431.0</ele><time>2026-03-22T11:24:04.999Z</time></trkpt><trkpt lat="43.1312002" lon="13.2164103"><ele>431.0</ele><time>2026-03-22T11:24:05.999Z</time></trkpt><trkpt lat="43.1312456" lon="13.2165407"><ele>431.0</ele><time>2026-03-22T11:24:07Z</time></trkpt><trkpt lat="43.1312802" lon="13.2166503"><ele>431.0</ele><time>2026-03-22T11:24:07.999Z</time></trkpt><trkpt lat="43.1313046" lon="13.2167304"><ele>431.0</ele><time>2026-03-22T11:24:08.999Z</time></trkpt><trkpt lat="43.1313511" lon="13.2168699"><ele>428.6</ele><time>2026-03-22T11:24:10.999Z</time></trkpt><trkpt lat="43.1313778" lon="13.2169724"><ele>426.20000000000005</ele><time>2026-03-22T11:24:12.999Z</time></trkpt><trkpt lat="43.1314156" lon="13.2170869"><ele>423.79999999999995</ele><time>2026-03-22T11:24:42.999Z</time></trkpt><trkpt lat="43.1314555" lon="13.2172481"><ele>421.4</ele><time>2026-03-22T11:24:45Z</time></trkpt><trkpt lat="43.1314991" lon="13.2174131"><ele>419.0</ele><time>2026-03-22T11:24:46.999Z</time></trkpt><trkpt lat="43.1315212" lon="13.2174946"><ele>419.4285714285714</ele><time>2026-03-22T11:24:47.999Z</time></trkpt><trkpt lat="43.1315476" lon="13.2175746"><ele>419.85714285714283</ele><time>2026-03-22T11:24:48.998Z</time></trkpt><trkpt lat="43.1315823" lon="13.2176502"><ele>420.2857142857143</ele><time>2026-03-22T11:24:50Z</time></trkpt><trkpt lat="43.1316219" lon="13.2177259"><ele>420.71428571428567</ele><time>2026-03-22T11:24:51Z</time></trkpt><trkpt lat="43.1316644" lon="13.2178122"><ele>421.14285714285717</ele><time>2026-03-22T11:24:51.999Z</time></trkpt><trkpt lat="43.1317132" lon="13.2179004"><ele>421.57142857142856</ele><time>2026-03-22T11:24:52.999Z</time></trkpt><trkpt lat="43.1317552" lon="13.2179892"><ele>422.0</ele><time>2026-03-22T11:24:53.999Z</time></trkpt><trkpt lat="43.1317958" lon="13.2180873"><ele>420.49999999999994</ele><time>2026-03-22T11:24:54.999Z</time></trkpt><trkpt lat="43.1318328" lon="13.2181875"><ele>419.0</ele><time>2026-03-22T11:24:55.999Z</time></trkpt><trkpt lat="43.1318737" lon="13.2182814"><ele>417.5</ele><time>2026-03-22T11:24:56.999Z</time></trkpt><trkpt lat="43.1319151" lon="13.2183761"><ele>416.0</ele><time>2026-03-22T11:24:58Z</time></trkpt><trkpt lat="43.1319645" lon="13.2184684"><ele>414.49999999999994</ele><time>2026-03-22T11:24:59Z</time></trkpt><trkpt lat="43.1320177" lon="13.2185565"><ele>413.0</ele><time>2026-03-22T11:24:59.999Z</time></trkpt><trkpt lat="43.1320626" lon="13.2186425"><ele>412.99999999999994</ele><time>2026-03-22T11:25:00.999Z</time></trkpt><trkpt lat="43.132111" lon="13.218713"><ele>413.0</ele><time>2026-03-22T11:25:01.999Z</time></trkpt><trkpt lat="43.132162" lon="13.2187809"><ele>413.0</ele><time>2026-03-22T11:25:03Z</time></trkpt><trkpt lat="43.1322218" lon="13.2188511"><ele>413.0</ele><time>2026-03-22T11:25:04Z</time></trkpt><trkpt lat="43.1322993" lon="13.2189205"><ele>412.99999999999994</ele><time>2026-03-22T11:25:05Z</time></trkpt><trkpt lat="43.132382" lon="13.2189927"><ele>413.0</ele><time>2026-03-22T11:25:06Z</time></trkpt><trkpt lat="43.1324557" lon="13.219085"><ele>414.4</ele><time>2026-03-22T11:25:06.999Z</time></trkpt><trkpt lat="43.13251" lon="13.2191912"><ele>415.79999999999995</ele><time>2026-03-22T11:25:07.999Z</time></trkpt><trkpt lat="43.1325757" lon="13.2192942"><ele>417.2</ele><time>2026-03-22T11:25:08.999Z</time></trkpt><trkpt lat="43.1326419" lon="13.2193826"><ele>418.6</ele><time>2026-03-22T11:25:09.999Z</time></trkpt><trkpt lat="43.1327162" lon="13.2194632"><ele>420.0</ele><time>2026-03-22T11:25:11Z</time></trkpt><trkpt lat="43.1327958" lon="13.2195292"><ele>420.0</ele><time>2026-03-22T11:25:11.999Z</time></trkpt><trkpt lat="43.1328677" lon="13.2195821"><ele>420.0</ele><time>2026-03-22T11:25:12.999Z</time></trkpt><trkpt lat="43.132937" lon="13.2196453"><ele>420.0</ele><time>2026-03-22T11:25:14Z</time></trkpt><trkpt lat="43.1330086" lon="13.2196876"><ele>420.0</ele><time>2026-03-22T11:25:15Z</time></trkpt><trkpt lat="43.1330709" lon="13.2197271"><ele>420.0</ele><time>2026-03-22T11:25:15.999Z</time></trkpt><trkpt lat="43.1331422" lon="13.2197603"><ele>420.0</ele><time>2026-03-22T11:25:16.999Z</time></trkpt><trkpt lat="43.1332117" lon="13.2198008"><ele>419.1666666666667</ele><time>2026-03-22T11:25:18Z</time></trkpt><trkpt lat="43.1332874" lon="13.2198529"><ele>418.33333333333337</ele><time>2026-03-22T11:25:19Z</time></trkpt><trkpt lat="43.1333655" lon="13.2199102"><ele>417.5</ele><time>2026-03-22T11:25:20Z</time></trkpt><trkpt lat="43.1334425" lon="13.2199677"><ele>416.6666666666667</ele><time>2026-03-22T11:25:20.999Z</time></trkpt><trkpt lat="43.1335215" lon="13.2200234"><ele>415.83333333333337</ele><time>2026-03-22T11:25:22Z</time></trkpt><trkpt lat="43.1335986" lon="13.220081"><ele>415.0</ele><time>2026-03-22T11:25:23Z</time></trkpt><trkpt lat="43.1336719" lon="13.220144"><ele>415.00000000000006</ele><time>2026-03-22T11:25:23.999Z</time></trkpt><trkpt lat="43.1337323" lon="13.2202205"><ele>415.0</ele><time>2026-03-22T11:25:25Z</time></trkpt><trkpt lat="43.1337756" lon="13.2203112"><ele>415.0</ele><time>2026-03-22T11:25:26Z</time></trkpt><trkpt lat="43.133797" lon="13.2204136"><ele>415.0</ele><time>2026-03-22T11:25:27Z</time></trkpt><trkpt lat="43.1338119" lon="13.2205219"><ele>415.00000000000006</ele><time>2026-03-22T11:25:28Z</time></trkpt><trkpt lat="43.1338157" lon="13.2206349"><ele>415.0</ele><time>2026-03-22T11:25:28.999Z</time></trkpt><trkpt lat="43.1338116" lon="13.2207552"><ele>413.00000000000006</ele><time>2026-03-22T11:25:29.999Z</time></trkpt><trkpt lat="43.1337938" lon="13.2208688"><ele>411.0</ele><time>2026-03-22T11:25:30.999Z</time></trkpt><trkpt lat="43.1337633" lon="13.2209837"><ele>409.0</ele><time>2026-03-22T11:25:31.999Z</time></trkpt><trkpt lat="43.1337309" lon="13.2210927"><ele>407.0</ele><time>2026-03-22T11:25:32.999Z</time></trkpt><trkpt lat="43.1336972" lon="13.2211951"><ele>405.00000000000006</ele><time>2026-03-22T11:25:34Z</time></trkpt><trkpt lat="43.1336784" lon="13.2212992"><ele>403.0</ele><time>2026-03-22T11:25:34.999Z</time></trkpt><trkpt lat="43.1336862" lon="13.2214162"><ele>400.4</ele><time>2026-03-22T11:25:35.999Z</time></trkpt><trkpt lat="43.1337223" lon="13.2215382"><ele>397.79999999999995</ele><time>2026-03-22T11:25:36.999Z</time></trkpt><trkpt lat="43.1337774" lon="13.2216684"><ele>395.2</ele><time>2026-03-22T11:25:38Z</time></trkpt><trkpt lat="43.1338349" lon="13.2218001"><ele>392.6</ele><time>2026-03-22T11:25:38.998Z</time></trkpt><trkpt lat="43.1339001" lon="13.2219272"><ele>390.0</ele><time>2026-03-22T11:25:39.999Z</time></trkpt><trkpt lat="43.1339935" lon="13.2220803"><ele>390.0</ele><time>2026-03-22T11:25:41Z</time></trkpt><trkpt lat="43.1341033" lon="13.2222254"><ele>390.0</ele><time>2026-03-22T11:25:41.999Z</time></trkpt><trkpt lat="43.1342132" lon="13.2223601"><ele>390.0</ele><time>2026-03-22T11:25:43Z</time></trkpt><trkpt lat="43.1343274" lon="13.2224827"><ele>390.0</ele><time>2026-03-22T11:25:43.999Z</time></trkpt><trkpt lat="43.1344473" lon="13.2226001"><ele>388.25</ele><time>2026-03-22T11:25:44.999Z</time></trkpt><trkpt lat="43.1345669" lon="13.2226997"><ele>386.5</ele><time>2026-03-22T11:25:46Z</time></trkpt><trkpt lat="43.1346818" lon="13.2228069"><ele>384.75</ele><time>2026-03-22T11:25:47Z</time></trkpt><trkpt lat="43.1347963" lon="13.2229035"><ele>383.0</ele><time>2026-03-22T11:25:47.998Z</time></trkpt><trkpt lat="43.1349076" lon="13.2230072"><ele>382.0</ele><time>2026-03-22T11:25:48.999Z</time></trkpt><trkpt lat="43.1350099" lon="13.2231108"><ele>381.0</ele><time>2026-03-22T11:25:49.999Z</time></trkpt><trkpt lat="43.1351113" lon="13.2232147"><ele>380.0</ele><time>2026-03-22T11:25:50.999Z</time></trkpt><trkpt lat="43.1352031" lon="13.2233018"><ele>379.0</ele><time>2026-03-22T11:25:51.999Z</time></trkpt><trkpt lat="43.1352933" lon="13.2233584"><ele>377.6</ele><time>2026-03-22T11:25:52.999Z</time></trkpt><trkpt lat="43.1353849" lon="13.2233848"><ele>376.2</ele><time>2026-03-22T11:25:54Z</time></trkpt><trkpt lat="43.1354746" lon="13.2233673"><ele>374.8</ele><time>2026-03-22T11:25:54.998Z</time></trkpt><trkpt lat="43.1355655" lon="13.2233332"><ele>373.40000000000003</ele><time>2026-03-22T11:25:55.999Z</time></trkpt><trkpt lat="43.1356679" lon="13.2232469"><ele>372.0</ele><time>2026-03-22T11:25:57Z</time></trkpt><trkpt lat="43.1357525" lon="13.2231779"><ele>370.40000000000003</ele><time>2026-03-22T11:25:57.999Z</time></trkpt><trkpt lat="43.1358384" lon="13.2230826"><ele>368.8</ele><time>2026-03-22T11:25:59Z</time></trkpt><trkpt lat="43.1359188" lon="13.2229967"><ele>367.2</ele><time>2026-03-22T11:26:00Z</time></trkpt><trkpt lat="43.1359954" lon="13.2229266"><ele>365.6</ele><time>2026-03-22T11:26:00.999Z</time></trkpt><trkpt lat="43.1360755" lon="13.2228765"><ele>364.0</ele><time>2026-03-22T11:26:01.999Z</time></trkpt><trkpt lat="43.1361605" lon="13.2228598"><ele>364.0</ele><time>2026-03-22T11:26:03Z</time></trkpt><trkpt lat="43.1362454" lon="13.222889"><ele>364.0</ele><time>2026-03-22T11:26:03.999Z</time></trkpt><trkpt lat="43.1363257" lon="13.2229527"><ele>364.0</ele><time>2026-03-22T11:26:04.999Z</time></trkpt><trkpt lat="43.1364086" lon="13.2230225"><ele>364.0</ele><time>2026-03-22T11:26:06Z</time></trkpt><trkpt lat="43.1364944" lon="13.2230779"><ele>364.0</ele><time>2026-03-22T11:26:07Z</time></trkpt><trkpt lat="43.1365724" lon="13.2231117"><ele>362.0</ele><time>2026-03-22T11:26:08Z</time></trkpt><trkpt lat="43.1366465" lon="13.223131"><ele>360.0</ele><time>2026-03-22T11:26:08.999Z</time></trkpt><trkpt lat="43.1367111" lon="13.2231453"><ele>358.0</ele><time>2026-03-22T11:26:09.999Z</time></trkpt><trkpt lat="43.1368146" lon="13.2231694"><ele>356.0</ele><time>2026-03-22T11:26:11.999Z</time></trkpt><trkpt lat="43.136892" lon="13.2231906"><ele>354.0</ele><time>2026-03-22T11:26:14.999Z</time></trkpt><trkpt lat="43.1369724" lon="13.2231095"><ele>352.0</ele><time>2026-03-22T11:26:17.999Z</time></trkpt><trkpt lat="43.1370126" lon="13.2230003"><ele>351.0</ele><time>2026-03-22T11:26:20.999Z</time></trkpt><trkpt lat="43.1370439" lon="13.22291"><ele>350.0</ele><time>2026-03-22T11:26:24Z</time></trkpt><trkpt lat="43.1370763" lon="13.222811"><ele>349.0</ele><time>2026-03-22T11:26:26.999Z</time></trkpt><trkpt lat="43.1371463" lon="13.222682"><ele>348.0</ele><time>2026-03-22T11:26:28.999Z</time></trkpt><trkpt lat="43.1372176" lon="13.2226307"><ele>347.0</ele><time>2026-03-22T11:26:29.999Z</time></trkpt><trkpt lat="43.1373031" lon="13.2226126"><ele>346.0</ele><time>2026-03-22T11:26:31Z</time></trkpt><trkpt lat="43.1373927" lon="13.2226349"><ele>343.20000000000005</ele><time>2026-03-22T11:26:31.999Z</time></trkpt><trkpt lat="43.1374679" lon="13.2227123"><ele>340.40000000000003</ele><time>2026-03-22T11:26:32.999Z</time></trkpt><trkpt lat="43.1375204" lon="13.2228215"><ele>337.6</ele><time>2026-03-22T11:26:33.999Z</time></trkpt><trkpt lat="43.1375594" lon="13.2229495"><ele>334.8</ele><time>2026-03-22T11:26:34.999Z</time></trkpt><trkpt lat="43.1375866" lon="13.2230762"><ele>332.0</ele><time>2026-03-22T11:26:36Z</time></trkpt><trkpt lat="43.1376084" lon="13.22319"><ele>332.0</ele><time>2026-03-22T11:26:37Z</time></trkpt><trkpt lat="43.1376281" lon="13.2232807"><ele>332.0</ele><time>2026-03-22T11:26:38Z</time></trkpt><trkpt lat="43.1376834" lon="13.2233686"><ele>332.0</ele><time>2026-03-22T11:26:39.999Z</time></trkpt><trkpt lat="43.1377112" lon="13.2232524"><ele>332.0</ele><time>2026-03-22T11:26:43Z</time></trkpt><trkpt lat="43.1376887" lon="13.2231564"><ele>332.0</ele><time>2026-03-22T11:26:43.999Z</time></trkpt><trkpt lat="43.1376681" lon="13.2230395"><ele>332.0</ele><time>2026-03-22T11:26:45Z</time></trkpt><trkpt lat="43.1376457" lon="13.2229082"><ele>331.83333333333337</ele><time>2026-03-22T11:26:46Z</time></trkpt><trkpt lat="43.1376297" lon="13.2227842"><ele>331.6666666666667</ele><time>2026-03-22T11:26:46.999Z</time></trkpt><trkpt lat="43.1376266" lon="13.222667"><ele>331.5</ele><time>2026-03-22T11:26:47.999Z</time></trkpt><trkpt lat="43.1376477" lon="13.2225569"><ele>331.3333333333333</ele><time>2026-03-22T11:26:48.999Z</time></trkpt><trkpt lat="43.1376924" lon="13.2224762"><ele>331.16666666666663</ele><time>2026-03-22T11:26:50Z</time></trkpt><trkpt lat="43.1377585" lon="13.2224284"><ele>331.0</ele><time>2026-03-22T11:26:50.999Z</time></trkpt><trkpt lat="43.1378399" lon="13.2224181"><ele>331.0</ele><time>2026-03-22T11:26:51.999Z</time></trkpt><trkpt lat="43.1379156" lon="13.2224623"><ele>331.0</ele><time>2026-03-22T11:26:53Z</time></trkpt><trkpt lat="43.1379897" lon="13.2225436"><ele>331.0</ele><time>2026-03-22T11:26:53.999Z</time></trkpt><trkpt lat="43.1380703" lon="13.2226403"><ele>331.0</ele><time>2026-03-22T11:26:54.999Z</time></trkpt><trkpt lat="43.138162" lon="13.2227229"><ele>331.0</ele><time>2026-03-22T11:26:55.999Z</time></trkpt><trkpt lat="43.1382658" lon="13.2227727"><ele>328.75</ele><time>2026-03-22T11:26:57Z</time></trkpt><trkpt lat="43.1383877" lon="13.2227931"><ele>326.5</ele><time>2026-03-22T11:26:58Z</time></trkpt><trkpt lat="43.1385155" lon="13.2228099"><ele>324.25</ele><time>2026-03-22T11:26:58.999Z</time></trkpt><trkpt lat="43.1386441" lon="13.2228303"><ele>322.0</ele><time>2026-03-22T11:26:59.999Z</time></trkpt><trkpt lat="43.1387722" lon="13.2228514"><ele>322.0</ele><time>2026-03-22T11:27:00.998Z</time></trkpt><trkpt lat="43.1388956" lon="13.2228733"><ele>322.0</ele><time>2026-03-22T11:27:01.999Z</time></trkpt><trkpt lat="43.1390151" lon="13.2228932"><ele>322.0</ele><time>2026-03-22T11:27:02.999Z</time></trkpt><trkpt lat="43.1391299" lon="13.2229116"><ele>322.0</ele><time>2026-03-22T11:27:04Z</time></trkpt><trkpt lat="43.1392398" lon="13.2229307"><ele>321.20000000000005</ele><time>2026-03-22T11:27:05Z</time></trkpt><trkpt lat="43.1393414" lon="13.222942"><ele>320.40000000000003</ele><time>2026-03-22T11:27:05.999Z</time></trkpt><trkpt lat="43.1394294" lon="13.2229531"><ele>319.6</ele><time>2026-03-22T11:27:06.999Z</time></trkpt><trkpt lat="43.1395125" lon="13.2230103"><ele>318.8</ele><time>2026-03-22T11:27:08.999Z</time></trkpt><trkpt lat="43.1395407" lon="13.2231701"><ele>318.0</ele><time>2026-03-22T11:27:10.999Z</time></trkpt><trkpt lat="43.1395455" lon="13.223286"><ele>317.3333333333333</ele><time>2026-03-22T11:27:12Z</time></trkpt><trkpt lat="43.1395507" lon="13.2234004"><ele>316.6666666666667</ele><time>2026-03-22T11:27:12.999Z</time></trkpt><trkpt lat="43.1395597" lon="13.2235181"><ele>316.0</ele><time>2026-03-22T11:27:14Z</time></trkpt><trkpt lat="43.1395713" lon="13.2236374"><ele>315.33333333333337</ele><time>2026-03-22T11:27:15Z</time></trkpt><trkpt lat="43.1395774" lon="13.2237586"><ele>314.6666666666667</ele><time>2026-03-22T11:27:15.999Z</time></trkpt><trkpt lat="43.1395829" lon="13.2238765"><ele>314.0</ele><time>2026-03-22T11:27:17Z</time></trkpt><trkpt lat="43.1395936" lon="13.2239779"><ele>313.85714285714283</ele><time>2026-03-22T11:27:18Z</time></trkpt><trkpt lat="43.1396094" lon="13.2240667"><ele>313.7142857142857</ele><time>2026-03-22T11:27:19Z</time></trkpt><trkpt lat="43.1396352" lon="13.2241589"><ele>313.57142857142856</ele><time>2026-03-22T11:27:20Z</time></trkpt><trkpt lat="43.139665" lon="13.2242549"><ele>313.42857142857144</ele><time>2026-03-22T11:27:20.999Z</time></trkpt><trkpt lat="43.1396981" lon="13.2243456"><ele>313.2857142857143</ele><time>2026-03-22T11:27:21.999Z</time></trkpt><trkpt lat="43.1397364" lon="13.2244342"><ele>313.1428571428571</ele><time>2026-03-22T11:27:23Z</time></trkpt><trkpt lat="43.1397773" lon="13.2245229"><ele>313.0</ele><time>2026-03-22T11:27:23.999Z</time></trkpt><trkpt lat="43.1398144" lon="13.2246077"><ele>313.0</ele><time>2026-03-22T11:27:24.999Z</time></trkpt><trkpt lat="43.139866" lon="13.2247178"><ele>313.0</ele><time>2026-03-22T11:27:26.999Z</time></trkpt><trkpt lat="43.1399044" lon="13.2247865"><ele>313.0</ele><time>2026-03-22T11:27:33Z</time></trkpt><trkpt lat="43.1399659" lon="13.224813"><ele>313.0</ele><time>2026-03-22T11:27:34.999Z</time></trkpt><trkpt lat="43.1400639" lon="13.2247443"><ele>313.0</ele><time>2026-03-22T11:27:36.999Z</time></trkpt><trkpt lat="43.1401346" lon="13.2246754"><ele>313.0</ele><time>2026-03-22T11:27:37.999Z</time></trkpt><trkpt lat="43.140211" lon="13.2246051"><ele>311.8</ele><time>2026-03-22T11:27:38.999Z</time></trkpt><trkpt lat="43.1403" lon="13.2245309"><ele>310.6</ele><time>2026-03-22T11:27:39.999Z</time></trkpt><trkpt lat="43.1403825" lon="13.2244591"><ele>309.4</ele><time>2026-03-22T11:27:41Z</time></trkpt><trkpt lat="43.1404716" lon="13.2243878"><ele>308.2</ele><time>2026-03-22T11:27:41.999Z</time></trkpt><trkpt lat="43.1405546" lon="13.2243114"><ele>307.0</ele><time>2026-03-22T11:27:42.999Z</time></trkpt><trkpt lat="43.140632" lon="13.2242414"><ele>307.0</ele><time>2026-03-22T11:27:44Z</time></trkpt><trkpt lat="43.140708" lon="13.2241794"><ele>307.0</ele><time>2026-03-22T11:27:44.999Z</time></trkpt><trkpt lat="43.1407816" lon="13.224118"><ele>307.0</ele><time>2026-03-22T11:27:46Z</time></trkpt><trkpt lat="43.1408537" lon="13.2240553"><ele>307.0</ele><time>2026-03-22T11:27:46.999Z</time></trkpt><trkpt lat="43.1409256" lon="13.2239942"><ele>307.0</ele><time>2026-03-22T11:27:48Z</time></trkpt><trkpt lat="43.1409933" lon="13.2239355"><ele>307.0</ele><time>2026-03-22T11:27:49Z</time></trkpt><trkpt lat="43.1410617" lon="13.2238753"><ele>306.8333333333333</ele><time>2026-03-22T11:27:49.999Z</time></trkpt><trkpt lat="43.1411321" lon="13.2238137"><ele>306.66666666666663</ele><time>2026-03-22T11:27:50.999Z</time></trkpt><trkpt lat="43.141203" lon="13.2237526"><ele>306.5</ele><time>2026-03-22T11:27:51.999Z</time></trkpt><trkpt lat="43.1412769" lon="13.2236941"><ele>306.3333333333333</ele><time>2026-03-22T11:27:53Z</time></trkpt><trkpt lat="43.1413564" lon="13.2236354"><ele>306.1666666666667</ele><time>2026-03-22T11:27:53.999Z</time></trkpt><trkpt lat="43.1414366" lon="13.2235719"><ele>306.0</ele><time>2026-03-22T11:27:54.999Z</time></trkpt><trkpt lat="43.1415172" lon="13.2235044"><ele>305.6</ele><time>2026-03-22T11:27:55.999Z</time></trkpt><trkpt lat="43.1415965" lon="13.2234363"><ele>305.20000000000005</ele><time>2026-03-22T11:27:56.999Z</time></trkpt><trkpt lat="43.1416718" lon="13.2233663"><ele>304.79999999999995</ele><time>2026-03-22T11:27:58Z</time></trkpt><trkpt lat="43.1417433" lon="13.2232884"><ele>304.4</ele><time>2026-03-22T11:27:58.999Z</time></trkpt><trkpt lat="43.141807" lon="13.2231933"><ele>304.0</ele><time>2026-03-22T11:27:59.999Z</time></trkpt><trkpt lat="43.1418605" lon="13.2230741"><ele>304.0</ele><time>2026-03-22T11:28:01Z</time></trkpt><trkpt lat="43.1419016" lon="13.2229337"><ele>304.0</ele><time>2026-03-22T11:28:02Z</time></trkpt><trkpt lat="43.1419304" lon="13.2227808"><ele>304.0</ele><time>2026-03-22T11:28:03Z</time></trkpt><trkpt lat="43.1419508" lon="13.2226376"><ele>304.0</ele><time>2026-03-22T11:28:03.999Z</time></trkpt><trkpt lat="43.1419723" lon="13.2224832"><ele>304.0</ele><time>2026-03-22T11:28:04.999Z</time></trkpt><trkpt lat="43.1419999" lon="13.2223314"><ele>303.5</ele><time>2026-03-22T11:28:05.999Z</time></trkpt><trkpt lat="43.1420268" lon="13.2221819"><ele>303.0</ele><time>2026-03-22T11:28:07Z</time></trkpt><trkpt lat="43.1420508" lon="13.2220316"><ele>302.5</ele><time>2026-03-22T11:28:08Z</time></trkpt><trkpt lat="43.1420717" lon="13.2218807"><ele>302.0</ele><time>2026-03-22T11:28:09Z</time></trkpt><trkpt lat="43.1420947" lon="13.2217279"><ele>302.0</ele><time>2026-03-22T11:28:09.999Z</time></trkpt><trkpt lat="43.1421171" lon="13.2215767"><ele>302.0</ele><time>2026-03-22T11:28:11Z</time></trkpt><trkpt lat="43.1421407" lon="13.221427"><ele>302.0</ele><time>2026-03-22T11:28:12Z</time></trkpt><trkpt lat="43.142162" lon="13.2212752"><ele>302.0</ele><time>2026-03-22T11:28:13Z</time></trkpt><trkpt lat="43.1421849" lon="13.2211136"><ele>301.5</ele><time>2026-03-22T11:28:14Z</time></trkpt><trkpt lat="43.1422111" lon="13.2209381"><ele>301.0</ele><time>2026-03-22T11:28:15Z</time></trkpt><trkpt lat="43.142239" lon="13.2207499"><ele>300.5</ele><time>2026-03-22T11:28:16Z</time></trkpt><trkpt lat="43.1422677" lon="13.2205544"><ele>300.0</ele><time>2026-03-22T11:28:16.999Z</time></trkpt><trkpt lat="43.1422946" lon="13.2203565"><ele>299.25</ele><time>2026-03-22T11:28:17.999Z</time></trkpt><trkpt lat="43.1423233" lon="13.220158"><ele>298.5</ele><time>2026-03-22T11:28:19Z</time></trkpt><trkpt lat="43.1423529" lon="13.2199653"><ele>297.75</ele><time>2026-03-22T11:28:20Z</time></trkpt><trkpt lat="43.1423804" lon="13.2197711"><ele>297.0</ele><time>2026-03-22T11:28:21Z</time></trkpt><trkpt lat="43.1424091" lon="13.2195742"><ele>296.0</ele><time>2026-03-22T11:28:22Z</time></trkpt><trkpt lat="43.1424388" lon="13.2193754"><ele>295.0</ele><time>2026-03-22T11:28:22.999Z</time></trkpt><trkpt lat="43.1424675" lon="13.2191731"><ele>294.0</ele><time>2026-03-22T11:28:23.999Z</time></trkpt><trkpt lat="43.1424982" lon="13.2189678"><ele>293.6666666666667</ele><time>2026-03-22T11:28:24.999Z</time></trkpt><trkpt lat="43.1425298" lon="13.2187618"><ele>293.33333333333337</ele><time>2026-03-22T11:28:26Z</time></trkpt><trkpt lat="43.1425603" lon="13.2185524"><ele>293.0</ele><time>2026-03-22T11:28:26.999Z</time></trkpt><trkpt lat="43.1425901" lon="13.2183424"><ele>292.0</ele><time>2026-03-22T11:28:27.999Z</time></trkpt><trkpt lat="43.1426193" lon="13.2181373"><ele>291.0</ele><time>2026-03-22T11:28:28.999Z</time></trkpt><trkpt lat="43.142649" lon="13.2179362"><ele>290.0</ele><time>2026-03-22T11:28:29.999Z</time></trkpt><trkpt lat="43.1426797" lon="13.2177328"><ele>290.0</ele><time>2026-03-22T11:28:30.999Z</time></trkpt><trkpt lat="43.14271" lon="13.2175253"><ele>290.0</ele><time>2026-03-22T11:28:32Z</time></trkpt><trkpt lat="43.1427393" lon="13.2173151"><ele>290.0</ele><time>2026-03-22T11:28:32.998Z</time></trkpt><trkpt lat="43.1427688" lon="13.2171037"><ele>289.33333333333337</ele><time>2026-03-22T11:28:34Z</time></trkpt><trkpt lat="43.1427976" lon="13.2168906"><ele>288.6666666666667</ele><time>2026-03-22T11:28:34.999Z</time></trkpt><trkpt lat="43.1428278" lon="13.2166769"><ele>288.0</ele><time>2026-03-22T11:28:35.999Z</time></trkpt><trkpt lat="43.1428598" lon="13.2164647"><ele>287.75</ele><time>2026-03-22T11:28:36.999Z</time></trkpt><trkpt lat="43.1428909" lon="13.2162601"><ele>287.5</ele><time>2026-03-22T11:28:38Z</time></trkpt><trkpt lat="43.1429201" lon="13.2160671"><ele>287.25</ele><time>2026-03-22T11:28:39Z</time></trkpt><trkpt lat="43.142947" lon="13.2158833"><ele>287.0</ele><time>2026-03-22T11:28:40Z</time></trkpt><trkpt lat="43.1429744" lon="13.2157038"><ele>287.5</ele><time>2026-03-22T11:28:41Z</time></trkpt><trkpt lat="43.1430009" lon="13.2155253"><ele>288.0</ele><time>2026-03-22T11:28:42Z</time></trkpt><trkpt lat="43.1430279" lon="13.2153501"><ele>288.5</ele><time>2026-03-22T11:28:42.999Z</time></trkpt><trkpt lat="43.1430555" lon="13.215178"><ele>289.0</ele><time>2026-03-22T11:28:43.999Z</time></trkpt><trkpt lat="43.1430796" lon="13.215006"><ele>289.0</ele><time>2026-03-22T11:28:45Z</time></trkpt><trkpt lat="43.1430888" lon="13.2148329"><ele>289.0</ele><time>2026-03-22T11:28:46Z</time></trkpt><trkpt lat="43.1430644" lon="13.2146711"><ele>289.0</ele><time>2026-03-22T11:28:46.999Z</time></trkpt><trkpt lat="43.1430059" lon="13.2145254"><ele>289.0</ele><time>2026-03-22T11:28:47.999Z</time></trkpt><trkpt lat="43.1429169" lon="13.2143914"><ele>289.0</ele><time>2026-03-22T11:28:49Z</time></trkpt><trkpt lat="43.1428147" lon="13.2142635"><ele>289.0</ele><time>2026-03-22T11:28:50Z</time></trkpt><trkpt lat="43.142711" lon="13.2141339"><ele>289.0</ele><time>2026-03-22T11:28:50.999Z</time></trkpt><trkpt lat="43.1426073" lon="13.2140049"><ele>289.0</ele><time>2026-03-22T11:28:51.999Z</time></trkpt><trkpt lat="43.1424989" lon="13.2138755"><ele>289.0</ele><time>2026-03-22T11:28:53Z</time></trkpt><trkpt lat="43.1423901" lon="13.2137452"><ele>289.0</ele><time>2026-03-22T11:28:54Z</time></trkpt><trkpt lat="43.1422793" lon="13.2136135"><ele>289.0</ele><time>2026-03-22T11:28:54.999Z</time></trkpt><trkpt lat="43.1421678" lon="13.2134803"><ele>289.0</ele><time>2026-03-22T11:28:55.999Z</time></trkpt><trkpt lat="43.142056" lon="13.2133444"><ele>289.66666666666663</ele><time>2026-03-22T11:28:56.999Z</time></trkpt><trkpt lat="43.1419438" lon="13.2132076"><ele>290.3333333333333</ele><time>2026-03-22T11:28:57.999Z</time></trkpt><trkpt lat="43.1418319" lon="13.2130695"><ele>291.0</ele><time>2026-03-22T11:28:59Z</time></trkpt><trkpt lat="43.1417189" lon="13.2129298"><ele>291.0</ele><time>2026-03-22T11:29:00Z</time></trkpt><trkpt lat="43.1416058" lon="13.2127912"><ele>291.0</ele><time>2026-03-22T11:29:00.999Z</time></trkpt><trkpt lat="43.1414942" lon="13.2126564"><ele>291.0</ele><time>2026-03-22T11:29:01.999Z</time></trkpt><trkpt lat="43.141386" lon="13.2125293"><ele>291.0</ele><time>2026-03-22T11:29:03Z</time></trkpt><trkpt lat="43.1412817" lon="13.2124061"><ele>290.75</ele><time>2026-03-22T11:29:03.999Z</time></trkpt><trkpt lat="43.1411795" lon="13.2122847"><ele>290.5</ele><time>2026-03-22T11:29:04.999Z</time></trkpt><trkpt lat="43.141084" lon="13.2121607"><ele>290.25</ele><time>2026-03-22T11:29:06Z</time></trkpt><trkpt lat="43.1410088" lon="13.2120236"><ele>290.0</ele><time>2026-03-22T11:29:06.999Z</time></trkpt><trkpt lat="43.1409646" lon="13.2118674"><ele>290.0</ele><time>2026-03-22T11:29:07.999Z</time></trkpt><trkpt lat="43.1409508" lon="13.2116814"><ele>290.0</ele><time>2026-03-22T11:29:09Z</time></trkpt><trkpt lat="43.1409589" lon="13.2114846"><ele>290.0</ele><time>2026-03-22T11:29:10Z</time></trkpt><trkpt lat="43.1409717" lon="13.2112782"><ele>290.0</ele><time>2026-03-22T11:29:10.999Z</time></trkpt><trkpt lat="43.1409851" lon="13.2110643"><ele>291.33333333333337</ele><time>2026-03-22T11:29:11.999Z</time></trkpt><trkpt lat="43.1410016" lon="13.2108484"><ele>292.6666666666667</ele><time>2026-03-22T11:29:13Z</time></trkpt><trkpt lat="43.1410199" lon="13.2106314"><ele>294.0</ele><time>2026-03-22T11:29:13.999Z</time></trkpt><trkpt lat="43.1410397" lon="13.2104126"><ele>295.0</ele><time>2026-03-22T11:29:15Z</time></trkpt><trkpt lat="43.1410574" lon="13.2101937"><ele>296.0</ele><time>2026-03-22T11:29:15.998Z</time></trkpt><trkpt lat="43.1410755" lon="13.2099745"><ele>297.0</ele><time>2026-03-22T11:29:16.999Z</time></trkpt><trkpt lat="43.1410931" lon="13.2097594"><ele>297.5</ele><time>2026-03-22T11:29:17.999Z</time></trkpt><trkpt lat="43.1411067" lon="13.2095559"><ele>298.0</ele><time>2026-03-22T11:29:19Z</time></trkpt><trkpt lat="43.1411148" lon="13.2093529"><ele>298.5</ele><time>2026-03-22T11:29:20Z</time></trkpt><trkpt lat="43.1411151" lon="13.2091498"><ele>299.0</ele><time>2026-03-22T11:29:20.999Z</time></trkpt><trkpt lat="43.1411105" lon="13.2089489"><ele>300.0</ele><time>2026-03-22T11:29:22Z</time></trkpt><trkpt lat="43.1411059" lon="13.2087521"><ele>301.0</ele><time>2026-03-22T11:29:22.999Z</time></trkpt><trkpt lat="43.1411166" lon="13.2085724"><ele>302.0</ele><time>2026-03-22T11:29:23.999Z</time></trkpt><trkpt lat="43.1411576" lon="13.2084205"><ele>303.0</ele><time>2026-03-22T11:29:25Z</time></trkpt><trkpt lat="43.1412295" lon="13.2083004"><ele>303.0</ele><time>2026-03-22T11:29:25.999Z</time></trkpt><trkpt lat="43.1413291" lon="13.2082249"><ele>303.0</ele><time>2026-03-22T11:29:26.998Z</time></trkpt><trkpt lat="43.1414554" lon="13.2081824"><ele>303.0</ele><time>2026-03-22T11:29:28Z</time></trkpt><trkpt lat="43.1415956" lon="13.2081633"><ele>303.0</ele><time>2026-03-22T11:29:28.999Z</time></trkpt><trkpt lat="43.1417442" lon="13.2081458"><ele>300.3333333333333</ele><time>2026-03-22T11:29:29.999Z</time></trkpt><trkpt lat="43.1418994" lon="13.2081179"><ele>297.66666666666663</ele><time>2026-03-22T11:29:31Z</time></trkpt><trkpt lat="43.1420581" lon="13.2080922"><ele>295.0</ele><time>2026-03-22T11:29:31.999Z</time></trkpt><trkpt lat="43.1422139" lon="13.2080727"><ele>295.0</ele><time>2026-03-22T11:29:33Z</time></trkpt><trkpt lat="43.1423668" lon="13.2080537"><ele>295.0</ele><time>2026-03-22T11:29:34Z</time></trkpt><trkpt lat="43.1425204" lon="13.2080301"><ele>295.0</ele><time>2026-03-22T11:29:34.999Z</time></trkpt><trkpt lat="43.1426706" lon="13.2079983"><ele>293.3333333333333</ele><time>2026-03-22T11:29:36Z</time></trkpt><trkpt lat="43.1428158" lon="13.2079529"><ele>291.6666666666667</ele><time>2026-03-22T11:29:37Z</time></trkpt><trkpt lat="43.1429604" lon="13.2078807"><ele>290.0</ele><time>2026-03-22T11:29:38Z</time></trkpt><trkpt lat="43.1431037" lon="13.2077932"><ele>288.25</ele><time>2026-03-22T11:29:38.999Z</time></trkpt><trkpt lat="43.1432399" lon="13.2076938"><ele>286.5</ele><time>2026-03-22T11:29:40Z</time></trkpt><trkpt lat="43.1433685" lon="13.207603"><ele>284.75</ele><time>2026-03-22T11:29:41Z</time></trkpt><trkpt lat="43.1434889" lon="13.2075151"><ele>283.0</ele><time>2026-03-22T11:29:41.999Z</time></trkpt><trkpt lat="43.1436049" lon="13.2074322"><ele>283.0</ele><time>2026-03-22T11:29:43Z</time></trkpt><trkpt lat="43.1437234" lon="13.2073485"><ele>283.0</ele><time>2026-03-22T11:29:43.999Z</time></trkpt><trkpt lat="43.143841" lon="13.2072637"><ele>283.0</ele><time>2026-03-22T11:29:44.999Z</time></trkpt><trkpt lat="43.1439549" lon="13.207181"><ele>283.0</ele><time>2026-03-22T11:29:46Z</time></trkpt><trkpt lat="43.144071" lon="13.2070977"><ele>284.0</ele><time>2026-03-22T11:29:46.999Z</time></trkpt><trkpt lat="43.1441808" lon="13.2070158"><ele>285.0</ele><time>2026-03-22T11:29:48Z</time></trkpt><trkpt lat="43.1442872" lon="13.2069395"><ele>286.0</ele><time>2026-03-22T11:29:49Z</time></trkpt><trkpt lat="43.1443994" lon="13.2068829"><ele>287.0</ele><time>2026-03-22T11:29:49.999Z</time></trkpt><trkpt lat="43.1445171" lon="13.206862"><ele>287.0</ele><time>2026-03-22T11:29:51Z</time></trkpt><trkpt lat="43.1446371" lon="13.206891"><ele>287.0</ele><time>2026-03-22T11:29:52Z</time></trkpt><trkpt lat="43.1447537" lon="13.2069633"><ele>287.0</ele><time>2026-03-22T11:29:52.999Z</time></trkpt><trkpt lat="43.1448669" lon="13.2070643"><ele>287.0</ele><time>2026-03-22T11:29:54Z</time></trkpt><trkpt lat="43.1449854" lon="13.2071703"><ele>286.0</ele><time>2026-03-22T11:29:55Z</time></trkpt><trkpt lat="43.1451079" lon="13.2072752"><ele>285.0</ele><time>2026-03-22T11:29:55.999Z</time></trkpt><trkpt lat="43.1452295" lon="13.207382"><ele>284.0</ele><time>2026-03-22T11:29:57Z</time></trkpt><trkpt lat="43.1453516" lon="13.2074881"><ele>283.0</ele><time>2026-03-22T11:29:57.999Z</time></trkpt><trkpt lat="43.1454726" lon="13.2075913"><ele>282.5</ele><time>2026-03-22T11:29:59Z</time></trkpt><trkpt lat="43.1455913" lon="13.207693"><ele>282.0</ele><time>2026-03-22T11:30:00Z</time></trkpt><trkpt lat="43.1457075" lon="13.207801"><ele>281.5</ele><time>2026-03-22T11:30:00.999Z</time></trkpt><trkpt lat="43.1458219" lon="13.2079013"><ele>281.0</ele><time>2026-03-22T11:30:02Z</time></trkpt><trkpt lat="43.1459329" lon="13.2079974"><ele>281.40000000000003</ele><time>2026-03-22T11:30:03Z</time></trkpt><trkpt lat="43.1460332" lon="13.2080867"><ele>281.8</ele><time>2026-03-22T11:30:03.999Z</time></trkpt><trkpt lat="43.1461273" lon="13.2081677"><ele>282.20000000000005</ele><time>2026-03-22T11:30:05Z</time></trkpt><trkpt lat="43.1462184" lon="13.2082284"><ele>282.6</ele><time>2026-03-22T11:30:06Z</time></trkpt><trkpt lat="43.1463012" lon="13.2082615"><ele>283.0</ele><time>2026-03-22T11:30:06.999Z</time></trkpt><trkpt lat="43.1463791" lon="13.2082776"><ele>283.0</ele><time>2026-03-22T11:30:08Z</time></trkpt><trkpt lat="43.1464517" lon="13.2082794"><ele>283.0</ele><time>2026-03-22T11:30:09Z</time></trkpt><trkpt lat="43.1465817" lon="13.2082798"><ele>283.0</ele><time>2026-03-22T11:30:11Z</time></trkpt><trkpt lat="43.146645" lon="13.2083013"><ele>283.0</ele><time>2026-03-22T11:30:12Z</time></trkpt><trkpt lat="43.1467023" lon="13.2083583"><ele>283.0</ele><time>2026-03-22T11:30:12.999Z</time></trkpt><trkpt lat="43.1467491" lon="13.2084499"><ele>283.0</ele><time>2026-03-22T11:30:13.999Z</time></trkpt><trkpt lat="43.1467889" lon="13.2085593"><ele>283.0</ele><time>2026-03-22T11:30:14.999Z</time></trkpt><trkpt lat="43.1468276" lon="13.2086734"><ele>283.0</ele><time>2026-03-22T11:30:16Z</time></trkpt><trkpt lat="43.146875" lon="13.2088006"><ele>283.0</ele><time>2026-03-22T11:30:17Z</time></trkpt><trkpt lat="43.1469189" lon="13.2089213"><ele>283.0</ele><time>2026-03-22T11:30:17.999Z</time></trkpt><trkpt lat="43.1469591" lon="13.209038"><ele>283.0</ele><time>2026-03-22T11:30:18.999Z</time></trkpt><trkpt lat="43.1470021" lon="13.2091628"><ele>283.0</ele><time>2026-03-22T11:30:19.999Z</time></trkpt><trkpt lat="43.1470474" lon="13.2092854"><ele>283.0</ele><time>2026-03-22T11:30:21Z</time></trkpt><trkpt lat="43.1470916" lon="13.2094098"><ele>283.0</ele><time>2026-03-22T11:30:22Z</time></trkpt><trkpt lat="43.1471421" lon="13.2095416"><ele>283.0</ele><time>2026-03-22T11:30:22.999Z</time></trkpt><trkpt lat="43.1471971" lon="13.2096808"><ele>283.0</ele><time>2026-03-22T11:30:23.999Z</time></trkpt><trkpt lat="43.1472494" lon="13.2098169"><ele>283.5</ele><time>2026-03-22T11:30:25Z</time></trkpt><trkpt lat="43.1472973" lon="13.209947"><ele>284.0</ele><time>2026-03-22T11:30:26Z</time></trkpt><trkpt lat="43.1473533" lon="13.2100907"><ele>284.5</ele><time>2026-03-22T11:30:26.999Z</time></trkpt><trkpt lat="43.1474159" lon="13.2102396"><ele>285.0</ele><time>2026-03-22T11:30:28Z</time></trkpt><trkpt lat="43.1474792" lon="13.210387"><ele>285.0</ele><time>2026-03-22T11:30:29Z</time></trkpt><trkpt lat="43.1475521" lon="13.2105388"><ele>285.0</ele><time>2026-03-22T11:30:29.999Z</time></trkpt><trkpt lat="43.147635" lon="13.2106901"><ele>285.0</ele><time>2026-03-22T11:30:30.999Z</time></trkpt><trkpt lat="43.14772" lon="13.2108455"><ele>285.0</ele><time>2026-03-22T11:30:31.999Z</time></trkpt><trkpt lat="43.1478104" lon="13.2110009"><ele>284.0</ele><time>2026-03-22T11:30:33Z</time></trkpt><trkpt lat="43.1479076" lon="13.2111483"><ele>283.0</ele><time>2026-03-22T11:30:33.999Z</time></trkpt><trkpt lat="43.1480106" lon="13.2112967"><ele>282.0</ele><time>2026-03-22T11:30:35Z</time></trkpt><trkpt lat="43.1481204" lon="13.2114349"><ele>281.0</ele><time>2026-03-22T11:30:36Z</time></trkpt><trkpt lat="43.148229" lon="13.2115583"><ele>281.0</ele><time>2026-03-22T11:30:37Z</time></trkpt><trkpt lat="43.1483354" lon="13.2116727"><ele>281.0</ele><time>2026-03-22T11:30:37.998Z</time></trkpt><trkpt lat="43.148439" lon="13.211779"><ele>281.0</ele><time>2026-03-22T11:30:39Z</time></trkpt><trkpt lat="43.1485356" lon="13.2118862"><ele>281.0</ele><time>2026-03-22T11:30:39.999Z</time></trkpt><trkpt lat="43.148639" lon="13.2120034"><ele>281.0</ele><time>2026-03-22T11:30:41Z</time></trkpt><trkpt lat="43.148741" lon="13.2121297"><ele>281.0</ele><time>2026-03-22T11:30:41.998Z</time></trkpt><trkpt lat="43.14884" lon="13.2122662"><ele>281.0</ele><time>2026-03-22T11:30:43Z</time></trkpt><trkpt lat="43.1489261" lon="13.2123971"><ele>281.0</ele><time>2026-03-22T11:30:44Z</time></trkpt><trkpt lat="43.1489966" lon="13.2125134"><ele>281.25</ele><time>2026-03-22T11:30:44.999Z</time></trkpt><trkpt lat="43.1490595" lon="13.2126247"><ele>281.5</ele><time>2026-03-22T11:30:45.999Z</time></trkpt><trkpt lat="43.1491266" lon="13.2127453"><ele>281.75</ele><time>2026-03-22T11:30:47Z</time></trkpt><trkpt lat="43.1491996" lon="13.2128698"><ele>282.0</ele><time>2026-03-22T11:30:48Z</time></trkpt><trkpt lat="43.1492753" lon="13.212999"><ele>282.0</ele><time>2026-03-22T11:30:48.999Z</time></trkpt><trkpt lat="43.1493522" lon="13.2131322"><ele>282.0</ele><time>2026-03-22T11:30:50Z</time></trkpt><trkpt lat="43.1494294" lon="13.2132687"><ele>282.0</ele><time>2026-03-22T11:30:51Z</time></trkpt><trkpt lat="43.1494961" lon="13.2134247"><ele>282.0</ele><time>2026-03-22T11:30:51.999Z</time></trkpt><trkpt lat="43.1495393" lon="13.2136121"><ele>280.6666666666667</ele><time>2026-03-22T11:30:52.999Z</time></trkpt><trkpt lat="43.1495742" lon="13.2138162"><ele>279.33333333333337</ele><time>2026-03-22T11:30:54Z</time></trkpt><trkpt lat="43.1496183" lon="13.2140283"><ele>278.0</ele><time>2026-03-22T11:30:55Z</time></trkpt><trkpt lat="43.1496596" lon="13.2142497"><ele>277.6666666666667</ele><time>2026-03-22T11:30:56Z</time></trkpt><trkpt lat="43.1496986" lon="13.2144799"><ele>277.3333333333333</ele><time>2026-03-22T11:30:56.999Z</time></trkpt><trkpt lat="43.1497399" lon="13.2147174"><ele>277.0</ele><time>2026-03-22T11:30:58Z</time></trkpt><trkpt lat="43.149783" lon="13.2149614"><ele>276.3333333333333</ele><time>2026-03-22T11:30:58.999Z</time></trkpt><trkpt lat="43.1498267" lon="13.2152091"><ele>275.6666666666667</ele><time>2026-03-22T11:31:00Z</time></trkpt><trkpt lat="43.1498729" lon="13.2154602"><ele>275.0</ele><time>2026-03-22T11:31:00.999Z</time></trkpt><trkpt lat="43.1499193" lon="13.2157131"><ele>275.0</ele><time>2026-03-22T11:31:02Z</time></trkpt><trkpt lat="43.1499669" lon="13.2159689"><ele>275.0</ele><time>2026-03-22T11:31:02.999Z</time></trkpt><trkpt lat="43.1500141" lon="13.2162262"><ele>275.0</ele><time>2026-03-22T11:31:03.999Z</time></trkpt><trkpt lat="43.1500622" lon="13.2164856"><ele>275.0</ele><time>2026-03-22T11:31:05Z</time></trkpt><trkpt lat="43.1501116" lon="13.2167465"><ele>275.0</ele><time>2026-03-22T11:31:06Z</time></trkpt><trkpt lat="43.1501598" lon="13.2170097"><ele>275.0</ele><time>2026-03-22T11:31:06.999Z</time></trkpt><trkpt lat="43.1502071" lon="13.2172727"><ele>272.6666666666667</ele><time>2026-03-22T11:31:07.999Z</time></trkpt><trkpt lat="43.1502543" lon="13.2175369"><ele>270.3333333333333</ele><time>2026-03-22T11:31:08.999Z</time></trkpt><trkpt lat="43.1502997" lon="13.21779"><ele>268.0</ele><time>2026-03-22T11:31:10Z</time></trkpt><trkpt lat="43.1503438" lon="13.2180289"><ele>267.0</ele><time>2026-03-22T11:31:10.999Z</time></trkpt><trkpt lat="43.150389" lon="13.2182573"><ele>266.0</ele><time>2026-03-22T11:31:11.999Z</time></trkpt><trkpt lat="43.1504359" lon="13.218469"><ele>265.0</ele><time>2026-03-22T11:31:13Z</time></trkpt><trkpt lat="43.1504934" lon="13.2186709"><ele>265.0</ele><time>2026-03-22T11:31:13.999Z</time></trkpt><trkpt lat="43.1505719" lon="13.2188653"><ele>265.0</ele><time>2026-03-22T11:31:15Z</time></trkpt><trkpt lat="43.1506699" lon="13.2190433"><ele>265.0</ele><time>2026-03-22T11:31:15.999Z</time></trkpt><trkpt lat="43.1507859" lon="13.2191991"><ele>267.66666666666663</ele><time>2026-03-22T11:31:16.999Z</time></trkpt><trkpt lat="43.1509181" lon="13.21933"><ele>270.3333333333333</ele><time>2026-03-22T11:31:18Z</time></trkpt><trkpt lat="43.1510598" lon="13.2194367"><ele>273.0</ele><time>2026-03-22T11:31:19Z</time></trkpt><trkpt lat="43.1511998" lon="13.219528"><ele>273.0</ele><time>2026-03-22T11:31:19.999Z</time></trkpt><trkpt lat="43.1513359" lon="13.2196141"><ele>273.0</ele><time>2026-03-22T11:31:20.999Z</time></trkpt><trkpt lat="43.1514745" lon="13.2196952"><ele>273.0</ele><time>2026-03-22T11:31:22Z</time></trkpt><trkpt lat="43.1516067" lon="13.219771"><ele>273.0</ele><time>2026-03-22T11:31:22.999Z</time></trkpt><trkpt lat="43.1517406" lon="13.2198428"><ele>273.3333333333333</ele><time>2026-03-22T11:31:23.999Z</time></trkpt><trkpt lat="43.1518808" lon="13.2199039"><ele>273.66666666666663</ele><time>2026-03-22T11:31:25Z</time></trkpt><trkpt lat="43.1520269" lon="13.2199538"><ele>274.0</ele><time>2026-03-22T11:31:25.999Z</time></trkpt><trkpt lat="43.1521773" lon="13.2199991"><ele>274.0</ele><time>2026-03-22T11:31:26.999Z</time></trkpt><trkpt lat="43.1523281" lon="13.2200437"><ele>274.0</ele><time>2026-03-22T11:31:27.999Z</time></trkpt><trkpt lat="43.1524736" lon="13.2201095"><ele>274.0</ele><time>2026-03-22T11:31:28.999Z</time></trkpt><trkpt lat="43.1526124" lon="13.2202091"><ele>274.3333333333333</ele><time>2026-03-22T11:31:30Z</time></trkpt><trkpt lat="43.1527429" lon="13.2203356"><ele>274.6666666666667</ele><time>2026-03-22T11:31:31Z</time></trkpt><trkpt lat="43.1528669" lon="13.2204745"><ele>275.0</ele><time>2026-03-22T11:31:31.999Z</time></trkpt><trkpt lat="43.1529817" lon="13.2206155"><ele>274.33333333333337</ele><time>2026-03-22T11:31:33Z</time></trkpt><trkpt lat="43.1530939" lon="13.2207578"><ele>273.6666666666667</ele><time>2026-03-22T11:31:33.999Z</time></trkpt><trkpt lat="43.1532087" lon="13.2208949"><ele>273.0</ele><time>2026-03-22T11:31:35Z</time></trkpt><trkpt lat="43.1533206" lon="13.2210298"><ele>273.0</ele><time>2026-03-22T11:31:36Z</time></trkpt><trkpt lat="43.1534294" lon="13.2211615"><ele>273.0</ele><time>2026-03-22T11:31:36.999Z</time></trkpt><trkpt lat="43.1535361" lon="13.2212918"><ele>273.0</ele><time>2026-03-22T11:31:37.999Z</time></trkpt><trkpt lat="43.1536362" lon="13.2214158"><ele>273.0</ele><time>2026-03-22T11:31:39Z</time></trkpt><trkpt lat="43.1537331" lon="13.2215336"><ele>272.75</ele><time>2026-03-22T11:31:39.999Z</time></trkpt><trkpt lat="43.1538242" lon="13.221648"><ele>272.5</ele><time>2026-03-22T11:31:40.999Z</time></trkpt><trkpt lat="43.1539162" lon="13.2217632"><ele>272.25</ele><time>2026-03-22T11:31:41.999Z</time></trkpt><trkpt lat="43.1540055" lon="13.2218819"><ele>272.0</ele><time>2026-03-22T11:31:43Z</time></trkpt><trkpt lat="43.1540915" lon="13.2219964"><ele>272.0</ele><time>2026-03-22T11:31:44Z</time></trkpt><trkpt lat="43.1541662" lon="13.2221"><ele>272.0</ele><time>2026-03-22T11:31:44.999Z</time></trkpt><trkpt lat="43.1542236" lon="13.2221863"><ele>272.0</ele><time>2026-03-22T11:31:45.999Z</time></trkpt><trkpt lat="43.154287" lon="13.2222837"><ele>272.0</ele><time>2026-03-22T11:31:47.998Z</time></trkpt><trkpt lat="43.1543633" lon="13.2223379"><ele>272.0</ele><time>2026-03-22T11:31:51Z</time></trkpt><trkpt lat="43.154443" lon="13.2222661"><ele>272.0</ele><time>2026-03-22T11:31:52.999Z</time></trkpt><trkpt lat="43.1545105" lon="13.2222231"><ele>272.0</ele><time>2026-03-22T11:31:54Z</time></trkpt><trkpt lat="43.1545954" lon="13.2221861"><ele>272.0</ele><time>2026-03-22T11:31:54.999Z</time></trkpt><trkpt lat="43.1546897" lon="13.2221857"><ele>272.0</ele><time>2026-03-22T11:31:55.999Z</time></trkpt><trkpt lat="43.1547757" lon="13.2222437"><ele>272.0</ele><time>2026-03-22T11:31:56.999Z</time></trkpt><trkpt lat="43.1548452" lon="13.2223399"><ele>272.5</ele><time>2026-03-22T11:31:57.999Z</time></trkpt><trkpt lat="43.1549118" lon="13.2224526"><ele>273.0</ele><time>2026-03-22T11:31:58.999Z</time></trkpt><trkpt lat="43.1549966" lon="13.2225861"><ele>273.5</ele><time>2026-03-22T11:31:59.999Z</time></trkpt><trkpt lat="43.1550836" lon="13.2227191"><ele>274.0</ele><time>2026-03-22T11:32:00.999Z</time></trkpt><trkpt lat="43.1551779" lon="13.2228681"><ele>274.0</ele><time>2026-03-22T11:32:01.999Z</time></trkpt><trkpt lat="43.1552837" lon="13.2230315"><ele>274.0</ele><time>2026-03-22T11:32:02.999Z</time></trkpt><trkpt lat="43.1553985" lon="13.2232007"><ele>274.0</ele><time>2026-03-22T11:32:03.999Z</time></trkpt><trkpt lat="43.1555158" lon="13.223369"><ele>275.0</ele><time>2026-03-22T11:32:04.999Z</time></trkpt><trkpt lat="43.1556341" lon="13.2235387"><ele>276.0</ele><time>2026-03-22T11:32:05.999Z</time></trkpt><trkpt lat="43.1557526" lon="13.2237064"><ele>277.0</ele><time>2026-03-22T11:32:06.999Z</time></trkpt><trkpt lat="43.155869" lon="13.2238732"><ele>281.3333333333333</ele><time>2026-03-22T11:32:07.999Z</time></trkpt><trkpt lat="43.1559839" lon="13.2240382"><ele>285.6666666666667</ele><time>2026-03-22T11:32:08.999Z</time></trkpt><trkpt lat="43.1561008" lon="13.2241968"><ele>290.0</ele><time>2026-03-22T11:32:09.998Z</time></trkpt><trkpt lat="43.1562195" lon="13.2243526"><ele>290.0</ele><time>2026-03-22T11:32:10.998Z</time></trkpt><trkpt lat="43.1563393" lon="13.2245087"><ele>290.0</ele><time>2026-03-22T11:32:12Z</time></trkpt><trkpt lat="43.1564625" lon="13.2246626"><ele>290.0</ele><time>2026-03-22T11:32:12.999Z</time></trkpt><trkpt lat="43.156588" lon="13.2248178"><ele>295.0</ele><time>2026-03-22T11:32:14Z</time></trkpt><trkpt lat="43.1567122" lon="13.2249753"><ele>300.0</ele><time>2026-03-22T11:32:14.999Z</time></trkpt><trkpt lat="43.1568369" lon="13.2251321"><ele>305.0</ele><time>2026-03-22T11:32:15.999Z</time></trkpt><trkpt lat="43.1569615" lon="13.2252843"><ele>305.0</ele><time>2026-03-22T11:32:16.999Z</time></trkpt><trkpt lat="43.1570808" lon="13.2254314"><ele>305.0</ele><time>2026-03-22T11:32:18Z</time></trkpt><trkpt lat="43.157193" lon="13.225576"><ele>305.0</ele><time>2026-03-22T11:32:19Z</time></trkpt><trkpt lat="43.1572974" lon="13.2257125"><ele>308.75</ele><time>2026-03-22T11:32:19.999Z</time></trkpt><trkpt lat="43.1573925" lon="13.2258452"><ele>312.5</ele><time>2026-03-22T11:32:21Z</time></trkpt><trkpt lat="43.1574764" lon="13.2259771"><ele>316.25</ele><time>2026-03-22T11:32:21.999Z</time></trkpt><trkpt lat="43.1575527" lon="13.2261109"><ele>320.0</ele><time>2026-03-22T11:32:22.999Z</time></trkpt><trkpt lat="43.157621" lon="13.2262513"><ele>320.0</ele><time>2026-03-22T11:32:23.999Z</time></trkpt><trkpt lat="43.1576882" lon="13.226392"><ele>320.0</ele><time>2026-03-22T11:32:24.999Z</time></trkpt><trkpt lat="43.1577545" lon="13.2265357"><ele>320.0</ele><time>2026-03-22T11:32:26Z</time></trkpt><trkpt lat="43.1578188" lon="13.2266763"><ele>320.0</ele><time>2026-03-22T11:32:26.999Z</time></trkpt><trkpt lat="43.1578826" lon="13.2268175"><ele>320.5</ele><time>2026-03-22T11:32:27.999Z</time></trkpt><trkpt lat="43.1579487" lon="13.2269527"><ele>321.0</ele><time>2026-03-22T11:32:28.999Z</time></trkpt><trkpt lat="43.1580199" lon="13.2270839"><ele>321.5</ele><time>2026-03-22T11:32:30Z</time></trkpt><trkpt lat="43.1581008" lon="13.2272112"><ele>322.0</ele><time>2026-03-22T11:32:31Z</time></trkpt><trkpt lat="43.158191" lon="13.2273395"><ele>327.0</ele><time>2026-03-22T11:32:31.999Z</time></trkpt><trkpt lat="43.1582887" lon="13.2274735"><ele>332.0</ele><time>2026-03-22T11:32:32.999Z</time></trkpt><trkpt lat="43.1583896" lon="13.227609"><ele>337.0</ele><time>2026-03-22T11:32:33.999Z</time></trkpt><trkpt lat="43.1584921" lon="13.2277486"><ele>342.0</ele><time>2026-03-22T11:32:34.999Z</time></trkpt><trkpt lat="43.1585965" lon="13.2278892"><ele>342.0</ele><time>2026-03-22T11:32:35.999Z</time></trkpt><trkpt lat="43.1586987" lon="13.2280278"><ele>342.0</ele><time>2026-03-22T11:32:37Z</time></trkpt><trkpt lat="43.1587988" lon="13.2281589"><ele>342.0</ele><time>2026-03-22T11:32:38Z</time></trkpt><trkpt lat="43.1588968" lon="13.2282837"><ele>342.0</ele><time>2026-03-22T11:32:39Z</time></trkpt><trkpt lat="43.1589947" lon="13.2283967"><ele>344.75</ele><time>2026-03-22T11:32:40Z</time></trkpt><trkpt lat="43.1590958" lon="13.2284945"><ele>347.5</ele><time>2026-03-22T11:32:40.999Z</time></trkpt><trkpt lat="43.1591999" lon="13.2285768"><ele>350.25</ele><time>2026-03-22T11:32:41.999Z</time></trkpt><trkpt lat="43.1593093" lon="13.2286425"><ele>353.0</ele><time>2026-03-22T11:32:42.999Z</time></trkpt><trkpt lat="43.1594113" lon="13.2286937"><ele>353.0</ele><time>2026-03-22T11:32:44Z</time></trkpt><trkpt lat="43.1595126" lon="13.2287323"><ele>353.0</ele><time>2026-03-22T11:32:45Z</time></trkpt><trkpt lat="43.1596085" lon="13.2287728"><ele>353.0</ele><time>2026-03-22T11:32:45.999Z</time></trkpt><trkpt lat="43.1596917" lon="13.2288045"><ele>353.0</ele><time>2026-03-22T11:32:46.999Z</time></trkpt><trkpt lat="43.1597641" lon="13.2288271"><ele>353.0</ele><time>2026-03-22T11:32:47.999Z</time></trkpt><trkpt lat="43.1598743" lon="13.2288181"><ele>353.33333333333337</ele><time>2026-03-22T11:32:50Z</time></trkpt><trkpt lat="43.1599274" lon="13.2286968"><ele>353.6666666666667</ele><time>2026-03-22T11:32:51.999Z</time></trkpt><trkpt lat="43.1599411" lon="13.2285971"><ele>354.0</ele><time>2026-03-22T11:32:53Z</time></trkpt><trkpt lat="43.1599587" lon="13.2284774"><ele>354.3333333333333</ele><time>2026-03-22T11:32:53.999Z</time></trkpt><trkpt lat="43.1599702" lon="13.2283605"><ele>354.66666666666663</ele><time>2026-03-22T11:32:55Z</time></trkpt><trkpt lat="43.1599705" lon="13.2282388"><ele>355.0</ele><time>2026-03-22T11:32:56Z</time></trkpt><trkpt lat="43.1599567" lon="13.2281185"><ele>355.0</ele><time>2026-03-22T11:32:56.999Z</time></trkpt><trkpt lat="43.1599294" lon="13.2280019"><ele>355.0</ele><time>2026-03-22T11:32:58Z</time></trkpt><trkpt lat="43.1599059" lon="13.2278736"><ele>355.0</ele><time>2026-03-22T11:32:59Z</time></trkpt><trkpt lat="43.1599031" lon="13.2277326"><ele>355.0</ele><time>2026-03-22T11:33:00Z</time></trkpt><trkpt lat="43.1599149" lon="13.2275862"><ele>355.0</ele><time>2026-03-22T11:33:00.999Z</time></trkpt><trkpt lat="43.1599417" lon="13.2274466"><ele>355.0</ele><time>2026-03-22T11:33:02Z</time></trkpt><trkpt lat="43.1599811" lon="13.2273158"><ele>355.0</ele><time>2026-03-22T11:33:03Z</time></trkpt><trkpt lat="43.1600206" lon="13.2271943"><ele>355.0</ele><time>2026-03-22T11:33:03.999Z</time></trkpt><trkpt lat="43.1600483" lon="13.2270764"><ele>355.0</ele><time>2026-03-22T11:33:04.999Z</time></trkpt><trkpt lat="43.1600674" lon="13.2269732"><ele>355.0</ele><time>2026-03-22T11:33:06Z</time></trkpt><trkpt lat="43.1600702" lon="13.2268024"><ele>355.0</ele><time>2026-03-22T11:33:08Z</time></trkpt><trkpt lat="43.1600664" lon="13.2267051"><ele>355.0</ele><time>2026-03-22T11:33:09Z</time></trkpt><trkpt lat="43.1600705" lon="13.2265876"><ele>355.0</ele><time>2026-03-22T11:33:09.999Z</time></trkpt><trkpt lat="43.1600848" lon="13.2264632"><ele>355.0</ele><time>2026-03-22T11:33:10.999Z</time></trkpt><trkpt lat="43.1601005" lon="13.2263356"><ele>355.0</ele><time>2026-03-22T11:33:12Z</time></trkpt><trkpt lat="43.1601098" lon="13.2262046"><ele>355.0</ele><time>2026-03-22T11:33:12.999Z</time></trkpt><trkpt lat="43.1601055" lon="13.2260543"><ele>354.0</ele><time>2026-03-22T11:33:13.999Z</time></trkpt><trkpt lat="43.1600927" lon="13.2258922"><ele>353.0</ele><time>2026-03-22T11:33:14.999Z</time></trkpt><trkpt lat="43.1600776" lon="13.2257279"><ele>352.0</ele><time>2026-03-22T11:33:15.999Z</time></trkpt><trkpt lat="43.1600614" lon="13.2255647"><ele>351.0</ele><time>2026-03-22T11:33:16.999Z</time></trkpt><trkpt lat="43.160047" lon="13.2254057"><ele>350.0</ele><time>2026-03-22T11:33:17.999Z</time></trkpt><trkpt lat="43.1600274" lon="13.225253"><ele>349.0</ele><time>2026-03-22T11:33:19Z</time></trkpt><trkpt lat="43.1600139" lon="13.2251055"><ele>348.0</ele><time>2026-03-22T11:33:20Z</time></trkpt><trkpt lat="43.1600228" lon="13.2249684"><ele>347.0</ele><time>2026-03-22T11:33:20.999Z</time></trkpt><trkpt lat="43.1600574" lon="13.2248459"><ele>346.0</ele><time>2026-03-22T11:33:22Z</time></trkpt><trkpt lat="43.1601193" lon="13.2247496"><ele>344.75</ele><time>2026-03-22T11:33:22.999Z</time></trkpt><trkpt lat="43.1602123" lon="13.2246718"><ele>343.5</ele><time>2026-03-22T11:33:23.999Z</time></trkpt><trkpt lat="43.160321" lon="13.2246116"><ele>342.25</ele><time>2026-03-22T11:33:25Z</time></trkpt><trkpt lat="43.1604329" lon="13.2245401"><ele>341.0</ele><time>2026-03-22T11:33:26Z</time></trkpt><trkpt lat="43.1605452" lon="13.2244481"><ele>341.0</ele><time>2026-03-22T11:33:26.999Z</time></trkpt><trkpt lat="43.1606513" lon="13.2243565"><ele>341.0</ele><time>2026-03-22T11:33:27.998Z</time></trkpt><trkpt lat="43.1607565" lon="13.2242654"><ele>341.0</ele><time>2026-03-22T11:33:28.999Z</time></trkpt><trkpt lat="43.1608573" lon="13.2241675"><ele>341.0</ele><time>2026-03-22T11:33:29.998Z</time></trkpt><trkpt lat="43.1609638" lon="13.2240628"><ele>339.75</ele><time>2026-03-22T11:33:30.999Z</time></trkpt><trkpt lat="43.1610734" lon="13.2239432"><ele>338.5</ele><time>2026-03-22T11:33:32Z</time></trkpt><trkpt lat="43.1611873" lon="13.223813"><ele>337.25</ele><time>2026-03-22T11:33:32.999Z</time></trkpt><trkpt lat="43.1613022" lon="13.2236755"><ele>336.0</ele><time>2026-03-22T11:33:33.999Z</time></trkpt><trkpt lat="43.1614212" lon="13.223533"><ele>335.6666666666667</ele><time>2026-03-22T11:33:35Z</time></trkpt><trkpt lat="43.1615442" lon="13.2233908"><ele>335.33333333333337</ele><time>2026-03-22T11:33:35.999Z</time></trkpt><trkpt lat="43.1616708" lon="13.2232503"><ele>335.0</ele><time>2026-03-22T11:33:36.999Z</time></trkpt><trkpt lat="43.161797" lon="13.2231126"><ele>335.0</ele><time>2026-03-22T11:33:37.999Z</time></trkpt><trkpt lat="43.1619251" lon="13.2229738"><ele>335.0</ele><time>2026-03-22T11:33:38.999Z</time></trkpt><trkpt lat="43.1620518" lon="13.2228332"><ele>335.0</ele><time>2026-03-22T11:33:40Z</time></trkpt><trkpt lat="43.1621802" lon="13.2226968"><ele>335.0</ele><time>2026-03-22T11:33:40.999Z</time></trkpt><trkpt lat="43.1623073" lon="13.2225587"><ele>335.0</ele><time>2026-03-22T11:33:42Z</time></trkpt><trkpt lat="43.1624309" lon="13.2224143"><ele>335.0</ele><time>2026-03-22T11:33:43Z</time></trkpt><trkpt lat="43.1625491" lon="13.2222599"><ele>334.33333333333337</ele><time>2026-03-22T11:33:43.999Z</time></trkpt><trkpt lat="43.1626582" lon="13.2220898"><ele>333.6666666666667</ele><time>2026-03-22T11:33:44.999Z</time></trkpt><trkpt lat="43.1627596" lon="13.221913"><ele>333.0</ele><time>2026-03-22T11:33:45.999Z</time></trkpt><trkpt lat="43.162862" lon="13.2217361"><ele>333.0</ele><time>2026-03-22T11:33:47Z</time></trkpt><trkpt lat="43.1629629" lon="13.2215538"><ele>333.0</ele><time>2026-03-22T11:33:47.999Z</time></trkpt><trkpt lat="43.1630602" lon="13.221367"><ele>333.0</ele><time>2026-03-22T11:33:48.999Z</time></trkpt><trkpt lat="43.1631511" lon="13.2211805"><ele>333.25</ele><time>2026-03-22T11:33:49.999Z</time></trkpt><trkpt lat="43.1632274" lon="13.2209981"><ele>333.5</ele><time>2026-03-22T11:33:50.998Z</time></trkpt><trkpt lat="43.1632937" lon="13.2208221"><ele>333.75</ele><time>2026-03-22T11:33:52Z</time></trkpt><trkpt lat="43.1633538" lon="13.2206535"><ele>334.0</ele><time>2026-03-22T11:33:52.999Z</time></trkpt><trkpt lat="43.1634109" lon="13.2204932"><ele>334.0</ele><time>2026-03-22T11:33:54Z</time></trkpt><trkpt lat="43.1634593" lon="13.2203339"><ele>334.0</ele><time>2026-03-22T11:33:55Z</time></trkpt><trkpt lat="43.1634851" lon="13.2201652"><ele>334.0</ele><time>2026-03-22T11:33:55.999Z</time></trkpt><trkpt lat="43.1634853" lon="13.2199952"><ele>334.0</ele><time>2026-03-22T11:33:56.999Z</time></trkpt><trkpt lat="43.1634671" lon="13.2198265"><ele>334.25</ele><time>2026-03-22T11:33:57.999Z</time></trkpt><trkpt lat="43.1634351" lon="13.2196594"><ele>334.5</ele><time>2026-03-22T11:33:58.999Z</time></trkpt><trkpt lat="43.1633974" lon="13.2194923"><ele>334.75</ele><time>2026-03-22T11:34:00Z</time></trkpt><trkpt lat="43.1633586" lon="13.2193243"><ele>335.0</ele><time>2026-03-22T11:34:00.999Z</time></trkpt><trkpt lat="43.16332" lon="13.2191529"><ele>334.75</ele><time>2026-03-22T11:34:01.999Z</time></trkpt><trkpt lat="43.1632824" lon="13.218977"><ele>334.5</ele><time>2026-03-22T11:34:02.999Z</time></trkpt><trkpt lat="43.1632417" lon="13.218799"><ele>334.25</ele><time>2026-03-22T11:34:03.999Z</time></trkpt><trkpt lat="43.1631993" lon="13.2186172"><ele>334.0</ele><time>2026-03-22T11:34:04.999Z</time></trkpt><trkpt lat="43.1631536" lon="13.2184323"><ele>333.5</ele><time>2026-03-22T11:34:05.999Z</time></trkpt><trkpt lat="43.1631087" lon="13.2182426"><ele>333.0</ele><time>2026-03-22T11:34:07Z</time></trkpt><trkpt lat="43.1630662" lon="13.2180482"><ele>332.5</ele><time>2026-03-22T11:34:08Z</time></trkpt><trkpt lat="43.1630208" lon="13.2178509"><ele>332.0</ele><time>2026-03-22T11:34:08.999Z</time></trkpt><trkpt lat="43.1629731" lon="13.217652"><ele>334.0</ele><time>2026-03-22T11:34:09.999Z</time></trkpt><trkpt lat="43.1629229" lon="13.2174524"><ele>336.0</ele><time>2026-03-22T11:34:11Z</time></trkpt><trkpt lat="43.1628733" lon="13.2172505"><ele>338.0</ele><time>2026-03-22T11:34:12Z</time></trkpt><trkpt lat="43.1628276" lon="13.2170474"><ele>340.33333333333337</ele><time>2026-03-22T11:34:13Z</time></trkpt><trkpt lat="43.1627837" lon="13.2168437"><ele>342.6666666666667</ele><time>2026-03-22T11:34:14Z</time></trkpt><trkpt lat="43.162736" lon="13.2166334"><ele>345.0</ele><time>2026-03-22T11:34:14.999Z</time></trkpt><trkpt lat="43.1626822" lon="13.2164124"><ele>347.3333333333333</ele><time>2026-03-22T11:34:16Z</time></trkpt><trkpt lat="43.162628" lon="13.2161866"><ele>349.66666666666663</ele><time>2026-03-22T11:34:16.999Z</time></trkpt><trkpt lat="43.1625722" lon="13.2159619"><ele>352.0</ele><time>2026-03-22T11:34:17.999Z</time></trkpt><trkpt lat="43.1625128" lon="13.2157393"><ele>351.66666666666663</ele><time>2026-03-22T11:34:18.999Z</time></trkpt><trkpt lat="43.1624548" lon="13.215519"><ele>351.3333333333333</ele><time>2026-03-22T11:34:20Z</time></trkpt><trkpt lat="43.1623991" lon="13.2153022"><ele>351.0</ele><time>2026-03-22T11:34:20.999Z</time></trkpt><trkpt lat="43.1623427" lon="13.2150925"><ele>351.0</ele><time>2026-03-22T11:34:22Z</time></trkpt><trkpt lat="43.1622842" lon="13.2148955"><ele>351.0</ele><time>2026-03-22T11:34:22.999Z</time></trkpt><trkpt lat="43.1622233" lon="13.2147055"><ele>351.0</ele><time>2026-03-22T11:34:23.999Z</time></trkpt><trkpt lat="43.1621606" lon="13.2145224"><ele>355.0</ele><time>2026-03-22T11:34:25Z</time></trkpt><trkpt lat="43.1620995" lon="13.2143437"><ele>359.0</ele><time>2026-03-22T11:34:25.999Z</time></trkpt><trkpt lat="43.1620403" lon="13.2141818"><ele>363.0</ele><time>2026-03-22T11:34:27Z</time></trkpt><trkpt lat="43.1619865" lon="13.2140407"><ele>367.0</ele><time>2026-03-22T11:34:28Z</time></trkpt><trkpt lat="43.1619397" lon="13.2139163"><ele>368.0</ele><time>2026-03-22T11:34:28.999Z</time></trkpt><trkpt lat="43.161895" lon="13.2138032"><ele>369.0</ele><time>2026-03-22T11:34:30Z</time></trkpt><trkpt lat="43.1618572" lon="13.2136964"><ele>370.0</ele><time>2026-03-22T11:34:31Z</time></trkpt><trkpt lat="43.1618353" lon="13.2135948"><ele>371.0</ele><time>2026-03-22T11:34:31.999Z</time></trkpt><trkpt lat="43.16183" lon="13.2134989"><ele>372.0</ele><time>2026-03-22T11:34:32.999Z</time></trkpt><trkpt lat="43.1618338" lon="13.213406"><ele>373.0</ele><time>2026-03-22T11:34:33.999Z</time></trkpt><trkpt lat="43.1618197" lon="13.2132597"><ele>373.4</ele><time>2026-03-22T11:34:35.999Z</time></trkpt><trkpt lat="43.1617499" lon="13.2131219"><ele>373.79999999999995</ele><time>2026-03-22T11:34:38Z</time></trkpt><trkpt lat="43.1616941" lon="13.2130454"><ele>374.2</ele><time>2026-03-22T11:34:38.998Z</time></trkpt><trkpt lat="43.1616253" lon="13.212962"><ele>374.6</ele><time>2026-03-22T11:34:39.999Z</time></trkpt><trkpt lat="43.1615537" lon="13.2128619"><ele>375.0</ele><time>2026-03-22T11:34:41Z</time></trkpt><trkpt lat="43.161482" lon="13.2127453"><ele>377.0</ele><time>2026-03-22T11:34:41.999Z</time></trkpt><trkpt lat="43.1613889" lon="13.2125938"><ele>379.0</ele><time>2026-03-22T11:34:42.999Z</time></trkpt><trkpt lat="43.1612989" lon="13.2124448"><ele>381.0</ele><time>2026-03-22T11:34:43.998Z</time></trkpt><trkpt lat="43.1612264" lon="13.212309"><ele>383.0</ele><time>2026-03-22T11:34:45Z</time></trkpt><trkpt lat="43.1611595" lon="13.2121734"><ele>385.2</ele><time>2026-03-22T11:34:45.999Z</time></trkpt><trkpt lat="43.1611032" lon="13.2120406"><ele>387.4</ele><time>2026-03-22T11:34:46.999Z</time></trkpt><trkpt lat="43.161055" lon="13.2119122"><ele>389.59999999999997</ele><time>2026-03-22T11:34:48Z</time></trkpt><trkpt lat="43.16101" lon="13.2117791"><ele>391.79999999999995</ele><time>2026-03-22T11:34:49Z</time></trkpt><trkpt lat="43.1609664" lon="13.2116394"><ele>394.0</ele><time>2026-03-22T11:34:50Z</time></trkpt><trkpt lat="43.1609255" lon="13.2114989"><ele>395.6</ele><time>2026-03-22T11:34:51Z</time></trkpt><trkpt lat="43.1608832" lon="13.2113608"><ele>397.2</ele><time>2026-03-22T11:34:51.999Z</time></trkpt><trkpt lat="43.16084" lon="13.2112259"><ele>398.8</ele><time>2026-03-22T11:34:52.999Z</time></trkpt><trkpt lat="43.1608005" lon="13.211091"><ele>400.40000000000003</ele><time>2026-03-22T11:34:53.998Z</time></trkpt><trkpt lat="43.1607652" lon="13.2109539"><ele>402.0</ele><time>2026-03-22T11:34:55Z</time></trkpt><trkpt lat="43.1607341" lon="13.2108119"><ele>402.0</ele><time>2026-03-22T11:34:56Z</time></trkpt><trkpt lat="43.1607101" lon="13.2106652"><ele>402.0</ele><time>2026-03-22T11:34:57Z</time></trkpt><trkpt lat="43.1606982" lon="13.2105077"><ele>402.0</ele><time>2026-03-22T11:34:58Z</time></trkpt><trkpt lat="43.1606934" lon="13.2103467"><ele>402.0</ele><time>2026-03-22T11:34:59Z</time></trkpt><trkpt lat="43.1607029" lon="13.2101898"><ele>404.40000000000003</ele><time>2026-03-22T11:34:59.999Z</time></trkpt><trkpt lat="43.1607345" lon="13.2100368"><ele>406.8</ele><time>2026-03-22T11:35:00.999Z</time></trkpt><trkpt lat="43.1607841" lon="13.2098922"><ele>409.2</ele><time>2026-03-22T11:35:01.999Z</time></trkpt><trkpt lat="43.1608337" lon="13.2097576"><ele>411.6</ele><time>2026-03-22T11:35:03Z</time></trkpt><trkpt lat="43.1608642" lon="13.2096269"><ele>414.0</ele><time>2026-03-22T11:35:04Z</time></trkpt><trkpt lat="43.1608851" lon="13.209486"><ele>416.2</ele><time>2026-03-22T11:35:05Z</time></trkpt><trkpt lat="43.1608956" lon="13.2093397"><ele>418.4</ele><time>2026-03-22T11:35:05.999Z</time></trkpt><trkpt lat="43.1608964" lon="13.209185"><ele>420.6</ele><time>2026-03-22T11:35:06.999Z</time></trkpt><trkpt lat="43.1608867" lon="13.209029"><ele>422.8</ele><time>2026-03-22T11:35:07.999Z</time></trkpt><trkpt lat="43.1608656" lon="13.208878"><ele>425.0</ele><time>2026-03-22T11:35:08.999Z</time></trkpt><trkpt lat="43.1608324" lon="13.2087439"><ele>425.0</ele><time>2026-03-22T11:35:10Z</time></trkpt><trkpt lat="43.1607857" lon="13.2086241"><ele>425.0</ele><time>2026-03-22T11:35:11Z</time></trkpt><trkpt lat="43.1607259" lon="13.2085249"><ele>425.0</ele><time>2026-03-22T11:35:12Z</time></trkpt><trkpt lat="43.1606508" lon="13.2084341"><ele>425.0</ele><time>2026-03-22T11:35:12.999Z</time></trkpt><trkpt lat="43.1605628" lon="13.208356"><ele>425.0</ele><time>2026-03-22T11:35:13.999Z</time></trkpt><trkpt lat="43.1604661" lon="13.2082932"><ele>429.2</ele><time>2026-03-22T11:35:14.998Z</time></trkpt><trkpt lat="43.1603692" lon="13.2082465"><ele>433.4</ele><time>2026-03-22T11:35:16Z</time></trkpt><trkpt lat="43.1602726" lon="13.2082214"><ele>437.6</ele><time>2026-03-22T11:35:16.999Z</time></trkpt><trkpt lat="43.1601778" lon="13.2082267"><ele>441.8</ele><time>2026-03-22T11:35:18Z</time></trkpt><trkpt lat="43.1600807" lon="13.2082593"><ele>446.0</ele><time>2026-03-22T11:35:19Z</time></trkpt><trkpt lat="43.1599765" lon="13.2083041"><ele>450.0</ele><time>2026-03-22T11:35:19.999Z</time></trkpt><trkpt lat="43.1598658" lon="13.2083548"><ele>454.0</ele><time>2026-03-22T11:35:20.999Z</time></trkpt><trkpt lat="43.1597555" lon="13.2084006"><ele>458.0</ele><time>2026-03-22T11:35:21.999Z</time></trkpt><trkpt lat="43.1596514" lon="13.2084392"><ele>462.0</ele><time>2026-03-22T11:35:22.999Z</time></trkpt><trkpt lat="43.1595559" lon="13.2084577"><ele>466.0</ele><time>2026-03-22T11:35:23.999Z</time></trkpt><trkpt lat="43.1594708" lon="13.2084483"><ele>466.00000000000006</ele><time>2026-03-22T11:35:24.999Z</time></trkpt><trkpt lat="43.1594025" lon="13.2084056"><ele>466.0</ele><time>2026-03-22T11:35:26Z</time></trkpt><trkpt lat="43.1593608" lon="13.2083378"><ele>466.0</ele><time>2026-03-22T11:35:27Z</time></trkpt><trkpt lat="43.1593367" lon="13.2082378"><ele>466.0</ele><time>2026-03-22T11:35:28Z</time></trkpt><trkpt lat="43.1593272" lon="13.2081092"><ele>466.00000000000006</ele><time>2026-03-22T11:35:28.999Z</time></trkpt><trkpt lat="43.1593317" lon="13.2079591"><ele>466.0</ele><time>2026-03-22T11:35:30Z</time></trkpt><trkpt lat="43.1593451" lon="13.2077849"><ele>468.25</ele><time>2026-03-22T11:35:30.999Z</time></trkpt><trkpt lat="43.1593566" lon="13.2075994"><ele>470.5</ele><time>2026-03-22T11:35:32Z</time></trkpt><trkpt lat="43.1593624" lon="13.207406"><ele>472.75</ele><time>2026-03-22T11:35:32.999Z</time></trkpt><trkpt lat="43.1593714" lon="13.2072142"><ele>475.0</ele><time>2026-03-22T11:35:33.999Z</time></trkpt><trkpt lat="43.1593854" lon="13.2070291"><ele>475.6</ele><time>2026-03-22T11:35:35Z</time></trkpt><trkpt lat="43.1593984" lon="13.2068707"><ele>476.2</ele><time>2026-03-22T11:35:36Z</time></trkpt><trkpt lat="43.1594058" lon="13.2067192"><ele>476.79999999999995</ele><time>2026-03-22T11:35:36.998Z</time></trkpt><trkpt lat="43.1594025" lon="13.2065809"><ele>477.4</ele><time>2026-03-22T11:35:38Z</time></trkpt><trkpt lat="43.1593872" lon="13.2064465"><ele>478.0</ele><time>2026-03-22T11:35:38.999Z</time></trkpt><trkpt lat="43.1593478" lon="13.206321"><ele>476.25</ele><time>2026-03-22T11:35:39.999Z</time></trkpt><trkpt lat="43.1592859" lon="13.2061939"><ele>474.5</ele><time>2026-03-22T11:35:40.999Z</time></trkpt><trkpt lat="43.1592016" lon="13.206058"><ele>472.75</ele><time>2026-03-22T11:35:41.999Z</time></trkpt><trkpt lat="43.1590999" lon="13.2059166"><ele>471.0</ele><time>2026-03-22T11:35:43Z</time></trkpt><trkpt lat="43.158998" lon="13.2057819"><ele>474.75</ele><time>2026-03-22T11:35:44Z</time></trkpt><trkpt lat="43.1588929" lon="13.2056456"><ele>478.5</ele><time>2026-03-22T11:35:45Z</time></trkpt><trkpt lat="43.1587921" lon="13.2055065"><ele>482.25</ele><time>2026-03-22T11:35:46Z</time></trkpt><trkpt lat="43.1587033" lon="13.2053593"><ele>486.0</ele><time>2026-03-22T11:35:46.998Z</time></trkpt><trkpt lat="43.1586292" lon="13.2051999"><ele>486.0</ele><time>2026-03-22T11:35:47.999Z</time></trkpt><trkpt lat="43.1585656" lon="13.2050335"><ele>486.0</ele><time>2026-03-22T11:35:48.999Z</time></trkpt><trkpt lat="43.158525" lon="13.2048731"><ele>486.0</ele><time>2026-03-22T11:35:49.999Z</time></trkpt><trkpt lat="43.1584843" lon="13.2047077"><ele>486.0</ele><time>2026-03-22T11:35:50.999Z</time></trkpt><trkpt lat="43.1584287" lon="13.2045451"><ele>486.5</ele><time>2026-03-22T11:35:51.999Z</time></trkpt><trkpt lat="43.1583569" lon="13.2043776"><ele>487.0</ele><time>2026-03-22T11:35:52.999Z</time></trkpt><trkpt lat="43.1582727" lon="13.2042065"><ele>487.5</ele><time>2026-03-22T11:35:53.999Z</time></trkpt><trkpt lat="43.1581774" lon="13.2040356"><ele>488.0</ele><time>2026-03-22T11:35:55Z</time></trkpt><trkpt lat="43.1580786" lon="13.2038744"><ele>486.75</ele><time>2026-03-22T11:35:56Z</time></trkpt><trkpt lat="43.1579903" lon="13.2037235"><ele>485.5</ele><time>2026-03-22T11:35:56.999Z</time></trkpt><trkpt lat="43.1579142" lon="13.203578"><ele>484.25</ele><time>2026-03-22T11:35:58Z</time></trkpt><trkpt lat="43.1578508" lon="13.2034247"><ele>483.0</ele><time>2026-03-22T11:35:59Z</time></trkpt><trkpt lat="43.1578007" lon="13.2032603"><ele>483.79999999999995</ele><time>2026-03-22T11:36:00Z</time></trkpt><trkpt lat="43.1577708" lon="13.2031104"><ele>484.59999999999997</ele><time>2026-03-22T11:36:00.999Z</time></trkpt><trkpt lat="43.1577638" lon="13.2029609"><ele>485.40000000000003</ele><time>2026-03-22T11:36:02Z</time></trkpt><trkpt lat="43.1577839" lon="13.2028235"><ele>486.20000000000005</ele><time>2026-03-22T11:36:03Z</time></trkpt><trkpt lat="43.1578217" lon="13.2027023"><ele>487.0</ele><time>2026-03-22T11:36:03.999Z</time></trkpt><trkpt lat="43.1578551" lon="13.2025853"><ele>487.00000000000006</ele><time>2026-03-22T11:36:05Z</time></trkpt><trkpt lat="43.1578806" lon="13.202479"><ele>487.0</ele><time>2026-03-22T11:36:05.999Z</time></trkpt><trkpt lat="43.1578876" lon="13.2023662"><ele>487.0</ele><time>2026-03-22T11:36:07Z</time></trkpt><trkpt lat="43.1578776" lon="13.2022371"><ele>487.0</ele><time>2026-03-22T11:36:07.999Z</time></trkpt><trkpt lat="43.1578477" lon="13.2021273"><ele>487.00000000000006</ele><time>2026-03-22T11:36:08.999Z</time></trkpt><trkpt lat="43.1577934" lon="13.2020398"><ele>487.0</ele><time>2026-03-22T11:36:09.999Z</time></trkpt><trkpt lat="43.1577164" lon="13.2019614"><ele>487.5</ele><time>2026-03-22T11:36:11Z</time></trkpt><trkpt lat="43.1576147" lon="13.2018784"><ele>488.0</ele><time>2026-03-22T11:36:12Z</time></trkpt><trkpt lat="43.1574997" lon="13.2017867"><ele>488.5</ele><time>2026-03-22T11:36:13Z</time></trkpt><trkpt lat="43.1573897" lon="13.2016887"><ele>489.0</ele><time>2026-03-22T11:36:14Z</time></trkpt><trkpt lat="43.1572775" lon="13.2015844"><ele>491.5</ele><time>2026-03-22T11:36:14.999Z</time></trkpt><trkpt lat="43.1571628" lon="13.2014905"><ele>494.0</ele><time>2026-03-22T11:36:16Z</time></trkpt><trkpt lat="43.1570863" lon="13.2013711"><ele>496.5</ele><time>2026-03-22T11:36:17Z</time></trkpt><trkpt lat="43.1570096" lon="13.2012427"><ele>499.0</ele><time>2026-03-22T11:36:18Z</time></trkpt><trkpt lat="43.1569479" lon="13.2010947"><ele>499.0</ele><time>2026-03-22T11:36:18.999Z</time></trkpt><trkpt lat="43.1568975" lon="13.2009258"><ele>499.0</ele><time>2026-03-22T11:36:19.999Z</time></trkpt><trkpt lat="43.1568704" lon="13.2007435"><ele>499.0</ele><time>2026-03-22T11:36:20.999Z</time></trkpt><trkpt lat="43.1568493" lon="13.2005484"><ele>499.0</ele><time>2026-03-22T11:36:22Z</time></trkpt><trkpt lat="43.1568327" lon="13.2003796"><ele>499.0</ele><time>2026-03-22T11:36:22.999Z</time></trkpt><trkpt lat="43.1568107" lon="13.200239"><ele>499.0</ele><time>2026-03-22T11:36:24Z</time></trkpt><trkpt lat="43.1567895" lon="13.2001148"><ele>499.0</ele><time>2026-03-22T11:36:25Z</time></trkpt><trkpt lat="43.1567557" lon="13.1999995"><ele>499.0</ele><time>2026-03-22T11:36:26Z</time></trkpt><trkpt lat="43.1567072" lon="13.1998881"><ele>499.0</ele><time>2026-03-22T11:36:26.999Z</time></trkpt><trkpt lat="43.1566372" lon="13.1997613"><ele>500.5</ele><time>2026-03-22T11:36:27.999Z</time></trkpt><trkpt lat="43.1565471" lon="13.1996198"><ele>502.0</ele><time>2026-03-22T11:36:29Z</time></trkpt><trkpt lat="43.1564567" lon="13.1994845"><ele>503.5</ele><time>2026-03-22T11:36:29.999Z</time></trkpt><trkpt lat="43.1563643" lon="13.1993595"><ele>505.0</ele><time>2026-03-22T11:36:31Z</time></trkpt><trkpt lat="43.1562675" lon="13.1992495"><ele>502.0</ele><time>2026-03-22T11:36:32Z</time></trkpt><trkpt lat="43.1561733" lon="13.199159"><ele>499.0</ele><time>2026-03-22T11:36:32.999Z</time></trkpt><trkpt lat="43.1560897" lon="13.1990824"><ele>496.0</ele><time>2026-03-22T11:36:34Z</time></trkpt><trkpt lat="43.1560208" lon="13.1990023"><ele>493.0</ele><time>2026-03-22T11:36:34.999Z</time></trkpt><trkpt lat="43.1559712" lon="13.1989084"><ele>490.0</ele><time>2026-03-22T11:36:35.999Z</time></trkpt><trkpt lat="43.1559545" lon="13.198811"><ele>490.00000000000006</ele><time>2026-03-22T11:36:37Z</time></trkpt><trkpt lat="43.1559657" lon="13.1987158"><ele>490.0</ele><time>2026-03-22T11:36:38Z</time></trkpt><trkpt lat="43.1560025" lon="13.1985636"><ele>490.0</ele><time>2026-03-22T11:36:39.999Z</time></trkpt><trkpt lat="43.1560301" lon="13.1984788"><ele>490.0</ele><time>2026-03-22T11:36:40.998Z</time></trkpt><trkpt lat="43.1560627" lon="13.1983754"><ele>490.00000000000006</ele><time>2026-03-22T11:36:41.999Z</time></trkpt><trkpt lat="43.1561062" lon="13.1982723"><ele>490.0</ele><time>2026-03-22T11:36:42.999Z</time></trkpt><trkpt lat="43.1561414" lon="13.1981775"><ele>489.1666666666667</ele><time>2026-03-22T11:36:44Z</time></trkpt><trkpt lat="43.1561967" lon="13.1981083"><ele>488.33333333333337</ele><time>2026-03-22T11:36:44.999Z</time></trkpt><trkpt lat="43.1562579" lon="13.1980282"><ele>487.5</ele><time>2026-03-22T11:36:45.999Z</time></trkpt><trkpt lat="43.1563232" lon="13.1979416"><ele>486.66666666666663</ele><time>2026-03-22T11:36:46.999Z</time></trkpt><trkpt lat="43.1563785" lon="13.1978498"><ele>485.8333333333333</ele><time>2026-03-22T11:36:47.999Z</time></trkpt><trkpt lat="43.1564133" lon="13.1977442"><ele>485.0</ele><time>2026-03-22T11:36:49Z</time></trkpt><trkpt lat="43.1564352" lon="13.1976423"><ele>484.99999999999994</ele><time>2026-03-22T11:36:49.999Z</time></trkpt><trkpt lat="43.1564386" lon="13.1975364"><ele>485.0</ele><time>2026-03-22T11:36:50.999Z</time></trkpt><trkpt lat="43.1564228" lon="13.1974437"><ele>485.0</ele><time>2026-03-22T11:36:52Z</time></trkpt><trkpt lat="43.1564043" lon="13.1973569"><ele>485.0</ele><time>2026-03-22T11:36:53Z</time></trkpt><trkpt lat="43.1563912" lon="13.1972001"><ele>484.99999999999994</ele><time>2026-03-22T11:36:54.999Z</time></trkpt><trkpt lat="43.1563785" lon="13.197088"><ele>485.0</ele><time>2026-03-22T11:36:56.998Z</time></trkpt><trkpt lat="43.1563473" lon="13.1969738"><ele>485.6</ele><time>2026-03-22T11:36:59.999Z</time></trkpt><trkpt lat="43.1562607" lon="13.1969234"><ele>486.2</ele><time>2026-03-22T11:37:02Z</time></trkpt><trkpt lat="43.1561826" lon="13.1969121"><ele>486.79999999999995</ele><time>2026-03-22T11:37:03Z</time></trkpt><trkpt lat="43.156094" lon="13.1968549"><ele>487.4</ele><time>2026-03-22T11:37:04.999Z</time></trkpt><trkpt lat="43.156031" lon="13.1967075"><ele>488.0</ele><time>2026-03-22T11:37:07Z</time></trkpt><trkpt lat="43.1559657" lon="13.196645"><ele>488.0</ele><time>2026-03-22T11:37:08Z</time></trkpt><trkpt lat="43.1558768" lon="13.1965783"><ele>488.0</ele><time>2026-03-22T11:37:08.999Z</time></trkpt><trkpt lat="43.1557754" lon="13.196514"><ele>488.0</ele><time>2026-03-22T11:37:09.999Z</time></trkpt><trkpt lat="43.1556555" lon="13.196438"><ele>488.0</ele><time>2026-03-22T11:37:11Z</time></trkpt><trkpt lat="43.1555181" lon="13.1963541"><ele>489.0</ele><time>2026-03-22T11:37:12Z</time></trkpt><trkpt lat="43.1553666" lon="13.1962643"><ele>490.0</ele><time>2026-03-22T11:37:12.998Z</time></trkpt><trkpt lat="43.1552063" lon="13.1961782"><ele>491.0</ele><time>2026-03-22T11:37:13.999Z</time></trkpt><trkpt lat="43.1550469" lon="13.1960989"><ele>491.0</ele><time>2026-03-22T11:37:15Z</time></trkpt><trkpt lat="43.154904" lon="13.1960267"><ele>491.0</ele><time>2026-03-22T11:37:15.999Z</time></trkpt><trkpt lat="43.1547712" lon="13.1959599"><ele>491.0</ele><time>2026-03-22T11:37:17Z</time></trkpt><trkpt lat="43.1546401" lon="13.1958785"><ele>491.0</ele><time>2026-03-22T11:37:17.999Z</time></trkpt><trkpt lat="43.1545095" lon="13.195766"><ele>495.66666666666663</ele><time>2026-03-22T11:37:19Z</time></trkpt><trkpt lat="43.1543859" lon="13.1956186"><ele>500.33333333333337</ele><time>2026-03-22T11:37:20Z</time></trkpt><trkpt lat="43.1542636" lon="13.1954326"><ele>505.0</ele><time>2026-03-22T11:37:20.999Z</time></trkpt><trkpt lat="43.1541284" lon="13.1952268"><ele>502.6666666666667</ele><time>2026-03-22T11:37:22Z</time></trkpt><trkpt lat="43.1539777" lon="13.1950181"><ele>500.33333333333337</ele><time>2026-03-22T11:37:23Z</time></trkpt><trkpt lat="43.1538423" lon="13.1948333"><ele>498.0</ele><time>2026-03-22T11:37:23.999Z</time></trkpt><trkpt lat="43.1537104" lon="13.1946802"><ele>507.0</ele><time>2026-03-22T11:37:25Z</time></trkpt><trkpt lat="43.153568" lon="13.1945869"><ele>516.0</ele><time>2026-03-22T11:37:26Z</time></trkpt><trkpt lat="43.1533987" lon="13.1945194"><ele>525.0</ele><time>2026-03-22T11:37:27Z</time></trkpt><trkpt lat="43.1532172" lon="13.1944677"><ele>524.0</ele><time>2026-03-22T11:37:28Z</time></trkpt><trkpt lat="43.1530456" lon="13.1944147"><ele>523.0</ele><time>2026-03-22T11:37:28.999Z</time></trkpt><trkpt lat="43.1528786" lon="13.1943426"><ele>522.0</ele><time>2026-03-22T11:37:29.999Z</time></trkpt><trkpt lat="43.1527086" lon="13.1942411"><ele>522.0</ele><time>2026-03-22T11:37:30.999Z</time></trkpt><trkpt lat="43.1525511" lon="13.1941221"><ele>522.0</ele><time>2026-03-22T11:37:31.998Z</time></trkpt><trkpt lat="43.1523986" lon="13.1939936"><ele>522.0</ele><time>2026-03-22T11:37:32.999Z</time></trkpt><trkpt lat="43.1522548" lon="13.1938566"><ele>526.6666666666666</ele><time>2026-03-22T11:37:34Z</time></trkpt><trkpt lat="43.1521235" lon="13.193723"><ele>531.3333333333333</ele><time>2026-03-22T11:37:35Z</time></trkpt><trkpt lat="43.1519966" lon="13.1936027"><ele>536.0</ele><time>2026-03-22T11:37:35.998Z</time></trkpt><trkpt lat="43.1518817" lon="13.1935047"><ele>536.0</ele><time>2026-03-22T11:37:37Z</time></trkpt><trkpt lat="43.1517852" lon="13.1934251"><ele>536.0</ele><time>2026-03-22T11:37:37.999Z</time></trkpt><trkpt lat="43.1517082" lon="13.1933513"><ele>536.0</ele><time>2026-03-22T11:37:39Z</time></trkpt><trkpt lat="43.151657" lon="13.193284"><ele>536.0</ele><time>2026-03-22T11:37:39.999Z</time></trkpt><trkpt lat="43.1516223" lon="13.1931994"><ele>536.0</ele><time>2026-03-22T11:37:41Z</time></trkpt><trkpt lat="43.1516288" lon="13.1931116"><ele>536.0</ele><time>2026-03-22T11:37:42Z</time></trkpt><trkpt lat="43.1517369" lon="13.1930438"><ele>536.0</ele><time>2026-03-22T11:37:44Z</time></trkpt><trkpt lat="43.1518111" lon="13.1930766"><ele>536.0</ele><time>2026-03-22T11:37:44.999Z</time></trkpt><trkpt lat="43.1519059" lon="13.1931432"><ele>536.0</ele><time>2026-03-22T11:37:46Z</time></trkpt><trkpt lat="43.1520197" lon="13.1932172"><ele>536.0</ele><time>2026-03-22T11:37:46.999Z</time></trkpt><trkpt lat="43.152142" lon="13.1932803"><ele>536.0</ele><time>2026-03-22T11:37:48Z</time></trkpt><trkpt lat="43.1522549" lon="13.1933318"><ele>536.0</ele><time>2026-03-22T11:37:49Z</time></trkpt><trkpt lat="43.1523495" lon="13.1933728"><ele>536.0</ele><time>2026-03-22T11:37:50Z</time></trkpt><trkpt lat="43.1524323" lon="13.1934054"><ele>536.0</ele><time>2026-03-22T11:37:50.999Z</time></trkpt><trkpt lat="43.1525069" lon="13.1934313"><ele>536.0</ele><time>2026-03-22T11:37:52Z</time></trkpt><trkpt lat="43.1525856" lon="13.1934432"><ele>536.0</ele><time>2026-03-22T11:37:52.999Z</time></trkpt><trkpt lat="43.1526464" lon="13.1934082"><ele>536.0</ele><time>2026-03-22T11:37:54Z</time></trkpt><trkpt lat="43.1526764" lon="13.1932598"><ele>538.4</ele><time>2026-03-22T11:37:56Z</time></trkpt><trkpt lat="43.15264" lon="13.193175"><ele>540.8</ele><time>2026-03-22T11:37:56.999Z</time></trkpt><trkpt lat="43.1525688" lon="13.1930862"><ele>543.1999999999999</ele><time>2026-03-22T11:37:57.999Z</time></trkpt><trkpt lat="43.1524947" lon="13.1930097"><ele>545.6</ele><time>2026-03-22T11:37:58.999Z</time></trkpt><trkpt lat="43.1524221" lon="13.1929281"><ele>548.0</ele><time>2026-03-22T11:37:59.998Z</time></trkpt><trkpt lat="43.1523451" lon="13.1928425"><ele>548.0</ele><time>2026-03-22T11:38:01Z</time></trkpt><trkpt lat="43.1522687" lon="13.1927463"><ele>548.0</ele><time>2026-03-22T11:38:02Z</time></trkpt><trkpt lat="43.1521999" lon="13.192648"><ele>548.0</ele><time>2026-03-22T11:38:03Z</time></trkpt><trkpt lat="43.1521375" lon="13.1925452"><ele>548.0</ele><time>2026-03-22T11:38:03.999Z</time></trkpt><trkpt lat="43.1520794" lon="13.1924412"><ele>548.0</ele><time>2026-03-22T11:38:05Z</time></trkpt><trkpt lat="43.1520244" lon="13.1923399"><ele>549.8</ele><time>2026-03-22T11:38:05.999Z</time></trkpt><trkpt lat="43.1519699" lon="13.1922387"><ele>551.5999999999999</ele><time>2026-03-22T11:38:07Z</time></trkpt><trkpt lat="43.1519218" lon="13.1921311"><ele>553.4000000000001</ele><time>2026-03-22T11:38:07.999Z</time></trkpt><trkpt lat="43.1518903" lon="13.192008"><ele>555.2</ele><time>2026-03-22T11:38:09Z</time></trkpt><trkpt lat="43.1518776" lon="13.1918746"><ele>557.0</ele><time>2026-03-22T11:38:10Z</time></trkpt><trkpt lat="43.1518738" lon="13.1917467"><ele>557.0</ele><time>2026-03-22T11:38:11Z</time></trkpt><trkpt lat="43.1518911" lon="13.1916271"><ele>557.0</ele><time>2026-03-22T11:38:12Z</time></trkpt><trkpt lat="43.1519207" lon="13.1915085"><ele>557.0</ele><time>2026-03-22T11:38:12.999Z</time></trkpt><trkpt lat="43.1519551" lon="13.1914086"><ele>557.0</ele><time>2026-03-22T11:38:14Z</time></trkpt><trkpt lat="43.1519805" lon="13.1913014"><ele>557.0</ele><time>2026-03-22T11:38:15Z</time></trkpt><trkpt lat="43.1519713" lon="13.191194"><ele>557.0</ele><time>2026-03-22T11:38:15.999Z</time></trkpt><trkpt lat="43.1519281" lon="13.1911023"><ele>557.3333333333333</ele><time>2026-03-22T11:38:17Z</time></trkpt><trkpt lat="43.1518579" lon="13.1910488"><ele>557.6666666666666</ele><time>2026-03-22T11:38:18Z</time></trkpt><trkpt lat="43.1517722" lon="13.1910469"><ele>558.0</ele><time>2026-03-22T11:38:19Z</time></trkpt><trkpt lat="43.1516828" lon="13.1910808"><ele>558.3333333333334</ele><time>2026-03-22T11:38:19.999Z</time></trkpt><trkpt lat="43.1515943" lon="13.1911009"><ele>558.6666666666667</ele><time>2026-03-22T11:38:20.999Z</time></trkpt><trkpt lat="43.1515093" lon="13.1911017"><ele>559.0</ele><time>2026-03-22T11:38:21.999Z</time></trkpt><trkpt lat="43.1514356" lon="13.1910762"><ele>559.0</ele><time>2026-03-22T11:38:23Z</time></trkpt><trkpt lat="43.1513754" lon="13.191035"><ele>559.0</ele><time>2026-03-22T11:38:24Z</time></trkpt><trkpt lat="43.1512805" lon="13.1909088"><ele>559.0</ele><time>2026-03-22T11:38:25.999Z</time></trkpt><trkpt lat="43.1512289" lon="13.1908283"><ele>559.0</ele><time>2026-03-22T11:38:26.999Z</time></trkpt><trkpt lat="43.1511673" lon="13.190757"><ele>559.0</ele><time>2026-03-22T11:38:27.999Z</time></trkpt><trkpt lat="43.1511023" lon="13.190695"><ele>559.0</ele><time>2026-03-22T11:38:29Z</time></trkpt><trkpt lat="43.1510472" lon="13.1906512"><ele>559.8333333333334</ele><time>2026-03-22T11:38:30Z</time></trkpt><trkpt lat="43.1509479" lon="13.1905754"><ele>560.6666666666667</ele><time>2026-03-22T11:38:31.999Z</time></trkpt><trkpt lat="43.1508378" lon="13.1904856"><ele>561.5</ele><time>2026-03-22T11:38:33.999Z</time></trkpt><trkpt lat="43.1507883" lon="13.1904207"><ele>562.3333333333334</ele><time>2026-03-22T11:38:34.998Z</time></trkpt><trkpt lat="43.1507517" lon="13.1903415"><ele>563.1666666666666</ele><time>2026-03-22T11:38:36Z</time></trkpt><trkpt lat="43.1507256" lon="13.1902559"><ele>564.0</ele><time>2026-03-22T11:38:36.999Z</time></trkpt><trkpt lat="43.1506987" lon="13.1901599"><ele>564.0</ele><time>2026-03-22T11:38:37.999Z</time></trkpt><trkpt lat="43.1506563" lon="13.1900622"><ele>564.0</ele><time>2026-03-22T11:38:38.999Z</time></trkpt><trkpt lat="43.150595" lon="13.1899689"><ele>564.0</ele><time>2026-03-22T11:38:39.999Z</time></trkpt><trkpt lat="43.1505167" lon="13.1898953"><ele>564.0</ele><time>2026-03-22T11:38:40.999Z</time></trkpt><trkpt lat="43.1504331" lon="13.1898204"><ele>564.0</ele><time>2026-03-22T11:38:42Z</time></trkpt><trkpt lat="43.150356" lon="13.1897454"><ele>568.8</ele><time>2026-03-22T11:38:43Z</time></trkpt><trkpt lat="43.150278" lon="13.1896709"><ele>573.5999999999999</ele><time>2026-03-22T11:38:44Z</time></trkpt><trkpt lat="43.150201" lon="13.1895976"><ele>578.4</ele><time>2026-03-22T11:38:44.999Z</time></trkpt><trkpt lat="43.1501323" lon="13.1895111"><ele>583.1999999999999</ele><time>2026-03-22T11:38:45.999Z</time></trkpt><trkpt lat="43.1500743" lon="13.1894193"><ele>588.0</ele><time>2026-03-22T11:38:46.999Z</time></trkpt><trkpt lat="43.1500205" lon="13.1893219"><ele>588.0</ele><time>2026-03-22T11:38:47.999Z</time></trkpt><trkpt lat="43.1499612" lon="13.1892262"><ele>588.0</ele><time>2026-03-22T11:38:49Z</time></trkpt><trkpt lat="43.1498957" lon="13.1891495"><ele>588.0</ele><time>2026-03-22T11:38:50Z</time></trkpt><trkpt lat="43.1498218" lon="13.1890942"><ele>588.0</ele><time>2026-03-22T11:38:50.999Z</time></trkpt><trkpt lat="43.149741" lon="13.1890583"><ele>588.0</ele><time>2026-03-22T11:38:51.999Z</time></trkpt><trkpt lat="43.1496559" lon="13.1890336"><ele>588.0</ele><time>2026-03-22T11:38:53Z</time></trkpt><trkpt lat="43.1495643" lon="13.1890164"><ele>593.0</ele><time>2026-03-22T11:38:53.999Z</time></trkpt><trkpt lat="43.1494705" lon="13.189003"><ele>598.0</ele><time>2026-03-22T11:38:54.998Z</time></trkpt><trkpt lat="43.149375" lon="13.1889914"><ele>603.0</ele><time>2026-03-22T11:38:55.999Z</time></trkpt><trkpt lat="43.1492754" lon="13.1889802"><ele>608.0</ele><time>2026-03-22T11:38:57Z</time></trkpt><trkpt lat="43.149174" lon="13.1889651"><ele>613.0</ele><time>2026-03-22T11:38:58Z</time></trkpt><trkpt lat="43.149069" lon="13.1889368"><ele>610.6</ele><time>2026-03-22T11:38:59Z</time></trkpt><trkpt lat="43.1489662" lon="13.188904"><ele>608.1999999999999</ele><time>2026-03-22T11:38:59.999Z</time></trkpt><trkpt lat="43.1488708" lon="13.1888691"><ele>605.8</ele><time>2026-03-22T11:39:00.999Z</time></trkpt><trkpt lat="43.1487739" lon="13.1888274"><ele>603.4</ele><time>2026-03-22T11:39:01.999Z</time></trkpt><trkpt lat="43.1486786" lon="13.1887768"><ele>601.0</ele><time>2026-03-22T11:39:02.999Z</time></trkpt><trkpt lat="43.1485918" lon="13.1887227"><ele>601.0</ele><time>2026-03-22T11:39:03.999Z</time></trkpt><trkpt lat="43.148518" lon="13.1886753"><ele>601.0</ele><time>2026-03-22T11:39:05Z</time></trkpt><trkpt lat="43.1484391" lon="13.1886191"><ele>601.0</ele><time>2026-03-22T11:39:06Z</time></trkpt><trkpt lat="43.1483597" lon="13.1885564"><ele>601.0</ele><time>2026-03-22T11:39:07Z</time></trkpt><trkpt lat="43.1482751" lon="13.1884853"><ele>601.0</ele><time>2026-03-22T11:39:07.999Z</time></trkpt><trkpt lat="43.1481957" lon="13.1884027"><ele>599.8</ele><time>2026-03-22T11:39:08.999Z</time></trkpt><trkpt lat="43.1481244" lon="13.1883169"><ele>598.6</ele><time>2026-03-22T11:39:09.999Z</time></trkpt><trkpt lat="43.148058" lon="13.1882278"><ele>597.4</ele><time>2026-03-22T11:39:10.999Z</time></trkpt><trkpt lat="43.1479923" lon="13.1881343"><ele>596.2</ele><time>2026-03-22T11:39:12Z</time></trkpt><trkpt lat="43.1479314" lon="13.1880325"><ele>595.0</ele><time>2026-03-22T11:39:13Z</time></trkpt><trkpt lat="43.1478741" lon="13.1879285"><ele>595.0</ele><time>2026-03-22T11:39:14Z</time></trkpt><trkpt lat="43.1478223" lon="13.1878299"><ele>595.0</ele><time>2026-03-22T11:39:15Z</time></trkpt><trkpt lat="43.1477843" lon="13.1877371"><ele>595.0</ele><time>2026-03-22T11:39:16Z</time></trkpt><trkpt lat="43.147748" lon="13.1876412"><ele>595.0</ele><time>2026-03-22T11:39:16.999Z</time></trkpt><trkpt lat="43.1477057" lon="13.1875385"><ele>595.0</ele><time>2026-03-22T11:39:17.999Z</time></trkpt><trkpt lat="43.1476625" lon="13.1874247"><ele>595.0</ele><time>2026-03-22T11:39:19Z</time></trkpt><trkpt lat="43.1476195" lon="13.1873013"><ele>598.0</ele><time>2026-03-22T11:39:20Z</time></trkpt><trkpt lat="43.1475812" lon="13.1871728"><ele>601.0</ele><time>2026-03-22T11:39:20.999Z</time></trkpt><trkpt lat="43.147547" lon="13.1870378"><ele>604.0</ele><time>2026-03-22T11:39:21.999Z</time></trkpt><trkpt lat="43.1475204" lon="13.1869063"><ele>607.0</ele><time>2026-03-22T11:39:22.999Z</time></trkpt><trkpt lat="43.1474955" lon="13.1867739"><ele>610.0</ele><time>2026-03-22T11:39:23.999Z</time></trkpt><trkpt lat="43.1474675" lon="13.1866409"><ele>612.25</ele><time>2026-03-22T11:39:24.999Z</time></trkpt><trkpt lat="43.1474399" lon="13.1865036"><ele>614.5</ele><time>2026-03-22T11:39:25.999Z</time></trkpt><trkpt lat="43.1474154" lon="13.1863583"><ele>616.75</ele><time>2026-03-22T11:39:27Z</time></trkpt><trkpt lat="43.1473943" lon="13.186199"><ele>619.0</ele><time>2026-03-22T11:39:28Z</time></trkpt><trkpt lat="43.1473718" lon="13.186029"><ele>608.5</ele><time>2026-03-22T11:39:28.999Z</time></trkpt><trkpt lat="43.1473499" lon="13.1858528"><ele>598.0</ele><time>2026-03-22T11:39:29.999Z</time></trkpt><trkpt lat="43.1473295" lon="13.1856725"><ele>587.5</ele><time>2026-03-22T11:39:30.999Z</time></trkpt><trkpt lat="43.1473117" lon="13.1854953"><ele>577.0</ele><time>2026-03-22T11:39:32Z</time></trkpt><trkpt lat="43.1472921" lon="13.1853118"><ele>577.0</ele><time>2026-03-22T11:39:32.999Z</time></trkpt><trkpt lat="43.1472682" lon="13.1851198"><ele>577.0</ele><time>2026-03-22T11:39:34Z</time></trkpt><trkpt lat="43.1472429" lon="13.1849177"><ele>577.0</ele><time>2026-03-22T11:39:34.999Z</time></trkpt><trkpt lat="43.1472242" lon="13.184708"><ele>577.0</ele><time>2026-03-22T11:39:35.999Z</time></trkpt><trkpt lat="43.1472123" lon="13.1845008"><ele>578.25</ele><time>2026-03-22T11:39:37Z</time></trkpt><trkpt lat="43.1471998" lon="13.1842948"><ele>579.5</ele><time>2026-03-22T11:39:37.999Z</time></trkpt><trkpt lat="43.1471866" lon="13.1840915"><ele>580.75</ele><time>2026-03-22T11:39:38.999Z</time></trkpt><trkpt lat="43.1471791" lon="13.1839065"><ele>582.0</ele><time>2026-03-22T11:39:39.999Z</time></trkpt><trkpt lat="43.147174" lon="13.183722"><ele>582.0</ele><time>2026-03-22T11:39:41Z</time></trkpt><trkpt lat="43.1471707" lon="13.18354"><ele>582.0</ele><time>2026-03-22T11:39:42Z</time></trkpt><trkpt lat="43.1471704" lon="13.1833624"><ele>582.0</ele><time>2026-03-22T11:39:42.999Z</time></trkpt><trkpt lat="43.1471724" lon="13.1831863"><ele>582.0</ele><time>2026-03-22T11:39:43.999Z</time></trkpt><trkpt lat="43.1471765" lon="13.1830132"><ele>582.0</ele><time>2026-03-22T11:39:45Z</time></trkpt><trkpt lat="43.1471814" lon="13.1828413"><ele>582.0</ele><time>2026-03-22T11:39:46Z</time></trkpt><trkpt lat="43.147186" lon="13.182668"><ele>582.0</ele><time>2026-03-22T11:39:46.999Z</time></trkpt><trkpt lat="43.1471917" lon="13.1824927"><ele>582.0</ele><time>2026-03-22T11:39:47.999Z</time></trkpt><trkpt lat="43.147197" lon="13.182314"><ele>581.5</ele><time>2026-03-22T11:39:48.999Z</time></trkpt><trkpt lat="43.1472029" lon="13.1821324"><ele>581.0</ele><time>2026-03-22T11:39:49.999Z</time></trkpt><trkpt lat="43.1472122" lon="13.1819507"><ele>580.5</ele><time>2026-03-22T11:39:51Z</time></trkpt><trkpt lat="43.1472237" lon="13.1817728"><ele>580.0</ele><time>2026-03-22T11:39:52Z</time></trkpt><trkpt lat="43.1472352" lon="13.1815903"><ele>577.5</ele><time>2026-03-22T11:39:53Z</time></trkpt><trkpt lat="43.1472493" lon="13.1814059"><ele>575.0</ele><time>2026-03-22T11:39:53.999Z</time></trkpt><trkpt lat="43.1472666" lon="13.1812193"><ele>572.5</ele><time>2026-03-22T11:39:54.999Z</time></trkpt><trkpt lat="43.1472861" lon="13.181033"><ele>570.0</ele><time>2026-03-22T11:39:55.999Z</time></trkpt><trkpt lat="43.1473123" lon="13.1808466"><ele>566.0</ele><time>2026-03-22T11:39:57Z</time></trkpt><trkpt lat="43.1473435" lon="13.180662"><ele>562.0</ele><time>2026-03-22T11:39:57.999Z</time></trkpt><trkpt lat="43.1473828" lon="13.180483"><ele>558.0</ele><time>2026-03-22T11:39:59Z</time></trkpt><trkpt lat="43.147428" lon="13.1803082"><ele>554.0</ele><time>2026-03-22T11:39:59.999Z</time></trkpt><trkpt lat="43.1474763" lon="13.1801338"><ele>562.25</ele><time>2026-03-22T11:40:01Z</time></trkpt><trkpt lat="43.1475284" lon="13.179961"><ele>570.5</ele><time>2026-03-22T11:40:02Z</time></trkpt><trkpt lat="43.1475828" lon="13.1797915"><ele>578.75</ele><time>2026-03-22T11:40:03Z</time></trkpt><trkpt lat="43.1476351" lon="13.1796246"><ele>587.0</ele><time>2026-03-22T11:40:03.999Z</time></trkpt><trkpt lat="43.1476881" lon="13.1794586"><ele>587.0</ele><time>2026-03-22T11:40:05Z</time></trkpt><trkpt lat="43.1477441" lon="13.1792955"><ele>587.0</ele><time>2026-03-22T11:40:06Z</time></trkpt><trkpt lat="43.1477947" lon="13.179132"><ele>587.0</ele><time>2026-03-22T11:40:06.999Z</time></trkpt><trkpt lat="43.1478431" lon="13.1789715"><ele>587.0</ele><time>2026-03-22T11:40:07.999Z</time></trkpt><trkpt lat="43.147894" lon="13.1788124"><ele>582.75</ele><time>2026-03-22T11:40:09Z</time></trkpt><trkpt lat="43.1479449" lon="13.1786541"><ele>578.5</ele><time>2026-03-22T11:40:09.999Z</time></trkpt><trkpt lat="43.1479976" lon="13.1784925"><ele>574.25</ele><time>2026-03-22T11:40:10.999Z</time></trkpt><trkpt lat="43.1480521" lon="13.1783286"><ele>570.0</ele><time>2026-03-22T11:40:11.999Z</time></trkpt><trkpt lat="43.1481032" lon="13.1781624"><ele>566.25</ele><time>2026-03-22T11:40:13Z</time></trkpt><trkpt lat="43.148152" lon="13.1779944"><ele>562.5</ele><time>2026-03-22T11:40:14Z</time></trkpt><trkpt lat="43.1482057" lon="13.177822"><ele>558.75</ele><time>2026-03-22T11:40:15Z</time></trkpt><trkpt lat="43.1482588" lon="13.1776431"><ele>555.0</ele><time>2026-03-22T11:40:15.999Z</time></trkpt><trkpt lat="43.1483088" lon="13.1774572"><ele>562.75</ele><time>2026-03-22T11:40:17Z</time></trkpt><trkpt lat="43.1483576" lon="13.1772682"><ele>570.5</ele><time>2026-03-22T11:40:18Z</time></trkpt><trkpt lat="43.1484067" lon="13.1770785"><ele>578.25</ele><time>2026-03-22T11:40:18.999Z</time></trkpt><trkpt lat="43.1484539" lon="13.1768954"><ele>586.0</ele><time>2026-03-22T11:40:20Z</time></trkpt><trkpt lat="43.1485006" lon="13.176713"><ele>586.0</ele><time>2026-03-22T11:40:20.999Z</time></trkpt><trkpt lat="43.1485481" lon="13.1765327"><ele>586.0</ele><time>2026-03-22T11:40:22Z</time></trkpt><trkpt lat="43.1485985" lon="13.1763565"><ele>586.0</ele><time>2026-03-22T11:40:22.999Z</time></trkpt><trkpt lat="43.1486473" lon="13.1761866"><ele>586.0</ele><time>2026-03-22T11:40:23.999Z</time></trkpt><trkpt lat="43.1486909" lon="13.1760116"><ele>583.5</ele><time>2026-03-22T11:40:24.999Z</time></trkpt><trkpt lat="43.1487271" lon="13.1758418"><ele>581.0</ele><time>2026-03-22T11:40:25.999Z</time></trkpt><trkpt lat="43.1487655" lon="13.1756758"><ele>578.5</ele><time>2026-03-22T11:40:26.999Z</time></trkpt><trkpt lat="43.1487996" lon="13.1755307"><ele>576.0</ele><time>2026-03-22T11:40:27.999Z</time></trkpt><trkpt lat="43.1488289" lon="13.1753847"><ele>573.75</ele><time>2026-03-22T11:40:28.999Z</time></trkpt><trkpt lat="43.1488518" lon="13.1752354"><ele>571.5</ele><time>2026-03-22T11:40:30Z</time></trkpt><trkpt lat="43.1488682" lon="13.1750687"><ele>569.25</ele><time>2026-03-22T11:40:30.999Z</time></trkpt><trkpt lat="43.1488764" lon="13.1748876"><ele>567.0</ele><time>2026-03-22T11:40:32Z</time></trkpt><trkpt lat="43.148873" lon="13.1747153"><ele>566.25</ele><time>2026-03-22T11:40:33Z</time></trkpt><trkpt lat="43.1488659" lon="13.1745512"><ele>565.5</ele><time>2026-03-22T11:40:34Z</time></trkpt><trkpt lat="43.1488567" lon="13.1743907"><ele>564.75</ele><time>2026-03-22T11:40:34.999Z</time></trkpt><trkpt lat="43.1488516" lon="13.1742308"><ele>564.0</ele><time>2026-03-22T11:40:36Z</time></trkpt><trkpt lat="43.1488535" lon="13.1740693"><ele>565.25</ele><time>2026-03-22T11:40:36.999Z</time></trkpt><trkpt lat="43.1488657" lon="13.173906"><ele>566.5</ele><time>2026-03-22T11:40:38Z</time></trkpt><trkpt lat="43.1488902" lon="13.173739"><ele>567.75</ele><time>2026-03-22T11:40:39Z</time></trkpt><trkpt lat="43.1489247" lon="13.1735754"><ele>569.0</ele><time>2026-03-22T11:40:40Z</time></trkpt><trkpt lat="43.1489639" lon="13.17342"><ele>569.0</ele><time>2026-03-22T11:40:41Z</time></trkpt><trkpt lat="43.1490065" lon="13.1732782"><ele>569.0</ele><time>2026-03-22T11:40:41.999Z</time></trkpt><trkpt lat="43.1490472" lon="13.173155"><ele>569.0</ele><time>2026-03-22T11:40:42.999Z</time></trkpt><trkpt lat="43.1490855" lon="13.1730497"><ele>569.0</ele><time>2026-03-22T11:40:43.999Z</time></trkpt><trkpt lat="43.1491128" lon="13.1729557"><ele>569.0</ele><time>2026-03-22T11:40:44.999Z</time></trkpt><trkpt lat="43.1491299" lon="13.1728658"><ele>569.0</ele><time>2026-03-22T11:40:46Z</time></trkpt><trkpt lat="43.1491022" lon="13.172709"><ele>574.8</ele><time>2026-03-22T11:40:48Z</time></trkpt><trkpt lat="43.1490505" lon="13.1726539"><ele>580.5999999999999</ele><time>2026-03-22T11:40:48.999Z</time></trkpt><trkpt lat="43.1489788" lon="13.1726308"><ele>586.4</ele><time>2026-03-22T11:40:49.999Z</time></trkpt><trkpt lat="43.148885" lon="13.1726256"><ele>592.1999999999999</ele><time>2026-03-22T11:40:51Z</time></trkpt><trkpt lat="43.1487598" lon="13.1726307"><ele>598.0</ele><time>2026-03-22T11:40:52Z</time></trkpt><trkpt lat="43.1486216" lon="13.1726419"><ele>598.25</ele><time>2026-03-22T11:40:53Z</time></trkpt><trkpt lat="43.1485044" lon="13.1726531"><ele>598.5</ele><time>2026-03-22T11:40:53.999Z</time></trkpt><trkpt lat="43.1483755" lon="13.1726656"><ele>598.75</ele><time>2026-03-22T11:40:55Z</time></trkpt><trkpt lat="43.1482448" lon="13.1726918"><ele>599.0</ele><time>2026-03-22T11:40:55.999Z</time></trkpt><trkpt lat="43.1481066" lon="13.1727345"><ele>607.6666666666666</ele><time>2026-03-22T11:40:56.999Z</time></trkpt><trkpt lat="43.1479558" lon="13.1727979"><ele>616.3333333333334</ele><time>2026-03-22T11:40:57.999Z</time></trkpt><trkpt lat="43.1477905" lon="13.1728798"><ele>625.0</ele><time>2026-03-22T11:40:58.999Z</time></trkpt><trkpt lat="43.1476408" lon="13.1729618"><ele>625.0</ele><time>2026-03-22T11:40:59.999Z</time></trkpt><trkpt lat="43.1475057" lon="13.1730376"><ele>625.0</ele><time>2026-03-22T11:41:01Z</time></trkpt><trkpt lat="43.1473783" lon="13.1731105"><ele>625.0</ele><time>2026-03-22T11:41:01.999Z</time></trkpt><trkpt lat="43.1472484" lon="13.1731743"><ele>625.0</ele><time>2026-03-22T11:41:03Z</time></trkpt><trkpt lat="43.1471192" lon="13.1732268"><ele>618.3333333333334</ele><time>2026-03-22T11:41:04Z</time></trkpt><trkpt lat="43.1469798" lon="13.1732704"><ele>611.6666666666666</ele><time>2026-03-22T11:41:04.999Z</time></trkpt><trkpt lat="43.1468229" lon="13.1733057"><ele>605.0</ele><time>2026-03-22T11:41:06Z</time></trkpt><trkpt lat="43.146672" lon="13.1733408"><ele>606.25</ele><time>2026-03-22T11:41:06.999Z</time></trkpt><trkpt lat="43.1465356" lon="13.1733704"><ele>607.5</ele><time>2026-03-22T11:41:07.999Z</time></trkpt><trkpt lat="43.1464018" lon="13.1733987"><ele>608.75</ele><time>2026-03-22T11:41:09Z</time></trkpt><trkpt lat="43.1462708" lon="13.1734297"><ele>610.0</ele><time>2026-03-22T11:41:10Z</time></trkpt><trkpt lat="43.146142" lon="13.1734644"><ele>610.0</ele><time>2026-03-22T11:41:10.999Z</time></trkpt><trkpt lat="43.146022" lon="13.173494"><ele>610.0</ele><time>2026-03-22T11:41:11.999Z</time></trkpt><trkpt lat="43.1459139" lon="13.1735171"><ele>610.0</ele><time>2026-03-22T11:41:12.999Z</time></trkpt><trkpt lat="43.1458189" lon="13.1735311"><ele>610.0</ele><time>2026-03-22T11:41:13.999Z</time></trkpt><trkpt lat="43.1457324" lon="13.1735331"><ele>610.0</ele><time>2026-03-22T11:41:14.999Z</time></trkpt><trkpt lat="43.1456592" lon="13.17352"><ele>610.1428571428572</ele><time>2026-03-22T11:41:15.999Z</time></trkpt><trkpt lat="43.1455906" lon="13.1734895"><ele>610.2857142857142</ele><time>2026-03-22T11:41:17Z</time></trkpt><trkpt lat="43.1455345" lon="13.1734492"><ele>610.4285714285714</ele><time>2026-03-22T11:41:17.998Z</time></trkpt><trkpt lat="43.1454768" lon="13.1733931"><ele>610.5714285714287</ele><time>2026-03-22T11:41:19Z</time></trkpt><trkpt lat="43.1454242" lon="13.173329"><ele>610.7142857142858</ele><time>2026-03-22T11:41:20Z</time></trkpt><trkpt lat="43.1453766" lon="13.1732547"><ele>610.8571428571429</ele><time>2026-03-22T11:41:20.999Z</time></trkpt><trkpt lat="43.1453337" lon="13.1731713"><ele>611.0</ele><time>2026-03-22T11:41:21.998Z</time></trkpt><trkpt lat="43.1453014" lon="13.1730761"><ele>611.0</ele><time>2026-03-22T11:41:23Z</time></trkpt><trkpt lat="43.1452627" lon="13.1729779"><ele>611.0</ele><time>2026-03-22T11:41:24Z</time></trkpt><trkpt lat="43.14522" lon="13.1728798"><ele>611.0</ele><time>2026-03-22T11:41:24.999Z</time></trkpt><trkpt lat="43.1451894" lon="13.1727901"><ele>611.0</ele><time>2026-03-22T11:41:25.999Z</time></trkpt><trkpt lat="43.1451538" lon="13.172699"><ele>611.0</ele><time>2026-03-22T11:41:27Z</time></trkpt><trkpt lat="43.1451257" lon="13.172601"><ele>611.0</ele><time>2026-03-22T11:41:28Z</time></trkpt><trkpt lat="43.1450954" lon="13.1725037"><ele>611.0</ele><time>2026-03-22T11:41:29Z</time></trkpt><trkpt lat="43.1450583" lon="13.1724194"><ele>611.0</ele><time>2026-03-22T11:41:29.999Z</time></trkpt><trkpt lat="43.1450024" lon="13.1722711"><ele>611.0</ele><time>2026-03-22T11:41:32Z</time></trkpt><trkpt lat="43.1449758" lon="13.1721897"><ele>611.0</ele><time>2026-03-22T11:41:32.999Z</time></trkpt><trkpt lat="43.1449495" lon="13.1721034"><ele>611.0</ele><time>2026-03-22T11:41:33.999Z</time></trkpt><trkpt lat="43.144924" lon="13.1720101"><ele>611.0</ele><time>2026-03-22T11:41:35Z</time></trkpt><trkpt lat="43.1448988" lon="13.1719114"><ele>606.6</ele><time>2026-03-22T11:41:35.999Z</time></trkpt><trkpt lat="43.1448598" lon="13.17181"><ele>602.2</ele><time>2026-03-22T11:41:37Z</time></trkpt><trkpt lat="43.144836" lon="13.1716933"><ele>597.8</ele><time>2026-03-22T11:41:37.999Z</time></trkpt><trkpt lat="43.1448122" lon="13.1715761"><ele>593.4</ele><time>2026-03-22T11:41:39Z</time></trkpt><trkpt lat="43.1447801" lon="13.1714431"><ele>589.0</ele><time>2026-03-22T11:41:39.999Z</time></trkpt><trkpt lat="43.144746" lon="13.17131"><ele>589.0</ele><time>2026-03-22T11:41:40.999Z</time></trkpt><trkpt lat="43.1447172" lon="13.1711564"><ele>589.0</ele><time>2026-03-22T11:41:41.999Z</time></trkpt><trkpt lat="43.1446908" lon="13.1710007"><ele>589.0</ele><time>2026-03-22T11:41:42.999Z</time></trkpt><trkpt lat="43.1446605" lon="13.1708448"><ele>589.0</ele><time>2026-03-22T11:41:44Z</time></trkpt><trkpt lat="43.144632" lon="13.1706785"><ele>590.0</ele><time>2026-03-22T11:41:44.999Z</time></trkpt><trkpt lat="43.1446132" lon="13.1705146"><ele>591.0</ele><time>2026-03-22T11:41:45.999Z</time></trkpt><trkpt lat="43.1445945" lon="13.17035"><ele>592.0</ele><time>2026-03-22T11:41:46.999Z</time></trkpt><trkpt lat="43.1445812" lon="13.1701945"><ele>593.0</ele><time>2026-03-22T11:41:47.999Z</time></trkpt><trkpt lat="43.1445703" lon="13.1700462"><ele>593.0</ele><time>2026-03-22T11:41:48.999Z</time></trkpt><trkpt lat="43.1445592" lon="13.1698922"><ele>593.0</ele><time>2026-03-22T11:41:49.999Z</time></trkpt><trkpt lat="43.1445538" lon="13.1697378"><ele>593.0</ele><time>2026-03-22T11:41:50.999Z</time></trkpt><trkpt lat="43.1445562" lon="13.1695777"><ele>593.0</ele><time>2026-03-22T11:41:51.999Z</time></trkpt><trkpt lat="43.1445597" lon="13.1694063"><ele>593.25</ele><time>2026-03-22T11:41:52.999Z</time></trkpt><trkpt lat="43.144567" lon="13.1692244"><ele>593.5</ele><time>2026-03-22T11:41:53.999Z</time></trkpt><trkpt lat="43.1445761" lon="13.1690425"><ele>593.75</ele><time>2026-03-22T11:41:54.999Z</time></trkpt><trkpt lat="43.1445831" lon="13.1688623"><ele>594.0</ele><time>2026-03-22T11:41:55.999Z</time></trkpt><trkpt lat="43.1445888" lon="13.1686791"><ele>594.0</ele><time>2026-03-22T11:41:57Z</time></trkpt><trkpt lat="43.1445949" lon="13.1684989"><ele>594.0</ele><time>2026-03-22T11:41:58Z</time></trkpt><trkpt lat="43.1446027" lon="13.1683237"><ele>594.0</ele><time>2026-03-22T11:41:58.999Z</time></trkpt><trkpt lat="43.144613" lon="13.1681495"><ele>594.0</ele><time>2026-03-22T11:42:00Z</time></trkpt><trkpt lat="43.1446194" lon="13.1679696"><ele>593.75</ele><time>2026-03-22T11:42:01Z</time></trkpt><trkpt lat="43.1446259" lon="13.1677946"><ele>593.5</ele><time>2026-03-22T11:42:02Z</time></trkpt><trkpt lat="43.1446389" lon="13.1676376"><ele>593.25</ele><time>2026-03-22T11:42:02.999Z</time></trkpt><trkpt lat="43.1446522" lon="13.1674817"><ele>593.0</ele><time>2026-03-22T11:42:04Z</time></trkpt><trkpt lat="43.1446622" lon="13.1673207"><ele>592.0</ele><time>2026-03-22T11:42:05Z</time></trkpt><trkpt lat="43.1446721" lon="13.1671595"><ele>591.0</ele><time>2026-03-22T11:42:06Z</time></trkpt><trkpt lat="43.1446787" lon="13.1670077"><ele>590.0</ele><time>2026-03-22T11:42:06.999Z</time></trkpt><trkpt lat="43.1446827" lon="13.1668534"><ele>589.0</ele><time>2026-03-22T11:42:08Z</time></trkpt><trkpt lat="43.1446885" lon="13.166699"><ele>589.0</ele><time>2026-03-22T11:42:08.999Z</time></trkpt><trkpt lat="43.144702" lon="13.1665429"><ele>589.0</ele><time>2026-03-22T11:42:09.999Z</time></trkpt><trkpt lat="43.1447279" lon="13.1663698"><ele>589.0</ele><time>2026-03-22T11:42:11Z</time></trkpt><trkpt lat="43.1447658" lon="13.1661866"><ele>589.0</ele><time>2026-03-22T11:42:11.999Z</time></trkpt><trkpt lat="43.1448075" lon="13.1660009"><ele>587.25</ele><time>2026-03-22T11:42:12.999Z</time></trkpt><trkpt lat="43.1448506" lon="13.1658146"><ele>585.5</ele><time>2026-03-22T11:42:13.999Z</time></trkpt><trkpt lat="43.1448985" lon="13.1656278"><ele>583.75</ele><time>2026-03-22T11:42:15Z</time></trkpt><trkpt lat="43.1449467" lon="13.1654359"><ele>582.0</ele><time>2026-03-22T11:42:15.999Z</time></trkpt><trkpt lat="43.1449974" lon="13.16524"><ele>588.6666666666666</ele><time>2026-03-22T11:42:16.999Z</time></trkpt><trkpt lat="43.145051" lon="13.1650437"><ele>595.3333333333333</ele><time>2026-03-22T11:42:17.999Z</time></trkpt><trkpt lat="43.1451058" lon="13.1648458"><ele>602.0</ele><time>2026-03-22T11:42:18.999Z</time></trkpt><trkpt lat="43.1451627" lon="13.164648"><ele>602.0</ele><time>2026-03-22T11:42:19.999Z</time></trkpt><trkpt lat="43.1452168" lon="13.1644447"><ele>602.0</ele><time>2026-03-22T11:42:20.999Z</time></trkpt><trkpt lat="43.1452678" lon="13.1642377"><ele>602.0</ele><time>2026-03-22T11:42:21.999Z</time></trkpt><trkpt lat="43.145317" lon="13.1640255"><ele>598.0</ele><time>2026-03-22T11:42:23Z</time></trkpt><trkpt lat="43.1453604" lon="13.1638042"><ele>594.0</ele><time>2026-03-22T11:42:24Z</time></trkpt><trkpt lat="43.1453969" lon="13.1635901"><ele>590.0</ele><time>2026-03-22T11:42:24.999Z</time></trkpt><trkpt lat="43.1454233" lon="13.163391"><ele>590.0</ele><time>2026-03-22T11:42:26Z</time></trkpt><trkpt lat="43.145444" lon="13.1632008"><ele>590.0</ele><time>2026-03-22T11:42:26.999Z</time></trkpt><trkpt lat="43.1454736" lon="13.163007"><ele>590.0</ele><time>2026-03-22T11:42:27.999Z</time></trkpt><trkpt lat="43.1455059" lon="13.1628149"><ele>590.0</ele><time>2026-03-22T11:42:28.999Z</time></trkpt><trkpt lat="43.1455372" lon="13.1626354"><ele>587.5</ele><time>2026-03-22T11:42:30Z</time></trkpt><trkpt lat="43.1455643" lon="13.1624564"><ele>585.0</ele><time>2026-03-22T11:42:30.999Z</time></trkpt><trkpt lat="43.1455917" lon="13.1622683"><ele>582.5</ele><time>2026-03-22T11:42:31.999Z</time></trkpt><trkpt lat="43.1456199" lon="13.162076"><ele>580.0</ele><time>2026-03-22T11:42:32.999Z</time></trkpt><trkpt lat="43.1456426" lon="13.1618786"><ele>580.0</ele><time>2026-03-22T11:42:33.999Z</time></trkpt><trkpt lat="43.1456564" lon="13.1616707"><ele>580.0</ele><time>2026-03-22T11:42:35Z</time></trkpt><trkpt lat="43.1456696" lon="13.1614592"><ele>580.0</ele><time>2026-03-22T11:42:36Z</time></trkpt><trkpt lat="43.1456794" lon="13.1612458"><ele>580.0</ele><time>2026-03-22T11:42:37Z</time></trkpt><trkpt lat="43.1456825" lon="13.1610283"><ele>580.0</ele><time>2026-03-22T11:42:38Z</time></trkpt><trkpt lat="43.1456821" lon="13.1608169"><ele>580.0</ele><time>2026-03-22T11:42:38.999Z</time></trkpt><trkpt lat="43.1456779" lon="13.1606036"><ele>582.6666666666667</ele><time>2026-03-22T11:42:39.999Z</time></trkpt><trkpt lat="43.1456684" lon="13.1603929"><ele>585.3333333333334</ele><time>2026-03-22T11:42:41Z</time></trkpt><trkpt lat="43.1456582" lon="13.1601826"><ele>588.0</ele><time>2026-03-22T11:42:41.999Z</time></trkpt><trkpt lat="43.1456478" lon="13.1599679"><ele>591.6666666666666</ele><time>2026-03-22T11:42:42.999Z</time></trkpt><trkpt lat="43.1456341" lon="13.1597488"><ele>595.3333333333333</ele><time>2026-03-22T11:42:43.999Z</time></trkpt><trkpt lat="43.1456153" lon="13.1595405"><ele>599.0</ele><time>2026-03-22T11:42:45Z</time></trkpt><trkpt lat="43.1455968" lon="13.1593421"><ele>599.0</ele><time>2026-03-22T11:42:45.998Z</time></trkpt><trkpt lat="43.1455797" lon="13.1591573"><ele>599.0</ele><time>2026-03-22T11:42:47Z</time></trkpt><trkpt lat="43.1455652" lon="13.1589834"><ele>599.0</ele><time>2026-03-22T11:42:48Z</time></trkpt><trkpt lat="43.1455555" lon="13.1588159"><ele>599.0</ele><time>2026-03-22T11:42:49Z</time></trkpt><trkpt lat="43.1455494" lon="13.15865"><ele>601.5</ele><time>2026-03-22T11:42:49.999Z</time></trkpt><trkpt lat="43.1455551" lon="13.1584778"><ele>604.0</ele><time>2026-03-22T11:42:50.999Z</time></trkpt><trkpt lat="43.1455696" lon="13.1582981"><ele>606.5</ele><time>2026-03-22T11:42:52Z</time></trkpt><trkpt lat="43.1455816" lon="13.1581105"><ele>609.0</ele><time>2026-03-22T11:42:52.999Z</time></trkpt><trkpt lat="43.1455914" lon="13.157924"><ele>611.75</ele><time>2026-03-22T11:42:54Z</time></trkpt><trkpt lat="43.1456006" lon="13.1577522"><ele>614.5</ele><time>2026-03-22T11:42:54.998Z</time></trkpt><trkpt lat="43.1456109" lon="13.1575914"><ele>617.25</ele><time>2026-03-22T11:42:55.999Z</time></trkpt><trkpt lat="43.1456254" lon="13.1574291"><ele>620.0</ele><time>2026-03-22T11:42:57Z</time></trkpt><trkpt lat="43.1456518" lon="13.157267"><ele>622.0</ele><time>2026-03-22T11:42:58Z</time></trkpt><trkpt lat="43.1456768" lon="13.1571094"><ele>624.0</ele><time>2026-03-22T11:42:58.999Z</time></trkpt><trkpt lat="43.1457067" lon="13.1569516"><ele>626.0</ele><time>2026-03-22T11:42:59.999Z</time></trkpt><trkpt lat="43.1457476" lon="13.15681"><ele>628.0</ele><time>2026-03-22T11:43:01Z</time></trkpt><trkpt lat="43.1458017" lon="13.1566757"><ele>630.0</ele><time>2026-03-22T11:43:02Z</time></trkpt><trkpt lat="43.1458669" lon="13.1565534"><ele>632.0</ele><time>2026-03-22T11:43:02.999Z</time></trkpt><trkpt lat="43.1459437" lon="13.1564476"><ele>634.0</ele><time>2026-03-22T11:43:03.999Z</time></trkpt><trkpt lat="43.1460235" lon="13.1563589"><ele>636.0</ele><time>2026-03-22T11:43:04.999Z</time></trkpt><trkpt lat="43.1461092" lon="13.1562875"><ele>638.0</ele><time>2026-03-22T11:43:05.999Z</time></trkpt><trkpt lat="43.1461987" lon="13.1562455"><ele>633.8333333333333</ele><time>2026-03-22T11:43:07Z</time></trkpt><trkpt lat="43.1462861" lon="13.1562297"><ele>629.6666666666666</ele><time>2026-03-22T11:43:07.999Z</time></trkpt><trkpt lat="43.1463694" lon="13.1562316"><ele>625.5</ele><time>2026-03-22T11:43:09Z</time></trkpt><trkpt lat="43.1464471" lon="13.1562453"><ele>621.3333333333334</ele><time>2026-03-22T11:43:09.999Z</time></trkpt><trkpt lat="43.1465294" lon="13.1562583"><ele>617.1666666666667</ele><time>2026-03-22T11:43:11Z</time></trkpt><trkpt lat="43.1466213" lon="13.1562603"><ele>613.0</ele><time>2026-03-22T11:43:11.999Z</time></trkpt><trkpt lat="43.1467089" lon="13.1562689"><ele>612.4</ele><time>2026-03-22T11:43:12.999Z</time></trkpt><trkpt lat="43.1467984" lon="13.1562842"><ele>611.8</ele><time>2026-03-22T11:43:13.999Z</time></trkpt><trkpt lat="43.1468928" lon="13.1563005"><ele>611.2</ele><time>2026-03-22T11:43:14.999Z</time></trkpt><trkpt lat="43.1469836" lon="13.1563184"><ele>610.6</ele><time>2026-03-22T11:43:15.999Z</time></trkpt><trkpt lat="43.1470743" lon="13.156341"><ele>610.0</ele><time>2026-03-22T11:43:16.999Z</time></trkpt><trkpt lat="43.1471635" lon="13.1563684"><ele>610.0</ele><time>2026-03-22T11:43:18Z</time></trkpt><trkpt lat="43.147253" lon="13.156402"><ele>610.0</ele><time>2026-03-22T11:43:19Z</time></trkpt><trkpt lat="43.1473466" lon="13.1564331"><ele>610.0</ele><time>2026-03-22T11:43:20Z</time></trkpt><trkpt lat="43.1474408" lon="13.156457"><ele>610.0</ele><time>2026-03-22T11:43:21Z</time></trkpt><trkpt lat="43.1475353" lon="13.1564795"><ele>610.0</ele><time>2026-03-22T11:43:22Z</time></trkpt><trkpt lat="43.1476298" lon="13.1564986"><ele>607.4</ele><time>2026-03-22T11:43:23Z</time></trkpt><trkpt lat="43.1477242" lon="13.1565147"><ele>604.8</ele><time>2026-03-22T11:43:23.999Z</time></trkpt><trkpt lat="43.1478202" lon="13.1565294"><ele>602.2</ele><time>2026-03-22T11:43:24.999Z</time></trkpt><trkpt lat="43.1479176" lon="13.1565458"><ele>599.6</ele><time>2026-03-22T11:43:26Z</time></trkpt><trkpt lat="43.1480182" lon="13.1565636"><ele>597.0</ele><time>2026-03-22T11:43:27Z</time></trkpt><trkpt lat="43.148122" lon="13.1565826"><ele>601.0</ele><time>2026-03-22T11:43:28Z</time></trkpt><trkpt lat="43.1482277" lon="13.1566101"><ele>605.0</ele><time>2026-03-22T11:43:28.999Z</time></trkpt><trkpt lat="43.1483365" lon="13.1566358"><ele>609.0</ele><time>2026-03-22T11:43:29.999Z</time></trkpt><trkpt lat="43.1484427" lon="13.1566625"><ele>613.0</ele><time>2026-03-22T11:43:30.999Z</time></trkpt><trkpt lat="43.1485472" lon="13.1566893"><ele>617.0</ele><time>2026-03-22T11:43:32Z</time></trkpt><trkpt lat="43.1486495" lon="13.1567189"><ele>617.0</ele><time>2026-03-22T11:43:33Z</time></trkpt><trkpt lat="43.1487545" lon="13.1567492"><ele>617.0</ele><time>2026-03-22T11:43:34Z</time></trkpt><trkpt lat="43.1488636" lon="13.1567849"><ele>617.0</ele><time>2026-03-22T11:43:35Z</time></trkpt><trkpt lat="43.1489739" lon="13.1568193"><ele>617.0</ele><time>2026-03-22T11:43:36Z</time></trkpt><trkpt lat="43.1490833" lon="13.1568531"><ele>617.0</ele><time>2026-03-22T11:43:36.999Z</time></trkpt><trkpt lat="43.1491916" lon="13.1568918"><ele>613.25</ele><time>2026-03-22T11:43:37.999Z</time></trkpt><trkpt lat="43.1493014" lon="13.1569314"><ele>609.5</ele><time>2026-03-22T11:43:39Z</time></trkpt><trkpt lat="43.1494098" lon="13.1569692"><ele>605.75</ele><time>2026-03-22T11:43:40Z</time></trkpt><trkpt lat="43.1495211" lon="13.1570129"><ele>602.0</ele><time>2026-03-22T11:43:41Z</time></trkpt><trkpt lat="43.1496363" lon="13.1570588"><ele>602.0</ele><time>2026-03-22T11:43:41.999Z</time></trkpt><trkpt lat="43.1497538" lon="13.1571018"><ele>602.0</ele><time>2026-03-22T11:43:43Z</time></trkpt><trkpt lat="43.1498748" lon="13.157142"><ele>602.0</ele><time>2026-03-22T11:43:44Z</time></trkpt><trkpt lat="43.1499937" lon="13.1571836"><ele>602.0</ele><time>2026-03-22T11:43:44.999Z</time></trkpt><trkpt lat="43.1501138" lon="13.1572273"><ele>600.5</ele><time>2026-03-22T11:43:45.999Z</time></trkpt><trkpt lat="43.1502352" lon="13.1572682"><ele>599.0</ele><time>2026-03-22T11:43:46.999Z</time></trkpt><trkpt lat="43.1503522" lon="13.1573039"><ele>597.5</ele><time>2026-03-22T11:43:48Z</time></trkpt><trkpt lat="43.1504603" lon="13.1573375"><ele>596.0</ele><time>2026-03-22T11:43:49Z</time></trkpt><trkpt lat="43.1505541" lon="13.1573663"><ele>600.8</ele><time>2026-03-22T11:43:50Z</time></trkpt><trkpt lat="43.1506352" lon="13.1573844"><ele>605.6</ele><time>2026-03-22T11:43:50.999Z</time></trkpt><trkpt lat="43.1507138" lon="13.1573807"><ele>610.4</ele><time>2026-03-22T11:43:52Z</time></trkpt><trkpt lat="43.1507817" lon="13.1573511"><ele>615.2</ele><time>2026-03-22T11:43:52.999Z</time></trkpt><trkpt lat="43.1508484" lon="13.1572326"><ele>620.0</ele><time>2026-03-22T11:43:54.999Z</time></trkpt><trkpt lat="43.1508203" lon="13.1570808"><ele>620.5</ele><time>2026-03-22T11:43:56.999Z</time></trkpt><trkpt lat="43.1507785" lon="13.156974"><ele>621.0</ele><time>2026-03-22T11:43:57.999Z</time></trkpt><trkpt lat="43.1507318" lon="13.1568417"><ele>621.5</ele><time>2026-03-22T11:43:58.999Z</time></trkpt><trkpt lat="43.1506779" lon="13.1566788"><ele>622.0</ele><time>2026-03-22T11:44:00Z</time></trkpt><trkpt lat="43.1506262" lon="13.1564975"><ele>616.25</ele><time>2026-03-22T11:44:00.999Z</time></trkpt><trkpt lat="43.1505704" lon="13.1563212"><ele>610.5</ele><time>2026-03-22T11:44:01.999Z</time></trkpt><trkpt lat="43.1505131" lon="13.1561434"><ele>604.75</ele><time>2026-03-22T11:44:02.999Z</time></trkpt><trkpt lat="43.1504474" lon="13.1559664"><ele>599.0</ele><time>2026-03-22T11:44:03.999Z</time></trkpt><trkpt lat="43.1503656" lon="13.1557813"><ele>604.6666666666666</ele><time>2026-03-22T11:44:04.999Z</time></trkpt><trkpt lat="43.1502674" lon="13.1555844"><ele>610.3333333333334</ele><time>2026-03-22T11:44:06Z</time></trkpt><trkpt lat="43.1501565" lon="13.1553847"><ele>616.0</ele><time>2026-03-22T11:44:06.999Z</time></trkpt><trkpt lat="43.1500494" lon="13.1552098"><ele>616.0</ele><time>2026-03-22T11:44:07.999Z</time></trkpt><trkpt lat="43.149954" lon="13.1550388"><ele>616.0</ele><time>2026-03-22T11:44:09Z</time></trkpt><trkpt lat="43.1498661" lon="13.1548612"><ele>616.0</ele><time>2026-03-22T11:44:10Z</time></trkpt><trkpt lat="43.1497773" lon="13.1546719"><ele>608.0</ele><time>2026-03-22T11:44:10.999Z</time></trkpt><trkpt lat="43.1496969" lon="13.1544848"><ele>600.0</ele><time>2026-03-22T11:44:11.999Z</time></trkpt><trkpt lat="43.1496233" lon="13.1542965"><ele>592.0</ele><time>2026-03-22T11:44:12.998Z</time></trkpt><trkpt lat="43.1495573" lon="13.1541134"><ele>595.5</ele><time>2026-03-22T11:44:14Z</time></trkpt><trkpt lat="43.1494936" lon="13.1539433"><ele>599.0</ele><time>2026-03-22T11:44:15Z</time></trkpt><trkpt lat="43.1494218" lon="13.1537806"><ele>602.5</ele><time>2026-03-22T11:44:15.999Z</time></trkpt><trkpt lat="43.1493387" lon="13.1536232"><ele>606.0</ele><time>2026-03-22T11:44:16.999Z</time></trkpt><trkpt lat="43.1492541" lon="13.1534724"><ele>606.0</ele><time>2026-03-22T11:44:18Z</time></trkpt><trkpt lat="43.1491725" lon="13.1533216"><ele>606.0</ele><time>2026-03-22T11:44:18.999Z</time></trkpt><trkpt lat="43.1490887" lon="13.1531676"><ele>606.0</ele><time>2026-03-22T11:44:20Z</time></trkpt><trkpt lat="43.1490042" lon="13.1530174"><ele>606.0</ele><time>2026-03-22T11:44:21Z</time></trkpt><trkpt lat="43.1489184" lon="13.1528679"><ele>607.5</ele><time>2026-03-22T11:44:22Z</time></trkpt><trkpt lat="43.148825" lon="13.1527134"><ele>609.0</ele><time>2026-03-22T11:44:22.999Z</time></trkpt><trkpt lat="43.1487257" lon="13.152562"><ele>610.5</ele><time>2026-03-22T11:44:23.999Z</time></trkpt><trkpt lat="43.1486291" lon="13.1524152"><ele>612.0</ele><time>2026-03-22T11:44:25Z</time></trkpt><trkpt lat="43.1485349" lon="13.1522658"><ele>612.0</ele><time>2026-03-22T11:44:25.999Z</time></trkpt><trkpt lat="43.1484413" lon="13.1521145"><ele>612.0</ele><time>2026-03-22T11:44:26.999Z</time></trkpt><trkpt lat="43.1483486" lon="13.1519653"><ele>612.0</ele><time>2026-03-22T11:44:27.999Z</time></trkpt><trkpt lat="43.1482599" lon="13.1518253"><ele>612.0</ele><time>2026-03-22T11:44:29Z</time></trkpt><trkpt lat="43.1481722" lon="13.1516841"><ele>610.0</ele><time>2026-03-22T11:44:30Z</time></trkpt><trkpt lat="43.1480822" lon="13.1515409"><ele>608.0</ele><time>2026-03-22T11:44:31Z</time></trkpt><trkpt lat="43.1479826" lon="13.1513936"><ele>606.0</ele><time>2026-03-22T11:44:32Z</time></trkpt><trkpt lat="43.147876" lon="13.1512446"><ele>604.0</ele><time>2026-03-22T11:44:33Z</time></trkpt><trkpt lat="43.1477716" lon="13.1511068"><ele>604.0</ele><time>2026-03-22T11:44:34Z</time></trkpt><trkpt lat="43.1476729" lon="13.1509783"><ele>604.0</ele><time>2026-03-22T11:44:35Z</time></trkpt><trkpt lat="43.1475809" lon="13.1508581"><ele>604.0</ele><time>2026-03-22T11:44:36Z</time></trkpt><trkpt lat="43.1474933" lon="13.1507485"><ele>604.0</ele><time>2026-03-22T11:44:36.999Z</time></trkpt><trkpt lat="43.1474076" lon="13.150643"><ele>603.2</ele><time>2026-03-22T11:44:38Z</time></trkpt><trkpt lat="43.1473313" lon="13.1505445"><ele>602.4</ele><time>2026-03-22T11:44:39Z</time></trkpt><trkpt lat="43.1472628" lon="13.1504479"><ele>601.6</ele><time>2026-03-22T11:44:39.999Z</time></trkpt><trkpt lat="43.1472004" lon="13.1503567"><ele>600.8</ele><time>2026-03-22T11:44:40.999Z</time></trkpt><trkpt lat="43.1471416" lon="13.1502644"><ele>600.0</ele><time>2026-03-22T11:44:42Z</time></trkpt><trkpt lat="43.1470792" lon="13.1501679"><ele>600.0</ele><time>2026-03-22T11:44:43Z</time></trkpt><trkpt lat="43.147024" lon="13.1500699"><ele>600.0</ele><time>2026-03-22T11:44:44Z</time></trkpt><trkpt lat="43.1469757" lon="13.1499797"><ele>600.0</ele><time>2026-03-22T11:44:45Z</time></trkpt><trkpt lat="43.1469254" lon="13.149887"><ele>600.0</ele><time>2026-03-22T11:44:45.999Z</time></trkpt><trkpt lat="43.1468779" lon="13.1497957"><ele>600.0</ele><time>2026-03-22T11:44:47Z</time></trkpt><trkpt lat="43.1468361" lon="13.14971"><ele>600.0</ele><time>2026-03-22T11:44:48Z</time></trkpt><trkpt lat="43.1467872" lon="13.1495715"><ele>601.4</ele><time>2026-03-22T11:44:49.999Z</time></trkpt><trkpt lat="43.1467482" lon="13.1494371"><ele>602.8</ele><time>2026-03-22T11:44:51.999Z</time></trkpt><trkpt lat="43.1466955" lon="13.1493384"><ele>604.2</ele><time>2026-03-22T11:44:54Z</time></trkpt><trkpt lat="43.1466193" lon="13.1492753"><ele>605.6</ele><time>2026-03-22T11:44:55.999Z</time></trkpt><trkpt lat="43.1465373" lon="13.1492312"><ele>607.0</ele><time>2026-03-22T11:44:57.999Z</time></trkpt><trkpt lat="43.1464743" lon="13.1491575"><ele>606.1666666666667</ele><time>2026-03-22T11:44:59.999Z</time></trkpt><trkpt lat="43.1464605" lon="13.1490565"><ele>605.3333333333334</ele><time>2026-03-22T11:45:01.999Z</time></trkpt><trkpt lat="43.1464765" lon="13.1489182"><ele>604.5</ele><time>2026-03-22T11:45:03.998Z</time></trkpt><trkpt lat="43.1464935" lon="13.1487829"><ele>603.6666666666666</ele><time>2026-03-22T11:45:06Z</time></trkpt><trkpt lat="43.146517" lon="13.1486422"><ele>602.8333333333333</ele><time>2026-03-22T11:45:08Z</time></trkpt><trkpt lat="43.1465384" lon="13.1485564"><ele>602.0</ele><time>2026-03-22T11:45:09Z</time></trkpt><trkpt lat="43.14656" lon="13.1484685"><ele>602.0</ele><time>2026-03-22T11:45:09.999Z</time></trkpt><trkpt lat="43.1465878" lon="13.1483705"><ele>602.0</ele><time>2026-03-22T11:45:10.999Z</time></trkpt><trkpt lat="43.1466294" lon="13.1482644"><ele>602.0</ele><time>2026-03-22T11:45:12Z</time></trkpt><trkpt lat="43.1466775" lon="13.148149"><ele>602.0</ele><time>2026-03-22T11:45:12.999Z</time></trkpt><trkpt lat="43.1467207" lon="13.1480221"><ele>602.0</ele><time>2026-03-22T11:45:14Z</time></trkpt><trkpt lat="43.146755" lon="13.1478901"><ele>599.8000000000001</ele><time>2026-03-22T11:45:15Z</time></trkpt><trkpt lat="43.1467787" lon="13.1477552"><ele>597.6</ele><time>2026-03-22T11:45:16Z</time></trkpt><trkpt lat="43.1468027" lon="13.1476193"><ele>595.4000000000001</ele><time>2026-03-22T11:45:17Z</time></trkpt><trkpt lat="43.1468485" lon="13.1474895"><ele>593.2</ele><time>2026-03-22T11:45:18Z</time></trkpt><trkpt lat="43.1469177" lon="13.1473639"><ele>591.0</ele><time>2026-03-22T11:45:18.999Z</time></trkpt><trkpt lat="43.1469979" lon="13.1472251"><ele>588.5</ele><time>2026-03-22T11:45:19.999Z</time></trkpt><trkpt lat="43.1470678" lon="13.1470752"><ele>586.0</ele><time>2026-03-22T11:45:20.999Z</time></trkpt><trkpt lat="43.1471125" lon="13.1469249"><ele>583.5</ele><time>2026-03-22T11:45:21.999Z</time></trkpt><trkpt lat="43.1471252" lon="13.1467784"><ele>581.0</ele><time>2026-03-22T11:45:22.999Z</time></trkpt><trkpt lat="43.1471102" lon="13.1466286"><ele>579.4</ele><time>2026-03-22T11:45:24Z</time></trkpt><trkpt lat="43.1470833" lon="13.1464843"><ele>577.8</ele><time>2026-03-22T11:45:24.999Z</time></trkpt><trkpt lat="43.1470597" lon="13.1463456"><ele>576.1999999999999</ele><time>2026-03-22T11:45:25.999Z</time></trkpt><trkpt lat="43.1470495" lon="13.146211"><ele>574.6</ele><time>2026-03-22T11:45:26.998Z</time></trkpt><trkpt lat="43.1470534" lon="13.1460755"><ele>573.0</ele><time>2026-03-22T11:45:28Z</time></trkpt><trkpt lat="43.1470692" lon="13.1459414"><ele>573.0</ele><time>2026-03-22T11:45:29Z</time></trkpt><trkpt lat="43.1470893" lon="13.1458043"><ele>573.0</ele><time>2026-03-22T11:45:30Z</time></trkpt><trkpt lat="43.1471142" lon="13.1456609"><ele>573.0</ele><time>2026-03-22T11:45:30.999Z</time></trkpt><trkpt lat="43.1471402" lon="13.1455132"><ele>573.0</ele><time>2026-03-22T11:45:31.999Z</time></trkpt><trkpt lat="43.1471683" lon="13.1453605"><ele>573.0</ele><time>2026-03-22T11:45:32.999Z</time></trkpt><trkpt lat="43.1471973" lon="13.1452033"><ele>570.5</ele><time>2026-03-22T11:45:34Z</time></trkpt><trkpt lat="43.1472313" lon="13.1450418"><ele>568.0</ele><time>2026-03-22T11:45:35Z</time></trkpt><trkpt lat="43.1472678" lon="13.1448745"><ele>565.5</ele><time>2026-03-22T11:45:36Z</time></trkpt><trkpt lat="43.1473145" lon="13.1447099"><ele>563.0</ele><time>2026-03-22T11:45:36.999Z</time></trkpt><trkpt lat="43.1473656" lon="13.1445438"><ele>567.75</ele><time>2026-03-22T11:45:38Z</time></trkpt><trkpt lat="43.1474192" lon="13.1443813"><ele>572.5</ele><time>2026-03-22T11:45:38.999Z</time></trkpt><trkpt lat="43.1474682" lon="13.1442199"><ele>577.25</ele><time>2026-03-22T11:45:39.999Z</time></trkpt><trkpt lat="43.1475043" lon="13.1440583"><ele>582.0</ele><time>2026-03-22T11:45:41Z</time></trkpt><trkpt lat="43.147533" lon="13.1439001"><ele>582.0</ele><time>2026-03-22T11:45:42Z</time></trkpt><trkpt lat="43.1475555" lon="13.1437374"><ele>582.0</ele><time>2026-03-22T11:45:42.999Z</time></trkpt><trkpt lat="43.1475764" lon="13.1435715"><ele>582.0</ele><time>2026-03-22T11:45:43.999Z</time></trkpt><trkpt lat="43.1475989" lon="13.1434008"><ele>582.0</ele><time>2026-03-22T11:45:44.999Z</time></trkpt><trkpt lat="43.1476265" lon="13.1432294"><ele>580.4</ele><time>2026-03-22T11:45:45.999Z</time></trkpt><trkpt lat="43.1476589" lon="13.1430671"><ele>578.8000000000001</ele><time>2026-03-22T11:45:46.999Z</time></trkpt><trkpt lat="43.1476924" lon="13.1429131"><ele>577.2</ele><time>2026-03-22T11:45:47.999Z</time></trkpt><trkpt lat="43.147726" lon="13.1427711"><ele>575.6</ele><time>2026-03-22T11:45:49Z</time></trkpt><trkpt lat="43.1477526" lon="13.1426423"><ele>574.0</ele><time>2026-03-22T11:45:50Z</time></trkpt><trkpt lat="43.1477651" lon="13.1425357"><ele>574.0</ele><time>2026-03-22T11:45:51Z</time></trkpt><trkpt lat="43.1477701" lon="13.1424429"><ele>574.0</ele><time>2026-03-22T11:45:51.999Z</time></trkpt><trkpt lat="43.1477708" lon="13.1423493"><ele>574.0</ele><time>2026-03-22T11:45:52.999Z</time></trkpt><trkpt lat="43.1477715" lon="13.1422509"><ele>574.0</ele><time>2026-03-22T11:45:53.999Z</time></trkpt><trkpt lat="43.1477752" lon="13.142154"><ele>574.0</ele><time>2026-03-22T11:45:55Z</time></trkpt><trkpt lat="43.1477814" lon="13.1420626"><ele>574.0</ele><time>2026-03-22T11:45:56Z</time></trkpt><trkpt lat="43.1477895" lon="13.1419164"><ele>572.6666666666667</ele><time>2026-03-22T11:45:57.999Z</time></trkpt><trkpt lat="43.1477784" lon="13.1418194"><ele>571.3333333333334</ele><time>2026-03-22T11:45:59.999Z</time></trkpt><trkpt lat="43.1477126" lon="13.1418227"><ele>570.0</ele><time>2026-03-22T11:46:03Z</time></trkpt><trkpt lat="43.147683" lon="13.1419518"><ele>568.6666666666666</ele><time>2026-03-22T11:46:05.999Z</time></trkpt><trkpt lat="43.1476753" lon="13.1420935"><ele>567.3333333333333</ele><time>2026-03-22T11:46:08Z</time></trkpt><trkpt lat="43.1476705" lon="13.1421884"><ele>566.0</ele><time>2026-03-22T11:46:08.999Z</time></trkpt><trkpt lat="43.1476615" lon="13.1422855"><ele>566.0</ele><time>2026-03-22T11:46:10Z</time></trkpt><trkpt lat="43.1476478" lon="13.1423804"><ele>566.0</ele><time>2026-03-22T11:46:10.998Z</time></trkpt><trkpt lat="43.1476327" lon="13.1424868"><ele>566.0</ele><time>2026-03-22T11:46:11.999Z</time></trkpt><trkpt lat="43.1476156" lon="13.142584"><ele>566.0</ele><time>2026-03-22T11:46:12.999Z</time></trkpt><trkpt lat="43.1475909" lon="13.1426721"><ele>566.0</ele><time>2026-03-22T11:46:13.999Z</time></trkpt><trkpt lat="43.1475613" lon="13.1427609"><ele>566.0</ele><time>2026-03-22T11:46:15Z</time></trkpt><trkpt lat="43.1475215" lon="13.1428503"><ele>566.0</ele><time>2026-03-22T11:46:16Z</time></trkpt><trkpt lat="43.1474809" lon="13.1429343"><ele>567.1428571428571</ele><time>2026-03-22T11:46:16.998Z</time></trkpt><trkpt lat="43.147436" lon="13.143014"><ele>568.2857142857143</ele><time>2026-03-22T11:46:18Z</time></trkpt><trkpt lat="43.1473923" lon="13.1430892"><ele>569.4285714285714</ele><time>2026-03-22T11:46:18.999Z</time></trkpt><trkpt lat="43.1473484" lon="13.1431619"><ele>570.5714285714286</ele><time>2026-03-22T11:46:19.999Z</time></trkpt><trkpt lat="43.147303" lon="13.1432342"><ele>571.7142857142858</ele><time>2026-03-22T11:46:21Z</time></trkpt><trkpt lat="43.1472534" lon="13.1433065"><ele>572.8571428571429</ele><time>2026-03-22T11:46:22Z</time></trkpt><trkpt lat="43.1472001" lon="13.1433844"><ele>574.0</ele><time>2026-03-22T11:46:22.999Z</time></trkpt><trkpt lat="43.1471457" lon="13.1434639"><ele>570.5714285714286</ele><time>2026-03-22T11:46:24Z</time></trkpt><trkpt lat="43.1470919" lon="13.1435436"><ele>567.1428571428571</ele><time>2026-03-22T11:46:25Z</time></trkpt><trkpt lat="43.1470411" lon="13.1436179"><ele>563.7142857142858</ele><time>2026-03-22T11:46:26Z</time></trkpt><trkpt lat="43.146994" lon="13.1436932"><ele>560.2857142857142</ele><time>2026-03-22T11:46:26.999Z</time></trkpt><trkpt lat="43.1469499" lon="13.1437686"><ele>556.8571428571429</ele><time>2026-03-22T11:46:28Z</time></trkpt><trkpt lat="43.1469099" lon="13.1438447"><ele>553.4285714285714</ele><time>2026-03-22T11:46:29Z</time></trkpt><trkpt lat="43.1468722" lon="13.1439178"><ele>550.0</ele><time>2026-03-22T11:46:30Z</time></trkpt><trkpt lat="43.1468248" lon="13.1440453"><ele>550.0</ele><time>2026-03-22T11:46:31.999Z</time></trkpt><trkpt lat="43.1467897" lon="13.1441528"><ele>550.0</ele><time>2026-03-22T11:46:34Z</time></trkpt><trkpt lat="43.146735" lon="13.1442311"><ele>550.0</ele><time>2026-03-22T11:46:36Z</time></trkpt><trkpt lat="43.146666" lon="13.1442309"><ele>550.0</ele><time>2026-03-22T11:46:37.999Z</time></trkpt><trkpt lat="43.1466153" lon="13.1441557"><ele>550.0</ele><time>2026-03-22T11:46:40Z</time></trkpt><trkpt lat="43.1466273" lon="13.1440327"><ele>550.0</ele><time>2026-03-22T11:46:42Z</time></trkpt><trkpt lat="43.1466581" lon="13.1438533"><ele>550.0</ele><time>2026-03-22T11:46:44Z</time></trkpt><trkpt lat="43.1466702" lon="13.1437511"><ele>550.0</ele><time>2026-03-22T11:46:45Z</time></trkpt><trkpt lat="43.1466817" lon="13.1436484"><ele>550.0</ele><time>2026-03-22T11:46:46Z</time></trkpt><trkpt lat="43.1466928" lon="13.1435571"><ele>550.0</ele><time>2026-03-22T11:46:46.999Z</time></trkpt><trkpt lat="43.146708" lon="13.1433838"><ele>550.0</ele><time>2026-03-22T11:46:48.999Z</time></trkpt><trkpt lat="43.1467252" lon="13.143214"><ele>548.2</ele><time>2026-03-22T11:46:51Z</time></trkpt><trkpt lat="43.1467421" lon="13.1430493"><ele>546.4</ele><time>2026-03-22T11:46:53Z</time></trkpt><trkpt lat="43.1467562" lon="13.1428913"><ele>544.6</ele><time>2026-03-22T11:46:54.999Z</time></trkpt><trkpt lat="43.1467806" lon="13.1427213"><ele>542.8</ele><time>2026-03-22T11:46:57Z</time></trkpt><trkpt lat="43.1467924" lon="13.1426309"><ele>541.0</ele><time>2026-03-22T11:46:57.998Z</time></trkpt><trkpt lat="43.1468027" lon="13.1425317"><ele>541.0</ele><time>2026-03-22T11:46:58.999Z</time></trkpt><trkpt lat="43.1468146" lon="13.1424238"><ele>541.0</ele><time>2026-03-22T11:47:00Z</time></trkpt><trkpt lat="43.1468268" lon="13.1423108"><ele>541.0</ele><time>2026-03-22T11:47:01Z</time></trkpt><trkpt lat="43.146836" lon="13.1421881"><ele>541.0</ele><time>2026-03-22T11:47:01.999Z</time></trkpt><trkpt lat="43.1468434" lon="13.1420536"><ele>541.0</ele><time>2026-03-22T11:47:02.999Z</time></trkpt><trkpt lat="43.1468497" lon="13.1419113"><ele>539.6</ele><time>2026-03-22T11:47:04Z</time></trkpt><trkpt lat="43.1468516" lon="13.1417663"><ele>538.2</ele><time>2026-03-22T11:47:05Z</time></trkpt><trkpt lat="43.1468495" lon="13.1416277"><ele>536.8</ele><time>2026-03-22T11:47:06Z</time></trkpt><trkpt lat="43.1468463" lon="13.141495"><ele>535.4</ele><time>2026-03-22T11:47:06.999Z</time></trkpt><trkpt lat="43.1468428" lon="13.1413683"><ele>534.0</ele><time>2026-03-22T11:47:08Z</time></trkpt><trkpt lat="43.1468391" lon="13.1412556"><ele>533.0</ele><time>2026-03-22T11:47:09Z</time></trkpt><trkpt lat="43.1468366" lon="13.1411512"><ele>532.0</ele><time>2026-03-22T11:47:10Z</time></trkpt><trkpt lat="43.1468379" lon="13.14105"><ele>531.0</ele><time>2026-03-22T11:47:11Z</time></trkpt><trkpt lat="43.14685" lon="13.1409478"><ele>530.0</ele><time>2026-03-22T11:47:11.999Z</time></trkpt><trkpt lat="43.1468756" lon="13.1408373"><ele>529.0</ele><time>2026-03-22T11:47:12.999Z</time></trkpt><trkpt lat="43.1469116" lon="13.1407315"><ele>528.0</ele><time>2026-03-22T11:47:14Z</time></trkpt><trkpt lat="43.146958" lon="13.1406288"><ele>525.5</ele><time>2026-03-22T11:47:15Z</time></trkpt><trkpt lat="43.1470107" lon="13.1405316"><ele>523.0</ele><time>2026-03-22T11:47:16Z</time></trkpt><trkpt lat="43.1470682" lon="13.140436"><ele>520.5</ele><time>2026-03-22T11:47:17Z</time></trkpt><trkpt lat="43.1471206" lon="13.1403513"><ele>518.0</ele><time>2026-03-22T11:47:18Z</time></trkpt><trkpt lat="43.1471713" lon="13.1402758"><ele>515.5</ele><time>2026-03-22T11:47:19Z</time></trkpt><trkpt lat="43.1472189" lon="13.140206"><ele>513.0</ele><time>2026-03-22T11:47:19.999Z</time></trkpt><trkpt lat="43.147265" lon="13.1401389"><ele>513.0000000000001</ele><time>2026-03-22T11:47:21Z</time></trkpt><trkpt lat="43.1473092" lon="13.140069"><ele>513.0</ele><time>2026-03-22T11:47:22Z</time></trkpt><trkpt lat="43.1473514" lon="13.1399969"><ele>513.0</ele><time>2026-03-22T11:47:23Z</time></trkpt><trkpt lat="43.147391" lon="13.1399162"><ele>513.0</ele><time>2026-03-22T11:47:24Z</time></trkpt><trkpt lat="43.1474252" lon="13.1398197"><ele>513.0</ele><time>2026-03-22T11:47:25Z</time></trkpt><trkpt lat="43.1474498" lon="13.1397166"><ele>513.0000000000001</ele><time>2026-03-22T11:47:26Z</time></trkpt><trkpt lat="43.1474697" lon="13.1396187"><ele>513.0</ele><time>2026-03-22T11:47:27Z</time></trkpt><trkpt lat="43.1474838" lon="13.1395204"><ele>513.5714285714287</ele><time>2026-03-22T11:47:27.999Z</time></trkpt><trkpt lat="43.1474979" lon="13.1394231"><ele>514.1428571428571</ele><time>2026-03-22T11:47:29Z</time></trkpt><trkpt lat="43.1475147" lon="13.1393285"><ele>514.7142857142858</ele><time>2026-03-22T11:47:29.999Z</time></trkpt><trkpt lat="43.1475296" lon="13.1392369"><ele>515.2857142857143</ele><time>2026-03-22T11:47:30.998Z</time></trkpt><trkpt lat="43.1475472" lon="13.1391425"><ele>515.8571428571429</ele><time>2026-03-22T11:47:31.998Z</time></trkpt><trkpt lat="43.1475659" lon="13.1390436"><ele>516.4285714285714</ele><time>2026-03-22T11:47:32.999Z</time></trkpt><trkpt lat="43.1475801" lon="13.138939"><ele>517.0</ele><time>2026-03-22T11:47:34Z</time></trkpt><trkpt lat="43.1475926" lon="13.1388257"><ele>517.0</ele><time>2026-03-22T11:47:35Z</time></trkpt><trkpt lat="43.147607" lon="13.1387086"><ele>517.0</ele><time>2026-03-22T11:47:35.999Z</time></trkpt><trkpt lat="43.147613" lon="13.13859"><ele>517.0</ele><time>2026-03-22T11:47:36.999Z</time></trkpt><trkpt lat="43.1476178" lon="13.1384732"><ele>517.0</ele><time>2026-03-22T11:47:38Z</time></trkpt><trkpt lat="43.1476264" lon="13.1383635"><ele>517.0</ele><time>2026-03-22T11:47:38.999Z</time></trkpt><trkpt lat="43.1476356" lon="13.1382644"><ele>517.0</ele><time>2026-03-22T11:47:39.999Z</time></trkpt><trkpt lat="43.1476446" lon="13.1381591"><ele>515.0</ele><time>2026-03-22T11:47:40.999Z</time></trkpt><trkpt lat="43.147652" lon="13.1380552"><ele>513.0</ele><time>2026-03-22T11:47:42Z</time></trkpt><trkpt lat="43.1476579" lon="13.1379493"><ele>511.0</ele><time>2026-03-22T11:47:43Z</time></trkpt><trkpt lat="43.1476635" lon="13.1378428"><ele>509.0</ele><time>2026-03-22T11:47:43.999Z</time></trkpt><trkpt lat="43.1476689" lon="13.1377509"><ele>507.00000000000006</ele><time>2026-03-22T11:47:44.999Z</time></trkpt><trkpt lat="43.1476819" lon="13.1375887"><ele>505.0</ele><time>2026-03-22T11:47:46.999Z</time></trkpt><trkpt lat="43.1476879" lon="13.1374922"><ele>505.0</ele><time>2026-03-22T11:47:47.999Z</time></trkpt><trkpt lat="43.1476926" lon="13.1373904"><ele>504.99999999999994</ele><time>2026-03-22T11:47:48.999Z</time></trkpt><trkpt lat="43.1476985" lon="13.1372917"><ele>505.0</ele><time>2026-03-22T11:47:49.999Z</time></trkpt><trkpt lat="43.1477084" lon="13.137195"><ele>505.0</ele><time>2026-03-22T11:47:50.999Z</time></trkpt><trkpt lat="43.1477159" lon="13.1370967"><ele>504.99999999999994</ele><time>2026-03-22T11:47:51.999Z</time></trkpt><trkpt lat="43.1477179" lon="13.1369977"><ele>505.0</ele><time>2026-03-22T11:47:52.999Z</time></trkpt><trkpt lat="43.1477182" lon="13.1368895"><ele>505.0</ele><time>2026-03-22T11:47:54Z</time></trkpt><trkpt lat="43.1477203" lon="13.1367742"><ele>503.6666666666667</ele><time>2026-03-22T11:47:55Z</time></trkpt><trkpt lat="43.1477287" lon="13.1366544"><ele>502.33333333333337</ele><time>2026-03-22T11:47:55.999Z</time></trkpt><trkpt lat="43.1477381" lon="13.136536"><ele>501.0</ele><time>2026-03-22T11:47:56.999Z</time></trkpt><trkpt lat="43.1477455" lon="13.1364271"><ele>499.66666666666663</ele><time>2026-03-22T11:47:58Z</time></trkpt><trkpt lat="43.1477555" lon="13.136324"><ele>498.3333333333333</ele><time>2026-03-22T11:47:58.999Z</time></trkpt><trkpt lat="43.147764" lon="13.1362215"><ele>497.0</ele><time>2026-03-22T11:48:00Z</time></trkpt><trkpt lat="43.1477783" lon="13.1361173"><ele>495.66666666666663</ele><time>2026-03-22T11:48:01Z</time></trkpt><trkpt lat="43.1477916" lon="13.1360013"><ele>494.3333333333333</ele><time>2026-03-22T11:48:01.999Z</time></trkpt><trkpt lat="43.1478068" lon="13.1358818"><ele>493.0</ele><time>2026-03-22T11:48:02.999Z</time></trkpt><trkpt lat="43.1478167" lon="13.1357637"><ele>491.66666666666663</ele><time>2026-03-22T11:48:03.999Z</time></trkpt><trkpt lat="43.147829" lon="13.1356404"><ele>490.3333333333333</ele><time>2026-03-22T11:48:05Z</time></trkpt><trkpt lat="43.1478446" lon="13.1355115"><ele>489.0</ele><time>2026-03-22T11:48:05.999Z</time></trkpt><trkpt lat="43.147861" lon="13.1353826"><ele>488.0</ele><time>2026-03-22T11:48:06.999Z</time></trkpt><trkpt lat="43.1478746" lon="13.1352541"><ele>487.0</ele><time>2026-03-22T11:48:07.999Z</time></trkpt><trkpt lat="43.1478893" lon="13.135128"><ele>486.0</ele><time>2026-03-22T11:48:08.999Z</time></trkpt><trkpt lat="43.1479011" lon="13.1350033"><ele>485.0</ele><time>2026-03-22T11:48:09.999Z</time></trkpt><trkpt lat="43.1479112" lon="13.1348794"><ele>484.0</ele><time>2026-03-22T11:48:11Z</time></trkpt><trkpt lat="43.1479224" lon="13.1347573"><ele>483.1666666666667</ele><time>2026-03-22T11:48:12Z</time></trkpt><trkpt lat="43.1479347" lon="13.1346373"><ele>482.33333333333337</ele><time>2026-03-22T11:48:13Z</time></trkpt><trkpt lat="43.1479463" lon="13.1345184"><ele>481.5</ele><time>2026-03-22T11:48:14Z</time></trkpt><trkpt lat="43.1479584" lon="13.1343997"><ele>480.66666666666663</ele><time>2026-03-22T11:48:15Z</time></trkpt><trkpt lat="43.1479737" lon="13.1342821"><ele>479.8333333333333</ele><time>2026-03-22T11:48:16Z</time></trkpt><trkpt lat="43.1479877" lon="13.1341655"><ele>479.0</ele><time>2026-03-22T11:48:17Z</time></trkpt><trkpt lat="43.1480026" lon="13.1340512"><ele>477.16666666666663</ele><time>2026-03-22T11:48:17.999Z</time></trkpt><trkpt lat="43.1480158" lon="13.1339386"><ele>475.3333333333333</ele><time>2026-03-22T11:48:19Z</time></trkpt><trkpt lat="43.1480266" lon="13.1338264"><ele>473.5</ele><time>2026-03-22T11:48:19.999Z</time></trkpt><trkpt lat="43.1480354" lon="13.133719"><ele>471.66666666666663</ele><time>2026-03-22T11:48:20.999Z</time></trkpt><trkpt lat="43.148043" lon="13.1336138"><ele>469.8333333333333</ele><time>2026-03-22T11:48:22Z</time></trkpt><trkpt lat="43.1480519" lon="13.1335151"><ele>468.0</ele><time>2026-03-22T11:48:22.999Z</time></trkpt><trkpt lat="43.1480634" lon="13.133416"><ele>468.0</ele><time>2026-03-22T11:48:24Z</time></trkpt><trkpt lat="43.1480816" lon="13.1333175"><ele>468.0</ele><time>2026-03-22T11:48:24.999Z</time></trkpt><trkpt lat="43.1481075" lon="13.1332214"><ele>468.0</ele><time>2026-03-22T11:48:25.999Z</time></trkpt><trkpt lat="43.1481398" lon="13.1331289"><ele>468.0</ele><time>2026-03-22T11:48:27Z</time></trkpt><trkpt lat="43.1481756" lon="13.1330352"><ele>468.0</ele><time>2026-03-22T11:48:28Z</time></trkpt><trkpt lat="43.1482122" lon="13.1329397"><ele>468.0</ele><time>2026-03-22T11:48:29Z</time></trkpt><trkpt lat="43.1482496" lon="13.1328436"><ele>466.59999999999997</ele><time>2026-03-22T11:48:30Z</time></trkpt><trkpt lat="43.1482902" lon="13.1327367"><ele>465.19999999999993</ele><time>2026-03-22T11:48:31Z</time></trkpt><trkpt lat="43.1483349" lon="13.132619"><ele>463.8</ele><time>2026-03-22T11:48:32Z</time></trkpt><trkpt lat="43.1483816" lon="13.1325099"><ele>462.4</ele><time>2026-03-22T11:48:33Z</time></trkpt><trkpt lat="43.1484267" lon="13.1323991"><ele>461.0</ele><time>2026-03-22T11:48:33.999Z</time></trkpt><trkpt lat="43.1484666" lon="13.1322935"><ele>460.99999999999994</ele><time>2026-03-22T11:48:34.999Z</time></trkpt><trkpt lat="43.1485042" lon="13.1321914"><ele>461.0</ele><time>2026-03-22T11:48:35.999Z</time></trkpt><trkpt lat="43.1485395" lon="13.1320897"><ele>461.0</ele><time>2026-03-22T11:48:36.999Z</time></trkpt><trkpt lat="43.148573" lon="13.1319888"><ele>461.0</ele><time>2026-03-22T11:48:37.999Z</time></trkpt><trkpt lat="43.1486077" lon="13.1318911"><ele>460.99999999999994</ele><time>2026-03-22T11:48:38.999Z</time></trkpt><trkpt lat="43.1486407" lon="13.1317941"><ele>461.0</ele><time>2026-03-22T11:48:39.999Z</time></trkpt><trkpt lat="43.1486737" lon="13.1317005"><ele>460.99999999999994</ele><time>2026-03-22T11:48:40.999Z</time></trkpt><trkpt lat="43.1487082" lon="13.1316094"><ele>461.0</ele><time>2026-03-22T11:48:42Z</time></trkpt><trkpt lat="43.1487451" lon="13.1315218"><ele>461.0</ele><time>2026-03-22T11:48:43Z</time></trkpt><trkpt lat="43.1487809" lon="13.1314362"><ele>461.0</ele><time>2026-03-22T11:48:44Z</time></trkpt><trkpt lat="43.1488161" lon="13.1313507"><ele>460.99999999999994</ele><time>2026-03-22T11:48:45Z</time></trkpt><trkpt lat="43.1488561" lon="13.1312601"><ele>461.0</ele><time>2026-03-22T11:48:46Z</time></trkpt><trkpt lat="43.148902" lon="13.131164"><ele>459.16666666666663</ele><time>2026-03-22T11:48:47Z</time></trkpt><trkpt lat="43.1489473" lon="13.1310645"><ele>457.3333333333333</ele><time>2026-03-22T11:48:47.999Z</time></trkpt><trkpt lat="43.1489916" lon="13.1309671"><ele>455.5</ele><time>2026-03-22T11:48:49Z</time></trkpt><trkpt lat="43.1490362" lon="13.1308708"><ele>453.66666666666663</ele><time>2026-03-22T11:48:50Z</time></trkpt><trkpt lat="43.1490812" lon="13.1307766"><ele>451.8333333333333</ele><time>2026-03-22T11:48:50.999Z</time></trkpt><trkpt lat="43.1491236" lon="13.130681"><ele>450.0</ele><time>2026-03-22T11:48:52Z</time></trkpt><trkpt lat="43.1491665" lon="13.130586"><ele>450.0</ele><time>2026-03-22T11:48:52.999Z</time></trkpt><trkpt lat="43.1492098" lon="13.1304909"><ele>450.0</ele><time>2026-03-22T11:48:53.999Z</time></trkpt><trkpt lat="43.1492543" lon="13.1303961"><ele>450.0</ele><time>2026-03-22T11:48:55Z</time></trkpt><trkpt lat="43.1493015" lon="13.1303024"><ele>450.0</ele><time>2026-03-22T11:48:56Z</time></trkpt><trkpt lat="43.1493471" lon="13.1302065"><ele>450.0</ele><time>2026-03-22T11:48:57Z</time></trkpt><trkpt lat="43.1493936" lon="13.1301078"><ele>450.0</ele><time>2026-03-22T11:48:58Z</time></trkpt><trkpt lat="43.1494427" lon="13.1300044"><ele>450.0</ele><time>2026-03-22T11:48:58.999Z</time></trkpt><trkpt lat="43.1494936" lon="13.129908"><ele>450.0</ele><time>2026-03-22T11:49:00Z</time></trkpt><trkpt lat="43.1495464" lon="13.1298176"><ele>450.0</ele><time>2026-03-22T11:49:01Z</time></trkpt><trkpt lat="43.1496003" lon="13.1297317"><ele>450.0</ele><time>2026-03-22T11:49:02Z</time></trkpt><trkpt lat="43.1496551" lon="13.1296522"><ele>450.0</ele><time>2026-03-22T11:49:03Z</time></trkpt><trkpt lat="43.1497119" lon="13.1295785"><ele>450.0</ele><time>2026-03-22T11:49:03.999Z</time></trkpt><trkpt lat="43.1497701" lon="13.1295103"><ele>450.5</ele><time>2026-03-22T11:49:05Z</time></trkpt><trkpt lat="43.1498322" lon="13.129441"><ele>451.0</ele><time>2026-03-22T11:49:05.999Z</time></trkpt><trkpt lat="43.1498961" lon="13.1293737"><ele>451.5</ele><time>2026-03-22T11:49:07Z</time></trkpt><trkpt lat="43.1499608" lon="13.1293035"><ele>452.0</ele><time>2026-03-22T11:49:08Z</time></trkpt><trkpt lat="43.150026" lon="13.1292333"><ele>452.5</ele><time>2026-03-22T11:49:09Z</time></trkpt><trkpt lat="43.150093" lon="13.129167"><ele>453.0</ele><time>2026-03-22T11:49:09.999Z</time></trkpt><trkpt lat="43.1501583" lon="13.1290999"><ele>447.8333333333333</ele><time>2026-03-22T11:49:10.999Z</time></trkpt><trkpt lat="43.150228" lon="13.1290313"><ele>442.66666666666663</ele><time>2026-03-22T11:49:12Z</time></trkpt><trkpt lat="43.1503012" lon="13.1289604"><ele>437.5</ele><time>2026-03-22T11:49:12.999Z</time></trkpt><trkpt lat="43.1503753" lon="13.1288926"><ele>432.3333333333333</ele><time>2026-03-22T11:49:14Z</time></trkpt><trkpt lat="43.1504483" lon="13.128825"><ele>427.16666666666663</ele><time>2026-03-22T11:49:14.999Z</time></trkpt><trkpt lat="43.150522" lon="13.1287604"><ele>422.0</ele><time>2026-03-22T11:49:15.999Z</time></trkpt><trkpt lat="43.1506028" lon="13.1286966"><ele>422.0</ele><time>2026-03-22T11:49:17Z</time></trkpt><trkpt lat="43.1506907" lon="13.1286349"><ele>422.0</ele><time>2026-03-22T11:49:18Z</time></trkpt><trkpt lat="43.1507846" lon="13.128575"><ele>422.0</ele><time>2026-03-22T11:49:18.999Z</time></trkpt><trkpt lat="43.1508827" lon="13.1285157"><ele>422.0</ele><time>2026-03-22T11:49:20Z</time></trkpt><trkpt lat="43.150978" lon="13.1284613"><ele>422.0</ele><time>2026-03-22T11:49:20.999Z</time></trkpt><trkpt lat="43.1510704" lon="13.1284112"><ele>421.49999999999994</ele><time>2026-03-22T11:49:21.999Z</time></trkpt><trkpt lat="43.151159" lon="13.1283639"><ele>421.0</ele><time>2026-03-22T11:49:22.998Z</time></trkpt><trkpt lat="43.1512425" lon="13.1283204"><ele>420.5</ele><time>2026-03-22T11:49:23.999Z</time></trkpt><trkpt lat="43.1513202" lon="13.1282793"><ele>420.0</ele><time>2026-03-22T11:49:24.999Z</time></trkpt><trkpt lat="43.1513943" lon="13.1282371"><ele>419.49999999999994</ele><time>2026-03-22T11:49:26Z</time></trkpt><trkpt lat="43.1514705" lon="13.1281878"><ele>419.0</ele><time>2026-03-22T11:49:26.999Z</time></trkpt><trkpt lat="43.1515449" lon="13.1281188"><ele>421.2</ele><time>2026-03-22T11:49:27.999Z</time></trkpt><trkpt lat="43.151613" lon="13.1280363"><ele>423.4</ele><time>2026-03-22T11:49:29Z</time></trkpt><trkpt lat="43.1516757" lon="13.1279384"><ele>425.6</ele><time>2026-03-22T11:49:29.999Z</time></trkpt><trkpt lat="43.1517297" lon="13.1278338"><ele>427.8</ele><time>2026-03-22T11:49:30.999Z</time></trkpt><trkpt lat="43.1517796" lon="13.1277269"><ele>430.0</ele><time>2026-03-22T11:49:31.999Z</time></trkpt><trkpt lat="43.151827" lon="13.1276298"><ele>430.00000000000006</ele><time>2026-03-22T11:49:32.999Z</time></trkpt><trkpt lat="43.1518699" lon="13.1275434"><ele>430.0</ele><time>2026-03-22T11:49:33.999Z</time></trkpt><trkpt lat="43.1519104" lon="13.1274593"><ele>430.0</ele><time>2026-03-22T11:49:34.999Z</time></trkpt><trkpt lat="43.1519513" lon="13.1273741"><ele>430.0</ele><time>2026-03-22T11:49:36Z</time></trkpt><trkpt lat="43.1520005" lon="13.1272792"><ele>430.00000000000006</ele><time>2026-03-22T11:49:36.999Z</time></trkpt><trkpt lat="43.1520537" lon="13.1271829"><ele>430.0</ele><time>2026-03-22T11:49:38Z</time></trkpt><trkpt lat="43.1521075" lon="13.1270853"><ele>430.4</ele><time>2026-03-22T11:49:39Z</time></trkpt><trkpt lat="43.1521608" lon="13.1269921"><ele>430.8</ele><time>2026-03-22T11:49:39.999Z</time></trkpt><trkpt lat="43.1522219" lon="13.1269012"><ele>431.20000000000005</ele><time>2026-03-22T11:49:40.999Z</time></trkpt><trkpt lat="43.1522869" lon="13.126818"><ele>431.6</ele><time>2026-03-22T11:49:41.999Z</time></trkpt><trkpt lat="43.1523601" lon="13.1267439"><ele>432.0</ele><time>2026-03-22T11:49:42.999Z</time></trkpt><trkpt lat="43.1524422" lon="13.1266739"><ele>432.0</ele><time>2026-03-22T11:49:43.999Z</time></trkpt><trkpt lat="43.1525265" lon="13.126611"><ele>432.0</ele><time>2026-03-22T11:49:44.999Z</time></trkpt><trkpt lat="43.1526061" lon="13.1265505"><ele>432.0</ele><time>2026-03-22T11:49:46Z</time></trkpt><trkpt lat="43.1526788" lon="13.1264863"><ele>432.0</ele><time>2026-03-22T11:49:47Z</time></trkpt><trkpt lat="43.1527465" lon="13.1264139"><ele>432.0</ele><time>2026-03-22T11:49:47.999Z</time></trkpt><trkpt lat="43.1528096" lon="13.1263298"><ele>432.0</ele><time>2026-03-22T11:49:48.999Z</time></trkpt><trkpt lat="43.1528624" lon="13.1262408"><ele>431.3333333333333</ele><time>2026-03-22T11:49:50Z</time></trkpt><trkpt lat="43.1529059" lon="13.1261441"><ele>430.66666666666663</ele><time>2026-03-22T11:49:51Z</time></trkpt><trkpt lat="43.1529459" lon="13.1260503"><ele>430.0</ele><time>2026-03-22T11:49:52Z</time></trkpt><trkpt lat="43.152984" lon="13.1259634"><ele>429.3333333333333</ele><time>2026-03-22T11:49:52.999Z</time></trkpt><trkpt lat="43.1530185" lon="13.1258797"><ele>428.66666666666663</ele><time>2026-03-22T11:49:54Z</time></trkpt><trkpt lat="43.1530489" lon="13.1257982"><ele>428.0</ele><time>2026-03-22T11:49:55Z</time></trkpt><trkpt lat="43.153098" lon="13.1256489"><ele>429.79999999999995</ele><time>2026-03-22T11:49:56.999Z</time></trkpt><trkpt lat="43.1531375" lon="13.1254992"><ele>431.59999999999997</ele><time>2026-03-22T11:49:58.999Z</time></trkpt><trkpt lat="43.1531514" lon="13.1253678"><ele>433.40000000000003</ele><time>2026-03-22T11:50:01Z</time></trkpt><trkpt lat="43.1531653" lon="13.1252103"><ele>435.20000000000005</ele><time>2026-03-22T11:50:03Z</time></trkpt><trkpt lat="43.1531959" lon="13.1250877"><ele>437.0</ele><time>2026-03-22T11:50:05Z</time></trkpt><trkpt lat="43.1532339" lon="13.1249571"><ele>436.5</ele><time>2026-03-22T11:50:06.999Z</time></trkpt><trkpt lat="43.1532766" lon="13.1248227"><ele>436.0</ele><time>2026-03-22T11:50:09Z</time></trkpt><trkpt lat="43.1533219" lon="13.1246769"><ele>435.5</ele><time>2026-03-22T11:50:11Z</time></trkpt><trkpt lat="43.1533656" lon="13.1245215"><ele>435.0</ele><time>2026-03-22T11:50:12.999Z</time></trkpt><trkpt lat="43.1534152" lon="13.1243613"><ele>435.00000000000006</ele><time>2026-03-22T11:50:15Z</time></trkpt><trkpt lat="43.1534421" lon="13.1242763"><ele>435.0</ele><time>2026-03-22T11:50:15.999Z</time></trkpt><trkpt lat="43.1534679" lon="13.1241918"><ele>435.0</ele><time>2026-03-22T11:50:17Z</time></trkpt><trkpt lat="43.1534953" lon="13.1241087"><ele>435.0</ele><time>2026-03-22T11:50:18Z</time></trkpt><trkpt lat="43.1535309" lon="13.1240268"><ele>435.0</ele><time>2026-03-22T11:50:19Z</time></trkpt><trkpt lat="43.1535758" lon="13.1239482"><ele>435.00000000000006</ele><time>2026-03-22T11:50:19.999Z</time></trkpt><trkpt lat="43.1536264" lon="13.1238827"><ele>435.0</ele><time>2026-03-22T11:50:20.999Z</time></trkpt><trkpt lat="43.1536845" lon="13.1238282"><ele>436.7142857142857</ele><time>2026-03-22T11:50:21.999Z</time></trkpt><trkpt lat="43.1537477" lon="13.1237874"><ele>438.42857142857144</ele><time>2026-03-22T11:50:22.999Z</time></trkpt><trkpt lat="43.1538071" lon="13.1237579"><ele>440.1428571428571</ele><time>2026-03-22T11:50:24Z</time></trkpt><trkpt lat="43.1538662" lon="13.1237173"><ele>441.8571428571429</ele><time>2026-03-22T11:50:24.999Z</time></trkpt><trkpt lat="43.1539236" lon="13.1236625"><ele>443.57142857142856</ele><time>2026-03-22T11:50:26Z</time></trkpt><trkpt lat="43.1539761" lon="13.1235985"><ele>445.2857142857143</ele><time>2026-03-22T11:50:27Z</time></trkpt><trkpt lat="43.1540227" lon="13.1235179"><ele>447.0</ele><time>2026-03-22T11:50:27.999Z</time></trkpt><trkpt lat="43.1540606" lon="13.1234215"><ele>447.0</ele><time>2026-03-22T11:50:29Z</time></trkpt><trkpt lat="43.1540954" lon="13.1233254"><ele>447.0</ele><time>2026-03-22T11:50:29.999Z</time></trkpt><trkpt lat="43.1541366" lon="13.1232276"><ele>447.0</ele><time>2026-03-22T11:50:31Z</time></trkpt><trkpt lat="43.1541823" lon="13.1231319"><ele>447.0</ele><time>2026-03-22T11:50:31.999Z</time></trkpt><trkpt lat="43.1542279" lon="13.1230498"><ele>447.0</ele><time>2026-03-22T11:50:32.999Z</time></trkpt><trkpt lat="43.1542736" lon="13.1229671"><ele>447.0</ele><time>2026-03-22T11:50:34Z</time></trkpt><trkpt lat="43.1543156" lon="13.1228822"><ele>446.1428571428571</ele><time>2026-03-22T11:50:34.999Z</time></trkpt><trkpt lat="43.1543556" lon="13.122798"><ele>445.2857142857143</ele><time>2026-03-22T11:50:36Z</time></trkpt><trkpt lat="43.154394" lon="13.1227172"><ele>444.42857142857144</ele><time>2026-03-22T11:50:37Z</time></trkpt><trkpt lat="43.1544298" lon="13.1226349"><ele>443.57142857142856</ele><time>2026-03-22T11:50:37.999Z</time></trkpt><trkpt lat="43.1544612" lon="13.1225463"><ele>442.7142857142857</ele><time>2026-03-22T11:50:38.999Z</time></trkpt><trkpt lat="43.1544967" lon="13.1224552"><ele>441.85714285714283</ele><time>2026-03-22T11:50:39.999Z</time></trkpt><trkpt lat="43.1545369" lon="13.1223573"><ele>441.0</ele><time>2026-03-22T11:50:41Z</time></trkpt><trkpt lat="43.1545722" lon="13.1222639"><ele>443.1666666666667</ele><time>2026-03-22T11:50:42Z</time></trkpt><trkpt lat="43.1545971" lon="13.1221674"><ele>445.33333333333337</ele><time>2026-03-22T11:50:42.999Z</time></trkpt><trkpt lat="43.1546185" lon="13.1220664"><ele>447.5</ele><time>2026-03-22T11:50:44Z</time></trkpt><trkpt lat="43.1546375" lon="13.1219595"><ele>449.6666666666667</ele><time>2026-03-22T11:50:44.999Z</time></trkpt><trkpt lat="43.154654" lon="13.1218561"><ele>451.83333333333337</ele><time>2026-03-22T11:50:45.999Z</time></trkpt><trkpt lat="43.1546714" lon="13.1217528"><ele>454.0</ele><time>2026-03-22T11:50:47Z</time></trkpt><trkpt lat="43.1546984" lon="13.1216531"><ele>452.6666666666667</ele><time>2026-03-22T11:50:47.999Z</time></trkpt><trkpt lat="43.154736" lon="13.1215592"><ele>451.33333333333337</ele><time>2026-03-22T11:50:49Z</time></trkpt><trkpt lat="43.1547817" lon="13.1214734"><ele>450.0</ele><time>2026-03-22T11:50:49.999Z</time></trkpt><trkpt lat="43.1548318" lon="13.1213969"><ele>448.66666666666663</ele><time>2026-03-22T11:50:51Z</time></trkpt><trkpt lat="43.1548759" lon="13.1213231"><ele>447.3333333333333</ele><time>2026-03-22T11:50:52Z</time></trkpt><trkpt lat="43.1549071" lon="13.1212391"><ele>446.0</ele><time>2026-03-22T11:50:52.999Z</time></trkpt><trkpt lat="43.1549374" lon="13.1210778"><ele>446.0</ele><time>2026-03-22T11:50:55Z</time></trkpt><trkpt lat="43.154953" lon="13.1209414"><ele>446.0</ele><time>2026-03-22T11:50:57Z</time></trkpt><trkpt lat="43.1549846" lon="13.1208049"><ele>446.0</ele><time>2026-03-22T11:50:58.999Z</time></trkpt><trkpt lat="43.1550356" lon="13.1206838"><ele>446.0</ele><time>2026-03-22T11:51:00.999Z</time></trkpt><trkpt lat="43.1551066" lon="13.120553"><ele>446.0</ele><time>2026-03-22T11:51:02.999Z</time></trkpt><trkpt lat="43.1551835" lon="13.1204515"><ele>446.8</ele><time>2026-03-22T11:51:05Z</time></trkpt><trkpt lat="43.1552601" lon="13.1203494"><ele>447.6</ele><time>2026-03-22T11:51:07Z</time></trkpt><trkpt lat="43.1553346" lon="13.1202429"><ele>448.4</ele><time>2026-03-22T11:51:09Z</time></trkpt><trkpt lat="43.1554122" lon="13.1201352"><ele>449.2</ele><time>2026-03-22T11:51:11Z</time></trkpt><trkpt lat="43.155508" lon="13.1200429"><ele>450.0</ele><time>2026-03-22T11:51:12.999Z</time></trkpt><trkpt lat="43.1556237" lon="13.1199549"><ele>450.0</ele><time>2026-03-22T11:51:14.999Z</time></trkpt><trkpt lat="43.1556877" lon="13.1199062"><ele>450.0</ele><time>2026-03-22T11:51:16Z</time></trkpt><trkpt lat="43.1557472" lon="13.1198635"><ele>450.0</ele><time>2026-03-22T11:51:17Z</time></trkpt><trkpt lat="43.1558038" lon="13.1198245"><ele>450.0</ele><time>2026-03-22T11:51:18Z</time></trkpt><trkpt lat="43.1559081" lon="13.1197599"><ele>450.0</ele><time>2026-03-22T11:51:19.999Z</time></trkpt><trkpt lat="43.1560153" lon="13.1197138"><ele>450.0</ele><time>2026-03-22T11:51:22Z</time></trkpt><trkpt lat="43.1561293" lon="13.1196447"><ele>451.5</ele><time>2026-03-22T11:51:23.999Z</time></trkpt><trkpt lat="43.1561839" lon="13.119591"><ele>453.0</ele><time>2026-03-22T11:51:24.999Z</time></trkpt><trkpt lat="43.1562345" lon="13.1195247"><ele>454.5</ele><time>2026-03-22T11:51:25.999Z</time></trkpt><trkpt lat="43.1562957" lon="13.1194447"><ele>456.0</ele><time>2026-03-22T11:51:26.999Z</time></trkpt><trkpt lat="43.1563549" lon="13.1193627"><ele>457.5</ele><time>2026-03-22T11:51:28Z</time></trkpt><trkpt lat="43.1564039" lon="13.1192892"><ele>459.0</ele><time>2026-03-22T11:51:29Z</time></trkpt><trkpt lat="43.1564508" lon="13.1192118"><ele>459.0</ele><time>2026-03-22T11:51:30Z</time></trkpt><trkpt lat="43.1565022" lon="13.1191331"><ele>459.0</ele><time>2026-03-22T11:51:30.999Z</time></trkpt><trkpt lat="43.1565519" lon="13.1190709"><ele>459.0</ele><time>2026-03-22T11:51:32Z</time></trkpt><trkpt lat="43.1566069" lon="13.1190218"><ele>459.0</ele><time>2026-03-22T11:51:33Z</time></trkpt><trkpt lat="43.156669" lon="13.1189815"><ele>459.0</ele><time>2026-03-22T11:51:33.999Z</time></trkpt><trkpt lat="43.1567456" lon="13.1189523"><ele>459.0</ele><time>2026-03-22T11:51:34.999Z</time></trkpt><trkpt lat="43.1568178" lon="13.1189343"><ele>459.0</ele><time>2026-03-22T11:51:36Z</time></trkpt><trkpt lat="43.1568846" lon="13.1189204"><ele>461.0</ele><time>2026-03-22T11:51:36.999Z</time></trkpt><trkpt lat="43.1569622" lon="13.1189032"><ele>463.0</ele><time>2026-03-22T11:51:38Z</time></trkpt><trkpt lat="43.1570366" lon="13.1188823"><ele>465.0</ele><time>2026-03-22T11:51:38.999Z</time></trkpt><trkpt lat="43.1571094" lon="13.1188634"><ele>467.0</ele><time>2026-03-22T11:51:39.999Z</time></trkpt><trkpt lat="43.1571813" lon="13.1188396"><ele>469.0</ele><time>2026-03-22T11:51:41Z</time></trkpt><trkpt lat="43.1572566" lon="13.1188036"><ele>471.0</ele><time>2026-03-22T11:51:42Z</time></trkpt><trkpt lat="43.1573335" lon="13.1187626"><ele>468.8</ele><time>2026-03-22T11:51:42.999Z</time></trkpt><trkpt lat="43.1574084" lon="13.118724"><ele>466.6</ele><time>2026-03-22T11:51:44Z</time></trkpt><trkpt lat="43.1574775" lon="13.118704"><ele>464.4</ele><time>2026-03-22T11:51:45Z</time></trkpt><trkpt lat="43.1575807" lon="13.1186755"><ele>462.2</ele><time>2026-03-22T11:51:47Z</time></trkpt><trkpt lat="43.1576841" lon="13.1186066"><ele>460.0</ele><time>2026-03-22T11:51:49Z</time></trkpt><trkpt lat="43.1577713" lon="13.1185323"><ele>460.0</ele><time>2026-03-22T11:51:50.999Z</time></trkpt><trkpt lat="43.1578521" lon="13.1184391"><ele>460.0</ele><time>2026-03-22T11:51:52.999Z</time></trkpt><trkpt lat="43.1579395" lon="13.1183169"><ele>460.0</ele><time>2026-03-22T11:51:55Z</time></trkpt><trkpt lat="43.1579838" lon="13.1182425"><ele>460.0</ele><time>2026-03-22T11:51:55.999Z</time></trkpt><trkpt lat="43.1580178" lon="13.1181687"><ele>460.0</ele><time>2026-03-22T11:51:57Z</time></trkpt><trkpt lat="43.1580821" lon="13.1180324"><ele>462.6</ele><time>2026-03-22T11:51:59Z</time></trkpt><trkpt lat="43.1581505" lon="13.1179158"><ele>465.2</ele><time>2026-03-22T11:52:01Z</time></trkpt><trkpt lat="43.1582515" lon="13.1178381"><ele>467.79999999999995</ele><time>2026-03-22T11:52:02.999Z</time></trkpt><trkpt lat="43.1583604" lon="13.1178226"><ele>470.4</ele><time>2026-03-22T11:52:05Z</time></trkpt><trkpt lat="43.1584721" lon="13.1178327"><ele>473.0</ele><time>2026-03-22T11:52:07Z</time></trkpt><trkpt lat="43.1585652" lon="13.1178506"><ele>472.99999999999994</ele><time>2026-03-22T11:52:09.001Z</time></trkpt><trkpt lat="43.1586503" lon="13.1178619"><ele>473.0</ele><time>2026-03-22T11:52:11Z</time></trkpt><trkpt lat="43.1587485" lon="13.1178655"><ele>473.0</ele><time>2026-03-22T11:52:13Z</time></trkpt><trkpt lat="43.1588348" lon="13.1178555"><ele>473.0</ele><time>2026-03-22T11:52:15Z</time></trkpt><trkpt lat="43.1589111" lon="13.1178038"><ele>472.99999999999994</ele><time>2026-03-22T11:52:17.001Z</time></trkpt><trkpt lat="43.1589778" lon="13.1177255"><ele>473.0</ele><time>2026-03-22T11:52:19.001Z</time></trkpt><trkpt lat="43.1590524" lon="13.117638"><ele>471.59999999999997</ele><time>2026-03-22T11:52:21Z</time></trkpt><trkpt lat="43.1591416" lon="13.1175482"><ele>470.19999999999993</ele><time>2026-03-22T11:52:23Z</time></trkpt><trkpt lat="43.1592239" lon="13.1174794"><ele>468.8</ele><time>2026-03-22T11:52:25Z</time></trkpt><trkpt lat="43.1593155" lon="13.1174111"><ele>467.4</ele><time>2026-03-22T11:52:27.001Z</time></trkpt><trkpt lat="43.1594129" lon="13.1173425"><ele>466.0</ele><time>2026-03-22T11:52:29.001Z</time></trkpt><trkpt lat="43.1595" lon="13.1172662"><ele>470.25</ele><time>2026-03-22T11:52:31.001Z</time></trkpt><trkpt lat="43.1595811" lon="13.1171692"><ele>474.5</ele><time>2026-03-22T11:52:33.001Z</time></trkpt><trkpt lat="43.1596585" lon="13.1170438"><ele>478.75</ele><time>2026-03-22T11:52:35Z</time></trkpt><trkpt lat="43.159744" lon="13.1169263"><ele>483.0</ele><time>2026-03-22T11:52:37.001Z</time></trkpt><trkpt lat="43.159833" lon="13.1168381"><ele>482.2</ele><time>2026-03-22T11:52:39.001Z</time></trkpt><trkpt lat="43.1599082" lon="13.1167706"><ele>481.4</ele><time>2026-03-22T11:52:41Z</time></trkpt><trkpt lat="43.1599746" lon="13.116723"><ele>480.59999999999997</ele><time>2026-03-22T11:52:43Z</time></trkpt><trkpt lat="43.160063" lon="13.1166465"><ele>479.79999999999995</ele><time>2026-03-22T11:52:45.001Z</time></trkpt><trkpt lat="43.1601555" lon="13.1165658"><ele>479.0</ele><time>2026-03-22T11:52:47.001Z</time></trkpt><trkpt lat="43.1602214" lon="13.116496"><ele>479.0</ele><time>2026-03-22T11:52:49.001Z</time></trkpt><trkpt lat="43.1602964" lon="13.1164064"><ele>479.0</ele><time>2026-03-22T11:52:51Z</time></trkpt><trkpt lat="43.1603699" lon="13.1163135"><ele>479.0</ele><time>2026-03-22T11:52:53Z</time></trkpt><trkpt lat="43.160444" lon="13.116225"><ele>479.0</ele><time>2026-03-22T11:52:55.001Z</time></trkpt><trkpt lat="43.1605447" lon="13.1161629"><ele>479.0</ele><time>2026-03-22T11:52:57.001Z</time></trkpt><trkpt lat="43.1606601" lon="13.1161511"><ele>478.16666666666663</ele><time>2026-03-22T11:52:59Z</time></trkpt><trkpt lat="43.1607228" lon="13.1161596"><ele>477.3333333333333</ele><time>2026-03-22T11:53:00.001Z</time></trkpt><trkpt lat="43.1608466" lon="13.1161552"><ele>476.5</ele><time>2026-03-22T11:53:02Z</time></trkpt><trkpt lat="43.1609637" lon="13.1161404"><ele>475.66666666666663</ele><time>2026-03-22T11:53:04.001Z</time></trkpt><trkpt lat="43.1610267" lon="13.1161385"><ele>474.8333333333333</ele><time>2026-03-22T11:53:05Z</time></trkpt><trkpt lat="43.1610983" lon="13.116132"><ele>474.0</ele><time>2026-03-22T11:53:06.001Z</time></trkpt><trkpt lat="43.1611637" lon="13.1161392"><ele>474.0</ele><time>2026-03-22T11:53:07Z</time></trkpt><trkpt lat="43.1612273" lon="13.1161578"><ele>474.0</ele><time>2026-03-22T11:53:08Z</time></trkpt><trkpt lat="43.1613413" lon="13.1161916"><ele>474.0</ele><time>2026-03-22T11:53:10Z</time></trkpt><trkpt lat="43.1614647" lon="13.116206"><ele>474.0</ele><time>2026-03-22T11:53:12.001Z</time></trkpt><trkpt lat="43.1615883" lon="13.1162215"><ele>474.0</ele><time>2026-03-22T11:53:14.001Z</time></trkpt><trkpt lat="43.1616795" lon="13.1162328"><ele>474.6</ele><time>2026-03-22T11:53:16Z</time></trkpt><trkpt lat="43.1617504" lon="13.1162399"><ele>475.2</ele><time>2026-03-22T11:53:18.001Z</time></trkpt><trkpt lat="43.1618454" lon="13.1162479"><ele>475.80000000000007</ele><time>2026-03-22T11:53:21Z</time></trkpt><trkpt lat="43.1619644" lon="13.1162312"><ele>476.40000000000003</ele><time>2026-03-22T11:53:23.001Z</time></trkpt><trkpt lat="43.1620558" lon="13.1162123"><ele>477.0</ele><time>2026-03-22T11:53:24Z</time></trkpt><trkpt lat="43.1621402" lon="13.1161959"><ele>477.0</ele><time>2026-03-22T11:53:25.001Z</time></trkpt><trkpt lat="43.1622245" lon="13.1161799"><ele>477.0</ele><time>2026-03-22T11:53:26.001Z</time></trkpt><trkpt lat="43.1623094" lon="13.1161643"><ele>477.0</ele><time>2026-03-22T11:53:27Z</time></trkpt><trkpt lat="43.1623932" lon="13.1161375"><ele>477.0</ele><time>2026-03-22T11:53:28.001Z</time></trkpt><trkpt lat="43.1624746" lon="13.1161079"><ele>477.0</ele><time>2026-03-22T11:53:29Z</time></trkpt><trkpt lat="43.1625487" lon="13.1160767"><ele>477.0</ele><time>2026-03-22T11:53:30.001Z</time></trkpt><trkpt lat="43.1626204" lon="13.1160447"><ele>478.2857142857143</ele><time>2026-03-22T11:53:31.001Z</time></trkpt><trkpt lat="43.16269" lon="13.1160136"><ele>479.57142857142856</ele><time>2026-03-22T11:53:32Z</time></trkpt><trkpt lat="43.1627586" lon="13.1159819"><ele>480.85714285714283</ele><time>2026-03-22T11:53:33.001Z</time></trkpt><trkpt lat="43.162828" lon="13.1159472"><ele>482.1428571428571</ele><time>2026-03-22T11:53:34Z</time></trkpt><trkpt lat="43.1629" lon="13.1159135"><ele>483.42857142857144</ele><time>2026-03-22T11:53:35Z</time></trkpt><trkpt lat="43.162974" lon="13.1158883"><ele>484.71428571428567</ele><time>2026-03-22T11:53:36.001Z</time></trkpt><trkpt lat="43.1630487" lon="13.1158726"><ele>486.0</ele><time>2026-03-22T11:53:37Z</time></trkpt><trkpt lat="43.163125" lon="13.1158683"><ele>486.6666666666667</ele><time>2026-03-22T11:53:38.001Z</time></trkpt><trkpt lat="43.163201" lon="13.1158778"><ele>487.33333333333337</ele><time>2026-03-22T11:53:39Z</time></trkpt><trkpt lat="43.1632768" lon="13.1158987"><ele>488.0</ele><time>2026-03-22T11:53:40Z</time></trkpt><trkpt lat="43.163345" lon="13.1159221"><ele>488.6666666666667</ele><time>2026-03-22T11:53:41.001Z</time></trkpt><trkpt lat="43.1634147" lon="13.1159505"><ele>489.33333333333337</ele><time>2026-03-22T11:53:42Z</time></trkpt><trkpt lat="43.1634885" lon="13.1159783"><ele>490.0</ele><time>2026-03-22T11:53:43.001Z</time></trkpt><trkpt lat="43.1635659" lon="13.1160008"><ele>490.00000000000006</ele><time>2026-03-22T11:53:44Z</time></trkpt><trkpt lat="43.1636452" lon="13.1160205"><ele>490.0</ele><time>2026-03-22T11:53:45Z</time></trkpt><trkpt lat="43.1637241" lon="13.1160383"><ele>490.0</ele><time>2026-03-22T11:53:46.001Z</time></trkpt><trkpt lat="43.1638059" lon="13.1160486"><ele>490.0</ele><time>2026-03-22T11:53:47Z</time></trkpt><trkpt lat="43.163878" lon="13.1160549"><ele>490.00000000000006</ele><time>2026-03-22T11:53:48.001Z</time></trkpt><trkpt lat="43.1639418" lon="13.1160631"><ele>490.0</ele><time>2026-03-22T11:53:49Z</time></trkpt><trkpt lat="43.164041" lon="13.1160681"><ele>490.83333333333337</ele><time>2026-03-22T11:53:51Z</time></trkpt><trkpt lat="43.1641409" lon="13.1160755"><ele>491.6666666666667</ele><time>2026-03-22T11:53:53Z</time></trkpt><trkpt lat="43.1642572" lon="13.1160708"><ele>492.5</ele><time>2026-03-22T11:53:55.001Z</time></trkpt><trkpt lat="43.164325" lon="13.1160652"><ele>493.33333333333337</ele><time>2026-03-22T11:53:56Z</time></trkpt><trkpt lat="43.1644022" lon="13.1160551"><ele>494.1666666666667</ele><time>2026-03-22T11:53:57Z</time></trkpt><trkpt lat="43.1644651" lon="13.116045"><ele>495.0</ele><time>2026-03-22T11:53:58.001Z</time></trkpt><trkpt lat="43.1645627" lon="13.1160278"><ele>495.0</ele><time>2026-03-22T11:54:00Z</time></trkpt><trkpt lat="43.1646518" lon="13.1160069"><ele>495.0</ele><time>2026-03-22T11:54:02Z</time></trkpt><trkpt lat="43.1647792" lon="13.1159677"><ele>495.0</ele><time>2026-03-22T11:54:04Z</time></trkpt><trkpt lat="43.1648503" lon="13.1159548"><ele>495.0</ele><time>2026-03-22T11:54:04.999Z</time></trkpt><trkpt lat="43.1649149" lon="13.1159477"><ele>495.0</ele><time>2026-03-22T11:54:06Z</time></trkpt><trkpt lat="43.164981" lon="13.1159444"><ele>495.0</ele><time>2026-03-22T11:54:07.001Z</time></trkpt><trkpt lat="43.1650518" lon="13.1159488"><ele>496.1428571428571</ele><time>2026-03-22T11:54:07.999Z</time></trkpt><trkpt lat="43.1651292" lon="13.1159568"><ele>497.2857142857143</ele><time>2026-03-22T11:54:09.001Z</time></trkpt><trkpt lat="43.1652091" lon="13.1159692"><ele>498.42857142857144</ele><time>2026-03-22T11:54:10Z</time></trkpt><trkpt lat="43.1652727" lon="13.115978"><ele>499.57142857142856</ele><time>2026-03-22T11:54:11.001Z</time></trkpt><trkpt lat="43.1653477" lon="13.1159982"><ele>500.7142857142858</ele><time>2026-03-22T11:54:12.001Z</time></trkpt><trkpt lat="43.1654167" lon="13.1160108"><ele>501.8571428571429</ele><time>2026-03-22T11:54:13Z</time></trkpt><trkpt lat="43.1654871" lon="13.1160246"><ele>503.0</ele><time>2026-03-22T11:54:14Z</time></trkpt><trkpt lat="43.1655545" lon="13.1160364"><ele>502.99999999999994</ele><time>2026-03-22T11:54:15.001Z</time></trkpt><trkpt lat="43.1656259" lon="13.1160519"><ele>503.0</ele><time>2026-03-22T11:54:16Z</time></trkpt><trkpt lat="43.1657032" lon="13.116072"><ele>503.0</ele><time>2026-03-22T11:54:17Z</time></trkpt><trkpt lat="43.1657852" lon="13.1160962"><ele>503.0</ele><time>2026-03-22T11:54:18.001Z</time></trkpt><trkpt lat="43.1658688" lon="13.1161292"><ele>502.99999999999994</ele><time>2026-03-22T11:54:19Z</time></trkpt><trkpt lat="43.1659508" lon="13.1161707"><ele>503.0</ele><time>2026-03-22T11:54:20Z</time></trkpt><trkpt lat="43.166036" lon="13.1162035"><ele>503.5714285714286</ele><time>2026-03-22T11:54:21.001Z</time></trkpt><trkpt lat="43.1661176" lon="13.1162393"><ele>504.1428571428572</ele><time>2026-03-22T11:54:22.001Z</time></trkpt><trkpt lat="43.1661903" lon="13.1162591"><ele>504.7142857142857</ele><time>2026-03-22T11:54:23.001Z</time></trkpt><trkpt lat="43.1662582" lon="13.1162704"><ele>505.28571428571433</ele><time>2026-03-22T11:54:24.001Z</time></trkpt><trkpt lat="43.1663246" lon="13.1162739"><ele>505.8571428571429</ele><time>2026-03-22T11:54:24.999Z</time></trkpt><trkpt lat="43.1663995" lon="13.1162761"><ele>506.42857142857144</ele><time>2026-03-22T11:54:26Z</time></trkpt><trkpt lat="43.1664777" lon="13.1162694"><ele>507.0</ele><time>2026-03-22T11:54:27Z</time></trkpt><trkpt lat="43.1665584" lon="13.1162495"><ele>507.0</ele><time>2026-03-22T11:54:28.001Z</time></trkpt><trkpt lat="43.1666354" lon="13.1162273"><ele>507.0</ele><time>2026-03-22T11:54:29Z</time></trkpt><trkpt lat="43.1667123" lon="13.1162106"><ele>507.0</ele><time>2026-03-22T11:54:30Z</time></trkpt><trkpt lat="43.1667939" lon="13.1161986"><ele>507.0</ele><time>2026-03-22T11:54:31.001Z</time></trkpt><trkpt lat="43.1668806" lon="13.1161896"><ele>507.0</ele><time>2026-03-22T11:54:32Z</time></trkpt><trkpt lat="43.1669695" lon="13.1161842"><ele>507.0</ele><time>2026-03-22T11:54:33Z</time></trkpt><trkpt lat="43.167061" lon="13.1161891"><ele>507.0</ele><time>2026-03-22T11:54:34Z</time></trkpt><trkpt lat="43.1671493" lon="13.1161964"><ele>507.00000000000006</ele><time>2026-03-22T11:54:34.999Z</time></trkpt><trkpt lat="43.1672422" lon="13.1162036"><ele>507.00000000000006</ele><time>2026-03-22T11:54:36Z</time></trkpt><trkpt lat="43.1673395" lon="13.1162123"><ele>507.0</ele><time>2026-03-22T11:54:37Z</time></trkpt><trkpt lat="43.1674421" lon="13.1162233"><ele>507.0</ele><time>2026-03-22T11:54:38.001Z</time></trkpt><trkpt lat="43.1675525" lon="13.1162352"><ele>508.25</ele><time>2026-03-22T11:54:39.001Z</time></trkpt><trkpt lat="43.167665" lon="13.1162477"><ele>509.5</ele><time>2026-03-22T11:54:40.001Z</time></trkpt><trkpt lat="43.1677829" lon="13.1162676"><ele>510.75</ele><time>2026-03-22T11:54:41Z</time></trkpt><trkpt lat="43.1679" lon="13.1162931"><ele>512.0</ele><time>2026-03-22T11:54:42.001Z</time></trkpt><trkpt lat="43.1680128" lon="13.1163188"><ele>512.0</ele><time>2026-03-22T11:54:43Z</time></trkpt><trkpt lat="43.1681286" lon="13.1163435"><ele>512.0</ele><time>2026-03-22T11:54:44.001Z</time></trkpt><trkpt lat="43.1682556" lon="13.116378"><ele>512.0</ele><time>2026-03-22T11:54:44.999Z</time></trkpt><trkpt lat="43.1683876" lon="13.1164172"><ele>512.0</ele><time>2026-03-22T11:54:46.001Z</time></trkpt><trkpt lat="43.1685141" lon="13.1164608"><ele>513.75</ele><time>2026-03-22T11:54:47.001Z</time></trkpt><trkpt lat="43.1686375" lon="13.1165218"><ele>515.5</ele><time>2026-03-22T11:54:48.001Z</time></trkpt><trkpt lat="43.168765" lon="13.1166"><ele>517.25</ele><time>2026-03-22T11:54:49.001Z</time></trkpt><trkpt lat="43.1688875" lon="13.11668"><ele>519.0</ele><time>2026-03-22T11:54:50Z</time></trkpt><trkpt lat="43.1690087" lon="13.1167552"><ele>522.5</ele><time>2026-03-22T11:54:51Z</time></trkpt><trkpt lat="43.1691275" lon="13.1168199"><ele>526.0</ele><time>2026-03-22T11:54:52Z</time></trkpt><trkpt lat="43.1692453" lon="13.1168713"><ele>529.5</ele><time>2026-03-22T11:54:53Z</time></trkpt><trkpt lat="43.169363" lon="13.116912"><ele>533.0</ele><time>2026-03-22T11:54:54Z</time></trkpt><trkpt lat="43.1694815" lon="13.116946"><ele>533.0</ele><time>2026-03-22T11:54:55.001Z</time></trkpt><trkpt lat="43.1696016" lon="13.1169774"><ele>533.0</ele><time>2026-03-22T11:54:56.001Z</time></trkpt><trkpt lat="43.1697232" lon="13.1170072"><ele>533.0</ele><time>2026-03-22T11:54:57Z</time></trkpt><trkpt lat="43.1698465" lon="13.1170411"><ele>533.0</ele><time>2026-03-22T11:54:58.001Z</time></trkpt><trkpt lat="43.1699678" lon="13.1170767"><ele>532.0</ele><time>2026-03-22T11:54:59.001Z</time></trkpt><trkpt lat="43.1700904" lon="13.1171078"><ele>531.0</ele><time>2026-03-22T11:55:00.001Z</time></trkpt><trkpt lat="43.1702152" lon="13.1171373"><ele>530.0</ele><time>2026-03-22T11:55:01Z</time></trkpt><trkpt lat="43.1703397" lon="13.1171718"><ele>529.0</ele><time>2026-03-22T11:55:02Z</time></trkpt><trkpt lat="43.1704583" lon="13.1172094"><ele>529.0</ele><time>2026-03-22T11:55:03Z</time></trkpt><trkpt lat="43.1705667" lon="13.1172483"><ele>529.0</ele><time>2026-03-22T11:55:04.001Z</time></trkpt><trkpt lat="43.1706717" lon="13.1172986"><ele>529.0</ele><time>2026-03-22T11:55:04.999Z</time></trkpt><trkpt lat="43.1707746" lon="13.1173709"><ele>529.0</ele><time>2026-03-22T11:55:06Z</time></trkpt><trkpt lat="43.1708819" lon="13.1174648"><ele>533.5</ele><time>2026-03-22T11:55:07.001Z</time></trkpt><trkpt lat="43.1709883" lon="13.1175676"><ele>538.0</ele><time>2026-03-22T11:55:08.001Z</time></trkpt><trkpt lat="43.171096" lon="13.1176821"><ele>542.5</ele><time>2026-03-22T11:55:09Z</time></trkpt><trkpt lat="43.1712059" lon="13.1178078"><ele>547.0</ele><time>2026-03-22T11:55:10Z</time></trkpt><trkpt lat="43.1713118" lon="13.1179293"><ele>547.0</ele><time>2026-03-22T11:55:11Z</time></trkpt><trkpt lat="43.171425" lon="13.118046"><ele>547.0</ele><time>2026-03-22T11:55:12Z</time></trkpt><trkpt lat="43.1715416" lon="13.1181548"><ele>547.0</ele><time>2026-03-22T11:55:13.001Z</time></trkpt><trkpt lat="43.1716585" lon="13.1182576"><ele>547.0</ele><time>2026-03-22T11:55:14Z</time></trkpt><trkpt lat="43.1717715" lon="13.1183499"><ele>549.0</ele><time>2026-03-22T11:55:15.001Z</time></trkpt><trkpt lat="43.1718818" lon="13.1184369"><ele>551.0</ele><time>2026-03-22T11:55:16Z</time></trkpt><trkpt lat="43.1719871" lon="13.1185339"><ele>553.0</ele><time>2026-03-22T11:55:17.001Z</time></trkpt><trkpt lat="43.172085" lon="13.1186376"><ele>555.0</ele><time>2026-03-22T11:55:18.001Z</time></trkpt><trkpt lat="43.1721688" lon="13.1187491"><ele>555.0</ele><time>2026-03-22T11:55:19Z</time></trkpt><trkpt lat="43.1722506" lon="13.1188802"><ele>555.0</ele><time>2026-03-22T11:55:20Z</time></trkpt><trkpt lat="43.1723285" lon="13.1190192"><ele>555.0</ele><time>2026-03-22T11:55:21Z</time></trkpt><trkpt lat="43.1724081" lon="13.1191627"><ele>555.0</ele><time>2026-03-22T11:55:22Z</time></trkpt><trkpt lat="43.1724903" lon="13.1193036"><ele>556.4</ele><time>2026-03-22T11:55:23.001Z</time></trkpt><trkpt lat="43.1725727" lon="13.1194458"><ele>557.8</ele><time>2026-03-22T11:55:24Z</time></trkpt><trkpt lat="43.172642" lon="13.1195631"><ele>559.2</ele><time>2026-03-22T11:55:25Z</time></trkpt><trkpt lat="43.1727029" lon="13.1196584"><ele>560.6</ele><time>2026-03-22T11:55:27Z</time></trkpt><trkpt lat="43.1727229" lon="13.1197423"><ele>562.0</ele><time>2026-03-22T11:55:31Z</time></trkpt><trkpt lat="43.1727608" lon="13.1198255"><ele>565.0</ele><time>2026-03-22T11:55:36.001Z</time></trkpt><trkpt lat="43.1727987" lon="13.1199027"><ele>568.0</ele><time>2026-03-22T11:55:37Z</time></trkpt><trkpt lat="43.172829" lon="13.1199911"><ele>571.0</ele><time>2026-03-22T11:55:38Z</time></trkpt><trkpt lat="43.1728473" lon="13.1200741"><ele>574.0</ele><time>2026-03-22T11:55:39Z</time></trkpt><trkpt lat="43.172889" lon="13.1202157"><ele>577.0</ele><time>2026-03-22T11:55:41.001Z</time></trkpt><trkpt lat="43.1729089" lon="13.1203112"><ele>580.0</ele><time>2026-03-22T11:55:43Z</time></trkpt><trkpt lat="43.1729614" lon="13.1203944"><ele>580.0</ele><time>2026-03-22T11:56:23.001Z</time></trkpt><trkpt lat="43.1730219" lon="13.1204536"><ele>580.0</ele><time>2026-03-22T11:56:24.001Z</time></trkpt><trkpt lat="43.1730917" lon="13.1204944"><ele>580.0</ele><time>2026-03-22T11:56:25.001Z</time></trkpt><trkpt lat="43.1731739" lon="13.1205156"><ele>580.0</ele><time>2026-03-22T11:56:26.001Z</time></trkpt><trkpt lat="43.173266" lon="13.1205372"><ele>580.0</ele><time>2026-03-22T11:56:26.999Z</time></trkpt><trkpt lat="43.1733701" lon="13.1205607"><ele>580.0</ele><time>2026-03-22T11:56:28Z</time></trkpt><trkpt lat="43.1734884" lon="13.1205871"><ele>574.6666666666667</ele><time>2026-03-22T11:56:29.001Z</time></trkpt><trkpt lat="43.1736267" lon="13.1206141"><ele>569.3333333333334</ele><time>2026-03-22T11:56:29.999Z</time></trkpt><trkpt lat="43.1737827" lon="13.1206348"><ele>564.0</ele><time>2026-03-22T11:56:31.001Z</time></trkpt><trkpt lat="43.1739658" lon="13.1206425"><ele>567.0</ele><time>2026-03-22T11:56:32.001Z</time></trkpt><trkpt lat="43.1741366" lon="13.1206633"><ele>570.0</ele><time>2026-03-22T11:56:33Z</time></trkpt><trkpt lat="43.1742834" lon="13.1206914"><ele>573.0</ele><time>2026-03-22T11:56:34.001Z</time></trkpt><trkpt lat="43.1743942" lon="13.1206971"><ele>576.0</ele><time>2026-03-22T11:56:35.001Z</time></trkpt><trkpt lat="43.1744904" lon="13.1206715"><ele>576.0</ele><time>2026-03-22T11:56:36Z</time></trkpt><trkpt lat="43.1745751" lon="13.1206036"><ele>576.0</ele><time>2026-03-22T11:56:37.001Z</time></trkpt><trkpt lat="43.1746363" lon="13.120514"><ele>576.0</ele><time>2026-03-22T11:56:38.001Z</time></trkpt><trkpt lat="43.1746621" lon="13.1204132"><ele>576.0</ele><time>2026-03-22T11:56:39.001Z</time></trkpt><trkpt lat="43.1746488" lon="13.1203193"><ele>576.0</ele><time>2026-03-22T11:56:40Z</time></trkpt><trkpt lat="43.1746031" lon="13.120221"><ele>576.0</ele><time>2026-03-22T11:56:41.001Z</time></trkpt><trkpt lat="43.1745256" lon="13.1201253"><ele>576.0</ele><time>2026-03-22T11:56:42.001Z</time></trkpt><trkpt lat="43.1744249" lon="13.1200317"><ele>576.0</ele><time>2026-03-22T11:56:43.001Z</time></trkpt><trkpt lat="43.1743118" lon="13.1199352"><ele>576.0</ele><time>2026-03-22T11:56:44Z</time></trkpt><trkpt lat="43.1741887" lon="13.1198238"><ele>576.0</ele><time>2026-03-22T11:56:45Z</time></trkpt><trkpt lat="43.1740719" lon="13.1197116"><ele>574.25</ele><time>2026-03-22T11:56:46Z</time></trkpt><trkpt lat="43.1739556" lon="13.1195959"><ele>572.5</ele><time>2026-03-22T11:56:47.001Z</time></trkpt><trkpt lat="43.1738565" lon="13.1194621"><ele>570.75</ele><time>2026-03-22T11:56:48.001Z</time></trkpt><trkpt lat="43.1737661" lon="13.1193068"><ele>569.0</ele><time>2026-03-22T11:56:49Z</time></trkpt><trkpt lat="43.1736829" lon="13.1191273"><ele>575.3333333333333</ele><time>2026-03-22T11:56:50.001Z</time></trkpt><trkpt lat="43.173602" lon="13.1189407"><ele>581.6666666666666</ele><time>2026-03-22T11:56:51.001Z</time></trkpt><trkpt lat="43.1735231" lon="13.1187521"><ele>588.0</ele><time>2026-03-22T11:56:52.001Z</time></trkpt><trkpt lat="43.1734474" lon="13.1185574"><ele>588.0</ele><time>2026-03-22T11:56:53Z</time></trkpt><trkpt lat="43.1733751" lon="13.1183616"><ele>588.0</ele><time>2026-03-22T11:56:54Z</time></trkpt><trkpt lat="43.1733063" lon="13.1181752"><ele>588.0</ele><time>2026-03-22T11:56:55Z</time></trkpt><trkpt lat="43.1732432" lon="13.1180031"><ele>584.25</ele><time>2026-03-22T11:56:56.001Z</time></trkpt><trkpt lat="43.173187" lon="13.1178327"><ele>580.5</ele><time>2026-03-22T11:56:57.001Z</time></trkpt><trkpt lat="43.1731417" lon="13.1176595"><ele>576.75</ele><time>2026-03-22T11:56:58Z</time></trkpt><trkpt lat="43.1731139" lon="13.1174879"><ele>573.0</ele><time>2026-03-22T11:56:58.999Z</time></trkpt><trkpt lat="43.1731152" lon="13.1173214"><ele>573.0</ele><time>2026-03-22T11:57:00.001Z</time></trkpt><trkpt lat="43.1731411" lon="13.1171461"><ele>573.0</ele><time>2026-03-22T11:57:01Z</time></trkpt><trkpt lat="43.1731906" lon="13.1169675"><ele>573.0</ele><time>2026-03-22T11:57:02Z</time></trkpt><trkpt lat="43.1732575" lon="13.1167854"><ele>573.0</ele><time>2026-03-22T11:57:03.001Z</time></trkpt><trkpt lat="43.1733387" lon="13.1166045"><ele>583.6666666666666</ele><time>2026-03-22T11:57:04.001Z</time></trkpt><trkpt lat="43.1734317" lon="13.1164287"><ele>594.3333333333333</ele><time>2026-03-22T11:57:05Z</time></trkpt><trkpt lat="43.1735288" lon="13.1162582"><ele>605.0</ele><time>2026-03-22T11:57:06.001Z</time></trkpt><trkpt lat="43.1736227" lon="13.1161"><ele>605.0</ele><time>2026-03-22T11:57:07Z</time></trkpt><trkpt lat="43.1737046" lon="13.1159641"><ele>605.0</ele><time>2026-03-22T11:57:08Z</time></trkpt><trkpt lat="43.1737647" lon="13.1158413"><ele>605.0</ele><time>2026-03-22T11:57:09Z</time></trkpt><trkpt lat="43.1737945" lon="13.1157142"><ele>605.0</ele><time>2026-03-22T11:57:10.001Z</time></trkpt><trkpt lat="43.1737916" lon="13.1155868"><ele>605.0</ele><time>2026-03-22T11:57:11.001Z</time></trkpt><trkpt lat="43.1737539" lon="13.1154813"><ele>613.0</ele><time>2026-03-22T11:57:12Z</time></trkpt><trkpt lat="43.17369" lon="13.1154177"><ele>621.0</ele><time>2026-03-22T11:57:13.001Z</time></trkpt><trkpt lat="43.1735951" lon="13.115383"><ele>629.0</ele><time>2026-03-22T11:57:14Z</time></trkpt><trkpt lat="43.173471" lon="13.1153858"><ele>637.0</ele><time>2026-03-22T11:57:15Z</time></trkpt><trkpt lat="43.1733177" lon="13.1154268"><ele>639.0</ele><time>2026-03-22T11:57:16Z</time></trkpt><trkpt lat="43.17316" lon="13.1154913"><ele>641.0</ele><time>2026-03-22T11:57:17.001Z</time></trkpt><trkpt lat="43.1729961" lon="13.1155724"><ele>643.0</ele><time>2026-03-22T11:57:18Z</time></trkpt><trkpt lat="43.17284" lon="13.1156465"><ele>643.0</ele><time>2026-03-22T11:57:19Z</time></trkpt><trkpt lat="43.1726997" lon="13.1156893"><ele>643.0</ele><time>2026-03-22T11:57:20.001Z</time></trkpt><trkpt lat="43.1725819" lon="13.1156964"><ele>643.0</ele><time>2026-03-22T11:57:21.001Z</time></trkpt><trkpt lat="43.1724724" lon="13.1156623"><ele>643.0</ele><time>2026-03-22T11:57:22Z</time></trkpt><trkpt lat="43.1723679" lon="13.1155843"><ele>633.3333333333334</ele><time>2026-03-22T11:57:23Z</time></trkpt><trkpt lat="43.1722593" lon="13.1154609"><ele>623.6666666666666</ele><time>2026-03-22T11:57:24Z</time></trkpt><trkpt lat="43.1721403" lon="13.1153252"><ele>614.0</ele><time>2026-03-22T11:57:25.001Z</time></trkpt><trkpt lat="43.1720189" lon="13.1151953"><ele>614.0</ele><time>2026-03-22T11:57:26Z</time></trkpt><trkpt lat="43.1719161" lon="13.115061"><ele>614.0</ele><time>2026-03-22T11:57:27Z</time></trkpt><trkpt lat="43.1718303" lon="13.1149218"><ele>614.0</ele><time>2026-03-22T11:57:28.001Z</time></trkpt><trkpt lat="43.1717627" lon="13.1147665"><ele>614.0</ele><time>2026-03-22T11:57:29.001Z</time></trkpt><trkpt lat="43.1717117" lon="13.1145982"><ele>618.25</ele><time>2026-03-22T11:57:30Z</time></trkpt><trkpt lat="43.1716667" lon="13.1144332"><ele>622.5</ele><time>2026-03-22T11:57:31Z</time></trkpt><trkpt lat="43.1716173" lon="13.1142868"><ele>626.75</ele><time>2026-03-22T11:57:31.999Z</time></trkpt><trkpt lat="43.1715442" lon="13.1141799"><ele>631.0</ele><time>2026-03-22T11:57:33.001Z</time></trkpt><trkpt lat="43.1714543" lon="13.11411"><ele>631.0</ele><time>2026-03-22T11:57:34Z</time></trkpt><trkpt lat="43.1713619" lon="13.1140846"><ele>631.0</ele><time>2026-03-22T11:57:35.001Z</time></trkpt><trkpt lat="43.1712523" lon="13.1140984"><ele>631.0</ele><time>2026-03-22T11:57:36Z</time></trkpt><trkpt lat="43.1711347" lon="13.1141374"><ele>631.0</ele><time>2026-03-22T11:57:37Z</time></trkpt><trkpt lat="43.1710298" lon="13.1141467"><ele>631.0</ele><time>2026-03-22T11:57:38.001Z</time></trkpt><trkpt lat="43.1709198" lon="13.1141152"><ele>634.0</ele><time>2026-03-22T11:57:39Z</time></trkpt><trkpt lat="43.1708069" lon="13.1140364"><ele>637.0</ele><time>2026-03-22T11:57:40Z</time></trkpt><trkpt lat="43.1707019" lon="13.113928"><ele>640.0</ele><time>2026-03-22T11:57:41Z</time></trkpt><trkpt lat="43.170577" lon="13.1138427"><ele>643.0</ele><time>2026-03-22T11:57:42.001Z</time></trkpt><trkpt lat="43.170433" lon="13.1137729"><ele>643.0</ele><time>2026-03-22T11:57:43.001Z</time></trkpt><trkpt lat="43.1702944" lon="13.1137122"><ele>643.0</ele><time>2026-03-22T11:57:44Z</time></trkpt><trkpt lat="43.1701777" lon="13.113635"><ele>643.0</ele><time>2026-03-22T11:57:45.001Z</time></trkpt><trkpt lat="43.1700856" lon="13.1135356"><ele>643.0</ele><time>2026-03-22T11:57:46.001Z</time></trkpt><trkpt lat="43.1700153" lon="13.1134077"><ele>647.0</ele><time>2026-03-22T11:57:47Z</time></trkpt><trkpt lat="43.169954" lon="13.1132372"><ele>651.0</ele><time>2026-03-22T11:57:48Z</time></trkpt><trkpt lat="43.1698912" lon="13.1130656"><ele>655.0</ele><time>2026-03-22T11:57:49Z</time></trkpt><trkpt lat="43.1698041" lon="13.1129274"><ele>659.0</ele><time>2026-03-22T11:57:50.001Z</time></trkpt><trkpt lat="43.1696966" lon="13.1128182"><ele>659.0</ele><time>2026-03-22T11:57:51Z</time></trkpt><trkpt lat="43.1695845" lon="13.1127498"><ele>659.0</ele><time>2026-03-22T11:57:52Z</time></trkpt><trkpt lat="43.1694654" lon="13.1127102"><ele>659.0</ele><time>2026-03-22T11:57:53Z</time></trkpt><trkpt lat="43.1693421" lon="13.1126943"><ele>659.0</ele><time>2026-03-22T11:57:54.001Z</time></trkpt><trkpt lat="43.1692084" lon="13.1127097"><ele>659.0</ele><time>2026-03-22T11:57:55.001Z</time></trkpt><trkpt lat="43.1690771" lon="13.1127495"><ele>659.0</ele><time>2026-03-22T11:57:55.999Z</time></trkpt><trkpt lat="43.1689565" lon="13.1128013"><ele>659.0</ele><time>2026-03-22T11:57:57Z</time></trkpt><trkpt lat="43.1688542" lon="13.1128585"><ele>659.0</ele><time>2026-03-22T11:57:58.001Z</time></trkpt><trkpt lat="43.1687666" lon="13.1128921"><ele>659.0</ele><time>2026-03-22T11:57:59Z</time></trkpt><trkpt lat="43.1687001" lon="13.1128993"><ele>659.0</ele><time>2026-03-22T11:58:00.001Z</time></trkpt><trkpt lat="43.1686369" lon="13.1128962"><ele>659.0</ele><time>2026-03-22T11:58:01.001Z</time></trkpt><trkpt lat="43.1685658" lon="13.112888"><ele>659.0</ele><time>2026-03-22T11:58:02.001Z</time></trkpt><trkpt lat="43.1684953" lon="13.1128761"><ele>659.0</ele><time>2026-03-22T11:58:03.001Z</time></trkpt><trkpt lat="43.1684259" lon="13.1128626"><ele>659.0</ele><time>2026-03-22T11:58:04.001Z</time></trkpt><trkpt lat="43.1683612" lon="13.1128446"><ele>659.0</ele><time>2026-03-22T11:58:05Z</time></trkpt><trkpt lat="43.168299" lon="13.1128232"><ele>659.0</ele><time>2026-03-22T11:58:06.001Z</time></trkpt><trkpt lat="43.1682357" lon="13.1127983"><ele>659.0</ele><time>2026-03-22T11:58:06.999Z</time></trkpt><trkpt lat="43.1681683" lon="13.112762"><ele>659.0</ele><time>2026-03-22T11:58:08.001Z</time></trkpt><trkpt lat="43.1681042" lon="13.1127184"><ele>659.0</ele><time>2026-03-22T11:58:09.001Z</time></trkpt><trkpt lat="43.1680395" lon="13.1126743"><ele>659.0</ele><time>2026-03-22T11:58:10Z</time></trkpt><trkpt lat="43.1679408" lon="13.1125926"><ele>659.0</ele><time>2026-03-22T11:58:12.001Z</time></trkpt><trkpt lat="43.1678856" lon="13.1125106"><ele>655.5</ele><time>2026-03-22T11:58:14.001Z</time></trkpt><trkpt lat="43.167856" lon="13.1123778"><ele>652.0</ele><time>2026-03-22T11:58:16.001Z</time></trkpt><trkpt lat="43.1678784" lon="13.1122491"><ele>648.5</ele><time>2026-03-22T11:58:18Z</time></trkpt><trkpt lat="43.167947" lon="13.1121409"><ele>645.0</ele><time>2026-03-22T11:58:20Z</time></trkpt><trkpt lat="43.1680035" lon="13.1120872"><ele>641.5</ele><time>2026-03-22T11:58:21.001Z</time></trkpt><trkpt lat="43.1680724" lon="13.1120486"><ele>638.0</ele><time>2026-03-22T11:58:22Z</time></trkpt><trkpt lat="43.1681536" lon="13.1120252"><ele>640.3333333333333</ele><time>2026-03-22T11:58:23.001Z</time></trkpt><trkpt lat="43.1682426" lon="13.1120133"><ele>642.6666666666666</ele><time>2026-03-22T11:58:24.001Z</time></trkpt><trkpt lat="43.1683326" lon="13.1120052"><ele>645.0</ele><time>2026-03-22T11:58:25.001Z</time></trkpt><trkpt lat="43.1684041" lon="13.1119977"><ele>647.3333333333334</ele><time>2026-03-22T11:58:26Z</time></trkpt><trkpt lat="43.168467" lon="13.1119892"><ele>649.6666666666667</ele><time>2026-03-22T11:58:26.999Z</time></trkpt><trkpt lat="43.1685319" lon="13.1119856"><ele>652.0</ele><time>2026-03-22T11:58:28.001Z</time></trkpt><trkpt lat="43.1686588" lon="13.1119729"><ele>652.0</ele><time>2026-03-22T11:58:30Z</time></trkpt><trkpt lat="43.1687267" lon="13.1119513"><ele>652.0</ele><time>2026-03-22T11:58:31Z</time></trkpt><trkpt lat="43.1687916" lon="13.1119099"><ele>652.0</ele><time>2026-03-22T11:58:32.001Z</time></trkpt><trkpt lat="43.1688424" lon="13.1118342"><ele>652.0</ele><time>2026-03-22T11:58:33Z</time></trkpt><trkpt lat="43.1688787" lon="13.111727"><ele>652.0</ele><time>2026-03-22T11:58:34.001Z</time></trkpt><trkpt lat="43.1689025" lon="13.111597"><ele>652.0</ele><time>2026-03-22T11:58:35.001Z</time></trkpt><trkpt lat="43.1689224" lon="13.1114649"><ele>650.2</ele><time>2026-03-22T11:58:36.001Z</time></trkpt><trkpt lat="43.1689426" lon="13.1113318"><ele>648.4000000000001</ele><time>2026-03-22T11:58:37Z</time></trkpt><trkpt lat="43.1689624" lon="13.1112049"><ele>646.5999999999999</ele><time>2026-03-22T11:58:38.001Z</time></trkpt><trkpt lat="43.16898" lon="13.1110824"><ele>644.8</ele><time>2026-03-22T11:58:39.001Z</time></trkpt><trkpt lat="43.1689989" lon="13.1109661"><ele>643.0</ele><time>2026-03-22T11:58:40Z</time></trkpt><trkpt lat="43.169019" lon="13.1108597"><ele>644.0</ele><time>2026-03-22T11:58:41.001Z</time></trkpt><trkpt lat="43.1690383" lon="13.1107674"><ele>645.0</ele><time>2026-03-22T11:58:42Z</time></trkpt><trkpt lat="43.1690607" lon="13.1106178"><ele>646.0</ele><time>2026-03-22T11:58:44Z</time></trkpt><trkpt lat="43.1690436" lon="13.1105232"><ele>647.0</ele><time>2026-03-22T11:58:46.001Z</time></trkpt><trkpt lat="43.1689528" lon="13.1104346"><ele>648.0</ele><time>2026-03-22T11:58:48.001Z</time></trkpt><trkpt lat="43.1688583" lon="13.1103807"><ele>648.0</ele><time>2026-03-22T11:58:49.001Z</time></trkpt><trkpt lat="43.1687476" lon="13.1103194"><ele>648.0</ele><time>2026-03-22T11:58:50Z</time></trkpt><trkpt lat="43.1686277" lon="13.1102552"><ele>648.0</ele><time>2026-03-22T11:58:50.999Z</time></trkpt><trkpt lat="43.1684934" lon="13.1101868"><ele>648.0</ele><time>2026-03-22T11:58:52Z</time></trkpt><trkpt lat="43.1683531" lon="13.1101122"><ele>648.0</ele><time>2026-03-22T11:58:53Z</time></trkpt><trkpt lat="43.1682088" lon="13.1100276"><ele>648.0</ele><time>2026-03-22T11:58:53.999Z</time></trkpt><trkpt lat="43.1680623" lon="13.1099357"><ele>648.0</ele><time>2026-03-22T11:58:55.001Z</time></trkpt><trkpt lat="43.167924" lon="13.1098418"><ele>644.75</ele><time>2026-03-22T11:58:56.001Z</time></trkpt><trkpt lat="43.1677924" lon="13.1097431"><ele>641.5</ele><time>2026-03-22T11:58:57.001Z</time></trkpt><trkpt lat="43.1676654" lon="13.1096406"><ele>638.25</ele><time>2026-03-22T11:58:58.001Z</time></trkpt><trkpt lat="43.1675461" lon="13.1095383"><ele>635.0</ele><time>2026-03-22T11:58:59.001Z</time></trkpt><trkpt lat="43.1674344" lon="13.1094424"><ele>636.0</ele><time>2026-03-22T11:59:00Z</time></trkpt><trkpt lat="43.1673262" lon="13.1093506"><ele>637.0</ele><time>2026-03-22T11:59:01.001Z</time></trkpt><trkpt lat="43.1672235" lon="13.1092602"><ele>638.0</ele><time>2026-03-22T11:59:02Z</time></trkpt><trkpt lat="43.167122" lon="13.1091663"><ele>639.0</ele><time>2026-03-22T11:59:03Z</time></trkpt><trkpt lat="43.1670229" lon="13.1090614"><ele>640.25</ele><time>2026-03-22T11:59:04.001Z</time></trkpt><trkpt lat="43.166931" lon="13.1089389"><ele>641.5</ele><time>2026-03-22T11:59:05.001Z</time></trkpt><trkpt lat="43.1668461" lon="13.1088035"><ele>642.75</ele><time>2026-03-22T11:59:06.001Z</time></trkpt><trkpt lat="43.1667668" lon="13.1086552"><ele>644.0</ele><time>2026-03-22T11:59:07Z</time></trkpt><trkpt lat="43.166701" lon="13.1085045"><ele>644.0</ele><time>2026-03-22T11:59:07.999Z</time></trkpt><trkpt lat="43.1666509" lon="13.1083581"><ele>644.0</ele><time>2026-03-22T11:59:09.001Z</time></trkpt><trkpt lat="43.1666159" lon="13.1082143"><ele>644.0</ele><time>2026-03-22T11:59:10.001Z</time></trkpt><trkpt lat="43.1665824" lon="13.1080795"><ele>644.0</ele><time>2026-03-22T11:59:11Z</time></trkpt><trkpt lat="43.1665503" lon="13.1079536"><ele>644.0</ele><time>2026-03-22T11:59:12.001Z</time></trkpt><trkpt lat="43.1665224" lon="13.1078391"><ele>645.1666666666666</ele><time>2026-03-22T11:59:13Z</time></trkpt><trkpt lat="43.1664917" lon="13.1077429"><ele>646.3333333333333</ele><time>2026-03-22T11:59:14.001Z</time></trkpt><trkpt lat="43.1664609" lon="13.1076574"><ele>647.5</ele><time>2026-03-22T11:59:15Z</time></trkpt><trkpt lat="43.1664119" lon="13.1075311"><ele>648.6666666666666</ele><time>2026-03-22T11:59:17.001Z</time></trkpt><trkpt lat="43.1664571" lon="13.1074486"><ele>649.8333333333334</ele><time>2026-03-22T11:59:20.001Z</time></trkpt><trkpt lat="43.1665378" lon="13.1075363"><ele>651.0</ele><time>2026-03-22T11:59:22Z</time></trkpt><trkpt lat="43.1665781" lon="13.1076534"><ele>649.25</ele><time>2026-03-22T11:59:23.001Z</time></trkpt><trkpt lat="43.166613" lon="13.1077968"><ele>647.5</ele><time>2026-03-22T11:59:24.001Z</time></trkpt><trkpt lat="43.1666494" lon="13.1079514"><ele>645.75</ele><time>2026-03-22T11:59:25.001Z</time></trkpt><trkpt lat="43.1667056" lon="13.1081079"><ele>644.0</ele><time>2026-03-22T11:59:26.001Z</time></trkpt><trkpt lat="43.1667777" lon="13.1082538"><ele>644.0</ele><time>2026-03-22T11:59:27.001Z</time></trkpt><trkpt lat="43.16686" lon="13.1083778"><ele>644.0</ele><time>2026-03-22T11:59:28Z</time></trkpt><trkpt lat="43.1669532" lon="13.1084819"><ele>644.0</ele><time>2026-03-22T11:59:29Z</time></trkpt><trkpt lat="43.1670498" lon="13.1085697"><ele>644.0</ele><time>2026-03-22T11:59:30Z</time></trkpt><trkpt lat="43.1671476" lon="13.1086445"><ele>644.0</ele><time>2026-03-22T11:59:31Z</time></trkpt><trkpt lat="43.1672472" lon="13.108707"><ele>644.0</ele><time>2026-03-22T11:59:32.001Z</time></trkpt><trkpt lat="43.167358" lon="13.1087323"><ele>644.0</ele><time>2026-03-22T11:59:33.001Z</time></trkpt><trkpt lat="43.167477" lon="13.1087276"><ele>644.0</ele><time>2026-03-22T11:59:34Z</time></trkpt><trkpt lat="43.1676064" lon="13.1086916"><ele>640.0</ele><time>2026-03-22T11:59:35.001Z</time></trkpt><trkpt lat="43.1677428" lon="13.1086394"><ele>636.0</ele><time>2026-03-22T11:59:36.001Z</time></trkpt><trkpt lat="43.1678826" lon="13.1085809"><ele>632.0</ele><time>2026-03-22T11:59:36.999Z</time></trkpt><trkpt lat="43.1680136" lon="13.1085247"><ele>628.0</ele><time>2026-03-22T11:59:38Z</time></trkpt><trkpt lat="43.1681454" lon="13.1084779"><ele>628.0</ele><time>2026-03-22T11:59:39Z</time></trkpt><trkpt lat="43.1682843" lon="13.108444"><ele>628.0</ele><time>2026-03-22T11:59:40Z</time></trkpt><trkpt lat="43.1684278" lon="13.1084279"><ele>628.0</ele><time>2026-03-22T11:59:41.001Z</time></trkpt><trkpt lat="43.1685785" lon="13.1084327"><ele>628.0</ele><time>2026-03-22T11:59:42Z</time></trkpt><trkpt lat="43.1687393" lon="13.1084657"><ele>628.0</ele><time>2026-03-22T11:59:43.001Z</time></trkpt><trkpt lat="43.1688986" lon="13.1085311"><ele>628.0</ele><time>2026-03-22T11:59:44.001Z</time></trkpt><trkpt lat="43.1690564" lon="13.108609"><ele>628.0</ele><time>2026-03-22T11:59:45.001Z</time></trkpt><trkpt lat="43.1692068" lon="13.1086791"><ele>626.0</ele><time>2026-03-22T11:59:46.001Z</time></trkpt><trkpt lat="43.1693551" lon="13.108729"><ele>624.0</ele><time>2026-03-22T11:59:47Z</time></trkpt><trkpt lat="43.1695074" lon="13.1087533"><ele>622.0</ele><time>2026-03-22T11:59:48.001Z</time></trkpt><trkpt lat="43.1696664" lon="13.1087426"><ele>622.0</ele><time>2026-03-22T11:59:49.001Z</time></trkpt><trkpt lat="43.169832" lon="13.1087029"><ele>622.0</ele><time>2026-03-22T11:59:50.001Z</time></trkpt><trkpt lat="43.1699952" lon="13.1086464"><ele>622.0</ele><time>2026-03-22T11:59:51.001Z</time></trkpt><trkpt lat="43.1701581" lon="13.1085723"><ele>621.3333333333334</ele><time>2026-03-22T11:59:52.001Z</time></trkpt><trkpt lat="43.1703163" lon="13.1084791"><ele>620.6666666666666</ele><time>2026-03-22T11:59:53.001Z</time></trkpt><trkpt lat="43.170465" lon="13.1083736"><ele>620.0</ele><time>2026-03-22T11:59:54Z</time></trkpt><trkpt lat="43.1706094" lon="13.1082576"><ele>616.3333333333333</ele><time>2026-03-22T11:59:55Z</time></trkpt><trkpt lat="43.1707556" lon="13.1081561"><ele>612.6666666666666</ele><time>2026-03-22T11:59:56.001Z</time></trkpt><trkpt lat="43.1708989" lon="13.1081101"><ele>609.0</ele><time>2026-03-22T11:59:57.001Z</time></trkpt><trkpt lat="43.1710553" lon="13.1081167"><ele>609.0</ele><time>2026-03-22T11:59:58.001Z</time></trkpt><trkpt lat="43.171207" lon="13.1081714"><ele>609.0</ele><time>2026-03-22T11:59:59.001Z</time></trkpt><trkpt lat="43.1713581" lon="13.1082211"><ele>609.0</ele><time>2026-03-22T12:00:00Z</time></trkpt><trkpt lat="43.1715307" lon="13.1082345"><ele>607.0</ele><time>2026-03-22T12:00:01.001Z</time></trkpt><trkpt lat="43.1717112" lon="13.1082266"><ele>605.0</ele><time>2026-03-22T12:00:02.001Z</time></trkpt><trkpt lat="43.1718943" lon="13.108202"><ele>603.0</ele><time>2026-03-22T12:00:03Z</time></trkpt><trkpt lat="43.1720546" lon="13.1081562"><ele>603.0</ele><time>2026-03-22T12:00:04.001Z</time></trkpt><trkpt lat="43.1721916" lon="13.1080924"><ele>603.0</ele><time>2026-03-22T12:00:05Z</time></trkpt><trkpt lat="43.1722911" lon="13.1080151"><ele>603.0</ele><time>2026-03-22T12:00:06.001Z</time></trkpt><trkpt lat="43.1723545" lon="13.107914"><ele>603.0</ele><time>2026-03-22T12:00:07.001Z</time></trkpt><trkpt lat="43.1723804" lon="13.1077879"><ele>603.0</ele><time>2026-03-22T12:00:08.001Z</time></trkpt><trkpt lat="43.1723669" lon="13.1076441"><ele>603.0</ele><time>2026-03-22T12:00:09Z</time></trkpt><trkpt lat="43.1723251" lon="13.1074731"><ele>603.0</ele><time>2026-03-22T12:00:10Z</time></trkpt><trkpt lat="43.1722885" lon="13.1073187"><ele>603.0</ele><time>2026-03-22T12:00:11Z</time></trkpt><trkpt lat="43.1722785" lon="13.1071834"><ele>600.0</ele><time>2026-03-22T12:00:12Z</time></trkpt><trkpt lat="43.1723032" lon="13.1070728"><ele>597.0</ele><time>2026-03-22T12:00:13Z</time></trkpt><trkpt lat="43.1723629" lon="13.1070042"><ele>594.0</ele><time>2026-03-22T12:00:14.001Z</time></trkpt><trkpt lat="43.1724549" lon="13.1069688"><ele>591.0</ele><time>2026-03-22T12:00:15Z</time></trkpt><trkpt lat="43.1725732" lon="13.1069898"><ele>588.0</ele><time>2026-03-22T12:00:16Z</time></trkpt><trkpt lat="43.1727088" lon="13.1070653"><ele>588.0</ele><time>2026-03-22T12:00:17Z</time></trkpt><trkpt lat="43.1728611" lon="13.1071636"><ele>588.0</ele><time>2026-03-22T12:00:18.001Z</time></trkpt><trkpt lat="43.1730163" lon="13.1072365"><ele>588.0</ele><time>2026-03-22T12:00:18.999Z</time></trkpt><trkpt lat="43.1731756" lon="13.1072544"><ele>588.0</ele><time>2026-03-22T12:00:20Z</time></trkpt><trkpt lat="43.173339" lon="13.1072139"><ele>588.0</ele><time>2026-03-22T12:00:21Z</time></trkpt><trkpt lat="43.1734893" lon="13.1071318"><ele>588.0</ele><time>2026-03-22T12:00:22Z</time></trkpt><trkpt lat="43.1736119" lon="13.1070322"><ele>588.0</ele><time>2026-03-22T12:00:23.001Z</time></trkpt><trkpt lat="43.1737051" lon="13.106885"><ele>588.0</ele><time>2026-03-22T12:00:24Z</time></trkpt><trkpt lat="43.1737699" lon="13.1067126"><ele>588.0</ele><time>2026-03-22T12:00:25Z</time></trkpt><trkpt lat="43.1738254" lon="13.1065661"><ele>588.0</ele><time>2026-03-22T12:00:26.001Z</time></trkpt><trkpt lat="43.1738935" lon="13.1064389"><ele>588.25</ele><time>2026-03-22T12:00:27.001Z</time></trkpt><trkpt lat="43.1739847" lon="13.1063406"><ele>588.5</ele><time>2026-03-22T12:00:28.001Z</time></trkpt><trkpt lat="43.1741053" lon="13.1062888"><ele>588.75</ele><time>2026-03-22T12:00:28.999Z</time></trkpt><trkpt lat="43.1742433" lon="13.1062848"><ele>589.0</ele><time>2026-03-22T12:00:30Z</time></trkpt><trkpt lat="43.174378" lon="13.1063326"><ele>589.0</ele><time>2026-03-22T12:00:31.001Z</time></trkpt><trkpt lat="43.1745079" lon="13.1064185"><ele>589.0</ele><time>2026-03-22T12:00:32.001Z</time></trkpt><trkpt lat="43.1746318" lon="13.1065163"><ele>589.0</ele><time>2026-03-22T12:00:32.999Z</time></trkpt><trkpt lat="43.1747558" lon="13.1066155"><ele>589.0</ele><time>2026-03-22T12:00:34Z</time></trkpt><trkpt lat="43.1748816" lon="13.1067129"><ele>586.75</ele><time>2026-03-22T12:00:35.001Z</time></trkpt><trkpt lat="43.175007" lon="13.1067957"><ele>584.5</ele><time>2026-03-22T12:00:36.001Z</time></trkpt><trkpt lat="43.1751355" lon="13.1068528"><ele>582.25</ele><time>2026-03-22T12:00:37.001Z</time></trkpt><trkpt lat="43.1752507" lon="13.1068856"><ele>580.0</ele><time>2026-03-22T12:00:38Z</time></trkpt><trkpt lat="43.1753475" lon="13.1069065"><ele>580.0</ele><time>2026-03-22T12:00:39Z</time></trkpt><trkpt lat="43.1754462" lon="13.1069255"><ele>580.0</ele><time>2026-03-22T12:00:40.001Z</time></trkpt><trkpt lat="43.1755448" lon="13.1069416"><ele>580.0</ele><time>2026-03-22T12:00:41.001Z</time></trkpt><trkpt lat="43.1756478" lon="13.1069591"><ele>580.0</ele><time>2026-03-22T12:00:42Z</time></trkpt><trkpt lat="43.1757543" lon="13.1069758"><ele>580.0</ele><time>2026-03-22T12:00:43Z</time></trkpt><trkpt lat="43.1758607" lon="13.1069911"><ele>578.25</ele><time>2026-03-22T12:00:44Z</time></trkpt><trkpt lat="43.175971" lon="13.1070045"><ele>576.5</ele><time>2026-03-22T12:00:45Z</time></trkpt><trkpt lat="43.1760883" lon="13.1070192"><ele>574.75</ele><time>2026-03-22T12:00:46.001Z</time></trkpt><trkpt lat="43.1762084" lon="13.1070395"><ele>573.0</ele><time>2026-03-22T12:00:47.001Z</time></trkpt><trkpt lat="43.1763293" lon="13.1070612"><ele>573.0</ele><time>2026-03-22T12:00:48Z</time></trkpt><trkpt lat="43.1764522" lon="13.1070736"><ele>573.0</ele><time>2026-03-22T12:00:49.001Z</time></trkpt><trkpt lat="43.1765808" lon="13.1070779"><ele>573.0</ele><time>2026-03-22T12:00:50.001Z</time></trkpt><trkpt lat="43.1767102" lon="13.1070663"><ele>573.0</ele><time>2026-03-22T12:00:51.001Z</time></trkpt><trkpt lat="43.1768418" lon="13.1070419"><ele>571.0</ele><time>2026-03-22T12:00:52.001Z</time></trkpt><trkpt lat="43.1769733" lon="13.1070171"><ele>569.0</ele><time>2026-03-22T12:00:53Z</time></trkpt><trkpt lat="43.1771165" lon="13.1069962"><ele>567.0</ele><time>2026-03-22T12:00:54Z</time></trkpt><trkpt lat="43.1772617" lon="13.1069809"><ele>565.0</ele><time>2026-03-22T12:00:55.001Z</time></trkpt><trkpt lat="43.1774093" lon="13.1069629"><ele>564.0</ele><time>2026-03-22T12:00:56.001Z</time></trkpt><trkpt lat="43.1775606" lon="13.1069395"><ele>563.0</ele><time>2026-03-22T12:00:57.001Z</time></trkpt><trkpt lat="43.1777125" lon="13.106916"><ele>562.0</ele><time>2026-03-22T12:00:58Z</time></trkpt><trkpt lat="43.1778676" lon="13.1068929"><ele>562.0</ele><time>2026-03-22T12:00:59.001Z</time></trkpt><trkpt lat="43.1780231" lon="13.1068621"><ele>562.0</ele><time>2026-03-22T12:01:00Z</time></trkpt><trkpt lat="43.1781749" lon="13.1068284"><ele>562.0</ele><time>2026-03-22T12:01:01.001Z</time></trkpt><trkpt lat="43.1783241" lon="13.1067934"><ele>560.25</ele><time>2026-03-22T12:01:02Z</time></trkpt><trkpt lat="43.1784703" lon="13.106761"><ele>558.5</ele><time>2026-03-22T12:01:03Z</time></trkpt><trkpt lat="43.178615" lon="13.1067327"><ele>556.75</ele><time>2026-03-22T12:01:04.001Z</time></trkpt><trkpt lat="43.1787574" lon="13.1067132"><ele>555.0</ele><time>2026-03-22T12:01:05.001Z</time></trkpt><trkpt lat="43.1788979" lon="13.1067065"><ele>553.5</ele><time>2026-03-22T12:01:06.001Z</time></trkpt><trkpt lat="43.1790362" lon="13.1067134"><ele>552.0</ele><time>2026-03-22T12:01:07Z</time></trkpt><trkpt lat="43.1791713" lon="13.1067297"><ele>550.5</ele><time>2026-03-22T12:01:08.001Z</time></trkpt><trkpt lat="43.1793128" lon="13.106741"><ele>549.0</ele><time>2026-03-22T12:01:09Z</time></trkpt><trkpt lat="43.1794597" lon="13.1067593"><ele>549.0</ele><time>2026-03-22T12:01:10Z</time></trkpt><trkpt lat="43.1796098" lon="13.1067804"><ele>549.0</ele><time>2026-03-22T12:01:11.001Z</time></trkpt><trkpt lat="43.1797602" lon="13.1068057"><ele>549.0</ele><time>2026-03-22T12:01:12Z</time></trkpt><trkpt lat="43.1799088" lon="13.1068443"><ele>547.25</ele><time>2026-03-22T12:01:13.001Z</time></trkpt><trkpt lat="43.1800535" lon="13.1068988"><ele>545.5</ele><time>2026-03-22T12:01:14.001Z</time></trkpt><trkpt lat="43.180192" lon="13.1069626"><ele>543.75</ele><time>2026-03-22T12:01:15Z</time></trkpt><trkpt lat="43.1803225" lon="13.107029"><ele>542.0</ele><time>2026-03-22T12:01:16.001Z</time></trkpt><trkpt lat="43.1804467" lon="13.1070725"><ele>542.0</ele><time>2026-03-22T12:01:17.001Z</time></trkpt><trkpt lat="43.1805703" lon="13.1070802"><ele>542.0</ele><time>2026-03-22T12:01:18Z</time></trkpt><trkpt lat="43.1806955" lon="13.1070362"><ele>542.0</ele><time>2026-03-22T12:01:19Z</time></trkpt><trkpt lat="43.1808185" lon="13.106945"><ele>542.0</ele><time>2026-03-22T12:01:20.001Z</time></trkpt><trkpt lat="43.1809331" lon="13.1068187"><ele>541.6666666666666</ele><time>2026-03-22T12:01:21Z</time></trkpt><trkpt lat="43.181043" lon="13.1066769"><ele>541.3333333333334</ele><time>2026-03-22T12:01:22.001Z</time></trkpt><trkpt lat="43.1811503" lon="13.1065397"><ele>541.0</ele><time>2026-03-22T12:01:23Z</time></trkpt><trkpt lat="43.1812675" lon="13.1064042"><ele>538.6666666666667</ele><time>2026-03-22T12:01:24Z</time></trkpt><trkpt lat="43.1813999" lon="13.1062697"><ele>536.3333333333334</ele><time>2026-03-22T12:01:25.001Z</time></trkpt><trkpt lat="43.1815432" lon="13.1061427"><ele>534.0</ele><time>2026-03-22T12:01:26Z</time></trkpt><trkpt lat="43.1816925" lon="13.1060188"><ele>534.0</ele><time>2026-03-22T12:01:27.001Z</time></trkpt><trkpt lat="43.1818406" lon="13.1058988"><ele>534.0</ele><time>2026-03-22T12:01:28Z</time></trkpt><trkpt lat="43.1819821" lon="13.1057855"><ele>534.0</ele><time>2026-03-22T12:01:29Z</time></trkpt><trkpt lat="43.1821183" lon="13.1056774"><ele>532.25</ele><time>2026-03-22T12:01:30Z</time></trkpt><trkpt lat="43.1822506" lon="13.1055883"><ele>530.5</ele><time>2026-03-22T12:01:31.001Z</time></trkpt><trkpt lat="43.1823845" lon="13.1055202"><ele>528.75</ele><time>2026-03-22T12:01:32.001Z</time></trkpt><trkpt lat="43.1825311" lon="13.1054769"><ele>527.0</ele><time>2026-03-22T12:01:33.001Z</time></trkpt><trkpt lat="43.1826889" lon="13.1054508"><ele>527.0</ele><time>2026-03-22T12:01:34.001Z</time></trkpt><trkpt lat="43.182855" lon="13.1054318"><ele>527.0</ele><time>2026-03-22T12:01:34.999Z</time></trkpt><trkpt lat="43.1830274" lon="13.1054157"><ele>527.0</ele><time>2026-03-22T12:01:36Z</time></trkpt><trkpt lat="43.1832022" lon="13.1053949"><ele>529.3333333333333</ele><time>2026-03-22T12:01:37Z</time></trkpt><trkpt lat="43.1833748" lon="13.1053736"><ele>531.6666666666666</ele><time>2026-03-22T12:01:38.001Z</time></trkpt><trkpt lat="43.1835423" lon="13.105359"><ele>534.0</ele><time>2026-03-22T12:01:39.001Z</time></trkpt><trkpt lat="43.1836998" lon="13.1053509"><ele>534.0</ele><time>2026-03-22T12:01:40.001Z</time></trkpt><trkpt lat="43.1838522" lon="13.1053498"><ele>534.0</ele><time>2026-03-22T12:01:41Z</time></trkpt><trkpt lat="43.184008" lon="13.1053718"><ele>534.0</ele><time>2026-03-22T12:01:42Z</time></trkpt><trkpt lat="43.1841661" lon="13.1054271"><ele>534.6666666666666</ele><time>2026-03-22T12:01:43.001Z</time></trkpt><trkpt lat="43.1843266" lon="13.1055058"><ele>535.3333333333333</ele><time>2026-03-22T12:01:44.001Z</time></trkpt><trkpt lat="43.1844846" lon="13.1055917"><ele>536.0</ele><time>2026-03-22T12:01:45.001Z</time></trkpt><trkpt lat="43.1846274" lon="13.1056567"><ele>536.0</ele><time>2026-03-22T12:01:46Z</time></trkpt><trkpt lat="43.1847599" lon="13.1056821"><ele>536.0</ele><time>2026-03-22T12:01:47Z</time></trkpt><trkpt lat="43.1848857" lon="13.1056645"><ele>536.0</ele><time>2026-03-22T12:01:47.999Z</time></trkpt><trkpt lat="43.185012" lon="13.1056003"><ele>536.0</ele><time>2026-03-22T12:01:49Z</time></trkpt><trkpt lat="43.1851214" lon="13.1054925"><ele>540.6666666666666</ele><time>2026-03-22T12:01:50.001Z</time></trkpt><trkpt lat="43.1852271" lon="13.1053524"><ele>545.3333333333334</ele><time>2026-03-22T12:01:51.001Z</time></trkpt><trkpt lat="43.1853291" lon="13.1051895"><ele>550.0</ele><time>2026-03-22T12:01:52Z</time></trkpt><trkpt lat="43.1853786" lon="13.1049535"><ele>550.0</ele><time>2026-03-22T12:01:53Z</time></trkpt><trkpt lat="43.185491" lon="13.1047694"><ele>550.0</ele><time>2026-03-22T12:01:54Z</time></trkpt><trkpt lat="43.1856118" lon="13.1046064"><ele>550.0</ele><time>2026-03-22T12:01:55.001Z</time></trkpt><trkpt lat="43.1857321" lon="13.1044945"><ele>553.75</ele><time>2026-03-22T12:01:56.001Z</time></trkpt><trkpt lat="43.1858529" lon="13.1044589"><ele>557.5</ele><time>2026-03-22T12:01:57Z</time></trkpt><trkpt lat="43.1859879" lon="13.104454"><ele>561.25</ele><time>2026-03-22T12:01:58.001Z</time></trkpt><trkpt lat="43.18612" lon="13.1044958"><ele>565.0</ele><time>2026-03-22T12:01:59Z</time></trkpt><trkpt lat="43.1862473" lon="13.1045652"><ele>565.0</ele><time>2026-03-22T12:02:00Z</time></trkpt><trkpt lat="43.1863713" lon="13.1046406"><ele>565.0</ele><time>2026-03-22T12:02:01.001Z</time></trkpt><trkpt lat="43.1865027" lon="13.104696"><ele>565.0</ele><time>2026-03-22T12:02:02.001Z</time></trkpt><trkpt lat="43.1866381" lon="13.1047219"><ele>565.0</ele><time>2026-03-22T12:02:03.001Z</time></trkpt><trkpt lat="43.1867645" lon="13.1047155"><ele>568.5</ele><time>2026-03-22T12:02:04Z</time></trkpt><trkpt lat="43.1868779" lon="13.1046773"><ele>572.0</ele><time>2026-03-22T12:02:05Z</time></trkpt><trkpt lat="43.1869897" lon="13.1046037"><ele>575.5</ele><time>2026-03-22T12:02:06.001Z</time></trkpt><trkpt lat="43.1870996" lon="13.1045061"><ele>579.0</ele><time>2026-03-22T12:02:07.001Z</time></trkpt><trkpt lat="43.1872091" lon="13.1044032"><ele>579.0</ele><time>2026-03-22T12:02:08Z</time></trkpt><trkpt lat="43.1873112" lon="13.1043032"><ele>579.0</ele><time>2026-03-22T12:02:09.001Z</time></trkpt><trkpt lat="43.1874111" lon="13.1042107"><ele>579.0</ele><time>2026-03-22T12:02:10.001Z</time></trkpt><trkpt lat="43.1875075" lon="13.1041324"><ele>579.0</ele><time>2026-03-22T12:02:11.001Z</time></trkpt><trkpt lat="43.1875921" lon="13.1040892"><ele>579.0</ele><time>2026-03-22T12:02:12Z</time></trkpt><trkpt lat="43.187672" lon="13.1040932"><ele>579.75</ele><time>2026-03-22T12:02:13Z</time></trkpt><trkpt lat="43.1877409" lon="13.1041529"><ele>580.5</ele><time>2026-03-22T12:02:14Z</time></trkpt><trkpt lat="43.1878027" lon="13.1042672"><ele>581.25</ele><time>2026-03-22T12:02:15Z</time></trkpt><trkpt lat="43.1878575" lon="13.1044326"><ele>582.0</ele><time>2026-03-22T12:02:16Z</time></trkpt><trkpt lat="43.1879074" lon="13.1046329"><ele>582.0</ele><time>2026-03-22T12:02:17Z</time></trkpt><trkpt lat="43.1879577" lon="13.1048551"><ele>582.0</ele><time>2026-03-22T12:02:18.001Z</time></trkpt><trkpt lat="43.188003" lon="13.105087"><ele>582.0</ele><time>2026-03-22T12:02:19.001Z</time></trkpt><trkpt lat="43.1880624" lon="13.1053162"><ele>581.6666666666666</ele><time>2026-03-22T12:02:20.001Z</time></trkpt><trkpt lat="43.1881445" lon="13.1055561"><ele>581.3333333333333</ele><time>2026-03-22T12:02:21Z</time></trkpt><trkpt lat="43.1882326" lon="13.1057788"><ele>581.0</ele><time>2026-03-22T12:02:22Z</time></trkpt><trkpt lat="43.1883169" lon="13.1060068"><ele>578.3333333333333</ele><time>2026-03-22T12:02:23.001Z</time></trkpt><trkpt lat="43.1883979" lon="13.1062394"><ele>575.6666666666666</ele><time>2026-03-22T12:02:24.001Z</time></trkpt><trkpt lat="43.1884742" lon="13.1064752"><ele>573.0</ele><time>2026-03-22T12:02:25.001Z</time></trkpt><trkpt lat="43.1885417" lon="13.1067048"><ele>573.0</ele><time>2026-03-22T12:02:26Z</time></trkpt><trkpt lat="43.1885957" lon="13.106925"><ele>573.0</ele><time>2026-03-22T12:02:27.001Z</time></trkpt><trkpt lat="43.1886279" lon="13.107137"><ele>573.0</ele><time>2026-03-22T12:02:28.001Z</time></trkpt><trkpt lat="43.188646" lon="13.107323"><ele>573.0</ele><time>2026-03-22T12:02:29.001Z</time></trkpt><trkpt lat="43.188669" lon="13.1074697"><ele>573.0</ele><time>2026-03-22T12:02:30.001Z</time></trkpt><trkpt lat="43.1886996" lon="13.1075667"><ele>573.0</ele><time>2026-03-22T12:02:31.001Z</time></trkpt><trkpt lat="43.1888019" lon="13.1076209"><ele>573.0</ele><time>2026-03-22T12:02:33Z</time></trkpt><trkpt lat="43.1888593" lon="13.1075814"><ele>573.0</ele><time>2026-03-22T12:02:34Z</time></trkpt><trkpt lat="43.1889043" lon="13.1074885"><ele>573.0</ele><time>2026-03-22T12:02:35Z</time></trkpt><trkpt lat="43.1889321" lon="13.1073438"><ele>573.0</ele><time>2026-03-22T12:02:36Z</time></trkpt><trkpt lat="43.1889497" lon="13.1071784"><ele>573.0</ele><time>2026-03-22T12:02:37Z</time></trkpt><trkpt lat="43.1889744" lon="13.1069855"><ele>573.0</ele><time>2026-03-22T12:02:38.001Z</time></trkpt><trkpt lat="43.1890074" lon="13.1067899"><ele>573.0</ele><time>2026-03-22T12:02:39.001Z</time></trkpt><trkpt lat="43.1890464" lon="13.1065925"><ele>561.6666666666666</ele><time>2026-03-22T12:02:40.001Z</time></trkpt><trkpt lat="43.1890998" lon="13.1063914"><ele>550.3333333333333</ele><time>2026-03-22T12:02:41Z</time></trkpt><trkpt lat="43.1891665" lon="13.1061862"><ele>539.0</ele><time>2026-03-22T12:02:42Z</time></trkpt><trkpt lat="43.1892226" lon="13.1059787"><ele>539.0</ele><time>2026-03-22T12:02:43.001Z</time></trkpt><trkpt lat="43.1892557" lon="13.1057778"><ele>539.0</ele><time>2026-03-22T12:02:44Z</time></trkpt><trkpt lat="43.1892714" lon="13.1055754"><ele>539.0</ele><time>2026-03-22T12:02:45.001Z</time></trkpt><trkpt lat="43.1892713" lon="13.1053779"><ele>539.0</ele><time>2026-03-22T12:02:46Z</time></trkpt><trkpt lat="43.1892612" lon="13.1051783"><ele>538.25</ele><time>2026-03-22T12:02:47Z</time></trkpt><trkpt lat="43.1892583" lon="13.1049799"><ele>537.5</ele><time>2026-03-22T12:02:48Z</time></trkpt><trkpt lat="43.1892615" lon="13.1047845"><ele>536.75</ele><time>2026-03-22T12:02:49Z</time></trkpt><trkpt lat="43.1892756" lon="13.1045988"><ele>536.0</ele><time>2026-03-22T12:02:50Z</time></trkpt><trkpt lat="43.1893016" lon="13.1044203"><ele>535.0</ele><time>2026-03-22T12:02:51Z</time></trkpt><trkpt lat="43.1893495" lon="13.104253"><ele>534.0</ele><time>2026-03-22T12:02:52Z</time></trkpt><trkpt lat="43.1894306" lon="13.104112"><ele>533.0</ele><time>2026-03-22T12:02:53.001Z</time></trkpt><trkpt lat="43.1895358" lon="13.1039885"><ele>532.0</ele><time>2026-03-22T12:02:54Z</time></trkpt><trkpt lat="43.1896523" lon="13.1038659"><ele>530.6666666666667</ele><time>2026-03-22T12:02:55.001Z</time></trkpt><trkpt lat="43.1897813" lon="13.1037454"><ele>529.3333333333334</ele><time>2026-03-22T12:02:56Z</time></trkpt><trkpt lat="43.1899166" lon="13.1036196"><ele>528.0</ele><time>2026-03-22T12:02:57Z</time></trkpt><trkpt lat="43.1900585" lon="13.1034954"><ele>528.0</ele><time>2026-03-22T12:02:58.001Z</time></trkpt><trkpt lat="43.1902098" lon="13.1033928"><ele>528.0</ele><time>2026-03-22T12:02:59Z</time></trkpt><trkpt lat="43.1903696" lon="13.1033071"><ele>528.0</ele><time>2026-03-22T12:03:00.001Z</time></trkpt><trkpt lat="43.1905332" lon="13.1032274"><ele>526.6666666666666</ele><time>2026-03-22T12:03:01.001Z</time></trkpt><trkpt lat="43.1906923" lon="13.103144"><ele>525.3333333333333</ele><time>2026-03-22T12:03:02.001Z</time></trkpt><trkpt lat="43.1908394" lon="13.1030594"><ele>524.0</ele><time>2026-03-22T12:03:03Z</time></trkpt><trkpt lat="43.1909719" lon="13.1029673"><ele>524.0</ele><time>2026-03-22T12:03:04.001Z</time></trkpt><trkpt lat="43.1910791" lon="13.1028441"><ele>524.0</ele><time>2026-03-22T12:03:05.001Z</time></trkpt><trkpt lat="43.1911553" lon="13.1026735"><ele>524.0</ele><time>2026-03-22T12:03:06Z</time></trkpt><trkpt lat="43.1912025" lon="13.1025053"><ele>524.0</ele><time>2026-03-22T12:03:07Z</time></trkpt><trkpt lat="43.1912585" lon="13.1023741"><ele>525.0</ele><time>2026-03-22T12:03:08Z</time></trkpt><trkpt lat="43.1913445" lon="13.1022927"><ele>526.0</ele><time>2026-03-22T12:03:09Z</time></trkpt><trkpt lat="43.1914608" lon="13.1022264"><ele>527.0</ele><time>2026-03-22T12:03:10.001Z</time></trkpt><trkpt lat="43.1915986" lon="13.1021694"><ele>528.0</ele><time>2026-03-22T12:03:11Z</time></trkpt><trkpt lat="43.1917529" lon="13.1021097"><ele>528.0</ele><time>2026-03-22T12:03:12Z</time></trkpt><trkpt lat="43.1919137" lon="13.1020486"><ele>528.0</ele><time>2026-03-22T12:03:13.001Z</time></trkpt><trkpt lat="43.192073" lon="13.1019912"><ele>528.0</ele><time>2026-03-22T12:03:14.001Z</time></trkpt><trkpt lat="43.1922256" lon="13.1019421"><ele>531.0</ele><time>2026-03-22T12:03:15.001Z</time></trkpt><trkpt lat="43.1923663" lon="13.1018992"><ele>534.0</ele><time>2026-03-22T12:03:16.001Z</time></trkpt><trkpt lat="43.1924969" lon="13.1018491"><ele>537.0</ele><time>2026-03-22T12:03:17.001Z</time></trkpt><trkpt lat="43.1926217" lon="13.1017681"><ele>540.0</ele><time>2026-03-22T12:03:18Z</time></trkpt><trkpt lat="43.1927293" lon="13.1016488"><ele>539.5</ele><time>2026-03-22T12:03:19Z</time></trkpt><trkpt lat="43.1928271" lon="13.1015111"><ele>539.0</ele><time>2026-03-22T12:03:20.001Z</time></trkpt><trkpt lat="43.1929109" lon="13.1013835"><ele>538.5</ele><time>2026-03-22T12:03:21.001Z</time></trkpt><trkpt lat="43.192983" lon="13.1012439"><ele>538.0</ele><time>2026-03-22T12:03:22Z</time></trkpt><trkpt lat="43.1930388" lon="13.101098"><ele>538.0</ele><time>2026-03-22T12:03:23Z</time></trkpt><trkpt lat="43.1930744" lon="13.1009559"><ele>538.0</ele><time>2026-03-22T12:03:24.001Z</time></trkpt><trkpt lat="43.1930873" lon="13.1008212"><ele>538.0</ele><time>2026-03-22T12:03:25Z</time></trkpt><trkpt lat="43.193076" lon="13.100699"><ele>538.0</ele><time>2026-03-22T12:03:26Z</time></trkpt><trkpt lat="43.1930461" lon="13.1005933"><ele>538.0</ele><time>2026-03-22T12:03:27Z</time></trkpt><trkpt lat="43.1930096" lon="13.1005059"><ele>539.1999999999999</ele><time>2026-03-22T12:03:28Z</time></trkpt><trkpt lat="43.1929353" lon="13.1003605"><ele>540.4</ele><time>2026-03-22T12:03:30.001Z</time></trkpt><trkpt lat="43.1929018" lon="13.1002837"><ele>541.5999999999999</ele><time>2026-03-22T12:03:31.001Z</time></trkpt><trkpt lat="43.1928686" lon="13.1002094"><ele>542.8</ele><time>2026-03-22T12:03:32.001Z</time></trkpt><trkpt lat="43.1928066" lon="13.1000531"><ele>544.0</ele><time>2026-03-22T12:03:34.001Z</time></trkpt><trkpt lat="43.1927689" lon="13.0999671"><ele>543.6666666666667</ele><time>2026-03-22T12:03:35.001Z</time></trkpt><trkpt lat="43.1927289" lon="13.0998756"><ele>543.3333333333334</ele><time>2026-03-22T12:03:36Z</time></trkpt><trkpt lat="43.1926935" lon="13.0997768"><ele>543.0</ele><time>2026-03-22T12:03:37Z</time></trkpt><trkpt lat="43.1926699" lon="13.0996801"><ele>542.6666666666666</ele><time>2026-03-22T12:03:38.001Z</time></trkpt><trkpt lat="43.1926618" lon="13.0995669"><ele>542.3333333333333</ele><time>2026-03-22T12:03:39.001Z</time></trkpt><trkpt lat="43.1926904" lon="13.0994594"><ele>542.0</ele><time>2026-03-22T12:03:40.001Z</time></trkpt><trkpt lat="43.1927608" lon="13.0993772"><ele>542.0</ele><time>2026-03-22T12:03:41.001Z</time></trkpt><trkpt lat="43.192868" lon="13.0993121"><ele>542.0</ele><time>2026-03-22T12:03:42Z</time></trkpt><trkpt lat="43.1929917" lon="13.0992632"><ele>542.0</ele><time>2026-03-22T12:03:43.001Z</time></trkpt><trkpt lat="43.1931115" lon="13.0992206"><ele>542.0</ele><time>2026-03-22T12:03:44Z</time></trkpt><trkpt lat="43.1932351" lon="13.0991821"><ele>541.75</ele><time>2026-03-22T12:03:45Z</time></trkpt><trkpt lat="43.1933545" lon="13.0991464"><ele>541.5</ele><time>2026-03-22T12:03:46Z</time></trkpt><trkpt lat="43.1934728" lon="13.099104"><ele>541.25</ele><time>2026-03-22T12:03:47.001Z</time></trkpt><trkpt lat="43.1935927" lon="13.0990563"><ele>541.0</ele><time>2026-03-22T12:03:48.001Z</time></trkpt><trkpt lat="43.1937125" lon="13.099009"><ele>541.0</ele><time>2026-03-22T12:03:49.001Z</time></trkpt><trkpt lat="43.1938322" lon="13.0989619"><ele>541.0</ele><time>2026-03-22T12:03:49.999Z</time></trkpt><trkpt lat="43.1939514" lon="13.0989114"><ele>541.0</ele><time>2026-03-22T12:03:51Z</time></trkpt><trkpt lat="43.1940681" lon="13.0988482"><ele>541.0</ele><time>2026-03-22T12:03:52Z</time></trkpt><trkpt lat="43.1941809" lon="13.0987735"><ele>546.5</ele><time>2026-03-22T12:03:53Z</time></trkpt><trkpt lat="43.1942859" lon="13.0986827"><ele>552.0</ele><time>2026-03-22T12:03:54Z</time></trkpt><trkpt lat="43.1943757" lon="13.0985629"><ele>557.5</ele><time>2026-03-22T12:03:55Z</time></trkpt><trkpt lat="43.194448" lon="13.0984101"><ele>563.0</ele><time>2026-03-22T12:03:56Z</time></trkpt><trkpt lat="43.1944986" lon="13.0982337"><ele>563.0</ele><time>2026-03-22T12:03:57.001Z</time></trkpt><trkpt lat="43.1945453" lon="13.0980652"><ele>563.0</ele><time>2026-03-22T12:03:58.001Z</time></trkpt><trkpt lat="43.1946068" lon="13.0979127"><ele>563.0</ele><time>2026-03-22T12:03:59.001Z</time></trkpt><trkpt lat="43.1946807" lon="13.0977866"><ele>563.0</ele><time>2026-03-22T12:04:00Z</time></trkpt><trkpt lat="43.1947695" lon="13.0976913"><ele>565.25</ele><time>2026-03-22T12:04:01.001Z</time></trkpt><trkpt lat="43.1948813" lon="13.0976166"><ele>567.5</ele><time>2026-03-22T12:04:02.001Z</time></trkpt><trkpt lat="43.1950197" lon="13.0975611"><ele>569.75</ele><time>2026-03-22T12:04:03.001Z</time></trkpt><trkpt lat="43.1951633" lon="13.0975084"><ele>572.0</ele><time>2026-03-22T12:04:04Z</time></trkpt><trkpt lat="43.1953077" lon="13.097452"><ele>573.75</ele><time>2026-03-22T12:04:05.001Z</time></trkpt><trkpt lat="43.1954448" lon="13.0973939"><ele>575.5</ele><time>2026-03-22T12:04:06Z</time></trkpt><trkpt lat="43.1955748" lon="13.0973322"><ele>577.25</ele><time>2026-03-22T12:04:07Z</time></trkpt><trkpt lat="43.195695" lon="13.0972469"><ele>579.0</ele><time>2026-03-22T12:04:08Z</time></trkpt><trkpt lat="43.1957867" lon="13.0971357"><ele>579.0</ele><time>2026-03-22T12:04:09Z</time></trkpt><trkpt lat="43.1958576" lon="13.0970012"><ele>579.0</ele><time>2026-03-22T12:04:10.001Z</time></trkpt><trkpt lat="43.195899" lon="13.0968436"><ele>579.0</ele><time>2026-03-22T12:04:11Z</time></trkpt><trkpt lat="43.1959112" lon="13.096684"><ele>579.0</ele><time>2026-03-22T12:04:12.001Z</time></trkpt><trkpt lat="43.1959172" lon="13.096521"><ele>577.0</ele><time>2026-03-22T12:04:13.001Z</time></trkpt><trkpt lat="43.1959431" lon="13.0963546"><ele>575.0</ele><time>2026-03-22T12:04:14Z</time></trkpt><trkpt lat="43.195989" lon="13.0961802"><ele>573.0</ele><time>2026-03-22T12:04:15.001Z</time></trkpt><trkpt lat="43.1960511" lon="13.096007"><ele>571.0</ele><time>2026-03-22T12:04:16.001Z</time></trkpt><trkpt lat="43.1961193" lon="13.0958474"><ele>567.25</ele><time>2026-03-22T12:04:17Z</time></trkpt><trkpt lat="43.1961916" lon="13.0956943"><ele>563.5</ele><time>2026-03-22T12:04:18Z</time></trkpt><trkpt lat="43.1962684" lon="13.0955396"><ele>559.75</ele><time>2026-03-22T12:04:19Z</time></trkpt><trkpt lat="43.1963482" lon="13.0953849"><ele>556.0</ele><time>2026-03-22T12:04:20.001Z</time></trkpt><trkpt lat="43.1964224" lon="13.0952226"><ele>556.0</ele><time>2026-03-22T12:04:21Z</time></trkpt><trkpt lat="43.1964805" lon="13.0950533"><ele>556.0</ele><time>2026-03-22T12:04:22Z</time></trkpt><trkpt lat="43.1965208" lon="13.094879"><ele>556.0</ele><time>2026-03-22T12:04:23.001Z</time></trkpt><trkpt lat="43.1965347" lon="13.0946999"><ele>556.0</ele><time>2026-03-22T12:04:24Z</time></trkpt><trkpt lat="43.1965184" lon="13.0945321"><ele>556.3333333333334</ele><time>2026-03-22T12:04:25Z</time></trkpt><trkpt lat="43.1964886" lon="13.0943984"><ele>556.6666666666667</ele><time>2026-03-22T12:04:26.001Z</time></trkpt><trkpt lat="43.1964613" lon="13.094288"><ele>557.0</ele><time>2026-03-22T12:04:27Z</time></trkpt><trkpt lat="43.196449" lon="13.0941904"><ele>557.3333333333334</ele><time>2026-03-22T12:04:28Z</time></trkpt><trkpt lat="43.1964833" lon="13.0940601"><ele>557.6666666666666</ele><time>2026-03-22T12:04:30.001Z</time></trkpt><trkpt lat="43.1965548" lon="13.0940575"><ele>558.0</ele><time>2026-03-22T12:04:32.001Z</time></trkpt><trkpt lat="43.1966219" lon="13.094095"><ele>560.6</ele><time>2026-03-22T12:04:34Z</time></trkpt><trkpt lat="43.1967519" lon="13.0941573"><ele>563.1999999999999</ele><time>2026-03-22T12:04:36.001Z</time></trkpt><trkpt lat="43.1968376" lon="13.0942146"><ele>565.8</ele><time>2026-03-22T12:04:37.001Z</time></trkpt><trkpt lat="43.1969249" lon="13.0942616"><ele>568.4</ele><time>2026-03-22T12:04:38Z</time></trkpt><trkpt lat="43.1970137" lon="13.0942912"><ele>571.0</ele><time>2026-03-22T12:04:39.001Z</time></trkpt><trkpt lat="43.1971046" lon="13.0942908"><ele>571.0</ele><time>2026-03-22T12:04:40.001Z</time></trkpt><trkpt lat="43.1972143" lon="13.0942666"><ele>571.0</ele><time>2026-03-22T12:04:41.001Z</time></trkpt><trkpt lat="43.1973218" lon="13.0942281"><ele>571.0</ele><time>2026-03-22T12:04:42.001Z</time></trkpt><trkpt lat="43.1974239" lon="13.0941771"><ele>571.0</ele><time>2026-03-22T12:04:43.001Z</time></trkpt><trkpt lat="43.1975235" lon="13.0941129"><ele>571.0</ele><time>2026-03-22T12:04:44.001Z</time></trkpt><trkpt lat="43.1976218" lon="13.0940666"><ele>569.6</ele><time>2026-03-22T12:04:45Z</time></trkpt><trkpt lat="43.197722" lon="13.0940554"><ele>568.2</ele><time>2026-03-22T12:04:46.001Z</time></trkpt><trkpt lat="43.197811" lon="13.0940822"><ele>566.8</ele><time>2026-03-22T12:04:47Z</time></trkpt><trkpt lat="43.1978946" lon="13.0941431"><ele>565.4</ele><time>2026-03-22T12:04:48Z</time></trkpt><trkpt lat="43.1979621" lon="13.0942234"><ele>564.0</ele><time>2026-03-22T12:04:49Z</time></trkpt><trkpt lat="43.1980083" lon="13.0943176"><ele>564.0</ele><time>2026-03-22T12:04:50.001Z</time></trkpt><trkpt lat="43.198033" lon="13.0944383"><ele>564.0</ele><time>2026-03-22T12:04:51.001Z</time></trkpt><trkpt lat="43.1980462" lon="13.094576"><ele>564.0</ele><time>2026-03-22T12:04:52Z</time></trkpt><trkpt lat="43.1980513" lon="13.0947182"><ele>564.0</ele><time>2026-03-22T12:04:53Z</time></trkpt><trkpt lat="43.1980595" lon="13.0948645"><ele>564.0</ele><time>2026-03-22T12:04:54Z</time></trkpt><trkpt lat="43.1980837" lon="13.0949962"><ele>567.75</ele><time>2026-03-22T12:04:55.001Z</time></trkpt><trkpt lat="43.1981369" lon="13.0951187"><ele>571.5</ele><time>2026-03-22T12:04:56Z</time></trkpt><trkpt lat="43.1982167" lon="13.0952306"><ele>575.25</ele><time>2026-03-22T12:04:57.001Z</time></trkpt><trkpt lat="43.1983162" lon="13.0953296"><ele>579.0</ele><time>2026-03-22T12:04:58Z</time></trkpt><trkpt lat="43.198418" lon="13.0954278"><ele>572.4</ele><time>2026-03-22T12:04:59.001Z</time></trkpt><trkpt lat="43.1985111" lon="13.0955042"><ele>565.8</ele><time>2026-03-22T12:05:00.001Z</time></trkpt><trkpt lat="43.198601" lon="13.0955335"><ele>559.2</ele><time>2026-03-22T12:05:01.001Z</time></trkpt><trkpt lat="43.1986888" lon="13.0955367"><ele>552.6</ele><time>2026-03-22T12:05:02.001Z</time></trkpt><trkpt lat="43.198791" lon="13.0955084"><ele>546.0</ele><time>2026-03-22T12:05:03.001Z</time></trkpt><trkpt lat="43.1989" lon="13.09547"><ele>543.25</ele><time>2026-03-22T12:05:04Z</time></trkpt><trkpt lat="43.1990175" lon="13.095421"><ele>540.5</ele><time>2026-03-22T12:05:05Z</time></trkpt><trkpt lat="43.199139" lon="13.0953795"><ele>537.75</ele><time>2026-03-22T12:05:06Z</time></trkpt><trkpt lat="43.1992625" lon="13.0953317"><ele>535.0</ele><time>2026-03-22T12:05:07Z</time></trkpt><trkpt lat="43.1993818" lon="13.0952783"><ele>535.0</ele><time>2026-03-22T12:05:08.001Z</time></trkpt><trkpt lat="43.1995015" lon="13.0952273"><ele>535.0</ele><time>2026-03-22T12:05:09.001Z</time></trkpt><trkpt lat="43.1996066" lon="13.0951874"><ele>535.0</ele><time>2026-03-22T12:05:10.001Z</time></trkpt><trkpt lat="43.199695" lon="13.0951586"><ele>535.0</ele><time>2026-03-22T12:05:11.001Z</time></trkpt><trkpt lat="43.1997761" lon="13.0951539"><ele>535.0</ele><time>2026-03-22T12:05:12.001Z</time></trkpt><trkpt lat="43.1998403" lon="13.0951912"><ele>535.0</ele><time>2026-03-22T12:05:13Z</time></trkpt><trkpt lat="43.1998609" lon="13.0953643"><ele>535.0</ele><time>2026-03-22T12:05:15Z</time></trkpt><trkpt lat="43.1998157" lon="13.0955"><ele>535.0</ele><time>2026-03-22T12:05:16Z</time></trkpt><trkpt lat="43.1997477" lon="13.0956395"><ele>535.0</ele><time>2026-03-22T12:05:17Z</time></trkpt><trkpt lat="43.1997106" lon="13.095754"><ele>535.2</ele><time>2026-03-22T12:05:18.001Z</time></trkpt><trkpt lat="43.1997101" lon="13.0958579"><ele>535.4</ele><time>2026-03-22T12:05:19.001Z</time></trkpt><trkpt lat="43.1997434" lon="13.0959356"><ele>535.6</ele><time>2026-03-22T12:05:20Z</time></trkpt><trkpt lat="43.1998118" lon="13.0959954"><ele>535.8</ele><time>2026-03-22T12:05:21.001Z</time></trkpt><trkpt lat="43.1999212" lon="13.0960544"><ele>536.0</ele><time>2026-03-22T12:05:22.001Z</time></trkpt><trkpt lat="43.2000581" lon="13.0961307"><ele>530.6666666666666</ele><time>2026-03-22T12:05:23.001Z</time></trkpt><trkpt lat="43.2001873" lon="13.0962323"><ele>525.3333333333334</ele><time>2026-03-22T12:05:24.001Z</time></trkpt><trkpt lat="43.2003234" lon="13.0963241"><ele>520.0</ele><time>2026-03-22T12:05:25Z</time></trkpt><trkpt lat="43.2004965" lon="13.0963861"><ele>515.6666666666667</ele><time>2026-03-22T12:05:26Z</time></trkpt><trkpt lat="43.2006773" lon="13.0964348"><ele>511.33333333333337</ele><time>2026-03-22T12:05:27Z</time></trkpt><trkpt lat="43.200851" lon="13.0964792"><ele>507.0</ele><time>2026-03-22T12:05:28.001Z</time></trkpt><trkpt lat="43.2010218" lon="13.0965173"><ele>507.0</ele><time>2026-03-22T12:05:29Z</time></trkpt><trkpt lat="43.2011885" lon="13.0965465"><ele>507.0</ele><time>2026-03-22T12:05:30.001Z</time></trkpt><trkpt lat="43.2013531" lon="13.0965521"><ele>507.0</ele><time>2026-03-22T12:05:31.001Z</time></trkpt><trkpt lat="43.2015154" lon="13.0965329"><ele>502.33333333333337</ele><time>2026-03-22T12:05:32Z</time></trkpt><trkpt lat="43.201682" lon="13.0964939"><ele>497.6666666666667</ele><time>2026-03-22T12:05:33Z</time></trkpt><trkpt lat="43.2018498" lon="13.0964148"><ele>493.0</ele><time>2026-03-22T12:05:34Z</time></trkpt><trkpt lat="43.2020083" lon="13.0962895"><ele>493.0</ele><time>2026-03-22T12:05:35.001Z</time></trkpt><trkpt lat="43.2021528" lon="13.0961679"><ele>493.0</ele><time>2026-03-22T12:05:36.001Z</time></trkpt><trkpt lat="43.2023114" lon="13.0960587"><ele>493.0</ele><time>2026-03-22T12:05:37Z</time></trkpt><trkpt lat="43.2024734" lon="13.095989"><ele>491.33333333333337</ele><time>2026-03-22T12:05:38Z</time></trkpt><trkpt lat="43.2026386" lon="13.0959636"><ele>489.66666666666663</ele><time>2026-03-22T12:05:39Z</time></trkpt><trkpt lat="43.2027869" lon="13.0959402"><ele>488.0</ele><time>2026-03-22T12:05:40.001Z</time></trkpt><trkpt lat="43.2029333" lon="13.0959006"><ele>488.0</ele><time>2026-03-22T12:05:41.001Z</time></trkpt><trkpt lat="43.2030698" lon="13.0958697"><ele>488.0</ele><time>2026-03-22T12:05:42.001Z</time></trkpt><trkpt lat="43.2031935" lon="13.0958171"><ele>488.0</ele><time>2026-03-22T12:05:43.001Z</time></trkpt><trkpt lat="43.203307" lon="13.0957407"><ele>488.0</ele><time>2026-03-22T12:05:44.001Z</time></trkpt><trkpt lat="43.2034248" lon="13.0956312"><ele>486.25</ele><time>2026-03-22T12:05:45Z</time></trkpt><trkpt lat="43.2035316" lon="13.0954959"><ele>484.5</ele><time>2026-03-22T12:05:46Z</time></trkpt><trkpt lat="43.2036258" lon="13.0953543"><ele>482.75</ele><time>2026-03-22T12:05:47Z</time></trkpt><trkpt lat="43.2037129" lon="13.0952136"><ele>481.0</ele><time>2026-03-22T12:05:48Z</time></trkpt><trkpt lat="43.2038021" lon="13.0950693"><ele>481.0</ele><time>2026-03-22T12:05:49Z</time></trkpt><trkpt lat="43.2038935" lon="13.0949308"><ele>481.0</ele><time>2026-03-22T12:05:50.001Z</time></trkpt><trkpt lat="43.203986" lon="13.0948062"><ele>481.0</ele><time>2026-03-22T12:05:51.001Z</time></trkpt><trkpt lat="43.2040832" lon="13.0946948"><ele>481.0</ele><time>2026-03-22T12:05:52.001Z</time></trkpt><trkpt lat="43.2041712" lon="13.0946026"><ele>477.75</ele><time>2026-03-22T12:05:53Z</time></trkpt><trkpt lat="43.2042696" lon="13.0945123"><ele>474.5</ele><time>2026-03-22T12:05:54Z</time></trkpt><trkpt lat="43.2043761" lon="13.0944327"><ele>471.25</ele><time>2026-03-22T12:05:55.001Z</time></trkpt><trkpt lat="43.2044888" lon="13.094352"><ele>468.0</ele><time>2026-03-22T12:05:56.001Z</time></trkpt><trkpt lat="43.2046043" lon="13.0942594"><ele>468.0</ele><time>2026-03-22T12:05:57.001Z</time></trkpt><trkpt lat="43.2047186" lon="13.0941648"><ele>467.99999999999994</ele><time>2026-03-22T12:05:58.001Z</time></trkpt><trkpt lat="43.2048167" lon="13.0940925"><ele>467.99999999999994</ele><time>2026-03-22T12:05:59.001Z</time></trkpt><trkpt lat="43.2049138" lon="13.0940391"><ele>468.0</ele><time>2026-03-22T12:06:00.002Z</time></trkpt><trkpt lat="43.2049991" lon="13.0939988"><ele>468.0</ele><time>2026-03-22T12:06:01.002Z</time></trkpt><trkpt lat="43.2050714" lon="13.0939587"><ele>464.0</ele><time>2026-03-22T12:06:02.002Z</time></trkpt><trkpt lat="43.2051381" lon="13.093914"><ele>460.0</ele><time>2026-03-22T12:06:03.001Z</time></trkpt><trkpt lat="43.2052047" lon="13.0938579"><ele>456.0</ele><time>2026-03-22T12:06:04.001Z</time></trkpt><trkpt lat="43.2052522" lon="13.0937875"><ele>452.0</ele><time>2026-03-22T12:06:05.002Z</time></trkpt><trkpt lat="43.2053046" lon="13.0936574"><ele>448.0</ele><time>2026-03-22T12:06:07.001Z</time></trkpt><trkpt lat="43.2053301" lon="13.093522"><ele>444.0</ele><time>2026-03-22T12:06:09.002Z</time></trkpt><trkpt lat="43.2053614" lon="13.0933748"><ele>444.0</ele><time>2026-03-22T12:06:11.002Z</time></trkpt><trkpt lat="43.2053972" lon="13.093274"><ele>444.0</ele><time>2026-03-22T12:06:12.002Z</time></trkpt><trkpt lat="43.2054455" lon="13.0931888"><ele>444.0</ele><time>2026-03-22T12:06:13.002Z</time></trkpt><trkpt lat="43.2055095" lon="13.0931062"><ele>444.0</ele><time>2026-03-22T12:06:14.002Z</time></trkpt><trkpt lat="43.2055805" lon="13.0930252"><ele>444.0</ele><time>2026-03-22T12:06:15.002Z</time></trkpt><trkpt lat="43.2056588" lon="13.0929444"><ele>444.0</ele><time>2026-03-22T12:06:16.002Z</time></trkpt><trkpt lat="43.20574" lon="13.0928698"><ele>440.79999999999995</ele><time>2026-03-22T12:06:17.002Z</time></trkpt><trkpt lat="43.2058225" lon="13.0927944"><ele>437.59999999999997</ele><time>2026-03-22T12:06:18.001Z</time></trkpt><trkpt lat="43.2059102" lon="13.0927245"><ele>434.4</ele><time>2026-03-22T12:06:19.001Z</time></trkpt><trkpt lat="43.206008" lon="13.0926653"><ele>431.2</ele><time>2026-03-22T12:06:20.001Z</time></trkpt><trkpt lat="43.2061165" lon="13.0926354"><ele>428.0</ele><time>2026-03-22T12:06:21.002Z</time></trkpt><trkpt lat="43.2062268" lon="13.0926136"><ele>428.0</ele><time>2026-03-22T12:06:22.002Z</time></trkpt><trkpt lat="43.2063375" lon="13.0925791"><ele>428.0</ele><time>2026-03-22T12:06:23.001Z</time></trkpt><trkpt lat="43.2064436" lon="13.0925246"><ele>428.0</ele><time>2026-03-22T12:06:24.002Z</time></trkpt><trkpt lat="43.2065418" lon="13.092454"><ele>428.0</ele><time>2026-03-22T12:06:25.001Z</time></trkpt><trkpt lat="43.2066388" lon="13.0923773"><ele>427.0</ele><time>2026-03-22T12:06:26.002Z</time></trkpt><trkpt lat="43.2067365" lon="13.0923022"><ele>426.0</ele><time>2026-03-22T12:06:27.001Z</time></trkpt><trkpt lat="43.2068383" lon="13.0922359"><ele>425.0</ele><time>2026-03-22T12:06:28.001Z</time></trkpt><trkpt lat="43.2069471" lon="13.0921773"><ele>424.0</ele><time>2026-03-22T12:06:29.002Z</time></trkpt><trkpt lat="43.2070621" lon="13.0921247"><ele>424.0</ele><time>2026-03-22T12:06:30Z</time></trkpt><trkpt lat="43.2071814" lon="13.0920755"><ele>424.0</ele><time>2026-03-22T12:06:31.001Z</time></trkpt><trkpt lat="43.2073028" lon="13.0920259"><ele>424.0</ele><time>2026-03-22T12:06:32.001Z</time></trkpt><trkpt lat="43.2074265" lon="13.0919767"><ele>424.0</ele><time>2026-03-22T12:06:33.002Z</time></trkpt><trkpt lat="43.2075509" lon="13.0919301"><ele>423.25</ele><time>2026-03-22T12:06:34.001Z</time></trkpt><trkpt lat="43.2076762" lon="13.0918815"><ele>422.5</ele><time>2026-03-22T12:06:35.002Z</time></trkpt><trkpt lat="43.2078008" lon="13.0918294"><ele>421.75</ele><time>2026-03-22T12:06:36.001Z</time></trkpt><trkpt lat="43.2079246" lon="13.0917778"><ele>421.0</ele><time>2026-03-22T12:06:37.001Z</time></trkpt><trkpt lat="43.2080478" lon="13.0917273"><ele>420.0</ele><time>2026-03-22T12:06:38.001Z</time></trkpt><trkpt lat="43.2081712" lon="13.091681"><ele>419.0</ele><time>2026-03-22T12:06:39.001Z</time></trkpt><trkpt lat="43.2082984" lon="13.0916535"><ele>418.0</ele><time>2026-03-22T12:06:40.001Z</time></trkpt><trkpt lat="43.208429" lon="13.0916523"><ele>417.0</ele><time>2026-03-22T12:06:41.002Z</time></trkpt><trkpt lat="43.2085628" lon="13.0916771"><ele>417.0</ele><time>2026-03-22T12:06:42.002Z</time></trkpt><trkpt lat="43.2086874" lon="13.0917329"><ele>417.0</ele><time>2026-03-22T12:06:43.002Z</time></trkpt><trkpt lat="43.2088048" lon="13.0918089"><ele>417.0</ele><time>2026-03-22T12:06:44.001Z</time></trkpt><trkpt lat="43.208921" lon="13.0918857"><ele>417.0</ele><time>2026-03-22T12:06:45.001Z</time></trkpt><trkpt lat="43.2090326" lon="13.0919444"><ele>416.0</ele><time>2026-03-22T12:06:46.001Z</time></trkpt><trkpt lat="43.2091483" lon="13.0919691"><ele>415.0</ele><time>2026-03-22T12:06:47.001Z</time></trkpt><trkpt lat="43.2092709" lon="13.0919712"><ele>414.0</ele><time>2026-03-22T12:06:48.002Z</time></trkpt><trkpt lat="43.2093958" lon="13.0919777"><ele>413.0</ele><time>2026-03-22T12:06:49.002Z</time></trkpt><trkpt lat="43.209521" lon="13.0919974"><ele>413.0</ele><time>2026-03-22T12:06:50.001Z</time></trkpt><trkpt lat="43.209645" lon="13.092013"><ele>413.0</ele><time>2026-03-22T12:06:51.001Z</time></trkpt><trkpt lat="43.2097634" lon="13.0920167"><ele>413.0</ele><time>2026-03-22T12:06:52.002Z</time></trkpt><trkpt lat="43.2098722" lon="13.0919914"><ele>413.0</ele><time>2026-03-22T12:06:53.002Z</time></trkpt><trkpt lat="43.2099761" lon="13.0919281"><ele>410.0</ele><time>2026-03-22T12:06:54.001Z</time></trkpt><trkpt lat="43.2100694" lon="13.0918406"><ele>407.0</ele><time>2026-03-22T12:06:55.001Z</time></trkpt><trkpt lat="43.2101459" lon="13.091733"><ele>404.0</ele><time>2026-03-22T12:06:56.001Z</time></trkpt><trkpt lat="43.2102007" lon="13.091604"><ele>401.0</ele><time>2026-03-22T12:06:57.001Z</time></trkpt><trkpt lat="43.2102291" lon="13.0914654"><ele>398.0</ele><time>2026-03-22T12:06:58.002Z</time></trkpt><trkpt lat="43.2102343" lon="13.0913252"><ele>396.59999999999997</ele><time>2026-03-22T12:06:59.001Z</time></trkpt><trkpt lat="43.2102221" lon="13.0911865"><ele>395.2</ele><time>2026-03-22T12:07:00.002Z</time></trkpt><trkpt lat="43.2101998" lon="13.0910452"><ele>393.8</ele><time>2026-03-22T12:07:01.001Z</time></trkpt><trkpt lat="43.2101734" lon="13.0909"><ele>392.4</ele><time>2026-03-22T12:07:02.001Z</time></trkpt><trkpt lat="43.2101446" lon="13.0907507"><ele>391.0</ele><time>2026-03-22T12:07:03.001Z</time></trkpt><trkpt lat="43.2101129" lon="13.090592"><ele>388.5</ele><time>2026-03-22T12:07:04.002Z</time></trkpt><trkpt lat="43.2100797" lon="13.0904291"><ele>386.0</ele><time>2026-03-22T12:07:05.002Z</time></trkpt><trkpt lat="43.2100452" lon="13.0902626"><ele>383.5</ele><time>2026-03-22T12:07:06.002Z</time></trkpt><trkpt lat="43.2100084" lon="13.0900933"><ele>381.0</ele><time>2026-03-22T12:07:07.002Z</time></trkpt><trkpt lat="43.2099699" lon="13.0899199"><ele>381.0</ele><time>2026-03-22T12:07:08.002Z</time></trkpt><trkpt lat="43.209931" lon="13.0897438"><ele>381.0</ele><time>2026-03-22T12:07:09.002Z</time></trkpt><trkpt lat="43.2098911" lon="13.0895644"><ele>381.0</ele><time>2026-03-22T12:07:10.002Z</time></trkpt><trkpt lat="43.209854" lon="13.0893799"><ele>381.0</ele><time>2026-03-22T12:07:11.002Z</time></trkpt><trkpt lat="43.209819" lon="13.0891928"><ele>377.5</ele><time>2026-03-22T12:07:12.001Z</time></trkpt><trkpt lat="43.2097819" lon="13.0890037"><ele>374.0</ele><time>2026-03-22T12:07:13.002Z</time></trkpt><trkpt lat="43.2097406" lon="13.0888147"><ele>370.5</ele><time>2026-03-22T12:07:14.001Z</time></trkpt><trkpt lat="43.2096954" lon="13.0886256"><ele>367.0</ele><time>2026-03-22T12:07:15.001Z</time></trkpt><trkpt lat="43.2096507" lon="13.0884379"><ele>363.75</ele><time>2026-03-22T12:07:16.002Z</time></trkpt><trkpt lat="43.2096189" lon="13.0882498"><ele>360.5</ele><time>2026-03-22T12:07:17.002Z</time></trkpt><trkpt lat="43.2096076" lon="13.0880594"><ele>357.25</ele><time>2026-03-22T12:07:18.001Z</time></trkpt><trkpt lat="43.2096085" lon="13.0878621"><ele>354.0</ele><time>2026-03-22T12:07:19Z</time></trkpt><trkpt lat="43.2096236" lon="13.0876606"><ele>354.0</ele><time>2026-03-22T12:07:20.002Z</time></trkpt><trkpt lat="43.2096454" lon="13.0874557"><ele>354.0</ele><time>2026-03-22T12:07:21.001Z</time></trkpt><trkpt lat="43.2096743" lon="13.0872572"><ele>354.0</ele><time>2026-03-22T12:07:22.001Z</time></trkpt><trkpt lat="43.2097161" lon="13.087065"><ele>354.0</ele><time>2026-03-22T12:07:23.001Z</time></trkpt><trkpt lat="43.2097681" lon="13.0868755"><ele>351.5</ele><time>2026-03-22T12:07:24.002Z</time></trkpt><trkpt lat="43.2098228" lon="13.0866919"><ele>349.0</ele><time>2026-03-22T12:07:25.002Z</time></trkpt><trkpt lat="43.209879" lon="13.0864998"><ele>346.5</ele><time>2026-03-22T12:07:26.002Z</time></trkpt><trkpt lat="43.2099377" lon="13.0863085"><ele>344.0</ele><time>2026-03-22T12:07:27.001Z</time></trkpt><trkpt lat="43.2099994" lon="13.0861247"><ele>342.25</ele><time>2026-03-22T12:07:28.002Z</time></trkpt><trkpt lat="43.210058" lon="13.0859401"><ele>340.5</ele><time>2026-03-22T12:07:29.001Z</time></trkpt><trkpt lat="43.2101147" lon="13.0857571"><ele>338.75</ele><time>2026-03-22T12:07:30.001Z</time></trkpt><trkpt lat="43.2101798" lon="13.0855826"><ele>337.0</ele><time>2026-03-22T12:07:31.001Z</time></trkpt><trkpt lat="43.2102534" lon="13.0854151"><ele>336.0</ele><time>2026-03-22T12:07:32.001Z</time></trkpt><trkpt lat="43.2103345" lon="13.0852562"><ele>335.0</ele><time>2026-03-22T12:07:33.002Z</time></trkpt><trkpt lat="43.2104246" lon="13.0851037"><ele>334.0</ele><time>2026-03-22T12:07:34.002Z</time></trkpt><trkpt lat="43.2105258" lon="13.0849479"><ele>333.0</ele><time>2026-03-22T12:07:35.001Z</time></trkpt><trkpt lat="43.2106462" lon="13.0847964"><ele>331.3333333333333</ele><time>2026-03-22T12:07:36.002Z</time></trkpt><trkpt lat="43.2107926" lon="13.0846519"><ele>329.66666666666663</ele><time>2026-03-22T12:07:37.001Z</time></trkpt><trkpt lat="43.2109613" lon="13.084518"><ele>328.0</ele><time>2026-03-22T12:07:38.001Z</time></trkpt><trkpt lat="43.2111376" lon="13.0843929"><ele>328.0</ele><time>2026-03-22T12:07:39.001Z</time></trkpt><trkpt lat="43.2113148" lon="13.0842759"><ele>328.0</ele><time>2026-03-22T12:07:40.002Z</time></trkpt><trkpt lat="43.2114942" lon="13.0841609"><ele>328.0</ele><time>2026-03-22T12:07:41.002Z</time></trkpt><trkpt lat="43.211671" lon="13.0840433"><ele>326.66666666666663</ele><time>2026-03-22T12:07:42.001Z</time></trkpt><trkpt lat="43.2118445" lon="13.0839229"><ele>325.3333333333333</ele><time>2026-03-22T12:07:43.001Z</time></trkpt><trkpt lat="43.2120149" lon="13.0838078"><ele>324.0</ele><time>2026-03-22T12:07:44.001Z</time></trkpt><trkpt lat="43.2121821" lon="13.0836968"><ele>322.0</ele><time>2026-03-22T12:07:45.001Z</time></trkpt><trkpt lat="43.2123418" lon="13.0835868"><ele>320.0</ele><time>2026-03-22T12:07:46.001Z</time></trkpt><trkpt lat="43.2124936" lon="13.0834832"><ele>318.0</ele><time>2026-03-22T12:07:47.002Z</time></trkpt><trkpt lat="43.2126399" lon="13.0833859"><ele>318.0</ele><time>2026-03-22T12:07:48.002Z</time></trkpt><trkpt lat="43.2127893" lon="13.0832963"><ele>318.0</ele><time>2026-03-22T12:07:49.001Z</time></trkpt><trkpt lat="43.2129449" lon="13.0832222"><ele>318.0</ele><time>2026-03-22T12:07:50.001Z</time></trkpt><trkpt lat="43.2131027" lon="13.0831693"><ele>316.3333333333333</ele><time>2026-03-22T12:07:51.001Z</time></trkpt><trkpt lat="43.2132686" lon="13.08313"><ele>314.66666666666663</ele><time>2026-03-22T12:07:52.002Z</time></trkpt><trkpt lat="43.2134387" lon="13.0831076"><ele>313.0</ele><time>2026-03-22T12:07:53.001Z</time></trkpt><trkpt lat="43.2136125" lon="13.0830936"><ele>313.0</ele><time>2026-03-22T12:07:54.001Z</time></trkpt><trkpt lat="43.2137837" lon="13.0830836"><ele>313.0</ele><time>2026-03-22T12:07:55.002Z</time></trkpt><trkpt lat="43.21395" lon="13.0830758"><ele>313.0</ele><time>2026-03-22T12:07:56.002Z</time></trkpt><trkpt lat="43.2141182" lon="13.0830696"><ele>312.3333333333333</ele><time>2026-03-22T12:07:57.001Z</time></trkpt><trkpt lat="43.2142898" lon="13.0830623"><ele>311.6666666666667</ele><time>2026-03-22T12:07:58.001Z</time></trkpt><trkpt lat="43.2144676" lon="13.0830528"><ele>311.0</ele><time>2026-03-22T12:07:59.001Z</time></trkpt><trkpt lat="43.2146492" lon="13.0830421"><ele>309.33333333333337</ele><time>2026-03-22T12:08:00.002Z</time></trkpt><trkpt lat="43.2148339" lon="13.0830299"><ele>307.6666666666667</ele><time>2026-03-22T12:08:01.002Z</time></trkpt><trkpt lat="43.2150198" lon="13.0830166"><ele>306.0</ele><time>2026-03-22T12:08:02.002Z</time></trkpt><trkpt lat="43.2152065" lon="13.0830066"><ele>306.0</ele><time>2026-03-22T12:08:03.001Z</time></trkpt><trkpt lat="43.2153779" lon="13.0830009"><ele>306.0</ele><time>2026-03-22T12:08:04.002Z</time></trkpt><trkpt lat="43.2155371" lon="13.0829974"><ele>306.0</ele><time>2026-03-22T12:08:05.001Z</time></trkpt><trkpt lat="43.2156836" lon="13.0829884"><ele>304.5</ele><time>2026-03-22T12:08:06.001Z</time></trkpt><trkpt lat="43.2158122" lon="13.0829601"><ele>303.0</ele><time>2026-03-22T12:08:07.001Z</time></trkpt><trkpt lat="43.2159409" lon="13.0829007"><ele>301.5</ele><time>2026-03-22T12:08:08.001Z</time></trkpt><trkpt lat="43.2160708" lon="13.0828071"><ele>300.0</ele><time>2026-03-22T12:08:09.001Z</time></trkpt><trkpt lat="43.2161874" lon="13.0827003"><ele>300.0</ele><time>2026-03-22T12:08:10.001Z</time></trkpt><trkpt lat="43.2162945" lon="13.0826042"><ele>300.0</ele><time>2026-03-22T12:08:11.001Z</time></trkpt><trkpt lat="43.2163934" lon="13.082553"><ele>300.0</ele><time>2026-03-22T12:08:12.001Z</time></trkpt><trkpt lat="43.2165032" lon="13.0825459"><ele>300.0</ele><time>2026-03-22T12:08:13.002Z</time></trkpt><trkpt lat="43.2166286" lon="13.0825927"><ele>298.8</ele><time>2026-03-22T12:08:14.002Z</time></trkpt><trkpt lat="43.2167404" lon="13.0826537"><ele>297.6</ele><time>2026-03-22T12:08:15.001Z</time></trkpt><trkpt lat="43.2168418" lon="13.0826732"><ele>296.4</ele><time>2026-03-22T12:08:16.002Z</time></trkpt><trkpt lat="43.2169446" lon="13.0826482"><ele>295.2</ele><time>2026-03-22T12:08:17.002Z</time></trkpt><trkpt lat="43.2170361" lon="13.0825729"><ele>294.0</ele><time>2026-03-22T12:08:18.002Z</time></trkpt><trkpt lat="43.2171109" lon="13.0824602"><ele>297.75</ele><time>2026-03-22T12:08:19Z</time></trkpt><trkpt lat="43.2171746" lon="13.0823157"><ele>301.5</ele><time>2026-03-22T12:08:20.001Z</time></trkpt><trkpt lat="43.2172164" lon="13.0821475"><ele>305.25</ele><time>2026-03-22T12:08:21.001Z</time></trkpt><trkpt lat="43.2172405" lon="13.0819564"><ele>309.0</ele><time>2026-03-22T12:08:22.001Z</time></trkpt><trkpt lat="43.2172614" lon="13.0817649"><ele>309.0</ele><time>2026-03-22T12:08:23.002Z</time></trkpt><trkpt lat="43.2172859" lon="13.0815735"><ele>309.0</ele><time>2026-03-22T12:08:24Z</time></trkpt><trkpt lat="43.2173105" lon="13.0813811"><ele>309.0</ele><time>2026-03-22T12:08:25.001Z</time></trkpt><trkpt lat="43.2173343" lon="13.0811851"><ele>309.0</ele><time>2026-03-22T12:08:26.002Z</time></trkpt><trkpt lat="43.2173582" lon="13.0809856"><ele>303.0</ele><time>2026-03-22T12:08:27.002Z</time></trkpt><trkpt lat="43.217384" lon="13.0807814"><ele>297.0</ele><time>2026-03-22T12:08:28.002Z</time></trkpt><trkpt lat="43.21741" lon="13.080578"><ele>291.0</ele><time>2026-03-22T12:08:29.001Z</time></trkpt><trkpt lat="43.217435" lon="13.0803898"><ele>285.0</ele><time>2026-03-22T12:08:30.002Z</time></trkpt><trkpt lat="43.2174629" lon="13.0802103"><ele>284.6</ele><time>2026-03-22T12:08:31.002Z</time></trkpt><trkpt lat="43.2175013" lon="13.0800656"><ele>284.2</ele><time>2026-03-22T12:08:32.002Z</time></trkpt><trkpt lat="43.2175573" lon="13.0799476"><ele>283.8</ele><time>2026-03-22T12:08:33.001Z</time></trkpt><trkpt lat="43.2176379" lon="13.0798549"><ele>283.4</ele><time>2026-03-22T12:08:34.001Z</time></trkpt><trkpt lat="43.2177291" lon="13.0797958"><ele>283.0</ele><time>2026-03-22T12:08:35.002Z</time></trkpt><trkpt lat="43.2178303" lon="13.0797588"><ele>282.2</ele><time>2026-03-22T12:08:36.001Z</time></trkpt><trkpt lat="43.217935" lon="13.0797424"><ele>281.4</ele><time>2026-03-22T12:08:37.001Z</time></trkpt><trkpt lat="43.218034" lon="13.0797524"><ele>280.59999999999997</ele><time>2026-03-22T12:08:38.001Z</time></trkpt><trkpt lat="43.2181263" lon="13.0798006"><ele>279.8</ele><time>2026-03-22T12:08:39.001Z</time></trkpt><trkpt lat="43.2182016" lon="13.0798818"><ele>279.0</ele><time>2026-03-22T12:08:40.001Z</time></trkpt><trkpt lat="43.2182697" lon="13.0799842"><ele>278.0</ele><time>2026-03-22T12:08:41.002Z</time></trkpt><trkpt lat="43.2183357" lon="13.0800951"><ele>277.0</ele><time>2026-03-22T12:08:42.002Z</time></trkpt><trkpt lat="43.2184023" lon="13.080213"><ele>276.0</ele><time>2026-03-22T12:08:43.001Z</time></trkpt><trkpt lat="43.2184662" lon="13.0803409"><ele>275.0</ele><time>2026-03-22T12:08:44.001Z</time></trkpt><trkpt lat="43.218519" lon="13.0804739"><ele>274.0</ele><time>2026-03-22T12:08:45.002Z</time></trkpt><trkpt lat="43.2185684" lon="13.0806096"><ele>274.0</ele><time>2026-03-22T12:08:46.002Z</time></trkpt><trkpt lat="43.2186199" lon="13.0807533"><ele>274.0</ele><time>2026-03-22T12:08:47.002Z</time></trkpt><trkpt lat="43.2186683" lon="13.0809077"><ele>274.0</ele><time>2026-03-22T12:08:48.002Z</time></trkpt><trkpt lat="43.2187186" lon="13.0810734"><ele>274.0</ele><time>2026-03-22T12:08:49.001Z</time></trkpt><trkpt lat="43.2187709" lon="13.0812458"><ele>274.25</ele><time>2026-03-22T12:08:50.001Z</time></trkpt><trkpt lat="43.2188253" lon="13.0814219"><ele>274.5</ele><time>2026-03-22T12:08:51.001Z</time></trkpt><trkpt lat="43.218879" lon="13.081602"><ele>274.75</ele><time>2026-03-22T12:08:52.001Z</time></trkpt><trkpt lat="43.2189314" lon="13.0817831"><ele>275.0</ele><time>2026-03-22T12:08:53.001Z</time></trkpt><trkpt lat="43.2189846" lon="13.0819588"><ele>274.0</ele><time>2026-03-22T12:08:54.001Z</time></trkpt><trkpt lat="43.2190388" lon="13.0821334"><ele>273.0</ele><time>2026-03-22T12:08:55.002Z</time></trkpt><trkpt lat="43.2190926" lon="13.0823049"><ele>272.0</ele><time>2026-03-22T12:08:56.002Z</time></trkpt><trkpt lat="43.2191439" lon="13.0824781"><ele>271.0</ele><time>2026-03-22T12:08:57.002Z</time></trkpt><trkpt lat="43.2191931" lon="13.0826537"><ele>271.0</ele><time>2026-03-22T12:08:58.002Z</time></trkpt><trkpt lat="43.219243" lon="13.0828141"><ele>271.0</ele><time>2026-03-22T12:08:59.001Z</time></trkpt><trkpt lat="43.2192976" lon="13.0829664"><ele>271.0</ele><time>2026-03-22T12:09:00.001Z</time></trkpt><trkpt lat="43.2193694" lon="13.0831206"><ele>271.0</ele><time>2026-03-22T12:09:01.001Z</time></trkpt><trkpt lat="43.2194557" lon="13.0832652"><ele>271.0</ele><time>2026-03-22T12:09:02.002Z</time></trkpt><trkpt lat="43.219547" lon="13.0834059"><ele>271.0</ele><time>2026-03-22T12:09:03.002Z</time></trkpt><trkpt lat="43.2196427" lon="13.0835392"><ele>271.0</ele><time>2026-03-22T12:09:04.001Z</time></trkpt><trkpt lat="43.2197427" lon="13.0836741"><ele>271.0</ele><time>2026-03-22T12:09:05.001Z</time></trkpt><trkpt lat="43.2198277" lon="13.0838111"><ele>271.0</ele><time>2026-03-22T12:09:06.002Z</time></trkpt><trkpt lat="43.2198987" lon="13.0839565"><ele>271.0</ele><time>2026-03-22T12:09:07.002Z</time></trkpt><trkpt lat="43.2199549" lon="13.0841107"><ele>271.0</ele><time>2026-03-22T12:09:08.001Z</time></trkpt><trkpt lat="43.219985" lon="13.0842626"><ele>271.0</ele><time>2026-03-22T12:09:09.002Z</time></trkpt><trkpt lat="43.219989" lon="13.0844154"><ele>272.25</ele><time>2026-03-22T12:09:10.001Z</time></trkpt><trkpt lat="43.2199642" lon="13.0845653"><ele>273.5</ele><time>2026-03-22T12:09:11.001Z</time></trkpt><trkpt lat="43.2199282" lon="13.0847314"><ele>274.75</ele><time>2026-03-22T12:09:12.002Z</time></trkpt><trkpt lat="43.2199048" lon="13.0848934"><ele>276.0</ele><time>2026-03-22T12:09:13.002Z</time></trkpt><trkpt lat="43.2198919" lon="13.0850377"><ele>276.0</ele><time>2026-03-22T12:09:14.001Z</time></trkpt><trkpt lat="43.2198865" lon="13.0851379"><ele>276.0</ele><time>2026-03-22T12:09:15.001Z</time></trkpt><trkpt lat="43.2199049" lon="13.0852826"><ele>276.0</ele><time>2026-03-22T12:09:17.002Z</time></trkpt><trkpt lat="43.2199681" lon="13.0853613"><ele>276.0</ele><time>2026-03-22T12:09:19.001Z</time></trkpt><trkpt lat="43.2200981" lon="13.0853605"><ele>276.0</ele><time>2026-03-22T12:09:21.001Z</time></trkpt><trkpt lat="43.2201776" lon="13.0853458"><ele>276.0</ele><time>2026-03-22T12:09:22.002Z</time></trkpt><trkpt lat="43.2202673" lon="13.085376"><ele>276.0</ele><time>2026-03-22T12:09:23.002Z</time></trkpt><trkpt lat="43.2203586" lon="13.0854303"><ele>276.0</ele><time>2026-03-22T12:09:24.002Z</time></trkpt><trkpt lat="43.2204343" lon="13.0854798"><ele>276.0</ele><time>2026-03-22T12:09:25.001Z</time></trkpt><trkpt lat="43.2205003" lon="13.0855331"><ele>276.0</ele><time>2026-03-22T12:09:26.001Z</time></trkpt><trkpt lat="43.2205668" lon="13.0855971"><ele>276.0</ele><time>2026-03-22T12:09:27.001Z</time></trkpt><trkpt lat="43.220633" lon="13.085668"><ele>275.8333333333333</ele><time>2026-03-22T12:09:28.001Z</time></trkpt><trkpt lat="43.220698" lon="13.0857263"><ele>275.6666666666667</ele><time>2026-03-22T12:09:29.002Z</time></trkpt><trkpt lat="43.2207625" lon="13.0857764"><ele>275.5</ele><time>2026-03-22T12:09:30.002Z</time></trkpt><trkpt lat="43.220822" lon="13.0858182"><ele>275.33333333333337</ele><time>2026-03-22T12:09:31.002Z</time></trkpt><trkpt lat="43.2209191" lon="13.085877"><ele>275.1666666666667</ele><time>2026-03-22T12:09:33.001Z</time></trkpt><trkpt lat="43.2209761" lon="13.0859214"><ele>275.0</ele><time>2026-03-22T12:09:35.002Z</time></trkpt><trkpt lat="43.2210428" lon="13.0860156"><ele>275.0</ele><time>2026-03-22T12:09:37.001Z</time></trkpt><trkpt lat="43.2210755" lon="13.0861223"><ele>275.0</ele><time>2026-03-22T12:09:38.001Z</time></trkpt><trkpt lat="43.2210944" lon="13.0862621"><ele>275.0</ele><time>2026-03-22T12:09:39.002Z</time></trkpt><trkpt lat="43.2211127" lon="13.0864227"><ele>275.0</ele><time>2026-03-22T12:09:40.001Z</time></trkpt><trkpt lat="43.2211363" lon="13.086604"><ele>275.0</ele><time>2026-03-22T12:09:41.002Z</time></trkpt><trkpt lat="43.2211667" lon="13.0868151"><ele>274.6666666666667</ele><time>2026-03-22T12:09:42.002Z</time></trkpt><trkpt lat="43.2211957" lon="13.0870345"><ele>274.3333333333333</ele><time>2026-03-22T12:09:43.002Z</time></trkpt><trkpt lat="43.2212217" lon="13.0872485"><ele>274.0</ele><time>2026-03-22T12:09:44.001Z</time></trkpt><trkpt lat="43.2212461" lon="13.0874594"><ele>274.0</ele><time>2026-03-22T12:09:45.002Z</time></trkpt><trkpt lat="43.2212594" lon="13.0876598"><ele>274.0</ele><time>2026-03-22T12:09:46.002Z</time></trkpt><trkpt lat="43.22126" lon="13.0878614"><ele>274.0</ele><time>2026-03-22T12:09:47.001Z</time></trkpt><trkpt lat="43.2212343" lon="13.0880628"><ele>274.0</ele><time>2026-03-22T12:09:48.001Z</time></trkpt><trkpt lat="43.221183" lon="13.0882564"><ele>275.0</ele><time>2026-03-22T12:09:49.002Z</time></trkpt><trkpt lat="43.2211031" lon="13.0884332"><ele>276.0</ele><time>2026-03-22T12:09:50.002Z</time></trkpt><trkpt lat="43.2209964" lon="13.0885823"><ele>277.0</ele><time>2026-03-22T12:09:51.002Z</time></trkpt><trkpt lat="43.2208772" lon="13.088702"><ele>277.0</ele><time>2026-03-22T12:09:52.002Z</time></trkpt><trkpt lat="43.2207565" lon="13.0888118"><ele>277.0</ele><time>2026-03-22T12:09:53.001Z</time></trkpt><trkpt lat="43.2206443" lon="13.088927"><ele>277.0</ele><time>2026-03-22T12:09:54.001Z</time></trkpt><trkpt lat="43.2205418" lon="13.0890562"><ele>277.0</ele><time>2026-03-22T12:09:55.001Z</time></trkpt><trkpt lat="43.2204525" lon="13.0892055"><ele>276.0</ele><time>2026-03-22T12:09:56Z</time></trkpt><trkpt lat="43.2203791" lon="13.0893781"><ele>275.0</ele><time>2026-03-22T12:09:57.002Z</time></trkpt><trkpt lat="43.2203353" lon="13.0895726"><ele>274.0</ele><time>2026-03-22T12:09:58.001Z</time></trkpt><trkpt lat="43.2203238" lon="13.0897935"><ele>274.0</ele><time>2026-03-22T12:09:59.002Z</time></trkpt><trkpt lat="43.2203274" lon="13.0900204"><ele>274.0</ele><time>2026-03-22T12:10:00.002Z</time></trkpt><trkpt lat="43.2203395" lon="13.0902504"><ele>274.0</ele><time>2026-03-22T12:10:01.001Z</time></trkpt><trkpt lat="43.2203641" lon="13.090478"><ele>274.0</ele><time>2026-03-22T12:10:02.001Z</time></trkpt><trkpt lat="43.2203983" lon="13.090701"><ele>274.0</ele><time>2026-03-22T12:10:03.002Z</time></trkpt><trkpt lat="43.2204402" lon="13.0909222"><ele>274.0</ele><time>2026-03-22T12:10:04.002Z</time></trkpt><trkpt lat="43.220484" lon="13.0911436"><ele>273.66666666666663</ele><time>2026-03-22T12:10:05.001Z</time></trkpt><trkpt lat="43.2205299" lon="13.091367"><ele>273.3333333333333</ele><time>2026-03-22T12:10:06.002Z</time></trkpt><trkpt lat="43.2205775" lon="13.0915911"><ele>273.0</ele><time>2026-03-22T12:10:07.001Z</time></trkpt><trkpt lat="43.2206257" lon="13.09182"><ele>275.3333333333333</ele><time>2026-03-22T12:10:08.002Z</time></trkpt><trkpt lat="43.220673" lon="13.0920533"><ele>277.66666666666663</ele><time>2026-03-22T12:10:09.001Z</time></trkpt><trkpt lat="43.2207197" lon="13.0922946"><ele>280.0</ele><time>2026-03-22T12:10:10.002Z</time></trkpt><trkpt lat="43.220762" lon="13.0925429"><ele>280.0</ele><time>2026-03-22T12:10:11.002Z</time></trkpt><trkpt lat="43.2207915" lon="13.0928001"><ele>280.0</ele><time>2026-03-22T12:10:12.002Z</time></trkpt><trkpt lat="43.2208111" lon="13.0930656"><ele>280.0</ele><time>2026-03-22T12:10:13.001Z</time></trkpt><trkpt lat="43.220828" lon="13.0933382"><ele>279.3333333333333</ele><time>2026-03-22T12:10:14.001Z</time></trkpt><trkpt lat="43.2208422" lon="13.0936169"><ele>278.6666666666667</ele><time>2026-03-22T12:10:15.001Z</time></trkpt><trkpt lat="43.220859" lon="13.0938933"><ele>278.0</ele><time>2026-03-22T12:10:16.001Z</time></trkpt><trkpt lat="43.2208795" lon="13.0941579"><ele>277.33333333333337</ele><time>2026-03-22T12:10:17Z</time></trkpt><trkpt lat="43.2209027" lon="13.0944103"><ele>276.6666666666667</ele><time>2026-03-22T12:10:18.001Z</time></trkpt><trkpt lat="43.2209255" lon="13.0946478"><ele>276.0</ele><time>2026-03-22T12:10:19.001Z</time></trkpt><trkpt lat="43.2209455" lon="13.0948706"><ele>276.0</ele><time>2026-03-22T12:10:20.001Z</time></trkpt><trkpt lat="43.2209634" lon="13.0950795"><ele>276.0</ele><time>2026-03-22T12:10:21.002Z</time></trkpt><trkpt lat="43.220977" lon="13.0952862"><ele>276.0</ele><time>2026-03-22T12:10:22.002Z</time></trkpt><trkpt lat="43.2209852" lon="13.0954945"><ele>276.0</ele><time>2026-03-22T12:10:23.002Z</time></trkpt><trkpt lat="43.2209857" lon="13.0957037"><ele>276.0</ele><time>2026-03-22T12:10:24.001Z</time></trkpt><trkpt lat="43.2209732" lon="13.0959163"><ele>276.0</ele><time>2026-03-22T12:10:25.001Z</time></trkpt><trkpt lat="43.2209485" lon="13.0961267"><ele>276.0</ele><time>2026-03-22T12:10:26.001Z</time></trkpt><trkpt lat="43.220916" lon="13.0963345"><ele>276.0</ele><time>2026-03-22T12:10:27.001Z</time></trkpt><trkpt lat="43.2208819" lon="13.0965337"><ele>276.0</ele><time>2026-03-22T12:10:28.002Z</time></trkpt><trkpt lat="43.2208446" lon="13.0967264"><ele>276.0</ele><time>2026-03-22T12:10:29.002Z</time></trkpt><trkpt lat="43.2208042" lon="13.0969196"><ele>276.0</ele><time>2026-03-22T12:10:30.002Z</time></trkpt><trkpt lat="43.2207611" lon="13.0971144"><ele>276.0</ele><time>2026-03-22T12:10:31.001Z</time></trkpt><trkpt lat="43.2207174" lon="13.0973125"><ele>276.0</ele><time>2026-03-22T12:10:32Z</time></trkpt><trkpt lat="43.2206799" lon="13.0975177"><ele>275.0</ele><time>2026-03-22T12:10:33.001Z</time></trkpt><trkpt lat="43.2206489" lon="13.0977233"><ele>274.0</ele><time>2026-03-22T12:10:34.002Z</time></trkpt><trkpt lat="43.2206244" lon="13.0979218"><ele>273.0</ele><time>2026-03-22T12:10:35.001Z</time></trkpt><trkpt lat="43.2206026" lon="13.0981221"><ele>272.0</ele><time>2026-03-22T12:10:36.001Z</time></trkpt><trkpt lat="43.2205843" lon="13.0983277"><ele>272.0</ele><time>2026-03-22T12:10:37.001Z</time></trkpt><trkpt lat="43.220569" lon="13.0985355"><ele>272.0</ele><time>2026-03-22T12:10:38.001Z</time></trkpt><trkpt lat="43.2205601" lon="13.0987475"><ele>272.0</ele><time>2026-03-22T12:10:39.001Z</time></trkpt><trkpt lat="43.2205684" lon="13.0989638"><ele>271.6666666666667</ele><time>2026-03-22T12:10:40.002Z</time></trkpt><trkpt lat="43.2206035" lon="13.0991881"><ele>271.3333333333333</ele><time>2026-03-22T12:10:41.002Z</time></trkpt><trkpt lat="43.2206575" lon="13.0994142"><ele>271.0</ele><time>2026-03-22T12:10:42.001Z</time></trkpt><trkpt lat="43.2207052" lon="13.0996202"><ele>272.0</ele><time>2026-03-22T12:10:43.001Z</time></trkpt><trkpt lat="43.2207445" lon="13.0998123"><ele>273.0</ele><time>2026-03-22T12:10:44.001Z</time></trkpt><trkpt lat="43.2207825" lon="13.0999935"><ele>274.0</ele><time>2026-03-22T12:10:45.002Z</time></trkpt><trkpt lat="43.2208242" lon="13.1001758"><ele>275.0</ele><time>2026-03-22T12:10:46.002Z</time></trkpt><trkpt lat="43.2208844" lon="13.1003494"><ele>275.0</ele><time>2026-03-22T12:10:47.001Z</time></trkpt><trkpt lat="43.2209717" lon="13.1005017"><ele>275.0</ele><time>2026-03-22T12:10:48.002Z</time></trkpt><trkpt lat="43.2210866" lon="13.1006226"><ele>275.0</ele><time>2026-03-22T12:10:49.001Z</time></trkpt><trkpt lat="43.2212221" lon="13.1007132"><ele>275.0</ele><time>2026-03-22T12:10:50.001Z</time></trkpt><trkpt lat="43.221371" lon="13.1007768"><ele>276.6666666666667</ele><time>2026-03-22T12:10:51.001Z</time></trkpt><trkpt lat="43.2215222" lon="13.1008285"><ele>278.3333333333333</ele><time>2026-03-22T12:10:52.001Z</time></trkpt><trkpt lat="43.2216707" lon="13.1008822"><ele>280.0</ele><time>2026-03-22T12:10:53.002Z</time></trkpt><trkpt lat="43.2218128" lon="13.1009363"><ele>280.0</ele><time>2026-03-22T12:10:54.002Z</time></trkpt><trkpt lat="43.2219518" lon="13.1009945"><ele>280.0</ele><time>2026-03-22T12:10:55.001Z</time></trkpt><trkpt lat="43.2220835" lon="13.1010582"><ele>280.0</ele><time>2026-03-22T12:10:56.001Z</time></trkpt><trkpt lat="43.2222086" lon="13.1011312"><ele>280.0</ele><time>2026-03-22T12:10:57.002Z</time></trkpt><trkpt lat="43.2223294" lon="13.1012212"><ele>279.5</ele><time>2026-03-22T12:10:58.002Z</time></trkpt><trkpt lat="43.2224452" lon="13.1013338"><ele>279.0</ele><time>2026-03-22T12:10:59.002Z</time></trkpt><trkpt lat="43.2225503" lon="13.1014689"><ele>278.5</ele><time>2026-03-22T12:11:00.001Z</time></trkpt><trkpt lat="43.2226443" lon="13.1016192"><ele>278.0</ele><time>2026-03-22T12:11:01.001Z</time></trkpt><trkpt lat="43.2227286" lon="13.1017741"><ele>278.0</ele><time>2026-03-22T12:11:02.001Z</time></trkpt><trkpt lat="43.2227986" lon="13.1019372"><ele>278.0</ele><time>2026-03-22T12:11:03.002Z</time></trkpt><trkpt lat="43.222851" lon="13.1021156"><ele>278.0</ele><time>2026-03-22T12:11:04.001Z</time></trkpt><trkpt lat="43.2228871" lon="13.1023034"><ele>278.0</ele><time>2026-03-22T12:11:05.002Z</time></trkpt><trkpt lat="43.2229088" lon="13.1024938"><ele>275.5</ele><time>2026-03-22T12:11:06.002Z</time></trkpt><trkpt lat="43.2229176" lon="13.102685"><ele>273.0</ele><time>2026-03-22T12:11:07.002Z</time></trkpt><trkpt lat="43.2229139" lon="13.1028858"><ele>270.5</ele><time>2026-03-22T12:11:08Z</time></trkpt><trkpt lat="43.2228995" lon="13.1030957"><ele>268.0</ele><time>2026-03-22T12:11:09.002Z</time></trkpt><trkpt lat="43.2228734" lon="13.1033139"><ele>267.0</ele><time>2026-03-22T12:11:10.001Z</time></trkpt><trkpt lat="43.2228448" lon="13.1035413"><ele>266.0</ele><time>2026-03-22T12:11:11.001Z</time></trkpt><trkpt lat="43.2228201" lon="13.1037788"><ele>265.0</ele><time>2026-03-22T12:11:12.001Z</time></trkpt><trkpt lat="43.2228013" lon="13.1040334"><ele>266.66666666666663</ele><time>2026-03-22T12:11:13.001Z</time></trkpt><trkpt lat="43.2227884" lon="13.1043181"><ele>268.3333333333333</ele><time>2026-03-22T12:11:14.001Z</time></trkpt><trkpt lat="43.222781" lon="13.1046285"><ele>270.0</ele><time>2026-03-22T12:11:15.001Z</time></trkpt><trkpt lat="43.2227706" lon="13.1049669"><ele>270.5</ele><time>2026-03-22T12:11:16.001Z</time></trkpt><trkpt lat="43.2227584" lon="13.1053222"><ele>271.0</ele><time>2026-03-22T12:11:17.002Z</time></trkpt><trkpt lat="43.2227502" lon="13.1056652"><ele>271.0</ele><time>2026-03-22T12:11:18.002Z</time></trkpt><trkpt lat="43.2227449" lon="13.1060089"><ele>271.0</ele><time>2026-03-22T12:11:19.002Z</time></trkpt><trkpt lat="43.2227432" lon="13.1063597"><ele>271.0</ele><time>2026-03-22T12:11:20.002Z</time></trkpt><trkpt lat="43.2227425" lon="13.1067213"><ele>271.0</ele><time>2026-03-22T12:11:21.002Z</time></trkpt><trkpt lat="43.222747" lon="13.107077"><ele>269.0</ele><time>2026-03-22T12:11:22.002Z</time></trkpt><trkpt lat="43.2227582" lon="13.1074335"><ele>267.0</ele><time>2026-03-22T12:11:23.002Z</time></trkpt><trkpt lat="43.2227759" lon="13.1077862"><ele>267.0</ele><time>2026-03-22T12:11:24.002Z</time></trkpt><trkpt lat="43.2227988" lon="13.1081324"><ele>267.0</ele><time>2026-03-22T12:11:25.001Z</time></trkpt><trkpt lat="43.2228292" lon="13.108461"><ele>266.0</ele><time>2026-03-22T12:11:26.002Z</time></trkpt><trkpt lat="43.2228658" lon="13.1087745"><ele>265.0</ele><time>2026-03-22T12:11:27.001Z</time></trkpt><trkpt lat="43.2229107" lon="13.1090834"><ele>263.66666666666663</ele><time>2026-03-22T12:11:28.001Z</time></trkpt><trkpt lat="43.2229614" lon="13.1093844"><ele>262.3333333333333</ele><time>2026-03-22T12:11:29.002Z</time></trkpt><trkpt lat="43.2230164" lon="13.1096698"><ele>261.0</ele><time>2026-03-22T12:11:30.001Z</time></trkpt><trkpt lat="43.2230765" lon="13.1099513"><ele>261.0</ele><time>2026-03-22T12:11:31.001Z</time></trkpt><trkpt lat="43.223135" lon="13.110228"><ele>261.0</ele><time>2026-03-22T12:11:32.001Z</time></trkpt><trkpt lat="43.2231956" lon="13.1105005"><ele>261.0</ele><time>2026-03-22T12:11:33.002Z</time></trkpt><trkpt lat="43.2232582" lon="13.1107673"><ele>264.6666666666667</ele><time>2026-03-22T12:11:34.002Z</time></trkpt><trkpt lat="43.2233198" lon="13.1110285"><ele>268.33333333333337</ele><time>2026-03-22T12:11:35.001Z</time></trkpt><trkpt lat="43.2233797" lon="13.1112831"><ele>272.0</ele><time>2026-03-22T12:11:36.001Z</time></trkpt><trkpt lat="43.2234359" lon="13.1115256"><ele>271.33333333333337</ele><time>2026-03-22T12:11:37.002Z</time></trkpt><trkpt lat="43.2234924" lon="13.1117677"><ele>270.6666666666667</ele><time>2026-03-22T12:11:38.001Z</time></trkpt><trkpt lat="43.2235483" lon="13.1120081"><ele>270.0</ele><time>2026-03-22T12:11:39Z</time></trkpt><trkpt lat="43.2236041" lon="13.1122437"><ele>268.0</ele><time>2026-03-22T12:11:40.001Z</time></trkpt><trkpt lat="43.2236583" lon="13.1124721"><ele>266.0</ele><time>2026-03-22T12:11:41.001Z</time></trkpt><trkpt lat="43.2237095" lon="13.1126951"><ele>264.0</ele><time>2026-03-22T12:11:42.001Z</time></trkpt><trkpt lat="43.2237619" lon="13.1129178"><ele>264.0</ele><time>2026-03-22T12:11:43.001Z</time></trkpt><trkpt lat="43.2238221" lon="13.113141"><ele>264.0</ele><time>2026-03-22T12:11:44.002Z</time></trkpt><trkpt lat="43.2238913" lon="13.1133639"><ele>264.0</ele><time>2026-03-22T12:11:45.002Z</time></trkpt><trkpt lat="43.2239687" lon="13.1135847"><ele>268.3333333333333</ele><time>2026-03-22T12:11:46.002Z</time></trkpt><trkpt lat="43.2240503" lon="13.1138035"><ele>272.66666666666663</ele><time>2026-03-22T12:11:47.002Z</time></trkpt><trkpt lat="43.2241294" lon="13.1140214"><ele>277.0</ele><time>2026-03-22T12:11:48.002Z</time></trkpt><trkpt lat="43.2242064" lon="13.1142371"><ele>277.0</ele><time>2026-03-22T12:11:49.001Z</time></trkpt><trkpt lat="43.2242798" lon="13.114448"><ele>277.0</ele><time>2026-03-22T12:11:50.001Z</time></trkpt><trkpt lat="43.2243476" lon="13.1146629"><ele>277.0</ele><time>2026-03-22T12:11:51.002Z</time></trkpt><trkpt lat="43.2244107" lon="13.1148913"><ele>273.3333333333333</ele><time>2026-03-22T12:11:52.001Z</time></trkpt><trkpt lat="43.2244593" lon="13.1151352"><ele>269.6666666666667</ele><time>2026-03-22T12:11:53Z</time></trkpt><trkpt lat="43.224496" lon="13.1153895"><ele>266.0</ele><time>2026-03-22T12:11:54.002Z</time></trkpt><trkpt lat="43.2245212" lon="13.1156498"><ele>264.33333333333337</ele><time>2026-03-22T12:11:55.002Z</time></trkpt><trkpt lat="43.2245326" lon="13.11591"><ele>262.6666666666667</ele><time>2026-03-22T12:11:56.001Z</time></trkpt><trkpt lat="43.2245304" lon="13.1161677"><ele>261.0</ele><time>2026-03-22T12:11:57.001Z</time></trkpt><trkpt lat="43.2245164" lon="13.1164197"><ele>261.3333333333333</ele><time>2026-03-22T12:11:58.001Z</time></trkpt><trkpt lat="43.2244952" lon="13.1166651"><ele>261.66666666666663</ele><time>2026-03-22T12:11:59.002Z</time></trkpt><trkpt lat="43.2244672" lon="13.1169089"><ele>262.0</ele><time>2026-03-22T12:12:00.002Z</time></trkpt><trkpt lat="43.2244359" lon="13.1171534"><ele>262.3333333333333</ele><time>2026-03-22T12:12:01.001Z</time></trkpt><trkpt lat="43.2244027" lon="13.1174024"><ele>262.6666666666667</ele><time>2026-03-22T12:12:02.001Z</time></trkpt><trkpt lat="43.2243741" lon="13.1176489"><ele>263.0</ele><time>2026-03-22T12:12:03.001Z</time></trkpt><trkpt lat="43.224348" lon="13.1178902"><ele>263.0</ele><time>2026-03-22T12:12:04.001Z</time></trkpt><trkpt lat="43.2243214" lon="13.1181308"><ele>263.0</ele><time>2026-03-22T12:12:05.001Z</time></trkpt><trkpt lat="43.2242961" lon="13.1183651"><ele>263.0</ele><time>2026-03-22T12:12:06.001Z</time></trkpt><trkpt lat="43.224269" lon="13.1185944"><ele>264.0</ele><time>2026-03-22T12:12:07.002Z</time></trkpt><trkpt lat="43.2242418" lon="13.1188221"><ele>265.0</ele><time>2026-03-22T12:12:08.002Z</time></trkpt><trkpt lat="43.2242147" lon="13.1190487"><ele>266.0</ele><time>2026-03-22T12:12:09Z</time></trkpt><trkpt lat="43.2241905" lon="13.119276"><ele>267.6666666666667</ele><time>2026-03-22T12:12:10.001Z</time></trkpt><trkpt lat="43.224168" lon="13.1195064"><ele>269.3333333333333</ele><time>2026-03-22T12:12:11.001Z</time></trkpt><trkpt lat="43.2241455" lon="13.119739"><ele>271.0</ele><time>2026-03-22T12:12:12.001Z</time></trkpt><trkpt lat="43.2241222" lon="13.1199746"><ele>272.0</ele><time>2026-03-22T12:12:13.001Z</time></trkpt><trkpt lat="43.2240986" lon="13.1202125"><ele>273.0</ele><time>2026-03-22T12:12:14.001Z</time></trkpt><trkpt lat="43.2240808" lon="13.1204525"><ele>274.0</ele><time>2026-03-22T12:12:15.002Z</time></trkpt><trkpt lat="43.2240733" lon="13.1206937"><ele>275.0</ele><time>2026-03-22T12:12:16.002Z</time></trkpt><trkpt lat="43.2240671" lon="13.1209347"><ele>276.0</ele><time>2026-03-22T12:12:17.002Z</time></trkpt><trkpt lat="43.2240628" lon="13.1211773"><ele>277.0</ele><time>2026-03-22T12:12:18.002Z</time></trkpt><trkpt lat="43.2240607" lon="13.1214239"><ele>277.3333333333333</ele><time>2026-03-22T12:12:19.001Z</time></trkpt><trkpt lat="43.2240594" lon="13.1216754"><ele>277.6666666666667</ele><time>2026-03-22T12:12:20.001Z</time></trkpt><trkpt lat="43.2240562" lon="13.1219315"><ele>278.0</ele><time>2026-03-22T12:12:21.002Z</time></trkpt><trkpt lat="43.2240475" lon="13.1221912"><ele>278.6666666666667</ele><time>2026-03-22T12:12:22.002Z</time></trkpt><trkpt lat="43.2240298" lon="13.1224501"><ele>279.3333333333333</ele><time>2026-03-22T12:12:23.001Z</time></trkpt><trkpt lat="43.2240031" lon="13.1227081"><ele>280.0</ele><time>2026-03-22T12:12:24.001Z</time></trkpt><trkpt lat="43.2239724" lon="13.1229618"><ele>272.3333333333333</ele><time>2026-03-22T12:12:25.002Z</time></trkpt><trkpt lat="43.2239464" lon="13.1232068"><ele>264.6666666666667</ele><time>2026-03-22T12:12:26.001Z</time></trkpt><trkpt lat="43.2239205" lon="13.1234449"><ele>257.0</ele><time>2026-03-22T12:12:27.002Z</time></trkpt><trkpt lat="43.223895" lon="13.1236813"><ele>256.6666666666667</ele><time>2026-03-22T12:12:28.002Z</time></trkpt><trkpt lat="43.2238726" lon="13.1239189"><ele>256.3333333333333</ele><time>2026-03-22T12:12:29.002Z</time></trkpt><trkpt lat="43.2238547" lon="13.1241626"><ele>256.0</ele><time>2026-03-22T12:12:30.002Z</time></trkpt><trkpt lat="43.2238428" lon="13.1244118"><ele>255.66666666666666</ele><time>2026-03-22T12:12:31.002Z</time></trkpt><trkpt lat="43.223837" lon="13.1246646"><ele>255.33333333333331</ele><time>2026-03-22T12:12:32.001Z</time></trkpt><trkpt lat="43.223838" lon="13.1249191"><ele>255.0</ele><time>2026-03-22T12:12:33.001Z</time></trkpt><trkpt lat="43.2238389" lon="13.125163"><ele>254.66666666666669</ele><time>2026-03-22T12:12:34.001Z</time></trkpt><trkpt lat="43.2238444" lon="13.1254023"><ele>254.33333333333334</ele><time>2026-03-22T12:12:35.001Z</time></trkpt><trkpt lat="43.2238575" lon="13.1256363"><ele>254.0</ele><time>2026-03-22T12:12:36.001Z</time></trkpt><trkpt lat="43.2238761" lon="13.1258711"><ele>254.66666666666669</ele><time>2026-03-22T12:12:37.002Z</time></trkpt><trkpt lat="43.2238973" lon="13.1261034"><ele>255.33333333333331</ele><time>2026-03-22T12:12:38.001Z</time></trkpt><trkpt lat="43.2239216" lon="13.1263352"><ele>256.0</ele><time>2026-03-22T12:12:39.001Z</time></trkpt><trkpt lat="43.2239464" lon="13.1265675"><ele>254.66666666666666</ele><time>2026-03-22T12:12:40.001Z</time></trkpt><trkpt lat="43.2239746" lon="13.1267986"><ele>253.33333333333331</ele><time>2026-03-22T12:12:41Z</time></trkpt><trkpt lat="43.2240041" lon="13.1270323"><ele>252.0</ele><time>2026-03-22T12:12:42.002Z</time></trkpt><trkpt lat="43.2240326" lon="13.1272699"><ele>260.6666666666667</ele><time>2026-03-22T12:12:43.002Z</time></trkpt><trkpt lat="43.2240616" lon="13.1275124"><ele>269.33333333333337</ele><time>2026-03-22T12:12:44.002Z</time></trkpt><trkpt lat="43.2240872" lon="13.1277582"><ele>278.0</ele><time>2026-03-22T12:12:45.002Z</time></trkpt><trkpt lat="43.2241038" lon="13.1280073"><ele>277.33333333333337</ele><time>2026-03-22T12:12:46.002Z</time></trkpt><trkpt lat="43.2241134" lon="13.1282589"><ele>276.6666666666667</ele><time>2026-03-22T12:12:47.001Z</time></trkpt><trkpt lat="43.2241085" lon="13.1285025"><ele>276.0</ele><time>2026-03-22T12:12:48.002Z</time></trkpt><trkpt lat="43.2240868" lon="13.1287477"><ele>276.0</ele><time>2026-03-22T12:12:49.001Z</time></trkpt><trkpt lat="43.2240534" lon="13.1289866"><ele>276.0</ele><time>2026-03-22T12:12:50.002Z</time></trkpt><trkpt lat="43.2240107" lon="13.1292256"><ele>276.0</ele><time>2026-03-22T12:12:51.002Z</time></trkpt><trkpt lat="43.2239565" lon="13.1294611"><ele>268.3333333333333</ele><time>2026-03-22T12:12:52.001Z</time></trkpt><trkpt lat="43.2238934" lon="13.1296899"><ele>260.66666666666663</ele><time>2026-03-22T12:12:53.001Z</time></trkpt><trkpt lat="43.2238248" lon="13.1299159"><ele>253.0</ele><time>2026-03-22T12:12:54.002Z</time></trkpt><trkpt lat="43.2237547" lon="13.1301414"><ele>253.0</ele><time>2026-03-22T12:12:55.001Z</time></trkpt><trkpt lat="43.2236845" lon="13.130367"><ele>253.0</ele><time>2026-03-22T12:12:56.001Z</time></trkpt><trkpt lat="43.2236134" lon="13.1305919"><ele>253.0</ele><time>2026-03-22T12:12:57.001Z</time></trkpt><trkpt lat="43.2235434" lon="13.1308141"><ele>255.33333333333331</ele><time>2026-03-22T12:12:58.002Z</time></trkpt><trkpt lat="43.2234743" lon="13.1310345"><ele>257.6666666666667</ele><time>2026-03-22T12:12:59.001Z</time></trkpt><trkpt lat="43.2234078" lon="13.1312482"><ele>260.0</ele><time>2026-03-22T12:13:00.001Z</time></trkpt><trkpt lat="43.2233422" lon="13.1314537"><ele>261.6666666666667</ele><time>2026-03-22T12:13:01.002Z</time></trkpt><trkpt lat="43.2232793" lon="13.131656"><ele>263.3333333333333</ele><time>2026-03-22T12:13:02.002Z</time></trkpt><trkpt lat="43.2232225" lon="13.131863"><ele>265.0</ele><time>2026-03-22T12:13:03.001Z</time></trkpt><trkpt lat="43.2231746" lon="13.1320752"><ele>261.66666666666663</ele><time>2026-03-22T12:13:04.001Z</time></trkpt><trkpt lat="43.2231405" lon="13.1322957"><ele>258.3333333333333</ele><time>2026-03-22T12:13:05.001Z</time></trkpt><trkpt lat="43.2231112" lon="13.1325219"><ele>255.0</ele><time>2026-03-22T12:13:06.001Z</time></trkpt><trkpt lat="43.2230902" lon="13.1327555"><ele>255.0</ele><time>2026-03-22T12:13:07.002Z</time></trkpt><trkpt lat="43.2230764" lon="13.132993"><ele>255.0</ele><time>2026-03-22T12:13:08.002Z</time></trkpt><trkpt lat="43.2230705" lon="13.1332325"><ele>255.0</ele><time>2026-03-22T12:13:09.001Z</time></trkpt><trkpt lat="43.223075" lon="13.1334742"><ele>255.0</ele><time>2026-03-22T12:13:10.002Z</time></trkpt><trkpt lat="43.2230925" lon="13.1337153"><ele>255.0</ele><time>2026-03-22T12:13:11.002Z</time></trkpt><trkpt lat="43.2231194" lon="13.1339561"><ele>255.0</ele><time>2026-03-22T12:13:12.002Z</time></trkpt><trkpt lat="43.2231548" lon="13.1341963"><ele>257.3333333333333</ele><time>2026-03-22T12:13:13.002Z</time></trkpt><trkpt lat="43.2231961" lon="13.1344383"><ele>259.66666666666663</ele><time>2026-03-22T12:13:14.001Z</time></trkpt><trkpt lat="43.2232356" lon="13.1346695"><ele>262.0</ele><time>2026-03-22T12:13:15.001Z</time></trkpt><trkpt lat="43.2232776" lon="13.1348922"><ele>262.0</ele><time>2026-03-22T12:13:16.001Z</time></trkpt><trkpt lat="43.2233219" lon="13.1351136"><ele>262.0</ele><time>2026-03-22T12:13:17.002Z</time></trkpt><trkpt lat="43.2233706" lon="13.1353334"><ele>262.0</ele><time>2026-03-22T12:13:18.001Z</time></trkpt><trkpt lat="43.2234273" lon="13.1355517"><ele>260.3333333333333</ele><time>2026-03-22T12:13:19.002Z</time></trkpt><trkpt lat="43.2234899" lon="13.1357662"><ele>258.6666666666667</ele><time>2026-03-22T12:13:20.001Z</time></trkpt><trkpt lat="43.2235671" lon="13.1359727"><ele>257.0</ele><time>2026-03-22T12:13:21.002Z</time></trkpt><trkpt lat="43.2236558" lon="13.1361743"><ele>257.0</ele><time>2026-03-22T12:13:22.002Z</time></trkpt><trkpt lat="43.2237581" lon="13.1363734"><ele>257.0</ele><time>2026-03-22T12:13:23.002Z</time></trkpt><trkpt lat="43.2238765" lon="13.136563"><ele>257.0</ele><time>2026-03-22T12:13:24.002Z</time></trkpt><trkpt lat="43.2240088" lon="13.1367413"><ele>258.33333333333337</ele><time>2026-03-22T12:13:25.001Z</time></trkpt><trkpt lat="43.2241462" lon="13.136917"><ele>259.6666666666667</ele><time>2026-03-22T12:13:26.001Z</time></trkpt><trkpt lat="43.2242859" lon="13.137092"><ele>261.0</ele><time>2026-03-22T12:13:27.001Z</time></trkpt><trkpt lat="43.2244282" lon="13.137266"><ele>261.3333333333333</ele><time>2026-03-22T12:13:28.001Z</time></trkpt><trkpt lat="43.2245749" lon="13.1374384"><ele>261.66666666666663</ele><time>2026-03-22T12:13:29.001Z</time></trkpt><trkpt lat="43.2247274" lon="13.1376072"><ele>262.0</ele><time>2026-03-22T12:13:30.002Z</time></trkpt><trkpt lat="43.2248838" lon="13.1377745"><ele>262.0</ele><time>2026-03-22T12:13:31.002Z</time></trkpt><trkpt lat="43.2250409" lon="13.1379438"><ele>262.0</ele><time>2026-03-22T12:13:32.001Z</time></trkpt><trkpt lat="43.2251982" lon="13.1381122"><ele>262.0</ele><time>2026-03-22T12:13:33.001Z</time></trkpt><trkpt lat="43.2253558" lon="13.1382789"><ele>264.66666666666663</ele><time>2026-03-22T12:13:34.001Z</time></trkpt><trkpt lat="43.2255128" lon="13.1384442"><ele>267.3333333333333</ele><time>2026-03-22T12:13:35.001Z</time></trkpt><trkpt lat="43.225665" lon="13.138607"><ele>270.0</ele><time>2026-03-22T12:13:36.002Z</time></trkpt><trkpt lat="43.225811" lon="13.1387657"><ele>270.0</ele><time>2026-03-22T12:13:37.002Z</time></trkpt><trkpt lat="43.2259491" lon="13.1389174"><ele>270.0</ele><time>2026-03-22T12:13:38.002Z</time></trkpt><trkpt lat="43.2260796" lon="13.1390648"><ele>270.0</ele><time>2026-03-22T12:13:39.002Z</time></trkpt><trkpt lat="43.2262058" lon="13.1392189"><ele>272.6666666666667</ele><time>2026-03-22T12:13:40.001Z</time></trkpt><trkpt lat="43.2263299" lon="13.1393826"><ele>275.33333333333337</ele><time>2026-03-22T12:13:41.001Z</time></trkpt><trkpt lat="43.2264523" lon="13.1395575"><ele>278.0</ele><time>2026-03-22T12:13:42.001Z</time></trkpt><trkpt lat="43.2265736" lon="13.1397433"><ele>273.6666666666667</ele><time>2026-03-22T12:13:43.001Z</time></trkpt><trkpt lat="43.2266914" lon="13.1399365"><ele>269.3333333333333</ele><time>2026-03-22T12:13:44.001Z</time></trkpt><trkpt lat="43.2268062" lon="13.1401322"><ele>265.0</ele><time>2026-03-22T12:13:45.002Z</time></trkpt><trkpt lat="43.2269201" lon="13.1403318"><ele>265.0</ele><time>2026-03-22T12:13:46.002Z</time></trkpt><trkpt lat="43.227034" lon="13.1405341"><ele>265.0</ele><time>2026-03-22T12:13:47.001Z</time></trkpt><trkpt lat="43.2271486" lon="13.14074"><ele>265.0</ele><time>2026-03-22T12:13:48.002Z</time></trkpt><trkpt lat="43.2272575" lon="13.1409556"><ele>263.3333333333333</ele><time>2026-03-22T12:13:49.001Z</time></trkpt><trkpt lat="43.2273514" lon="13.1411861"><ele>261.6666666666667</ele><time>2026-03-22T12:13:50.002Z</time></trkpt><trkpt lat="43.227427" lon="13.1414335"><ele>260.0</ele><time>2026-03-22T12:13:51.001Z</time></trkpt><trkpt lat="43.2274855" lon="13.1416973"><ele>260.0</ele><time>2026-03-22T12:13:52.002Z</time></trkpt><trkpt lat="43.2275295" lon="13.1419797"><ele>260.0</ele><time>2026-03-22T12:13:53.001Z</time></trkpt><trkpt lat="43.2275556" lon="13.1422788"><ele>260.0</ele><time>2026-03-22T12:13:54.001Z</time></trkpt><trkpt lat="43.2275612" lon="13.1425951"><ele>259.0</ele><time>2026-03-22T12:13:55.002Z</time></trkpt><trkpt lat="43.2275569" lon="13.1429145"><ele>258.0</ele><time>2026-03-22T12:13:56.001Z</time></trkpt><trkpt lat="43.2275565" lon="13.1432207"><ele>259.3333333333333</ele><time>2026-03-22T12:13:57.002Z</time></trkpt><trkpt lat="43.2275619" lon="13.1435121"><ele>260.66666666666663</ele><time>2026-03-22T12:13:58.001Z</time></trkpt><trkpt lat="43.2275696" lon="13.1437876"><ele>262.0</ele><time>2026-03-22T12:13:59.001Z</time></trkpt><trkpt lat="43.2275753" lon="13.1440496"><ele>262.0</ele><time>2026-03-22T12:14:00.001Z</time></trkpt><trkpt lat="43.22758" lon="13.1442999"><ele>262.0</ele><time>2026-03-22T12:14:01.001Z</time></trkpt><trkpt lat="43.2275857" lon="13.1445443"><ele>262.0</ele><time>2026-03-22T12:14:02.001Z</time></trkpt><trkpt lat="43.2275905" lon="13.1447907"><ele>261.0</ele><time>2026-03-22T12:14:03.001Z</time></trkpt><trkpt lat="43.2275859" lon="13.1450407"><ele>260.0</ele><time>2026-03-22T12:14:04Z</time></trkpt><trkpt lat="43.2275621" lon="13.1452927"><ele>259.0</ele><time>2026-03-22T12:14:05.001Z</time></trkpt><trkpt lat="43.2275258" lon="13.1455386"><ele>258.3333333333333</ele><time>2026-03-22T12:14:06.002Z</time></trkpt><trkpt lat="43.2274809" lon="13.1457689"><ele>257.6666666666667</ele><time>2026-03-22T12:14:07.001Z</time></trkpt><trkpt lat="43.227424" lon="13.145988"><ele>257.0</ele><time>2026-03-22T12:14:08.002Z</time></trkpt><trkpt lat="43.2273606" lon="13.146202"><ele>256.0</ele><time>2026-03-22T12:14:09.001Z</time></trkpt><trkpt lat="43.2272958" lon="13.1464062"><ele>255.0</ele><time>2026-03-22T12:14:10.001Z</time></trkpt><trkpt lat="43.2272349" lon="13.1466023"><ele>254.0</ele><time>2026-03-22T12:14:11.002Z</time></trkpt><trkpt lat="43.2271754" lon="13.1468027"><ele>252.66666666666669</ele><time>2026-03-22T12:14:12.001Z</time></trkpt><trkpt lat="43.2271157" lon="13.1470089"><ele>251.33333333333331</ele><time>2026-03-22T12:14:13.002Z</time></trkpt><trkpt lat="43.2270609" lon="13.1472158"><ele>250.0</ele><time>2026-03-22T12:14:14.001Z</time></trkpt><trkpt lat="43.2270176" lon="13.1474166"><ele>250.0</ele><time>2026-03-22T12:14:15.002Z</time></trkpt><trkpt lat="43.2269844" lon="13.1476213"><ele>250.0</ele><time>2026-03-22T12:14:16.002Z</time></trkpt><trkpt lat="43.2269609" lon="13.1478323"><ele>250.0</ele><time>2026-03-22T12:14:17.002Z</time></trkpt><trkpt lat="43.226951" lon="13.1480479"><ele>250.0</ele><time>2026-03-22T12:14:18.001Z</time></trkpt><trkpt lat="43.2269567" lon="13.1482676"><ele>250.0</ele><time>2026-03-22T12:14:19.002Z</time></trkpt><trkpt lat="43.2269775" lon="13.1484924"><ele>250.0</ele><time>2026-03-22T12:14:20.001Z</time></trkpt><trkpt lat="43.2270084" lon="13.1487175"><ele>250.0</ele><time>2026-03-22T12:14:21.001Z</time></trkpt><trkpt lat="43.2270468" lon="13.1489453"><ele>250.0</ele><time>2026-03-22T12:14:22.002Z</time></trkpt><trkpt lat="43.2270941" lon="13.1491692"><ele>250.0</ele><time>2026-03-22T12:14:23.002Z</time></trkpt><trkpt lat="43.2271499" lon="13.1493835"><ele>250.33333333333331</ele><time>2026-03-22T12:14:24.002Z</time></trkpt><trkpt lat="43.2272128" lon="13.1495813"><ele>250.66666666666669</ele><time>2026-03-22T12:14:25.002Z</time></trkpt><trkpt lat="43.2272793" lon="13.1497739"><ele>251.0</ele><time>2026-03-22T12:14:26.001Z</time></trkpt><trkpt lat="43.2273525" lon="13.1499612"><ele>252.33333333333334</ele><time>2026-03-22T12:14:27.001Z</time></trkpt><trkpt lat="43.2274285" lon="13.1501481"><ele>253.66666666666669</ele><time>2026-03-22T12:14:28.001Z</time></trkpt><trkpt lat="43.2275078" lon="13.1503443"><ele>255.0</ele><time>2026-03-22T12:14:29.001Z</time></trkpt><trkpt lat="43.2275869" lon="13.1505439"><ele>252.66666666666669</ele><time>2026-03-22T12:14:30.001Z</time></trkpt><trkpt lat="43.2276665" lon="13.1507419"><ele>250.33333333333334</ele><time>2026-03-22T12:14:31.001Z</time></trkpt><trkpt lat="43.2277448" lon="13.1509302"><ele>248.0</ele><time>2026-03-22T12:14:32.002Z</time></trkpt><trkpt lat="43.2278171" lon="13.1511127"><ele>248.0</ele><time>2026-03-22T12:14:33.001Z</time></trkpt><trkpt lat="43.2278911" lon="13.1512997"><ele>248.0</ele><time>2026-03-22T12:14:34.001Z</time></trkpt><trkpt lat="43.2279689" lon="13.1514927"><ele>248.0</ele><time>2026-03-22T12:14:35.002Z</time></trkpt><trkpt lat="43.2280473" lon="13.1516847"><ele>247.0</ele><time>2026-03-22T12:14:36.001Z</time></trkpt><trkpt lat="43.2281251" lon="13.151875"><ele>246.0</ele><time>2026-03-22T12:14:37.002Z</time></trkpt><trkpt lat="43.2282041" lon="13.1520637"><ele>245.0</ele><time>2026-03-22T12:14:38.002Z</time></trkpt><trkpt lat="43.2282814" lon="13.1522561"><ele>247.66666666666669</ele><time>2026-03-22T12:14:39.001Z</time></trkpt><trkpt lat="43.2283587" lon="13.1524524"><ele>250.33333333333331</ele><time>2026-03-22T12:14:40.001Z</time></trkpt><trkpt lat="43.2284339" lon="13.1526437"><ele>253.0</ele><time>2026-03-22T12:14:41.001Z</time></trkpt><trkpt lat="43.2285074" lon="13.1528282"><ele>253.0</ele><time>2026-03-22T12:14:42.002Z</time></trkpt><trkpt lat="43.2285812" lon="13.1530129"><ele>253.0</ele><time>2026-03-22T12:14:43.002Z</time></trkpt><trkpt lat="43.2286561" lon="13.153197"><ele>253.0</ele><time>2026-03-22T12:14:44.002Z</time></trkpt><trkpt lat="43.2287309" lon="13.1533836"><ele>250.33333333333331</ele><time>2026-03-22T12:14:45.001Z</time></trkpt><trkpt lat="43.2288074" lon="13.1535726"><ele>247.66666666666669</ele><time>2026-03-22T12:14:46.002Z</time></trkpt><trkpt lat="43.2288831" lon="13.1537626"><ele>245.0</ele><time>2026-03-22T12:14:47.001Z</time></trkpt><trkpt lat="43.228957" lon="13.1539545"><ele>247.66666666666669</ele><time>2026-03-22T12:14:48.001Z</time></trkpt><trkpt lat="43.2290331" lon="13.1541428"><ele>250.33333333333331</ele><time>2026-03-22T12:14:49.002Z</time></trkpt><trkpt lat="43.2291067" lon="13.1543221"><ele>253.0</ele><time>2026-03-22T12:14:50.002Z</time></trkpt><trkpt lat="43.229179" lon="13.1544982"><ele>253.0</ele><time>2026-03-22T12:14:51.001Z</time></trkpt><trkpt lat="43.2292477" lon="13.1546703"><ele>253.0</ele><time>2026-03-22T12:14:52.002Z</time></trkpt><trkpt lat="43.2293152" lon="13.1548419"><ele>253.0</ele><time>2026-03-22T12:14:53.001Z</time></trkpt><trkpt lat="43.2293841" lon="13.1550152"><ele>253.0</ele><time>2026-03-22T12:14:54.001Z</time></trkpt><trkpt lat="43.2294527" lon="13.1551895"><ele>250.5</ele><time>2026-03-22T12:14:55.002Z</time></trkpt><trkpt lat="43.2295205" lon="13.1553617"><ele>248.0</ele><time>2026-03-22T12:14:56.002Z</time></trkpt><trkpt lat="43.2295859" lon="13.1555253"><ele>245.5</ele><time>2026-03-22T12:14:57.001Z</time></trkpt><trkpt lat="43.2296545" lon="13.1556895"><ele>243.0</ele><time>2026-03-22T12:14:58.002Z</time></trkpt><trkpt lat="43.2297205" lon="13.1558535"><ele>242.5</ele><time>2026-03-22T12:14:59Z</time></trkpt><trkpt lat="43.2297857" lon="13.1560206"><ele>242.0</ele><time>2026-03-22T12:15:00.001Z</time></trkpt><trkpt lat="43.2298513" lon="13.1561845"><ele>241.5</ele><time>2026-03-22T12:15:01.002Z</time></trkpt><trkpt lat="43.229911" lon="13.1563393"><ele>241.0</ele><time>2026-03-22T12:15:02.002Z</time></trkpt><trkpt lat="43.2299679" lon="13.1564941"><ele>244.0</ele><time>2026-03-22T12:15:03.002Z</time></trkpt><trkpt lat="43.2300172" lon="13.1566505"><ele>247.0</ele><time>2026-03-22T12:15:04.001Z</time></trkpt><trkpt lat="43.2300598" lon="13.1568125"><ele>250.0</ele><time>2026-03-22T12:15:05.001Z</time></trkpt><trkpt lat="43.2300967" lon="13.1569845"><ele>253.0</ele><time>2026-03-22T12:15:06.001Z</time></trkpt><trkpt lat="43.2301269" lon="13.157153"><ele>253.0</ele><time>2026-03-22T12:15:07.002Z</time></trkpt><trkpt lat="43.2301524" lon="13.1573228"><ele>253.0</ele><time>2026-03-22T12:15:08.001Z</time></trkpt><trkpt lat="43.2301758" lon="13.1574948"><ele>253.0</ele><time>2026-03-22T12:15:09.002Z</time></trkpt><trkpt lat="43.2301937" lon="13.1576567"><ele>253.0</ele><time>2026-03-22T12:15:10.002Z</time></trkpt><trkpt lat="43.2302066" lon="13.1578046"><ele>251.4</ele><time>2026-03-22T12:15:11.002Z</time></trkpt><trkpt lat="43.2302151" lon="13.1579474"><ele>249.8</ele><time>2026-03-22T12:15:12.002Z</time></trkpt><trkpt lat="43.2302209" lon="13.1580709"><ele>248.2</ele><time>2026-03-22T12:15:13.001Z</time></trkpt><trkpt lat="43.2302256" lon="13.1582091"><ele>246.6</ele><time>2026-03-22T12:15:14.001Z</time></trkpt><trkpt lat="43.2302254" lon="13.158346"><ele>245.0</ele><time>2026-03-22T12:15:15.001Z</time></trkpt><trkpt lat="43.2302232" lon="13.1584852"><ele>244.25</ele><time>2026-03-22T12:15:16.001Z</time></trkpt><trkpt lat="43.2302192" lon="13.1586334"><ele>243.5</ele><time>2026-03-22T12:15:17.001Z</time></trkpt><trkpt lat="43.2302152" lon="13.158791"><ele>242.75</ele><time>2026-03-22T12:15:18.002Z</time></trkpt><trkpt lat="43.2302119" lon="13.1589586"><ele>242.0</ele><time>2026-03-22T12:15:19.002Z</time></trkpt><trkpt lat="43.2302063" lon="13.1591357"><ele>241.75</ele><time>2026-03-22T12:15:20.001Z</time></trkpt><trkpt lat="43.2301999" lon="13.1593241"><ele>241.5</ele><time>2026-03-22T12:15:21.002Z</time></trkpt><trkpt lat="43.2301931" lon="13.1595203"><ele>241.25</ele><time>2026-03-22T12:15:22.002Z</time></trkpt><trkpt lat="43.2301843" lon="13.1597221"><ele>241.0</ele><time>2026-03-22T12:15:23.001Z</time></trkpt><trkpt lat="43.2301773" lon="13.1599174"><ele>240.75</ele><time>2026-03-22T12:15:24.001Z</time></trkpt><trkpt lat="43.2301721" lon="13.1601124"><ele>240.5</ele><time>2026-03-22T12:15:25.002Z</time></trkpt><trkpt lat="43.2301654" lon="13.1603062"><ele>240.25</ele><time>2026-03-22T12:15:26.002Z</time></trkpt><trkpt lat="43.2301578" lon="13.1604916"><ele>240.0</ele><time>2026-03-22T12:15:27.002Z</time></trkpt><trkpt lat="43.2301497" lon="13.1606821"><ele>240.5</ele><time>2026-03-22T12:15:28.001Z</time></trkpt><trkpt lat="43.2301425" lon="13.1608709"><ele>241.0</ele><time>2026-03-22T12:15:29.001Z</time></trkpt><trkpt lat="43.2301368" lon="13.1610476"><ele>241.5</ele><time>2026-03-22T12:15:30.002Z</time></trkpt><trkpt lat="43.2301329" lon="13.1612143"><ele>242.0</ele><time>2026-03-22T12:15:31Z</time></trkpt><trkpt lat="43.2301292" lon="13.1613812"><ele>242.25</ele><time>2026-03-22T12:15:32.002Z</time></trkpt><trkpt lat="43.2301248" lon="13.1615476"><ele>242.5</ele><time>2026-03-22T12:15:33.001Z</time></trkpt><trkpt lat="43.2301183" lon="13.1617242"><ele>242.75</ele><time>2026-03-22T12:15:34.001Z</time></trkpt><trkpt lat="43.2301093" lon="13.1619045"><ele>243.0</ele><time>2026-03-22T12:15:35.001Z</time></trkpt><trkpt lat="43.2301007" lon="13.1620871"><ele>243.0</ele><time>2026-03-22T12:15:36.002Z</time></trkpt><trkpt lat="43.2300933" lon="13.1622714"><ele>243.0</ele><time>2026-03-22T12:15:37.001Z</time></trkpt><trkpt lat="43.2300883" lon="13.162457"><ele>243.0</ele><time>2026-03-22T12:15:38.002Z</time></trkpt><trkpt lat="43.2300866" lon="13.1626445"><ele>243.0</ele><time>2026-03-22T12:15:39.001Z</time></trkpt><trkpt lat="43.2300941" lon="13.1628339"><ele>242.75</ele><time>2026-03-22T12:15:40.002Z</time></trkpt><trkpt lat="43.2301091" lon="13.1630186"><ele>242.5</ele><time>2026-03-22T12:15:41.002Z</time></trkpt><trkpt lat="43.2301292" lon="13.1631907"><ele>242.25</ele><time>2026-03-22T12:15:42Z</time></trkpt><trkpt lat="43.2301512" lon="13.163357"><ele>242.0</ele><time>2026-03-22T12:15:43.001Z</time></trkpt><trkpt lat="43.2301723" lon="13.1635236"><ele>242.0</ele><time>2026-03-22T12:15:44.002Z</time></trkpt><trkpt lat="43.2301915" lon="13.1636964"><ele>242.0</ele><time>2026-03-22T12:15:45.002Z</time></trkpt><trkpt lat="43.2302101" lon="13.1638719"><ele>242.0</ele><time>2026-03-22T12:15:46.001Z</time></trkpt><trkpt lat="43.2302286" lon="13.1640451"><ele>242.0</ele><time>2026-03-22T12:15:47.001Z</time></trkpt><trkpt lat="43.2302462" lon="13.1642075"><ele>241.66666666666669</ele><time>2026-03-22T12:15:48.001Z</time></trkpt><trkpt lat="43.2302614" lon="13.1643477"><ele>241.33333333333334</ele><time>2026-03-22T12:15:49.001Z</time></trkpt><trkpt lat="43.2302749" lon="13.1644777"><ele>241.0</ele><time>2026-03-22T12:15:50.002Z</time></trkpt><trkpt lat="43.2302889" lon="13.1645862"><ele>240.66666666666669</ele><time>2026-03-22T12:15:51.002Z</time></trkpt><trkpt lat="43.230295" lon="13.1646976"><ele>240.33333333333334</ele><time>2026-03-22T12:15:52.001Z</time></trkpt><trkpt lat="43.2303027" lon="13.1647979"><ele>240.0</ele><time>2026-03-22T12:15:53.001Z</time></trkpt><trkpt lat="43.2303212" lon="13.1648982"><ele>239.42857142857144</ele><time>2026-03-22T12:15:54.002Z</time></trkpt><trkpt lat="43.2303386" lon="13.1649854"><ele>238.85714285714283</ele><time>2026-03-22T12:15:55.001Z</time></trkpt><trkpt lat="43.230356" lon="13.1650737"><ele>238.28571428571428</ele><time>2026-03-22T12:15:56.001Z</time></trkpt><trkpt lat="43.2303717" lon="13.1651634"><ele>237.71428571428572</ele><time>2026-03-22T12:15:57.001Z</time></trkpt><trkpt lat="43.2303629" lon="13.1652584"><ele>237.14285714285717</ele><time>2026-03-22T12:15:58Z</time></trkpt><trkpt lat="43.2303225" lon="13.1653526"><ele>236.57142857142856</ele><time>2026-03-22T12:15:59.001Z</time></trkpt><trkpt lat="43.2302676" lon="13.1654194"><ele>236.0</ele><time>2026-03-22T12:16:00.002Z</time></trkpt><trkpt lat="43.2302097" lon="13.1654835"><ele>236.00000000000003</ele><time>2026-03-22T12:16:01.002Z</time></trkpt><trkpt lat="43.2301444" lon="13.1655391"><ele>236.0</ele><time>2026-03-22T12:16:02.001Z</time></trkpt><trkpt lat="43.2300724" lon="13.1655744"><ele>236.0</ele><time>2026-03-22T12:16:03.001Z</time></trkpt><trkpt lat="43.23" lon="13.1655818"><ele>236.0</ele><time>2026-03-22T12:16:04.001Z</time></trkpt><trkpt lat="43.229921" lon="13.165586"><ele>236.00000000000003</ele><time>2026-03-22T12:16:05.002Z</time></trkpt><trkpt lat="43.229838" lon="13.16559"><ele>236.0</ele><time>2026-03-22T12:16:06.001Z</time></trkpt><trkpt lat="43.2297547" lon="13.1656067"><ele>235.83333333333334</ele><time>2026-03-22T12:16:07.002Z</time></trkpt><trkpt lat="43.2296866" lon="13.1656551"><ele>235.66666666666669</ele><time>2026-03-22T12:16:08.002Z</time></trkpt><trkpt lat="43.2296411" lon="13.1657377"><ele>235.5</ele><time>2026-03-22T12:16:09.001Z</time></trkpt><trkpt lat="43.2296271" lon="13.1658385"><ele>235.33333333333331</ele><time>2026-03-22T12:16:10.002Z</time></trkpt><trkpt lat="43.229641" lon="13.1659655"><ele>235.16666666666666</ele><time>2026-03-22T12:16:11.002Z</time></trkpt><trkpt lat="43.2296766" lon="13.1661066"><ele>235.0</ele><time>2026-03-22T12:16:12.001Z</time></trkpt><trkpt lat="43.2297149" lon="13.1662466"><ele>234.6</ele><time>2026-03-22T12:16:13.001Z</time></trkpt><trkpt lat="43.2297492" lon="13.1663905"><ele>234.2</ele><time>2026-03-22T12:16:14.001Z</time></trkpt><trkpt lat="43.2297792" lon="13.1665327"><ele>233.8</ele><time>2026-03-22T12:16:15.001Z</time></trkpt><trkpt lat="43.2298058" lon="13.1666833"><ele>233.4</ele><time>2026-03-22T12:16:16Z</time></trkpt><trkpt lat="43.2298169" lon="13.1668272"><ele>233.0</ele><time>2026-03-22T12:16:17.002Z</time></trkpt><trkpt lat="43.2298096" lon="13.1669707"><ele>233.4</ele><time>2026-03-22T12:16:18.002Z</time></trkpt><trkpt lat="43.2297765" lon="13.1670927"><ele>233.8</ele><time>2026-03-22T12:16:19.002Z</time></trkpt><trkpt lat="43.2297218" lon="13.1671987"><ele>234.2</ele><time>2026-03-22T12:16:20.002Z</time></trkpt><trkpt lat="43.2296603" lon="13.1672935"><ele>234.6</ele><time>2026-03-22T12:16:21.002Z</time></trkpt><trkpt lat="43.2295917" lon="13.1673906"><ele>235.0</ele><time>2026-03-22T12:16:22.002Z</time></trkpt><trkpt lat="43.2295249" lon="13.1674845"><ele>235.0</ele><time>2026-03-22T12:16:23.002Z</time></trkpt><trkpt lat="43.2294582" lon="13.1675793"><ele>235.0</ele><time>2026-03-22T12:16:24.001Z</time></trkpt><trkpt lat="43.2293886" lon="13.1676779"><ele>235.0</ele><time>2026-03-22T12:16:25.001Z</time></trkpt><trkpt lat="43.2293209" lon="13.1677717"><ele>235.0</ele><time>2026-03-22T12:16:26.001Z</time></trkpt><trkpt lat="43.2292589" lon="13.1678556"><ele>235.0</ele><time>2026-03-22T12:16:27.002Z</time></trkpt><trkpt lat="43.229201" lon="13.1679347"><ele>234.99999999999997</ele><time>2026-03-22T12:16:28.002Z</time></trkpt><trkpt lat="43.2291452" lon="13.1680029"><ele>235.0</ele><time>2026-03-22T12:16:29.002Z</time></trkpt><trkpt lat="43.2290729" lon="13.1680529"><ele>235.0</ele><time>2026-03-22T12:16:30.001Z</time></trkpt><trkpt lat="43.2289874" lon="13.16806"><ele>235.0</ele><time>2026-03-22T12:16:31.001Z</time></trkpt><trkpt lat="43.2288999" lon="13.1680445"><ele>234.99999999999997</ele><time>2026-03-22T12:16:32.002Z</time></trkpt><trkpt lat="43.2288157" lon="13.1680323"><ele>235.0</ele><time>2026-03-22T12:16:33.001Z</time></trkpt><trkpt lat="43.2287367" lon="13.1680293"><ele>237.0</ele><time>2026-03-22T12:16:34.002Z</time></trkpt><trkpt lat="43.2286533" lon="13.1680468"><ele>239.0</ele><time>2026-03-22T12:16:35.001Z</time></trkpt><trkpt lat="43.2285797" lon="13.1681036"><ele>241.0</ele><time>2026-03-22T12:16:36.002Z</time></trkpt><trkpt lat="43.2285252" lon="13.1682032"><ele>243.0</ele><time>2026-03-22T12:16:37.002Z</time></trkpt><trkpt lat="43.2284868" lon="13.1683379"><ele>245.0</ele><time>2026-03-22T12:16:38.001Z</time></trkpt><trkpt lat="43.2284566" lon="13.1684883"><ele>245.0</ele><time>2026-03-22T12:16:39.001Z</time></trkpt><trkpt lat="43.2284286" lon="13.1686368"><ele>245.0</ele><time>2026-03-22T12:16:40.001Z</time></trkpt><trkpt lat="43.2283971" lon="13.1687941"><ele>245.0</ele><time>2026-03-22T12:16:41.001Z</time></trkpt><trkpt lat="43.2283665" lon="13.1689477"><ele>245.0</ele><time>2026-03-22T12:16:42.002Z</time></trkpt><trkpt lat="43.2283373" lon="13.1690928"><ele>244.75</ele><time>2026-03-22T12:16:43.002Z</time></trkpt><trkpt lat="43.2283081" lon="13.169239"><ele>244.5</ele><time>2026-03-22T12:16:44.001Z</time></trkpt><trkpt lat="43.2282797" lon="13.1693858"><ele>244.25</ele><time>2026-03-22T12:16:45.001Z</time></trkpt><trkpt lat="43.2282446" lon="13.1695403"><ele>244.0</ele><time>2026-03-22T12:16:46.002Z</time></trkpt><trkpt lat="43.2282115" lon="13.1696963"><ele>244.0</ele><time>2026-03-22T12:16:47.002Z</time></trkpt><trkpt lat="43.2281844" lon="13.1698451"><ele>243.99999999999997</ele><time>2026-03-22T12:16:48.002Z</time></trkpt><trkpt lat="43.2281659" lon="13.1699859"><ele>243.99999999999997</ele><time>2026-03-22T12:16:49.002Z</time></trkpt><trkpt lat="43.22815" lon="13.1701317"><ele>244.0</ele><time>2026-03-22T12:16:50.002Z</time></trkpt><trkpt lat="43.22814" lon="13.1702742"><ele>244.0</ele><time>2026-03-22T12:16:51.001Z</time></trkpt><trkpt lat="43.2281336" lon="13.1704132"><ele>245.6</ele><time>2026-03-22T12:16:52.001Z</time></trkpt><trkpt lat="43.2281268" lon="13.170552"><ele>247.2</ele><time>2026-03-22T12:16:53.002Z</time></trkpt><trkpt lat="43.2281194" lon="13.1706945"><ele>248.79999999999998</ele><time>2026-03-22T12:16:54.001Z</time></trkpt><trkpt lat="43.2281105" lon="13.1708437"><ele>250.39999999999998</ele><time>2026-03-22T12:16:55.001Z</time></trkpt><trkpt lat="43.2281034" lon="13.170989"><ele>252.0</ele><time>2026-03-22T12:16:56.001Z</time></trkpt><trkpt lat="43.2280989" lon="13.1711204"><ele>252.0</ele><time>2026-03-22T12:16:57.002Z</time></trkpt><trkpt lat="43.2280906" lon="13.171253"><ele>252.0</ele><time>2026-03-22T12:16:58.001Z</time></trkpt><trkpt lat="43.2280837" lon="13.171386"><ele>252.0</ele><time>2026-03-22T12:16:59.001Z</time></trkpt><trkpt lat="43.2280763" lon="13.1715135"><ele>252.0</ele><time>2026-03-22T12:17:00.001Z</time></trkpt><trkpt lat="43.2280722" lon="13.1716274"><ele>252.0</ele><time>2026-03-22T12:17:01.002Z</time></trkpt><trkpt lat="43.2280675" lon="13.1717252"><ele>252.0</ele><time>2026-03-22T12:17:02.001Z</time></trkpt><trkpt lat="43.2280541" lon="13.1718689"><ele>252.33333333333334</ele><time>2026-03-22T12:17:04.001Z</time></trkpt><trkpt lat="43.2280178" lon="13.1719522"><ele>252.66666666666669</ele><time>2026-03-22T12:17:06.001Z</time></trkpt><trkpt lat="43.2279287" lon="13.1719492"><ele>253.0</ele><time>2026-03-22T12:17:08.002Z</time></trkpt><trkpt lat="43.227861" lon="13.1719093"><ele>253.33333333333334</ele><time>2026-03-22T12:17:09Z</time></trkpt><trkpt lat="43.2277739" lon="13.1718714"><ele>253.66666666666669</ele><time>2026-03-22T12:17:10.002Z</time></trkpt><trkpt lat="43.227671" lon="13.1718483"><ele>254.0</ele><time>2026-03-22T12:17:11.002Z</time></trkpt><trkpt lat="43.2275509" lon="13.1718324"><ele>254.0</ele><time>2026-03-22T12:17:12.002Z</time></trkpt><trkpt lat="43.2274186" lon="13.1718234"><ele>254.0</ele><time>2026-03-22T12:17:13.002Z</time></trkpt><trkpt lat="43.2272696" lon="13.1718285"><ele>254.0</ele><time>2026-03-22T12:17:14.001Z</time></trkpt><trkpt lat="43.2271065" lon="13.1718665"><ele>254.0</ele><time>2026-03-22T12:17:15.001Z</time></trkpt><trkpt lat="43.2269314" lon="13.1719417"><ele>256.0</ele><time>2026-03-22T12:17:16.001Z</time></trkpt><trkpt lat="43.2267567" lon="13.1720387"><ele>258.0</ele><time>2026-03-22T12:17:17.001Z</time></trkpt><trkpt lat="43.2266102" lon="13.1721192"><ele>260.0</ele><time>2026-03-22T12:17:18.002Z</time></trkpt><trkpt lat="43.2264847" lon="13.1721858"><ele>261.25</ele><time>2026-03-22T12:17:19.002Z</time></trkpt><trkpt lat="43.2263703" lon="13.1722609"><ele>262.5</ele><time>2026-03-22T12:17:20.001Z</time></trkpt><trkpt lat="43.2262553" lon="13.172346"><ele>263.75</ele><time>2026-03-22T12:17:21.002Z</time></trkpt><trkpt lat="43.2261469" lon="13.1724271"><ele>265.0</ele><time>2026-03-22T12:17:22.001Z</time></trkpt><trkpt lat="43.2260512" lon="13.1725008"><ele>266.75</ele><time>2026-03-22T12:17:23Z</time></trkpt><trkpt lat="43.2259475" lon="13.1725793"><ele>268.5</ele><time>2026-03-22T12:17:24.002Z</time></trkpt><trkpt lat="43.2258502" lon="13.1726575"><ele>270.25</ele><time>2026-03-22T12:17:25.001Z</time></trkpt><trkpt lat="43.2257417" lon="13.1727374"><ele>272.0</ele><time>2026-03-22T12:17:26.001Z</time></trkpt><trkpt lat="43.2256277" lon="13.1728232"><ele>272.0</ele><time>2026-03-22T12:17:27.002Z</time></trkpt><trkpt lat="43.2255217" lon="13.1729141"><ele>272.0</ele><time>2026-03-22T12:17:28.001Z</time></trkpt><trkpt lat="43.2254169" lon="13.1730138"><ele>272.0</ele><time>2026-03-22T12:17:29.002Z</time></trkpt><trkpt lat="43.2253143" lon="13.1731161"><ele>272.0</ele><time>2026-03-22T12:17:30.001Z</time></trkpt><trkpt lat="43.2252181" lon="13.1732177"><ele>273.75</ele><time>2026-03-22T12:17:31.001Z</time></trkpt><trkpt lat="43.2251283" lon="13.1733227"><ele>275.5</ele><time>2026-03-22T12:17:32.001Z</time></trkpt><trkpt lat="43.2250441" lon="13.1734478"><ele>277.25</ele><time>2026-03-22T12:17:33.001Z</time></trkpt><trkpt lat="43.2249743" lon="13.173596"><ele>279.0</ele><time>2026-03-22T12:17:34.001Z</time></trkpt><trkpt lat="43.2249178" lon="13.1737484"><ele>279.0</ele><time>2026-03-22T12:17:35.002Z</time></trkpt><trkpt lat="43.2248711" lon="13.173898"><ele>279.0</ele><time>2026-03-22T12:17:36.002Z</time></trkpt><trkpt lat="43.224827" lon="13.1740414"><ele>279.0</ele><time>2026-03-22T12:17:37.002Z</time></trkpt><trkpt lat="43.2247597" lon="13.1741742"><ele>279.0</ele><time>2026-03-22T12:17:38.001Z</time></trkpt><trkpt lat="43.2246829" lon="13.1742896"><ele>279.59999999999997</ele><time>2026-03-22T12:17:39.001Z</time></trkpt><trkpt lat="43.2245876" lon="13.1743904"><ele>280.2</ele><time>2026-03-22T12:17:40.002Z</time></trkpt><trkpt lat="43.2244837" lon="13.174458"><ele>280.79999999999995</ele><time>2026-03-22T12:17:41.001Z</time></trkpt><trkpt lat="43.2243865" lon="13.1745093"><ele>281.4</ele><time>2026-03-22T12:17:42.002Z</time></trkpt><trkpt lat="43.2243093" lon="13.1745595"><ele>282.0</ele><time>2026-03-22T12:17:43.001Z</time></trkpt><trkpt lat="43.2242485" lon="13.1746036"><ele>282.0</ele><time>2026-03-22T12:17:44.002Z</time></trkpt><trkpt lat="43.2241476" lon="13.1746891"><ele>282.0</ele><time>2026-03-22T12:17:46.002Z</time></trkpt><trkpt lat="43.2240903" lon="13.1747423"><ele>282.0</ele><time>2026-03-22T12:17:47.002Z</time></trkpt><trkpt lat="43.2240221" lon="13.174808"><ele>282.0</ele><time>2026-03-22T12:17:48.002Z</time></trkpt><trkpt lat="43.2239516" lon="13.174883"><ele>282.0</ele><time>2026-03-22T12:17:49.002Z</time></trkpt><trkpt lat="43.2238941" lon="13.1749598"><ele>282.0</ele><time>2026-03-22T12:17:50.002Z</time></trkpt><trkpt lat="43.2238325" lon="13.1750429"><ele>283.4</ele><time>2026-03-22T12:17:51.001Z</time></trkpt><trkpt lat="43.2237688" lon="13.1751272"><ele>284.79999999999995</ele><time>2026-03-22T12:17:52.002Z</time></trkpt><trkpt lat="43.2236963" lon="13.175212"><ele>286.2</ele><time>2026-03-22T12:17:53.003Z</time></trkpt><trkpt lat="43.2236277" lon="13.1753002"><ele>287.59999999999997</ele><time>2026-03-22T12:17:54.003Z</time></trkpt><trkpt lat="43.2235584" lon="13.1753903"><ele>289.0</ele><time>2026-03-22T12:17:55.003Z</time></trkpt><trkpt lat="43.2234848" lon="13.1754805"><ele>289.0</ele><time>2026-03-22T12:17:56.003Z</time></trkpt><trkpt lat="43.223416" lon="13.17556"><ele>289.0</ele><time>2026-03-22T12:17:57.002Z</time></trkpt><trkpt lat="43.2233481" lon="13.1756381"><ele>289.0</ele><time>2026-03-22T12:17:58.003Z</time></trkpt><trkpt lat="43.2232906" lon="13.1757124"><ele>289.0</ele><time>2026-03-22T12:17:59.003Z</time></trkpt><trkpt lat="43.2232265" lon="13.1757794"><ele>289.0</ele><time>2026-03-22T12:18:00.002Z</time></trkpt><trkpt lat="43.2231476" lon="13.1758143"><ele>289.0</ele><time>2026-03-22T12:18:01.002Z</time></trkpt><trkpt lat="43.2230856" lon="13.17584"><ele>290.14285714285717</ele><time>2026-03-22T12:18:02.003Z</time></trkpt><trkpt lat="43.2230193" lon="13.1758492"><ele>291.2857142857143</ele><time>2026-03-22T12:18:03.002Z</time></trkpt><trkpt lat="43.2229487" lon="13.1758611"><ele>292.42857142857144</ele><time>2026-03-22T12:18:04.002Z</time></trkpt><trkpt lat="43.2228705" lon="13.1758686"><ele>293.57142857142856</ele><time>2026-03-22T12:18:05.003Z</time></trkpt><trkpt lat="43.2227951" lon="13.1758744"><ele>294.7142857142857</ele><time>2026-03-22T12:18:06.003Z</time></trkpt><trkpt lat="43.2227306" lon="13.1758723"><ele>295.8571428571429</ele><time>2026-03-22T12:18:07.002Z</time></trkpt><trkpt lat="43.2226603" lon="13.175863"><ele>297.0</ele><time>2026-03-22T12:18:08.002Z</time></trkpt><trkpt lat="43.2225835" lon="13.175857"><ele>297.0</ele><time>2026-03-22T12:18:09.002Z</time></trkpt><trkpt lat="43.2225012" lon="13.1758493"><ele>297.0</ele><time>2026-03-22T12:18:10.002Z</time></trkpt><trkpt lat="43.2224144" lon="13.1758314"><ele>297.0</ele><time>2026-03-22T12:18:11.003Z</time></trkpt><trkpt lat="43.2223281" lon="13.1758096"><ele>297.0</ele><time>2026-03-22T12:18:12.002Z</time></trkpt><trkpt lat="43.2222372" lon="13.1757867"><ele>297.0</ele><time>2026-03-22T12:18:13.003Z</time></trkpt><trkpt lat="43.2221293" lon="13.1757562"><ele>298.25</ele><time>2026-03-22T12:18:14.003Z</time></trkpt><trkpt lat="43.2220065" lon="13.1757336"><ele>299.5</ele><time>2026-03-22T12:18:15.002Z</time></trkpt><trkpt lat="43.2218777" lon="13.1757348"><ele>300.75</ele><time>2026-03-22T12:18:16.002Z</time></trkpt><trkpt lat="43.2217456" lon="13.175761"><ele>302.0</ele><time>2026-03-22T12:18:17.003Z</time></trkpt><trkpt lat="43.2216204" lon="13.1758231"><ele>303.0</ele><time>2026-03-22T12:18:18.003Z</time></trkpt><trkpt lat="43.22148" lon="13.175929"><ele>304.0</ele><time>2026-03-22T12:18:19.003Z</time></trkpt><trkpt lat="43.2213417" lon="13.1760454"><ele>305.0</ele><time>2026-03-22T12:18:20.003Z</time></trkpt><trkpt lat="43.221215" lon="13.1761614"><ele>305.0</ele><time>2026-03-22T12:18:21.002Z</time></trkpt><trkpt lat="43.2211014" lon="13.17627"><ele>305.0</ele><time>2026-03-22T12:18:22.002Z</time></trkpt><trkpt lat="43.2209928" lon="13.1763712"><ele>305.0</ele><time>2026-03-22T12:18:23.003Z</time></trkpt><trkpt lat="43.2208917" lon="13.1764546"><ele>305.0</ele><time>2026-03-22T12:18:24.003Z</time></trkpt><trkpt lat="43.220774" lon="13.176515"><ele>306.6</ele><time>2026-03-22T12:18:25.003Z</time></trkpt><trkpt lat="43.2206549" lon="13.1765574"><ele>308.2</ele><time>2026-03-22T12:18:26.003Z</time></trkpt><trkpt lat="43.2205375" lon="13.1765719"><ele>309.8</ele><time>2026-03-22T12:18:27.003Z</time></trkpt><trkpt lat="43.2204375" lon="13.1765607"><ele>311.4</ele><time>2026-03-22T12:18:28.003Z</time></trkpt><trkpt lat="43.2203318" lon="13.1765379"><ele>313.0</ele><time>2026-03-22T12:18:29.003Z</time></trkpt><trkpt lat="43.2202219" lon="13.176522"><ele>313.5</ele><time>2026-03-22T12:18:30.003Z</time></trkpt><trkpt lat="43.2201143" lon="13.1765277"><ele>314.0</ele><time>2026-03-22T12:18:31.003Z</time></trkpt><trkpt lat="43.2200001" lon="13.1765616"><ele>314.5</ele><time>2026-03-22T12:18:32.002Z</time></trkpt><trkpt lat="43.2198719" lon="13.176624"><ele>315.0</ele><time>2026-03-22T12:18:33.003Z</time></trkpt><trkpt lat="43.2197312" lon="13.1766983"><ele>317.0</ele><time>2026-03-22T12:18:34.002Z</time></trkpt><trkpt lat="43.2195568" lon="13.1767909"><ele>319.0</ele><time>2026-03-22T12:18:35.003Z</time></trkpt><trkpt lat="43.2193681" lon="13.176892"><ele>321.0</ele><time>2026-03-22T12:18:36.002Z</time></trkpt><trkpt lat="43.2191642" lon="13.1770131"><ele>321.0</ele><time>2026-03-22T12:18:37.002Z</time></trkpt><trkpt lat="43.2189953" lon="13.1771071"><ele>321.0</ele><time>2026-03-22T12:18:38.003Z</time></trkpt><trkpt lat="43.2188473" lon="13.1771833"><ele>321.0</ele><time>2026-03-22T12:18:39.003Z</time></trkpt><trkpt lat="43.2187127" lon="13.1772424"><ele>323.25</ele><time>2026-03-22T12:18:40.003Z</time></trkpt><trkpt lat="43.2185835" lon="13.1772668"><ele>325.5</ele><time>2026-03-22T12:18:41.002Z</time></trkpt><trkpt lat="43.2184614" lon="13.17724"><ele>327.75</ele><time>2026-03-22T12:18:42.002Z</time></trkpt><trkpt lat="43.2183244" lon="13.1771904"><ele>330.0</ele><time>2026-03-22T12:18:43.002Z</time></trkpt><trkpt lat="43.2181898" lon="13.1770579"><ele>335.6666666666667</ele><time>2026-03-22T12:18:44.002Z</time></trkpt><trkpt lat="43.2180491" lon="13.1769254"><ele>341.33333333333337</ele><time>2026-03-22T12:18:45.003Z</time></trkpt><trkpt lat="43.2179266" lon="13.1767981"><ele>347.0</ele><time>2026-03-22T12:18:46.003Z</time></trkpt><trkpt lat="43.2178293" lon="13.1766654"><ele>347.0</ele><time>2026-03-22T12:18:47.003Z</time></trkpt><trkpt lat="43.2177505" lon="13.1765332"><ele>347.0</ele><time>2026-03-22T12:18:48.002Z</time></trkpt><trkpt lat="43.2177017" lon="13.1763855"><ele>347.0</ele><time>2026-03-22T12:18:49.002Z</time></trkpt><trkpt lat="43.2176863" lon="13.1762188"><ele>347.0</ele><time>2026-03-22T12:18:50.003Z</time></trkpt><trkpt lat="43.2177065" lon="13.1760531"><ele>346.25</ele><time>2026-03-22T12:18:51.002Z</time></trkpt><trkpt lat="43.2177546" lon="13.1759172"><ele>345.5</ele><time>2026-03-22T12:18:52.003Z</time></trkpt><trkpt lat="43.2178342" lon="13.1758302"><ele>344.75</ele><time>2026-03-22T12:18:53.002Z</time></trkpt><trkpt lat="43.2179437" lon="13.1757641"><ele>344.0</ele><time>2026-03-22T12:18:54.002Z</time></trkpt><trkpt lat="43.2180735" lon="13.1757068"><ele>344.5</ele><time>2026-03-22T12:18:55.002Z</time></trkpt><trkpt lat="43.2182234" lon="13.1756915"><ele>345.0</ele><time>2026-03-22T12:18:56.003Z</time></trkpt><trkpt lat="43.2183564" lon="13.175728"><ele>345.5</ele><time>2026-03-22T12:18:57.001Z</time></trkpt><trkpt lat="43.2184658" lon="13.175733"><ele>346.0</ele><time>2026-03-22T12:18:58.002Z</time></trkpt><trkpt lat="43.218578" lon="13.1757129"><ele>350.5</ele><time>2026-03-22T12:18:59.002Z</time></trkpt><trkpt lat="43.2186835" lon="13.1756465"><ele>355.0</ele><time>2026-03-22T12:19:00.001Z</time></trkpt><trkpt lat="43.2187871" lon="13.1755793"><ele>359.5</ele><time>2026-03-22T12:19:01.003Z</time></trkpt><trkpt lat="43.2188649" lon="13.1754366"><ele>364.0</ele><time>2026-03-22T12:19:02.002Z</time></trkpt><trkpt lat="43.2189338" lon="13.1753242"><ele>364.0</ele><time>2026-03-22T12:19:03.003Z</time></trkpt><trkpt lat="43.2189582" lon="13.1752161"><ele>364.0</ele><time>2026-03-22T12:19:04.003Z</time></trkpt><trkpt lat="43.2189504" lon="13.1751067"><ele>364.0</ele><time>2026-03-22T12:19:05.003Z</time></trkpt><trkpt lat="43.2189103" lon="13.1749852"><ele>364.0</ele><time>2026-03-22T12:19:06.003Z</time></trkpt><trkpt lat="43.2188464" lon="13.1748556"><ele>364.0</ele><time>2026-03-22T12:19:07.003Z</time></trkpt><trkpt lat="43.2187763" lon="13.174762"><ele>366.75</ele><time>2026-03-22T12:19:08.002Z</time></trkpt><trkpt lat="43.2186686" lon="13.1746619"><ele>369.5</ele><time>2026-03-22T12:19:09.003Z</time></trkpt><trkpt lat="43.2185558" lon="13.1745873"><ele>372.25</ele><time>2026-03-22T12:19:10.002Z</time></trkpt><trkpt lat="43.2184578" lon="13.174523"><ele>375.0</ele><time>2026-03-22T12:19:11.002Z</time></trkpt><trkpt lat="43.2183793" lon="13.1744473"><ele>375.0</ele><time>2026-03-22T12:19:12.002Z</time></trkpt><trkpt lat="43.2183352" lon="13.1743649"><ele>375.0</ele><time>2026-03-22T12:19:13.003Z</time></trkpt><trkpt lat="43.2183289" lon="13.174263"><ele>375.0</ele><time>2026-03-22T12:19:14.002Z</time></trkpt><trkpt lat="43.2183318" lon="13.1741315"><ele>375.0</ele><time>2026-03-22T12:19:15.002Z</time></trkpt><trkpt lat="43.2183414" lon="13.1739592"><ele>375.0</ele><time>2026-03-22T12:19:16.002Z</time></trkpt><trkpt lat="43.2183248" lon="13.1737867"><ele>375.75</ele><time>2026-03-22T12:19:17.002Z</time></trkpt><trkpt lat="43.2182923" lon="13.1736125"><ele>376.5</ele><time>2026-03-22T12:19:18.002Z</time></trkpt><trkpt lat="43.2182422" lon="13.1734448"><ele>377.25</ele><time>2026-03-22T12:19:19.002Z</time></trkpt><trkpt lat="43.218191" lon="13.1733004"><ele>378.0</ele><time>2026-03-22T12:19:20.002Z</time></trkpt><trkpt lat="43.2180983" lon="13.1731526"><ele>388.5</ele><time>2026-03-22T12:19:21.002Z</time></trkpt><trkpt lat="43.2179779" lon="13.1730573"><ele>399.0</ele><time>2026-03-22T12:19:22.002Z</time></trkpt><trkpt lat="43.2178933" lon="13.1729281"><ele>409.5</ele><time>2026-03-22T12:19:23.003Z</time></trkpt><trkpt lat="43.2178278" lon="13.1727771"><ele>420.0</ele><time>2026-03-22T12:19:24.003Z</time></trkpt><trkpt lat="43.2177902" lon="13.1726118"><ele>420.0</ele><time>2026-03-22T12:19:25.002Z</time></trkpt><trkpt lat="43.2177889" lon="13.1724508"><ele>420.0</ele><time>2026-03-22T12:19:26.002Z</time></trkpt><trkpt lat="43.217816" lon="13.1723026"><ele>420.0</ele><time>2026-03-22T12:19:27.002Z</time></trkpt><trkpt lat="43.2178721" lon="13.1721644"><ele>420.0</ele><time>2026-03-22T12:19:28.002Z</time></trkpt><trkpt lat="43.217949" lon="13.1720565"><ele>417.6</ele><time>2026-03-22T12:19:29.002Z</time></trkpt><trkpt lat="43.2180457" lon="13.1719697"><ele>415.2</ele><time>2026-03-22T12:19:30.002Z</time></trkpt><trkpt lat="43.2181263" lon="13.1718786"><ele>412.79999999999995</ele><time>2026-03-22T12:19:31.002Z</time></trkpt><trkpt lat="43.2181804" lon="13.1717531"><ele>410.4</ele><time>2026-03-22T12:19:32.002Z</time></trkpt><trkpt lat="43.2182115" lon="13.1715987"><ele>408.0</ele><time>2026-03-22T12:19:33.002Z</time></trkpt><trkpt lat="43.2182188" lon="13.1714047"><ele>408.0</ele><time>2026-03-22T12:19:34.003Z</time></trkpt><trkpt lat="43.2182212" lon="13.1711979"><ele>408.0</ele><time>2026-03-22T12:19:35.002Z</time></trkpt><trkpt lat="43.2182176" lon="13.1709675"><ele>408.0</ele><time>2026-03-22T12:19:36.002Z</time></trkpt><trkpt lat="43.2182015" lon="13.1707199"><ele>411.66666666666663</ele><time>2026-03-22T12:19:37.002Z</time></trkpt><trkpt lat="43.2181856" lon="13.170478"><ele>415.3333333333333</ele><time>2026-03-22T12:19:38.002Z</time></trkpt><trkpt lat="43.218188" lon="13.1702277"><ele>419.0</ele><time>2026-03-22T12:19:39.003Z</time></trkpt><trkpt lat="43.2182141" lon="13.1699932"><ele>424.5</ele><time>2026-03-22T12:19:40.002Z</time></trkpt><trkpt lat="43.2182629" lon="13.1697911"><ele>430.0</ele><time>2026-03-22T12:19:41.003Z</time></trkpt><trkpt lat="43.2183442" lon="13.1696334"><ele>435.5</ele><time>2026-03-22T12:19:42.002Z</time></trkpt><trkpt lat="43.218457" lon="13.1695148"><ele>441.0</ele><time>2026-03-22T12:19:43.003Z</time></trkpt><trkpt lat="43.2185692" lon="13.1694405"><ele>441.0</ele><time>2026-03-22T12:19:44.003Z</time></trkpt><trkpt lat="43.2186722" lon="13.1693812"><ele>441.0</ele><time>2026-03-22T12:19:45.003Z</time></trkpt><trkpt lat="43.2187741" lon="13.1693288"><ele>441.0</ele><time>2026-03-22T12:19:46.002Z</time></trkpt><trkpt lat="43.2188723" lon="13.1692777"><ele>441.0</ele><time>2026-03-22T12:19:47.002Z</time></trkpt><trkpt lat="43.2189713" lon="13.1692341"><ele>441.0</ele><time>2026-03-22T12:19:48.002Z</time></trkpt><trkpt lat="43.2190717" lon="13.1691993"><ele>437.25</ele><time>2026-03-22T12:19:49.002Z</time></trkpt><trkpt lat="43.2191735" lon="13.1691741"><ele>433.5</ele><time>2026-03-22T12:19:50.002Z</time></trkpt><trkpt lat="43.2192812" lon="13.1691561"><ele>429.75</ele><time>2026-03-22T12:19:51.003Z</time></trkpt><trkpt lat="43.2193989" lon="13.1691373"><ele>426.0</ele><time>2026-03-22T12:19:52.003Z</time></trkpt><trkpt lat="43.2195228" lon="13.1691128"><ele>426.0</ele><time>2026-03-22T12:19:53.002Z</time></trkpt><trkpt lat="43.2196568" lon="13.1690883"><ele>426.0</ele><time>2026-03-22T12:19:54.002Z</time></trkpt><trkpt lat="43.2197906" lon="13.16907"><ele>426.0</ele><time>2026-03-22T12:19:55.003Z</time></trkpt><trkpt lat="43.2199197" lon="13.1690482"><ele>426.0</ele><time>2026-03-22T12:19:56.003Z</time></trkpt><trkpt lat="43.2200329" lon="13.1690109"><ele>429.20000000000005</ele><time>2026-03-22T12:19:57.002Z</time></trkpt><trkpt lat="43.2201367" lon="13.1689492"><ele>432.40000000000003</ele><time>2026-03-22T12:19:58.002Z</time></trkpt><trkpt lat="43.2202271" lon="13.1688609"><ele>435.6</ele><time>2026-03-22T12:19:59.002Z</time></trkpt><trkpt lat="43.2202992" lon="13.1687524"><ele>438.8</ele><time>2026-03-22T12:20:00.002Z</time></trkpt><trkpt lat="43.2203534" lon="13.1686165"><ele>442.0</ele><time>2026-03-22T12:20:01.002Z</time></trkpt><trkpt lat="43.2203856" lon="13.1684632"><ele>442.0</ele><time>2026-03-22T12:20:02.002Z</time></trkpt><trkpt lat="43.2204104" lon="13.1683038"><ele>442.0</ele><time>2026-03-22T12:20:03.002Z</time></trkpt><trkpt lat="43.220431" lon="13.1681398"><ele>442.0</ele><time>2026-03-22T12:20:04.002Z</time></trkpt><trkpt lat="43.220448" lon="13.1679735"><ele>442.0</ele><time>2026-03-22T12:20:05.003Z</time></trkpt><trkpt lat="43.2204621" lon="13.1678028"><ele>445.0</ele><time>2026-03-22T12:20:06.003Z</time></trkpt><trkpt lat="43.2204766" lon="13.1676314"><ele>448.0</ele><time>2026-03-22T12:20:07.002Z</time></trkpt><trkpt lat="43.2204881" lon="13.1674527"><ele>451.0</ele><time>2026-03-22T12:20:08.002Z</time></trkpt><trkpt lat="43.2204967" lon="13.1672688"><ele>454.0</ele><time>2026-03-22T12:20:09.002Z</time></trkpt><trkpt lat="43.2205051" lon="13.1670828"><ele>453.75</ele><time>2026-03-22T12:20:10.002Z</time></trkpt><trkpt lat="43.2205089" lon="13.1668971"><ele>453.5</ele><time>2026-03-22T12:20:11.002Z</time></trkpt><trkpt lat="43.2205059" lon="13.1667145"><ele>453.25</ele><time>2026-03-22T12:20:12.003Z</time></trkpt><trkpt lat="43.2204917" lon="13.1665348"><ele>453.0</ele><time>2026-03-22T12:20:13.003Z</time></trkpt><trkpt lat="43.220467" lon="13.1663573"><ele>453.0</ele><time>2026-03-22T12:20:14.003Z</time></trkpt><trkpt lat="43.2204328" lon="13.1661866"><ele>452.99999999999994</ele><time>2026-03-22T12:20:15.002Z</time></trkpt><trkpt lat="43.2203926" lon="13.1660381"><ele>452.99999999999994</ele><time>2026-03-22T12:20:16.002Z</time></trkpt><trkpt lat="43.220351" lon="13.1659136"><ele>453.0</ele><time>2026-03-22T12:20:17.003Z</time></trkpt><trkpt lat="43.2203061" lon="13.165836"><ele>453.0</ele><time>2026-03-22T12:20:18.002Z</time></trkpt><trkpt lat="43.2202079" lon="13.1658166"><ele>453.0</ele><time>2026-03-22T12:20:20.003Z</time></trkpt><trkpt lat="43.2201302" lon="13.1659579"><ele>453.0</ele><time>2026-03-22T12:20:22.002Z</time></trkpt><trkpt lat="43.2200961" lon="13.1660849"><ele>453.0</ele><time>2026-03-22T12:20:23.002Z</time></trkpt><trkpt lat="43.2200577" lon="13.1662502"><ele>453.0</ele><time>2026-03-22T12:20:24.002Z</time></trkpt><trkpt lat="43.2200143" lon="13.1664167"><ele>454.25</ele><time>2026-03-22T12:20:25.002Z</time></trkpt><trkpt lat="43.2199635" lon="13.1665892"><ele>455.5</ele><time>2026-03-22T12:20:26.003Z</time></trkpt><trkpt lat="43.2199154" lon="13.1667441"><ele>456.75</ele><time>2026-03-22T12:20:27.003Z</time></trkpt><trkpt lat="43.219867" lon="13.1668861"><ele>458.0</ele><time>2026-03-22T12:20:28.002Z</time></trkpt><trkpt lat="43.2198187" lon="13.1670072"><ele>459.3333333333333</ele><time>2026-03-22T12:20:29.003Z</time></trkpt><trkpt lat="43.2197635" lon="13.1671095"><ele>460.66666666666663</ele><time>2026-03-22T12:20:30.003Z</time></trkpt><trkpt lat="43.2196969" lon="13.1671965"><ele>462.0</ele><time>2026-03-22T12:20:31.002Z</time></trkpt><trkpt lat="43.2196273" lon="13.1672677"><ele>463.33333333333337</ele><time>2026-03-22T12:20:32.002Z</time></trkpt><trkpt lat="43.2195711" lon="13.1673293"><ele>464.6666666666667</ele><time>2026-03-22T12:20:33.002Z</time></trkpt><trkpt lat="43.2194823" lon="13.1673924"><ele>466.0</ele><time>2026-03-22T12:20:35.003Z</time></trkpt><trkpt lat="43.2194007" lon="13.1674357"><ele>466.00000000000006</ele><time>2026-03-22T12:20:37.002Z</time></trkpt><trkpt lat="43.2193086" lon="13.1674799"><ele>466.0</ele><time>2026-03-22T12:20:39.003Z</time></trkpt><trkpt lat="43.2192469" lon="13.1675161"><ele>466.0</ele><time>2026-03-22T12:20:40.003Z</time></trkpt><trkpt lat="43.2191804" lon="13.1675539"><ele>466.0</ele><time>2026-03-22T12:20:41.003Z</time></trkpt><trkpt lat="43.2191124" lon="13.1675863"><ele>466.00000000000006</ele><time>2026-03-22T12:20:42.003Z</time></trkpt><trkpt lat="43.2190425" lon="13.1676153"><ele>466.0</ele><time>2026-03-22T12:20:43.003Z</time></trkpt><trkpt lat="43.218975" lon="13.1676437"><ele>468.50000000000006</ele><time>2026-03-22T12:20:44.002Z</time></trkpt><trkpt lat="43.2189102" lon="13.1676635"><ele>471.0</ele><time>2026-03-22T12:20:45.002Z</time></trkpt><trkpt lat="43.2188408" lon="13.1676807"><ele>473.5</ele><time>2026-03-22T12:20:46.002Z</time></trkpt><trkpt lat="43.2187611" lon="13.1677071"><ele>476.0</ele><time>2026-03-22T12:20:47.001Z</time></trkpt><trkpt lat="43.2186739" lon="13.1677316"><ele>478.50000000000006</ele><time>2026-03-22T12:20:48.002Z</time></trkpt><trkpt lat="43.2185812" lon="13.1677548"><ele>481.0</ele><time>2026-03-22T12:20:49.002Z</time></trkpt><trkpt lat="43.2184849" lon="13.1677807"><ele>481.0</ele><time>2026-03-22T12:20:50.003Z</time></trkpt><trkpt lat="43.2183869" lon="13.1678122"><ele>481.0</ele><time>2026-03-22T12:20:51.002Z</time></trkpt><trkpt lat="43.2182852" lon="13.167844"><ele>481.0</ele><time>2026-03-22T12:20:52.003Z</time></trkpt><trkpt lat="43.2181811" lon="13.1678713"><ele>481.0</ele><time>2026-03-22T12:20:53.003Z</time></trkpt><trkpt lat="43.218076" lon="13.1678914"><ele>481.0</ele><time>2026-03-22T12:20:54.003Z</time></trkpt><trkpt lat="43.2179708" lon="13.1678936"><ele>483.00000000000006</ele><time>2026-03-22T12:20:55.003Z</time></trkpt><trkpt lat="43.217867" lon="13.1678812"><ele>485.0</ele><time>2026-03-22T12:20:56.002Z</time></trkpt><trkpt lat="43.2177699" lon="13.167864"><ele>487.0</ele><time>2026-03-22T12:20:57.003Z</time></trkpt><trkpt lat="43.2176818" lon="13.1678412"><ele>489.0</ele><time>2026-03-22T12:20:58.002Z</time></trkpt><trkpt lat="43.2176085" lon="13.1678195"><ele>491.00000000000006</ele><time>2026-03-22T12:20:59.002Z</time></trkpt><trkpt lat="43.2175338" lon="13.1678107"><ele>493.0</ele><time>2026-03-22T12:21:00.002Z</time></trkpt><trkpt lat="43.2174523" lon="13.1678052"><ele>493.00000000000006</ele><time>2026-03-22T12:21:01.002Z</time></trkpt><trkpt lat="43.2173722" lon="13.1678011"><ele>493.0</ele><time>2026-03-22T12:21:02.003Z</time></trkpt><trkpt lat="43.2172925" lon="13.1678066"><ele>493.0</ele><time>2026-03-22T12:21:03.002Z</time></trkpt><trkpt lat="43.2172104" lon="13.1678168"><ele>493.0</ele><time>2026-03-22T12:21:04.002Z</time></trkpt><trkpt lat="43.2171257" lon="13.1678092"><ele>493.00000000000006</ele><time>2026-03-22T12:21:05.002Z</time></trkpt><trkpt lat="43.2170518" lon="13.1677951"><ele>493.0</ele><time>2026-03-22T12:21:06.002Z</time></trkpt><trkpt lat="43.216985" lon="13.1677926"><ele>496.33333333333337</ele><time>2026-03-22T12:21:07.003Z</time></trkpt><trkpt lat="43.2169095" lon="13.1677958"><ele>499.6666666666667</ele><time>2026-03-22T12:21:08.003Z</time></trkpt><trkpt lat="43.2168266" lon="13.1677919"><ele>503.0</ele><time>2026-03-22T12:21:09.003Z</time></trkpt><trkpt lat="43.2167485" lon="13.1677912"><ele>506.33333333333337</ele><time>2026-03-22T12:21:10.003Z</time></trkpt><trkpt lat="43.2166506" lon="13.1678095"><ele>509.6666666666667</ele><time>2026-03-22T12:21:12.003Z</time></trkpt><trkpt lat="43.2167459" lon="13.1677902"><ele>513.0</ele><time>2026-03-22T12:21:31.003Z</time></trkpt><trkpt lat="43.2168577" lon="13.1677925"><ele>513.0</ele><time>2026-03-22T12:21:32.003Z</time></trkpt><trkpt lat="43.2170002" lon="13.1677999"><ele>513.0</ele><time>2026-03-22T12:21:33.003Z</time></trkpt><trkpt lat="43.2171477" lon="13.1678077"><ele>513.0</ele><time>2026-03-22T12:21:34.003Z</time></trkpt><trkpt lat="43.2172868" lon="13.1678128"><ele>513.0</ele><time>2026-03-22T12:21:35.003Z</time></trkpt><trkpt lat="43.2174221" lon="13.1678169"><ele>508.0</ele><time>2026-03-22T12:21:36.003Z</time></trkpt><trkpt lat="43.2175548" lon="13.1678279"><ele>503.0</ele><time>2026-03-22T12:21:37.002Z</time></trkpt><trkpt lat="43.217686" lon="13.1678488"><ele>498.0</ele><time>2026-03-22T12:21:38.002Z</time></trkpt><trkpt lat="43.2178066" lon="13.1678745"><ele>493.0</ele><time>2026-03-22T12:21:39.002Z</time></trkpt><trkpt lat="43.2179203" lon="13.1678926"><ele>493.0</ele><time>2026-03-22T12:21:40.002Z</time></trkpt><trkpt lat="43.2180332" lon="13.1678931"><ele>493.0</ele><time>2026-03-22T12:21:41.003Z</time></trkpt><trkpt lat="43.2181548" lon="13.1678703"><ele>493.0</ele><time>2026-03-22T12:21:42.003Z</time></trkpt><trkpt lat="43.2182803" lon="13.1678356"><ele>493.0</ele><time>2026-03-22T12:21:43.003Z</time></trkpt><trkpt lat="43.2184124" lon="13.1677967"><ele>490.0</ele><time>2026-03-22T12:21:44.003Z</time></trkpt><trkpt lat="43.2185434" lon="13.1677587"><ele>487.0</ele><time>2026-03-22T12:21:45.003Z</time></trkpt><trkpt lat="43.2186612" lon="13.1677294"><ele>484.0</ele><time>2026-03-22T12:21:46.002Z</time></trkpt><trkpt lat="43.2187723" lon="13.1677037"><ele>481.0</ele><time>2026-03-22T12:21:47.002Z</time></trkpt><trkpt lat="43.2188849" lon="13.1676721"><ele>477.25</ele><time>2026-03-22T12:21:48.002Z</time></trkpt><trkpt lat="43.2189937" lon="13.1676282"><ele>473.5</ele><time>2026-03-22T12:21:49.002Z</time></trkpt><trkpt lat="43.2191093" lon="13.1675721"><ele>469.75</ele><time>2026-03-22T12:21:50.003Z</time></trkpt><trkpt lat="43.2192259" lon="13.1675124"><ele>466.0</ele><time>2026-03-22T12:21:51.003Z</time></trkpt><trkpt lat="43.2193404" lon="13.1674534"><ele>466.0</ele><time>2026-03-22T12:21:52.003Z</time></trkpt><trkpt lat="43.2194431" lon="13.1674017"><ele>466.0</ele><time>2026-03-22T12:21:53.003Z</time></trkpt><trkpt lat="43.2195401" lon="13.1673446"><ele>466.0</ele><time>2026-03-22T12:21:54.002Z</time></trkpt><trkpt lat="43.2196336" lon="13.167271"><ele>466.0</ele><time>2026-03-22T12:21:55.003Z</time></trkpt><trkpt lat="43.219717" lon="13.1671814"><ele>466.0</ele><time>2026-03-22T12:21:56.002Z</time></trkpt><trkpt lat="43.2197875" lon="13.1670756"><ele>464.0</ele><time>2026-03-22T12:21:57.003Z</time></trkpt><trkpt lat="43.2198501" lon="13.1669406"><ele>462.0</ele><time>2026-03-22T12:21:58.002Z</time></trkpt><trkpt lat="43.219903" lon="13.1667857"><ele>460.0</ele><time>2026-03-22T12:21:59.002Z</time></trkpt><trkpt lat="43.2199531" lon="13.1666204"><ele>458.0</ele><time>2026-03-22T12:22:00.003Z</time></trkpt><trkpt lat="43.2200004" lon="13.1664637"><ele>457.0</ele><time>2026-03-22T12:22:01.002Z</time></trkpt><trkpt lat="43.2200442" lon="13.1663145"><ele>455.99999999999994</ele><time>2026-03-22T12:22:02.002Z</time></trkpt><trkpt lat="43.220082" lon="13.1661724"><ele>454.99999999999994</ele><time>2026-03-22T12:22:03.003Z</time></trkpt><trkpt lat="43.2201174" lon="13.1660397"><ele>454.0</ele><time>2026-03-22T12:22:04.002Z</time></trkpt><trkpt lat="43.2201501" lon="13.1659314"><ele>453.0</ele><time>2026-03-22T12:22:05.002Z</time></trkpt><trkpt lat="43.2201806" lon="13.1658361"><ele>453.0</ele><time>2026-03-22T12:22:06.002Z</time></trkpt><trkpt lat="43.2202113" lon="13.1657542"><ele>452.99999999999994</ele><time>2026-03-22T12:22:07.003Z</time></trkpt><trkpt lat="43.2202404" lon="13.1656039"><ele>452.99999999999994</ele><time>2026-03-22T12:22:09.002Z</time></trkpt><trkpt lat="43.2201937" lon="13.1654651"><ele>453.0</ele><time>2026-03-22T12:22:11.002Z</time></trkpt><trkpt lat="43.2200944" lon="13.1654004"><ele>453.0</ele><time>2026-03-22T12:22:13.002Z</time></trkpt><trkpt lat="43.2199709" lon="13.1653871"><ele>450.3333333333333</ele><time>2026-03-22T12:22:15.002Z</time></trkpt><trkpt lat="43.2198992" lon="13.1653787"><ele>447.66666666666663</ele><time>2026-03-22T12:22:16.003Z</time></trkpt><trkpt lat="43.2198166" lon="13.1653662"><ele>445.0</ele><time>2026-03-22T12:22:17.002Z</time></trkpt><trkpt lat="43.2197298" lon="13.1653601"><ele>442.3333333333333</ele><time>2026-03-22T12:22:18.002Z</time></trkpt><trkpt lat="43.2196354" lon="13.1653569"><ele>439.66666666666663</ele><time>2026-03-22T12:22:19.002Z</time></trkpt><trkpt lat="43.2195382" lon="13.1653694"><ele>437.0</ele><time>2026-03-22T12:22:20.003Z</time></trkpt><trkpt lat="43.2194273" lon="13.1654071"><ele>437.0</ele><time>2026-03-22T12:22:21.002Z</time></trkpt><trkpt lat="43.2193112" lon="13.1654645"><ele>437.0</ele><time>2026-03-22T12:22:22.003Z</time></trkpt><trkpt lat="43.2191983" lon="13.1655318"><ele>437.0</ele><time>2026-03-22T12:22:23.003Z</time></trkpt><trkpt lat="43.2190905" lon="13.1656094"><ele>437.0</ele><time>2026-03-22T12:22:24.002Z</time></trkpt><trkpt lat="43.2189908" lon="13.1657007"><ele>445.5</ele><time>2026-03-22T12:22:25.001Z</time></trkpt><trkpt lat="43.218897" lon="13.1657951"><ele>454.0</ele><time>2026-03-22T12:22:26.003Z</time></trkpt><trkpt lat="43.2188017" lon="13.1658854"><ele>462.5</ele><time>2026-03-22T12:22:27.003Z</time></trkpt><trkpt lat="43.2187048" lon="13.1659552"><ele>471.0</ele><time>2026-03-22T12:22:28.003Z</time></trkpt><trkpt lat="43.218616" lon="13.1660528"><ele>471.0</ele><time>2026-03-22T12:22:29.003Z</time></trkpt><trkpt lat="43.2185337" lon="13.1661534"><ele>471.0</ele><time>2026-03-22T12:22:30.002Z</time></trkpt><trkpt lat="43.2184458" lon="13.1662309"><ele>471.0</ele><time>2026-03-22T12:22:31.003Z</time></trkpt><trkpt lat="43.2183555" lon="13.1662818"><ele>471.0</ele><time>2026-03-22T12:22:32.002Z</time></trkpt><trkpt lat="43.2182734" lon="13.1663184"><ele>471.0</ele><time>2026-03-22T12:22:33.003Z</time></trkpt><trkpt lat="43.2182013" lon="13.1663429"><ele>471.5</ele><time>2026-03-22T12:22:34.003Z</time></trkpt><trkpt lat="43.2181133" lon="13.1663773"><ele>472.0</ele><time>2026-03-22T12:22:36.003Z</time></trkpt><trkpt lat="43.2180445" lon="13.1663842"><ele>472.5</ele><time>2026-03-22T12:22:38.002Z</time></trkpt><trkpt lat="43.2179577" lon="13.1663633"><ele>473.0</ele><time>2026-03-22T12:22:40.003Z</time></trkpt><trkpt lat="43.2178642" lon="13.166376"><ele>473.5</ele><time>2026-03-22T12:22:42.003Z</time></trkpt><trkpt lat="43.2177966" lon="13.1664303"><ele>474.0</ele><time>2026-03-22T12:22:44.002Z</time></trkpt><trkpt lat="43.2177858" lon="13.1665237"><ele>474.0</ele><time>2026-03-22T12:22:46.003Z</time></trkpt><trkpt lat="43.21781" lon="13.1666468"><ele>491.0</ele><time>2026-03-22T12:22:48.003Z</time></trkpt><trkpt lat="43.2178333" lon="13.1667611"><ele>491.0</ele><time>2026-03-22T12:22:50.003Z</time></trkpt><trkpt lat="43.2178512" lon="13.166844"><ele>491.0</ele><time>2026-03-22T12:22:53.002Z</time></trkpt><trkpt lat="43.2178818" lon="13.1669432"><ele>491.0</ele><time>2026-03-22T12:23:00.003Z</time></trkpt></trkseg></trk></gpx>